<?xml version='1.0' encoding='UTF-8'?><gpx version="1.1" creator="JPX - https://github.com/jenetics/jpx" xmlns="http://www.topografix.com/GPX/1/1"><trk><trkseg><trkpt lat="44.454355" lon="11.4241333"><ele>75.0</ele><time>2026-05-02T07:54:01.868Z</time></trkpt><trkpt lat="44.45433" lon="11.424035"><ele>75.0</ele><time>2026-05-02T07:54:03.868Z</time></trkpt><trkpt lat="44.4543333" lon="11.4239283"><ele>75.0</ele><time>2026-05-02T07:54:14.869Z</time></trkpt><trkpt lat="44.454395" lon="11.4238583"><ele>75.0</ele><time>2026-05-02T07:54:15.869Z</time></trkpt><trkpt lat="44.4544867" lon="11.4237683"><ele>75.0</ele><time>2026-05-02T07:54:16.868Z</time></trkpt><trkpt lat="44.4545767" lon="11.423685"><ele>74.16666666666667</ele><time>2026-05-02T07:54:17.869Z</time></trkpt><trkpt lat="44.454665" lon="11.423605"><ele>73.33333333333333</ele><time>2026-05-02T07:54:18.868Z</time></trkpt><trkpt lat="44.45474" lon="11.4235333"><ele>72.5</ele><time>2026-05-02T07:54:19.868Z</time></trkpt><trkpt lat="44.4548117" lon="11.4234667"><ele>71.66666666666666</ele><time>2026-05-02T07:54:20.868Z</time></trkpt><trkpt lat="44.45488" lon="11.4234033"><ele>70.83333333333333</ele><time>2026-05-02T07:54:21.868Z</time></trkpt><trkpt lat="44.45495" lon="11.4233483"><ele>70.0</ele><time>2026-05-02T07:54:22.868Z</time></trkpt><trkpt lat="44.4550167" lon="11.4233167"><ele>70.0</ele><time>2026-05-02T07:54:23.868Z</time></trkpt><trkpt lat="44.4550983" lon="11.423315"><ele>70.0</ele><time>2026-05-02T07:54:24.869Z</time></trkpt><trkpt lat="44.4552017" lon="11.4233483"><ele>70.0</ele><time>2026-05-02T07:54:25.868Z</time></trkpt><trkpt lat="44.4553133" lon="11.4233717"><ele>70.0</ele><time>2026-05-02T07:54:26.869Z</time></trkpt><trkpt lat="44.4554133" lon="11.42337"><ele>70.0</ele><time>2026-05-02T07:54:27.869Z</time></trkpt><trkpt lat="44.4554983" lon="11.4233717"><ele>70.6</ele><time>2026-05-02T07:54:28.868Z</time></trkpt><trkpt lat="44.4555717" lon="11.4234067"><ele>71.2</ele><time>2026-05-02T07:54:29.868Z</time></trkpt><trkpt lat="44.4556417" lon="11.4234533"><ele>71.8</ele><time>2026-05-02T07:54:30.868Z</time></trkpt><trkpt lat="44.45571" lon="11.4235367"><ele>72.4</ele><time>2026-05-02T07:54:31.868Z</time></trkpt><trkpt lat="44.4557817" lon="11.4236383"><ele>73.0</ele><time>2026-05-02T07:54:32.868Z</time></trkpt><trkpt lat="44.45587" lon="11.423765"><ele>73.25</ele><time>2026-05-02T07:54:33.869Z</time></trkpt><trkpt lat="44.4559583" lon="11.4238967"><ele>73.5</ele><time>2026-05-02T07:54:34.869Z</time></trkpt><trkpt lat="44.4560533" lon="11.42404"><ele>73.75</ele><time>2026-05-02T07:54:35.868Z</time></trkpt><trkpt lat="44.4561483" lon="11.424175"><ele>74.0</ele><time>2026-05-02T07:54:36.868Z</time></trkpt><trkpt lat="44.4562417" lon="11.4243083"><ele>74.25</ele><time>2026-05-02T07:54:37.869Z</time></trkpt><trkpt lat="44.4563367" lon="11.4244467"><ele>74.5</ele><time>2026-05-02T07:54:38.868Z</time></trkpt><trkpt lat="44.456435" lon="11.42459"><ele>74.75</ele><time>2026-05-02T07:54:39.868Z</time></trkpt><trkpt lat="44.4565367" lon="11.4247367"><ele>75.0</ele><time>2026-05-02T07:54:40.868Z</time></trkpt><trkpt lat="44.4566367" lon="11.4248783"><ele>75.0</ele><time>2026-05-02T07:54:41.868Z</time></trkpt><trkpt lat="44.4567367" lon="11.425025"><ele>75.0</ele><time>2026-05-02T07:54:42.869Z</time></trkpt><trkpt lat="44.4568417" lon="11.425165"><ele>75.0</ele><time>2026-05-02T07:54:43.868Z</time></trkpt><trkpt lat="44.4569483" lon="11.425315"><ele>75.0</ele><time>2026-05-02T07:54:44.868Z</time></trkpt><trkpt lat="44.4570617" lon="11.4254717"><ele>75.33333333333333</ele><time>2026-05-02T07:54:45.869Z</time></trkpt><trkpt lat="44.4571717" lon="11.4256367"><ele>75.66666666666666</ele><time>2026-05-02T07:54:46.868Z</time></trkpt><trkpt lat="44.4572867" lon="11.4257983"><ele>76.0</ele><time>2026-05-02T07:54:47.869Z</time></trkpt><trkpt lat="44.4574" lon="11.42596"><ele>76.0</ele><time>2026-05-02T07:54:48.869Z</time></trkpt><trkpt lat="44.4575117" lon="11.4261217"><ele>76.0</ele><time>2026-05-02T07:54:49.868Z</time></trkpt><trkpt lat="44.4576183" lon="11.4262867"><ele>76.0</ele><time>2026-05-02T07:54:50.868Z</time></trkpt><trkpt lat="44.4577183" lon="11.42645"><ele>74.33333333333333</ele><time>2026-05-02T07:54:51.869Z</time></trkpt><trkpt lat="44.4578117" lon="11.4266167"><ele>72.66666666666667</ele><time>2026-05-02T07:54:52.868Z</time></trkpt><trkpt lat="44.457905" lon="11.4267833"><ele>71.0</ele><time>2026-05-02T07:54:53.869Z</time></trkpt><trkpt lat="44.45798" lon="11.42697"><ele>70.75</ele><time>2026-05-02T07:54:54.869Z</time></trkpt><trkpt lat="44.45805" lon="11.4271483"><ele>70.5</ele><time>2026-05-02T07:54:55.869Z</time></trkpt><trkpt lat="44.4581083" lon="11.427325"><ele>70.25</ele><time>2026-05-02T07:54:56.868Z</time></trkpt><trkpt lat="44.4581617" lon="11.427505"><ele>70.0</ele><time>2026-05-02T07:54:57.869Z</time></trkpt><trkpt lat="44.4582183" lon="11.4276833"><ele>70.0</ele><time>2026-05-02T07:54:58.868Z</time></trkpt><trkpt lat="44.458275" lon="11.427855"><ele>70.0</ele><time>2026-05-02T07:54:59.868Z</time></trkpt><trkpt lat="44.4583317" lon="11.4280217"><ele>70.0</ele><time>2026-05-02T07:55:00.868Z</time></trkpt><trkpt lat="44.4583933" lon="11.4281867"><ele>70.0</ele><time>2026-05-02T07:55:01.868Z</time></trkpt><trkpt lat="44.4584667" lon="11.4283533"><ele>69.5</ele><time>2026-05-02T07:55:02.868Z</time></trkpt><trkpt lat="44.4585433" lon="11.42851"><ele>69.0</ele><time>2026-05-02T07:55:03.868Z</time></trkpt><trkpt lat="44.4586333" lon="11.4286567"><ele>68.5</ele><time>2026-05-02T07:55:04.868Z</time></trkpt><trkpt lat="44.4587233" lon="11.4287867"><ele>68.0</ele><time>2026-05-02T07:55:05.868Z</time></trkpt><trkpt lat="44.45882" lon="11.4289017"><ele>67.5</ele><time>2026-05-02T07:55:06.869Z</time></trkpt><trkpt lat="44.4589167" lon="11.42901"><ele>67.0</ele><time>2026-05-02T07:55:07.868Z</time></trkpt><trkpt lat="44.4590217" lon="11.4291167"><ele>66.5</ele><time>2026-05-02T07:55:08.868Z</time></trkpt><trkpt lat="44.459125" lon="11.42922"><ele>66.0</ele><time>2026-05-02T07:55:09.868Z</time></trkpt><trkpt lat="44.4592333" lon="11.4293233"><ele>66.0</ele><time>2026-05-02T07:55:10.868Z</time></trkpt><trkpt lat="44.4593433" lon="11.4294183"><ele>66.0</ele><time>2026-05-02T07:55:11.868Z</time></trkpt><trkpt lat="44.4594533" lon="11.4295033"><ele>66.0</ele><time>2026-05-02T07:55:12.869Z</time></trkpt><trkpt lat="44.45956" lon="11.4295833"><ele>66.0</ele><time>2026-05-02T07:55:13.869Z</time></trkpt><trkpt lat="44.4596717" lon="11.4296567"><ele>66.0</ele><time>2026-05-02T07:55:14.868Z</time></trkpt><trkpt lat="44.4597817" lon="11.4297333"><ele>66.0</ele><time>2026-05-02T07:55:15.868Z</time></trkpt><trkpt lat="44.4598883" lon="11.4298083"><ele>66.0</ele><time>2026-05-02T07:55:16.868Z</time></trkpt><trkpt lat="44.4599983" lon="11.42989"><ele>66.0</ele><time>2026-05-02T07:55:17.868Z</time></trkpt><trkpt lat="44.460105" lon="11.42996"><ele>66.0</ele><time>2026-05-02T07:55:18.868Z</time></trkpt><trkpt lat="44.4602083" lon="11.4300333"><ele>66.0</ele><time>2026-05-02T07:55:19.868Z</time></trkpt><trkpt lat="44.4603167" lon="11.4301017"><ele>66.0</ele><time>2026-05-02T07:55:20.869Z</time></trkpt><trkpt lat="44.460425" lon="11.4301667"><ele>66.0</ele><time>2026-05-02T07:55:21.868Z</time></trkpt><trkpt lat="44.4605283" lon="11.4302367"><ele>66.0</ele><time>2026-05-02T07:55:22.868Z</time></trkpt><trkpt lat="44.4606283" lon="11.4303017"><ele>66.0</ele><time>2026-05-02T07:55:23.868Z</time></trkpt><trkpt lat="44.4607233" lon="11.430375"><ele>66.0</ele><time>2026-05-02T07:55:24.869Z</time></trkpt><trkpt lat="44.46081" lon="11.43043"><ele>66.0</ele><time>2026-05-02T07:55:25.869Z</time></trkpt><trkpt lat="44.46089" lon="11.430485"><ele>66.0</ele><time>2026-05-02T07:55:26.869Z</time></trkpt><trkpt lat="44.4609717" lon="11.43053"><ele>66.0</ele><time>2026-05-02T07:55:27.868Z</time></trkpt><trkpt lat="44.4610483" lon="11.43057"><ele>66.0</ele><time>2026-05-02T07:55:28.868Z</time></trkpt><trkpt lat="44.4611217" lon="11.43061"><ele>66.0</ele><time>2026-05-02T07:55:29.868Z</time></trkpt><trkpt lat="44.4611967" lon="11.4306533"><ele>66.0</ele><time>2026-05-02T07:55:30.868Z</time></trkpt><trkpt lat="44.4612783" lon="11.4307017"><ele>66.0</ele><time>2026-05-02T07:55:31.868Z</time></trkpt><trkpt lat="44.46136" lon="11.4307417"><ele>66.0</ele><time>2026-05-02T07:55:32.869Z</time></trkpt><trkpt lat="44.46144" lon="11.43078"><ele>66.0</ele><time>2026-05-02T07:55:33.868Z</time></trkpt><trkpt lat="44.46152" lon="11.4308233"><ele>66.0</ele><time>2026-05-02T07:55:34.868Z</time></trkpt><trkpt lat="44.4616" lon="11.4308667"><ele>66.0</ele><time>2026-05-02T07:55:35.868Z</time></trkpt><trkpt lat="44.461675" lon="11.4309033"><ele>66.0</ele><time>2026-05-02T07:55:36.869Z</time></trkpt><trkpt lat="44.4617533" lon="11.4309433"><ele>66.0</ele><time>2026-05-02T07:55:37.868Z</time></trkpt><trkpt lat="44.461815" lon="11.4309883"><ele>66.0</ele><time>2026-05-02T07:55:38.868Z</time></trkpt><trkpt lat="44.461895" lon="11.431105"><ele>66.0</ele><time>2026-05-02T07:55:40.869Z</time></trkpt><trkpt lat="44.46194" lon="11.4312617"><ele>66.0</ele><time>2026-05-02T07:55:42.868Z</time></trkpt><trkpt lat="44.4619467" lon="11.4313767"><ele>66.0</ele><time>2026-05-02T07:55:43.868Z</time></trkpt><trkpt lat="44.4619367" lon="11.43148"><ele>66.0</ele><time>2026-05-02T07:55:44.869Z</time></trkpt><trkpt lat="44.4619133" lon="11.4315783"><ele>66.0</ele><time>2026-05-02T07:55:45.868Z</time></trkpt><trkpt lat="44.4618683" lon="11.431685"><ele>66.0</ele><time>2026-05-02T07:55:46.868Z</time></trkpt><trkpt lat="44.461805" lon="11.4318067"><ele>66.2</ele><time>2026-05-02T07:55:47.868Z</time></trkpt><trkpt lat="44.4617467" lon="11.4319233"><ele>66.39999999999999</ele><time>2026-05-02T07:55:48.869Z</time></trkpt><trkpt lat="44.4616867" lon="11.4320383"><ele>66.6</ele><time>2026-05-02T07:55:49.868Z</time></trkpt><trkpt lat="44.4616267" lon="11.4321567"><ele>66.8</ele><time>2026-05-02T07:55:50.868Z</time></trkpt><trkpt lat="44.4615633" lon="11.4322933"><ele>67.0</ele><time>2026-05-02T07:55:51.869Z</time></trkpt><trkpt lat="44.4614917" lon="11.4324583"><ele>67.0</ele><time>2026-05-02T07:55:52.869Z</time></trkpt><trkpt lat="44.4614233" lon="11.432635"><ele>67.0</ele><time>2026-05-02T07:55:53.869Z</time></trkpt><trkpt lat="44.4613567" lon="11.432805"><ele>67.0</ele><time>2026-05-02T07:55:54.869Z</time></trkpt><trkpt lat="44.461295" lon="11.43297"><ele>67.0</ele><time>2026-05-02T07:55:55.868Z</time></trkpt><trkpt lat="44.4612317" lon="11.433145"><ele>67.0</ele><time>2026-05-02T07:55:56.868Z</time></trkpt><trkpt lat="44.4611683" lon="11.4333167"><ele>67.0</ele><time>2026-05-02T07:55:57.868Z</time></trkpt><trkpt lat="44.4611017" lon="11.43349"><ele>67.0</ele><time>2026-05-02T07:55:58.869Z</time></trkpt><trkpt lat="44.4610367" lon="11.4336717"><ele>67.0</ele><time>2026-05-02T07:55:59.868Z</time></trkpt><trkpt lat="44.4609683" lon="11.43386"><ele>67.0</ele><time>2026-05-02T07:56:00.868Z</time></trkpt><trkpt lat="44.46091" lon="11.4340417"><ele>67.0</ele><time>2026-05-02T07:56:01.869Z</time></trkpt><trkpt lat="44.4608467" lon="11.434225"><ele>67.0</ele><time>2026-05-02T07:56:02.869Z</time></trkpt><trkpt lat="44.4607867" lon="11.43441"><ele>67.0</ele><time>2026-05-02T07:56:03.868Z</time></trkpt><trkpt lat="44.4607217" lon="11.4346033"><ele>66.33333333333333</ele><time>2026-05-02T07:56:04.868Z</time></trkpt><trkpt lat="44.4606533" lon="11.434805"><ele>65.66666666666667</ele><time>2026-05-02T07:56:05.868Z</time></trkpt><trkpt lat="44.460585" lon="11.4349933"><ele>65.0</ele><time>2026-05-02T07:56:06.868Z</time></trkpt><trkpt lat="44.4605117" lon="11.4351933"><ele>65.33333333333334</ele><time>2026-05-02T07:56:07.869Z</time></trkpt><trkpt lat="44.46044" lon="11.43539"><ele>65.66666666666667</ele><time>2026-05-02T07:56:08.869Z</time></trkpt><trkpt lat="44.4603667" lon="11.4355883"><ele>66.0</ele><time>2026-05-02T07:56:09.868Z</time></trkpt><trkpt lat="44.460295" lon="11.4357767"><ele>65.25</ele><time>2026-05-02T07:56:10.868Z</time></trkpt><trkpt lat="44.46022" lon="11.4359617"><ele>64.5</ele><time>2026-05-02T07:56:11.868Z</time></trkpt><trkpt lat="44.4601467" lon="11.4361367"><ele>63.75</ele><time>2026-05-02T07:56:12.868Z</time></trkpt><trkpt lat="44.4600667" lon="11.436305"><ele>63.0</ele><time>2026-05-02T07:56:13.868Z</time></trkpt><trkpt lat="44.45999" lon="11.4364767"><ele>63.0</ele><time>2026-05-02T07:56:14.868Z</time></trkpt><trkpt lat="44.4599017" lon="11.4366433"><ele>63.0</ele><time>2026-05-02T07:56:15.868Z</time></trkpt><trkpt lat="44.4598217" lon="11.4368117"><ele>63.0</ele><time>2026-05-02T07:56:16.868Z</time></trkpt><trkpt lat="44.4597367" lon="11.436965"><ele>63.0</ele><time>2026-05-02T07:56:17.868Z</time></trkpt><trkpt lat="44.4596617" lon="11.4371067"><ele>62.25</ele><time>2026-05-02T07:56:18.869Z</time></trkpt><trkpt lat="44.4595867" lon="11.4372417"><ele>61.5</ele><time>2026-05-02T07:56:19.869Z</time></trkpt><trkpt lat="44.4595067" lon="11.43737"><ele>60.75</ele><time>2026-05-02T07:56:20.868Z</time></trkpt><trkpt lat="44.459425" lon="11.4375"><ele>60.0</ele><time>2026-05-02T07:56:21.868Z</time></trkpt><trkpt lat="44.459345" lon="11.4376317"><ele>60.0</ele><time>2026-05-02T07:56:22.868Z</time></trkpt><trkpt lat="44.45927" lon="11.4377633"><ele>60.0</ele><time>2026-05-02T07:56:23.868Z</time></trkpt><trkpt lat="44.45919" lon="11.4379033"><ele>60.0</ele><time>2026-05-02T07:56:24.868Z</time></trkpt><trkpt lat="44.4591083" lon="11.4380417"><ele>60.0</ele><time>2026-05-02T07:56:25.868Z</time></trkpt><trkpt lat="44.4590333" lon="11.4381767"><ele>59.8</ele><time>2026-05-02T07:56:26.868Z</time></trkpt><trkpt lat="44.4589567" lon="11.438305"><ele>59.6</ele><time>2026-05-02T07:56:27.868Z</time></trkpt><trkpt lat="44.4588867" lon="11.4384217"><ele>59.400000000000006</ele><time>2026-05-02T07:56:28.868Z</time></trkpt><trkpt lat="44.4588167" lon="11.4385433"><ele>59.2</ele><time>2026-05-02T07:56:29.868Z</time></trkpt><trkpt lat="44.4587517" lon="11.438655"><ele>59.0</ele><time>2026-05-02T07:56:30.868Z</time></trkpt><trkpt lat="44.4586767" lon="11.4387583"><ele>58.800000000000004</ele><time>2026-05-02T07:56:31.868Z</time></trkpt><trkpt lat="44.458615" lon="11.4388667"><ele>58.60000000000001</ele><time>2026-05-02T07:56:32.869Z</time></trkpt><trkpt lat="44.4585517" lon="11.4389867"><ele>58.4</ele><time>2026-05-02T07:56:33.868Z</time></trkpt><trkpt lat="44.4584883" lon="11.43912"><ele>58.2</ele><time>2026-05-02T07:56:34.869Z</time></trkpt><trkpt lat="44.45842" lon="11.43927"><ele>58.0</ele><time>2026-05-02T07:56:35.868Z</time></trkpt><trkpt lat="44.4583533" lon="11.43944"><ele>58.0</ele><time>2026-05-02T07:56:36.868Z</time></trkpt><trkpt lat="44.4582867" lon="11.43963"><ele>58.0</ele><time>2026-05-02T07:56:37.868Z</time></trkpt><trkpt lat="44.4582233" lon="11.4398133"><ele>58.0</ele><time>2026-05-02T07:56:38.868Z</time></trkpt><trkpt lat="44.458165" lon="11.4399833"><ele>58.0</ele><time>2026-05-02T07:56:39.869Z</time></trkpt><trkpt lat="44.45812" lon="11.4401217"><ele>58.0</ele><time>2026-05-02T07:56:40.869Z</time></trkpt><trkpt lat="44.4580817" lon="11.44023"><ele>58.0</ele><time>2026-05-02T07:56:41.868Z</time></trkpt><trkpt lat="44.45804" lon="11.4403733"><ele>58.0</ele><time>2026-05-02T07:56:43.869Z</time></trkpt><trkpt lat="44.4580083" lon="11.440475"><ele>58.0</ele><time>2026-05-02T07:56:45.868Z</time></trkpt><trkpt lat="44.457955" lon="11.44063"><ele>58.0</ele><time>2026-05-02T07:56:48.868Z</time></trkpt><trkpt lat="44.4579117" lon="11.4407333"><ele>58.5</ele><time>2026-05-02T07:56:49.868Z</time></trkpt><trkpt lat="44.4578683" lon="11.4408683"><ele>59.0</ele><time>2026-05-02T07:56:50.868Z</time></trkpt><trkpt lat="44.4578167" lon="11.4410233"><ele>59.5</ele><time>2026-05-02T07:56:51.869Z</time></trkpt><trkpt lat="44.4577617" lon="11.4411933"><ele>60.0</ele><time>2026-05-02T07:56:52.868Z</time></trkpt><trkpt lat="44.4576967" lon="11.441385"><ele>58.66666666666667</ele><time>2026-05-02T07:56:53.868Z</time></trkpt><trkpt lat="44.45763" lon="11.4415833"><ele>57.333333333333336</ele><time>2026-05-02T07:56:54.869Z</time></trkpt><trkpt lat="44.457565" lon="11.4417783"><ele>56.0</ele><time>2026-05-02T07:56:55.868Z</time></trkpt><trkpt lat="44.4575" lon="11.4419683"><ele>56.5</ele><time>2026-05-02T07:56:56.868Z</time></trkpt><trkpt lat="44.4574367" lon="11.4421467"><ele>57.0</ele><time>2026-05-02T07:56:57.868Z</time></trkpt><trkpt lat="44.45738" lon="11.4423283"><ele>57.5</ele><time>2026-05-02T07:56:58.868Z</time></trkpt><trkpt lat="44.4573183" lon="11.4425117"><ele>58.0</ele><time>2026-05-02T07:56:59.869Z</time></trkpt><trkpt lat="44.457255" lon="11.4426917"><ele>58.0</ele><time>2026-05-02T07:57:00.868Z</time></trkpt><trkpt lat="44.4571917" lon="11.4428767"><ele>58.0</ele><time>2026-05-02T07:57:01.868Z</time></trkpt><trkpt lat="44.457135" lon="11.4430517"><ele>58.0</ele><time>2026-05-02T07:57:02.869Z</time></trkpt><trkpt lat="44.4570717" lon="11.44322"><ele>58.0</ele><time>2026-05-02T07:57:03.868Z</time></trkpt><trkpt lat="44.4570167" lon="11.4433867"><ele>59.0</ele><time>2026-05-02T07:57:04.868Z</time></trkpt><trkpt lat="44.4569633" lon="11.4435433"><ele>60.0</ele><time>2026-05-02T07:57:05.868Z</time></trkpt><trkpt lat="44.4569183" lon="11.4436967"><ele>61.0</ele><time>2026-05-02T07:57:06.869Z</time></trkpt><trkpt lat="44.45687" lon="11.443845"><ele>62.0</ele><time>2026-05-02T07:57:07.868Z</time></trkpt><trkpt lat="44.4568233" lon="11.4439917"><ele>62.0</ele><time>2026-05-02T07:57:08.868Z</time></trkpt><trkpt lat="44.456775" lon="11.4441433"><ele>62.0</ele><time>2026-05-02T07:57:09.869Z</time></trkpt><trkpt lat="44.4567267" lon="11.4442933"><ele>62.0</ele><time>2026-05-02T07:57:10.868Z</time></trkpt><trkpt lat="44.456675" lon="11.444445"><ele>62.0</ele><time>2026-05-02T07:57:11.869Z</time></trkpt><trkpt lat="44.4566267" lon="11.444595"><ele>61.5</ele><time>2026-05-02T07:57:12.868Z</time></trkpt><trkpt lat="44.45658" lon="11.4447483"><ele>61.0</ele><time>2026-05-02T07:57:13.868Z</time></trkpt><trkpt lat="44.45653" lon="11.4449"><ele>60.5</ele><time>2026-05-02T07:57:14.868Z</time></trkpt><trkpt lat="44.4564817" lon="11.4450483"><ele>60.0</ele><time>2026-05-02T07:57:15.868Z</time></trkpt><trkpt lat="44.4564383" lon="11.4451867"><ele>60.0</ele><time>2026-05-02T07:57:16.869Z</time></trkpt><trkpt lat="44.4564017" lon="11.4453183"><ele>60.0</ele><time>2026-05-02T07:57:17.868Z</time></trkpt><trkpt lat="44.4563667" lon="11.44543"><ele>60.0</ele><time>2026-05-02T07:57:18.869Z</time></trkpt><trkpt lat="44.456335" lon="11.4455267"><ele>60.0</ele><time>2026-05-02T07:57:19.868Z</time></trkpt><trkpt lat="44.456295" lon="11.4456283"><ele>60.0</ele><time>2026-05-02T07:57:21.868Z</time></trkpt><trkpt lat="44.4562683" lon="11.44571"><ele>60.0</ele><time>2026-05-02T07:57:23.868Z</time></trkpt><trkpt lat="44.4562233" lon="11.445795"><ele>60.75</ele><time>2026-05-02T07:57:32.868Z</time></trkpt><trkpt lat="44.4561883" lon="11.445915"><ele>61.5</ele><time>2026-05-02T07:57:34.869Z</time></trkpt><trkpt lat="44.456135" lon="11.446075"><ele>62.25</ele><time>2026-05-02T07:57:35.868Z</time></trkpt><trkpt lat="44.45608" lon="11.446245"><ele>63.0</ele><time>2026-05-02T07:57:36.868Z</time></trkpt><trkpt lat="44.4560267" lon="11.446415"><ele>63.66666666666667</ele><time>2026-05-02T07:57:37.869Z</time></trkpt><trkpt lat="44.455975" lon="11.4465933"><ele>64.33333333333334</ele><time>2026-05-02T07:57:38.868Z</time></trkpt><trkpt lat="44.4559133" lon="11.4467867"><ele>65.0</ele><time>2026-05-02T07:57:39.868Z</time></trkpt><trkpt lat="44.4558367" lon="11.4469933"><ele>65.0</ele><time>2026-05-02T07:57:40.868Z</time></trkpt><trkpt lat="44.45576" lon="11.4471983"><ele>65.0</ele><time>2026-05-02T07:57:41.869Z</time></trkpt><trkpt lat="44.4556967" lon="11.4473867"><ele>65.0</ele><time>2026-05-02T07:57:42.868Z</time></trkpt><trkpt lat="44.4556283" lon="11.44758"><ele>65.0</ele><time>2026-05-02T07:57:43.869Z</time></trkpt><trkpt lat="44.455565" lon="11.4477767"><ele>65.0</ele><time>2026-05-02T07:57:44.868Z</time></trkpt><trkpt lat="44.4554983" lon="11.4479617"><ele>65.0</ele><time>2026-05-02T07:57:45.868Z</time></trkpt><trkpt lat="44.4554417" lon="11.448135"><ele>65.0</ele><time>2026-05-02T07:57:46.868Z</time></trkpt><trkpt lat="44.455395" lon="11.4482917"><ele>64.75</ele><time>2026-05-02T07:57:47.869Z</time></trkpt><trkpt lat="44.4553267" lon="11.4484367"><ele>64.5</ele><time>2026-05-02T07:57:48.868Z</time></trkpt><trkpt lat="44.4552517" lon="11.4485683"><ele>64.25</ele><time>2026-05-02T07:57:49.868Z</time></trkpt><trkpt lat="44.4551783" lon="11.4487117"><ele>64.0</ele><time>2026-05-02T07:57:50.868Z</time></trkpt><trkpt lat="44.455125" lon="11.4488733"><ele>63.25</ele><time>2026-05-02T07:57:51.868Z</time></trkpt><trkpt lat="44.4550833" lon="11.44905"><ele>62.5</ele><time>2026-05-02T07:57:52.868Z</time></trkpt><trkpt lat="44.4550417" lon="11.4492317"><ele>61.75</ele><time>2026-05-02T07:57:53.869Z</time></trkpt><trkpt lat="44.4550017" lon="11.4494267"><ele>61.0</ele><time>2026-05-02T07:57:54.869Z</time></trkpt><trkpt lat="44.45494" lon="11.4496133"><ele>61.25</ele><time>2026-05-02T07:57:55.868Z</time></trkpt><trkpt lat="44.4548683" lon="11.449795"><ele>61.5</ele><time>2026-05-02T07:57:56.869Z</time></trkpt><trkpt lat="44.4548" lon="11.449975"><ele>61.75</ele><time>2026-05-02T07:57:57.868Z</time></trkpt><trkpt lat="44.4547267" lon="11.4501567"><ele>62.0</ele><time>2026-05-02T07:57:58.868Z</time></trkpt><trkpt lat="44.4546533" lon="11.4503533"><ele>62.66666666666667</ele><time>2026-05-02T07:57:59.868Z</time></trkpt><trkpt lat="44.4545783" lon="11.4505467"><ele>63.33333333333333</ele><time>2026-05-02T07:58:00.869Z</time></trkpt><trkpt lat="44.4545067" lon="11.4507433"><ele>64.0</ele><time>2026-05-02T07:58:01.868Z</time></trkpt><trkpt lat="44.4544417" lon="11.4509333"><ele>64.0</ele><time>2026-05-02T07:58:02.868Z</time></trkpt><trkpt lat="44.4543683" lon="11.45113"><ele>64.0</ele><time>2026-05-02T07:58:03.868Z</time></trkpt><trkpt lat="44.4542817" lon="11.451355"><ele>64.0</ele><time>2026-05-02T07:58:04.868Z</time></trkpt><trkpt lat="44.4541867" lon="11.45159"><ele>64.0</ele><time>2026-05-02T07:58:05.868Z</time></trkpt><trkpt lat="44.454095" lon="11.4518433"><ele>64.0</ele><time>2026-05-02T07:58:06.869Z</time></trkpt><trkpt lat="44.454" lon="11.4520983"><ele>64.0</ele><time>2026-05-02T07:58:07.869Z</time></trkpt><trkpt lat="44.4539017" lon="11.4523417"><ele>64.66666666666666</ele><time>2026-05-02T07:58:08.868Z</time></trkpt><trkpt lat="44.4538217" lon="11.4525933"><ele>65.33333333333333</ele><time>2026-05-02T07:58:09.869Z</time></trkpt><trkpt lat="44.4537283" lon="11.4528283"><ele>66.0</ele><time>2026-05-02T07:58:10.869Z</time></trkpt><trkpt lat="44.4536417" lon="11.4530633"><ele>66.0</ele><time>2026-05-02T07:58:11.868Z</time></trkpt><trkpt lat="44.45355" lon="11.4533033"><ele>66.0</ele><time>2026-05-02T07:58:12.868Z</time></trkpt><trkpt lat="44.4534517" lon="11.4535483"><ele>66.0</ele><time>2026-05-02T07:58:13.868Z</time></trkpt><trkpt lat="44.45336" lon="11.4537867"><ele>66.0</ele><time>2026-05-02T07:58:14.868Z</time></trkpt><trkpt lat="44.4532667" lon="11.4540283"><ele>66.0</ele><time>2026-05-02T07:58:15.868Z</time></trkpt><trkpt lat="44.4531767" lon="11.454265"><ele>66.0</ele><time>2026-05-02T07:58:16.868Z</time></trkpt><trkpt lat="44.4530833" lon="11.4544967"><ele>66.0</ele><time>2026-05-02T07:58:17.869Z</time></trkpt><trkpt lat="44.4529917" lon="11.45473"><ele>66.0</ele><time>2026-05-02T07:58:18.868Z</time></trkpt><trkpt lat="44.4529117" lon="11.4549583"><ele>66.0</ele><time>2026-05-02T07:58:19.868Z</time></trkpt><trkpt lat="44.4528167" lon="11.4551867"><ele>66.0</ele><time>2026-05-02T07:58:20.868Z</time></trkpt><trkpt lat="44.4527267" lon="11.45543"><ele>66.0</ele><time>2026-05-02T07:58:21.868Z</time></trkpt><trkpt lat="44.4526417" lon="11.4556667"><ele>66.0</ele><time>2026-05-02T07:58:22.868Z</time></trkpt><trkpt lat="44.452565" lon="11.4558867"><ele>65.33333333333333</ele><time>2026-05-02T07:58:23.868Z</time></trkpt><trkpt lat="44.4524917" lon="11.4560967"><ele>64.66666666666666</ele><time>2026-05-02T07:58:24.868Z</time></trkpt><trkpt lat="44.45241" lon="11.4563067"><ele>64.0</ele><time>2026-05-02T07:58:25.868Z</time></trkpt><trkpt lat="44.4523417" lon="11.4565"><ele>63.666666666666664</ele><time>2026-05-02T07:58:26.868Z</time></trkpt><trkpt lat="44.4522667" lon="11.4567017"><ele>63.33333333333333</ele><time>2026-05-02T07:58:27.868Z</time></trkpt><trkpt lat="44.4521933" lon="11.4568883"><ele>63.0</ele><time>2026-05-02T07:58:28.869Z</time></trkpt><trkpt lat="44.45213" lon="11.457085"><ele>63.33333333333333</ele><time>2026-05-02T07:58:29.868Z</time></trkpt><trkpt lat="44.4520633" lon="11.4572833"><ele>63.666666666666664</ele><time>2026-05-02T07:58:30.868Z</time></trkpt><trkpt lat="44.4519967" lon="11.4574917"><ele>64.0</ele><time>2026-05-02T07:58:31.868Z</time></trkpt><trkpt lat="44.451935" lon="11.4576883"><ele>64.0</ele><time>2026-05-02T07:58:32.868Z</time></trkpt><trkpt lat="44.4518817" lon="11.457875"><ele>64.0</ele><time>2026-05-02T07:58:33.868Z</time></trkpt><trkpt lat="44.4518233" lon="11.4580483"><ele>64.0</ele><time>2026-05-02T07:58:34.868Z</time></trkpt><trkpt lat="44.4517633" lon="11.4582067"><ele>64.0</ele><time>2026-05-02T07:58:35.868Z</time></trkpt><trkpt lat="44.4517033" lon="11.458355"><ele>64.0</ele><time>2026-05-02T07:58:36.868Z</time></trkpt><trkpt lat="44.4516117" lon="11.45853"><ele>64.0</ele><time>2026-05-02T07:58:37.869Z</time></trkpt><trkpt lat="44.4515467" lon="11.4586667"><ele>64.0</ele><time>2026-05-02T07:58:38.868Z</time></trkpt><trkpt lat="44.45149" lon="11.4588117"><ele>64.0</ele><time>2026-05-02T07:58:39.868Z</time></trkpt><trkpt lat="44.4514217" lon="11.4589717"><ele>64.0</ele><time>2026-05-02T07:58:40.869Z</time></trkpt><trkpt lat="44.4513617" lon="11.4591467"><ele>64.0</ele><time>2026-05-02T07:58:41.868Z</time></trkpt><trkpt lat="44.4513" lon="11.459335"><ele>64.0</ele><time>2026-05-02T07:58:42.868Z</time></trkpt><trkpt lat="44.45122" lon="11.4595467"><ele>65.0</ele><time>2026-05-02T07:58:43.869Z</time></trkpt><trkpt lat="44.451145" lon="11.459765"><ele>66.0</ele><time>2026-05-02T07:58:44.868Z</time></trkpt><trkpt lat="44.45106" lon="11.459995"><ele>67.0</ele><time>2026-05-02T07:58:45.868Z</time></trkpt><trkpt lat="44.4509867" lon="11.4602217"><ele>66.33333333333333</ele><time>2026-05-02T07:58:46.868Z</time></trkpt><trkpt lat="44.4508967" lon="11.460465"><ele>65.66666666666667</ele><time>2026-05-02T07:58:47.868Z</time></trkpt><trkpt lat="44.4508067" lon="11.4607"><ele>65.0</ele><time>2026-05-02T07:58:48.868Z</time></trkpt><trkpt lat="44.4507183" lon="11.460925"><ele>65.0</ele><time>2026-05-02T07:58:49.868Z</time></trkpt><trkpt lat="44.4506167" lon="11.46116"><ele>65.0</ele><time>2026-05-02T07:58:50.868Z</time></trkpt><trkpt lat="44.45053" lon="11.4613917"><ele>65.0</ele><time>2026-05-02T07:58:51.869Z</time></trkpt><trkpt lat="44.4504417" lon="11.4616167"><ele>64.0</ele><time>2026-05-02T07:58:52.868Z</time></trkpt><trkpt lat="44.4503633" lon="11.46184"><ele>63.0</ele><time>2026-05-02T07:58:53.868Z</time></trkpt><trkpt lat="44.4502783" lon="11.46207"><ele>62.0</ele><time>2026-05-02T07:58:54.868Z</time></trkpt><trkpt lat="44.450195" lon="11.4622917"><ele>61.0</ele><time>2026-05-02T07:58:55.869Z</time></trkpt><trkpt lat="44.4501133" lon="11.4625167"><ele>60.0</ele><time>2026-05-02T07:58:56.869Z</time></trkpt><trkpt lat="44.450045" lon="11.4627283"><ele>59.0</ele><time>2026-05-02T07:58:57.868Z</time></trkpt><trkpt lat="44.449965" lon="11.4629283"><ele>58.5</ele><time>2026-05-02T07:58:58.869Z</time></trkpt><trkpt lat="44.4498967" lon="11.4631067"><ele>58.0</ele><time>2026-05-02T07:58:59.868Z</time></trkpt><trkpt lat="44.449835" lon="11.4632883"><ele>57.5</ele><time>2026-05-02T07:59:00.868Z</time></trkpt><trkpt lat="44.449765" lon="11.4634583"><ele>57.0</ele><time>2026-05-02T07:59:01.868Z</time></trkpt><trkpt lat="44.449695" lon="11.46363"><ele>56.75</ele><time>2026-05-02T07:59:02.868Z</time></trkpt><trkpt lat="44.4496317" lon="11.4637983"><ele>56.5</ele><time>2026-05-02T07:59:03.868Z</time></trkpt><trkpt lat="44.4495717" lon="11.4639683"><ele>56.25</ele><time>2026-05-02T07:59:04.868Z</time></trkpt><trkpt lat="44.4495133" lon="11.464145"><ele>56.0</ele><time>2026-05-02T07:59:05.869Z</time></trkpt><trkpt lat="44.44945" lon="11.464325"><ele>56.75</ele><time>2026-05-02T07:59:06.868Z</time></trkpt><trkpt lat="44.449385" lon="11.464505"><ele>57.5</ele><time>2026-05-02T07:59:07.868Z</time></trkpt><trkpt lat="44.44932" lon="11.4646817"><ele>58.25</ele><time>2026-05-02T07:59:08.869Z</time></trkpt><trkpt lat="44.44925" lon="11.4648567"><ele>59.0</ele><time>2026-05-02T07:59:09.868Z</time></trkpt><trkpt lat="44.4491767" lon="11.4650283"><ele>59.0</ele><time>2026-05-02T07:59:10.869Z</time></trkpt><trkpt lat="44.449115" lon="11.4652033"><ele>59.0</ele><time>2026-05-02T07:59:11.868Z</time></trkpt><trkpt lat="44.4490567" lon="11.4653733"><ele>59.0</ele><time>2026-05-02T07:59:12.868Z</time></trkpt><trkpt lat="44.4489917" lon="11.465545"><ele>59.0</ele><time>2026-05-02T07:59:13.868Z</time></trkpt><trkpt lat="44.4489283" lon="11.4657133"><ele>58.75</ele><time>2026-05-02T07:59:14.869Z</time></trkpt><trkpt lat="44.4488633" lon="11.465885"><ele>58.5</ele><time>2026-05-02T07:59:15.868Z</time></trkpt><trkpt lat="44.4488" lon="11.4660517"><ele>58.25</ele><time>2026-05-02T07:59:16.869Z</time></trkpt><trkpt lat="44.4487367" lon="11.46622"><ele>58.0</ele><time>2026-05-02T07:59:17.868Z</time></trkpt><trkpt lat="44.4486733" lon="11.46639"><ele>58.0</ele><time>2026-05-02T07:59:18.868Z</time></trkpt><trkpt lat="44.448605" lon="11.4665683"><ele>58.0</ele><time>2026-05-02T07:59:19.869Z</time></trkpt><trkpt lat="44.44853" lon="11.4667733"><ele>58.0</ele><time>2026-05-02T07:59:20.868Z</time></trkpt><trkpt lat="44.4484467" lon="11.4669933"><ele>58.666666666666664</ele><time>2026-05-02T07:59:21.869Z</time></trkpt><trkpt lat="44.448365" lon="11.4672133"><ele>59.33333333333333</ele><time>2026-05-02T07:59:22.868Z</time></trkpt><trkpt lat="44.448285" lon="11.46743"><ele>60.0</ele><time>2026-05-02T07:59:23.869Z</time></trkpt><trkpt lat="44.44822" lon="11.467625"><ele>60.0</ele><time>2026-05-02T07:59:24.868Z</time></trkpt><trkpt lat="44.448155" lon="11.4678017"><ele>60.0</ele><time>2026-05-02T07:59:25.868Z</time></trkpt><trkpt lat="44.4480817" lon="11.4679783"><ele>60.0</ele><time>2026-05-02T07:59:26.868Z</time></trkpt><trkpt lat="44.448015" lon="11.4681417"><ele>60.0</ele><time>2026-05-02T07:59:27.869Z</time></trkpt><trkpt lat="44.447945" lon="11.4682983"><ele>60.0</ele><time>2026-05-02T07:59:28.868Z</time></trkpt><trkpt lat="44.447875" lon="11.4684583"><ele>60.0</ele><time>2026-05-02T07:59:29.869Z</time></trkpt><trkpt lat="44.4478033" lon="11.4686183"><ele>60.0</ele><time>2026-05-02T07:59:30.868Z</time></trkpt><trkpt lat="44.447735" lon="11.4687867"><ele>60.0</ele><time>2026-05-02T07:59:31.868Z</time></trkpt><trkpt lat="44.447675" lon="11.46895"><ele>60.0</ele><time>2026-05-02T07:59:32.868Z</time></trkpt><trkpt lat="44.4476183" lon="11.4691117"><ele>60.0</ele><time>2026-05-02T07:59:33.868Z</time></trkpt><trkpt lat="44.4475533" lon="11.4692817"><ele>60.0</ele><time>2026-05-02T07:59:34.868Z</time></trkpt><trkpt lat="44.4474867" lon="11.4694517"><ele>60.0</ele><time>2026-05-02T07:59:35.868Z</time></trkpt><trkpt lat="44.4474183" lon="11.4696233"><ele>60.0</ele><time>2026-05-02T07:59:36.868Z</time></trkpt><trkpt lat="44.4473483" lon="11.4697933"><ele>60.0</ele><time>2026-05-02T07:59:37.869Z</time></trkpt><trkpt lat="44.4472883" lon="11.46996"><ele>60.0</ele><time>2026-05-02T07:59:38.869Z</time></trkpt><trkpt lat="44.4472217" lon="11.4701233"><ele>60.0</ele><time>2026-05-02T07:59:39.869Z</time></trkpt><trkpt lat="44.4471583" lon="11.47029"><ele>60.0</ele><time>2026-05-02T07:59:40.869Z</time></trkpt><trkpt lat="44.4471" lon="11.4704533"><ele>60.0</ele><time>2026-05-02T07:59:41.869Z</time></trkpt><trkpt lat="44.4470333" lon="11.4706133"><ele>60.0</ele><time>2026-05-02T07:59:42.869Z</time></trkpt><trkpt lat="44.4469733" lon="11.4707517"><ele>60.0</ele><time>2026-05-02T07:59:43.868Z</time></trkpt><trkpt lat="44.4469217" lon="11.4708867"><ele>60.0</ele><time>2026-05-02T07:59:44.869Z</time></trkpt><trkpt lat="44.4468733" lon="11.471015"><ele>60.0</ele><time>2026-05-02T07:59:45.868Z</time></trkpt><trkpt lat="44.446825" lon="11.4711333"><ele>60.0</ele><time>2026-05-02T07:59:46.868Z</time></trkpt><trkpt lat="44.4467817" lon="11.471245"><ele>60.0</ele><time>2026-05-02T07:59:47.869Z</time></trkpt><trkpt lat="44.4467417" lon="11.47135"><ele>60.0</ele><time>2026-05-02T07:59:48.868Z</time></trkpt><trkpt lat="44.4467017" lon="11.4714633"><ele>60.0</ele><time>2026-05-02T07:59:49.869Z</time></trkpt><trkpt lat="44.4466567" lon="11.47158"><ele>60.0</ele><time>2026-05-02T07:59:50.869Z</time></trkpt><trkpt lat="44.4466167" lon="11.4716867"><ele>60.0</ele><time>2026-05-02T07:59:51.869Z</time></trkpt><trkpt lat="44.4465717" lon="11.4717883"><ele>60.0</ele><time>2026-05-02T07:59:52.868Z</time></trkpt><trkpt lat="44.4465317" lon="11.4718883"><ele>60.0</ele><time>2026-05-02T07:59:53.869Z</time></trkpt><trkpt lat="44.4464983" lon="11.471985"><ele>60.0</ele><time>2026-05-02T07:59:54.868Z</time></trkpt><trkpt lat="44.4464383" lon="11.4721183"><ele>60.0</ele><time>2026-05-02T07:59:56.868Z</time></trkpt><trkpt lat="44.4463983" lon="11.4722"><ele>60.0</ele><time>2026-05-02T07:59:59.869Z</time></trkpt><trkpt lat="44.4463567" lon="11.4722767"><ele>60.0</ele><time>2026-05-02T08:00:01.868Z</time></trkpt><trkpt lat="44.4463" lon="11.4723983"><ele>60.0</ele><time>2026-05-02T08:00:03.869Z</time></trkpt><trkpt lat="44.44628" lon="11.4724867"><ele>60.0</ele><time>2026-05-02T08:00:04.869Z</time></trkpt><trkpt lat="44.4462517" lon="11.472605"><ele>60.0</ele><time>2026-05-02T08:00:05.868Z</time></trkpt><trkpt lat="44.446215" lon="11.4727433"><ele>60.25</ele><time>2026-05-02T08:00:06.868Z</time></trkpt><trkpt lat="44.4461667" lon="11.4728767"><ele>60.5</ele><time>2026-05-02T08:00:07.868Z</time></trkpt><trkpt lat="44.446115" lon="11.4730233"><ele>60.75</ele><time>2026-05-02T08:00:08.869Z</time></trkpt><trkpt lat="44.446055" lon="11.4731983"><ele>61.0</ele><time>2026-05-02T08:00:09.869Z</time></trkpt><trkpt lat="44.4459867" lon="11.473395"><ele>60.33333333333333</ele><time>2026-05-02T08:00:10.868Z</time></trkpt><trkpt lat="44.44591" lon="11.4736"><ele>59.66666666666667</ele><time>2026-05-02T08:00:11.869Z</time></trkpt><trkpt lat="44.4458233" lon="11.4738267"><ele>59.0</ele><time>2026-05-02T08:00:12.868Z</time></trkpt><trkpt lat="44.4457383" lon="11.4740533"><ele>58.66666666666667</ele><time>2026-05-02T08:00:13.868Z</time></trkpt><trkpt lat="44.4456533" lon="11.474255"><ele>58.33333333333333</ele><time>2026-05-02T08:00:14.868Z</time></trkpt><trkpt lat="44.44558" lon="11.4744367"><ele>58.0</ele><time>2026-05-02T08:00:15.868Z</time></trkpt><trkpt lat="44.445505" lon="11.4746117"><ele>58.5</ele><time>2026-05-02T08:00:16.869Z</time></trkpt><trkpt lat="44.4454383" lon="11.4747817"><ele>59.0</ele><time>2026-05-02T08:00:17.868Z</time></trkpt><trkpt lat="44.445365" lon="11.4749483"><ele>59.5</ele><time>2026-05-02T08:00:18.868Z</time></trkpt><trkpt lat="44.445305" lon="11.4751083"><ele>60.0</ele><time>2026-05-02T08:00:19.868Z</time></trkpt><trkpt lat="44.445255" lon="11.4752567"><ele>60.0</ele><time>2026-05-02T08:00:20.868Z</time></trkpt><trkpt lat="44.4452033" lon="11.475385"><ele>60.0</ele><time>2026-05-02T08:00:21.868Z</time></trkpt><trkpt lat="44.4451617" lon="11.4755067"><ele>60.0</ele><time>2026-05-02T08:00:22.869Z</time></trkpt><trkpt lat="44.4451167" lon="11.4756067"><ele>60.0</ele><time>2026-05-02T08:00:23.868Z</time></trkpt><trkpt lat="44.4450767" lon="11.475695"><ele>60.0</ele><time>2026-05-02T08:00:24.868Z</time></trkpt><trkpt lat="44.4450283" lon="11.475785"><ele>60.0</ele><time>2026-05-02T08:00:25.868Z</time></trkpt><trkpt lat="44.4449817" lon="11.4758783"><ele>59.833333333333336</ele><time>2026-05-02T08:00:26.869Z</time></trkpt><trkpt lat="44.4449433" lon="11.4759533"><ele>59.66666666666667</ele><time>2026-05-02T08:00:27.869Z</time></trkpt><trkpt lat="44.4449133" lon="11.4760333"><ele>59.5</ele><time>2026-05-02T08:00:28.869Z</time></trkpt><trkpt lat="44.4448733" lon="11.47614"><ele>59.333333333333336</ele><time>2026-05-02T08:00:30.869Z</time></trkpt><trkpt lat="44.4448733" lon="11.4762733"><ele>59.16666666666667</ele><time>2026-05-02T08:00:56.869Z</time></trkpt><trkpt lat="44.4448283" lon="11.4763883"><ele>59.0</ele><time>2026-05-02T08:00:57.868Z</time></trkpt><trkpt lat="44.4447733" lon="11.4765317"><ele>60.0</ele><time>2026-05-02T08:00:58.869Z</time></trkpt><trkpt lat="44.4447033" lon="11.476705"><ele>61.0</ele><time>2026-05-02T08:00:59.869Z</time></trkpt><trkpt lat="44.44462" lon="11.47689"><ele>62.0</ele><time>2026-05-02T08:01:00.868Z</time></trkpt><trkpt lat="44.4445433" lon="11.477075"><ele>62.25</ele><time>2026-05-02T08:01:01.868Z</time></trkpt><trkpt lat="44.4444767" lon="11.4772567"><ele>62.5</ele><time>2026-05-02T08:01:02.868Z</time></trkpt><trkpt lat="44.4444133" lon="11.4774433"><ele>62.75</ele><time>2026-05-02T08:01:03.868Z</time></trkpt><trkpt lat="44.4443417" lon="11.4776267"><ele>63.0</ele><time>2026-05-02T08:01:04.869Z</time></trkpt><trkpt lat="44.4442733" lon="11.4778067"><ele>63.0</ele><time>2026-05-02T08:01:05.869Z</time></trkpt><trkpt lat="44.444205" lon="11.47798"><ele>63.0</ele><time>2026-05-02T08:01:06.868Z</time></trkpt><trkpt lat="44.44413" lon="11.4781533"><ele>63.0</ele><time>2026-05-02T08:01:07.868Z</time></trkpt><trkpt lat="44.4440517" lon="11.4783433"><ele>63.0</ele><time>2026-05-02T08:01:08.868Z</time></trkpt><trkpt lat="44.4439783" lon="11.47854"><ele>63.0</ele><time>2026-05-02T08:01:09.869Z</time></trkpt><trkpt lat="44.4439" lon="11.478745"><ele>63.0</ele><time>2026-05-02T08:01:10.869Z</time></trkpt><trkpt lat="44.4438217" lon="11.47895"><ele>63.0</ele><time>2026-05-02T08:01:11.868Z</time></trkpt><trkpt lat="44.44374" lon="11.4791433"><ele>63.0</ele><time>2026-05-02T08:01:12.868Z</time></trkpt><trkpt lat="44.4436633" lon="11.479345"><ele>63.0</ele><time>2026-05-02T08:01:13.868Z</time></trkpt><trkpt lat="44.44358" lon="11.4795483"><ele>63.0</ele><time>2026-05-02T08:01:14.868Z</time></trkpt><trkpt lat="44.4435033" lon="11.4797567"><ele>62.33333333333333</ele><time>2026-05-02T08:01:15.868Z</time></trkpt><trkpt lat="44.4434217" lon="11.4799733"><ele>61.666666666666664</ele><time>2026-05-02T08:01:16.869Z</time></trkpt><trkpt lat="44.4433417" lon="11.4801783"><ele>61.0</ele><time>2026-05-02T08:01:17.868Z</time></trkpt><trkpt lat="44.4432667" lon="11.4803833"><ele>61.0</ele><time>2026-05-02T08:01:18.869Z</time></trkpt><trkpt lat="44.4431917" lon="11.480585"><ele>61.0</ele><time>2026-05-02T08:01:19.868Z</time></trkpt><trkpt lat="44.4431167" lon="11.4807883"><ele>61.0</ele><time>2026-05-02T08:01:20.868Z</time></trkpt><trkpt lat="44.44304" lon="11.4809883"><ele>61.0</ele><time>2026-05-02T08:01:21.868Z</time></trkpt><trkpt lat="44.4429683" lon="11.4811833"><ele>61.0</ele><time>2026-05-02T08:01:22.868Z</time></trkpt><trkpt lat="44.4428917" lon="11.4813867"><ele>61.0</ele><time>2026-05-02T08:01:23.868Z</time></trkpt><trkpt lat="44.4428167" lon="11.4815883"><ele>62.0</ele><time>2026-05-02T08:01:24.868Z</time></trkpt><trkpt lat="44.442745" lon="11.4817917"><ele>63.0</ele><time>2026-05-02T08:01:25.868Z</time></trkpt><trkpt lat="44.4426633" lon="11.48201"><ele>64.0</ele><time>2026-05-02T08:01:26.869Z</time></trkpt><trkpt lat="44.4425783" lon="11.48224"><ele>64.0</ele><time>2026-05-02T08:01:27.868Z</time></trkpt><trkpt lat="44.4424983" lon="11.4824667"><ele>64.0</ele><time>2026-05-02T08:01:28.868Z</time></trkpt><trkpt lat="44.4424217" lon="11.482695"><ele>64.0</ele><time>2026-05-02T08:01:29.869Z</time></trkpt><trkpt lat="44.4423483" lon="11.482925"><ele>64.0</ele><time>2026-05-02T08:01:30.868Z</time></trkpt><trkpt lat="44.44226" lon="11.4831483"><ele>64.0</ele><time>2026-05-02T08:01:31.868Z</time></trkpt><trkpt lat="44.44217" lon="11.4833667"><ele>64.0</ele><time>2026-05-02T08:01:32.868Z</time></trkpt><trkpt lat="44.4420883" lon="11.4835817"><ele>63.666666666666664</ele><time>2026-05-02T08:01:33.869Z</time></trkpt><trkpt lat="44.4420083" lon="11.4837933"><ele>63.33333333333333</ele><time>2026-05-02T08:01:34.868Z</time></trkpt><trkpt lat="44.4419317" lon="11.48401"><ele>63.0</ele><time>2026-05-02T08:01:35.868Z</time></trkpt><trkpt lat="44.4418533" lon="11.48422"><ele>63.0</ele><time>2026-05-02T08:01:36.868Z</time></trkpt><trkpt lat="44.4417767" lon="11.4844333"><ele>63.0</ele><time>2026-05-02T08:01:37.869Z</time></trkpt><trkpt lat="44.4416983" lon="11.4846467"><ele>63.0</ele><time>2026-05-02T08:01:38.868Z</time></trkpt><trkpt lat="44.44163" lon="11.4848383"><ele>63.75</ele><time>2026-05-02T08:01:39.868Z</time></trkpt><trkpt lat="44.441565" lon="11.48503"><ele>64.5</ele><time>2026-05-02T08:01:40.869Z</time></trkpt><trkpt lat="44.4414933" lon="11.4852033"><ele>65.25</ele><time>2026-05-02T08:01:41.868Z</time></trkpt><trkpt lat="44.441425" lon="11.485375"><ele>66.0</ele><time>2026-05-02T08:01:42.868Z</time></trkpt><trkpt lat="44.4413633" lon="11.4855283"><ele>66.6</ele><time>2026-05-02T08:01:43.869Z</time></trkpt><trkpt lat="44.4412967" lon="11.4856867"><ele>67.19999999999999</ele><time>2026-05-02T08:01:44.868Z</time></trkpt><trkpt lat="44.4412483" lon="11.4858267"><ele>67.80000000000001</ele><time>2026-05-02T08:01:45.868Z</time></trkpt><trkpt lat="44.4412017" lon="11.4859517"><ele>68.4</ele><time>2026-05-02T08:01:46.868Z</time></trkpt><trkpt lat="44.44116" lon="11.48606"><ele>69.0</ele><time>2026-05-02T08:01:47.868Z</time></trkpt><trkpt lat="44.4411133" lon="11.4861767"><ele>69.0</ele><time>2026-05-02T08:01:48.868Z</time></trkpt><trkpt lat="44.4410667" lon="11.48631"><ele>69.0</ele><time>2026-05-02T08:01:49.868Z</time></trkpt><trkpt lat="44.441015" lon="11.4864567"><ele>69.0</ele><time>2026-05-02T08:01:50.868Z</time></trkpt><trkpt lat="44.4409567" lon="11.4866167"><ele>69.0</ele><time>2026-05-02T08:01:51.868Z</time></trkpt><trkpt lat="44.4408917" lon="11.48678"><ele>69.0</ele><time>2026-05-02T08:01:52.869Z</time></trkpt><trkpt lat="44.440825" lon="11.4869517"><ele>69.0</ele><time>2026-05-02T08:01:53.869Z</time></trkpt><trkpt lat="44.4407517" lon="11.4871317"><ele>69.0</ele><time>2026-05-02T08:01:54.868Z</time></trkpt><trkpt lat="44.4406883" lon="11.4873067"><ele>69.0</ele><time>2026-05-02T08:01:55.868Z</time></trkpt><trkpt lat="44.4406233" lon="11.4874833"><ele>68.75</ele><time>2026-05-02T08:01:56.868Z</time></trkpt><trkpt lat="44.440565" lon="11.4876617"><ele>68.5</ele><time>2026-05-02T08:01:57.868Z</time></trkpt><trkpt lat="44.4405067" lon="11.48783"><ele>68.25</ele><time>2026-05-02T08:01:58.868Z</time></trkpt><trkpt lat="44.44045" lon="11.4879983"><ele>68.0</ele><time>2026-05-02T08:01:59.869Z</time></trkpt><trkpt lat="44.44039" lon="11.4881733"><ele>68.0</ele><time>2026-05-02T08:02:00.868Z</time></trkpt><trkpt lat="44.4403267" lon="11.4883733"><ele>68.0</ele><time>2026-05-02T08:02:01.868Z</time></trkpt><trkpt lat="44.440245" lon="11.488585"><ele>68.0</ele><time>2026-05-02T08:02:02.868Z</time></trkpt><trkpt lat="44.4401667" lon="11.4887867"><ele>68.0</ele><time>2026-05-02T08:02:03.868Z</time></trkpt><trkpt lat="44.4400883" lon="11.488985"><ele>68.0</ele><time>2026-05-02T08:02:04.868Z</time></trkpt><trkpt lat="44.44001" lon="11.4891767"><ele>68.0</ele><time>2026-05-02T08:02:05.869Z</time></trkpt><trkpt lat="44.4399367" lon="11.489365"><ele>68.0</ele><time>2026-05-02T08:02:06.869Z</time></trkpt><trkpt lat="44.439865" lon="11.48955"><ele>68.0</ele><time>2026-05-02T08:02:07.869Z</time></trkpt><trkpt lat="44.4397917" lon="11.4897333"><ele>68.0</ele><time>2026-05-02T08:02:08.868Z</time></trkpt><trkpt lat="44.4397217" lon="11.489915"><ele>68.0</ele><time>2026-05-02T08:02:09.869Z</time></trkpt><trkpt lat="44.4396533" lon="11.4900983"><ele>68.0</ele><time>2026-05-02T08:02:10.868Z</time></trkpt><trkpt lat="44.4395867" lon="11.4902817"><ele>68.0</ele><time>2026-05-02T08:02:11.868Z</time></trkpt><trkpt lat="44.43952" lon="11.4904583"><ele>68.0</ele><time>2026-05-02T08:02:12.868Z</time></trkpt><trkpt lat="44.439455" lon="11.4906317"><ele>68.0</ele><time>2026-05-02T08:02:13.868Z</time></trkpt><trkpt lat="44.43939" lon="11.4908067"><ele>68.0</ele><time>2026-05-02T08:02:14.868Z</time></trkpt><trkpt lat="44.4393233" lon="11.49098"><ele>68.0</ele><time>2026-05-02T08:02:15.868Z</time></trkpt><trkpt lat="44.4392533" lon="11.49115"><ele>68.0</ele><time>2026-05-02T08:02:16.868Z</time></trkpt><trkpt lat="44.4392" lon="11.49129"><ele>68.0</ele><time>2026-05-02T08:02:17.868Z</time></trkpt><trkpt lat="44.439155" lon="11.4914033"><ele>68.2</ele><time>2026-05-02T08:02:18.868Z</time></trkpt><trkpt lat="44.4391133" lon="11.49152"><ele>68.4</ele><time>2026-05-02T08:02:19.868Z</time></trkpt><trkpt lat="44.43907" lon="11.4916467"><ele>68.60000000000001</ele><time>2026-05-02T08:02:20.868Z</time></trkpt><trkpt lat="44.4390267" lon="11.4917733"><ele>68.8</ele><time>2026-05-02T08:02:21.869Z</time></trkpt><trkpt lat="44.4389867" lon="11.4919017"><ele>69.0</ele><time>2026-05-02T08:02:22.869Z</time></trkpt><trkpt lat="44.4389367" lon="11.4920317"><ele>68.60000000000001</ele><time>2026-05-02T08:02:23.868Z</time></trkpt><trkpt lat="44.4388867" lon="11.4921633"><ele>68.2</ele><time>2026-05-02T08:02:24.868Z</time></trkpt><trkpt lat="44.43884" lon="11.49229"><ele>67.80000000000001</ele><time>2026-05-02T08:02:25.869Z</time></trkpt><trkpt lat="44.438795" lon="11.4924233"><ele>67.4</ele><time>2026-05-02T08:02:26.868Z</time></trkpt><trkpt lat="44.4387417" lon="11.4925667"><ele>67.0</ele><time>2026-05-02T08:02:27.869Z</time></trkpt><trkpt lat="44.4386817" lon="11.492695"><ele>66.75</ele><time>2026-05-02T08:02:28.869Z</time></trkpt><trkpt lat="44.4386" lon="11.492805"><ele>66.5</ele><time>2026-05-02T08:02:29.868Z</time></trkpt><trkpt lat="44.4385133" lon="11.4929517"><ele>66.25</ele><time>2026-05-02T08:02:30.868Z</time></trkpt><trkpt lat="44.4384383" lon="11.4931467"><ele>66.0</ele><time>2026-05-02T08:02:31.868Z</time></trkpt><trkpt lat="44.4383833" lon="11.49338"><ele>65.66666666666667</ele><time>2026-05-02T08:02:32.868Z</time></trkpt><trkpt lat="44.4383233" lon="11.49362"><ele>65.33333333333334</ele><time>2026-05-02T08:02:33.868Z</time></trkpt><trkpt lat="44.43826" lon="11.493855"><ele>65.0</ele><time>2026-05-02T08:02:34.869Z</time></trkpt><trkpt lat="44.4381867" lon="11.49407"><ele>64.75</ele><time>2026-05-02T08:02:35.868Z</time></trkpt><trkpt lat="44.4381117" lon="11.494265"><ele>64.5</ele><time>2026-05-02T08:02:36.869Z</time></trkpt><trkpt lat="44.4380417" lon="11.49444"><ele>64.25</ele><time>2026-05-02T08:02:37.868Z</time></trkpt><trkpt lat="44.43798" lon="11.4946017"><ele>64.0</ele><time>2026-05-02T08:02:38.869Z</time></trkpt><trkpt lat="44.4379217" lon="11.4947533"><ele>64.0</ele><time>2026-05-02T08:02:39.868Z</time></trkpt><trkpt lat="44.4378633" lon="11.4948983"><ele>64.0</ele><time>2026-05-02T08:02:40.868Z</time></trkpt><trkpt lat="44.43781" lon="11.4950333"><ele>64.0</ele><time>2026-05-02T08:02:41.868Z</time></trkpt><trkpt lat="44.437755" lon="11.4951633"><ele>64.0</ele><time>2026-05-02T08:02:42.868Z</time></trkpt><trkpt lat="44.4377033" lon="11.49529"><ele>64.0</ele><time>2026-05-02T08:02:43.868Z</time></trkpt><trkpt lat="44.437655" lon="11.4954167"><ele>63.49999999999999</ele><time>2026-05-02T08:02:44.869Z</time></trkpt><trkpt lat="44.43761" lon="11.49553"><ele>63.0</ele><time>2026-05-02T08:02:45.869Z</time></trkpt><trkpt lat="44.43757" lon="11.4956317"><ele>62.5</ele><time>2026-05-02T08:02:46.868Z</time></trkpt><trkpt lat="44.4375317" lon="11.4957267"><ele>62.0</ele><time>2026-05-02T08:02:47.868Z</time></trkpt><trkpt lat="44.4374983" lon="11.49582"><ele>61.49999999999999</ele><time>2026-05-02T08:02:48.868Z</time></trkpt><trkpt lat="44.4374583" lon="11.4959167"><ele>61.0</ele><time>2026-05-02T08:02:49.869Z</time></trkpt><trkpt lat="44.4374167" lon="11.4960133"><ele>61.0</ele><time>2026-05-02T08:02:50.868Z</time></trkpt><trkpt lat="44.4373733" lon="11.4961167"><ele>60.99999999999999</ele><time>2026-05-02T08:02:51.869Z</time></trkpt><trkpt lat="44.4373267" lon="11.496225"><ele>60.99999999999999</ele><time>2026-05-02T08:02:52.868Z</time></trkpt><trkpt lat="44.43728" lon="11.4963433"><ele>61.0</ele><time>2026-05-02T08:02:53.868Z</time></trkpt><trkpt lat="44.437235" lon="11.4964667"><ele>61.0</ele><time>2026-05-02T08:02:54.868Z</time></trkpt><trkpt lat="44.437195" lon="11.49659"><ele>61.0</ele><time>2026-05-02T08:02:55.868Z</time></trkpt><trkpt lat="44.4371517" lon="11.4967133"><ele>60.99999999999999</ele><time>2026-05-02T08:02:56.869Z</time></trkpt><trkpt lat="44.4371033" lon="11.4968367"><ele>60.99999999999999</ele><time>2026-05-02T08:02:57.868Z</time></trkpt><trkpt lat="44.4370567" lon="11.49696"><ele>61.0</ele><time>2026-05-02T08:02:58.868Z</time></trkpt><trkpt lat="44.43701" lon="11.4970867"><ele>61.0</ele><time>2026-05-02T08:02:59.868Z</time></trkpt><trkpt lat="44.4369617" lon="11.4972233"><ele>61.25</ele><time>2026-05-02T08:03:00.869Z</time></trkpt><trkpt lat="44.4369117" lon="11.4973633"><ele>61.5</ele><time>2026-05-02T08:03:01.868Z</time></trkpt><trkpt lat="44.4368617" lon="11.4975217"><ele>61.75</ele><time>2026-05-02T08:03:02.868Z</time></trkpt><trkpt lat="44.436805" lon="11.49768"><ele>62.0</ele><time>2026-05-02T08:03:03.868Z</time></trkpt><trkpt lat="44.43674" lon="11.49785"><ele>62.5</ele><time>2026-05-02T08:03:04.868Z</time></trkpt><trkpt lat="44.4366817" lon="11.498015"><ele>63.0</ele><time>2026-05-02T08:03:05.868Z</time></trkpt><trkpt lat="44.436625" lon="11.4981783"><ele>63.5</ele><time>2026-05-02T08:03:06.868Z</time></trkpt><trkpt lat="44.436565" lon="11.49834"><ele>64.0</ele><time>2026-05-02T08:03:07.868Z</time></trkpt><trkpt lat="44.4365067" lon="11.4984983"><ele>64.0</ele><time>2026-05-02T08:03:08.869Z</time></trkpt><trkpt lat="44.4364483" lon="11.49865"><ele>64.0</ele><time>2026-05-02T08:03:09.868Z</time></trkpt><trkpt lat="44.4363967" lon="11.4987917"><ele>64.0</ele><time>2026-05-02T08:03:10.869Z</time></trkpt><trkpt lat="44.4363483" lon="11.498925"><ele>64.0</ele><time>2026-05-02T08:03:11.868Z</time></trkpt><trkpt lat="44.4363" lon="11.4990583"><ele>64.0</ele><time>2026-05-02T08:03:12.868Z</time></trkpt><trkpt lat="44.4362483" lon="11.4991967"><ele>64.0</ele><time>2026-05-02T08:03:13.869Z</time></trkpt><trkpt lat="44.43619" lon="11.4993583"><ele>64.0</ele><time>2026-05-02T08:03:14.869Z</time></trkpt><trkpt lat="44.4361283" lon="11.4995383"><ele>64.0</ele><time>2026-05-02T08:03:15.868Z</time></trkpt><trkpt lat="44.436055" lon="11.49974"><ele>64.0</ele><time>2026-05-02T08:03:16.868Z</time></trkpt><trkpt lat="44.435985" lon="11.4999367"><ele>64.0</ele><time>2026-05-02T08:03:17.868Z</time></trkpt><trkpt lat="44.435915" lon="11.5001233"><ele>64.0</ele><time>2026-05-02T08:03:18.868Z</time></trkpt><trkpt lat="44.43585" lon="11.5002983"><ele>64.0</ele><time>2026-05-02T08:03:19.868Z</time></trkpt><trkpt lat="44.4357883" lon="11.5004717"><ele>64.0</ele><time>2026-05-02T08:03:20.868Z</time></trkpt><trkpt lat="44.43572" lon="11.5006517"><ele>64.0</ele><time>2026-05-02T08:03:21.869Z</time></trkpt><trkpt lat="44.4356517" lon="11.500825"><ele>64.0</ele><time>2026-05-02T08:03:22.868Z</time></trkpt><trkpt lat="44.4355833" lon="11.500995"><ele>64.0</ele><time>2026-05-02T08:03:23.868Z</time></trkpt><trkpt lat="44.435515" lon="11.50116"><ele>64.5</ele><time>2026-05-02T08:03:24.868Z</time></trkpt><trkpt lat="44.4354467" lon="11.5013317"><ele>65.0</ele><time>2026-05-02T08:03:25.868Z</time></trkpt><trkpt lat="44.435385" lon="11.5014983"><ele>65.5</ele><time>2026-05-02T08:03:26.868Z</time></trkpt><trkpt lat="44.4353217" lon="11.501665"><ele>66.0</ele><time>2026-05-02T08:03:27.869Z</time></trkpt><trkpt lat="44.43526" lon="11.5018283"><ele>66.0</ele><time>2026-05-02T08:03:28.869Z</time></trkpt><trkpt lat="44.4351967" lon="11.5019917"><ele>66.0</ele><time>2026-05-02T08:03:29.869Z</time></trkpt><trkpt lat="44.4351317" lon="11.50216"><ele>66.0</ele><time>2026-05-02T08:03:30.868Z</time></trkpt><trkpt lat="44.4350617" lon="11.5023367"><ele>66.0</ele><time>2026-05-02T08:03:31.869Z</time></trkpt><trkpt lat="44.4349933" lon="11.502515"><ele>66.0</ele><time>2026-05-02T08:03:32.868Z</time></trkpt><trkpt lat="44.4349383" lon="11.5026933"><ele>66.0</ele><time>2026-05-02T08:03:33.868Z</time></trkpt><trkpt lat="44.43487" lon="11.50287"><ele>66.0</ele><time>2026-05-02T08:03:34.869Z</time></trkpt><trkpt lat="44.4348017" lon="11.503055"><ele>66.0</ele><time>2026-05-02T08:03:35.868Z</time></trkpt><trkpt lat="44.4347383" lon="11.5032333"><ele>65.75</ele><time>2026-05-02T08:03:36.868Z</time></trkpt><trkpt lat="44.434675" lon="11.5034033"><ele>65.5</ele><time>2026-05-02T08:03:37.868Z</time></trkpt><trkpt lat="44.43461" lon="11.5035483"><ele>65.25</ele><time>2026-05-02T08:03:38.869Z</time></trkpt><trkpt lat="44.4345467" lon="11.5036933"><ele>65.0</ele><time>2026-05-02T08:03:39.869Z</time></trkpt><trkpt lat="44.4344867" lon="11.50384"><ele>64.25</ele><time>2026-05-02T08:03:40.868Z</time></trkpt><trkpt lat="44.4344217" lon="11.5039867"><ele>63.5</ele><time>2026-05-02T08:03:41.868Z</time></trkpt><trkpt lat="44.4343583" lon="11.5041367"><ele>62.75</ele><time>2026-05-02T08:03:42.868Z</time></trkpt><trkpt lat="44.4342867" lon="11.50429"><ele>62.0</ele><time>2026-05-02T08:03:43.868Z</time></trkpt><trkpt lat="44.43422" lon="11.5044417"><ele>62.5</ele><time>2026-05-02T08:03:44.868Z</time></trkpt><trkpt lat="44.43415" lon="11.50459"><ele>63.0</ele><time>2026-05-02T08:03:45.868Z</time></trkpt><trkpt lat="44.4340833" lon="11.5047333"><ele>63.5</ele><time>2026-05-02T08:03:46.868Z</time></trkpt><trkpt lat="44.4340217" lon="11.5048667"><ele>64.0</ele><time>2026-05-02T08:03:47.868Z</time></trkpt><trkpt lat="44.4339617" lon="11.505005"><ele>64.0</ele><time>2026-05-02T08:03:48.868Z</time></trkpt><trkpt lat="44.4338967" lon="11.5051417"><ele>64.0</ele><time>2026-05-02T08:03:49.868Z</time></trkpt><trkpt lat="44.4338333" lon="11.5052783"><ele>64.0</ele><time>2026-05-02T08:03:50.868Z</time></trkpt><trkpt lat="44.4337683" lon="11.5054117"><ele>64.0</ele><time>2026-05-02T08:03:51.869Z</time></trkpt><trkpt lat="44.4337" lon="11.5055467"><ele>64.5</ele><time>2026-05-02T08:03:52.868Z</time></trkpt><trkpt lat="44.4336433" lon="11.5056867"><ele>65.0</ele><time>2026-05-02T08:03:53.868Z</time></trkpt><trkpt lat="44.4335817" lon="11.505835"><ele>65.5</ele><time>2026-05-02T08:03:54.869Z</time></trkpt><trkpt lat="44.4335167" lon="11.505985"><ele>66.0</ele><time>2026-05-02T08:03:55.868Z</time></trkpt><trkpt lat="44.4334517" lon="11.5061317"><ele>65.5</ele><time>2026-05-02T08:03:56.868Z</time></trkpt><trkpt lat="44.4333917" lon="11.5062717"><ele>65.0</ele><time>2026-05-02T08:03:57.868Z</time></trkpt><trkpt lat="44.4333317" lon="11.50641"><ele>64.5</ele><time>2026-05-02T08:03:58.868Z</time></trkpt><trkpt lat="44.4332667" lon="11.5065433"><ele>64.0</ele><time>2026-05-02T08:03:59.869Z</time></trkpt><trkpt lat="44.433205" lon="11.5066817"><ele>64.0</ele><time>2026-05-02T08:04:00.869Z</time></trkpt><trkpt lat="44.4331433" lon="11.5068233"><ele>64.0</ele><time>2026-05-02T08:04:01.868Z</time></trkpt><trkpt lat="44.4330917" lon="11.506965"><ele>64.0</ele><time>2026-05-02T08:04:02.868Z</time></trkpt><trkpt lat="44.433045" lon="11.5071083"><ele>64.0</ele><time>2026-05-02T08:04:03.868Z</time></trkpt><trkpt lat="44.4330017" lon="11.5072533"><ele>64.75</ele><time>2026-05-02T08:04:04.869Z</time></trkpt><trkpt lat="44.43295" lon="11.5074117"><ele>65.5</ele><time>2026-05-02T08:04:05.868Z</time></trkpt><trkpt lat="44.4328983" lon="11.5075783"><ele>66.25</ele><time>2026-05-02T08:04:06.868Z</time></trkpt><trkpt lat="44.4328517" lon="11.5077483"><ele>67.0</ele><time>2026-05-02T08:04:07.868Z</time></trkpt><trkpt lat="44.43281" lon="11.5079067"><ele>67.0</ele><time>2026-05-02T08:04:08.868Z</time></trkpt><trkpt lat="44.4327733" lon="11.5080417"><ele>67.0</ele><time>2026-05-02T08:04:09.868Z</time></trkpt><trkpt lat="44.432745" lon="11.508155"><ele>67.0</ele><time>2026-05-02T08:04:10.868Z</time></trkpt><trkpt lat="44.4327133" lon="11.508295"><ele>67.0</ele><time>2026-05-02T08:04:12.868Z</time></trkpt><trkpt lat="44.4326933" lon="11.5083833"><ele>67.0</ele><time>2026-05-02T08:04:50.869Z</time></trkpt><trkpt lat="44.4326683" lon="11.508465"><ele>67.0</ele><time>2026-05-02T08:04:51.868Z</time></trkpt><trkpt lat="44.4326267" lon="11.50855"><ele>67.0</ele><time>2026-05-02T08:04:52.868Z</time></trkpt><trkpt lat="44.432565" lon="11.508625"><ele>67.0</ele><time>2026-05-02T08:04:53.868Z</time></trkpt><trkpt lat="44.4324617" lon="11.508655"><ele>67.0</ele><time>2026-05-02T08:04:54.868Z</time></trkpt><trkpt lat="44.4323317" lon="11.5086517"><ele>67.0</ele><time>2026-05-02T08:04:55.869Z</time></trkpt><trkpt lat="44.4321933" lon="11.50863"><ele>66.5</ele><time>2026-05-02T08:04:56.868Z</time></trkpt><trkpt lat="44.4320583" lon="11.508615"><ele>66.0</ele><time>2026-05-02T08:04:57.868Z</time></trkpt><trkpt lat="44.43193" lon="11.5085983"><ele>65.5</ele><time>2026-05-02T08:04:58.868Z</time></trkpt><trkpt lat="44.4318067" lon="11.5085733"><ele>65.0</ele><time>2026-05-02T08:04:59.869Z</time></trkpt><trkpt lat="44.4316783" lon="11.5085583"><ele>65.0</ele><time>2026-05-02T08:05:00.868Z</time></trkpt><trkpt lat="44.4315417" lon="11.508535"><ele>65.0</ele><time>2026-05-02T08:05:01.868Z</time></trkpt><trkpt lat="44.4314" lon="11.50851"><ele>65.0</ele><time>2026-05-02T08:05:02.869Z</time></trkpt><trkpt lat="44.4312383" lon="11.5084867"><ele>65.0</ele><time>2026-05-02T08:05:03.868Z</time></trkpt><trkpt lat="44.431065" lon="11.5084633"><ele>65.33333333333334</ele><time>2026-05-02T08:05:04.868Z</time></trkpt><trkpt lat="44.4308883" lon="11.5084367"><ele>65.66666666666667</ele><time>2026-05-02T08:05:05.869Z</time></trkpt><trkpt lat="44.4307133" lon="11.5083983"><ele>66.0</ele><time>2026-05-02T08:05:06.868Z</time></trkpt><trkpt lat="44.4305383" lon="11.5083383"><ele>66.33333333333333</ele><time>2026-05-02T08:05:07.868Z</time></trkpt><trkpt lat="44.43035" lon="11.5082467"><ele>66.66666666666666</ele><time>2026-05-02T08:05:08.868Z</time></trkpt><trkpt lat="44.4301567" lon="11.5081433"><ele>67.0</ele><time>2026-05-02T08:05:09.868Z</time></trkpt><trkpt lat="44.4299717" lon="11.50805"><ele>67.0</ele><time>2026-05-02T08:05:10.869Z</time></trkpt><trkpt lat="44.429785" lon="11.50797"><ele>67.0</ele><time>2026-05-02T08:05:11.869Z</time></trkpt><trkpt lat="44.42961" lon="11.5079033"><ele>67.0</ele><time>2026-05-02T08:05:12.868Z</time></trkpt><trkpt lat="44.4294467" lon="11.50784"><ele>67.66666666666666</ele><time>2026-05-02T08:05:13.868Z</time></trkpt><trkpt lat="44.4292767" lon="11.5077883"><ele>68.33333333333333</ele><time>2026-05-02T08:05:14.868Z</time></trkpt><trkpt lat="44.4290967" lon="11.507755"><ele>69.0</ele><time>2026-05-02T08:05:15.868Z</time></trkpt><trkpt lat="44.4289067" lon="11.50773"><ele>69.0</ele><time>2026-05-02T08:05:16.868Z</time></trkpt><trkpt lat="44.4287083" lon="11.507715"><ele>69.0</ele><time>2026-05-02T08:05:17.869Z</time></trkpt><trkpt lat="44.4285167" lon="11.5077017"><ele>69.0</ele><time>2026-05-02T08:05:18.868Z</time></trkpt><trkpt lat="44.42832" lon="11.507695"><ele>69.0</ele><time>2026-05-02T08:05:19.869Z</time></trkpt><trkpt lat="44.4281233" lon="11.5076917"><ele>69.0</ele><time>2026-05-02T08:05:20.868Z</time></trkpt><trkpt lat="44.4279283" lon="11.5076883"><ele>69.0</ele><time>2026-05-02T08:05:21.868Z</time></trkpt><trkpt lat="44.4277317" lon="11.50768"><ele>70.0</ele><time>2026-05-02T08:05:22.869Z</time></trkpt><trkpt lat="44.4275333" lon="11.5076783"><ele>71.0</ele><time>2026-05-02T08:05:23.868Z</time></trkpt><trkpt lat="44.4273333" lon="11.50767"><ele>72.0</ele><time>2026-05-02T08:05:24.868Z</time></trkpt><trkpt lat="44.4271367" lon="11.5076567"><ele>73.0</ele><time>2026-05-02T08:05:25.869Z</time></trkpt><trkpt lat="44.4269417" lon="11.5076333"><ele>74.0</ele><time>2026-05-02T08:05:26.868Z</time></trkpt><trkpt lat="44.4267533" lon="11.5076017"><ele>75.0</ele><time>2026-05-02T08:05:27.868Z</time></trkpt><trkpt lat="44.4265667" lon="11.5075683"><ele>75.0</ele><time>2026-05-02T08:05:28.869Z</time></trkpt><trkpt lat="44.426385" lon="11.5075267"><ele>75.0</ele><time>2026-05-02T08:05:29.868Z</time></trkpt><trkpt lat="44.4261967" lon="11.507475"><ele>75.0</ele><time>2026-05-02T08:05:30.869Z</time></trkpt><trkpt lat="44.4260117" lon="11.5074267"><ele>75.33333333333333</ele><time>2026-05-02T08:05:31.868Z</time></trkpt><trkpt lat="44.4258267" lon="11.5073667"><ele>75.66666666666666</ele><time>2026-05-02T08:05:32.868Z</time></trkpt><trkpt lat="44.4256483" lon="11.5073017"><ele>76.0</ele><time>2026-05-02T08:05:33.868Z</time></trkpt><trkpt lat="44.4254583" lon="11.5072267"><ele>76.0</ele><time>2026-05-02T08:05:34.869Z</time></trkpt><trkpt lat="44.42527" lon="11.50715"><ele>76.0</ele><time>2026-05-02T08:05:35.868Z</time></trkpt><trkpt lat="44.42508" lon="11.5070783"><ele>76.0</ele><time>2026-05-02T08:05:36.868Z</time></trkpt><trkpt lat="44.424895" lon="11.50701"><ele>77.0</ele><time>2026-05-02T08:05:37.868Z</time></trkpt><trkpt lat="44.424705" lon="11.5069317"><ele>78.0</ele><time>2026-05-02T08:05:38.869Z</time></trkpt><trkpt lat="44.424515" lon="11.5068567"><ele>79.0</ele><time>2026-05-02T08:05:39.868Z</time></trkpt><trkpt lat="44.424325" lon="11.5067817"><ele>79.33333333333333</ele><time>2026-05-02T08:05:40.868Z</time></trkpt><trkpt lat="44.4241333" lon="11.5066983"><ele>79.66666666666667</ele><time>2026-05-02T08:05:41.868Z</time></trkpt><trkpt lat="44.4239433" lon="11.50662"><ele>80.0</ele><time>2026-05-02T08:05:42.868Z</time></trkpt><trkpt lat="44.4237583" lon="11.5065333"><ele>80.66666666666667</ele><time>2026-05-02T08:05:43.868Z</time></trkpt><trkpt lat="44.4235733" lon="11.5064633"><ele>81.33333333333333</ele><time>2026-05-02T08:05:44.868Z</time></trkpt><trkpt lat="44.42339" lon="11.5064017"><ele>82.0</ele><time>2026-05-02T08:05:45.868Z</time></trkpt><trkpt lat="44.42321" lon="11.506345"><ele>82.0</ele><time>2026-05-02T08:05:46.868Z</time></trkpt><trkpt lat="44.42303" lon="11.5063017"><ele>82.0</ele><time>2026-05-02T08:05:47.868Z</time></trkpt><trkpt lat="44.4228467" lon="11.5062683"><ele>82.0</ele><time>2026-05-02T08:05:48.868Z</time></trkpt><trkpt lat="44.4226583" lon="11.5062383"><ele>81.66666666666666</ele><time>2026-05-02T08:05:49.868Z</time></trkpt><trkpt lat="44.4224733" lon="11.5062183"><ele>81.33333333333333</ele><time>2026-05-02T08:05:50.868Z</time></trkpt><trkpt lat="44.4222867" lon="11.5062017"><ele>81.0</ele><time>2026-05-02T08:05:51.868Z</time></trkpt><trkpt lat="44.4220967" lon="11.50619"><ele>81.66666666666667</ele><time>2026-05-02T08:05:52.868Z</time></trkpt><trkpt lat="44.4219083" lon="11.5061733"><ele>82.33333333333334</ele><time>2026-05-02T08:05:53.868Z</time></trkpt><trkpt lat="44.4217233" lon="11.5061583"><ele>83.0</ele><time>2026-05-02T08:05:54.869Z</time></trkpt><trkpt lat="44.4215367" lon="11.5061417"><ele>83.0</ele><time>2026-05-02T08:05:55.868Z</time></trkpt><trkpt lat="44.4213517" lon="11.5061183"><ele>83.0</ele><time>2026-05-02T08:05:56.868Z</time></trkpt><trkpt lat="44.421155" lon="11.5061067"><ele>83.0</ele><time>2026-05-02T08:05:57.869Z</time></trkpt><trkpt lat="44.4209533" lon="11.5061017"><ele>84.0</ele><time>2026-05-02T08:05:58.868Z</time></trkpt><trkpt lat="44.4207317" lon="11.5061333"><ele>85.0</ele><time>2026-05-02T08:05:59.868Z</time></trkpt><trkpt lat="44.4204967" lon="11.5061917"><ele>84.0</ele><time>2026-05-02T08:06:00.869Z</time></trkpt><trkpt lat="44.4202633" lon="11.5062517"><ele>83.0</ele><time>2026-05-02T08:06:01.868Z</time></trkpt><trkpt lat="44.4200417" lon="11.50631"><ele>83.0</ele><time>2026-05-02T08:06:02.869Z</time></trkpt><trkpt lat="44.419835" lon="11.5063717"><ele>83.0</ele><time>2026-05-02T08:06:03.869Z</time></trkpt><trkpt lat="44.419635" lon="11.5064233"><ele>83.0</ele><time>2026-05-02T08:06:04.868Z</time></trkpt><trkpt lat="44.419435" lon="11.5064767"><ele>84.66666666666667</ele><time>2026-05-02T08:06:05.868Z</time></trkpt><trkpt lat="44.4192417" lon="11.5065333"><ele>86.33333333333333</ele><time>2026-05-02T08:06:06.869Z</time></trkpt><trkpt lat="44.41905" lon="11.5065917"><ele>88.0</ele><time>2026-05-02T08:06:07.868Z</time></trkpt><trkpt lat="44.4188567" lon="11.506645"><ele>90.66666666666666</ele><time>2026-05-02T08:06:08.868Z</time></trkpt><trkpt lat="44.418665" lon="11.5066983"><ele>93.33333333333333</ele><time>2026-05-02T08:06:09.868Z</time></trkpt><trkpt lat="44.4184633" lon="11.506745"><ele>96.0</ele><time>2026-05-02T08:06:10.868Z</time></trkpt><trkpt lat="44.418275" lon="11.506795"><ele>96.0</ele><time>2026-05-02T08:06:11.868Z</time></trkpt><trkpt lat="44.4180967" lon="11.506845"><ele>96.0</ele><time>2026-05-02T08:06:12.868Z</time></trkpt><trkpt lat="44.41792" lon="11.5068867"><ele>96.0</ele><time>2026-05-02T08:06:13.869Z</time></trkpt><trkpt lat="44.4177517" lon="11.5069383"><ele>97.66666666666666</ele><time>2026-05-02T08:06:14.868Z</time></trkpt><trkpt lat="44.4175817" lon="11.5069867"><ele>99.33333333333333</ele><time>2026-05-02T08:06:15.869Z</time></trkpt><trkpt lat="44.4174133" lon="11.5070233"><ele>101.0</ele><time>2026-05-02T08:06:16.868Z</time></trkpt><trkpt lat="44.417245" lon="11.5070583"><ele>98.0</ele><time>2026-05-02T08:06:17.868Z</time></trkpt><trkpt lat="44.4170783" lon="11.5070917"><ele>95.0</ele><time>2026-05-02T08:06:18.869Z</time></trkpt><trkpt lat="44.4169083" lon="11.5071183"><ele>92.0</ele><time>2026-05-02T08:06:19.868Z</time></trkpt><trkpt lat="44.4167283" lon="11.50714"><ele>92.0</ele><time>2026-05-02T08:06:20.868Z</time></trkpt><trkpt lat="44.416545" lon="11.5071483"><ele>92.0</ele><time>2026-05-02T08:06:21.869Z</time></trkpt><trkpt lat="44.41637" lon="11.5071467"><ele>92.0</ele><time>2026-05-02T08:06:22.868Z</time></trkpt><trkpt lat="44.4161833" lon="11.50714"><ele>92.0</ele><time>2026-05-02T08:06:23.868Z</time></trkpt><trkpt lat="44.415995" lon="11.50714"><ele>92.0</ele><time>2026-05-02T08:06:24.869Z</time></trkpt><trkpt lat="44.4158133" lon="11.507145"><ele>92.0</ele><time>2026-05-02T08:06:25.869Z</time></trkpt><trkpt lat="44.4156333" lon="11.507145"><ele>91.0</ele><time>2026-05-02T08:06:26.868Z</time></trkpt><trkpt lat="44.4154467" lon="11.5071333"><ele>90.0</ele><time>2026-05-02T08:06:27.868Z</time></trkpt><trkpt lat="44.415255" lon="11.5071233"><ele>89.0</ele><time>2026-05-02T08:06:28.868Z</time></trkpt><trkpt lat="44.4150667" lon="11.507105"><ele>91.66666666666667</ele><time>2026-05-02T08:06:29.868Z</time></trkpt><trkpt lat="44.4148717" lon="11.5070617"><ele>94.33333333333334</ele><time>2026-05-02T08:06:30.868Z</time></trkpt><trkpt lat="44.4146817" lon="11.5070017"><ele>97.0</ele><time>2026-05-02T08:06:31.868Z</time></trkpt><trkpt lat="44.4144983" lon="11.506935"><ele>97.0</ele><time>2026-05-02T08:06:32.868Z</time></trkpt><trkpt lat="44.4143117" lon="11.5068683"><ele>97.0</ele><time>2026-05-02T08:06:33.868Z</time></trkpt><trkpt lat="44.4141233" lon="11.5067983"><ele>97.0</ele><time>2026-05-02T08:06:34.869Z</time></trkpt><trkpt lat="44.4139367" lon="11.5067267"><ele>96.66666666666667</ele><time>2026-05-02T08:06:35.868Z</time></trkpt><trkpt lat="44.4137517" lon="11.5066533"><ele>96.33333333333334</ele><time>2026-05-02T08:06:36.869Z</time></trkpt><trkpt lat="44.41357" lon="11.5065767"><ele>96.0</ele><time>2026-05-02T08:06:37.868Z</time></trkpt><trkpt lat="44.4133933" lon="11.5065"><ele>96.0</ele><time>2026-05-02T08:06:38.869Z</time></trkpt><trkpt lat="44.4132217" lon="11.5064133"><ele>96.0</ele><time>2026-05-02T08:06:39.868Z</time></trkpt><trkpt lat="44.4130517" lon="11.5063183"><ele>96.0</ele><time>2026-05-02T08:06:40.869Z</time></trkpt><trkpt lat="44.4128883" lon="11.50621"><ele>96.66666666666666</ele><time>2026-05-02T08:06:41.868Z</time></trkpt><trkpt lat="44.4127283" lon="11.506085"><ele>97.33333333333333</ele><time>2026-05-02T08:06:42.869Z</time></trkpt><trkpt lat="44.4125883" lon="11.5059433"><ele>98.0</ele><time>2026-05-02T08:06:43.869Z</time></trkpt><trkpt lat="44.4124517" lon="11.5057967"><ele>98.0</ele><time>2026-05-02T08:06:44.868Z</time></trkpt><trkpt lat="44.4123133" lon="11.5056517"><ele>98.0</ele><time>2026-05-02T08:06:45.868Z</time></trkpt><trkpt lat="44.4121933" lon="11.5055067"><ele>98.0</ele><time>2026-05-02T08:06:46.868Z</time></trkpt><trkpt lat="44.4120667" lon="11.5053683"><ele>98.0</ele><time>2026-05-02T08:06:47.868Z</time></trkpt><trkpt lat="44.4119283" lon="11.5052467"><ele>98.0</ele><time>2026-05-02T08:06:48.868Z</time></trkpt><trkpt lat="44.4117733" lon="11.505145"><ele>98.0</ele><time>2026-05-02T08:06:49.869Z</time></trkpt><trkpt lat="44.4116117" lon="11.5050583"><ele>98.0</ele><time>2026-05-02T08:06:50.868Z</time></trkpt><trkpt lat="44.4114433" lon="11.504975"><ele>98.0</ele><time>2026-05-02T08:06:51.868Z</time></trkpt><trkpt lat="44.4112783" lon="11.5048933"><ele>98.0</ele><time>2026-05-02T08:06:52.868Z</time></trkpt><trkpt lat="44.4111083" lon="11.5048133"><ele>97.0</ele><time>2026-05-02T08:06:53.868Z</time></trkpt><trkpt lat="44.4109383" lon="11.504745"><ele>96.0</ele><time>2026-05-02T08:06:54.869Z</time></trkpt><trkpt lat="44.4107617" lon="11.5046983"><ele>95.0</ele><time>2026-05-02T08:06:55.868Z</time></trkpt><trkpt lat="44.4105617" lon="11.5047033"><ele>95.66666666666667</ele><time>2026-05-02T08:06:56.868Z</time></trkpt><trkpt lat="44.4103517" lon="11.5047567"><ele>96.33333333333334</ele><time>2026-05-02T08:06:57.868Z</time></trkpt><trkpt lat="44.41016" lon="11.50482"><ele>97.0</ele><time>2026-05-02T08:06:58.868Z</time></trkpt><trkpt lat="44.40999" lon="11.5048583"><ele>97.0</ele><time>2026-05-02T08:06:59.868Z</time></trkpt><trkpt lat="44.40983" lon="11.5048533"><ele>97.0</ele><time>2026-05-02T08:07:00.868Z</time></trkpt><trkpt lat="44.40968" lon="11.504815"><ele>97.0</ele><time>2026-05-02T08:07:01.868Z</time></trkpt><trkpt lat="44.409545" lon="11.5047517"><ele>97.66666666666667</ele><time>2026-05-02T08:07:02.868Z</time></trkpt><trkpt lat="44.409415" lon="11.504645"><ele>98.33333333333334</ele><time>2026-05-02T08:07:03.869Z</time></trkpt><trkpt lat="44.4092983" lon="11.5044867"><ele>99.0</ele><time>2026-05-02T08:07:04.868Z</time></trkpt><trkpt lat="44.4091783" lon="11.5043167"><ele>99.33333333333334</ele><time>2026-05-02T08:07:05.868Z</time></trkpt><trkpt lat="44.4090683" lon="11.5041417"><ele>99.66666666666667</ele><time>2026-05-02T08:07:06.868Z</time></trkpt><trkpt lat="44.4089667" lon="11.503975"><ele>100.0</ele><time>2026-05-02T08:07:07.868Z</time></trkpt><trkpt lat="44.4088567" lon="11.5038167"><ele>100.0</ele><time>2026-05-02T08:07:08.868Z</time></trkpt><trkpt lat="44.4087467" lon="11.5036617"><ele>100.0</ele><time>2026-05-02T08:07:09.868Z</time></trkpt><trkpt lat="44.4086433" lon="11.50351"><ele>100.0</ele><time>2026-05-02T08:07:10.869Z</time></trkpt><trkpt lat="44.4085417" lon="11.503365"><ele>100.0</ele><time>2026-05-02T08:07:11.868Z</time></trkpt><trkpt lat="44.4084383" lon="11.5032183"><ele>100.0</ele><time>2026-05-02T08:07:12.868Z</time></trkpt><trkpt lat="44.4083333" lon="11.5030767"><ele>100.0</ele><time>2026-05-02T08:07:13.868Z</time></trkpt><trkpt lat="44.4082267" lon="11.5029367"><ele>100.0</ele><time>2026-05-02T08:07:14.868Z</time></trkpt><trkpt lat="44.4081083" lon="11.502825"><ele>99.25</ele><time>2026-05-02T08:07:15.868Z</time></trkpt><trkpt lat="44.408" lon="11.5027317"><ele>98.5</ele><time>2026-05-02T08:07:16.868Z</time></trkpt><trkpt lat="44.4078967" lon="11.50264"><ele>97.75</ele><time>2026-05-02T08:07:17.868Z</time></trkpt><trkpt lat="44.4077933" lon="11.5025533"><ele>97.0</ele><time>2026-05-02T08:07:18.869Z</time></trkpt><trkpt lat="44.4076767" lon="11.5024683"><ele>97.0</ele><time>2026-05-02T08:07:19.868Z</time></trkpt><trkpt lat="44.4075383" lon="11.5023833"><ele>97.0</ele><time>2026-05-02T08:07:20.868Z</time></trkpt><trkpt lat="44.4073817" lon="11.5022883"><ele>97.0</ele><time>2026-05-02T08:07:21.869Z</time></trkpt><trkpt lat="44.40723" lon="11.502195"><ele>98.33333333333334</ele><time>2026-05-02T08:07:22.869Z</time></trkpt><trkpt lat="44.4070717" lon="11.502105"><ele>99.66666666666666</ele><time>2026-05-02T08:07:23.869Z</time></trkpt><trkpt lat="44.4069183" lon="11.5020117"><ele>101.0</ele><time>2026-05-02T08:07:24.868Z</time></trkpt><trkpt lat="44.406765" lon="11.5019233"><ele>101.0</ele><time>2026-05-02T08:07:25.868Z</time></trkpt><trkpt lat="44.4066067" lon="11.50183"><ele>101.0</ele><time>2026-05-02T08:07:26.868Z</time></trkpt><trkpt lat="44.406445" lon="11.501735"><ele>101.0</ele><time>2026-05-02T08:07:27.868Z</time></trkpt><trkpt lat="44.4062933" lon="11.5016483"><ele>101.0</ele><time>2026-05-02T08:07:28.869Z</time></trkpt><trkpt lat="44.406145" lon="11.501565"><ele>101.0</ele><time>2026-05-02T08:07:29.868Z</time></trkpt><trkpt lat="44.4060017" lon="11.5014867"><ele>101.0</ele><time>2026-05-02T08:07:30.868Z</time></trkpt><trkpt lat="44.4058617" lon="11.50141"><ele>101.0</ele><time>2026-05-02T08:07:31.869Z</time></trkpt><trkpt lat="44.4057133" lon="11.5013267"><ele>101.0</ele><time>2026-05-02T08:07:32.868Z</time></trkpt><trkpt lat="44.4055683" lon="11.5012383"><ele>101.0</ele><time>2026-05-02T08:07:33.869Z</time></trkpt><trkpt lat="44.40542" lon="11.50115"><ele>101.66666666666666</ele><time>2026-05-02T08:07:34.868Z</time></trkpt><trkpt lat="44.4052683" lon="11.5010583"><ele>102.33333333333334</ele><time>2026-05-02T08:07:35.868Z</time></trkpt><trkpt lat="44.405125" lon="11.5009517"><ele>103.0</ele><time>2026-05-02T08:07:36.868Z</time></trkpt><trkpt lat="44.404985" lon="11.5008283"><ele>103.0</ele><time>2026-05-02T08:07:37.868Z</time></trkpt><trkpt lat="44.4048467" lon="11.5006917"><ele>103.0</ele><time>2026-05-02T08:07:38.868Z</time></trkpt><trkpt lat="44.4046983" lon="11.5005417"><ele>103.0</ele><time>2026-05-02T08:07:39.868Z</time></trkpt><trkpt lat="44.4045417" lon="11.50039"><ele>102.66666666666667</ele><time>2026-05-02T08:07:40.868Z</time></trkpt><trkpt lat="44.40439" lon="11.50024"><ele>102.33333333333334</ele><time>2026-05-02T08:07:41.868Z</time></trkpt><trkpt lat="44.4042383" lon="11.5000817"><ele>102.0</ele><time>2026-05-02T08:07:42.868Z</time></trkpt><trkpt lat="44.40408" lon="11.499925"><ele>102.0</ele><time>2026-05-02T08:07:43.868Z</time></trkpt><trkpt lat="44.4039233" lon="11.4997717"><ele>102.0</ele><time>2026-05-02T08:07:44.868Z</time></trkpt><trkpt lat="44.4037733" lon="11.4996167"><ele>102.0</ele><time>2026-05-02T08:07:45.869Z</time></trkpt><trkpt lat="44.40362" lon="11.49946"><ele>102.33333333333334</ele><time>2026-05-02T08:07:46.868Z</time></trkpt><trkpt lat="44.4034683" lon="11.4993083"><ele>102.66666666666667</ele><time>2026-05-02T08:07:47.868Z</time></trkpt><trkpt lat="44.40332" lon="11.499155"><ele>103.0</ele><time>2026-05-02T08:07:48.868Z</time></trkpt><trkpt lat="44.4031717" lon="11.4990133"><ele>103.0</ele><time>2026-05-02T08:07:49.868Z</time></trkpt><trkpt lat="44.4030333" lon="11.49887"><ele>103.0</ele><time>2026-05-02T08:07:50.869Z</time></trkpt><trkpt lat="44.4028917" lon="11.4987383"><ele>103.0</ele><time>2026-05-02T08:07:51.869Z</time></trkpt><trkpt lat="44.4027567" lon="11.4986033"><ele>103.66666666666667</ele><time>2026-05-02T08:07:52.868Z</time></trkpt><trkpt lat="44.4026267" lon="11.4984717"><ele>104.33333333333334</ele><time>2026-05-02T08:07:53.869Z</time></trkpt><trkpt lat="44.402505" lon="11.4983167"><ele>105.0</ele><time>2026-05-02T08:07:54.869Z</time></trkpt><trkpt lat="44.4024083" lon="11.4981317"><ele>105.66666666666666</ele><time>2026-05-02T08:07:55.869Z</time></trkpt><trkpt lat="44.4023283" lon="11.4978967"><ele>106.33333333333333</ele><time>2026-05-02T08:07:56.868Z</time></trkpt><trkpt lat="44.4022583" lon="11.49764"><ele>107.0</ele><time>2026-05-02T08:07:57.868Z</time></trkpt><trkpt lat="44.402185" lon="11.4973633"><ele>107.0</ele><time>2026-05-02T08:07:58.868Z</time></trkpt><trkpt lat="44.40212" lon="11.4971017"><ele>107.0</ele><time>2026-05-02T08:07:59.868Z</time></trkpt><trkpt lat="44.40206" lon="11.4968567"><ele>107.0</ele><time>2026-05-02T08:08:00.869Z</time></trkpt><trkpt lat="44.4019983" lon="11.4966133"><ele>107.0</ele><time>2026-05-02T08:08:01.868Z</time></trkpt><trkpt lat="44.4019383" lon="11.4963667"><ele>107.0</ele><time>2026-05-02T08:08:02.868Z</time></trkpt><trkpt lat="44.4018833" lon="11.4961233"><ele>107.0</ele><time>2026-05-02T08:08:03.868Z</time></trkpt><trkpt lat="44.4018183" lon="11.4958883"><ele>107.33333333333333</ele><time>2026-05-02T08:08:04.868Z</time></trkpt><trkpt lat="44.40176" lon="11.4956583"><ele>107.66666666666666</ele><time>2026-05-02T08:08:05.868Z</time></trkpt><trkpt lat="44.4016983" lon="11.4954233"><ele>108.0</ele><time>2026-05-02T08:08:06.868Z</time></trkpt><trkpt lat="44.4016367" lon="11.4951883"><ele>108.33333333333334</ele><time>2026-05-02T08:08:07.868Z</time></trkpt><trkpt lat="44.401575" lon="11.4949533"><ele>108.66666666666667</ele><time>2026-05-02T08:08:08.868Z</time></trkpt><trkpt lat="44.4015133" lon="11.494725"><ele>109.0</ele><time>2026-05-02T08:08:09.869Z</time></trkpt><trkpt lat="44.4014567" lon="11.4944917"><ele>109.0</ele><time>2026-05-02T08:08:10.868Z</time></trkpt><trkpt lat="44.4014017" lon="11.4942633"><ele>109.0</ele><time>2026-05-02T08:08:11.868Z</time></trkpt><trkpt lat="44.4013417" lon="11.49405"><ele>109.0</ele><time>2026-05-02T08:08:12.869Z</time></trkpt><trkpt lat="44.4012833" lon="11.493835"><ele>110.0</ele><time>2026-05-02T08:08:13.868Z</time></trkpt><trkpt lat="44.4012317" lon="11.4936167"><ele>111.0</ele><time>2026-05-02T08:08:14.868Z</time></trkpt><trkpt lat="44.4011783" lon="11.493405"><ele>112.0</ele><time>2026-05-02T08:08:15.868Z</time></trkpt><trkpt lat="44.4011283" lon="11.4931933"><ele>112.0</ele><time>2026-05-02T08:08:16.868Z</time></trkpt><trkpt lat="44.40107" lon="11.492985"><ele>112.0</ele><time>2026-05-02T08:08:17.868Z</time></trkpt><trkpt lat="44.4010117" lon="11.4927667"><ele>112.0</ele><time>2026-05-02T08:08:18.868Z</time></trkpt><trkpt lat="44.4009583" lon="11.4925583"><ele>112.25</ele><time>2026-05-02T08:08:19.868Z</time></trkpt><trkpt lat="44.400915" lon="11.49236"><ele>112.5</ele><time>2026-05-02T08:08:20.868Z</time></trkpt><trkpt lat="44.4008967" lon="11.492175"><ele>112.75</ele><time>2026-05-02T08:08:21.868Z</time></trkpt><trkpt lat="44.400905" lon="11.4919883"><ele>113.0</ele><time>2026-05-02T08:08:22.869Z</time></trkpt><trkpt lat="44.40093" lon="11.4917867"><ele>113.0</ele><time>2026-05-02T08:08:23.868Z</time></trkpt><trkpt lat="44.4009767" lon="11.491565"><ele>113.0</ele><time>2026-05-02T08:08:24.868Z</time></trkpt><trkpt lat="44.401035" lon="11.49135"><ele>113.0</ele><time>2026-05-02T08:08:25.868Z</time></trkpt><trkpt lat="44.4010883" lon="11.49114"><ele>113.0</ele><time>2026-05-02T08:08:26.868Z</time></trkpt><trkpt lat="44.401135" lon="11.490925"><ele>113.0</ele><time>2026-05-02T08:08:27.868Z</time></trkpt><trkpt lat="44.4011867" lon="11.4907017"><ele>113.0</ele><time>2026-05-02T08:08:28.868Z</time></trkpt><trkpt lat="44.40123" lon="11.4904917"><ele>113.75</ele><time>2026-05-02T08:08:29.868Z</time></trkpt><trkpt lat="44.4012767" lon="11.490295"><ele>114.5</ele><time>2026-05-02T08:08:30.869Z</time></trkpt><trkpt lat="44.4013133" lon="11.49011"><ele>115.25</ele><time>2026-05-02T08:08:31.869Z</time></trkpt><trkpt lat="44.40134" lon="11.4899267"><ele>116.0</ele><time>2026-05-02T08:08:32.868Z</time></trkpt><trkpt lat="44.4013383" lon="11.4897417"><ele>116.33333333333333</ele><time>2026-05-02T08:08:33.868Z</time></trkpt><trkpt lat="44.40131" lon="11.4895517"><ele>116.66666666666666</ele><time>2026-05-02T08:08:34.868Z</time></trkpt><trkpt lat="44.4012333" lon="11.489335"><ele>117.0</ele><time>2026-05-02T08:08:35.868Z</time></trkpt><trkpt lat="44.4011683" lon="11.4891283"><ele>117.0</ele><time>2026-05-02T08:08:36.868Z</time></trkpt><trkpt lat="44.40112" lon="11.4889267"><ele>117.0</ele><time>2026-05-02T08:08:37.869Z</time></trkpt><trkpt lat="44.4010817" lon="11.4887467"><ele>117.0</ele><time>2026-05-02T08:08:38.868Z</time></trkpt><trkpt lat="44.4010433" lon="11.48858"><ele>117.0</ele><time>2026-05-02T08:08:39.869Z</time></trkpt><trkpt lat="44.4010167" lon="11.4884117"><ele>118.0</ele><time>2026-05-02T08:08:40.868Z</time></trkpt><trkpt lat="44.400985" lon="11.488255"><ele>118.99999999999999</ele><time>2026-05-02T08:08:41.868Z</time></trkpt><trkpt lat="44.4009467" lon="11.4881167"><ele>119.99999999999999</ele><time>2026-05-02T08:08:42.868Z</time></trkpt><trkpt lat="44.4009183" lon="11.4879833"><ele>121.0</ele><time>2026-05-02T08:08:43.868Z</time></trkpt><trkpt lat="44.40088" lon="11.4878533"><ele>122.0</ele><time>2026-05-02T08:08:44.868Z</time></trkpt><trkpt lat="44.40084" lon="11.4877"><ele>123.0</ele><time>2026-05-02T08:08:45.868Z</time></trkpt><trkpt lat="44.400795" lon="11.487545"><ele>124.0</ele><time>2026-05-02T08:08:46.869Z</time></trkpt><trkpt lat="44.4007583" lon="11.487375"><ele>125.0</ele><time>2026-05-02T08:08:47.868Z</time></trkpt><trkpt lat="44.4007167" lon="11.48721"><ele>126.0</ele><time>2026-05-02T08:08:48.868Z</time></trkpt><trkpt lat="44.40066" lon="11.4870467"><ele>125.0</ele><time>2026-05-02T08:08:49.868Z</time></trkpt><trkpt lat="44.4006083" lon="11.486875"><ele>124.0</ele><time>2026-05-02T08:08:50.869Z</time></trkpt><trkpt lat="44.4005533" lon="11.4867067"><ele>123.0</ele><time>2026-05-02T08:08:51.869Z</time></trkpt><trkpt lat="44.4005183" lon="11.486525"><ele>122.0</ele><time>2026-05-02T08:08:52.869Z</time></trkpt><trkpt lat="44.4004917" lon="11.4863383"><ele>123.0</ele><time>2026-05-02T08:08:53.868Z</time></trkpt><trkpt lat="44.4004817" lon="11.4861217"><ele>124.0</ele><time>2026-05-02T08:08:54.869Z</time></trkpt><trkpt lat="44.4004833" lon="11.4858867"><ele>125.0</ele><time>2026-05-02T08:08:55.869Z</time></trkpt><trkpt lat="44.4004683" lon="11.4856733"><ele>125.0</ele><time>2026-05-02T08:08:56.868Z</time></trkpt><trkpt lat="44.400445" lon="11.4854833"><ele>125.0</ele><time>2026-05-02T08:08:57.868Z</time></trkpt><trkpt lat="44.400415" lon="11.4853033"><ele>125.0</ele><time>2026-05-02T08:08:58.868Z</time></trkpt><trkpt lat="44.4003667" lon="11.485135"><ele>125.0</ele><time>2026-05-02T08:08:59.868Z</time></trkpt><trkpt lat="44.4003333" lon="11.4849633"><ele>126.0</ele><time>2026-05-02T08:09:00.868Z</time></trkpt><trkpt lat="44.400295" lon="11.4848017"><ele>127.0</ele><time>2026-05-02T08:09:01.868Z</time></trkpt><trkpt lat="44.40025" lon="11.4846367"><ele>128.0</ele><time>2026-05-02T08:09:02.869Z</time></trkpt><trkpt lat="44.40017" lon="11.4844783"><ele>129.0</ele><time>2026-05-02T08:09:03.869Z</time></trkpt><trkpt lat="44.4000817" lon="11.484305"><ele>129.66666666666666</ele><time>2026-05-02T08:09:04.869Z</time></trkpt><trkpt lat="44.3999817" lon="11.48413"><ele>130.33333333333331</ele><time>2026-05-02T08:09:05.869Z</time></trkpt><trkpt lat="44.3998867" lon="11.4839467"><ele>131.0</ele><time>2026-05-02T08:09:06.868Z</time></trkpt><trkpt lat="44.399785" lon="11.4837667"><ele>130.33333333333331</ele><time>2026-05-02T08:09:07.868Z</time></trkpt><trkpt lat="44.3996917" lon="11.4835933"><ele>129.66666666666666</ele><time>2026-05-02T08:09:08.868Z</time></trkpt><trkpt lat="44.3995967" lon="11.48342"><ele>129.0</ele><time>2026-05-02T08:09:09.869Z</time></trkpt><trkpt lat="44.3994917" lon="11.48326"><ele>129.0</ele><time>2026-05-02T08:09:10.869Z</time></trkpt><trkpt lat="44.39938" lon="11.4831167"><ele>129.0</ele><time>2026-05-02T08:09:11.869Z</time></trkpt><trkpt lat="44.3992767" lon="11.48298"><ele>129.0</ele><time>2026-05-02T08:09:12.868Z</time></trkpt><trkpt lat="44.3991917" lon="11.4828467"><ele>129.0</ele><time>2026-05-02T08:09:13.869Z</time></trkpt><trkpt lat="44.399115" lon="11.4827133"><ele>130.25</ele><time>2026-05-02T08:09:14.868Z</time></trkpt><trkpt lat="44.3990517" lon="11.4825783"><ele>131.5</ele><time>2026-05-02T08:09:15.869Z</time></trkpt><trkpt lat="44.3990083" lon="11.4824333"><ele>132.75</ele><time>2026-05-02T08:09:16.868Z</time></trkpt><trkpt lat="44.399" lon="11.4822533"><ele>134.0</ele><time>2026-05-02T08:09:17.868Z</time></trkpt><trkpt lat="44.3989517" lon="11.482105"><ele>134.2</ele><time>2026-05-02T08:09:18.869Z</time></trkpt><trkpt lat="44.39889" lon="11.4819617"><ele>134.4</ele><time>2026-05-02T08:09:19.868Z</time></trkpt><trkpt lat="44.39882" lon="11.481845"><ele>134.6</ele><time>2026-05-02T08:09:20.868Z</time></trkpt><trkpt lat="44.3987367" lon="11.48175"><ele>134.8</ele><time>2026-05-02T08:09:21.868Z</time></trkpt><trkpt lat="44.39865" lon="11.4816983"><ele>135.0</ele><time>2026-05-02T08:09:22.869Z</time></trkpt><trkpt lat="44.3985433" lon="11.4816917"><ele>133.75</ele><time>2026-05-02T08:09:23.868Z</time></trkpt><trkpt lat="44.3984233" lon="11.4816983"><ele>132.5</ele><time>2026-05-02T08:09:24.869Z</time></trkpt><trkpt lat="44.398305" lon="11.4817033"><ele>131.25</ele><time>2026-05-02T08:09:25.868Z</time></trkpt><trkpt lat="44.3981933" lon="11.481695"><ele>130.0</ele><time>2026-05-02T08:09:26.868Z</time></trkpt><trkpt lat="44.398075" lon="11.4816583"><ele>130.0</ele><time>2026-05-02T08:09:27.868Z</time></trkpt><trkpt lat="44.39795" lon="11.4815883"><ele>130.0</ele><time>2026-05-02T08:09:28.868Z</time></trkpt><trkpt lat="44.3978083" lon="11.4815067"><ele>130.0</ele><time>2026-05-02T08:09:29.869Z</time></trkpt><trkpt lat="44.3976633" lon="11.4814183"><ele>130.0</ele><time>2026-05-02T08:09:30.868Z</time></trkpt><trkpt lat="44.397515" lon="11.4813233"><ele>131.0</ele><time>2026-05-02T08:09:31.869Z</time></trkpt><trkpt lat="44.3973617" lon="11.4812317"><ele>132.0</ele><time>2026-05-02T08:09:32.868Z</time></trkpt><trkpt lat="44.3972083" lon="11.4811383"><ele>133.0</ele><time>2026-05-02T08:09:33.868Z</time></trkpt><trkpt lat="44.397055" lon="11.4810517"><ele>133.0</ele><time>2026-05-02T08:09:34.868Z</time></trkpt><trkpt lat="44.3969133" lon="11.480965"><ele>133.0</ele><time>2026-05-02T08:09:35.868Z</time></trkpt><trkpt lat="44.39677" lon="11.4808783"><ele>133.0</ele><time>2026-05-02T08:09:36.868Z</time></trkpt><trkpt lat="44.3966367" lon="11.4808067"><ele>133.0</ele><time>2026-05-02T08:09:37.868Z</time></trkpt><trkpt lat="44.396505" lon="11.480755"><ele>133.0</ele><time>2026-05-02T08:09:38.868Z</time></trkpt><trkpt lat="44.39636" lon="11.4807167"><ele>133.0</ele><time>2026-05-02T08:09:39.868Z</time></trkpt><trkpt lat="44.396205" lon="11.4806967"><ele>133.0</ele><time>2026-05-02T08:09:40.868Z</time></trkpt><trkpt lat="44.3960417" lon="11.4806667"><ele>133.0</ele><time>2026-05-02T08:09:41.868Z</time></trkpt><trkpt lat="44.3958833" lon="11.48064"><ele>133.0</ele><time>2026-05-02T08:09:42.868Z</time></trkpt><trkpt lat="44.39574" lon="11.4806117"><ele>133.0</ele><time>2026-05-02T08:09:43.868Z</time></trkpt><trkpt lat="44.3956" lon="11.48059"><ele>133.0</ele><time>2026-05-02T08:09:44.869Z</time></trkpt><trkpt lat="44.3954517" lon="11.4805567"><ele>133.33333333333334</ele><time>2026-05-02T08:09:45.868Z</time></trkpt><trkpt lat="44.395295" lon="11.4805133"><ele>133.66666666666666</ele><time>2026-05-02T08:09:46.868Z</time></trkpt><trkpt lat="44.3951483" lon="11.4804767"><ele>134.0</ele><time>2026-05-02T08:09:47.869Z</time></trkpt><trkpt lat="44.394995" lon="11.480435"><ele>135.66666666666666</ele><time>2026-05-02T08:09:48.869Z</time></trkpt><trkpt lat="44.3948417" lon="11.4803967"><ele>137.33333333333334</ele><time>2026-05-02T08:09:49.868Z</time></trkpt><trkpt lat="44.3946917" lon="11.4803617"><ele>139.0</ele><time>2026-05-02T08:09:50.869Z</time></trkpt><trkpt lat="44.3945483" lon="11.4803167"><ele>139.0</ele><time>2026-05-02T08:09:51.869Z</time></trkpt><trkpt lat="44.3944033" lon="11.48027"><ele>139.0</ele><time>2026-05-02T08:09:52.869Z</time></trkpt><trkpt lat="44.3942583" lon="11.4802367"><ele>139.0</ele><time>2026-05-02T08:09:53.869Z</time></trkpt><trkpt lat="44.394115" lon="11.48022"><ele>139.0</ele><time>2026-05-02T08:09:54.868Z</time></trkpt><trkpt lat="44.3939683" lon="11.4802083"><ele>139.75</ele><time>2026-05-02T08:09:55.868Z</time></trkpt><trkpt lat="44.3938267" lon="11.4802"><ele>140.5</ele><time>2026-05-02T08:09:56.868Z</time></trkpt><trkpt lat="44.3936933" lon="11.480195"><ele>141.25</ele><time>2026-05-02T08:09:57.868Z</time></trkpt><trkpt lat="44.393555" lon="11.4801833"><ele>142.0</ele><time>2026-05-02T08:09:58.869Z</time></trkpt><trkpt lat="44.3934217" lon="11.4801717"><ele>142.0</ele><time>2026-05-02T08:09:59.869Z</time></trkpt><trkpt lat="44.3932817" lon="11.4801617"><ele>142.0</ele><time>2026-05-02T08:10:00.868Z</time></trkpt><trkpt lat="44.39315" lon="11.480155"><ele>142.0</ele><time>2026-05-02T08:10:01.869Z</time></trkpt><trkpt lat="44.3930233" lon="11.4801467"><ele>142.0</ele><time>2026-05-02T08:10:02.869Z</time></trkpt><trkpt lat="44.3928867" lon="11.48014"><ele>142.5</ele><time>2026-05-02T08:10:03.868Z</time></trkpt><trkpt lat="44.3927567" lon="11.4801383"><ele>143.0</ele><time>2026-05-02T08:10:04.868Z</time></trkpt><trkpt lat="44.3926267" lon="11.48013"><ele>143.5</ele><time>2026-05-02T08:10:05.869Z</time></trkpt><trkpt lat="44.39249" lon="11.48013"><ele>144.0</ele><time>2026-05-02T08:10:06.868Z</time></trkpt><trkpt lat="44.3923583" lon="11.48013"><ele>144.0</ele><time>2026-05-02T08:10:07.869Z</time></trkpt><trkpt lat="44.3922417" lon="11.48012"><ele>144.0</ele><time>2026-05-02T08:10:08.869Z</time></trkpt><trkpt lat="44.39213" lon="11.4801117"><ele>144.0</ele><time>2026-05-02T08:10:09.868Z</time></trkpt><trkpt lat="44.392045" lon="11.480085"><ele>144.0</ele><time>2026-05-02T08:10:10.868Z</time></trkpt><trkpt lat="44.3919617" lon="11.48003"><ele>144.0</ele><time>2026-05-02T08:10:11.868Z</time></trkpt><trkpt lat="44.39188" lon="11.47995"><ele>143.75</ele><time>2026-05-02T08:10:12.868Z</time></trkpt><trkpt lat="44.3918033" lon="11.479845"><ele>143.5</ele><time>2026-05-02T08:10:13.868Z</time></trkpt><trkpt lat="44.3917167" lon="11.479725"><ele>143.25</ele><time>2026-05-02T08:10:14.868Z</time></trkpt><trkpt lat="44.3916233" lon="11.4796117"><ele>143.0</ele><time>2026-05-02T08:10:15.868Z</time></trkpt><trkpt lat="44.391525" lon="11.479495"><ele>144.25</ele><time>2026-05-02T08:10:16.868Z</time></trkpt><trkpt lat="44.3914417" lon="11.4793833"><ele>145.5</ele><time>2026-05-02T08:10:17.869Z</time></trkpt><trkpt lat="44.3913683" lon="11.4792633"><ele>146.75</ele><time>2026-05-02T08:10:18.869Z</time></trkpt><trkpt lat="44.3913017" lon="11.4791183"><ele>148.0</ele><time>2026-05-02T08:10:19.868Z</time></trkpt><trkpt lat="44.391245" lon="11.4789383"><ele>146.66666666666669</ele><time>2026-05-02T08:10:20.868Z</time></trkpt><trkpt lat="44.3911967" lon="11.4787333"><ele>145.33333333333334</ele><time>2026-05-02T08:10:21.869Z</time></trkpt><trkpt lat="44.3911583" lon="11.4785267"><ele>144.0</ele><time>2026-05-02T08:10:22.869Z</time></trkpt><trkpt lat="44.391115" lon="11.47832"><ele>144.0</ele><time>2026-05-02T08:10:23.868Z</time></trkpt><trkpt lat="44.3910817" lon="11.4781117"><ele>144.0</ele><time>2026-05-02T08:10:24.869Z</time></trkpt><trkpt lat="44.391055" lon="11.4779083"><ele>144.0</ele><time>2026-05-02T08:10:25.868Z</time></trkpt><trkpt lat="44.3910333" lon="11.47771"><ele>144.0</ele><time>2026-05-02T08:10:26.868Z</time></trkpt><trkpt lat="44.3910067" lon="11.4775267"><ele>144.4</ele><time>2026-05-02T08:10:27.869Z</time></trkpt><trkpt lat="44.3909733" lon="11.4773567"><ele>144.8</ele><time>2026-05-02T08:10:28.869Z</time></trkpt><trkpt lat="44.390935" lon="11.47721"><ele>145.2</ele><time>2026-05-02T08:10:29.868Z</time></trkpt><trkpt lat="44.39092" lon="11.4770617"><ele>145.6</ele><time>2026-05-02T08:10:30.868Z</time></trkpt><trkpt lat="44.390905" lon="11.47692"><ele>146.0</ele><time>2026-05-02T08:10:31.868Z</time></trkpt><trkpt lat="44.3908817" lon="11.476785"><ele>147.8</ele><time>2026-05-02T08:10:32.869Z</time></trkpt><trkpt lat="44.390845" lon="11.4766633"><ele>149.6</ele><time>2026-05-02T08:10:33.868Z</time></trkpt><trkpt lat="44.3907983" lon="11.47656"><ele>151.4</ele><time>2026-05-02T08:10:34.869Z</time></trkpt><trkpt lat="44.39073" lon="11.4764883"><ele>153.2</ele><time>2026-05-02T08:10:35.868Z</time></trkpt><trkpt lat="44.3906333" lon="11.4764433"><ele>155.0</ele><time>2026-05-02T08:10:36.869Z</time></trkpt><trkpt lat="44.3905267" lon="11.4764167"><ele>153.75</ele><time>2026-05-02T08:10:37.868Z</time></trkpt><trkpt lat="44.390415" lon="11.4764033"><ele>152.5</ele><time>2026-05-02T08:10:38.868Z</time></trkpt><trkpt lat="44.3902867" lon="11.4764117"><ele>151.25</ele><time>2026-05-02T08:10:39.868Z</time></trkpt><trkpt lat="44.3901483" lon="11.4764333"><ele>150.0</ele><time>2026-05-02T08:10:40.869Z</time></trkpt><trkpt lat="44.389995" lon="11.4764517"><ele>150.0</ele><time>2026-05-02T08:10:41.868Z</time></trkpt><trkpt lat="44.3898417" lon="11.47646"><ele>150.0</ele><time>2026-05-02T08:10:42.869Z</time></trkpt><trkpt lat="44.389705" lon="11.4764483"><ele>150.0</ele><time>2026-05-02T08:10:43.868Z</time></trkpt><trkpt lat="44.3895933" lon="11.4764433"><ele>150.0</ele><time>2026-05-02T08:10:44.868Z</time></trkpt><trkpt lat="44.3895117" lon="11.4764433"><ele>150.33333333333334</ele><time>2026-05-02T08:10:45.868Z</time></trkpt><trkpt lat="44.3894317" lon="11.4764417"><ele>150.66666666666666</ele><time>2026-05-02T08:10:46.868Z</time></trkpt><trkpt lat="44.389355" lon="11.4764217"><ele>151.0</ele><time>2026-05-02T08:10:47.869Z</time></trkpt><trkpt lat="44.3892667" lon="11.47638"><ele>151.33333333333331</ele><time>2026-05-02T08:10:48.868Z</time></trkpt><trkpt lat="44.389195" lon="11.47631"><ele>151.66666666666666</ele><time>2026-05-02T08:10:49.868Z</time></trkpt><trkpt lat="44.3891333" lon="11.47621"><ele>152.0</ele><time>2026-05-02T08:10:50.869Z</time></trkpt><trkpt lat="44.38911" lon="11.4761067"><ele>152.0</ele><time>2026-05-02T08:10:51.869Z</time></trkpt><trkpt lat="44.3891167" lon="11.4760133"><ele>152.0</ele><time>2026-05-02T08:10:52.868Z</time></trkpt><trkpt lat="44.389155" lon="11.475935"><ele>152.0</ele><time>2026-05-02T08:10:53.869Z</time></trkpt><trkpt lat="44.3892167" lon="11.47587"><ele>152.0</ele><time>2026-05-02T08:10:54.868Z</time></trkpt><trkpt lat="44.389285" lon="11.4758317"><ele>152.0</ele><time>2026-05-02T08:10:55.868Z</time></trkpt><trkpt lat="44.3893583" lon="11.4757983"><ele>152.0</ele><time>2026-05-02T08:10:56.869Z</time></trkpt><trkpt lat="44.38942" lon="11.4757533"><ele>152.0</ele><time>2026-05-02T08:10:57.868Z</time></trkpt><trkpt lat="44.3894817" lon="11.4756883"><ele>152.0</ele><time>2026-05-02T08:10:58.868Z</time></trkpt><trkpt lat="44.389535" lon="11.4755983"><ele>152.0</ele><time>2026-05-02T08:10:59.868Z</time></trkpt><trkpt lat="44.38958" lon="11.4754833"><ele>152.0</ele><time>2026-05-02T08:11:00.868Z</time></trkpt><trkpt lat="44.38961" lon="11.4753567"><ele>152.0</ele><time>2026-05-02T08:11:01.868Z</time></trkpt><trkpt lat="44.389625" lon="11.475225"><ele>152.0</ele><time>2026-05-02T08:11:02.868Z</time></trkpt><trkpt lat="44.389625" lon="11.475085"><ele>153.0</ele><time>2026-05-02T08:11:03.868Z</time></trkpt><trkpt lat="44.3895933" lon="11.474945"><ele>154.0</ele><time>2026-05-02T08:11:04.868Z</time></trkpt><trkpt lat="44.38953" lon="11.4748033"><ele>155.0</ele><time>2026-05-02T08:11:05.868Z</time></trkpt><trkpt lat="44.3894433" lon="11.47466"><ele>156.0</ele><time>2026-05-02T08:11:06.868Z</time></trkpt><trkpt lat="44.3893533" lon="11.47453"><ele>157.8</ele><time>2026-05-02T08:11:07.869Z</time></trkpt><trkpt lat="44.389265" lon="11.4744183"><ele>159.6</ele><time>2026-05-02T08:11:08.869Z</time></trkpt><trkpt lat="44.3891883" lon="11.474315"><ele>161.4</ele><time>2026-05-02T08:11:09.869Z</time></trkpt><trkpt lat="44.38912" lon="11.47422"><ele>163.2</ele><time>2026-05-02T08:11:10.868Z</time></trkpt><trkpt lat="44.3890467" lon="11.4741433"><ele>165.0</ele><time>2026-05-02T08:11:11.869Z</time></trkpt><trkpt lat="44.388955" lon="11.474075"><ele>165.0</ele><time>2026-05-02T08:11:12.868Z</time></trkpt><trkpt lat="44.3888617" lon="11.47402"><ele>165.0</ele><time>2026-05-02T08:11:13.868Z</time></trkpt><trkpt lat="44.3887667" lon="11.4739667"><ele>165.0</ele><time>2026-05-02T08:11:14.868Z</time></trkpt><trkpt lat="44.3886567" lon="11.4739017"><ele>165.0</ele><time>2026-05-02T08:11:15.869Z</time></trkpt><trkpt lat="44.3885383" lon="11.4738383"><ele>165.25</ele><time>2026-05-02T08:11:16.868Z</time></trkpt><trkpt lat="44.3884133" lon="11.4737633"><ele>165.5</ele><time>2026-05-02T08:11:17.868Z</time></trkpt><trkpt lat="44.388295" lon="11.4736917"><ele>165.75</ele><time>2026-05-02T08:11:18.869Z</time></trkpt><trkpt lat="44.38818" lon="11.47363"><ele>166.0</ele><time>2026-05-02T08:11:19.869Z</time></trkpt><trkpt lat="44.3880633" lon="11.4735683"><ele>164.8</ele><time>2026-05-02T08:11:20.868Z</time></trkpt><trkpt lat="44.3879567" lon="11.47351"><ele>163.60000000000002</ele><time>2026-05-02T08:11:21.869Z</time></trkpt><trkpt lat="44.387865" lon="11.4734483"><ele>162.4</ele><time>2026-05-02T08:11:22.868Z</time></trkpt><trkpt lat="44.3877917" lon="11.47337"><ele>161.2</ele><time>2026-05-02T08:11:23.869Z</time></trkpt><trkpt lat="44.3877217" lon="11.4732783"><ele>160.0</ele><time>2026-05-02T08:11:24.868Z</time></trkpt><trkpt lat="44.3876617" lon="11.4731617"><ele>160.0</ele><time>2026-05-02T08:11:25.868Z</time></trkpt><trkpt lat="44.3875983" lon="11.473035"><ele>160.0</ele><time>2026-05-02T08:11:26.869Z</time></trkpt><trkpt lat="44.38754" lon="11.4729133"><ele>160.0</ele><time>2026-05-02T08:11:27.868Z</time></trkpt><trkpt lat="44.3874867" lon="11.4728067"><ele>160.0</ele><time>2026-05-02T08:11:28.868Z</time></trkpt><trkpt lat="44.387425" lon="11.4727033"><ele>160.0</ele><time>2026-05-02T08:11:29.868Z</time></trkpt><trkpt lat="44.3873683" lon="11.4726133"><ele>160.66666666666669</ele><time>2026-05-02T08:11:30.868Z</time></trkpt><trkpt lat="44.3873217" lon="11.4725217"><ele>161.33333333333334</ele><time>2026-05-02T08:11:31.868Z</time></trkpt><trkpt lat="44.3872883" lon="11.472425"><ele>162.0</ele><time>2026-05-02T08:11:32.868Z</time></trkpt><trkpt lat="44.387265" lon="11.4723217"><ele>162.66666666666666</ele><time>2026-05-02T08:11:33.869Z</time></trkpt><trkpt lat="44.3872617" lon="11.4722033"><ele>163.33333333333331</ele><time>2026-05-02T08:11:34.868Z</time></trkpt><trkpt lat="44.38727" lon="11.47208"><ele>164.0</ele><time>2026-05-02T08:11:35.868Z</time></trkpt><trkpt lat="44.3872667" lon="11.4719733"><ele>163.83333333333331</ele><time>2026-05-02T08:11:36.868Z</time></trkpt><trkpt lat="44.3872167" lon="11.4718467"><ele>163.66666666666666</ele><time>2026-05-02T08:11:38.868Z</time></trkpt><trkpt lat="44.3871167" lon="11.4718317"><ele>163.5</ele><time>2026-05-02T08:11:40.868Z</time></trkpt><trkpt lat="44.3870067" lon="11.4718417"><ele>163.33333333333334</ele><time>2026-05-02T08:11:42.869Z</time></trkpt><trkpt lat="44.38694" lon="11.471835"><ele>163.16666666666669</ele><time>2026-05-02T08:11:43.869Z</time></trkpt><trkpt lat="44.3868767" lon="11.4718267"><ele>163.0</ele><time>2026-05-02T08:11:44.868Z</time></trkpt><trkpt lat="44.3867417" lon="11.4718167"><ele>163.0</ele><time>2026-05-02T08:11:46.868Z</time></trkpt><trkpt lat="44.3866667" lon="11.4718117"><ele>163.0</ele><time>2026-05-02T08:11:47.869Z</time></trkpt><trkpt lat="44.3865817" lon="11.47179"><ele>163.0</ele><time>2026-05-02T08:11:48.869Z</time></trkpt><trkpt lat="44.3864983" lon="11.47175"><ele>163.0</ele><time>2026-05-02T08:11:49.868Z</time></trkpt><trkpt lat="44.386435" lon="11.4716983"><ele>163.0</ele><time>2026-05-02T08:11:50.869Z</time></trkpt><trkpt lat="44.386375" lon="11.4716233"><ele>163.0</ele><time>2026-05-02T08:11:51.868Z</time></trkpt><trkpt lat="44.386325" lon="11.4715267"><ele>164.0</ele><time>2026-05-02T08:11:52.869Z</time></trkpt><trkpt lat="44.38629" lon="11.4714117"><ele>165.0</ele><time>2026-05-02T08:11:53.868Z</time></trkpt><trkpt lat="44.38626" lon="11.47126"><ele>166.0</ele><time>2026-05-02T08:11:54.869Z</time></trkpt><trkpt lat="44.3862267" lon="11.4710933"><ele>167.0</ele><time>2026-05-02T08:11:55.868Z</time></trkpt><trkpt lat="44.3861833" lon="11.4709383"><ele>168.0</ele><time>2026-05-02T08:11:56.869Z</time></trkpt><trkpt lat="44.38615" lon="11.4707933"><ele>168.0</ele><time>2026-05-02T08:11:57.869Z</time></trkpt><trkpt lat="44.386115" lon="11.47066"><ele>168.0</ele><time>2026-05-02T08:11:58.868Z</time></trkpt><trkpt lat="44.3860783" lon="11.4705367"><ele>168.0</ele><time>2026-05-02T08:11:59.869Z</time></trkpt><trkpt lat="44.3860367" lon="11.4704"><ele>168.0</ele><time>2026-05-02T08:12:00.868Z</time></trkpt><trkpt lat="44.3859867" lon="11.4702767"><ele>168.0</ele><time>2026-05-02T08:12:01.868Z</time></trkpt><trkpt lat="44.38594" lon="11.4701817"><ele>167.5</ele><time>2026-05-02T08:12:02.868Z</time></trkpt><trkpt lat="44.385895" lon="11.4700867"><ele>167.0</ele><time>2026-05-02T08:12:03.868Z</time></trkpt><trkpt lat="44.3858483" lon="11.4700017"><ele>166.5</ele><time>2026-05-02T08:12:04.869Z</time></trkpt><trkpt lat="44.3857917" lon="11.4699267"><ele>166.0</ele><time>2026-05-02T08:12:05.869Z</time></trkpt><trkpt lat="44.385725" lon="11.4698583"><ele>165.5</ele><time>2026-05-02T08:12:06.868Z</time></trkpt><trkpt lat="44.3856483" lon="11.46981"><ele>165.0</ele><time>2026-05-02T08:12:07.869Z</time></trkpt><trkpt lat="44.3855633" lon="11.4697633"><ele>166.0</ele><time>2026-05-02T08:12:08.868Z</time></trkpt><trkpt lat="44.385475" lon="11.4697283"><ele>167.0</ele><time>2026-05-02T08:12:09.869Z</time></trkpt><trkpt lat="44.3853833" lon="11.4696933"><ele>168.0</ele><time>2026-05-02T08:12:10.868Z</time></trkpt><trkpt lat="44.3852967" lon="11.46966"><ele>169.0</ele><time>2026-05-02T08:12:11.868Z</time></trkpt><trkpt lat="44.3852033" lon="11.4696383"><ele>170.0</ele><time>2026-05-02T08:12:12.868Z</time></trkpt><trkpt lat="44.3851133" lon="11.4696367"><ele>170.0</ele><time>2026-05-02T08:12:13.868Z</time></trkpt><trkpt lat="44.385025" lon="11.46964"><ele>170.0</ele><time>2026-05-02T08:12:14.868Z</time></trkpt><trkpt lat="44.3849317" lon="11.4696583"><ele>170.0</ele><time>2026-05-02T08:12:15.869Z</time></trkpt><trkpt lat="44.3848433" lon="11.4696917"><ele>170.0</ele><time>2026-05-02T08:12:16.869Z</time></trkpt><trkpt lat="44.3847667" lon="11.469725"><ele>170.0</ele><time>2026-05-02T08:12:17.869Z</time></trkpt><trkpt lat="44.3846833" lon="11.469775"><ele>170.0</ele><time>2026-05-02T08:12:18.869Z</time></trkpt><trkpt lat="44.3846133" lon="11.4698317"><ele>169.66666666666666</ele><time>2026-05-02T08:12:19.868Z</time></trkpt><trkpt lat="44.3845367" lon="11.4698967"><ele>169.33333333333331</ele><time>2026-05-02T08:12:20.868Z</time></trkpt><trkpt lat="44.3844683" lon="11.4699633"><ele>169.0</ele><time>2026-05-02T08:12:21.868Z</time></trkpt><trkpt lat="44.3844" lon="11.4700317"><ele>168.66666666666666</ele><time>2026-05-02T08:12:22.868Z</time></trkpt><trkpt lat="44.3843267" lon="11.4701033"><ele>168.33333333333334</ele><time>2026-05-02T08:12:23.869Z</time></trkpt><trkpt lat="44.3842517" lon="11.47017"><ele>168.0</ele><time>2026-05-02T08:12:24.868Z</time></trkpt><trkpt lat="44.3841667" lon="11.4702317"><ele>168.0</ele><time>2026-05-02T08:12:25.868Z</time></trkpt><trkpt lat="44.3840717" lon="11.4702633"><ele>168.0</ele><time>2026-05-02T08:12:26.868Z</time></trkpt><trkpt lat="44.3839883" lon="11.47027"><ele>168.0</ele><time>2026-05-02T08:12:27.869Z</time></trkpt><trkpt lat="44.383905" lon="11.4702617"><ele>168.0</ele><time>2026-05-02T08:12:28.868Z</time></trkpt><trkpt lat="44.3838217" lon="11.4702367"><ele>168.0</ele><time>2026-05-02T08:12:29.868Z</time></trkpt><trkpt lat="44.383735" lon="11.470205"><ele>168.0</ele><time>2026-05-02T08:12:30.869Z</time></trkpt><trkpt lat="44.383645" lon="11.4701633"><ele>168.33333333333334</ele><time>2026-05-02T08:12:31.868Z</time></trkpt><trkpt lat="44.3835533" lon="11.4701167"><ele>168.66666666666666</ele><time>2026-05-02T08:12:32.869Z</time></trkpt><trkpt lat="44.3834617" lon="11.470065"><ele>169.0</ele><time>2026-05-02T08:12:33.869Z</time></trkpt><trkpt lat="44.3833867" lon="11.4700183"><ele>169.33333333333331</ele><time>2026-05-02T08:12:34.868Z</time></trkpt><trkpt lat="44.383315" lon="11.4699783"><ele>169.66666666666666</ele><time>2026-05-02T08:12:35.868Z</time></trkpt><trkpt lat="44.3832483" lon="11.46994"><ele>170.0</ele><time>2026-05-02T08:12:36.868Z</time></trkpt><trkpt lat="44.3831867" lon="11.4699067"><ele>170.0</ele><time>2026-05-02T08:12:37.868Z</time></trkpt><trkpt lat="44.3831233" lon="11.46987"><ele>170.0</ele><time>2026-05-02T08:12:38.868Z</time></trkpt><trkpt lat="44.383055" lon="11.4698433"><ele>170.0</ele><time>2026-05-02T08:12:39.868Z</time></trkpt><trkpt lat="44.3829817" lon="11.46981"><ele>170.0</ele><time>2026-05-02T08:12:40.868Z</time></trkpt><trkpt lat="44.3829117" lon="11.46979"><ele>170.0</ele><time>2026-05-02T08:12:41.868Z</time></trkpt><trkpt lat="44.3828283" lon="11.4697817"><ele>170.0</ele><time>2026-05-02T08:12:42.868Z</time></trkpt><trkpt lat="44.3827367" lon="11.46978"><ele>171.2</ele><time>2026-05-02T08:12:43.868Z</time></trkpt><trkpt lat="44.3826333" lon="11.4697817"><ele>172.4</ele><time>2026-05-02T08:12:44.868Z</time></trkpt><trkpt lat="44.3825283" lon="11.46979"><ele>173.60000000000002</ele><time>2026-05-02T08:12:45.869Z</time></trkpt><trkpt lat="44.38244" lon="11.4697917"><ele>174.8</ele><time>2026-05-02T08:12:46.868Z</time></trkpt><trkpt lat="44.3823517" lon="11.4697983"><ele>176.0</ele><time>2026-05-02T08:12:47.869Z</time></trkpt><trkpt lat="44.3822667" lon="11.4698117"><ele>176.0</ele><time>2026-05-02T08:12:48.869Z</time></trkpt><trkpt lat="44.382185" lon="11.46981"><ele>176.0</ele><time>2026-05-02T08:12:49.868Z</time></trkpt><trkpt lat="44.3820967" lon="11.46982"><ele>176.0</ele><time>2026-05-02T08:12:50.869Z</time></trkpt><trkpt lat="44.3820133" lon="11.4698283"><ele>176.0</ele><time>2026-05-02T08:12:51.868Z</time></trkpt><trkpt lat="44.3819283" lon="11.4698383"><ele>176.0</ele><time>2026-05-02T08:12:52.869Z</time></trkpt><trkpt lat="44.3818483" lon="11.46986"><ele>176.0</ele><time>2026-05-02T08:12:53.869Z</time></trkpt><trkpt lat="44.381775" lon="11.4698783"><ele>176.16666666666666</ele><time>2026-05-02T08:12:54.868Z</time></trkpt><trkpt lat="44.3817067" lon="11.4699083"><ele>176.33333333333331</ele><time>2026-05-02T08:12:55.869Z</time></trkpt><trkpt lat="44.3816283" lon="11.46995"><ele>176.5</ele><time>2026-05-02T08:12:56.868Z</time></trkpt><trkpt lat="44.3815517" lon="11.4699967"><ele>176.66666666666666</ele><time>2026-05-02T08:12:57.868Z</time></trkpt><trkpt lat="44.3814667" lon="11.4700483"><ele>176.83333333333334</ele><time>2026-05-02T08:12:58.869Z</time></trkpt><trkpt lat="44.3813867" lon="11.4700967"><ele>177.0</ele><time>2026-05-02T08:12:59.868Z</time></trkpt><trkpt lat="44.381305" lon="11.47012"><ele>178.0</ele><time>2026-05-02T08:13:00.868Z</time></trkpt><trkpt lat="44.381225" lon="11.4701417"><ele>179.0</ele><time>2026-05-02T08:13:01.868Z</time></trkpt><trkpt lat="44.38114" lon="11.470155"><ele>180.0</ele><time>2026-05-02T08:13:02.868Z</time></trkpt><trkpt lat="44.3810617" lon="11.47016"><ele>181.0</ele><time>2026-05-02T08:13:03.868Z</time></trkpt><trkpt lat="44.380985" lon="11.4701583"><ele>182.0</ele><time>2026-05-02T08:13:04.868Z</time></trkpt><trkpt lat="44.380915" lon="11.470145"><ele>183.0</ele><time>2026-05-02T08:13:05.868Z</time></trkpt><trkpt lat="44.380845" lon="11.470125"><ele>183.0</ele><time>2026-05-02T08:13:06.868Z</time></trkpt><trkpt lat="44.3807717" lon="11.470095"><ele>183.0</ele><time>2026-05-02T08:13:07.868Z</time></trkpt><trkpt lat="44.38071" lon="11.47005"><ele>183.0</ele><time>2026-05-02T08:13:08.868Z</time></trkpt><trkpt lat="44.38065" lon="11.469995"><ele>183.0</ele><time>2026-05-02T08:13:09.869Z</time></trkpt><trkpt lat="44.3805983" lon="11.4699267"><ele>183.0</ele><time>2026-05-02T08:13:10.868Z</time></trkpt><trkpt lat="44.380535" lon="11.4698483"><ele>183.0</ele><time>2026-05-02T08:13:11.868Z</time></trkpt><trkpt lat="44.3804683" lon="11.4697717"><ele>182.5</ele><time>2026-05-02T08:13:12.868Z</time></trkpt><trkpt lat="44.3804" lon="11.4697"><ele>182.0</ele><time>2026-05-02T08:13:13.868Z</time></trkpt><trkpt lat="44.3803317" lon="11.4696267"><ele>181.5</ele><time>2026-05-02T08:13:14.869Z</time></trkpt><trkpt lat="44.3802633" lon="11.469555"><ele>181.0</ele><time>2026-05-02T08:13:15.868Z</time></trkpt><trkpt lat="44.3801917" lon="11.4694967"><ele>180.5</ele><time>2026-05-02T08:13:16.869Z</time></trkpt><trkpt lat="44.3801267" lon="11.46945"><ele>180.0</ele><time>2026-05-02T08:13:17.868Z</time></trkpt><trkpt lat="44.380055" lon="11.4694033"><ele>180.0</ele><time>2026-05-02T08:13:18.869Z</time></trkpt><trkpt lat="44.379985" lon="11.46936"><ele>180.0</ele><time>2026-05-02T08:13:19.868Z</time></trkpt><trkpt lat="44.3799233" lon="11.4693267"><ele>180.0</ele><time>2026-05-02T08:13:20.868Z</time></trkpt><trkpt lat="44.37986" lon="11.4693033"><ele>180.0</ele><time>2026-05-02T08:13:21.868Z</time></trkpt><trkpt lat="44.3797933" lon="11.4692733"><ele>180.0</ele><time>2026-05-02T08:13:22.869Z</time></trkpt><trkpt lat="44.37967" lon="11.46925"><ele>180.0</ele><time>2026-05-02T08:13:24.868Z</time></trkpt><trkpt lat="44.3796017" lon="11.4692517"><ele>180.16666666666666</ele><time>2026-05-02T08:13:25.868Z</time></trkpt><trkpt lat="44.379535" lon="11.4692617"><ele>180.33333333333334</ele><time>2026-05-02T08:13:26.868Z</time></trkpt><trkpt lat="44.3794617" lon="11.4692767"><ele>180.5</ele><time>2026-05-02T08:13:27.868Z</time></trkpt><trkpt lat="44.379385" lon="11.4692933"><ele>180.66666666666669</ele><time>2026-05-02T08:13:28.869Z</time></trkpt><trkpt lat="44.3793033" lon="11.4693133"><ele>180.83333333333334</ele><time>2026-05-02T08:13:29.868Z</time></trkpt><trkpt lat="44.3792217" lon="11.4693367"><ele>181.0</ele><time>2026-05-02T08:13:30.868Z</time></trkpt><trkpt lat="44.3791367" lon="11.4693667"><ele>181.0</ele><time>2026-05-02T08:13:31.868Z</time></trkpt><trkpt lat="44.3790567" lon="11.4693967"><ele>181.0</ele><time>2026-05-02T08:13:32.868Z</time></trkpt><trkpt lat="44.3789917" lon="11.4694117"><ele>181.0</ele><time>2026-05-02T08:13:33.869Z</time></trkpt><trkpt lat="44.3789283" lon="11.4694267"><ele>181.0</ele><time>2026-05-02T08:13:34.868Z</time></trkpt><trkpt lat="44.3788283" lon="11.4694133"><ele>181.0</ele><time>2026-05-02T08:13:36.868Z</time></trkpt><trkpt lat="44.378775" lon="11.4693367"><ele>181.0</ele><time>2026-05-02T08:13:38.868Z</time></trkpt><trkpt lat="44.3787367" lon="11.46923"><ele>181.66666666666669</ele><time>2026-05-02T08:13:41.868Z</time></trkpt><trkpt lat="44.3786933" lon="11.4691117"><ele>182.33333333333334</ele><time>2026-05-02T08:13:43.868Z</time></trkpt><trkpt lat="44.3786633" lon="11.4690283"><ele>183.0</ele><time>2026-05-02T08:13:44.869Z</time></trkpt><trkpt lat="44.3786167" lon="11.4689383"><ele>183.66666666666666</ele><time>2026-05-02T08:13:45.868Z</time></trkpt><trkpt lat="44.3785617" lon="11.468835"><ele>184.33333333333331</ele><time>2026-05-02T08:13:46.869Z</time></trkpt><trkpt lat="44.3785067" lon="11.4687417"><ele>185.0</ele><time>2026-05-02T08:13:47.868Z</time></trkpt><trkpt lat="44.3784567" lon="11.46866"><ele>185.16666666666666</ele><time>2026-05-02T08:13:48.868Z</time></trkpt><trkpt lat="44.378395" lon="11.468565"><ele>185.33333333333331</ele><time>2026-05-02T08:13:49.868Z</time></trkpt><trkpt lat="44.3783383" lon="11.4684767"><ele>185.5</ele><time>2026-05-02T08:13:50.868Z</time></trkpt><trkpt lat="44.3782817" lon="11.4683933"><ele>185.66666666666666</ele><time>2026-05-02T08:13:51.869Z</time></trkpt><trkpt lat="44.3782133" lon="11.4683167"><ele>185.83333333333334</ele><time>2026-05-02T08:13:52.868Z</time></trkpt><trkpt lat="44.3781317" lon="11.4682633"><ele>186.0</ele><time>2026-05-02T08:13:53.869Z</time></trkpt><trkpt lat="44.37802" lon="11.46822"><ele>187.0</ele><time>2026-05-02T08:13:54.869Z</time></trkpt><trkpt lat="44.3778867" lon="11.46818"><ele>188.0</ele><time>2026-05-02T08:13:55.869Z</time></trkpt><trkpt lat="44.3777667" lon="11.4681417"><ele>189.0</ele><time>2026-05-02T08:13:56.868Z</time></trkpt><trkpt lat="44.3776517" lon="11.468105"><ele>190.0</ele><time>2026-05-02T08:13:57.868Z</time></trkpt><trkpt lat="44.3775433" lon="11.4680683"><ele>190.0</ele><time>2026-05-02T08:13:58.868Z</time></trkpt><trkpt lat="44.37744" lon="11.4680167"><ele>190.0</ele><time>2026-05-02T08:13:59.868Z</time></trkpt><trkpt lat="44.3773467" lon="11.4679567"><ele>190.0</ele><time>2026-05-02T08:14:00.869Z</time></trkpt><trkpt lat="44.3772467" lon="11.467895"><ele>190.0</ele><time>2026-05-02T08:14:01.868Z</time></trkpt><trkpt lat="44.377145" lon="11.46782"><ele>190.0</ele><time>2026-05-02T08:14:02.868Z</time></trkpt><trkpt lat="44.377045" lon="11.4677533"><ele>190.0</ele><time>2026-05-02T08:14:03.868Z</time></trkpt><trkpt lat="44.3769583" lon="11.4677067"><ele>190.0</ele><time>2026-05-02T08:14:04.869Z</time></trkpt><trkpt lat="44.376875" lon="11.467685"><ele>190.0</ele><time>2026-05-02T08:14:05.868Z</time></trkpt><trkpt lat="44.3767933" lon="11.4676717"><ele>190.0</ele><time>2026-05-02T08:14:06.868Z</time></trkpt><trkpt lat="44.3767083" lon="11.4676867"><ele>190.0</ele><time>2026-05-02T08:14:07.868Z</time></trkpt><trkpt lat="44.3766333" lon="11.467725"><ele>190.0</ele><time>2026-05-02T08:14:08.868Z</time></trkpt><trkpt lat="44.376565" lon="11.467755"><ele>190.0</ele><time>2026-05-02T08:14:09.868Z</time></trkpt><trkpt lat="44.3765017" lon="11.4677617"><ele>190.0</ele><time>2026-05-02T08:14:10.869Z</time></trkpt><trkpt lat="44.37644" lon="11.4677367"><ele>190.0</ele><time>2026-05-02T08:14:11.869Z</time></trkpt><trkpt lat="44.3763567" lon="11.4676217"><ele>190.0</ele><time>2026-05-02T08:14:13.868Z</time></trkpt><trkpt lat="44.3763283" lon="11.4675417"><ele>190.0</ele><time>2026-05-02T08:14:14.868Z</time></trkpt><trkpt lat="44.376325" lon="11.4674467"><ele>190.0</ele><time>2026-05-02T08:14:15.868Z</time></trkpt><trkpt lat="44.37632" lon="11.46734"><ele>190.33333333333334</ele><time>2026-05-02T08:14:16.868Z</time></trkpt><trkpt lat="44.3763283" lon="11.4672217"><ele>190.66666666666669</ele><time>2026-05-02T08:14:17.868Z</time></trkpt><trkpt lat="44.37635" lon="11.4670917"><ele>191.0</ele><time>2026-05-02T08:14:18.868Z</time></trkpt><trkpt lat="44.3763783" lon="11.4669717"><ele>191.33333333333334</ele><time>2026-05-02T08:14:19.868Z</time></trkpt><trkpt lat="44.3764033" lon="11.466855"><ele>191.66666666666666</ele><time>2026-05-02T08:14:20.869Z</time></trkpt><trkpt lat="44.3764167" lon="11.4667483"><ele>192.0</ele><time>2026-05-02T08:14:21.869Z</time></trkpt><trkpt lat="44.3764267" lon="11.4666367"><ele>191.99999999999997</ele><time>2026-05-02T08:14:22.869Z</time></trkpt><trkpt lat="44.3764133" lon="11.4665233"><ele>192.0</ele><time>2026-05-02T08:14:23.868Z</time></trkpt><trkpt lat="44.37639" lon="11.466425"><ele>192.0</ele><time>2026-05-02T08:14:24.868Z</time></trkpt><trkpt lat="44.3763517" lon="11.4663383"><ele>192.0</ele><time>2026-05-02T08:14:25.869Z</time></trkpt><trkpt lat="44.3763017" lon="11.4662767"><ele>192.0</ele><time>2026-05-02T08:14:26.868Z</time></trkpt><trkpt lat="44.376235" lon="11.46625"><ele>191.99999999999997</ele><time>2026-05-02T08:14:27.869Z</time></trkpt><trkpt lat="44.3761583" lon="11.4662483"><ele>192.0</ele><time>2026-05-02T08:14:28.868Z</time></trkpt><trkpt lat="44.376075" lon="11.4662717"><ele>192.0</ele><time>2026-05-02T08:14:29.869Z</time></trkpt><trkpt lat="44.375995" lon="11.4663183"><ele>192.0</ele><time>2026-05-02T08:14:30.868Z</time></trkpt><trkpt lat="44.3759183" lon="11.466375"><ele>192.0</ele><time>2026-05-02T08:14:31.869Z</time></trkpt><trkpt lat="44.3758383" lon="11.4664467"><ele>192.0</ele><time>2026-05-02T08:14:32.868Z</time></trkpt><trkpt lat="44.375755" lon="11.46652"><ele>192.0</ele><time>2026-05-02T08:14:33.868Z</time></trkpt><trkpt lat="44.37567" lon="11.4665883"><ele>192.0</ele><time>2026-05-02T08:14:34.868Z</time></trkpt><trkpt lat="44.3755917" lon="11.4666433"><ele>192.0</ele><time>2026-05-02T08:14:35.868Z</time></trkpt><trkpt lat="44.375515" lon="11.4666883"><ele>192.0</ele><time>2026-05-02T08:14:36.868Z</time></trkpt><trkpt lat="44.3754333" lon="11.46671"><ele>192.0</ele><time>2026-05-02T08:14:37.868Z</time></trkpt><trkpt lat="44.3753417" lon="11.46672"><ele>192.0</ele><time>2026-05-02T08:14:38.868Z</time></trkpt><trkpt lat="44.3752567" lon="11.4667133"><ele>192.0</ele><time>2026-05-02T08:14:39.868Z</time></trkpt><trkpt lat="44.3751717" lon="11.4666833"><ele>192.83333333333334</ele><time>2026-05-02T08:14:40.868Z</time></trkpt><trkpt lat="44.375105" lon="11.466635"><ele>193.66666666666669</ele><time>2026-05-02T08:14:41.868Z</time></trkpt><trkpt lat="44.3750417" lon="11.4665667"><ele>194.5</ele><time>2026-05-02T08:14:42.868Z</time></trkpt><trkpt lat="44.3749883" lon="11.46648"><ele>195.33333333333334</ele><time>2026-05-02T08:14:43.868Z</time></trkpt><trkpt lat="44.3749333" lon="11.4663817"><ele>196.16666666666669</ele><time>2026-05-02T08:14:44.868Z</time></trkpt><trkpt lat="44.3748733" lon="11.466275"><ele>197.0</ele><time>2026-05-02T08:14:45.868Z</time></trkpt><trkpt lat="44.37482" lon="11.4661667"><ele>197.33333333333334</ele><time>2026-05-02T08:14:46.868Z</time></trkpt><trkpt lat="44.3747667" lon="11.4660533"><ele>197.66666666666669</ele><time>2026-05-02T08:14:47.869Z</time></trkpt><trkpt lat="44.3747233" lon="11.465945"><ele>198.0</ele><time>2026-05-02T08:14:48.868Z</time></trkpt><trkpt lat="44.3746967" lon="11.4658367"><ele>198.33333333333331</ele><time>2026-05-02T08:14:49.868Z</time></trkpt><trkpt lat="44.37467" lon="11.46575"><ele>198.66666666666666</ele><time>2026-05-02T08:14:50.868Z</time></trkpt><trkpt lat="44.374645" lon="11.46566"><ele>199.0</ele><time>2026-05-02T08:14:51.868Z</time></trkpt><trkpt lat="44.3745817" lon="11.4655333"><ele>199.6</ele><time>2026-05-02T08:14:53.868Z</time></trkpt><trkpt lat="44.3745117" lon="11.4654567"><ele>200.2</ele><time>2026-05-02T08:14:55.868Z</time></trkpt><trkpt lat="44.3744233" lon="11.46539"><ele>200.79999999999998</ele><time>2026-05-02T08:14:57.868Z</time></trkpt><trkpt lat="44.3743267" lon="11.46531"><ele>201.39999999999998</ele><time>2026-05-02T08:14:59.868Z</time></trkpt><trkpt lat="44.3742017" lon="11.4652633"><ele>202.0</ele><time>2026-05-02T08:15:01.868Z</time></trkpt><trkpt lat="44.3741033" lon="11.4652867"><ele>201.99999999999997</ele><time>2026-05-02T08:15:03.868Z</time></trkpt><trkpt lat="44.3739967" lon="11.4653767"><ele>202.0</ele><time>2026-05-02T08:15:05.868Z</time></trkpt><trkpt lat="44.373935" lon="11.4654317"><ele>202.0</ele><time>2026-05-02T08:15:06.868Z</time></trkpt><trkpt lat="44.3738717" lon="11.4654867"><ele>202.0</ele><time>2026-05-02T08:15:07.869Z</time></trkpt><trkpt lat="44.373805" lon="11.4655467"><ele>201.99999999999997</ele><time>2026-05-02T08:15:08.869Z</time></trkpt><trkpt lat="44.3737367" lon="11.4655967"><ele>202.0</ele><time>2026-05-02T08:15:09.869Z</time></trkpt><trkpt lat="44.37366" lon="11.465655"><ele>202.66666666666666</ele><time>2026-05-02T08:15:10.868Z</time></trkpt><trkpt lat="44.373585" lon="11.4657067"><ele>203.33333333333331</ele><time>2026-05-02T08:15:11.869Z</time></trkpt><trkpt lat="44.3735217" lon="11.4657683"><ele>204.0</ele><time>2026-05-02T08:15:12.868Z</time></trkpt><trkpt lat="44.3734567" lon="11.4658233"><ele>204.66666666666669</ele><time>2026-05-02T08:15:13.868Z</time></trkpt><trkpt lat="44.3733867" lon="11.465875"><ele>205.33333333333334</ele><time>2026-05-02T08:15:14.869Z</time></trkpt><trkpt lat="44.3733017" lon="11.4659267"><ele>206.0</ele><time>2026-05-02T08:15:15.869Z</time></trkpt><trkpt lat="44.3732283" lon="11.4659583"><ele>206.0</ele><time>2026-05-02T08:15:16.869Z</time></trkpt><trkpt lat="44.373155" lon="11.4659867"><ele>206.0</ele><time>2026-05-02T08:15:17.869Z</time></trkpt><trkpt lat="44.3730417" lon="11.465985"><ele>206.0</ele><time>2026-05-02T08:15:19.868Z</time></trkpt><trkpt lat="44.3729267" lon="11.4658967"><ele>206.0</ele><time>2026-05-02T08:15:21.868Z</time></trkpt><trkpt lat="44.3728733" lon="11.4658033"><ele>206.0</ele><time>2026-05-02T08:15:22.868Z</time></trkpt><trkpt lat="44.372815" lon="11.46571"><ele>206.8</ele><time>2026-05-02T08:15:23.868Z</time></trkpt><trkpt lat="44.3727467" lon="11.465615"><ele>207.60000000000002</ele><time>2026-05-02T08:15:24.869Z</time></trkpt><trkpt lat="44.3726667" lon="11.465505"><ele>208.4</ele><time>2026-05-02T08:15:25.868Z</time></trkpt><trkpt lat="44.3725867" lon="11.4653917"><ele>209.2</ele><time>2026-05-02T08:15:26.868Z</time></trkpt><trkpt lat="44.3724933" lon="11.4652733"><ele>210.0</ele><time>2026-05-02T08:15:27.868Z</time></trkpt><trkpt lat="44.3724083" lon="11.465165"><ele>210.0</ele><time>2026-05-02T08:15:28.868Z</time></trkpt><trkpt lat="44.372335" lon="11.4650683"><ele>210.0</ele><time>2026-05-02T08:15:29.868Z</time></trkpt><trkpt lat="44.3722683" lon="11.4649717"><ele>210.0</ele><time>2026-05-02T08:15:30.868Z</time></trkpt><trkpt lat="44.3721867" lon="11.46489"><ele>210.0</ele><time>2026-05-02T08:15:31.868Z</time></trkpt><trkpt lat="44.372105" lon="11.4648283"><ele>210.0</ele><time>2026-05-02T08:15:32.868Z</time></trkpt><trkpt lat="44.37203" lon="11.4647867"><ele>210.2</ele><time>2026-05-02T08:15:33.868Z</time></trkpt><trkpt lat="44.371945" lon="11.46477"><ele>210.4</ele><time>2026-05-02T08:15:34.869Z</time></trkpt><trkpt lat="44.3718517" lon="11.46477"><ele>210.60000000000002</ele><time>2026-05-02T08:15:35.868Z</time></trkpt><trkpt lat="44.371755" lon="11.4647917"><ele>210.8</ele><time>2026-05-02T08:15:36.868Z</time></trkpt><trkpt lat="44.3716617" lon="11.4648283"><ele>211.0</ele><time>2026-05-02T08:15:37.868Z</time></trkpt><trkpt lat="44.3715583" lon="11.4648767"><ele>211.0</ele><time>2026-05-02T08:15:38.869Z</time></trkpt><trkpt lat="44.37146" lon="11.4649183"><ele>211.0</ele><time>2026-05-02T08:15:39.869Z</time></trkpt><trkpt lat="44.3713533" lon="11.4649633"><ele>211.0</ele><time>2026-05-02T08:15:40.868Z</time></trkpt><trkpt lat="44.371255" lon="11.4649967"><ele>211.0</ele><time>2026-05-02T08:15:41.868Z</time></trkpt><trkpt lat="44.3711667" lon="11.4650033"><ele>211.0</ele><time>2026-05-02T08:15:42.869Z</time></trkpt><trkpt lat="44.3710883" lon="11.4649933"><ele>212.0</ele><time>2026-05-02T08:15:43.868Z</time></trkpt><trkpt lat="44.3710067" lon="11.464945"><ele>213.0</ele><time>2026-05-02T08:15:44.869Z</time></trkpt><trkpt lat="44.370925" lon="11.4648633"><ele>214.00000000000003</ele><time>2026-05-02T08:15:45.868Z</time></trkpt><trkpt lat="44.3708417" lon="11.4647833"><ele>215.0</ele><time>2026-05-02T08:15:46.868Z</time></trkpt><trkpt lat="44.3707683" lon="11.4646883"><ele>216.0</ele><time>2026-05-02T08:15:47.868Z</time></trkpt><trkpt lat="44.3706983" lon="11.4645833"><ele>216.25</ele><time>2026-05-02T08:15:48.868Z</time></trkpt><trkpt lat="44.370635" lon="11.4644533"><ele>216.5</ele><time>2026-05-02T08:15:49.869Z</time></trkpt><trkpt lat="44.3705733" lon="11.46431"><ele>216.75</ele><time>2026-05-02T08:15:50.868Z</time></trkpt><trkpt lat="44.3705167" lon="11.4641667"><ele>217.0</ele><time>2026-05-02T08:15:51.868Z</time></trkpt><trkpt lat="44.3704533" lon="11.4640283"><ele>217.0</ele><time>2026-05-02T08:15:52.868Z</time></trkpt><trkpt lat="44.370395" lon="11.46391"><ele>217.0</ele><time>2026-05-02T08:15:53.869Z</time></trkpt><trkpt lat="44.3703333" lon="11.4638133"><ele>217.0</ele><time>2026-05-02T08:15:54.868Z</time></trkpt><trkpt lat="44.3702583" lon="11.463735"><ele>217.0</ele><time>2026-05-02T08:15:55.868Z</time></trkpt><trkpt lat="44.3701767" lon="11.46368"><ele>217.0</ele><time>2026-05-02T08:15:56.868Z</time></trkpt><trkpt lat="44.3700867" lon="11.46364"><ele>217.16666666666666</ele><time>2026-05-02T08:15:57.869Z</time></trkpt><trkpt lat="44.370005" lon="11.4636283"><ele>217.33333333333331</ele><time>2026-05-02T08:15:58.868Z</time></trkpt><trkpt lat="44.3699333" lon="11.4636367"><ele>217.5</ele><time>2026-05-02T08:15:59.868Z</time></trkpt><trkpt lat="44.369855" lon="11.463675"><ele>217.66666666666669</ele><time>2026-05-02T08:16:00.868Z</time></trkpt><trkpt lat="44.369775" lon="11.4637383"><ele>217.83333333333334</ele><time>2026-05-02T08:16:01.868Z</time></trkpt><trkpt lat="44.369685" lon="11.4637867"><ele>218.0</ele><time>2026-05-02T08:16:02.868Z</time></trkpt><trkpt lat="44.3696033" lon="11.4638083"><ele>218.66666666666669</ele><time>2026-05-02T08:16:03.869Z</time></trkpt><trkpt lat="44.3695333" lon="11.4638067"><ele>219.33333333333334</ele><time>2026-05-02T08:16:04.869Z</time></trkpt><trkpt lat="44.36946" lon="11.4637767"><ele>220.0</ele><time>2026-05-02T08:16:05.869Z</time></trkpt><trkpt lat="44.3693917" lon="11.4637317"><ele>220.66666666666669</ele><time>2026-05-02T08:16:06.868Z</time></trkpt><trkpt lat="44.369325" lon="11.4636667"><ele>221.33333333333334</ele><time>2026-05-02T08:16:07.869Z</time></trkpt><trkpt lat="44.3692583" lon="11.4635933"><ele>222.0</ele><time>2026-05-02T08:16:08.868Z</time></trkpt><trkpt lat="44.3691933" lon="11.4635133"><ele>222.16666666666666</ele><time>2026-05-02T08:16:09.868Z</time></trkpt><trkpt lat="44.3691233" lon="11.4634283"><ele>222.33333333333331</ele><time>2026-05-02T08:16:10.868Z</time></trkpt><trkpt lat="44.3690583" lon="11.4633517"><ele>222.5</ele><time>2026-05-02T08:16:11.868Z</time></trkpt><trkpt lat="44.3689817" lon="11.4632933"><ele>222.66666666666666</ele><time>2026-05-02T08:16:12.869Z</time></trkpt><trkpt lat="44.368905" lon="11.463255"><ele>222.83333333333331</ele><time>2026-05-02T08:16:13.868Z</time></trkpt><trkpt lat="44.368815" lon="11.4632233"><ele>223.0</ele><time>2026-05-02T08:16:14.868Z</time></trkpt><trkpt lat="44.368715" lon="11.463185"><ele>223.16666666666666</ele><time>2026-05-02T08:16:15.868Z</time></trkpt><trkpt lat="44.3686133" lon="11.46315"><ele>223.33333333333331</ele><time>2026-05-02T08:16:16.868Z</time></trkpt><trkpt lat="44.36852" lon="11.4631217"><ele>223.5</ele><time>2026-05-02T08:16:17.868Z</time></trkpt><trkpt lat="44.368435" lon="11.4630933"><ele>223.66666666666669</ele><time>2026-05-02T08:16:18.868Z</time></trkpt><trkpt lat="44.36836" lon="11.4630617"><ele>223.83333333333334</ele><time>2026-05-02T08:16:19.869Z</time></trkpt><trkpt lat="44.3682817" lon="11.4630233"><ele>224.0</ele><time>2026-05-02T08:16:20.868Z</time></trkpt><trkpt lat="44.3682017" lon="11.4629867"><ele>224.6</ele><time>2026-05-02T08:16:21.868Z</time></trkpt><trkpt lat="44.3681183" lon="11.462925"><ele>225.2</ele><time>2026-05-02T08:16:22.868Z</time></trkpt><trkpt lat="44.3680317" lon="11.462845"><ele>225.79999999999998</ele><time>2026-05-02T08:16:23.868Z</time></trkpt><trkpt lat="44.3679417" lon="11.4627517"><ele>226.39999999999998</ele><time>2026-05-02T08:16:24.868Z</time></trkpt><trkpt lat="44.36785" lon="11.4626517"><ele>227.0</ele><time>2026-05-02T08:16:25.868Z</time></trkpt><trkpt lat="44.3677667" lon="11.4625533"><ele>227.0</ele><time>2026-05-02T08:16:26.868Z</time></trkpt><trkpt lat="44.3676883" lon="11.46245"><ele>227.0</ele><time>2026-05-02T08:16:27.869Z</time></trkpt><trkpt lat="44.36762" lon="11.46234"><ele>227.0</ele><time>2026-05-02T08:16:28.869Z</time></trkpt><trkpt lat="44.3675567" lon="11.4622333"><ele>227.0</ele><time>2026-05-02T08:16:29.868Z</time></trkpt><trkpt lat="44.3674933" lon="11.4621333"><ele>227.0</ele><time>2026-05-02T08:16:30.868Z</time></trkpt><trkpt lat="44.3674317" lon="11.462045"><ele>227.6</ele><time>2026-05-02T08:16:31.868Z</time></trkpt><trkpt lat="44.3673617" lon="11.4619733"><ele>228.2</ele><time>2026-05-02T08:16:32.868Z</time></trkpt><trkpt lat="44.3672817" lon="11.4619017"><ele>228.8</ele><time>2026-05-02T08:16:33.868Z</time></trkpt><trkpt lat="44.3671933" lon="11.4618483"><ele>229.4</ele><time>2026-05-02T08:16:34.868Z</time></trkpt><trkpt lat="44.3670983" lon="11.4618033"><ele>230.0</ele><time>2026-05-02T08:16:35.868Z</time></trkpt><trkpt lat="44.366995" lon="11.46176"><ele>230.2</ele><time>2026-05-02T08:16:36.868Z</time></trkpt><trkpt lat="44.3668933" lon="11.4617233"><ele>230.4</ele><time>2026-05-02T08:16:37.868Z</time></trkpt><trkpt lat="44.3667933" lon="11.46169"><ele>230.60000000000002</ele><time>2026-05-02T08:16:38.869Z</time></trkpt><trkpt lat="44.3666967" lon="11.461665"><ele>230.8</ele><time>2026-05-02T08:16:39.868Z</time></trkpt><trkpt lat="44.3666" lon="11.4616417"><ele>231.0</ele><time>2026-05-02T08:16:40.868Z</time></trkpt><trkpt lat="44.366505" lon="11.4616067"><ele>231.0</ele><time>2026-05-02T08:16:41.868Z</time></trkpt><trkpt lat="44.366415" lon="11.4615633"><ele>231.00000000000003</ele><time>2026-05-02T08:16:42.868Z</time></trkpt><trkpt lat="44.3663133" lon="11.461535"><ele>231.00000000000003</ele><time>2026-05-02T08:16:43.869Z</time></trkpt><trkpt lat="44.366225" lon="11.4615"><ele>231.0</ele><time>2026-05-02T08:16:44.868Z</time></trkpt><trkpt lat="44.3661283" lon="11.4614633"><ele>231.0</ele><time>2026-05-02T08:16:45.869Z</time></trkpt><trkpt lat="44.3660267" lon="11.4614217"><ele>231.20000000000002</ele><time>2026-05-02T08:16:46.869Z</time></trkpt><trkpt lat="44.3659283" lon="11.4613933"><ele>231.40000000000003</ele><time>2026-05-02T08:16:47.868Z</time></trkpt><trkpt lat="44.3658267" lon="11.4613517"><ele>231.6</ele><time>2026-05-02T08:16:48.869Z</time></trkpt><trkpt lat="44.3657217" lon="11.4613033"><ele>231.8</ele><time>2026-05-02T08:16:49.868Z</time></trkpt><trkpt lat="44.3656083" lon="11.4612583"><ele>232.0</ele><time>2026-05-02T08:16:50.868Z</time></trkpt><trkpt lat="44.3654983" lon="11.461215"><ele>232.39999999999998</ele><time>2026-05-02T08:16:51.869Z</time></trkpt><trkpt lat="44.3653883" lon="11.4611617"><ele>232.79999999999998</ele><time>2026-05-02T08:16:52.868Z</time></trkpt><trkpt lat="44.365285" lon="11.4611083"><ele>233.2</ele><time>2026-05-02T08:16:53.868Z</time></trkpt><trkpt lat="44.3651867" lon="11.461045"><ele>233.6</ele><time>2026-05-02T08:16:54.868Z</time></trkpt><trkpt lat="44.365095" lon="11.46098"><ele>234.0</ele><time>2026-05-02T08:16:55.868Z</time></trkpt><trkpt lat="44.364995" lon="11.4609217"><ele>234.0</ele><time>2026-05-02T08:16:56.868Z</time></trkpt><trkpt lat="44.3648967" lon="11.4608683"><ele>233.99999999999997</ele><time>2026-05-02T08:16:57.868Z</time></trkpt><trkpt lat="44.364805" lon="11.460815"><ele>233.99999999999997</ele><time>2026-05-02T08:16:58.868Z</time></trkpt><trkpt lat="44.3647117" lon="11.4607717"><ele>234.0</ele><time>2026-05-02T08:16:59.868Z</time></trkpt><trkpt lat="44.364625" lon="11.460735"><ele>234.0</ele><time>2026-05-02T08:17:00.868Z</time></trkpt><trkpt lat="44.36454" lon="11.460705"><ele>234.5</ele><time>2026-05-02T08:17:01.869Z</time></trkpt><trkpt lat="44.364455" lon="11.4606867"><ele>235.0</ele><time>2026-05-02T08:17:02.868Z</time></trkpt><trkpt lat="44.3643717" lon="11.4606883"><ele>235.5</ele><time>2026-05-02T08:17:03.869Z</time></trkpt><trkpt lat="44.3642933" lon="11.46071"><ele>236.0</ele><time>2026-05-02T08:17:04.868Z</time></trkpt><trkpt lat="44.3642133" lon="11.4607317"><ele>236.5</ele><time>2026-05-02T08:17:05.869Z</time></trkpt><trkpt lat="44.3641433" lon="11.4607467"><ele>237.0</ele><time>2026-05-02T08:17:06.868Z</time></trkpt><trkpt lat="44.3640633" lon="11.4607683"><ele>237.0</ele><time>2026-05-02T08:17:07.868Z</time></trkpt><trkpt lat="44.3639833" lon="11.460795"><ele>237.0</ele><time>2026-05-02T08:17:08.869Z</time></trkpt><trkpt lat="44.3639067" lon="11.460825"><ele>237.0</ele><time>2026-05-02T08:17:09.868Z</time></trkpt><trkpt lat="44.3638233" lon="11.4608617"><ele>237.0</ele><time>2026-05-02T08:17:10.869Z</time></trkpt><trkpt lat="44.363745" lon="11.4608883"><ele>237.0</ele><time>2026-05-02T08:17:11.868Z</time></trkpt><trkpt lat="44.3636667" lon="11.4609117"><ele>237.0</ele><time>2026-05-02T08:17:12.868Z</time></trkpt><trkpt lat="44.36359" lon="11.460935"><ele>237.0</ele><time>2026-05-02T08:17:13.868Z</time></trkpt><trkpt lat="44.3635083" lon="11.460965"><ele>237.0</ele><time>2026-05-02T08:17:14.868Z</time></trkpt><trkpt lat="44.36343" lon="11.4609917"><ele>237.0</ele><time>2026-05-02T08:17:15.869Z</time></trkpt><trkpt lat="44.363355" lon="11.461015"><ele>237.0</ele><time>2026-05-02T08:17:16.868Z</time></trkpt><trkpt lat="44.3632733" lon="11.4610417"><ele>237.0</ele><time>2026-05-02T08:17:17.869Z</time></trkpt><trkpt lat="44.3631967" lon="11.4610667"><ele>237.0</ele><time>2026-05-02T08:17:18.869Z</time></trkpt><trkpt lat="44.3631283" lon="11.461095"><ele>236.99999999999997</ele><time>2026-05-02T08:17:19.868Z</time></trkpt><trkpt lat="44.3630367" lon="11.4611267"><ele>237.0</ele><time>2026-05-02T08:17:21.868Z</time></trkpt><trkpt lat="44.3629617" lon="11.4611483"><ele>236.99999999999997</ele><time>2026-05-02T08:17:50.868Z</time></trkpt><trkpt lat="44.3629017" lon="11.461175"><ele>236.99999999999997</ele><time>2026-05-02T08:17:51.868Z</time></trkpt><trkpt lat="44.3628333" lon="11.461205"><ele>237.0</ele><time>2026-05-02T08:17:52.868Z</time></trkpt><trkpt lat="44.3627683" lon="11.4612383"><ele>236.99999999999997</ele><time>2026-05-02T08:17:53.869Z</time></trkpt><trkpt lat="44.3627067" lon="11.46126"><ele>236.99999999999997</ele><time>2026-05-02T08:17:54.869Z</time></trkpt><trkpt lat="44.36264" lon="11.4612833"><ele>238.8</ele><time>2026-05-02T08:17:55.868Z</time></trkpt><trkpt lat="44.3625733" lon="11.46131"><ele>240.6</ele><time>2026-05-02T08:17:56.868Z</time></trkpt><trkpt lat="44.3625033" lon="11.4613333"><ele>242.40000000000003</ele><time>2026-05-02T08:17:57.869Z</time></trkpt><trkpt lat="44.3623833" lon="11.46138"><ele>244.20000000000002</ele><time>2026-05-02T08:17:59.868Z</time></trkpt><trkpt lat="44.36228" lon="11.46146"><ele>246.0</ele><time>2026-05-02T08:18:01.868Z</time></trkpt><trkpt lat="44.362185" lon="11.4615583"><ele>246.5</ele><time>2026-05-02T08:18:03.868Z</time></trkpt><trkpt lat="44.3620833" lon="11.4616783"><ele>247.0</ele><time>2026-05-02T08:18:05.868Z</time></trkpt><trkpt lat="44.3620217" lon="11.4617483"><ele>247.5</ele><time>2026-05-02T08:18:06.868Z</time></trkpt><trkpt lat="44.361965" lon="11.4618183"><ele>248.0</ele><time>2026-05-02T08:18:07.869Z</time></trkpt><trkpt lat="44.3618983" lon="11.461885"><ele>248.5</ele><time>2026-05-02T08:18:08.868Z</time></trkpt><trkpt lat="44.36184" lon="11.4619467"><ele>249.0</ele><time>2026-05-02T08:18:09.869Z</time></trkpt><trkpt lat="44.36178" lon="11.4620067"><ele>249.0</ele><time>2026-05-02T08:18:10.868Z</time></trkpt><trkpt lat="44.36172" lon="11.46207"><ele>249.0</ele><time>2026-05-02T08:18:11.868Z</time></trkpt><trkpt lat="44.3616633" lon="11.4621183"><ele>249.0</ele><time>2026-05-02T08:18:12.868Z</time></trkpt><trkpt lat="44.361595" lon="11.4621817"><ele>249.0</ele><time>2026-05-02T08:18:13.869Z</time></trkpt><trkpt lat="44.361525" lon="11.4622333"><ele>249.0</ele><time>2026-05-02T08:18:14.868Z</time></trkpt><trkpt lat="44.361445" lon="11.46228"><ele>249.0</ele><time>2026-05-02T08:18:15.868Z</time></trkpt><trkpt lat="44.3613633" lon="11.4623267"><ele>249.5</ele><time>2026-05-02T08:18:16.868Z</time></trkpt><trkpt lat="44.36128" lon="11.4623733"><ele>250.0</ele><time>2026-05-02T08:18:17.868Z</time></trkpt><trkpt lat="44.3611933" lon="11.462415"><ele>250.5</ele><time>2026-05-02T08:18:18.869Z</time></trkpt><trkpt lat="44.36111" lon="11.46245"><ele>251.0</ele><time>2026-05-02T08:18:19.868Z</time></trkpt><trkpt lat="44.3610317" lon="11.4624833"><ele>251.5</ele><time>2026-05-02T08:18:20.868Z</time></trkpt><trkpt lat="44.3609567" lon="11.4625217"><ele>252.0</ele><time>2026-05-02T08:18:21.869Z</time></trkpt><trkpt lat="44.36088" lon="11.4625717"><ele>252.0</ele><time>2026-05-02T08:18:22.869Z</time></trkpt><trkpt lat="44.3608033" lon="11.4626283"><ele>252.0</ele><time>2026-05-02T08:18:23.868Z</time></trkpt><trkpt lat="44.36073" lon="11.4626833"><ele>252.0</ele><time>2026-05-02T08:18:24.868Z</time></trkpt><trkpt lat="44.3606583" lon="11.4627433"><ele>252.0</ele><time>2026-05-02T08:18:25.869Z</time></trkpt><trkpt lat="44.3605817" lon="11.4628133"><ele>252.0</ele><time>2026-05-02T08:18:26.869Z</time></trkpt><trkpt lat="44.360505" lon="11.4628767"><ele>252.0</ele><time>2026-05-02T08:18:27.868Z</time></trkpt><trkpt lat="44.3604267" lon="11.462935"><ele>253.2</ele><time>2026-05-02T08:18:28.868Z</time></trkpt><trkpt lat="44.3603467" lon="11.4629883"><ele>254.39999999999998</ele><time>2026-05-02T08:18:29.868Z</time></trkpt><trkpt lat="44.36026" lon="11.4630383"><ele>255.60000000000002</ele><time>2026-05-02T08:18:30.868Z</time></trkpt><trkpt lat="44.360175" lon="11.4630783"><ele>256.8</ele><time>2026-05-02T08:18:31.869Z</time></trkpt><trkpt lat="44.3600883" lon="11.4631033"><ele>258.0</ele><time>2026-05-02T08:18:32.868Z</time></trkpt><trkpt lat="44.359995" lon="11.4631217"><ele>258.0</ele><time>2026-05-02T08:18:33.868Z</time></trkpt><trkpt lat="44.3599083" lon="11.4631367"><ele>258.0</ele><time>2026-05-02T08:18:34.869Z</time></trkpt><trkpt lat="44.3598283" lon="11.4631433"><ele>258.0</ele><time>2026-05-02T08:18:35.868Z</time></trkpt><trkpt lat="44.359755" lon="11.4631533"><ele>258.0</ele><time>2026-05-02T08:18:36.868Z</time></trkpt><trkpt lat="44.3596867" lon="11.4631717"><ele>258.0</ele><time>2026-05-02T08:18:37.868Z</time></trkpt><trkpt lat="44.359615" lon="11.4631967"><ele>258.0</ele><time>2026-05-02T08:18:38.868Z</time></trkpt><trkpt lat="44.35955" lon="11.463255"><ele>258.3333333333333</ele><time>2026-05-02T08:18:39.868Z</time></trkpt><trkpt lat="44.359495" lon="11.4633133"><ele>258.6666666666667</ele><time>2026-05-02T08:18:40.868Z</time></trkpt><trkpt lat="44.359435" lon="11.4633817"><ele>259.0</ele><time>2026-05-02T08:18:41.868Z</time></trkpt><trkpt lat="44.3593783" lon="11.4634567"><ele>259.33333333333337</ele><time>2026-05-02T08:18:42.869Z</time></trkpt><trkpt lat="44.3593283" lon="11.4635267"><ele>259.6666666666667</ele><time>2026-05-02T08:18:43.868Z</time></trkpt><trkpt lat="44.3592733" lon="11.4636067"><ele>260.0</ele><time>2026-05-02T08:18:44.869Z</time></trkpt><trkpt lat="44.3592267" lon="11.46369"><ele>260.0</ele><time>2026-05-02T08:18:45.868Z</time></trkpt><trkpt lat="44.3591717" lon="11.4637783"><ele>260.0</ele><time>2026-05-02T08:18:46.869Z</time></trkpt><trkpt lat="44.3591217" lon="11.4638617"><ele>260.0</ele><time>2026-05-02T08:18:47.868Z</time></trkpt><trkpt lat="44.3590683" lon="11.4639433"><ele>260.0</ele><time>2026-05-02T08:18:48.868Z</time></trkpt><trkpt lat="44.3590133" lon="11.4640167"><ele>260.0</ele><time>2026-05-02T08:18:49.868Z</time></trkpt><trkpt lat="44.3589617" lon="11.4640833"><ele>260.0</ele><time>2026-05-02T08:18:50.869Z</time></trkpt><trkpt lat="44.358915" lon="11.4641483"><ele>260.5</ele><time>2026-05-02T08:18:51.868Z</time></trkpt><trkpt lat="44.3588667" lon="11.4642233"><ele>261.0</ele><time>2026-05-02T08:18:52.869Z</time></trkpt><trkpt lat="44.35884" lon="11.4643067"><ele>261.5</ele><time>2026-05-02T08:18:53.869Z</time></trkpt><trkpt lat="44.3587983" lon="11.4644767"><ele>262.0</ele><time>2026-05-02T08:18:55.868Z</time></trkpt><trkpt lat="44.3587833" lon="11.4645667"><ele>262.5</ele><time>2026-05-02T08:18:56.868Z</time></trkpt><trkpt lat="44.3587683" lon="11.4646533"><ele>263.0</ele><time>2026-05-02T08:18:57.868Z</time></trkpt><trkpt lat="44.3587567" lon="11.4647433"><ele>264.1666666666667</ele><time>2026-05-02T08:18:58.868Z</time></trkpt><trkpt lat="44.3587433" lon="11.4648417"><ele>265.33333333333337</ele><time>2026-05-02T08:18:59.869Z</time></trkpt><trkpt lat="44.3587267" lon="11.4649483"><ele>266.5</ele><time>2026-05-02T08:19:00.869Z</time></trkpt><trkpt lat="44.3587017" lon="11.4650517"><ele>267.6666666666667</ele><time>2026-05-02T08:19:01.868Z</time></trkpt><trkpt lat="44.3586633" lon="11.465155"><ele>268.8333333333333</ele><time>2026-05-02T08:19:02.869Z</time></trkpt><trkpt lat="44.3586233" lon="11.46525"><ele>270.0</ele><time>2026-05-02T08:19:03.868Z</time></trkpt><trkpt lat="44.3585767" lon="11.46534"><ele>270.0</ele><time>2026-05-02T08:19:04.869Z</time></trkpt><trkpt lat="44.3585367" lon="11.465415"><ele>270.0</ele><time>2026-05-02T08:19:05.868Z</time></trkpt><trkpt lat="44.35849" lon="11.4655733"><ele>270.0</ele><time>2026-05-02T08:19:07.868Z</time></trkpt><trkpt lat="44.3584767" lon="11.46567"><ele>270.0</ele><time>2026-05-02T08:19:08.868Z</time></trkpt><trkpt lat="44.35847" lon="11.4657683"><ele>270.0</ele><time>2026-05-02T08:19:09.868Z</time></trkpt><trkpt lat="44.3584717" lon="11.4658683"><ele>270.0</ele><time>2026-05-02T08:19:10.869Z</time></trkpt><trkpt lat="44.358475" lon="11.46596"><ele>271.8333333333333</ele><time>2026-05-02T08:19:11.868Z</time></trkpt><trkpt lat="44.3584683" lon="11.4661333"><ele>273.6666666666667</ele><time>2026-05-02T08:19:13.869Z</time></trkpt><trkpt lat="44.3584533" lon="11.4662317"><ele>275.5</ele><time>2026-05-02T08:19:14.868Z</time></trkpt><trkpt lat="44.3584367" lon="11.4663183"><ele>277.33333333333337</ele><time>2026-05-02T08:19:15.869Z</time></trkpt><trkpt lat="44.3584133" lon="11.466405"><ele>279.1666666666667</ele><time>2026-05-02T08:19:16.869Z</time></trkpt><trkpt lat="44.3583767" lon="11.466495"><ele>281.0</ele><time>2026-05-02T08:19:17.868Z</time></trkpt><trkpt lat="44.3583533" lon="11.4666"><ele>282.1666666666667</ele><time>2026-05-02T08:19:18.868Z</time></trkpt><trkpt lat="44.358325" lon="11.46671"><ele>283.33333333333337</ele><time>2026-05-02T08:19:19.868Z</time></trkpt><trkpt lat="44.35831" lon="11.4668133"><ele>284.5</ele><time>2026-05-02T08:19:20.869Z</time></trkpt><trkpt lat="44.358295" lon="11.46691"><ele>285.6666666666667</ele><time>2026-05-02T08:19:21.868Z</time></trkpt><trkpt lat="44.3583217" lon="11.46705"><ele>286.8333333333333</ele><time>2026-05-02T08:19:23.868Z</time></trkpt><trkpt lat="44.35833" lon="11.4671883"><ele>288.0</ele><time>2026-05-02T08:19:25.868Z</time></trkpt><trkpt lat="44.3583333" lon="11.4673133"><ele>288.6666666666667</ele><time>2026-05-02T08:19:27.868Z</time></trkpt><trkpt lat="44.3583117" lon="11.4674417"><ele>289.3333333333333</ele><time>2026-05-02T08:19:29.868Z</time></trkpt><trkpt lat="44.3582967" lon="11.4675983"><ele>290.0</ele><time>2026-05-02T08:19:31.868Z</time></trkpt><trkpt lat="44.3582917" lon="11.46769"><ele>290.66666666666663</ele><time>2026-05-02T08:19:32.868Z</time></trkpt><trkpt lat="44.358295" lon="11.4677867"><ele>291.3333333333333</ele><time>2026-05-02T08:19:33.868Z</time></trkpt><trkpt lat="44.35831" lon="11.4678833"><ele>292.0</ele><time>2026-05-02T08:19:34.868Z</time></trkpt><trkpt lat="44.35832" lon="11.4680517"><ele>293.2</ele><time>2026-05-02T08:19:36.868Z</time></trkpt><trkpt lat="44.3583083" lon="11.4682283"><ele>294.4</ele><time>2026-05-02T08:19:38.868Z</time></trkpt><trkpt lat="44.3583333" lon="11.46834"><ele>295.6</ele><time>2026-05-02T08:19:39.868Z</time></trkpt><trkpt lat="44.3584017" lon="11.468455"><ele>296.8</ele><time>2026-05-02T08:19:41.868Z</time></trkpt><trkpt lat="44.3584917" lon="11.46857"><ele>298.0</ele><time>2026-05-02T08:19:43.869Z</time></trkpt><trkpt lat="44.358525" lon="11.4686967"><ele>298.75</ele><time>2026-05-02T08:19:45.869Z</time></trkpt><trkpt lat="44.35851" lon="11.46885"><ele>299.5</ele><time>2026-05-02T08:19:47.868Z</time></trkpt><trkpt lat="44.3584683" lon="11.4690083"><ele>300.25</ele><time>2026-05-02T08:19:49.868Z</time></trkpt><trkpt lat="44.3584167" lon="11.4691617"><ele>301.0</ele><time>2026-05-02T08:19:51.868Z</time></trkpt><trkpt lat="44.3583833" lon="11.4693283"><ele>301.0</ele><time>2026-05-02T08:19:53.868Z</time></trkpt><trkpt lat="44.3583767" lon="11.4694283"><ele>301.0</ele><time>2026-05-02T08:19:54.868Z</time></trkpt><trkpt lat="44.35838" lon="11.4695283"><ele>301.0</ele><time>2026-05-02T08:19:55.869Z</time></trkpt><trkpt lat="44.35839" lon="11.4696333"><ele>301.0</ele><time>2026-05-02T08:19:56.868Z</time></trkpt><trkpt lat="44.3583983" lon="11.469735"><ele>301.0</ele><time>2026-05-02T08:19:57.868Z</time></trkpt><trkpt lat="44.3584033" lon="11.4698283"><ele>301.0</ele><time>2026-05-02T08:19:58.868Z</time></trkpt><trkpt lat="44.358415" lon="11.469925"><ele>301.0</ele><time>2026-05-02T08:19:59.869Z</time></trkpt><trkpt lat="44.3584367" lon="11.4700967"><ele>301.85714285714283</ele><time>2026-05-02T08:20:01.868Z</time></trkpt><trkpt lat="44.3584467" lon="11.4701983"><ele>302.7142857142857</ele><time>2026-05-02T08:20:02.868Z</time></trkpt><trkpt lat="44.3584617" lon="11.4702917"><ele>303.57142857142856</ele><time>2026-05-02T08:20:03.868Z</time></trkpt><trkpt lat="44.3584767" lon="11.470385"><ele>304.42857142857144</ele><time>2026-05-02T08:20:04.868Z</time></trkpt><trkpt lat="44.3584917" lon="11.4704817"><ele>305.2857142857143</ele><time>2026-05-02T08:20:05.868Z</time></trkpt><trkpt lat="44.358495" lon="11.4705733"><ele>306.1428571428571</ele><time>2026-05-02T08:20:06.869Z</time></trkpt><trkpt lat="44.3584933" lon="11.4707"><ele>307.0</ele><time>2026-05-02T08:20:08.869Z</time></trkpt><trkpt lat="44.35845" lon="11.470835"><ele>308.3333333333333</ele><time>2026-05-02T08:20:10.868Z</time></trkpt><trkpt lat="44.3583783" lon="11.4709633"><ele>309.66666666666663</ele><time>2026-05-02T08:20:12.868Z</time></trkpt><trkpt lat="44.3583317" lon="11.47103"><ele>311.0</ele><time>2026-05-02T08:20:13.868Z</time></trkpt><trkpt lat="44.358275" lon="11.471105"><ele>312.3333333333333</ele><time>2026-05-02T08:20:14.868Z</time></trkpt><trkpt lat="44.358215" lon="11.47118"><ele>313.6666666666667</ele><time>2026-05-02T08:20:15.868Z</time></trkpt><trkpt lat="44.358155" lon="11.47125"><ele>315.0</ele><time>2026-05-02T08:20:16.868Z</time></trkpt><trkpt lat="44.3581017" lon="11.4713167"><ele>315.5</ele><time>2026-05-02T08:20:17.868Z</time></trkpt><trkpt lat="44.3580567" lon="11.47138"><ele>316.0</ele><time>2026-05-02T08:20:18.868Z</time></trkpt><trkpt lat="44.3580067" lon="11.4714517"><ele>316.5</ele><time>2026-05-02T08:20:19.869Z</time></trkpt><trkpt lat="44.3579567" lon="11.4715233"><ele>317.0</ele><time>2026-05-02T08:20:20.869Z</time></trkpt><trkpt lat="44.3578633" lon="11.4716367"><ele>317.5</ele><time>2026-05-02T08:20:22.868Z</time></trkpt><trkpt lat="44.3578167" lon="11.4716967"><ele>318.0</ele><time>2026-05-02T08:20:23.869Z</time></trkpt><trkpt lat="44.3577683" lon="11.4717533"><ele>319.6666666666667</ele><time>2026-05-02T08:20:24.869Z</time></trkpt><trkpt lat="44.3576833" lon="11.47187"><ele>321.3333333333333</ele><time>2026-05-02T08:20:26.868Z</time></trkpt><trkpt lat="44.3576017" lon="11.47199"><ele>323.0</ele><time>2026-05-02T08:20:28.868Z</time></trkpt><trkpt lat="44.3575567" lon="11.4720517"><ele>324.66666666666663</ele><time>2026-05-02T08:20:29.869Z</time></trkpt><trkpt lat="44.3575067" lon="11.4721217"><ele>326.3333333333333</ele><time>2026-05-02T08:20:30.868Z</time></trkpt><trkpt lat="44.3574567" lon="11.4721867"><ele>328.0</ele><time>2026-05-02T08:20:31.868Z</time></trkpt><trkpt lat="44.3574067" lon="11.47225"><ele>328.79999999999995</ele><time>2026-05-02T08:20:32.869Z</time></trkpt><trkpt lat="44.357355" lon="11.472305"><ele>329.6</ele><time>2026-05-02T08:20:33.868Z</time></trkpt><trkpt lat="44.3572983" lon="11.472355"><ele>330.4</ele><time>2026-05-02T08:20:34.869Z</time></trkpt><trkpt lat="44.357205" lon="11.47246"><ele>331.20000000000005</ele><time>2026-05-02T08:20:36.868Z</time></trkpt><trkpt lat="44.3571183" lon="11.4725733"><ele>332.0</ele><time>2026-05-02T08:20:38.868Z</time></trkpt><trkpt lat="44.3570417" lon="11.4726967"><ele>332.0</ele><time>2026-05-02T08:20:40.868Z</time></trkpt><trkpt lat="44.3569967" lon="11.47284"><ele>332.0</ele><time>2026-05-02T08:20:42.868Z</time></trkpt><trkpt lat="44.3569467" lon="11.4729933"><ele>332.0</ele><time>2026-05-02T08:20:44.868Z</time></trkpt><trkpt lat="44.35693" lon="11.4730783"><ele>332.0</ele><time>2026-05-02T08:20:45.868Z</time></trkpt><trkpt lat="44.356915" lon="11.473165"><ele>332.0</ele><time>2026-05-02T08:20:46.868Z</time></trkpt><trkpt lat="44.3568883" lon="11.47333"><ele>334.5</ele><time>2026-05-02T08:20:48.869Z</time></trkpt><trkpt lat="44.3568583" lon="11.4734183"><ele>337.0</ele><time>2026-05-02T08:20:49.868Z</time></trkpt><trkpt lat="44.3568317" lon="11.4734983"><ele>339.5</ele><time>2026-05-02T08:20:50.868Z</time></trkpt><trkpt lat="44.3567733" lon="11.4736467"><ele>342.0</ele><time>2026-05-02T08:20:52.869Z</time></trkpt><trkpt lat="44.3567367" lon="11.47373"><ele>344.5</ele><time>2026-05-02T08:20:53.868Z</time></trkpt><trkpt lat="44.3566933" lon="11.4738183"><ele>347.0</ele><time>2026-05-02T08:20:54.868Z</time></trkpt><trkpt lat="44.3566517" lon="11.473905"><ele>348.7142857142857</ele><time>2026-05-02T08:20:55.868Z</time></trkpt><trkpt lat="44.3566133" lon="11.4739917"><ele>350.4285714285714</ele><time>2026-05-02T08:20:56.868Z</time></trkpt><trkpt lat="44.3565733" lon="11.4740767"><ele>352.1428571428571</ele><time>2026-05-02T08:20:57.869Z</time></trkpt><trkpt lat="44.35653" lon="11.4741617"><ele>353.8571428571429</ele><time>2026-05-02T08:20:58.868Z</time></trkpt><trkpt lat="44.3564933" lon="11.4742383"><ele>355.57142857142856</ele><time>2026-05-02T08:20:59.869Z</time></trkpt><trkpt lat="44.3564517" lon="11.47432"><ele>357.2857142857143</ele><time>2026-05-02T08:21:00.868Z</time></trkpt><trkpt lat="44.35641" lon="11.4744033"><ele>359.0</ele><time>2026-05-02T08:21:01.868Z</time></trkpt><trkpt lat="44.3563667" lon="11.4744883"><ele>359.0</ele><time>2026-05-02T08:21:02.868Z</time></trkpt><trkpt lat="44.35632" lon="11.474575"><ele>359.0</ele><time>2026-05-02T08:21:03.868Z</time></trkpt><trkpt lat="44.3562767" lon="11.4746583"><ele>359.0</ele><time>2026-05-02T08:21:04.868Z</time></trkpt><trkpt lat="44.3562383" lon="11.474745"><ele>359.0</ele><time>2026-05-02T08:21:05.868Z</time></trkpt><trkpt lat="44.35621" lon="11.4748267"><ele>359.0</ele><time>2026-05-02T08:21:06.869Z</time></trkpt><trkpt lat="44.35617" lon="11.474915"><ele>359.0</ele><time>2026-05-02T08:21:07.869Z</time></trkpt><trkpt lat="44.35614" lon="11.475"><ele>359.0</ele><time>2026-05-02T08:21:08.868Z</time></trkpt><trkpt lat="44.356115" lon="11.4750933"><ele>362.1666666666667</ele><time>2026-05-02T08:21:09.868Z</time></trkpt><trkpt lat="44.3560883" lon="11.4751867"><ele>365.33333333333337</ele><time>2026-05-02T08:21:10.868Z</time></trkpt><trkpt lat="44.3560667" lon="11.4752783"><ele>368.5</ele><time>2026-05-02T08:21:11.868Z</time></trkpt><trkpt lat="44.3560433" lon="11.4753783"><ele>371.6666666666667</ele><time>2026-05-02T08:21:12.868Z</time></trkpt><trkpt lat="44.3560267" lon="11.4754633"><ele>374.8333333333333</ele><time>2026-05-02T08:21:13.868Z</time></trkpt><trkpt lat="44.3559967" lon="11.4756217"><ele>378.0</ele><time>2026-05-02T08:21:15.868Z</time></trkpt><trkpt lat="44.3559533" lon="11.4757883"><ele>380.8333333333333</ele><time>2026-05-02T08:21:17.869Z</time></trkpt><trkpt lat="44.3559217" lon="11.4758867"><ele>383.66666666666663</ele><time>2026-05-02T08:21:18.868Z</time></trkpt><trkpt lat="44.355885" lon="11.4759833"><ele>386.5</ele><time>2026-05-02T08:21:19.869Z</time></trkpt><trkpt lat="44.3558533" lon="11.47608"><ele>389.3333333333333</ele><time>2026-05-02T08:21:20.868Z</time></trkpt><trkpt lat="44.3558283" lon="11.4761783"><ele>392.16666666666663</ele><time>2026-05-02T08:21:21.868Z</time></trkpt><trkpt lat="44.3558033" lon="11.476275"><ele>395.0</ele><time>2026-05-02T08:21:22.868Z</time></trkpt><trkpt lat="44.3557767" lon="11.4763667"><ele>396.7142857142857</ele><time>2026-05-02T08:21:23.868Z</time></trkpt><trkpt lat="44.35575" lon="11.4764533"><ele>398.42857142857144</ele><time>2026-05-02T08:21:24.869Z</time></trkpt><trkpt lat="44.355725" lon="11.4765383"><ele>400.14285714285717</ele><time>2026-05-02T08:21:25.868Z</time></trkpt><trkpt lat="44.3556967" lon="11.47664"><ele>401.8571428571429</ele><time>2026-05-02T08:21:26.869Z</time></trkpt><trkpt lat="44.3556683" lon="11.4767383"><ele>403.57142857142856</ele><time>2026-05-02T08:21:27.868Z</time></trkpt><trkpt lat="44.355635" lon="11.4768233"><ele>405.28571428571433</ele><time>2026-05-02T08:21:28.868Z</time></trkpt><trkpt lat="44.3555983" lon="11.4769083"><ele>407.0</ele><time>2026-05-02T08:21:29.868Z</time></trkpt><trkpt lat="44.355555" lon="11.4769983"><ele>408.99999999999994</ele><time>2026-05-02T08:21:30.868Z</time></trkpt><trkpt lat="44.3555117" lon="11.4770933"><ele>411.0</ele><time>2026-05-02T08:21:31.869Z</time></trkpt><trkpt lat="44.3554683" lon="11.4771867"><ele>413.0</ele><time>2026-05-02T08:21:32.868Z</time></trkpt><trkpt lat="44.3554217" lon="11.47728"><ele>415.0</ele><time>2026-05-02T08:21:33.868Z</time></trkpt><trkpt lat="44.3553733" lon="11.477375"><ele>416.99999999999994</ele><time>2026-05-02T08:21:34.868Z</time></trkpt><trkpt lat="44.3553267" lon="11.4774667"><ele>419.0</ele><time>2026-05-02T08:21:35.869Z</time></trkpt><trkpt lat="44.35528" lon="11.4775567"><ele>421.99999999999994</ele><time>2026-05-02T08:21:36.868Z</time></trkpt><trkpt lat="44.35523" lon="11.4776483"><ele>425.0</ele><time>2026-05-02T08:21:37.869Z</time></trkpt><trkpt lat="44.3551717" lon="11.4777333"><ele>428.0</ele><time>2026-05-02T08:21:38.869Z</time></trkpt><trkpt lat="44.3551133" lon="11.4778183"><ele>431.0</ele><time>2026-05-02T08:21:39.868Z</time></trkpt><trkpt lat="44.3550583" lon="11.4778933"><ele>433.99999999999994</ele><time>2026-05-02T08:21:40.868Z</time></trkpt><trkpt lat="44.355005" lon="11.477965"><ele>437.0</ele><time>2026-05-02T08:21:41.868Z</time></trkpt><trkpt lat="44.3549667" lon="11.478045"><ele>438.85714285714283</ele><time>2026-05-02T08:21:42.868Z</time></trkpt><trkpt lat="44.35493" lon="11.47812"><ele>440.7142857142858</ele><time>2026-05-02T08:21:43.868Z</time></trkpt><trkpt lat="44.3549" lon="11.4782"><ele>442.5714285714286</ele><time>2026-05-02T08:21:44.868Z</time></trkpt><trkpt lat="44.354865" lon="11.47829"><ele>444.42857142857144</ele><time>2026-05-02T08:21:45.869Z</time></trkpt><trkpt lat="44.354835" lon="11.478385"><ele>446.28571428571433</ele><time>2026-05-02T08:21:46.868Z</time></trkpt><trkpt lat="44.3548017" lon="11.4784867"><ele>448.1428571428572</ele><time>2026-05-02T08:21:47.868Z</time></trkpt><trkpt lat="44.3547733" lon="11.478595"><ele>450.00000000000006</ele><time>2026-05-02T08:21:48.868Z</time></trkpt><trkpt lat="44.35474" lon="11.4786983"><ele>450.00000000000006</ele><time>2026-05-02T08:21:49.868Z</time></trkpt><trkpt lat="44.3547167" lon="11.4787967"><ele>450.0</ele><time>2026-05-02T08:21:50.869Z</time></trkpt><trkpt lat="44.35469" lon="11.4788933"><ele>450.00000000000006</ele><time>2026-05-02T08:21:51.869Z</time></trkpt><trkpt lat="44.354675" lon="11.47899"><ele>450.00000000000006</ele><time>2026-05-02T08:21:52.869Z</time></trkpt><trkpt lat="44.354665" lon="11.4790867"><ele>450.0</ele><time>2026-05-02T08:21:53.869Z</time></trkpt><trkpt lat="44.3546583" lon="11.4791817"><ele>450.00000000000006</ele><time>2026-05-02T08:21:54.869Z</time></trkpt><trkpt lat="44.3546583" lon="11.4792833"><ele>450.00000000000006</ele><time>2026-05-02T08:21:55.868Z</time></trkpt><trkpt lat="44.35466" lon="11.4793883"><ele>450.0</ele><time>2026-05-02T08:21:56.868Z</time></trkpt><trkpt lat="44.3546567" lon="11.47949"><ele>450.0</ele><time>2026-05-02T08:21:57.868Z</time></trkpt><trkpt lat="44.3546533" lon="11.4795917"><ele>450.0</ele><time>2026-05-02T08:21:58.868Z</time></trkpt><trkpt lat="44.354655" lon="11.4796867"><ele>450.0</ele><time>2026-05-02T08:21:59.869Z</time></trkpt><trkpt lat="44.354655" lon="11.4798417"><ele>450.0</ele><time>2026-05-02T08:22:01.868Z</time></trkpt><trkpt lat="44.354655" lon="11.4799817"><ele>450.0</ele><time>2026-05-02T08:22:03.868Z</time></trkpt><trkpt lat="44.3546567" lon="11.4800867"><ele>451.0</ele><time>2026-05-02T08:22:06.869Z</time></trkpt><trkpt lat="44.3546633" lon="11.480175"><ele>452.0</ele><time>2026-05-02T08:37:43.869Z</time></trkpt><trkpt lat="44.35466" lon="11.4802817"><ele>453.0</ele><time>2026-05-02T08:50:52.868Z</time></trkpt><trkpt lat="44.3546767" lon="11.4804167"><ele>454.0</ele><time>2026-05-02T08:50:54.868Z</time></trkpt><trkpt lat="44.3547133" lon="11.4805333"><ele>455.0</ele><time>2026-05-02T08:50:56.868Z</time></trkpt><trkpt lat="44.3547517" lon="11.480655"><ele>456.0</ele><time>2026-05-02T08:50:58.869Z</time></trkpt><trkpt lat="44.354785" lon="11.4807633"><ele>458.20000000000005</ele><time>2026-05-02T08:51:00.868Z</time></trkpt><trkpt lat="44.35481" lon="11.4808733"><ele>460.40000000000003</ele><time>2026-05-02T08:51:02.868Z</time></trkpt><trkpt lat="44.3548233" lon="11.4810067"><ele>462.6</ele><time>2026-05-02T08:51:04.869Z</time></trkpt><trkpt lat="44.354835" lon="11.48115"><ele>464.8</ele><time>2026-05-02T08:51:06.869Z</time></trkpt><trkpt lat="44.3548467" lon="11.4813217"><ele>467.0</ele><time>2026-05-02T08:51:08.868Z</time></trkpt><trkpt lat="44.35486" lon="11.4814117"><ele>469.75</ele><time>2026-05-02T08:51:09.868Z</time></trkpt><trkpt lat="44.35489" lon="11.481575"><ele>472.5</ele><time>2026-05-02T08:51:11.868Z</time></trkpt><trkpt lat="44.3549217" lon="11.4817333"><ele>475.25</ele><time>2026-05-02T08:51:13.869Z</time></trkpt><trkpt lat="44.3549517" lon="11.4818883"><ele>478.0</ele><time>2026-05-02T08:51:15.868Z</time></trkpt><trkpt lat="44.3549933" lon="11.4820517"><ele>482.0</ele><time>2026-05-02T08:51:17.868Z</time></trkpt><trkpt lat="44.35504" lon="11.48221"><ele>485.99999999999994</ele><time>2026-05-02T08:51:19.868Z</time></trkpt><trkpt lat="44.355065" lon="11.4822917"><ele>489.99999999999994</ele><time>2026-05-02T08:51:20.869Z</time></trkpt><trkpt lat="44.35509" lon="11.4824367"><ele>494.0</ele><time>2026-05-02T08:51:22.868Z</time></trkpt><trkpt lat="44.3551183" lon="11.4825883"><ele>498.0</ele><time>2026-05-02T08:51:24.868Z</time></trkpt><trkpt lat="44.3551383" lon="11.4827333"><ele>498.0</ele><time>2026-05-02T08:51:26.869Z</time></trkpt><trkpt lat="44.3551567" lon="11.4828867"><ele>497.99999999999994</ele><time>2026-05-02T08:51:28.869Z</time></trkpt><trkpt lat="44.3552067" lon="11.4830183"><ele>497.99999999999994</ele><time>2026-05-02T08:51:30.868Z</time></trkpt><trkpt lat="44.35529" lon="11.48316"><ele>498.0</ele><time>2026-05-02T08:51:32.868Z</time></trkpt><trkpt lat="44.3553317" lon="11.48324"><ele>498.0</ele><time>2026-05-02T08:51:33.868Z</time></trkpt><trkpt lat="44.3553767" lon="11.4833083"><ele>497.3333333333333</ele><time>2026-05-02T08:51:34.868Z</time></trkpt><trkpt lat="44.35543" lon="11.4833667"><ele>496.66666666666663</ele><time>2026-05-02T08:51:35.868Z</time></trkpt><trkpt lat="44.3555033" lon="11.4834967"><ele>496.0</ele><time>2026-05-02T08:51:37.868Z</time></trkpt><trkpt lat="44.3555467" lon="11.4835667"><ele>495.3333333333333</ele><time>2026-05-02T08:51:38.869Z</time></trkpt><trkpt lat="44.35558" lon="11.483655"><ele>494.66666666666663</ele><time>2026-05-02T08:51:39.868Z</time></trkpt><trkpt lat="44.3556267" lon="11.4837883"><ele>494.0</ele><time>2026-05-02T08:51:41.869Z</time></trkpt><trkpt lat="44.3556483" lon="11.4838817"><ele>493.99999999999994</ele><time>2026-05-02T08:51:43.868Z</time></trkpt><trkpt lat="44.3556667" lon="11.4840033"><ele>494.0</ele><time>2026-05-02T08:51:45.868Z</time></trkpt><trkpt lat="44.3556683" lon="11.4841167"><ele>494.0</ele><time>2026-05-02T08:51:47.868Z</time></trkpt><trkpt lat="44.355645" lon="11.4842233"><ele>494.0</ele><time>2026-05-02T08:51:50.868Z</time></trkpt><trkpt lat="44.355615" lon="11.4843267"><ele>493.99999999999994</ele><time>2026-05-02T08:51:54.868Z</time></trkpt><trkpt lat="44.3555867" lon="11.4844117"><ele>494.0</ele><time>2026-05-02T08:51:58.868Z</time></trkpt><trkpt lat="44.3555367" lon="11.4845033"><ele>498.66666666666663</ele><time>2026-05-02T08:52:01.868Z</time></trkpt><trkpt lat="44.3554983" lon="11.4846017"><ele>503.3333333333333</ele><time>2026-05-02T08:52:04.869Z</time></trkpt><trkpt lat="44.35547" lon="11.4847167"><ele>508.0</ele><time>2026-05-02T08:52:07.868Z</time></trkpt><trkpt lat="44.355465" lon="11.48481"><ele>512.6666666666666</ele><time>2026-05-02T08:52:10.869Z</time></trkpt><trkpt lat="44.3554833" lon="11.4849467"><ele>517.3333333333334</ele><time>2026-05-02T08:53:04.868Z</time></trkpt><trkpt lat="44.3555133" lon="11.4850917"><ele>522.0</ele><time>2026-05-02T08:53:06.868Z</time></trkpt><trkpt lat="44.3555267" lon="11.4851817"><ele>522.0</ele><time>2026-05-02T08:53:07.868Z</time></trkpt><trkpt lat="44.3555333" lon="11.4852783"><ele>522.0</ele><time>2026-05-02T08:53:08.868Z</time></trkpt><trkpt lat="44.3555217" lon="11.485435"><ele>522.0</ele><time>2026-05-02T08:53:10.868Z</time></trkpt><trkpt lat="44.3555" lon="11.4856033"><ele>522.0</ele><time>2026-05-02T08:53:12.869Z</time></trkpt><trkpt lat="44.3554717" lon="11.4857667"><ele>522.0</ele><time>2026-05-02T08:53:14.868Z</time></trkpt><trkpt lat="44.3554567" lon="11.4859183"><ele>523.1666666666666</ele><time>2026-05-02T08:53:16.868Z</time></trkpt><trkpt lat="44.3554867" lon="11.4860483"><ele>524.3333333333334</ele><time>2026-05-02T08:53:18.868Z</time></trkpt><trkpt lat="44.355555" lon="11.4861333"><ele>525.5</ele><time>2026-05-02T08:53:20.868Z</time></trkpt><trkpt lat="44.3556017" lon="11.4862017"><ele>526.6666666666667</ele><time>2026-05-02T08:53:24.868Z</time></trkpt><trkpt lat="44.3555267" lon="11.4862167"><ele>527.8333333333334</ele><time>2026-05-02T08:53:27.868Z</time></trkpt><trkpt lat="44.35543" lon="11.4861533"><ele>529.0</ele><time>2026-05-02T08:53:29.868Z</time></trkpt><trkpt lat="44.355365" lon="11.4860917"><ele>529.0</ele><time>2026-05-02T08:53:30.868Z</time></trkpt><trkpt lat="44.355295" lon="11.4859967"><ele>529.0</ele><time>2026-05-02T08:53:31.868Z</time></trkpt><trkpt lat="44.3552233" lon="11.4858783"><ele>529.0</ele><time>2026-05-02T08:53:32.868Z</time></trkpt><trkpt lat="44.35514" lon="11.4857633"><ele>529.0</ele><time>2026-05-02T08:53:33.868Z</time></trkpt><trkpt lat="44.3550433" lon="11.4856517"><ele>529.0</ele><time>2026-05-02T08:53:34.868Z</time></trkpt><trkpt lat="44.3549467" lon="11.4855583"><ele>529.0</ele><time>2026-05-02T08:53:35.869Z</time></trkpt><trkpt lat="44.354845" lon="11.485465"><ele>529.0</ele><time>2026-05-02T08:53:36.868Z</time></trkpt><trkpt lat="44.3547467" lon="11.4853667"><ele>529.0</ele><time>2026-05-02T08:53:37.869Z</time></trkpt><trkpt lat="44.3546567" lon="11.4852483"><ele>533.0</ele><time>2026-05-02T08:53:38.868Z</time></trkpt><trkpt lat="44.3545767" lon="11.485125"><ele>537.0</ele><time>2026-05-02T08:53:39.868Z</time></trkpt><trkpt lat="44.35451" lon="11.4849933"><ele>541.0</ele><time>2026-05-02T08:53:40.869Z</time></trkpt><trkpt lat="44.3544433" lon="11.4848667"><ele>545.0</ele><time>2026-05-02T08:53:41.868Z</time></trkpt><trkpt lat="44.35438" lon="11.4847467"><ele>545.0</ele><time>2026-05-02T08:53:42.868Z</time></trkpt><trkpt lat="44.3543067" lon="11.4846367"><ele>545.0</ele><time>2026-05-02T08:53:43.868Z</time></trkpt><trkpt lat="44.3542233" lon="11.484535"><ele>545.0</ele><time>2026-05-02T08:53:44.868Z</time></trkpt><trkpt lat="44.3541367" lon="11.4844567"><ele>545.0</ele><time>2026-05-02T08:53:45.868Z</time></trkpt><trkpt lat="44.3540583" lon="11.4844017"><ele>545.0</ele><time>2026-05-02T08:53:46.868Z</time></trkpt><trkpt lat="44.3539917" lon="11.4843667"><ele>543.6666666666666</ele><time>2026-05-02T08:53:47.869Z</time></trkpt><trkpt lat="44.3538867" lon="11.4842967"><ele>542.3333333333333</ele><time>2026-05-02T08:53:49.868Z</time></trkpt><trkpt lat="44.3538333" lon="11.48425"><ele>541.0</ele><time>2026-05-02T08:53:50.868Z</time></trkpt><trkpt lat="44.3537767" lon="11.4842067"><ele>539.6666666666666</ele><time>2026-05-02T08:53:51.869Z</time></trkpt><trkpt lat="44.3537" lon="11.4841683"><ele>538.3333333333334</ele><time>2026-05-02T08:53:52.868Z</time></trkpt><trkpt lat="44.3536" lon="11.4841283"><ele>537.0</ele><time>2026-05-02T08:53:53.868Z</time></trkpt><trkpt lat="44.3534833" lon="11.4840867"><ele>537.0</ele><time>2026-05-02T08:53:54.869Z</time></trkpt><trkpt lat="44.3533817" lon="11.4840567"><ele>537.0</ele><time>2026-05-02T08:53:55.868Z</time></trkpt><trkpt lat="44.3532733" lon="11.4840333"><ele>537.0</ele><time>2026-05-02T08:53:56.868Z</time></trkpt><trkpt lat="44.3531617" lon="11.4840667"><ele>537.0</ele><time>2026-05-02T08:53:57.868Z</time></trkpt><trkpt lat="44.3530417" lon="11.484125"><ele>534.75</ele><time>2026-05-02T08:53:58.868Z</time></trkpt><trkpt lat="44.35293" lon="11.484215"><ele>532.5</ele><time>2026-05-02T08:53:59.869Z</time></trkpt><trkpt lat="44.35282" lon="11.4843017"><ele>530.25</ele><time>2026-05-02T08:54:00.869Z</time></trkpt><trkpt lat="44.3527233" lon="11.4843917"><ele>528.0</ele><time>2026-05-02T08:54:01.868Z</time></trkpt><trkpt lat="44.3526333" lon="11.4844667"><ele>528.0</ele><time>2026-05-02T08:54:02.868Z</time></trkpt><trkpt lat="44.3525267" lon="11.484525"><ele>528.0</ele><time>2026-05-02T08:54:03.869Z</time></trkpt><trkpt lat="44.3524183" lon="11.4845733"><ele>528.0</ele><time>2026-05-02T08:54:04.868Z</time></trkpt><trkpt lat="44.3523033" lon="11.4845983"><ele>528.0</ele><time>2026-05-02T08:54:05.868Z</time></trkpt><trkpt lat="44.3522" lon="11.4846217"><ele>528.0</ele><time>2026-05-02T08:54:06.868Z</time></trkpt><trkpt lat="44.35211" lon="11.484635"><ele>532.0</ele><time>2026-05-02T08:54:07.868Z</time></trkpt><trkpt lat="44.35203" lon="11.4846483"><ele>536.0</ele><time>2026-05-02T08:54:08.869Z</time></trkpt><trkpt lat="44.3519633" lon="11.4846383"><ele>540.0</ele><time>2026-05-02T08:54:09.869Z</time></trkpt><trkpt lat="44.3518733" lon="11.4845517"><ele>544.0</ele><time>2026-05-02T08:54:11.868Z</time></trkpt><trkpt lat="44.35181" lon="11.48439"><ele>548.0</ele><time>2026-05-02T08:54:13.868Z</time></trkpt><trkpt lat="44.3518083" lon="11.484265"><ele>548.0</ele><time>2026-05-02T08:54:14.869Z</time></trkpt><trkpt lat="44.3518217" lon="11.48412"><ele>548.0</ele><time>2026-05-02T08:54:15.868Z</time></trkpt><trkpt lat="44.3518317" lon="11.4839617"><ele>548.0</ele><time>2026-05-02T08:54:16.869Z</time></trkpt><trkpt lat="44.3518567" lon="11.4838017"><ele>548.0</ele><time>2026-05-02T08:54:17.868Z</time></trkpt><trkpt lat="44.3518933" lon="11.4836367"><ele>548.4</ele><time>2026-05-02T08:54:18.868Z</time></trkpt><trkpt lat="44.3519267" lon="11.4834833"><ele>548.8</ele><time>2026-05-02T08:54:19.868Z</time></trkpt><trkpt lat="44.3519533" lon="11.4833367"><ele>549.2</ele><time>2026-05-02T08:54:20.868Z</time></trkpt><trkpt lat="44.351975" lon="11.4831783"><ele>549.6</ele><time>2026-05-02T08:54:21.868Z</time></trkpt><trkpt lat="44.3519933" lon="11.4830267"><ele>550.0</ele><time>2026-05-02T08:54:22.868Z</time></trkpt><trkpt lat="44.3520133" lon="11.4828733"><ele>548.8</ele><time>2026-05-02T08:54:23.868Z</time></trkpt><trkpt lat="44.352035" lon="11.4827267"><ele>547.6</ele><time>2026-05-02T08:54:24.869Z</time></trkpt><trkpt lat="44.3520517" lon="11.48259"><ele>546.4</ele><time>2026-05-02T08:54:25.868Z</time></trkpt><trkpt lat="44.3520667" lon="11.4824517"><ele>545.2</ele><time>2026-05-02T08:54:26.869Z</time></trkpt><trkpt lat="44.3520817" lon="11.4823183"><ele>544.0</ele><time>2026-05-02T08:54:27.868Z</time></trkpt><trkpt lat="44.35209" lon="11.482195"><ele>540.1666666666667</ele><time>2026-05-02T08:54:28.868Z</time></trkpt><trkpt lat="44.352085" lon="11.4820767"><ele>536.3333333333334</ele><time>2026-05-02T08:54:29.868Z</time></trkpt><trkpt lat="44.3520617" lon="11.481945"><ele>532.5</ele><time>2026-05-02T08:54:30.868Z</time></trkpt><trkpt lat="44.35204" lon="11.481825"><ele>528.6666666666666</ele><time>2026-05-02T08:54:31.868Z</time></trkpt><trkpt lat="44.3520183" lon="11.4817333"><ele>524.8333333333333</ele><time>2026-05-02T08:54:32.869Z</time></trkpt><trkpt lat="44.351965" lon="11.481645"><ele>521.0</ele><time>2026-05-02T08:54:33.869Z</time></trkpt><trkpt lat="44.3519167" lon="11.4815667"><ele>521.0</ele><time>2026-05-02T08:54:34.868Z</time></trkpt><trkpt lat="44.3518517" lon="11.4815133"><ele>521.0</ele><time>2026-05-02T08:54:35.868Z</time></trkpt><trkpt lat="44.351755" lon="11.4814967"><ele>521.0</ele><time>2026-05-02T08:54:36.869Z</time></trkpt><trkpt lat="44.351675" lon="11.48148"><ele>521.0</ele><time>2026-05-02T08:54:37.869Z</time></trkpt><trkpt lat="44.3515817" lon="11.48149"><ele>521.0</ele><time>2026-05-02T08:54:38.869Z</time></trkpt><trkpt lat="44.3515" lon="11.4815033"><ele>521.0</ele><time>2026-05-02T08:54:39.868Z</time></trkpt><trkpt lat="44.3514017" lon="11.4815067"><ele>520.2</ele><time>2026-05-02T08:54:40.868Z</time></trkpt><trkpt lat="44.3513033" lon="11.4815033"><ele>519.4000000000001</ele><time>2026-05-02T08:54:41.868Z</time></trkpt><trkpt lat="44.3512117" lon="11.4814833"><ele>518.6</ele><time>2026-05-02T08:54:42.868Z</time></trkpt><trkpt lat="44.3511167" lon="11.4814467"><ele>517.8000000000001</ele><time>2026-05-02T08:54:43.868Z</time></trkpt><trkpt lat="44.3510217" lon="11.481405"><ele>517.0</ele><time>2026-05-02T08:54:44.868Z</time></trkpt><trkpt lat="44.3509217" lon="11.4813917"><ele>517.0</ele><time>2026-05-02T08:54:45.868Z</time></trkpt><trkpt lat="44.3508233" lon="11.48138"><ele>517.0</ele><time>2026-05-02T08:54:46.868Z</time></trkpt><trkpt lat="44.350715" lon="11.48139"><ele>517.0</ele><time>2026-05-02T08:54:47.868Z</time></trkpt><trkpt lat="44.3506033" lon="11.4814017"><ele>517.0</ele><time>2026-05-02T08:54:48.869Z</time></trkpt><trkpt lat="44.3504883" lon="11.4814117"><ele>517.0</ele><time>2026-05-02T08:54:49.869Z</time></trkpt><trkpt lat="44.3503833" lon="11.4813983"><ele>513.4</ele><time>2026-05-02T08:54:50.868Z</time></trkpt><trkpt lat="44.3502833" lon="11.4813817"><ele>509.80000000000007</ele><time>2026-05-02T08:54:51.868Z</time></trkpt><trkpt lat="44.3501917" lon="11.48139"><ele>506.2</ele><time>2026-05-02T08:54:52.868Z</time></trkpt><trkpt lat="44.3501017" lon="11.481425"><ele>502.6</ele><time>2026-05-02T08:54:53.868Z</time></trkpt><trkpt lat="44.35001" lon="11.4814767"><ele>499.0</ele><time>2026-05-02T08:54:54.868Z</time></trkpt><trkpt lat="44.3499183" lon="11.4815517"><ele>499.0</ele><time>2026-05-02T08:54:55.868Z</time></trkpt><trkpt lat="44.34983" lon="11.4816467"><ele>499.0</ele><time>2026-05-02T08:54:56.869Z</time></trkpt><trkpt lat="44.34976" lon="11.4817517"><ele>499.0</ele><time>2026-05-02T08:54:57.868Z</time></trkpt><trkpt lat="44.3497167" lon="11.4818683"><ele>499.0</ele><time>2026-05-02T08:54:58.868Z</time></trkpt><trkpt lat="44.3496967" lon="11.4819967"><ele>499.0</ele><time>2026-05-02T08:54:59.869Z</time></trkpt><trkpt lat="44.3496967" lon="11.4821283"><ele>501.4</ele><time>2026-05-02T08:55:00.868Z</time></trkpt><trkpt lat="44.3497067" lon="11.4822617"><ele>503.79999999999995</ele><time>2026-05-02T08:55:01.869Z</time></trkpt><trkpt lat="44.3497183" lon="11.4823833"><ele>506.20000000000005</ele><time>2026-05-02T08:55:02.868Z</time></trkpt><trkpt lat="44.3497183" lon="11.48251"><ele>508.6</ele><time>2026-05-02T08:55:03.869Z</time></trkpt><trkpt lat="44.3496967" lon="11.4826283"><ele>511.0</ele><time>2026-05-02T08:55:04.868Z</time></trkpt><trkpt lat="44.3496533" lon="11.4827467"><ele>507.6</ele><time>2026-05-02T08:55:05.869Z</time></trkpt><trkpt lat="44.3495933" lon="11.4828767"><ele>504.20000000000005</ele><time>2026-05-02T08:55:06.868Z</time></trkpt><trkpt lat="44.3495333" lon="11.4830017"><ele>500.79999999999995</ele><time>2026-05-02T08:55:07.868Z</time></trkpt><trkpt lat="44.3494783" lon="11.483125"><ele>497.4</ele><time>2026-05-02T08:55:08.869Z</time></trkpt><trkpt lat="44.3494233" lon="11.483245"><ele>494.0</ele><time>2026-05-02T08:55:09.868Z</time></trkpt><trkpt lat="44.3493633" lon="11.483355"><ele>494.0</ele><time>2026-05-02T08:55:10.868Z</time></trkpt><trkpt lat="44.3492933" lon="11.4834533"><ele>494.0</ele><time>2026-05-02T08:55:11.868Z</time></trkpt><trkpt lat="44.3492083" lon="11.4835317"><ele>494.0</ele><time>2026-05-02T08:55:12.868Z</time></trkpt><trkpt lat="44.349115" lon="11.4835717"><ele>494.0</ele><time>2026-05-02T08:55:13.868Z</time></trkpt><trkpt lat="44.3490067" lon="11.4835783"><ele>494.0</ele><time>2026-05-02T08:55:14.869Z</time></trkpt><trkpt lat="44.3488967" lon="11.483565"><ele>489.79999999999995</ele><time>2026-05-02T08:55:15.868Z</time></trkpt><trkpt lat="44.3487833" lon="11.4835367"><ele>485.59999999999997</ele><time>2026-05-02T08:55:16.868Z</time></trkpt><trkpt lat="44.3486917" lon="11.4835267"><ele>481.4</ele><time>2026-05-02T08:55:17.869Z</time></trkpt><trkpt lat="44.348615" lon="11.4835067"><ele>477.2</ele><time>2026-05-02T08:55:18.868Z</time></trkpt><trkpt lat="44.3485483" lon="11.4834883"><ele>473.0</ele><time>2026-05-02T08:55:19.868Z</time></trkpt><trkpt lat="44.348455" lon="11.4834117"><ele>473.0</ele><time>2026-05-02T08:55:21.868Z</time></trkpt><trkpt lat="44.3484667" lon="11.48329"><ele>472.99999999999994</ele><time>2026-05-02T08:55:23.869Z</time></trkpt><trkpt lat="44.3485833" lon="11.4831983"><ele>472.99999999999994</ele><time>2026-05-02T08:55:25.868Z</time></trkpt><trkpt lat="44.348665" lon="11.4831617"><ele>473.0</ele><time>2026-05-02T08:55:26.869Z</time></trkpt><trkpt lat="44.3487467" lon="11.483125"><ele>473.0</ele><time>2026-05-02T08:55:27.869Z</time></trkpt><trkpt lat="44.3488283" lon="11.483075"><ele>474.3333333333333</ele><time>2026-05-02T08:55:28.868Z</time></trkpt><trkpt lat="44.3489067" lon="11.48303"><ele>475.66666666666663</ele><time>2026-05-02T08:55:29.868Z</time></trkpt><trkpt lat="44.3489817" lon="11.48298"><ele>477.0</ele><time>2026-05-02T08:55:30.868Z</time></trkpt><trkpt lat="44.34906" lon="11.4829267"><ele>478.33333333333337</ele><time>2026-05-02T08:55:31.868Z</time></trkpt><trkpt lat="44.34912" lon="11.4828633"><ele>479.6666666666667</ele><time>2026-05-02T08:55:32.868Z</time></trkpt><trkpt lat="44.34916" lon="11.4827867"><ele>481.0</ele><time>2026-05-02T08:55:33.869Z</time></trkpt><trkpt lat="44.3491683" lon="11.4826967"><ele>481.00000000000006</ele><time>2026-05-02T08:55:34.868Z</time></trkpt><trkpt lat="44.3491483" lon="11.482605"><ele>481.0</ele><time>2026-05-02T08:55:35.869Z</time></trkpt><trkpt lat="44.3490933" lon="11.4825233"><ele>481.0</ele><time>2026-05-02T08:55:36.869Z</time></trkpt><trkpt lat="44.3490267" lon="11.4824367"><ele>481.0</ele><time>2026-05-02T08:55:37.868Z</time></trkpt><trkpt lat="44.3489567" lon="11.4823367"><ele>481.00000000000006</ele><time>2026-05-02T08:55:38.868Z</time></trkpt><trkpt lat="44.34889" lon="11.482235"><ele>481.0</ele><time>2026-05-02T08:55:39.868Z</time></trkpt><trkpt lat="44.3488267" lon="11.4821333"><ele>476.0</ele><time>2026-05-02T08:55:40.868Z</time></trkpt><trkpt lat="44.3487617" lon="11.482025"><ele>471.0</ele><time>2026-05-02T08:55:41.868Z</time></trkpt><trkpt lat="44.3486967" lon="11.4819067"><ele>466.0</ele><time>2026-05-02T08:55:42.868Z</time></trkpt><trkpt lat="44.3486333" lon="11.4818"><ele>461.0</ele><time>2026-05-02T08:55:43.869Z</time></trkpt><trkpt lat="44.3485633" lon="11.481695"><ele>456.0</ele><time>2026-05-02T08:55:44.868Z</time></trkpt><trkpt lat="44.3485" lon="11.4816017"><ele>456.0</ele><time>2026-05-02T08:55:45.868Z</time></trkpt><trkpt lat="44.34845" lon="11.4815167"><ele>456.0</ele><time>2026-05-02T08:55:46.869Z</time></trkpt><trkpt lat="44.3484017" lon="11.4814283"><ele>456.0</ele><time>2026-05-02T08:55:47.868Z</time></trkpt><trkpt lat="44.3483583" lon="11.481325"><ele>456.0</ele><time>2026-05-02T08:55:48.869Z</time></trkpt><trkpt lat="44.3483333" lon="11.4812117"><ele>456.0</ele><time>2026-05-02T08:55:49.868Z</time></trkpt><trkpt lat="44.34833" lon="11.481085"><ele>456.0</ele><time>2026-05-02T08:55:50.869Z</time></trkpt><trkpt lat="44.3483417" lon="11.4809483"><ele>452.8</ele><time>2026-05-02T08:55:51.868Z</time></trkpt><trkpt lat="44.348365" lon="11.4808083"><ele>449.6</ele><time>2026-05-02T08:55:52.868Z</time></trkpt><trkpt lat="44.3483783" lon="11.4806717"><ele>446.4</ele><time>2026-05-02T08:55:53.869Z</time></trkpt><trkpt lat="44.3483917" lon="11.4805317"><ele>443.2</ele><time>2026-05-02T08:55:54.868Z</time></trkpt><trkpt lat="44.3484" lon="11.4803967"><ele>440.0</ele><time>2026-05-02T08:55:55.868Z</time></trkpt><trkpt lat="44.3484067" lon="11.4802583"><ele>438.6</ele><time>2026-05-02T08:55:56.868Z</time></trkpt><trkpt lat="44.3484017" lon="11.4801217"><ele>437.2</ele><time>2026-05-02T08:55:57.868Z</time></trkpt><trkpt lat="44.3484033" lon="11.479985"><ele>435.79999999999995</ele><time>2026-05-02T08:55:58.868Z</time></trkpt><trkpt lat="44.3484" lon="11.4798533"><ele>434.4</ele><time>2026-05-02T08:55:59.869Z</time></trkpt><trkpt lat="44.3484067" lon="11.479715"><ele>433.0</ele><time>2026-05-02T08:56:00.868Z</time></trkpt><trkpt lat="44.3484267" lon="11.4795717"><ele>431.4</ele><time>2026-05-02T08:56:01.869Z</time></trkpt><trkpt lat="44.3484467" lon="11.479425"><ele>429.79999999999995</ele><time>2026-05-02T08:56:02.868Z</time></trkpt><trkpt lat="44.3484633" lon="11.47928"><ele>428.2</ele><time>2026-05-02T08:56:03.868Z</time></trkpt><trkpt lat="44.34848" lon="11.479135"><ele>426.6</ele><time>2026-05-02T08:56:04.869Z</time></trkpt><trkpt lat="44.3484917" lon="11.4790017"><ele>425.0</ele><time>2026-05-02T08:56:05.869Z</time></trkpt><trkpt lat="44.3485017" lon="11.4788817"><ele>424.99999999999994</ele><time>2026-05-02T08:56:06.868Z</time></trkpt><trkpt lat="44.3485133" lon="11.478775"><ele>425.0</ele><time>2026-05-02T08:56:07.868Z</time></trkpt><trkpt lat="44.348525" lon="11.4786783"><ele>425.0</ele><time>2026-05-02T08:56:08.869Z</time></trkpt><trkpt lat="44.348535" lon="11.47859"><ele>425.0</ele><time>2026-05-02T08:56:09.869Z</time></trkpt><trkpt lat="44.34857" lon="11.4784467"><ele>424.99999999999994</ele><time>2026-05-02T08:56:11.869Z</time></trkpt><trkpt lat="44.3486117" lon="11.4783017"><ele>425.0</ele><time>2026-05-02T08:56:13.868Z</time></trkpt><trkpt lat="44.3486667" lon="11.478175"><ele>424.66666666666663</ele><time>2026-05-02T08:56:15.868Z</time></trkpt><trkpt lat="44.3486933" lon="11.47808"><ele>424.3333333333333</ele><time>2026-05-02T08:56:17.868Z</time></trkpt><trkpt lat="44.3486233" lon="11.4780083"><ele>424.0</ele><time>2026-05-02T08:57:02.868Z</time></trkpt><trkpt lat="44.3485517" lon="11.4779883"><ele>423.66666666666663</ele><time>2026-05-02T08:57:05.868Z</time></trkpt><trkpt lat="44.3484733" lon="11.4779767"><ele>423.3333333333333</ele><time>2026-05-02T08:57:07.869Z</time></trkpt><trkpt lat="44.348375" lon="11.4779667"><ele>423.0</ele><time>2026-05-02T08:57:09.868Z</time></trkpt><trkpt lat="44.3482833" lon="11.4779583"><ele>423.0</ele><time>2026-05-02T08:57:11.868Z</time></trkpt><trkpt lat="44.3481867" lon="11.4779583"><ele>423.0</ele><time>2026-05-02T08:57:13.868Z</time></trkpt><trkpt lat="44.3480817" lon="11.4779333"><ele>423.0</ele><time>2026-05-02T08:57:15.868Z</time></trkpt><trkpt lat="44.3479983" lon="11.4778683"><ele>423.0</ele><time>2026-05-02T08:57:17.869Z</time></trkpt><trkpt lat="44.3479433" lon="11.4777733"><ele>423.0</ele><time>2026-05-02T08:57:19.869Z</time></trkpt><trkpt lat="44.3479233" lon="11.47766"><ele>420.2</ele><time>2026-05-02T08:57:21.869Z</time></trkpt><trkpt lat="44.347895" lon="11.4775467"><ele>417.4</ele><time>2026-05-02T08:57:23.869Z</time></trkpt><trkpt lat="44.34782" lon="11.47749"><ele>414.59999999999997</ele><time>2026-05-02T08:57:25.868Z</time></trkpt><trkpt lat="44.3477367" lon="11.477555"><ele>411.79999999999995</ele><time>2026-05-02T08:57:27.868Z</time></trkpt><trkpt lat="44.3477217" lon="11.47768"><ele>409.0</ele><time>2026-05-02T08:57:29.868Z</time></trkpt><trkpt lat="44.347745" lon="11.4778217"><ele>407.79999999999995</ele><time>2026-05-02T08:57:31.869Z</time></trkpt><trkpt lat="44.34778" lon="11.4779533"><ele>406.59999999999997</ele><time>2026-05-02T08:57:33.868Z</time></trkpt><trkpt lat="44.347825" lon="11.4780817"><ele>405.4</ele><time>2026-05-02T08:57:35.869Z</time></trkpt><trkpt lat="44.3478733" lon="11.478225"><ele>404.2</ele><time>2026-05-02T08:57:37.868Z</time></trkpt><trkpt lat="44.347885" lon="11.47837"><ele>403.0</ele><time>2026-05-02T08:57:39.868Z</time></trkpt><trkpt lat="44.34786" lon="11.478525"><ele>403.00000000000006</ele><time>2026-05-02T08:57:41.868Z</time></trkpt><trkpt lat="44.3478067" lon="11.47867"><ele>403.0</ele><time>2026-05-02T08:57:43.869Z</time></trkpt><trkpt lat="44.3477617" lon="11.47875"><ele>403.0</ele><time>2026-05-02T08:57:44.868Z</time></trkpt><trkpt lat="44.3477133" lon="11.478815"><ele>403.0</ele><time>2026-05-02T08:57:45.868Z</time></trkpt><trkpt lat="44.34766" lon="11.4788767"><ele>403.00000000000006</ele><time>2026-05-02T08:57:46.869Z</time></trkpt><trkpt lat="44.3476017" lon="11.4789367"><ele>403.0</ele><time>2026-05-02T08:57:47.868Z</time></trkpt><trkpt lat="44.347535" lon="11.47899"><ele>402.83333333333337</ele><time>2026-05-02T08:57:48.868Z</time></trkpt><trkpt lat="44.3474767" lon="11.4790517"><ele>402.6666666666667</ele><time>2026-05-02T08:57:49.868Z</time></trkpt><trkpt lat="44.347425" lon="11.4791167"><ele>402.5</ele><time>2026-05-02T08:57:50.868Z</time></trkpt><trkpt lat="44.347375" lon="11.4791817"><ele>402.33333333333337</ele><time>2026-05-02T08:57:51.869Z</time></trkpt><trkpt lat="44.3473317" lon="11.4792483"><ele>402.1666666666667</ele><time>2026-05-02T08:57:52.868Z</time></trkpt><trkpt lat="44.34727" lon="11.4793733"><ele>402.0</ele><time>2026-05-02T08:57:54.868Z</time></trkpt><trkpt lat="44.34722" lon="11.4795283"><ele>399.8333333333333</ele><time>2026-05-02T08:57:56.869Z</time></trkpt><trkpt lat="44.3471983" lon="11.4796133"><ele>397.66666666666663</ele><time>2026-05-02T08:57:57.869Z</time></trkpt><trkpt lat="44.3471533" lon="11.4797733"><ele>395.5</ele><time>2026-05-02T08:57:59.868Z</time></trkpt><trkpt lat="44.347115" lon="11.4798483"><ele>393.3333333333333</ele><time>2026-05-02T08:58:00.868Z</time></trkpt><trkpt lat="44.34707" lon="11.4799267"><ele>391.16666666666663</ele><time>2026-05-02T08:58:01.868Z</time></trkpt><trkpt lat="44.3470233" lon="11.4800067"><ele>389.0</ele><time>2026-05-02T08:58:02.869Z</time></trkpt><trkpt lat="44.3469767" lon="11.4800767"><ele>388.99999999999994</ele><time>2026-05-02T08:58:03.869Z</time></trkpt><trkpt lat="44.3469233" lon="11.48014"><ele>389.0</ele><time>2026-05-02T08:58:04.868Z</time></trkpt><trkpt lat="44.3468683" lon="11.4801867"><ele>389.0</ele><time>2026-05-02T08:58:05.868Z</time></trkpt><trkpt lat="44.3467667" lon="11.4802417"><ele>389.0</ele><time>2026-05-02T08:58:07.868Z</time></trkpt><trkpt lat="44.346635" lon="11.48022"><ele>388.99999999999994</ele><time>2026-05-02T08:58:09.868Z</time></trkpt><trkpt lat="44.3465683" lon="11.480185"><ele>389.0</ele><time>2026-05-02T08:58:10.868Z</time></trkpt><trkpt lat="44.3464983" lon="11.48014"><ele>388.99999999999994</ele><time>2026-05-02T08:58:11.868Z</time></trkpt><trkpt lat="44.34643" lon="11.48008"><ele>389.0</ele><time>2026-05-02T08:58:12.868Z</time></trkpt><trkpt lat="44.3463583" lon="11.480015"><ele>389.0</ele><time>2026-05-02T08:58:13.868Z</time></trkpt><trkpt lat="44.3463" lon="11.4799583"><ele>389.0</ele><time>2026-05-02T08:58:14.869Z</time></trkpt><trkpt lat="44.3462333" lon="11.4799167"><ele>388.99999999999994</ele><time>2026-05-02T08:58:15.868Z</time></trkpt><trkpt lat="44.3461683" lon="11.4798717"><ele>389.0</ele><time>2026-05-02T08:58:16.868Z</time></trkpt><trkpt lat="44.3461033" lon="11.4798383"><ele>389.16666666666663</ele><time>2026-05-02T08:58:17.868Z</time></trkpt><trkpt lat="44.3460217" lon="11.4798183"><ele>389.3333333333333</ele><time>2026-05-02T08:58:18.868Z</time></trkpt><trkpt lat="44.3459383" lon="11.4798183"><ele>389.5</ele><time>2026-05-02T08:58:19.868Z</time></trkpt><trkpt lat="44.3458533" lon="11.4798183"><ele>389.66666666666663</ele><time>2026-05-02T08:58:20.868Z</time></trkpt><trkpt lat="44.3457767" lon="11.479845"><ele>389.8333333333333</ele><time>2026-05-02T08:58:21.868Z</time></trkpt><trkpt lat="44.3457033" lon="11.4798767"><ele>390.0</ele><time>2026-05-02T08:58:22.868Z</time></trkpt><trkpt lat="44.3456283" lon="11.4799233"><ele>390.0</ele><time>2026-05-02T08:58:23.868Z</time></trkpt><trkpt lat="44.3455633" lon="11.479985"><ele>390.0</ele><time>2026-05-02T08:58:24.869Z</time></trkpt><trkpt lat="44.3455117" lon="11.480065"><ele>390.0</ele><time>2026-05-02T08:58:25.868Z</time></trkpt><trkpt lat="44.3454683" lon="11.480145"><ele>390.0</ele><time>2026-05-02T08:58:26.869Z</time></trkpt><trkpt lat="44.34543" lon="11.4802333"><ele>390.0</ele><time>2026-05-02T08:58:27.868Z</time></trkpt><trkpt lat="44.34539" lon="11.480325"><ele>390.0</ele><time>2026-05-02T08:58:28.868Z</time></trkpt><trkpt lat="44.3453433" lon="11.4804183"><ele>386.5</ele><time>2026-05-02T08:58:29.869Z</time></trkpt><trkpt lat="44.3453" lon="11.4804933"><ele>383.0</ele><time>2026-05-02T08:58:30.868Z</time></trkpt><trkpt lat="44.34526" lon="11.4805767"><ele>379.5</ele><time>2026-05-02T08:58:31.868Z</time></trkpt><trkpt lat="44.3452183" lon="11.4806767"><ele>376.0</ele><time>2026-05-02T08:58:32.868Z</time></trkpt><trkpt lat="44.3451783" lon="11.48078"><ele>372.5</ele><time>2026-05-02T08:58:33.868Z</time></trkpt><trkpt lat="44.345145" lon="11.4808833"><ele>369.0</ele><time>2026-05-02T08:58:34.868Z</time></trkpt><trkpt lat="44.345115" lon="11.48097"><ele>369.0</ele><time>2026-05-02T08:58:35.868Z</time></trkpt><trkpt lat="44.3450833" lon="11.48105"><ele>369.0</ele><time>2026-05-02T08:58:36.868Z</time></trkpt><trkpt lat="44.3450433" lon="11.4811267"><ele>369.0</ele><time>2026-05-02T08:58:37.868Z</time></trkpt><trkpt lat="44.3449717" lon="11.4812667"><ele>369.0</ele><time>2026-05-02T08:58:39.868Z</time></trkpt><trkpt lat="44.34492" lon="11.48143"><ele>369.0</ele><time>2026-05-02T08:58:41.868Z</time></trkpt><trkpt lat="44.34494" lon="11.4816"><ele>367.2</ele><time>2026-05-02T08:58:43.869Z</time></trkpt><trkpt lat="44.3449983" lon="11.4817433"><ele>365.4</ele><time>2026-05-02T08:58:45.869Z</time></trkpt><trkpt lat="44.3451033" lon="11.481815"><ele>363.6</ele><time>2026-05-02T08:58:47.869Z</time></trkpt><trkpt lat="44.34521" lon="11.4818683"><ele>361.8</ele><time>2026-05-02T08:58:49.868Z</time></trkpt><trkpt lat="44.3452667" lon="11.4819067"><ele>360.0</ele><time>2026-05-02T08:58:50.868Z</time></trkpt><trkpt lat="44.3453533" lon="11.48201"><ele>358.0</ele><time>2026-05-02T08:58:52.869Z</time></trkpt><trkpt lat="44.3453983" lon="11.48216"><ele>356.0</ele><time>2026-05-02T08:58:54.868Z</time></trkpt><trkpt lat="44.345375" lon="11.482295"><ele>354.0</ele><time>2026-05-02T08:58:56.868Z</time></trkpt><trkpt lat="44.34528" lon="11.4823883"><ele>352.0</ele><time>2026-05-02T08:58:58.868Z</time></trkpt><trkpt lat="44.3451817" lon="11.482405"><ele>350.0</ele><time>2026-05-02T08:59:00.868Z</time></trkpt><trkpt lat="44.3450683" lon="11.4823833"><ele>350.0</ele><time>2026-05-02T08:59:02.869Z</time></trkpt><trkpt lat="44.3449617" lon="11.48236"><ele>350.0</ele><time>2026-05-02T08:59:04.868Z</time></trkpt><trkpt lat="44.344875" lon="11.4823183"><ele>350.0</ele><time>2026-05-02T08:59:06.868Z</time></trkpt><trkpt lat="44.3447933" lon="11.4822433"><ele>350.0</ele><time>2026-05-02T08:59:08.868Z</time></trkpt><trkpt lat="44.3447117" lon="11.482175"><ele>350.0</ele><time>2026-05-02T08:59:10.868Z</time></trkpt><trkpt lat="44.344615" lon="11.482105"><ele>347.8</ele><time>2026-05-02T08:59:12.868Z</time></trkpt><trkpt lat="44.3445183" lon="11.4820133"><ele>345.6</ele><time>2026-05-02T08:59:14.868Z</time></trkpt><trkpt lat="44.344445" lon="11.4819183"><ele>343.4</ele><time>2026-05-02T08:59:16.868Z</time></trkpt><trkpt lat="44.3443617" lon="11.4818267"><ele>341.2</ele><time>2026-05-02T08:59:18.868Z</time></trkpt><trkpt lat="44.3442683" lon="11.481745"><ele>339.0</ele><time>2026-05-02T08:59:20.868Z</time></trkpt><trkpt lat="44.3441483" lon="11.4816983"><ele>339.0</ele><time>2026-05-02T08:59:22.868Z</time></trkpt><trkpt lat="44.3440767" lon="11.4816733"><ele>339.0</ele><time>2026-05-02T08:59:23.868Z</time></trkpt><trkpt lat="44.3440117" lon="11.48164"><ele>339.0</ele><time>2026-05-02T08:59:24.868Z</time></trkpt><trkpt lat="44.3439017" lon="11.4815717"><ele>339.0</ele><time>2026-05-02T08:59:26.869Z</time></trkpt><trkpt lat="44.3437817" lon="11.4815083"><ele>339.0</ele><time>2026-05-02T08:59:28.868Z</time></trkpt><trkpt lat="44.34372" lon="11.4814817"><ele>337.0</ele><time>2026-05-02T08:59:29.868Z</time></trkpt><trkpt lat="44.343655" lon="11.48145"><ele>335.0</ele><time>2026-05-02T08:59:30.868Z</time></trkpt><trkpt lat="44.3435883" lon="11.481405"><ele>333.0</ele><time>2026-05-02T08:59:31.868Z</time></trkpt><trkpt lat="44.3434917" lon="11.48129"><ele>331.0</ele><time>2026-05-02T08:59:33.868Z</time></trkpt><trkpt lat="44.3434417" lon="11.48122"><ele>329.0</ele><time>2026-05-02T08:59:34.868Z</time></trkpt><trkpt lat="44.343395" lon="11.481145"><ele>327.0</ele><time>2026-05-02T08:59:35.868Z</time></trkpt><trkpt lat="44.3433467" lon="11.481065"><ele>326.8333333333333</ele><time>2026-05-02T08:59:36.868Z</time></trkpt><trkpt lat="44.3432917" lon="11.4809767"><ele>326.6666666666667</ele><time>2026-05-02T08:59:37.868Z</time></trkpt><trkpt lat="44.34324" lon="11.4809033"><ele>326.5</ele><time>2026-05-02T08:59:38.868Z</time></trkpt><trkpt lat="44.3431767" lon="11.48083"><ele>326.33333333333337</ele><time>2026-05-02T08:59:39.868Z</time></trkpt><trkpt lat="44.3431083" lon="11.4807583"><ele>326.1666666666667</ele><time>2026-05-02T08:59:40.869Z</time></trkpt><trkpt lat="44.3430517" lon="11.480695"><ele>326.0</ele><time>2026-05-02T08:59:41.868Z</time></trkpt><trkpt lat="44.3429917" lon="11.4806367"><ele>324.14285714285717</ele><time>2026-05-02T08:59:42.868Z</time></trkpt><trkpt lat="44.3429367" lon="11.4805817"><ele>322.2857142857143</ele><time>2026-05-02T08:59:43.868Z</time></trkpt><trkpt lat="44.3428883" lon="11.4805133"><ele>320.42857142857144</ele><time>2026-05-02T08:59:44.868Z</time></trkpt><trkpt lat="44.3428417" lon="11.480445"><ele>318.57142857142856</ele><time>2026-05-02T08:59:45.868Z</time></trkpt><trkpt lat="44.342795" lon="11.48037"><ele>316.7142857142857</ele><time>2026-05-02T08:59:46.868Z</time></trkpt><trkpt lat="44.342745" lon="11.4802933"><ele>314.85714285714283</ele><time>2026-05-02T08:59:47.868Z</time></trkpt><trkpt lat="44.342695" lon="11.4802183"><ele>313.0</ele><time>2026-05-02T08:59:48.869Z</time></trkpt><trkpt lat="44.3426433" lon="11.4801533"><ele>312.57142857142856</ele><time>2026-05-02T08:59:49.869Z</time></trkpt><trkpt lat="44.3425833" lon="11.4801017"><ele>312.14285714285717</ele><time>2026-05-02T08:59:50.868Z</time></trkpt><trkpt lat="44.3425217" lon="11.4800483"><ele>311.7142857142857</ele><time>2026-05-02T08:59:51.869Z</time></trkpt><trkpt lat="44.3424583" lon="11.4800033"><ele>311.2857142857143</ele><time>2026-05-02T08:59:52.869Z</time></trkpt><trkpt lat="44.3423933" lon="11.4799483"><ele>310.85714285714283</ele><time>2026-05-02T08:59:53.868Z</time></trkpt><trkpt lat="44.3423267" lon="11.4799033"><ele>310.42857142857144</ele><time>2026-05-02T08:59:54.868Z</time></trkpt><trkpt lat="44.34226" lon="11.479865"><ele>310.0</ele><time>2026-05-02T08:59:55.869Z</time></trkpt><trkpt lat="44.3421917" lon="11.4798283"><ele>308.57142857142856</ele><time>2026-05-02T08:59:56.868Z</time></trkpt><trkpt lat="44.342125" lon="11.4797833"><ele>307.1428571428571</ele><time>2026-05-02T08:59:57.869Z</time></trkpt><trkpt lat="44.3420533" lon="11.4797317"><ele>305.71428571428567</ele><time>2026-05-02T08:59:58.868Z</time></trkpt><trkpt lat="44.3419883" lon="11.4796767"><ele>304.2857142857143</ele><time>2026-05-02T08:59:59.868Z</time></trkpt><trkpt lat="44.341925" lon="11.4796317"><ele>302.85714285714283</ele><time>2026-05-02T09:00:00.869Z</time></trkpt><trkpt lat="44.3418583" lon="11.4796017"><ele>301.4285714285714</ele><time>2026-05-02T09:00:01.869Z</time></trkpt><trkpt lat="44.341795" lon="11.47958"><ele>300.0</ele><time>2026-05-02T09:00:02.868Z</time></trkpt><trkpt lat="44.341725" lon="11.4795817"><ele>299.71428571428567</ele><time>2026-05-02T09:00:03.868Z</time></trkpt><trkpt lat="44.34165" lon="11.479585"><ele>299.42857142857144</ele><time>2026-05-02T09:00:04.869Z</time></trkpt><trkpt lat="44.3415783" lon="11.4795867"><ele>299.1428571428571</ele><time>2026-05-02T09:00:05.868Z</time></trkpt><trkpt lat="44.3415133" lon="11.47958"><ele>298.85714285714283</ele><time>2026-05-02T09:00:06.869Z</time></trkpt><trkpt lat="44.3414367" lon="11.4795617"><ele>298.57142857142856</ele><time>2026-05-02T09:00:07.868Z</time></trkpt><trkpt lat="44.3413633" lon="11.4795433"><ele>298.2857142857143</ele><time>2026-05-02T09:00:08.868Z</time></trkpt><trkpt lat="44.3412883" lon="11.479515"><ele>298.0</ele><time>2026-05-02T09:00:09.868Z</time></trkpt><trkpt lat="44.3412233" lon="11.47947"><ele>297.16666666666663</ele><time>2026-05-02T09:00:10.869Z</time></trkpt><trkpt lat="44.3411683" lon="11.479395"><ele>296.3333333333333</ele><time>2026-05-02T09:00:11.869Z</time></trkpt><trkpt lat="44.3411183" lon="11.479305"><ele>295.5</ele><time>2026-05-02T09:00:12.869Z</time></trkpt><trkpt lat="44.3410733" lon="11.4792183"><ele>294.6666666666667</ele><time>2026-05-02T09:00:13.869Z</time></trkpt><trkpt lat="44.341025" lon="11.47913"><ele>293.83333333333337</ele><time>2026-05-02T09:00:14.868Z</time></trkpt><trkpt lat="44.3409533" lon="11.4789733"><ele>293.0</ele><time>2026-05-02T09:00:16.868Z</time></trkpt><trkpt lat="44.3409067" lon="11.4789017"><ele>293.0</ele><time>2026-05-02T09:00:17.868Z</time></trkpt><trkpt lat="44.340855" lon="11.478835"><ele>293.0</ele><time>2026-05-02T09:00:18.868Z</time></trkpt><trkpt lat="44.340765" lon="11.4787533"><ele>293.0</ele><time>2026-05-02T09:00:20.869Z</time></trkpt><trkpt lat="44.3407067" lon="11.4787183"><ele>293.0</ele><time>2026-05-02T09:00:21.868Z</time></trkpt><trkpt lat="44.3406467" lon="11.4786867"><ele>293.0</ele><time>2026-05-02T09:00:22.869Z</time></trkpt><trkpt lat="44.3405067" lon="11.4786867"><ele>293.0</ele><time>2026-05-02T09:00:24.869Z</time></trkpt><trkpt lat="44.34043" lon="11.47872"><ele>290.85714285714283</ele><time>2026-05-02T09:00:25.868Z</time></trkpt><trkpt lat="44.340355" lon="11.4787683"><ele>288.7142857142857</ele><time>2026-05-02T09:00:26.868Z</time></trkpt><trkpt lat="44.34029" lon="11.478825"><ele>286.57142857142856</ele><time>2026-05-02T09:00:27.869Z</time></trkpt><trkpt lat="44.3402383" lon="11.4788967"><ele>284.42857142857144</ele><time>2026-05-02T09:00:28.868Z</time></trkpt><trkpt lat="44.3402033" lon="11.47899"><ele>282.2857142857143</ele><time>2026-05-02T09:00:29.868Z</time></trkpt><trkpt lat="44.34018" lon="11.4790817"><ele>280.1428571428571</ele><time>2026-05-02T09:00:30.868Z</time></trkpt><trkpt lat="44.3401617" lon="11.4791683"><ele>278.0</ele><time>2026-05-02T09:00:31.868Z</time></trkpt><trkpt lat="44.340115" lon="11.4793083"><ele>278.0</ele><time>2026-05-02T09:00:33.868Z</time></trkpt><trkpt lat="44.3400183" lon="11.4794083"><ele>278.0</ele><time>2026-05-02T09:00:35.868Z</time></trkpt><trkpt lat="44.339935" lon="11.4794433"><ele>278.0</ele><time>2026-05-02T09:00:36.868Z</time></trkpt><trkpt lat="44.33984" lon="11.4794917"><ele>278.0</ele><time>2026-05-02T09:00:37.868Z</time></trkpt><trkpt lat="44.3397517" lon="11.4795633"><ele>278.0</ele><time>2026-05-02T09:00:38.868Z</time></trkpt><trkpt lat="44.3396667" lon="11.4796333"><ele>276.6666666666667</ele><time>2026-05-02T09:00:39.868Z</time></trkpt><trkpt lat="44.3395867" lon="11.4797083"><ele>275.33333333333337</ele><time>2026-05-02T09:00:40.869Z</time></trkpt><trkpt lat="44.33952" lon="11.4797867"><ele>274.0</ele><time>2026-05-02T09:00:41.869Z</time></trkpt><trkpt lat="44.3394533" lon="11.4798533"><ele>272.6666666666667</ele><time>2026-05-02T09:00:42.868Z</time></trkpt><trkpt lat="44.33939" lon="11.47991"><ele>271.3333333333333</ele><time>2026-05-02T09:00:43.868Z</time></trkpt><trkpt lat="44.339325" lon="11.4799483"><ele>270.0</ele><time>2026-05-02T09:00:44.868Z</time></trkpt><trkpt lat="44.3392583" lon="11.4799783"><ele>270.0</ele><time>2026-05-02T09:00:45.868Z</time></trkpt><trkpt lat="44.3391867" lon="11.4799983"><ele>270.0</ele><time>2026-05-02T09:00:46.868Z</time></trkpt><trkpt lat="44.339105" lon="11.4800117"><ele>270.0</ele><time>2026-05-02T09:00:47.868Z</time></trkpt><trkpt lat="44.3390317" lon="11.4800167"><ele>270.0</ele><time>2026-05-02T09:00:48.869Z</time></trkpt><trkpt lat="44.3389633" lon="11.4800067"><ele>270.0</ele><time>2026-05-02T09:00:49.868Z</time></trkpt><trkpt lat="44.3388933" lon="11.4799867"><ele>270.0</ele><time>2026-05-02T09:00:50.869Z</time></trkpt><trkpt lat="44.338815" lon="11.47994"><ele>267.8</ele><time>2026-05-02T09:00:51.868Z</time></trkpt><trkpt lat="44.33874" lon="11.4799"><ele>265.6</ele><time>2026-05-02T09:00:52.868Z</time></trkpt><trkpt lat="44.33865" lon="11.4798467"><ele>263.4</ele><time>2026-05-02T09:00:53.869Z</time></trkpt><trkpt lat="44.3385483" lon="11.479795"><ele>261.2</ele><time>2026-05-02T09:00:54.868Z</time></trkpt><trkpt lat="44.338455" lon="11.4797483"><ele>259.0</ele><time>2026-05-02T09:00:55.868Z</time></trkpt><trkpt lat="44.338375" lon="11.4797083"><ele>259.0</ele><time>2026-05-02T09:00:56.869Z</time></trkpt><trkpt lat="44.338295" lon="11.4796633"><ele>259.0</ele><time>2026-05-02T09:00:57.868Z</time></trkpt><trkpt lat="44.3382133" lon="11.47962"><ele>259.0</ele><time>2026-05-02T09:00:58.868Z</time></trkpt><trkpt lat="44.33815" lon="11.4795667"><ele>259.0</ele><time>2026-05-02T09:00:59.868Z</time></trkpt><trkpt lat="44.3380783" lon="11.4795167"><ele>259.0</ele><time>2026-05-02T09:01:00.869Z</time></trkpt><trkpt lat="44.3380017" lon="11.479465"><ele>259.0</ele><time>2026-05-02T09:01:01.868Z</time></trkpt><trkpt lat="44.3379233" lon="11.479415"><ele>257.5</ele><time>2026-05-02T09:01:02.868Z</time></trkpt><trkpt lat="44.3378517" lon="11.47937"><ele>256.0</ele><time>2026-05-02T09:01:03.868Z</time></trkpt><trkpt lat="44.3377817" lon="11.4793283"><ele>254.5</ele><time>2026-05-02T09:01:04.868Z</time></trkpt><trkpt lat="44.337695" lon="11.4793133"><ele>253.0</ele><time>2026-05-02T09:01:05.868Z</time></trkpt><trkpt lat="44.337615" lon="11.4793133"><ele>251.49999999999997</ele><time>2026-05-02T09:01:06.868Z</time></trkpt><trkpt lat="44.3375383" lon="11.479325"><ele>250.0</ele><time>2026-05-02T09:01:07.868Z</time></trkpt><trkpt lat="44.3374583" lon="11.47936"><ele>249.99999999999997</ele><time>2026-05-02T09:01:08.868Z</time></trkpt><trkpt lat="44.3373783" lon="11.4794067"><ele>250.0</ele><time>2026-05-02T09:01:09.868Z</time></trkpt><trkpt lat="44.3373017" lon="11.47945"><ele>250.0</ele><time>2026-05-02T09:01:10.868Z</time></trkpt><trkpt lat="44.3372217" lon="11.4794867"><ele>250.0</ele><time>2026-05-02T09:01:11.868Z</time></trkpt><trkpt lat="44.3371483" lon="11.479525"><ele>249.99999999999997</ele><time>2026-05-02T09:01:12.868Z</time></trkpt><trkpt lat="44.3370717" lon="11.47956"><ele>250.0</ele><time>2026-05-02T09:01:13.869Z</time></trkpt><trkpt lat="44.3370017" lon="11.4795867"><ele>248.33333333333331</ele><time>2026-05-02T09:01:14.868Z</time></trkpt><trkpt lat="44.3369333" lon="11.479605"><ele>246.66666666666666</ele><time>2026-05-02T09:01:15.868Z</time></trkpt><trkpt lat="44.3368617" lon="11.4796217"><ele>245.0</ele><time>2026-05-02T09:01:16.868Z</time></trkpt><trkpt lat="44.3367883" lon="11.4796333"><ele>243.33333333333331</ele><time>2026-05-02T09:01:17.868Z</time></trkpt><trkpt lat="44.33671" lon="11.479635"><ele>241.66666666666666</ele><time>2026-05-02T09:01:18.868Z</time></trkpt><trkpt lat="44.3366217" lon="11.479645"><ele>240.0</ele><time>2026-05-02T09:01:19.868Z</time></trkpt><trkpt lat="44.3365367" lon="11.4796617"><ele>240.0</ele><time>2026-05-02T09:01:20.868Z</time></trkpt><trkpt lat="44.3364583" lon="11.4796833"><ele>240.0</ele><time>2026-05-02T09:01:21.868Z</time></trkpt><trkpt lat="44.3363833" lon="11.4797183"><ele>240.0</ele><time>2026-05-02T09:01:22.868Z</time></trkpt><trkpt lat="44.33631" lon="11.4797567"><ele>240.0</ele><time>2026-05-02T09:01:23.869Z</time></trkpt><trkpt lat="44.336235" lon="11.4797983"><ele>240.0</ele><time>2026-05-02T09:01:24.869Z</time></trkpt><trkpt lat="44.33616" lon="11.4798533"><ele>240.0</ele><time>2026-05-02T09:01:25.868Z</time></trkpt><trkpt lat="44.33609" lon="11.4799133"><ele>239.66666666666666</ele><time>2026-05-02T09:01:26.869Z</time></trkpt><trkpt lat="44.3360117" lon="11.47997"><ele>239.33333333333331</ele><time>2026-05-02T09:01:27.869Z</time></trkpt><trkpt lat="44.335945" lon="11.480025"><ele>239.0</ele><time>2026-05-02T09:01:28.868Z</time></trkpt><trkpt lat="44.3358817" lon="11.4800933"><ele>238.66666666666666</ele><time>2026-05-02T09:01:29.868Z</time></trkpt><trkpt lat="44.3358083" lon="11.48017"><ele>238.33333333333331</ele><time>2026-05-02T09:01:30.868Z</time></trkpt><trkpt lat="44.33574" lon="11.4802417"><ele>238.0</ele><time>2026-05-02T09:01:31.868Z</time></trkpt><trkpt lat="44.3356667" lon="11.4803167"><ele>238.0</ele><time>2026-05-02T09:01:32.869Z</time></trkpt><trkpt lat="44.3355783" lon="11.4803883"><ele>238.0</ele><time>2026-05-02T09:01:33.869Z</time></trkpt><trkpt lat="44.3354867" lon="11.480455"><ele>238.0</ele><time>2026-05-02T09:01:34.868Z</time></trkpt><trkpt lat="44.3353867" lon="11.4805283"><ele>238.0</ele><time>2026-05-02T09:01:35.868Z</time></trkpt><trkpt lat="44.3352717" lon="11.4806067"><ele>238.0</ele><time>2026-05-02T09:01:36.869Z</time></trkpt><trkpt lat="44.3351683" lon="11.48069"><ele>235.75</ele><time>2026-05-02T09:01:37.868Z</time></trkpt><trkpt lat="44.3350633" lon="11.4807867"><ele>233.5</ele><time>2026-05-02T09:01:38.868Z</time></trkpt><trkpt lat="44.334955" lon="11.48088"><ele>231.25</ele><time>2026-05-02T09:01:39.868Z</time></trkpt><trkpt lat="44.33485" lon="11.4809667"><ele>229.0</ele><time>2026-05-02T09:01:40.868Z</time></trkpt><trkpt lat="44.3347517" lon="11.4810583"><ele>229.0</ele><time>2026-05-02T09:01:41.869Z</time></trkpt><trkpt lat="44.33466" lon="11.4811483"><ele>229.0</ele><time>2026-05-02T09:01:42.868Z</time></trkpt><trkpt lat="44.3345617" lon="11.481225"><ele>229.0</ele><time>2026-05-02T09:01:43.868Z</time></trkpt><trkpt lat="44.3344617" lon="11.4813"><ele>229.0</ele><time>2026-05-02T09:01:44.869Z</time></trkpt><trkpt lat="44.3343483" lon="11.4813917"><ele>229.0</ele><time>2026-05-02T09:01:45.868Z</time></trkpt><trkpt lat="44.3342483" lon="11.4814783"><ele>228.99999999999997</ele><time>2026-05-02T09:01:46.868Z</time></trkpt><trkpt lat="44.3341467" lon="11.4815567"><ele>228.99999999999997</ele><time>2026-05-02T09:01:47.869Z</time></trkpt><trkpt lat="44.3340533" lon="11.4816283"><ele>229.0</ele><time>2026-05-02T09:01:48.868Z</time></trkpt><trkpt lat="44.333965" lon="11.4816967"><ele>229.0</ele><time>2026-05-02T09:01:49.868Z</time></trkpt><trkpt lat="44.33388" lon="11.4817683"><ele>228.6</ele><time>2026-05-02T09:01:50.868Z</time></trkpt><trkpt lat="44.3337967" lon="11.4818433"><ele>228.2</ele><time>2026-05-02T09:01:51.868Z</time></trkpt><trkpt lat="44.3337217" lon="11.4819283"><ele>227.79999999999998</ele><time>2026-05-02T09:01:52.868Z</time></trkpt><trkpt lat="44.333655" lon="11.48203"><ele>227.39999999999998</ele><time>2026-05-02T09:01:53.868Z</time></trkpt><trkpt lat="44.3336033" lon="11.48214"><ele>227.0</ele><time>2026-05-02T09:01:54.868Z</time></trkpt><trkpt lat="44.3335483" lon="11.4822417"><ele>227.0</ele><time>2026-05-02T09:01:55.868Z</time></trkpt><trkpt lat="44.333505" lon="11.4823733"><ele>227.0</ele><time>2026-05-02T09:01:56.868Z</time></trkpt><trkpt lat="44.3334617" lon="11.4824983"><ele>227.0</ele><time>2026-05-02T09:01:57.869Z</time></trkpt><trkpt lat="44.33341" lon="11.4826183"><ele>227.0</ele><time>2026-05-02T09:01:58.868Z</time></trkpt><trkpt lat="44.333355" lon="11.48273"><ele>227.0</ele><time>2026-05-02T09:01:59.868Z</time></trkpt><trkpt lat="44.3332983" lon="11.4828433"><ele>226.0</ele><time>2026-05-02T09:02:00.869Z</time></trkpt><trkpt lat="44.3332417" lon="11.4829483"><ele>225.0</ele><time>2026-05-02T09:02:01.868Z</time></trkpt><trkpt lat="44.333195" lon="11.4830383"><ele>224.0</ele><time>2026-05-02T09:02:02.869Z</time></trkpt><trkpt lat="44.3331333" lon="11.4831133"><ele>223.0</ele><time>2026-05-02T09:02:03.868Z</time></trkpt><trkpt lat="44.3330383" lon="11.4831983"><ele>222.0</ele><time>2026-05-02T09:02:05.868Z</time></trkpt><trkpt lat="44.3329483" lon="11.4831917"><ele>220.39999999999998</ele><time>2026-05-02T09:02:07.868Z</time></trkpt><trkpt lat="44.3328367" lon="11.4831433"><ele>218.79999999999998</ele><time>2026-05-02T09:02:09.868Z</time></trkpt><trkpt lat="44.33277" lon="11.4831033"><ele>217.2</ele><time>2026-05-02T09:02:10.868Z</time></trkpt><trkpt lat="44.3326733" lon="11.483065"><ele>215.6</ele><time>2026-05-02T09:02:11.868Z</time></trkpt><trkpt lat="44.3325467" lon="11.4830333"><ele>214.0</ele><time>2026-05-02T09:02:12.868Z</time></trkpt><trkpt lat="44.3323917" lon="11.4829983"><ele>214.0</ele><time>2026-05-02T09:02:13.869Z</time></trkpt><trkpt lat="44.33224" lon="11.48297"><ele>214.0</ele><time>2026-05-02T09:02:14.868Z</time></trkpt><trkpt lat="44.3320883" lon="11.4829483"><ele>214.0</ele><time>2026-05-02T09:02:15.868Z</time></trkpt><trkpt lat="44.3319317" lon="11.4829333"><ele>215.25</ele><time>2026-05-02T09:02:16.869Z</time></trkpt><trkpt lat="44.3317883" lon="11.48291"><ele>216.5</ele><time>2026-05-02T09:02:17.869Z</time></trkpt><trkpt lat="44.3316483" lon="11.482905"><ele>217.75</ele><time>2026-05-02T09:02:18.868Z</time></trkpt><trkpt lat="44.331525" lon="11.4828933"><ele>219.0</ele><time>2026-05-02T09:02:19.868Z</time></trkpt><trkpt lat="44.3314067" lon="11.482875"><ele>216.75</ele><time>2026-05-02T09:02:20.869Z</time></trkpt><trkpt lat="44.3312867" lon="11.482845"><ele>214.5</ele><time>2026-05-02T09:02:21.868Z</time></trkpt><trkpt lat="44.331165" lon="11.4828"><ele>212.25</ele><time>2026-05-02T09:02:22.868Z</time></trkpt><trkpt lat="44.3310617" lon="11.482745"><ele>210.0</ele><time>2026-05-02T09:02:23.868Z</time></trkpt><trkpt lat="44.3309533" lon="11.4826867"><ele>210.0</ele><time>2026-05-02T09:02:24.868Z</time></trkpt><trkpt lat="44.3308433" lon="11.48265"><ele>210.0</ele><time>2026-05-02T09:02:25.868Z</time></trkpt><trkpt lat="44.330735" lon="11.4826267"><ele>210.0</ele><time>2026-05-02T09:02:26.868Z</time></trkpt><trkpt lat="44.3306333" lon="11.4826133"><ele>210.0</ele><time>2026-05-02T09:02:27.869Z</time></trkpt><trkpt lat="44.3305267" lon="11.4826017"><ele>210.0</ele><time>2026-05-02T09:02:28.868Z</time></trkpt><trkpt lat="44.330425" lon="11.4826"><ele>209.2</ele><time>2026-05-02T09:02:29.868Z</time></trkpt><trkpt lat="44.3303183" lon="11.4825983"><ele>208.4</ele><time>2026-05-02T09:02:30.868Z</time></trkpt><trkpt lat="44.3302083" lon="11.4826017"><ele>207.60000000000002</ele><time>2026-05-02T09:02:31.868Z</time></trkpt><trkpt lat="44.3301017" lon="11.482595"><ele>206.8</ele><time>2026-05-02T09:02:32.869Z</time></trkpt><trkpt lat="44.3299983" lon="11.482565"><ele>206.0</ele><time>2026-05-02T09:02:33.868Z</time></trkpt><trkpt lat="44.329895" lon="11.4825333"><ele>206.0</ele><time>2026-05-02T09:02:34.869Z</time></trkpt><trkpt lat="44.3298017" lon="11.4824883"><ele>206.0</ele><time>2026-05-02T09:02:35.869Z</time></trkpt><trkpt lat="44.32971" lon="11.4824483"><ele>206.0</ele><time>2026-05-02T09:02:36.868Z</time></trkpt><trkpt lat="44.329615" lon="11.4824217"><ele>206.0</ele><time>2026-05-02T09:02:37.868Z</time></trkpt><trkpt lat="44.329515" lon="11.4824167"><ele>206.0</ele><time>2026-05-02T09:02:38.868Z</time></trkpt><trkpt lat="44.3294133" lon="11.4824267"><ele>206.20000000000002</ele><time>2026-05-02T09:02:39.868Z</time></trkpt><trkpt lat="44.3293183" lon="11.482445"><ele>206.4</ele><time>2026-05-02T09:02:40.869Z</time></trkpt><trkpt lat="44.3292267" lon="11.4824633"><ele>206.6</ele><time>2026-05-02T09:02:41.869Z</time></trkpt><trkpt lat="44.3291417" lon="11.4824983"><ele>206.8</ele><time>2026-05-02T09:02:42.868Z</time></trkpt><trkpt lat="44.3290617" lon="11.482555"><ele>207.0</ele><time>2026-05-02T09:02:43.868Z</time></trkpt><trkpt lat="44.3289933" lon="11.482625"><ele>207.0</ele><time>2026-05-02T09:02:44.868Z</time></trkpt><trkpt lat="44.3289317" lon="11.482715"><ele>207.0</ele><time>2026-05-02T09:02:45.868Z</time></trkpt><trkpt lat="44.3288667" lon="11.4828083"><ele>207.0</ele><time>2026-05-02T09:02:46.869Z</time></trkpt><trkpt lat="44.3288017" lon="11.4829"><ele>207.0</ele><time>2026-05-02T09:02:47.868Z</time></trkpt><trkpt lat="44.3287317" lon="11.482995"><ele>207.0</ele><time>2026-05-02T09:02:48.868Z</time></trkpt><trkpt lat="44.32865" lon="11.4830867"><ele>205.39999999999998</ele><time>2026-05-02T09:02:49.868Z</time></trkpt><trkpt lat="44.3285583" lon="11.4831617"><ele>203.79999999999998</ele><time>2026-05-02T09:02:50.869Z</time></trkpt><trkpt lat="44.32846" lon="11.48323"><ele>202.2</ele><time>2026-05-02T09:02:51.868Z</time></trkpt><trkpt lat="44.3283533" lon="11.4832867"><ele>200.6</ele><time>2026-05-02T09:02:52.868Z</time></trkpt><trkpt lat="44.3282533" lon="11.4833233"><ele>199.0</ele><time>2026-05-02T09:02:53.868Z</time></trkpt><trkpt lat="44.3281367" lon="11.4833483"><ele>198.39999999999998</ele><time>2026-05-02T09:02:54.868Z</time></trkpt><trkpt lat="44.3280317" lon="11.4833567"><ele>197.8</ele><time>2026-05-02T09:02:55.868Z</time></trkpt><trkpt lat="44.3279183" lon="11.4833483"><ele>197.2</ele><time>2026-05-02T09:02:56.869Z</time></trkpt><trkpt lat="44.3278083" lon="11.4833567"><ele>196.60000000000002</ele><time>2026-05-02T09:02:57.868Z</time></trkpt><trkpt lat="44.3277083" lon="11.4834017"><ele>196.0</ele><time>2026-05-02T09:02:58.868Z</time></trkpt><trkpt lat="44.327615" lon="11.4834483"><ele>196.0</ele><time>2026-05-02T09:02:59.869Z</time></trkpt><trkpt lat="44.3275233" lon="11.483505"><ele>196.0</ele><time>2026-05-02T09:03:00.868Z</time></trkpt><trkpt lat="44.327435" lon="11.4835483"><ele>196.0</ele><time>2026-05-02T09:03:01.869Z</time></trkpt><trkpt lat="44.327335" lon="11.4835783"><ele>196.0</ele><time>2026-05-02T09:03:02.868Z</time></trkpt><trkpt lat="44.3272317" lon="11.4835967"><ele>196.0</ele><time>2026-05-02T09:03:03.869Z</time></trkpt><trkpt lat="44.3271317" lon="11.483625"><ele>195.60000000000002</ele><time>2026-05-02T09:03:04.869Z</time></trkpt><trkpt lat="44.3270283" lon="11.4836417"><ele>195.2</ele><time>2026-05-02T09:03:05.868Z</time></trkpt><trkpt lat="44.3269283" lon="11.48363"><ele>194.8</ele><time>2026-05-02T09:03:06.868Z</time></trkpt><trkpt lat="44.3268233" lon="11.4835933"><ele>194.39999999999998</ele><time>2026-05-02T09:03:07.868Z</time></trkpt><trkpt lat="44.3267233" lon="11.4835383"><ele>194.0</ele><time>2026-05-02T09:03:08.868Z</time></trkpt><trkpt lat="44.3266167" lon="11.483465"><ele>194.0</ele><time>2026-05-02T09:03:09.868Z</time></trkpt><trkpt lat="44.326505" lon="11.4833833"><ele>194.0</ele><time>2026-05-02T09:03:10.868Z</time></trkpt><trkpt lat="44.3263983" lon="11.4833117"><ele>194.0</ele><time>2026-05-02T09:03:11.868Z</time></trkpt><trkpt lat="44.3263017" lon="11.4832567"><ele>194.0</ele><time>2026-05-02T09:03:12.868Z</time></trkpt><trkpt lat="44.3262" lon="11.4831967"><ele>193.79999999999998</ele><time>2026-05-02T09:03:13.868Z</time></trkpt><trkpt lat="44.3261" lon="11.4831567"><ele>193.6</ele><time>2026-05-02T09:03:14.868Z</time></trkpt><trkpt lat="44.3259933" lon="11.4831367"><ele>193.4</ele><time>2026-05-02T09:03:15.869Z</time></trkpt><trkpt lat="44.3258883" lon="11.4831367"><ele>193.2</ele><time>2026-05-02T09:03:16.869Z</time></trkpt><trkpt lat="44.3257783" lon="11.4831667"><ele>193.0</ele><time>2026-05-02T09:03:17.868Z</time></trkpt><trkpt lat="44.3256817" lon="11.4832233"><ele>193.0</ele><time>2026-05-02T09:03:18.869Z</time></trkpt><trkpt lat="44.325585" lon="11.48328"><ele>193.0</ele><time>2026-05-02T09:03:19.868Z</time></trkpt><trkpt lat="44.325485" lon="11.4833133"><ele>193.0</ele><time>2026-05-02T09:03:20.868Z</time></trkpt><trkpt lat="44.32538" lon="11.4833383"><ele>193.0</ele><time>2026-05-02T09:03:21.869Z</time></trkpt><trkpt lat="44.3252683" lon="11.4833567"><ele>193.0</ele><time>2026-05-02T09:03:22.869Z</time></trkpt><trkpt lat="44.3251683" lon="11.4833617"><ele>192.2</ele><time>2026-05-02T09:03:23.868Z</time></trkpt><trkpt lat="44.3250633" lon="11.4833867"><ele>191.4</ele><time>2026-05-02T09:03:24.868Z</time></trkpt><trkpt lat="44.3249567" lon="11.48342"><ele>190.6</ele><time>2026-05-02T09:03:25.868Z</time></trkpt><trkpt lat="44.3248583" lon="11.483455"><ele>189.79999999999998</ele><time>2026-05-02T09:03:26.868Z</time></trkpt><trkpt lat="44.324775" lon="11.4835017"><ele>189.0</ele><time>2026-05-02T09:03:27.868Z</time></trkpt><trkpt lat="44.3246917" lon="11.4835533"><ele>188.79999999999998</ele><time>2026-05-02T09:03:28.868Z</time></trkpt><trkpt lat="44.32461" lon="11.4836017"><ele>188.6</ele><time>2026-05-02T09:03:29.868Z</time></trkpt><trkpt lat="44.3245283" lon="11.4836467"><ele>188.4</ele><time>2026-05-02T09:03:30.869Z</time></trkpt><trkpt lat="44.3244433" lon="11.483665"><ele>188.2</ele><time>2026-05-02T09:03:31.869Z</time></trkpt><trkpt lat="44.324355" lon="11.4836617"><ele>188.0</ele><time>2026-05-02T09:03:32.868Z</time></trkpt><trkpt lat="44.3242517" lon="11.483645"><ele>188.0</ele><time>2026-05-02T09:03:33.868Z</time></trkpt><trkpt lat="44.3241383" lon="11.483625"><ele>188.0</ele><time>2026-05-02T09:03:34.869Z</time></trkpt><trkpt lat="44.3240217" lon="11.4836083"><ele>188.0</ele><time>2026-05-02T09:03:35.868Z</time></trkpt><trkpt lat="44.3239033" lon="11.4836067"><ele>188.0</ele><time>2026-05-02T09:03:36.869Z</time></trkpt><trkpt lat="44.32379" lon="11.4836033"><ele>187.60000000000002</ele><time>2026-05-02T09:03:37.869Z</time></trkpt><trkpt lat="44.32368" lon="11.4835967"><ele>187.20000000000002</ele><time>2026-05-02T09:03:38.868Z</time></trkpt><trkpt lat="44.3235717" lon="11.4835833"><ele>186.8</ele><time>2026-05-02T09:03:39.869Z</time></trkpt><trkpt lat="44.323465" lon="11.48356"><ele>186.4</ele><time>2026-05-02T09:03:40.869Z</time></trkpt><trkpt lat="44.3233633" lon="11.48353"><ele>186.0</ele><time>2026-05-02T09:03:41.868Z</time></trkpt><trkpt lat="44.3232667" lon="11.4835117"><ele>186.0</ele><time>2026-05-02T09:03:42.868Z</time></trkpt><trkpt lat="44.323175" lon="11.4834983"><ele>186.0</ele><time>2026-05-02T09:03:43.868Z</time></trkpt><trkpt lat="44.3230783" lon="11.4835083"><ele>186.0</ele><time>2026-05-02T09:03:44.869Z</time></trkpt><trkpt lat="44.3229917" lon="11.4835233"><ele>186.0</ele><time>2026-05-02T09:03:45.868Z</time></trkpt><trkpt lat="44.3229017" lon="11.4835517"><ele>186.0</ele><time>2026-05-02T09:03:46.869Z</time></trkpt><trkpt lat="44.3228083" lon="11.4835833"><ele>186.0</ele><time>2026-05-02T09:03:47.868Z</time></trkpt><trkpt lat="44.3227217" lon="11.4836133"><ele>186.0</ele><time>2026-05-02T09:03:48.868Z</time></trkpt><trkpt lat="44.3226467" lon="11.483635"><ele>186.0</ele><time>2026-05-02T09:03:49.868Z</time></trkpt><trkpt lat="44.32257" lon="11.483665"><ele>186.0</ele><time>2026-05-02T09:03:50.869Z</time></trkpt><trkpt lat="44.3224883" lon="11.4836983"><ele>186.0</ele><time>2026-05-02T09:03:51.868Z</time></trkpt><trkpt lat="44.3224183" lon="11.4837467"><ele>186.0</ele><time>2026-05-02T09:03:52.869Z</time></trkpt><trkpt lat="44.322365" lon="11.4838267"><ele>185.33333333333334</ele><time>2026-05-02T09:03:53.868Z</time></trkpt><trkpt lat="44.32232" lon="11.4839417"><ele>184.66666666666666</ele><time>2026-05-02T09:03:54.869Z</time></trkpt><trkpt lat="44.3222867" lon="11.484055"><ele>184.0</ele><time>2026-05-02T09:03:55.869Z</time></trkpt><trkpt lat="44.3222517" lon="11.4841483"><ele>183.33333333333331</ele><time>2026-05-02T09:03:56.868Z</time></trkpt><trkpt lat="44.3222233" lon="11.4842383"><ele>182.66666666666666</ele><time>2026-05-02T09:03:57.868Z</time></trkpt><trkpt lat="44.3221817" lon="11.4843333"><ele>182.0</ele><time>2026-05-02T09:03:58.868Z</time></trkpt><trkpt lat="44.3221283" lon="11.4844417"><ele>181.6</ele><time>2026-05-02T09:03:59.868Z</time></trkpt><trkpt lat="44.322065" lon="11.484535"><ele>181.2</ele><time>2026-05-02T09:04:00.869Z</time></trkpt><trkpt lat="44.321985" lon="11.4846283"><ele>180.8</ele><time>2026-05-02T09:04:01.869Z</time></trkpt><trkpt lat="44.321895" lon="11.484725"><ele>180.4</ele><time>2026-05-02T09:04:02.869Z</time></trkpt><trkpt lat="44.32181" lon="11.4847983"><ele>180.0</ele><time>2026-05-02T09:04:03.868Z</time></trkpt><trkpt lat="44.3217283" lon="11.4848683"><ele>180.0</ele><time>2026-05-02T09:04:04.868Z</time></trkpt><trkpt lat="44.3216417" lon="11.4849433"><ele>180.0</ele><time>2026-05-02T09:04:05.869Z</time></trkpt><trkpt lat="44.3215583" lon="11.4850333"><ele>180.0</ele><time>2026-05-02T09:04:06.868Z</time></trkpt><trkpt lat="44.3214783" lon="11.48513"><ele>180.0</ele><time>2026-05-02T09:04:07.868Z</time></trkpt><trkpt lat="44.3214017" lon="11.4852133"><ele>180.0</ele><time>2026-05-02T09:04:08.869Z</time></trkpt><trkpt lat="44.321325" lon="11.4852833"><ele>179.16666666666666</ele><time>2026-05-02T09:04:09.868Z</time></trkpt><trkpt lat="44.321245" lon="11.4853333"><ele>178.33333333333334</ele><time>2026-05-02T09:04:10.869Z</time></trkpt><trkpt lat="44.3211633" lon="11.48536"><ele>177.5</ele><time>2026-05-02T09:04:11.868Z</time></trkpt><trkpt lat="44.3210783" lon="11.485375"><ele>176.66666666666669</ele><time>2026-05-02T09:04:12.868Z</time></trkpt><trkpt lat="44.320995" lon="11.48539"><ele>175.83333333333334</ele><time>2026-05-02T09:04:13.868Z</time></trkpt><trkpt lat="44.3209167" lon="11.4853883"><ele>175.0</ele><time>2026-05-02T09:04:14.868Z</time></trkpt><trkpt lat="44.3208383" lon="11.485375"><ele>175.0</ele><time>2026-05-02T09:04:15.868Z</time></trkpt><trkpt lat="44.3207633" lon="11.48534"><ele>175.0</ele><time>2026-05-02T09:04:16.868Z</time></trkpt><trkpt lat="44.3207033" lon="11.48528"><ele>175.0</ele><time>2026-05-02T09:04:17.869Z</time></trkpt><trkpt lat="44.3206467" lon="11.48521"><ele>175.0</ele><time>2026-05-02T09:04:18.868Z</time></trkpt><trkpt lat="44.3205867" lon="11.4851333"><ele>175.0</ele><time>2026-05-02T09:04:19.868Z</time></trkpt><trkpt lat="44.3205217" lon="11.485075"><ele>175.0</ele><time>2026-05-02T09:04:20.868Z</time></trkpt><trkpt lat="44.3204433" lon="11.485025"><ele>174.6</ele><time>2026-05-02T09:04:21.868Z</time></trkpt><trkpt lat="44.3203783" lon="11.4849883"><ele>174.2</ele><time>2026-05-02T09:04:22.869Z</time></trkpt><trkpt lat="44.32028" lon="11.4849783"><ele>173.8</ele><time>2026-05-02T09:04:24.868Z</time></trkpt><trkpt lat="44.3202317" lon="11.4851"><ele>173.4</ele><time>2026-05-02T09:04:47.868Z</time></trkpt><trkpt lat="44.32014" lon="11.4851517"><ele>173.0</ele><time>2026-05-02T09:04:49.869Z</time></trkpt><trkpt lat="44.31999" lon="11.4851483"><ele>173.0</ele><time>2026-05-02T09:04:51.869Z</time></trkpt><trkpt lat="44.3198833" lon="11.4851567"><ele>173.0</ele><time>2026-05-02T09:04:52.869Z</time></trkpt><trkpt lat="44.3197717" lon="11.4851883"><ele>173.0</ele><time>2026-05-02T09:04:53.868Z</time></trkpt><trkpt lat="44.31966" lon="11.4852217"><ele>173.0</ele><time>2026-05-02T09:04:54.868Z</time></trkpt><trkpt lat="44.3195533" lon="11.485255"><ele>173.0</ele><time>2026-05-02T09:04:55.868Z</time></trkpt><trkpt lat="44.3194367" lon="11.4852867"><ele>172.60000000000002</ele><time>2026-05-02T09:04:56.868Z</time></trkpt><trkpt lat="44.3193267" lon="11.4853117"><ele>172.20000000000002</ele><time>2026-05-02T09:04:57.868Z</time></trkpt><trkpt lat="44.3192167" lon="11.4853283"><ele>171.8</ele><time>2026-05-02T09:04:58.868Z</time></trkpt><trkpt lat="44.3191083" lon="11.4853317"><ele>171.4</ele><time>2026-05-02T09:04:59.868Z</time></trkpt><trkpt lat="44.3189933" lon="11.4853283"><ele>171.0</ele><time>2026-05-02T09:05:00.869Z</time></trkpt><trkpt lat="44.3188817" lon="11.4853333"><ele>170.4</ele><time>2026-05-02T09:05:01.868Z</time></trkpt><trkpt lat="44.3187717" lon="11.485335"><ele>169.8</ele><time>2026-05-02T09:05:02.869Z</time></trkpt><trkpt lat="44.3186667" lon="11.4853267"><ele>169.20000000000002</ele><time>2026-05-02T09:05:03.868Z</time></trkpt><trkpt lat="44.318555" lon="11.48536"><ele>168.60000000000002</ele><time>2026-05-02T09:05:04.868Z</time></trkpt><trkpt lat="44.318445" lon="11.4853817"><ele>168.0</ele><time>2026-05-02T09:05:05.868Z</time></trkpt><trkpt lat="44.3183433" lon="11.485415"><ele>168.0</ele><time>2026-05-02T09:05:06.868Z</time></trkpt><trkpt lat="44.31824" lon="11.4854483"><ele>168.0</ele><time>2026-05-02T09:05:07.868Z</time></trkpt><trkpt lat="44.318145" lon="11.485475"><ele>168.0</ele><time>2026-05-02T09:05:08.869Z</time></trkpt><trkpt lat="44.3180567" lon="11.4855"><ele>168.0</ele><time>2026-05-02T09:05:09.868Z</time></trkpt><trkpt lat="44.317975" lon="11.4855217"><ele>168.0</ele><time>2026-05-02T09:05:10.868Z</time></trkpt><trkpt lat="44.3179033" lon="11.4855383"><ele>168.0</ele><time>2026-05-02T09:05:11.868Z</time></trkpt><trkpt lat="44.3178317" lon="11.485555"><ele>168.0</ele><time>2026-05-02T09:05:12.869Z</time></trkpt><trkpt lat="44.3177367" lon="11.4855383"><ele>168.0</ele><time>2026-05-02T09:05:14.868Z</time></trkpt><trkpt lat="44.31771" lon="11.4854567"><ele>168.0</ele><time>2026-05-02T09:05:16.869Z</time></trkpt><trkpt lat="44.317735" lon="11.4852767"><ele>168.0</ele><time>2026-05-02T09:05:18.868Z</time></trkpt><trkpt lat="44.31775" lon="11.4851883"><ele>168.0</ele><time>2026-05-02T09:05:19.868Z</time></trkpt><trkpt lat="44.31774" lon="11.4850617"><ele>168.0</ele><time>2026-05-02T09:05:21.868Z</time></trkpt><trkpt lat="44.3176717" lon="11.4849867"><ele>167.8</ele><time>2026-05-02T09:05:23.868Z</time></trkpt><trkpt lat="44.3175833" lon="11.4849283"><ele>167.60000000000002</ele><time>2026-05-02T09:05:25.868Z</time></trkpt><trkpt lat="44.3175383" lon="11.4848317"><ele>167.39999999999998</ele><time>2026-05-02T09:05:27.869Z</time></trkpt><trkpt lat="44.3175317" lon="11.4847033"><ele>167.2</ele><time>2026-05-02T09:05:29.868Z</time></trkpt><trkpt lat="44.3175333" lon="11.48455"><ele>167.0</ele><time>2026-05-02T09:05:31.868Z</time></trkpt><trkpt lat="44.31753" lon="11.484395"><ele>167.0</ele><time>2026-05-02T09:05:33.868Z</time></trkpt><trkpt lat="44.3175067" lon="11.48424"><ele>167.0</ele><time>2026-05-02T09:05:35.868Z</time></trkpt><trkpt lat="44.3174833" lon="11.484155"><ele>167.0</ele><time>2026-05-02T09:05:36.868Z</time></trkpt><trkpt lat="44.3174467" lon="11.4839917"><ele>167.0</ele><time>2026-05-02T09:05:38.868Z</time></trkpt><trkpt lat="44.3174133" lon="11.4838467"><ele>167.0</ele><time>2026-05-02T09:05:40.868Z</time></trkpt><trkpt lat="44.3173467" lon="11.48372"><ele>167.0</ele><time>2026-05-02T09:05:42.868Z</time></trkpt><trkpt lat="44.3172633" lon="11.4836317"><ele>167.0</ele><time>2026-05-02T09:05:44.869Z</time></trkpt><trkpt lat="44.3171933" lon="11.4835317"><ele>167.0</ele><time>2026-05-02T09:05:46.869Z</time></trkpt><trkpt lat="44.3171533" lon="11.4833967"><ele>167.0</ele><time>2026-05-02T09:05:48.868Z</time></trkpt><trkpt lat="44.3171217" lon="11.4832417"><ele>167.0</ele><time>2026-05-02T09:05:50.868Z</time></trkpt><trkpt lat="44.3171017" lon="11.4830917"><ele>166.66666666666666</ele><time>2026-05-02T09:05:52.868Z</time></trkpt><trkpt lat="44.3170633" lon="11.4829733"><ele>166.33333333333331</ele><time>2026-05-02T09:05:54.868Z</time></trkpt><trkpt lat="44.3170167" lon="11.4828867"><ele>166.0</ele><time>2026-05-02T09:05:57.868Z</time></trkpt><trkpt lat="44.3169933" lon="11.4827617"><ele>165.66666666666666</ele><time>2026-05-02T09:09:26.867Z</time></trkpt><trkpt lat="44.3169533" lon="11.48265"><ele>165.33333333333334</ele><time>2026-05-02T09:09:29.867Z</time></trkpt><trkpt lat="44.3169117" lon="11.4825383"><ele>165.0</ele><time>2026-05-02T09:09:31.868Z</time></trkpt><trkpt lat="44.3168717" lon="11.4823967"><ele>165.0</ele><time>2026-05-02T09:09:33.868Z</time></trkpt><trkpt lat="44.3168283" lon="11.48225"><ele>165.0</ele><time>2026-05-02T09:09:35.867Z</time></trkpt><trkpt lat="44.316795" lon="11.4821017"><ele>165.0</ele><time>2026-05-02T09:09:37.867Z</time></trkpt><trkpt lat="44.31675" lon="11.4819533"><ele>165.0</ele><time>2026-05-02T09:09:39.867Z</time></trkpt><trkpt lat="44.3167167" lon="11.4818017"><ele>165.2</ele><time>2026-05-02T09:09:41.867Z</time></trkpt><trkpt lat="44.316675" lon="11.4816517"><ele>165.4</ele><time>2026-05-02T09:09:43.868Z</time></trkpt><trkpt lat="44.316645" lon="11.4815183"><ele>165.60000000000002</ele><time>2026-05-02T09:09:45.868Z</time></trkpt><trkpt lat="44.3166183" lon="11.4813783"><ele>165.8</ele><time>2026-05-02T09:09:47.868Z</time></trkpt><trkpt lat="44.3165867" lon="11.4812283"><ele>166.0</ele><time>2026-05-02T09:09:49.867Z</time></trkpt><trkpt lat="44.316555" lon="11.4810767"><ele>166.20000000000002</ele><time>2026-05-02T09:09:51.867Z</time></trkpt><trkpt lat="44.3165317" lon="11.480925"><ele>166.4</ele><time>2026-05-02T09:09:53.867Z</time></trkpt><trkpt lat="44.316505" lon="11.480745"><ele>166.6</ele><time>2026-05-02T09:09:55.868Z</time></trkpt><trkpt lat="44.31649" lon="11.4806433"><ele>166.8</ele><time>2026-05-02T09:09:56.867Z</time></trkpt><trkpt lat="44.3164767" lon="11.480555"><ele>167.0</ele><time>2026-05-02T09:09:57.867Z</time></trkpt><trkpt lat="44.3164567" lon="11.4803983"><ele>167.2</ele><time>2026-05-02T09:09:59.867Z</time></trkpt><trkpt lat="44.3164383" lon="11.4802383"><ele>167.39999999999998</ele><time>2026-05-02T09:10:01.867Z</time></trkpt><trkpt lat="44.3164267" lon="11.48007"><ele>167.60000000000002</ele><time>2026-05-02T09:10:03.867Z</time></trkpt><trkpt lat="44.3164317" lon="11.4799783"><ele>167.8</ele><time>2026-05-02T09:10:04.867Z</time></trkpt><trkpt lat="44.3164233" lon="11.4798133"><ele>168.0</ele><time>2026-05-02T09:10:06.867Z</time></trkpt><trkpt lat="44.3164183" lon="11.4796717"><ele>168.0</ele><time>2026-05-02T09:10:08.867Z</time></trkpt><trkpt lat="44.3164083" lon="11.47958"><ele>168.0</ele><time>2026-05-02T09:10:10.867Z</time></trkpt><trkpt lat="44.316355" lon="11.479515"><ele>168.0</ele><time>2026-05-02T09:10:29.867Z</time></trkpt><trkpt lat="44.3162967" lon="11.4794483"><ele>168.0</ele><time>2026-05-02T09:10:31.867Z</time></trkpt><trkpt lat="44.316225" lon="11.47934"><ele>168.0</ele><time>2026-05-02T09:10:33.868Z</time></trkpt><trkpt lat="44.316155" lon="11.4792483"><ele>168.0</ele><time>2026-05-02T09:10:35.868Z</time></trkpt><trkpt lat="44.316085" lon="11.4791767"><ele>168.0</ele><time>2026-05-02T09:10:37.867Z</time></trkpt><trkpt lat="44.3160133" lon="11.4790833"><ele>168.0</ele><time>2026-05-02T09:10:39.867Z</time></trkpt><trkpt lat="44.315935" lon="11.4789267"><ele>168.0</ele><time>2026-05-02T09:10:41.867Z</time></trkpt><trkpt lat="44.3159017" lon="11.478825"><ele>168.0</ele><time>2026-05-02T09:10:42.867Z</time></trkpt><trkpt lat="44.3158717" lon="11.4787467"><ele>168.0</ele><time>2026-05-02T09:10:43.867Z</time></trkpt><trkpt lat="44.3158017" lon="11.4786117"><ele>168.60000000000002</ele><time>2026-05-02T09:10:45.867Z</time></trkpt><trkpt lat="44.31576" lon="11.4784467"><ele>169.20000000000002</ele><time>2026-05-02T09:10:47.867Z</time></trkpt><trkpt lat="44.315745" lon="11.47835"><ele>169.8</ele><time>2026-05-02T09:10:48.867Z</time></trkpt><trkpt lat="44.315735" lon="11.4781883"><ele>170.4</ele><time>2026-05-02T09:10:50.867Z</time></trkpt><trkpt lat="44.31571" lon="11.4780067"><ele>171.0</ele><time>2026-05-02T09:10:52.867Z</time></trkpt><trkpt lat="44.3156883" lon="11.47791"><ele>171.28571428571428</ele><time>2026-05-02T09:10:53.868Z</time></trkpt><trkpt lat="44.3156583" lon="11.4778183"><ele>171.57142857142856</ele><time>2026-05-02T09:10:54.867Z</time></trkpt><trkpt lat="44.3156317" lon="11.477725"><ele>171.85714285714283</ele><time>2026-05-02T09:10:55.867Z</time></trkpt><trkpt lat="44.3155983" lon="11.4776367"><ele>172.14285714285714</ele><time>2026-05-02T09:10:56.867Z</time></trkpt><trkpt lat="44.3155583" lon="11.4775567"><ele>172.42857142857144</ele><time>2026-05-02T09:10:57.867Z</time></trkpt><trkpt lat="44.315525" lon="11.4774633"><ele>172.7142857142857</ele><time>2026-05-02T09:10:58.867Z</time></trkpt><trkpt lat="44.3154833" lon="11.4773633"><ele>173.0</ele><time>2026-05-02T09:10:59.867Z</time></trkpt><trkpt lat="44.315445" lon="11.477255"><ele>173.0</ele><time>2026-05-02T09:11:00.867Z</time></trkpt><trkpt lat="44.31541" lon="11.477145"><ele>173.0</ele><time>2026-05-02T09:11:01.868Z</time></trkpt><trkpt lat="44.31539" lon="11.4770283"><ele>173.0</ele><time>2026-05-02T09:11:02.867Z</time></trkpt><trkpt lat="44.3153767" lon="11.4769217"><ele>173.0</ele><time>2026-05-02T09:11:03.867Z</time></trkpt><trkpt lat="44.315365" lon="11.4768083"><ele>173.0</ele><time>2026-05-02T09:11:04.867Z</time></trkpt><trkpt lat="44.3153467" lon="11.4767017"><ele>173.0</ele><time>2026-05-02T09:11:05.867Z</time></trkpt><trkpt lat="44.3153283" lon="11.4766"><ele>173.0</ele><time>2026-05-02T09:11:06.867Z</time></trkpt><trkpt lat="44.3153033" lon="11.4765117"><ele>173.0</ele><time>2026-05-02T09:11:07.867Z</time></trkpt><trkpt lat="44.3152783" lon="11.47643"><ele>173.0</ele><time>2026-05-02T09:11:08.867Z</time></trkpt><trkpt lat="44.3152483" lon="11.4763517"><ele>173.0</ele><time>2026-05-02T09:11:09.867Z</time></trkpt><trkpt lat="44.3152033" lon="11.476225"><ele>173.0</ele><time>2026-05-02T09:11:11.868Z</time></trkpt><trkpt lat="44.3151667" lon="11.4761467"><ele>173.0</ele><time>2026-05-02T09:11:13.868Z</time></trkpt><trkpt lat="44.31515" lon="11.4762517"><ele>173.0</ele><time>2026-05-02T09:13:23.867Z</time></trkpt><trkpt lat="44.315215" lon="11.476355"><ele>172.60000000000002</ele><time>2026-05-02T09:13:25.867Z</time></trkpt><trkpt lat="44.315275" lon="11.4765033"><ele>172.20000000000002</ele><time>2026-05-02T09:13:27.867Z</time></trkpt><trkpt lat="44.3153" lon="11.4765983"><ele>171.8</ele><time>2026-05-02T09:13:28.868Z</time></trkpt><trkpt lat="44.3153267" lon="11.47672"><ele>171.4</ele><time>2026-05-02T09:13:29.868Z</time></trkpt><trkpt lat="44.315345" lon="11.476855"><ele>171.0</ele><time>2026-05-02T09:13:30.867Z</time></trkpt><trkpt lat="44.3153717" lon="11.4769683"><ele>171.0</ele><time>2026-05-02T09:13:31.867Z</time></trkpt><trkpt lat="44.315395" lon="11.4770667"><ele>171.0</ele><time>2026-05-02T09:13:32.867Z</time></trkpt><trkpt lat="44.3154233" lon="11.4771533"><ele>171.0</ele><time>2026-05-02T09:13:33.867Z</time></trkpt><trkpt lat="44.3154567" lon="11.47725"><ele>171.0</ele><time>2026-05-02T09:13:34.867Z</time></trkpt><trkpt lat="44.3154933" lon="11.4773583"><ele>171.0</ele><time>2026-05-02T09:13:35.867Z</time></trkpt><trkpt lat="44.3155317" lon="11.4774683"><ele>171.0</ele><time>2026-05-02T09:13:36.867Z</time></trkpt><trkpt lat="44.3155683" lon="11.477575"><ele>170.99999999999997</ele><time>2026-05-02T09:13:37.867Z</time></trkpt><trkpt lat="44.3156067" lon="11.4776783"><ele>171.0</ele><time>2026-05-02T09:13:38.868Z</time></trkpt><trkpt lat="44.3156383" lon="11.4777733"><ele>171.0</ele><time>2026-05-02T09:13:39.867Z</time></trkpt><trkpt lat="44.3156567" lon="11.47786"><ele>171.0</ele><time>2026-05-02T09:13:40.867Z</time></trkpt><trkpt lat="44.31568" lon="11.477945"><ele>171.0</ele><time>2026-05-02T09:13:41.867Z</time></trkpt><trkpt lat="44.3156967" lon="11.478035"><ele>170.99999999999997</ele><time>2026-05-02T09:13:42.868Z</time></trkpt><trkpt lat="44.3157133" lon="11.4781217"><ele>171.0</ele><time>2026-05-02T09:13:43.867Z</time></trkpt><trkpt lat="44.3157233" lon="11.4782583"><ele>171.0</ele><time>2026-05-02T09:13:45.868Z</time></trkpt><trkpt lat="44.3157283" lon="11.47835"><ele>171.0</ele><time>2026-05-02T09:13:47.867Z</time></trkpt><trkpt lat="44.3157617" lon="11.478495"><ele>171.0</ele><time>2026-05-02T09:14:09.867Z</time></trkpt><trkpt lat="44.315785" lon="11.4785817"><ele>171.0</ele><time>2026-05-02T09:14:10.868Z</time></trkpt><trkpt lat="44.31583" lon="11.4786983"><ele>171.0</ele><time>2026-05-02T09:14:12.867Z</time></trkpt><trkpt lat="44.3158817" lon="11.47879"><ele>171.0</ele><time>2026-05-02T09:14:14.868Z</time></trkpt><trkpt lat="44.3159267" lon="11.4788983"><ele>170.5</ele><time>2026-05-02T09:14:16.868Z</time></trkpt><trkpt lat="44.3159683" lon="11.47899"><ele>170.0</ele><time>2026-05-02T09:14:18.867Z</time></trkpt><trkpt lat="44.31602" lon="11.4790967"><ele>169.5</ele><time>2026-05-02T09:14:20.868Z</time></trkpt><trkpt lat="44.3160867" lon="11.479185"><ele>169.0</ele><time>2026-05-02T09:14:22.867Z</time></trkpt><trkpt lat="44.3161583" lon="11.47927"><ele>168.5</ele><time>2026-05-02T09:14:24.868Z</time></trkpt><trkpt lat="44.316225" lon="11.4793533"><ele>168.0</ele><time>2026-05-02T09:14:26.867Z</time></trkpt><trkpt lat="44.3162767" lon="11.4794217"><ele>168.0</ele><time>2026-05-02T09:14:28.867Z</time></trkpt><trkpt lat="44.31632" lon="11.4794917"><ele>168.0</ele><time>2026-05-02T09:14:41.867Z</time></trkpt><trkpt lat="44.3162567" lon="11.4794583"><ele>168.0</ele><time>2026-05-02T09:15:08.866Z</time></trkpt><trkpt lat="44.3161517" lon="11.4794467"><ele>168.0</ele><time>2026-05-02T09:15:11.867Z</time></trkpt><trkpt lat="44.31607" lon="11.4794233"><ele>168.0</ele><time>2026-05-02T09:15:13.866Z</time></trkpt><trkpt lat="44.3160067" lon="11.4793483"><ele>168.0</ele><time>2026-05-02T09:15:16.866Z</time></trkpt><trkpt lat="44.31596" lon="11.4792517"><ele>168.0</ele><time>2026-05-02T09:15:20.867Z</time></trkpt><trkpt lat="44.3159133" lon="11.4791867"><ele>168.0</ele><time>2026-05-02T09:15:24.866Z</time></trkpt><trkpt lat="44.31583" lon="11.47916"><ele>168.0</ele><time>2026-05-02T09:15:40.866Z</time></trkpt><trkpt lat="44.31576" lon="11.47912"><ele>168.0</ele><time>2026-05-02T09:15:43.867Z</time></trkpt><trkpt lat="44.3156883" lon="11.47904"><ele>168.0</ele><time>2026-05-02T09:15:46.866Z</time></trkpt><trkpt lat="44.3156483" lon="11.4789683"><ele>168.0</ele><time>2026-05-02T09:15:57.867Z</time></trkpt><trkpt lat="44.3156183" lon="11.4788833"><ele>168.0</ele><time>2026-05-02T09:15:59.867Z</time></trkpt><trkpt lat="44.3155867" lon="11.478805"><ele>168.0</ele><time>2026-05-02T09:16:02.866Z</time></trkpt><trkpt lat="44.3155317" lon="11.478715"><ele>168.0</ele><time>2026-05-02T09:16:09.866Z</time></trkpt><trkpt lat="44.3154933" lon="11.4786267"><ele>168.0</ele><time>2026-05-02T09:16:12.867Z</time></trkpt><trkpt lat="44.31546" lon="11.4785467"><ele>168.0</ele><time>2026-05-02T09:16:14.866Z</time></trkpt><trkpt lat="44.31541" lon="11.478435"><ele>168.0</ele><time>2026-05-02T09:16:17.867Z</time></trkpt><trkpt lat="44.3153733" lon="11.478355"><ele>168.83333333333334</ele><time>2026-05-02T09:16:19.866Z</time></trkpt><trkpt lat="44.315335" lon="11.47827"><ele>169.66666666666666</ele><time>2026-05-02T09:16:22.866Z</time></trkpt><trkpt lat="44.3153117" lon="11.4781583"><ele>170.5</ele><time>2026-05-02T09:16:25.866Z</time></trkpt><trkpt lat="44.31527" lon="11.47806"><ele>171.33333333333331</ele><time>2026-05-02T09:16:29.866Z</time></trkpt><trkpt lat="44.3152267" lon="11.477965"><ele>172.16666666666666</ele><time>2026-05-02T09:16:33.867Z</time></trkpt><trkpt lat="44.3151817" lon="11.477865"><ele>173.0</ele><time>2026-05-02T09:16:36.866Z</time></trkpt><trkpt lat="44.3151383" lon="11.477795"><ele>173.0</ele><time>2026-05-02T09:16:38.866Z</time></trkpt><trkpt lat="44.3150883" lon="11.4777083"><ele>173.0</ele><time>2026-05-02T09:16:41.866Z</time></trkpt><trkpt lat="44.3150433" lon="11.4776333"><ele>173.0</ele><time>2026-05-02T09:16:44.866Z</time></trkpt><trkpt lat="44.31498" lon="11.4775583"><ele>173.0</ele><time>2026-05-02T09:16:47.866Z</time></trkpt><trkpt lat="44.315025" lon="11.4776433"><ele>173.0</ele><time>2026-05-02T09:22:48.866Z</time></trkpt><trkpt lat="44.3150733" lon="11.4777067"><ele>173.0</ele><time>2026-05-02T09:26:26.865Z</time></trkpt><trkpt lat="44.3151467" lon="11.47781"><ele>173.0</ele><time>2026-05-02T09:26:34.864Z</time></trkpt><trkpt lat="44.315195" lon="11.4778933"><ele>173.0</ele><time>2026-05-02T09:26:36.865Z</time></trkpt><trkpt lat="44.3152383" lon="11.47798"><ele>173.0</ele><time>2026-05-02T09:26:38.864Z</time></trkpt><trkpt lat="44.3152717" lon="11.4780633"><ele>173.0</ele><time>2026-05-02T09:26:40.864Z</time></trkpt><trkpt lat="44.3153217" lon="11.4781667"><ele>173.0</ele><time>2026-05-02T09:26:43.864Z</time></trkpt><trkpt lat="44.3153567" lon="11.4782417"><ele>173.0</ele><time>2026-05-02T09:26:45.864Z</time></trkpt><trkpt lat="44.3154117" lon="11.478355"><ele>172.66666666666666</ele><time>2026-05-02T09:26:48.864Z</time></trkpt><trkpt lat="44.3154533" lon="11.4784417"><ele>172.33333333333331</ele><time>2026-05-02T09:26:50.864Z</time></trkpt><trkpt lat="44.315495" lon="11.47851"><ele>172.0</ele><time>2026-05-02T09:26:53.864Z</time></trkpt><trkpt lat="44.3155333" lon="11.4785933"><ele>171.66666666666666</ele><time>2026-05-02T09:27:08.864Z</time></trkpt><trkpt lat="44.315585" lon="11.4787067"><ele>171.33333333333334</ele><time>2026-05-02T09:27:56.865Z</time></trkpt><trkpt lat="44.3155783" lon="11.4788167"><ele>171.0</ele><time>2026-05-02T09:28:09.864Z</time></trkpt><trkpt lat="44.3155983" lon="11.47891"><ele>170.5</ele><time>2026-05-02T09:28:12.864Z</time></trkpt><trkpt lat="44.31563" lon="11.4790183"><ele>170.0</ele><time>2026-05-02T09:28:15.864Z</time></trkpt><trkpt lat="44.315645" lon="11.4791083"><ele>169.5</ele><time>2026-05-02T09:28:18.865Z</time></trkpt><trkpt lat="44.3156817" lon="11.4792067"><ele>169.0</ele><time>2026-05-02T09:28:23.864Z</time></trkpt><trkpt lat="44.3157267" lon="11.479275"><ele>168.5</ele><time>2026-05-02T09:28:27.864Z</time></trkpt><trkpt lat="44.3158633" lon="11.4792833"><ele>168.0</ele><time>2026-05-02T09:28:56.864Z</time></trkpt><trkpt lat="44.31593" lon="11.47928"><ele>168.0</ele><time>2026-05-02T09:29:00.864Z</time></trkpt><trkpt lat="44.3159933" lon="11.47932"><ele>168.0</ele><time>2026-05-02T09:29:03.863Z</time></trkpt><trkpt lat="44.3160533" lon="11.479375"><ele>168.0</ele><time>2026-05-02T09:29:05.863Z</time></trkpt><trkpt lat="44.3161083" lon="11.479435"><ele>168.0</ele><time>2026-05-02T09:29:07.863Z</time></trkpt><trkpt lat="44.31617" lon="11.4794683"><ele>168.0</ele><time>2026-05-02T09:29:09.863Z</time></trkpt><trkpt lat="44.3162333" lon="11.4794717"><ele>168.0</ele><time>2026-05-02T09:29:11.863Z</time></trkpt><trkpt lat="44.3162783" lon="11.47941"><ele>168.0</ele><time>2026-05-02T09:29:15.863Z</time></trkpt><trkpt lat="44.3162417" lon="11.4793383"><ele>168.0</ele><time>2026-05-02T09:29:52.863Z</time></trkpt><trkpt lat="44.3161683" lon="11.47925"><ele>168.0</ele><time>2026-05-02T09:29:54.864Z</time></trkpt><trkpt lat="44.3160817" lon="11.4791517"><ele>168.0</ele><time>2026-05-02T09:29:56.863Z</time></trkpt><trkpt lat="44.31601" lon="11.47904"><ele>168.0</ele><time>2026-05-02T09:29:58.864Z</time></trkpt><trkpt lat="44.315975" lon="11.478965"><ele>168.0</ele><time>2026-05-02T09:29:59.864Z</time></trkpt><trkpt lat="44.315935" lon="11.47888"><ele>168.0</ele><time>2026-05-02T09:30:00.864Z</time></trkpt><trkpt lat="44.3158933" lon="11.478785"><ele>168.0</ele><time>2026-05-02T09:30:01.863Z</time></trkpt><trkpt lat="44.3158517" lon="11.4786933"><ele>168.0</ele><time>2026-05-02T09:30:02.864Z</time></trkpt><trkpt lat="44.3158117" lon="11.4786133"><ele>168.0</ele><time>2026-05-02T09:30:03.863Z</time></trkpt><trkpt lat="44.3157783" lon="11.4785367"><ele>168.0</ele><time>2026-05-02T09:30:04.863Z</time></trkpt><trkpt lat="44.3157533" lon="11.4784533"><ele>168.0</ele><time>2026-05-02T09:30:05.863Z</time></trkpt><trkpt lat="44.31574" lon="11.4783467"><ele>168.0</ele><time>2026-05-02T09:30:06.863Z</time></trkpt><trkpt lat="44.3157333" lon="11.47822"><ele>168.60000000000002</ele><time>2026-05-02T09:30:07.864Z</time></trkpt><trkpt lat="44.3157167" lon="11.47809"><ele>169.20000000000002</ele><time>2026-05-02T09:30:08.863Z</time></trkpt><trkpt lat="44.3156917" lon="11.47796"><ele>169.8</ele><time>2026-05-02T09:30:09.863Z</time></trkpt><trkpt lat="44.315665" lon="11.4778183"><ele>170.4</ele><time>2026-05-02T09:30:10.863Z</time></trkpt><trkpt lat="44.31562" lon="11.4776733"><ele>171.0</ele><time>2026-05-02T09:30:11.863Z</time></trkpt><trkpt lat="44.3155633" lon="11.4775217"><ele>171.0</ele><time>2026-05-02T09:30:12.863Z</time></trkpt><trkpt lat="44.3155117" lon="11.47735"><ele>171.0</ele><time>2026-05-02T09:30:13.863Z</time></trkpt><trkpt lat="44.3154567" lon="11.4772"><ele>171.0</ele><time>2026-05-02T09:30:14.864Z</time></trkpt><trkpt lat="44.3154167" lon="11.477065"><ele>171.0</ele><time>2026-05-02T09:30:15.864Z</time></trkpt><trkpt lat="44.315385" lon="11.4769117"><ele>171.0</ele><time>2026-05-02T09:30:16.864Z</time></trkpt><trkpt lat="44.3153467" lon="11.47673"><ele>171.0</ele><time>2026-05-02T09:30:17.863Z</time></trkpt><trkpt lat="44.315305" lon="11.4765567"><ele>171.0</ele><time>2026-05-02T09:30:18.864Z</time></trkpt><trkpt lat="44.31526" lon="11.4764067"><ele>171.0</ele><time>2026-05-02T09:30:19.863Z</time></trkpt><trkpt lat="44.315215" lon="11.476275"><ele>171.4</ele><time>2026-05-02T09:30:20.864Z</time></trkpt><trkpt lat="44.315175" lon="11.476155"><ele>171.8</ele><time>2026-05-02T09:30:21.863Z</time></trkpt><trkpt lat="44.31514" lon="11.476045"><ele>172.20000000000002</ele><time>2026-05-02T09:30:22.863Z</time></trkpt><trkpt lat="44.3151017" lon="11.4759533"><ele>172.60000000000002</ele><time>2026-05-02T09:30:23.863Z</time></trkpt><trkpt lat="44.315045" lon="11.4757967"><ele>173.0</ele><time>2026-05-02T09:30:25.863Z</time></trkpt><trkpt lat="44.3150233" lon="11.475705"><ele>173.0</ele><time>2026-05-02T09:30:26.863Z</time></trkpt><trkpt lat="44.315015" lon="11.4756017"><ele>173.0</ele><time>2026-05-02T09:30:27.863Z</time></trkpt><trkpt lat="44.3150083" lon="11.4755017"><ele>173.0</ele><time>2026-05-02T09:30:28.864Z</time></trkpt><trkpt lat="44.315" lon="11.475375"><ele>173.0</ele><time>2026-05-02T09:30:30.863Z</time></trkpt><trkpt lat="44.314955" lon="11.47531"><ele>173.0</ele><time>2026-05-02T09:30:41.863Z</time></trkpt><trkpt lat="44.3148817" lon="11.4752033"><ele>173.0</ele><time>2026-05-02T09:30:43.864Z</time></trkpt><trkpt lat="44.314835" lon="11.4750817"><ele>173.66666666666666</ele><time>2026-05-02T09:30:45.863Z</time></trkpt><trkpt lat="44.3147917" lon="11.4749733"><ele>174.33333333333331</ele><time>2026-05-02T09:30:47.863Z</time></trkpt><trkpt lat="44.31476" lon="11.4748633"><ele>175.0</ele><time>2026-05-02T09:30:50.863Z</time></trkpt><trkpt lat="44.3147167" lon="11.47475"><ele>175.66666666666666</ele><time>2026-05-02T09:30:53.864Z</time></trkpt><trkpt lat="44.3146617" lon="11.4746433"><ele>176.33333333333334</ele><time>2026-05-02T09:30:55.864Z</time></trkpt><trkpt lat="44.3146133" lon="11.4745417"><ele>177.0</ele><time>2026-05-02T09:30:57.863Z</time></trkpt><trkpt lat="44.3145867" lon="11.4744533"><ele>177.16666666666666</ele><time>2026-05-02T09:30:59.863Z</time></trkpt><trkpt lat="44.3145783" lon="11.4743483"><ele>177.33333333333334</ele><time>2026-05-02T09:31:01.863Z</time></trkpt><trkpt lat="44.314575" lon="11.4742283"><ele>177.5</ele><time>2026-05-02T09:31:11.863Z</time></trkpt><trkpt lat="44.31456" lon="11.4741183"><ele>177.66666666666669</ele><time>2026-05-02T09:31:13.863Z</time></trkpt><trkpt lat="44.3145467" lon="11.4740183"><ele>177.83333333333334</ele><time>2026-05-02T09:31:15.864Z</time></trkpt><trkpt lat="44.3145267" lon="11.4739"><ele>178.0</ele><time>2026-05-02T09:31:18.863Z</time></trkpt><trkpt lat="44.3145117" lon="11.4738"><ele>177.83333333333334</ele><time>2026-05-02T09:31:20.863Z</time></trkpt><trkpt lat="44.3144983" lon="11.4736867"><ele>177.66666666666669</ele><time>2026-05-02T09:31:23.863Z</time></trkpt><trkpt lat="44.3144883" lon="11.473595"><ele>177.5</ele><time>2026-05-02T09:31:25.863Z</time></trkpt><trkpt lat="44.31446" lon="11.4734533"><ele>177.33333333333334</ele><time>2026-05-02T09:31:27.863Z</time></trkpt><trkpt lat="44.314445" lon="11.4733367"><ele>177.16666666666666</ele><time>2026-05-02T09:31:29.864Z</time></trkpt><trkpt lat="44.3144367" lon="11.4732233"><ele>177.0</ele><time>2026-05-02T09:31:31.863Z</time></trkpt><trkpt lat="44.3143917" lon="11.4731267"><ele>177.0</ele><time>2026-05-02T09:31:34.864Z</time></trkpt><trkpt lat="44.3143267" lon="11.47314"><ele>177.0</ele><time>2026-05-02T09:31:39.863Z</time></trkpt><trkpt lat="44.3142867" lon="11.4732283"><ele>177.0</ele><time>2026-05-02T09:31:42.863Z</time></trkpt><trkpt lat="44.3142533" lon="11.47333"><ele>177.0</ele><time>2026-05-02T09:31:45.863Z</time></trkpt><trkpt lat="44.3142533" lon="11.473445"><ele>177.0</ele><time>2026-05-02T09:31:48.863Z</time></trkpt><trkpt lat="44.3142783" lon="11.4733533"><ele>177.0</ele><time>2026-05-02T09:31:53.863Z</time></trkpt><trkpt lat="44.3142617" lon="11.4732317"><ele>177.0</ele><time>2026-05-02T09:31:55.863Z</time></trkpt><trkpt lat="44.3142433" lon="11.473075"><ele>177.0</ele><time>2026-05-02T09:31:57.863Z</time></trkpt><trkpt lat="44.3142217" lon="11.4729367"><ele>177.0</ele><time>2026-05-02T09:31:59.863Z</time></trkpt><trkpt lat="44.31419" lon="11.4727917"><ele>177.0</ele><time>2026-05-02T09:32:01.864Z</time></trkpt><trkpt lat="44.3141533" lon="11.47264"><ele>177.0</ele><time>2026-05-02T09:32:03.864Z</time></trkpt><trkpt lat="44.31411" lon="11.4725133"><ele>176.83333333333334</ele><time>2026-05-02T09:32:05.863Z</time></trkpt><trkpt lat="44.3140583" lon="11.4723817"><ele>176.66666666666666</ele><time>2026-05-02T09:32:07.863Z</time></trkpt><trkpt lat="44.3139817" lon="11.47228"><ele>176.5</ele><time>2026-05-02T09:32:09.864Z</time></trkpt><trkpt lat="44.3139267" lon="11.4722367"><ele>176.33333333333331</ele><time>2026-05-02T09:32:10.863Z</time></trkpt><trkpt lat="44.3138617" lon="11.4721883"><ele>176.16666666666666</ele><time>2026-05-02T09:32:11.863Z</time></trkpt><trkpt lat="44.31378" lon="11.4721483"><ele>176.0</ele><time>2026-05-02T09:32:12.864Z</time></trkpt><trkpt lat="44.3136983" lon="11.4721117"><ele>176.0</ele><time>2026-05-02T09:32:13.864Z</time></trkpt><trkpt lat="44.3136117" lon="11.4720683"><ele>176.0</ele><time>2026-05-02T09:32:14.864Z</time></trkpt><trkpt lat="44.3135167" lon="11.47202"><ele>176.0</ele><time>2026-05-02T09:32:15.863Z</time></trkpt><trkpt lat="44.3134283" lon="11.471975"><ele>176.0</ele><time>2026-05-02T09:32:16.863Z</time></trkpt><trkpt lat="44.3133417" lon="11.4719317"><ele>176.0</ele><time>2026-05-02T09:32:17.864Z</time></trkpt><trkpt lat="44.3132467" lon="11.4718983"><ele>176.0</ele><time>2026-05-02T09:32:18.863Z</time></trkpt><trkpt lat="44.3131483" lon="11.4718683"><ele>176.0</ele><time>2026-05-02T09:32:19.863Z</time></trkpt><trkpt lat="44.3130467" lon="11.4718367"><ele>176.0</ele><time>2026-05-02T09:32:20.864Z</time></trkpt><trkpt lat="44.3129483" lon="11.4718083"><ele>176.0</ele><time>2026-05-02T09:32:21.864Z</time></trkpt><trkpt lat="44.3128583" lon="11.471785"><ele>176.0</ele><time>2026-05-02T09:32:22.863Z</time></trkpt><trkpt lat="44.3127817" lon="11.471755"><ele>176.16666666666666</ele><time>2026-05-02T09:32:23.863Z</time></trkpt><trkpt lat="44.3127183" lon="11.47172"><ele>176.33333333333331</ele><time>2026-05-02T09:32:24.863Z</time></trkpt><trkpt lat="44.3126617" lon="11.47168"><ele>176.5</ele><time>2026-05-02T09:32:25.864Z</time></trkpt><trkpt lat="44.3125817" lon="11.4716267"><ele>176.66666666666666</ele><time>2026-05-02T09:32:27.863Z</time></trkpt><trkpt lat="44.3125117" lon="11.4716317"><ele>176.83333333333334</ele><time>2026-05-02T09:32:34.863Z</time></trkpt><trkpt lat="44.312435" lon="11.4716717"><ele>177.0</ele><time>2026-05-02T09:32:36.863Z</time></trkpt><trkpt lat="44.3123533" lon="11.471715"><ele>177.0</ele><time>2026-05-02T09:32:38.863Z</time></trkpt><trkpt lat="44.3122833" lon="11.4717317"><ele>177.0</ele><time>2026-05-02T09:32:40.863Z</time></trkpt><trkpt lat="44.3122167" lon="11.471705"><ele>177.0</ele><time>2026-05-02T09:32:43.863Z</time></trkpt><trkpt lat="44.3121683" lon="11.471615"><ele>177.0</ele><time>2026-05-02T09:32:45.863Z</time></trkpt><trkpt lat="44.3121117" lon="11.47151"><ele>177.0</ele><time>2026-05-02T09:32:47.863Z</time></trkpt><trkpt lat="44.3120583" lon="11.4714467"><ele>177.0</ele><time>2026-05-02T09:32:49.863Z</time></trkpt><trkpt lat="44.31201" lon="11.4713617"><ele>178.16666666666666</ele><time>2026-05-02T09:32:52.864Z</time></trkpt><trkpt lat="44.3119783" lon="11.471285"><ele>179.33333333333334</ele><time>2026-05-02T09:32:54.863Z</time></trkpt><trkpt lat="44.3119983" lon="11.47137"><ele>180.5</ele><time>2026-05-02T09:41:32.861Z</time></trkpt><trkpt lat="44.3120517" lon="11.4714683"><ele>181.66666666666669</ele><time>2026-05-02T09:41:35.861Z</time></trkpt><trkpt lat="44.3121033" lon="11.4715367"><ele>182.83333333333334</ele><time>2026-05-02T09:41:38.862Z</time></trkpt><trkpt lat="44.31215" lon="11.4716267"><ele>184.0</ele><time>2026-05-02T09:41:40.862Z</time></trkpt><trkpt lat="44.3122067" lon="11.4717167"><ele>182.6</ele><time>2026-05-02T09:41:42.861Z</time></trkpt><trkpt lat="44.3122733" lon="11.471735"><ele>181.2</ele><time>2026-05-02T09:41:44.861Z</time></trkpt><trkpt lat="44.3123683" lon="11.471715"><ele>179.79999999999998</ele><time>2026-05-02T09:41:46.861Z</time></trkpt><trkpt lat="44.3124533" lon="11.4716667"><ele>178.39999999999998</ele><time>2026-05-02T09:41:48.861Z</time></trkpt><trkpt lat="44.3125833" lon="11.47165"><ele>177.0</ele><time>2026-05-02T09:41:55.862Z</time></trkpt><trkpt lat="44.3126833" lon="11.4717067"><ele>177.0</ele><time>2026-05-02T09:41:57.861Z</time></trkpt><trkpt lat="44.3127917" lon="11.47177"><ele>177.0</ele><time>2026-05-02T09:41:59.862Z</time></trkpt><trkpt lat="44.3128517" lon="11.4717983"><ele>177.0</ele><time>2026-05-02T09:42:00.861Z</time></trkpt><trkpt lat="44.31292" lon="11.471815"><ele>177.0</ele><time>2026-05-02T09:42:01.862Z</time></trkpt><trkpt lat="44.3130417" lon="11.47184"><ele>177.0</ele><time>2026-05-02T09:42:03.861Z</time></trkpt><trkpt lat="44.313105" lon="11.4718617"><ele>177.0</ele><time>2026-05-02T09:42:04.861Z</time></trkpt><trkpt lat="44.3131733" lon="11.471885"><ele>176.83333333333334</ele><time>2026-05-02T09:42:05.861Z</time></trkpt><trkpt lat="44.3132467" lon="11.4719017"><ele>176.66666666666666</ele><time>2026-05-02T09:42:06.862Z</time></trkpt><trkpt lat="44.3133233" lon="11.4719283"><ele>176.5</ele><time>2026-05-02T09:42:07.862Z</time></trkpt><trkpt lat="44.313395" lon="11.4719633"><ele>176.33333333333331</ele><time>2026-05-02T09:42:08.861Z</time></trkpt><trkpt lat="44.3134683" lon="11.4720033"><ele>176.16666666666666</ele><time>2026-05-02T09:42:09.861Z</time></trkpt><trkpt lat="44.3135417" lon="11.4720367"><ele>176.0</ele><time>2026-05-02T09:42:10.862Z</time></trkpt><trkpt lat="44.313615" lon="11.4720733"><ele>176.0</ele><time>2026-05-02T09:42:11.862Z</time></trkpt><trkpt lat="44.3136917" lon="11.472105"><ele>176.0</ele><time>2026-05-02T09:42:12.861Z</time></trkpt><trkpt lat="44.313765" lon="11.47214"><ele>176.0</ele><time>2026-05-02T09:42:13.861Z</time></trkpt><trkpt lat="44.3138367" lon="11.47217"><ele>176.0</ele><time>2026-05-02T09:42:14.861Z</time></trkpt><trkpt lat="44.3139" lon="11.4722183"><ele>176.0</ele><time>2026-05-02T09:42:15.861Z</time></trkpt><trkpt lat="44.3139633" lon="11.4722667"><ele>176.0</ele><time>2026-05-02T09:42:16.862Z</time></trkpt><trkpt lat="44.3140167" lon="11.47232"><ele>176.0</ele><time>2026-05-02T09:42:17.862Z</time></trkpt><trkpt lat="44.3140883" lon="11.4724667"><ele>176.0</ele><time>2026-05-02T09:42:19.861Z</time></trkpt><trkpt lat="44.3141217" lon="11.4725533"><ele>176.0</ele><time>2026-05-02T09:42:20.861Z</time></trkpt><trkpt lat="44.3141483" lon="11.4726483"><ele>176.0</ele><time>2026-05-02T09:42:21.861Z</time></trkpt><trkpt lat="44.314175" lon="11.4727483"><ele>176.0</ele><time>2026-05-02T09:42:22.861Z</time></trkpt><trkpt lat="44.3141967" lon="11.4728433"><ele>176.0</ele><time>2026-05-02T09:42:23.861Z</time></trkpt><trkpt lat="44.3142117" lon="11.4729333"><ele>176.0</ele><time>2026-05-02T09:42:24.861Z</time></trkpt><trkpt lat="44.3142317" lon="11.4731017"><ele>176.20000000000002</ele><time>2026-05-02T09:42:26.861Z</time></trkpt><trkpt lat="44.31424" lon="11.4732533"><ele>176.4</ele><time>2026-05-02T09:42:28.862Z</time></trkpt><trkpt lat="44.3142533" lon="11.4734133"><ele>176.6</ele><time>2026-05-02T09:42:30.861Z</time></trkpt><trkpt lat="44.31427" lon="11.47352"><ele>176.8</ele><time>2026-05-02T09:42:31.861Z</time></trkpt><trkpt lat="44.3142833" lon="11.47364"><ele>177.0</ele><time>2026-05-02T09:42:32.861Z</time></trkpt><trkpt lat="44.3142967" lon="11.4737483"><ele>177.0</ele><time>2026-05-02T09:42:33.861Z</time></trkpt><trkpt lat="44.314305" lon="11.4738467"><ele>177.0</ele><time>2026-05-02T09:42:34.862Z</time></trkpt><trkpt lat="44.314305" lon="11.4739717"><ele>177.0</ele><time>2026-05-02T09:42:36.862Z</time></trkpt><trkpt lat="44.314315" lon="11.4738333"><ele>177.0</ele><time>2026-05-02T09:42:46.861Z</time></trkpt><trkpt lat="44.3143017" lon="11.4737217"><ele>177.0</ele><time>2026-05-02T09:42:47.861Z</time></trkpt><trkpt lat="44.31429" lon="11.4736233"><ele>177.0</ele><time>2026-05-02T09:42:48.861Z</time></trkpt><trkpt lat="44.3142717" lon="11.4734883"><ele>177.0</ele><time>2026-05-02T09:42:50.861Z</time></trkpt><trkpt lat="44.314265" lon="11.47338"><ele>177.0</ele><time>2026-05-02T09:42:53.861Z</time></trkpt><trkpt lat="44.3143033" lon="11.4732667"><ele>177.0</ele><time>2026-05-02T09:43:02.861Z</time></trkpt><trkpt lat="44.3143283" lon="11.4731617"><ele>177.0</ele><time>2026-05-02T09:43:07.862Z</time></trkpt><trkpt lat="44.3143983" lon="11.473145"><ele>177.0</ele><time>2026-05-02T09:43:15.86Z</time></trkpt><trkpt lat="44.3144117" lon="11.4732483"><ele>177.0</ele><time>2026-05-02T09:43:18.86Z</time></trkpt><trkpt lat="44.3144183" lon="11.4733383"><ele>177.0</ele><time>2026-05-02T09:43:20.861Z</time></trkpt><trkpt lat="44.3144267" lon="11.4734367"><ele>177.0</ele><time>2026-05-02T09:43:22.86Z</time></trkpt><trkpt lat="44.3144417" lon="11.4735517"><ele>177.0</ele><time>2026-05-02T09:43:25.861Z</time></trkpt><trkpt lat="44.3144567" lon="11.4736533"><ele>177.0</ele><time>2026-05-02T09:43:27.86Z</time></trkpt><trkpt lat="44.3144633" lon="11.473765"><ele>177.0</ele><time>2026-05-02T09:43:29.86Z</time></trkpt><trkpt lat="44.3144767" lon="11.4738883"><ele>177.0</ele><time>2026-05-02T09:43:31.86Z</time></trkpt><trkpt lat="44.3145" lon="11.4740067"><ele>177.16666666666666</ele><time>2026-05-02T09:43:33.861Z</time></trkpt><trkpt lat="44.31452" lon="11.4741317"><ele>177.33333333333334</ele><time>2026-05-02T09:43:35.86Z</time></trkpt><trkpt lat="44.3145283" lon="11.4742483"><ele>177.5</ele><time>2026-05-02T09:43:37.86Z</time></trkpt><trkpt lat="44.3145333" lon="11.4743567"><ele>177.66666666666669</ele><time>2026-05-02T09:43:39.86Z</time></trkpt><trkpt lat="44.314545" lon="11.4744683"><ele>177.83333333333334</ele><time>2026-05-02T09:43:41.86Z</time></trkpt><trkpt lat="44.3145883" lon="11.4745667"><ele>178.0</ele><time>2026-05-02T09:43:44.86Z</time></trkpt><trkpt lat="44.3146433" lon="11.4746533"><ele>177.83333333333334</ele><time>2026-05-02T09:43:47.86Z</time></trkpt><trkpt lat="44.3146917" lon="11.4747483"><ele>177.66666666666669</ele><time>2026-05-02T09:43:49.86Z</time></trkpt><trkpt lat="44.3147367" lon="11.4748733"><ele>177.5</ele><time>2026-05-02T09:43:51.86Z</time></trkpt><trkpt lat="44.3147683" lon="11.4749867"><ele>177.33333333333334</ele><time>2026-05-02T09:43:53.861Z</time></trkpt><trkpt lat="44.3148133" lon="11.4750867"><ele>177.16666666666666</ele><time>2026-05-02T09:43:55.86Z</time></trkpt><trkpt lat="44.314865" lon="11.475175"><ele>177.0</ele><time>2026-05-02T09:43:57.86Z</time></trkpt><trkpt lat="44.3149283" lon="11.47527"><ele>177.0</ele><time>2026-05-02T09:43:59.861Z</time></trkpt><trkpt lat="44.3149783" lon="11.475345"><ele>177.0</ele><time>2026-05-02T09:44:01.86Z</time></trkpt><trkpt lat="44.3149933" lon="11.4754367"><ele>177.0</ele><time>2026-05-02T09:44:03.861Z</time></trkpt><trkpt lat="44.3150033" lon="11.4755817"><ele>177.0</ele><time>2026-05-02T09:44:05.861Z</time></trkpt><trkpt lat="44.3150083" lon="11.47569"><ele>177.0</ele><time>2026-05-02T09:44:07.86Z</time></trkpt><trkpt lat="44.315035" lon="11.4758167"><ele>177.0</ele><time>2026-05-02T09:44:09.86Z</time></trkpt><trkpt lat="44.315085" lon="11.475955"><ele>176.2</ele><time>2026-05-02T09:44:11.86Z</time></trkpt><trkpt lat="44.3151383" lon="11.4760833"><ele>175.39999999999998</ele><time>2026-05-02T09:44:13.86Z</time></trkpt><trkpt lat="44.31519" lon="11.4762467"><ele>174.60000000000002</ele><time>2026-05-02T09:44:15.86Z</time></trkpt><trkpt lat="44.315215" lon="11.476335"><ele>173.8</ele><time>2026-05-02T09:44:16.861Z</time></trkpt><trkpt lat="44.3152517" lon="11.4764233"><ele>173.0</ele><time>2026-05-02T09:44:17.86Z</time></trkpt><trkpt lat="44.3152867" lon="11.476545"><ele>173.0</ele><time>2026-05-02T09:44:18.86Z</time></trkpt><trkpt lat="44.31532" lon="11.47669"><ele>173.0</ele><time>2026-05-02T09:44:19.86Z</time></trkpt><trkpt lat="44.3153517" lon="11.476835"><ele>173.0</ele><time>2026-05-02T09:44:20.86Z</time></trkpt><trkpt lat="44.3153867" lon="11.4769617"><ele>173.0</ele><time>2026-05-02T09:44:21.861Z</time></trkpt><trkpt lat="44.3154167" lon="11.4770767"><ele>173.0</ele><time>2026-05-02T09:44:22.86Z</time></trkpt><trkpt lat="44.3154467" lon="11.477185"><ele>173.0</ele><time>2026-05-02T09:44:23.86Z</time></trkpt><trkpt lat="44.3154833" lon="11.4772983"><ele>173.0</ele><time>2026-05-02T09:44:24.86Z</time></trkpt><trkpt lat="44.315525" lon="11.47742"><ele>173.0</ele><time>2026-05-02T09:44:25.861Z</time></trkpt><trkpt lat="44.3155683" lon="11.47753"><ele>173.0</ele><time>2026-05-02T09:44:26.861Z</time></trkpt><trkpt lat="44.315605" lon="11.4776267"><ele>173.0</ele><time>2026-05-02T09:44:27.861Z</time></trkpt><trkpt lat="44.3156367" lon="11.47773"><ele>173.0</ele><time>2026-05-02T09:44:28.861Z</time></trkpt><trkpt lat="44.3156617" lon="11.4778417"><ele>172.66666666666666</ele><time>2026-05-02T09:44:29.861Z</time></trkpt><trkpt lat="44.3156883" lon="11.4779483"><ele>172.33333333333331</ele><time>2026-05-02T09:44:30.86Z</time></trkpt><trkpt lat="44.31571" lon="11.4780467"><ele>172.0</ele><time>2026-05-02T09:44:31.86Z</time></trkpt><trkpt lat="44.315725" lon="11.4781483"><ele>171.66666666666666</ele><time>2026-05-02T09:44:32.861Z</time></trkpt><trkpt lat="44.31574" lon="11.4782617"><ele>171.33333333333334</ele><time>2026-05-02T09:44:33.86Z</time></trkpt><trkpt lat="44.3157483" lon="11.4783683"><ele>171.0</ele><time>2026-05-02T09:44:34.861Z</time></trkpt><trkpt lat="44.3157633" lon="11.4784717"><ele>171.0</ele><time>2026-05-02T09:44:35.861Z</time></trkpt><trkpt lat="44.315785" lon="11.4785683"><ele>171.0</ele><time>2026-05-02T09:44:36.86Z</time></trkpt><trkpt lat="44.3158167" lon="11.47866"><ele>171.0</ele><time>2026-05-02T09:44:37.86Z</time></trkpt><trkpt lat="44.3158617" lon="11.4787617"><ele>171.0</ele><time>2026-05-02T09:44:38.861Z</time></trkpt><trkpt lat="44.3159067" lon="11.47886"><ele>171.0</ele><time>2026-05-02T09:44:39.86Z</time></trkpt><trkpt lat="44.3159483" lon="11.4789583"><ele>171.0</ele><time>2026-05-02T09:44:40.86Z</time></trkpt><trkpt lat="44.3159867" lon="11.4790367"><ele>170.5</ele><time>2026-05-02T09:44:41.86Z</time></trkpt><trkpt lat="44.316025" lon="11.4791083"><ele>170.0</ele><time>2026-05-02T09:44:42.86Z</time></trkpt><trkpt lat="44.316075" lon="11.4791733"><ele>169.5</ele><time>2026-05-02T09:44:43.86Z</time></trkpt><trkpt lat="44.316125" lon="11.4792283"><ele>169.0</ele><time>2026-05-02T09:44:44.861Z</time></trkpt><trkpt lat="44.3162133" lon="11.4793367"><ele>168.5</ele><time>2026-05-02T09:44:46.86Z</time></trkpt><trkpt lat="44.3162717" lon="11.4794217"><ele>168.0</ele><time>2026-05-02T09:44:48.86Z</time></trkpt><trkpt lat="44.3163233" lon="11.4794883"><ele>168.0</ele><time>2026-05-02T09:45:22.86Z</time></trkpt><trkpt lat="44.3163783" lon="11.4795883"><ele>168.0</ele><time>2026-05-02T09:45:25.86Z</time></trkpt><trkpt lat="44.31639" lon="11.4797167"><ele>168.0</ele><time>2026-05-02T09:45:27.861Z</time></trkpt><trkpt lat="44.3163983" lon="11.4798767"><ele>168.0</ele><time>2026-05-02T09:45:29.86Z</time></trkpt><trkpt lat="44.3163967" lon="11.4800117"><ele>168.0</ele><time>2026-05-02T09:45:31.86Z</time></trkpt><trkpt lat="44.3163967" lon="11.48018"><ele>168.0</ele><time>2026-05-02T09:45:33.86Z</time></trkpt><trkpt lat="44.316425" lon="11.4803533"><ele>168.0</ele><time>2026-05-02T09:45:35.86Z</time></trkpt><trkpt lat="44.316445" lon="11.48044"><ele>168.0</ele><time>2026-05-02T09:45:36.861Z</time></trkpt><trkpt lat="44.3164683" lon="11.480535"><ele>168.0</ele><time>2026-05-02T09:45:37.86Z</time></trkpt><trkpt lat="44.31649" lon="11.48064"><ele>168.0</ele><time>2026-05-02T09:45:38.86Z</time></trkpt><trkpt lat="44.3165067" lon="11.4807567"><ele>168.0</ele><time>2026-05-02T09:45:39.861Z</time></trkpt><trkpt lat="44.31652" lon="11.4808867"><ele>167.83333333333334</ele><time>2026-05-02T09:45:40.86Z</time></trkpt><trkpt lat="44.3165333" lon="11.48101"><ele>167.66666666666666</ele><time>2026-05-02T09:45:41.86Z</time></trkpt><trkpt lat="44.3165517" lon="11.4811183"><ele>167.5</ele><time>2026-05-02T09:45:42.861Z</time></trkpt><trkpt lat="44.3165683" lon="11.481215"><ele>167.33333333333331</ele><time>2026-05-02T09:45:43.86Z</time></trkpt><trkpt lat="44.3165917" lon="11.4813267"><ele>167.16666666666666</ele><time>2026-05-02T09:45:44.86Z</time></trkpt><trkpt lat="44.316615" lon="11.4814283"><ele>167.0</ele><time>2026-05-02T09:45:45.861Z</time></trkpt><trkpt lat="44.3166417" lon="11.4815367"><ele>166.83333333333331</ele><time>2026-05-02T09:45:46.86Z</time></trkpt><trkpt lat="44.31667" lon="11.4816417"><ele>166.66666666666666</ele><time>2026-05-02T09:45:47.86Z</time></trkpt><trkpt lat="44.3166983" lon="11.4817533"><ele>166.5</ele><time>2026-05-02T09:45:48.861Z</time></trkpt><trkpt lat="44.316725" lon="11.48186"><ele>166.33333333333334</ele><time>2026-05-02T09:45:49.86Z</time></trkpt><trkpt lat="44.31675" lon="11.48196"><ele>166.16666666666669</ele><time>2026-05-02T09:45:50.86Z</time></trkpt><trkpt lat="44.3167767" lon="11.4820583"><ele>166.0</ele><time>2026-05-02T09:45:51.86Z</time></trkpt><trkpt lat="44.316805" lon="11.4821583"><ele>165.83333333333334</ele><time>2026-05-02T09:45:52.861Z</time></trkpt><trkpt lat="44.3168317" lon="11.4822517"><ele>165.66666666666669</ele><time>2026-05-02T09:45:53.86Z</time></trkpt><trkpt lat="44.3168567" lon="11.4823483"><ele>165.5</ele><time>2026-05-02T09:45:54.86Z</time></trkpt><trkpt lat="44.3168817" lon="11.4824467"><ele>165.33333333333334</ele><time>2026-05-02T09:45:55.86Z</time></trkpt><trkpt lat="44.3169117" lon="11.4825517"><ele>165.16666666666666</ele><time>2026-05-02T09:45:56.86Z</time></trkpt><trkpt lat="44.3169433" lon="11.4826517"><ele>165.0</ele><time>2026-05-02T09:45:57.86Z</time></trkpt><trkpt lat="44.3169767" lon="11.4827467"><ele>165.00000000000003</ele><time>2026-05-02T09:45:58.86Z</time></trkpt><trkpt lat="44.317005" lon="11.48284"><ele>165.0</ele><time>2026-05-02T09:45:59.861Z</time></trkpt><trkpt lat="44.31703" lon="11.482935"><ele>165.0</ele><time>2026-05-02T09:46:00.86Z</time></trkpt><trkpt lat="44.3170583" lon="11.4830333"><ele>165.0</ele><time>2026-05-02T09:46:01.861Z</time></trkpt><trkpt lat="44.317085" lon="11.4831283"><ele>165.0</ele><time>2026-05-02T09:46:02.86Z</time></trkpt><trkpt lat="44.3171083" lon="11.4832183"><ele>165.00000000000003</ele><time>2026-05-02T09:46:03.86Z</time></trkpt><trkpt lat="44.3171267" lon="11.4833133"><ele>165.0</ele><time>2026-05-02T09:46:04.861Z</time></trkpt><trkpt lat="44.3171483" lon="11.4834117"><ele>165.0</ele><time>2026-05-02T09:46:05.86Z</time></trkpt><trkpt lat="44.3171733" lon="11.4835117"><ele>165.0</ele><time>2026-05-02T09:46:06.861Z</time></trkpt><trkpt lat="44.3171983" lon="11.4835967"><ele>165.0</ele><time>2026-05-02T09:46:07.86Z</time></trkpt><trkpt lat="44.317255" lon="11.48374"><ele>165.0</ele><time>2026-05-02T09:46:09.86Z</time></trkpt><trkpt lat="44.3173017" lon="11.4838017"><ele>165.0</ele><time>2026-05-02T09:46:10.86Z</time></trkpt><trkpt lat="44.3173517" lon="11.483865"><ele>165.0</ele><time>2026-05-02T09:46:11.86Z</time></trkpt><trkpt lat="44.3174233" lon="11.484005"><ele>165.14285714285717</ele><time>2026-05-02T09:46:13.86Z</time></trkpt><trkpt lat="44.31744" lon="11.4840917"><ele>165.28571428571428</ele><time>2026-05-02T09:46:14.86Z</time></trkpt><trkpt lat="44.317455" lon="11.4841783"><ele>165.42857142857144</ele><time>2026-05-02T09:46:15.86Z</time></trkpt><trkpt lat="44.3174683" lon="11.4842667"><ele>165.57142857142858</ele><time>2026-05-02T09:46:16.861Z</time></trkpt><trkpt lat="44.3174783" lon="11.484355"><ele>165.71428571428572</ele><time>2026-05-02T09:46:17.86Z</time></trkpt><trkpt lat="44.3174883" lon="11.484445"><ele>165.85714285714286</ele><time>2026-05-02T09:46:18.861Z</time></trkpt><trkpt lat="44.3174967" lon="11.4845433"><ele>166.0</ele><time>2026-05-02T09:46:19.861Z</time></trkpt><trkpt lat="44.3174967" lon="11.4846383"><ele>166.16666666666669</ele><time>2026-05-02T09:46:20.86Z</time></trkpt><trkpt lat="44.3174983" lon="11.4847317"><ele>166.33333333333334</ele><time>2026-05-02T09:46:21.861Z</time></trkpt><trkpt lat="44.3175283" lon="11.484895"><ele>166.5</ele><time>2026-05-02T09:46:23.86Z</time></trkpt><trkpt lat="44.3175967" lon="11.48499"><ele>166.66666666666666</ele><time>2026-05-02T09:46:25.861Z</time></trkpt><trkpt lat="44.31768" lon="11.48502"><ele>166.83333333333331</ele><time>2026-05-02T09:46:27.861Z</time></trkpt><trkpt lat="44.3177183" lon="11.4851117"><ele>167.0</ele><time>2026-05-02T09:46:29.861Z</time></trkpt><trkpt lat="44.317715" lon="11.4852633"><ele>167.16666666666666</ele><time>2026-05-02T09:46:31.86Z</time></trkpt><trkpt lat="44.3177" lon="11.48544"><ele>167.33333333333331</ele><time>2026-05-02T09:46:33.86Z</time></trkpt><trkpt lat="44.3177217" lon="11.4855483"><ele>167.5</ele><time>2026-05-02T09:46:35.861Z</time></trkpt><trkpt lat="44.31778" lon="11.4855817"><ele>167.66666666666666</ele><time>2026-05-02T09:47:03.86Z</time></trkpt><trkpt lat="44.3178517" lon="11.4855733"><ele>167.83333333333334</ele><time>2026-05-02T09:47:05.861Z</time></trkpt><trkpt lat="44.3179383" lon="11.4855583"><ele>168.0</ele><time>2026-05-02T09:47:07.86Z</time></trkpt><trkpt lat="44.318035" lon="11.485535"><ele>168.0</ele><time>2026-05-02T09:47:09.86Z</time></trkpt><trkpt lat="44.3181583" lon="11.485505"><ele>168.0</ele><time>2026-05-02T09:47:11.86Z</time></trkpt><trkpt lat="44.3182417" lon="11.48548"><ele>168.0</ele><time>2026-05-02T09:47:12.86Z</time></trkpt><trkpt lat="44.3183333" lon="11.4854567"><ele>168.0</ele><time>2026-05-02T09:47:13.861Z</time></trkpt><trkpt lat="44.3184283" lon="11.4854367"><ele>168.0</ele><time>2026-05-02T09:47:14.861Z</time></trkpt><trkpt lat="44.3185217" lon="11.4854167"><ele>168.0</ele><time>2026-05-02T09:47:15.86Z</time></trkpt><trkpt lat="44.3186217" lon="11.485395"><ele>168.0</ele><time>2026-05-02T09:47:16.86Z</time></trkpt><trkpt lat="44.318735" lon="11.485375"><ele>168.0</ele><time>2026-05-02T09:47:17.86Z</time></trkpt><trkpt lat="44.3188533" lon="11.4853633"><ele>168.0</ele><time>2026-05-02T09:47:18.861Z</time></trkpt><trkpt lat="44.318975" lon="11.4853667"><ele>168.75</ele><time>2026-05-02T09:47:19.861Z</time></trkpt><trkpt lat="44.3191033" lon="11.4853683"><ele>169.5</ele><time>2026-05-02T09:47:20.861Z</time></trkpt><trkpt lat="44.3192283" lon="11.4853433"><ele>170.25</ele><time>2026-05-02T09:47:21.861Z</time></trkpt><trkpt lat="44.319345" lon="11.485325"><ele>171.0</ele><time>2026-05-02T09:47:22.861Z</time></trkpt><trkpt lat="44.319455" lon="11.4853"><ele>171.0</ele><time>2026-05-02T09:47:23.861Z</time></trkpt><trkpt lat="44.3195617" lon="11.4852733"><ele>171.0</ele><time>2026-05-02T09:47:24.861Z</time></trkpt><trkpt lat="44.3196667" lon="11.48525"><ele>171.0</ele><time>2026-05-02T09:47:25.86Z</time></trkpt><trkpt lat="44.3197633" lon="11.48522"><ele>171.0</ele><time>2026-05-02T09:47:26.86Z</time></trkpt><trkpt lat="44.319865" lon="11.4852033"><ele>171.0</ele><time>2026-05-02T09:47:27.861Z</time></trkpt><trkpt lat="44.31996" lon="11.485185"><ele>171.33333333333334</ele><time>2026-05-02T09:47:28.86Z</time></trkpt><trkpt lat="44.3200367" lon="11.4851817"><ele>171.66666666666666</ele><time>2026-05-02T09:47:29.86Z</time></trkpt><trkpt lat="44.3201067" lon="11.48519"><ele>172.0</ele><time>2026-05-02T09:47:30.861Z</time></trkpt><trkpt lat="44.3201733" lon="11.4851983"><ele>172.33333333333331</ele><time>2026-05-02T09:47:32.86Z</time></trkpt><trkpt lat="44.3202167" lon="11.4851267"><ele>172.66666666666666</ele><time>2026-05-02T09:47:35.86Z</time></trkpt><trkpt lat="44.3202383" lon="11.484945"><ele>173.0</ele><time>2026-05-02T09:47:37.861Z</time></trkpt><trkpt lat="44.32024" lon="11.48485"><ele>173.0</ele><time>2026-05-02T09:47:38.86Z</time></trkpt><trkpt lat="44.3202433" lon="11.4847533"><ele>173.0</ele><time>2026-05-02T09:47:39.86Z</time></trkpt><trkpt lat="44.3202383" lon="11.4846617"><ele>173.0</ele><time>2026-05-02T09:47:40.86Z</time></trkpt><trkpt lat="44.3202367" lon="11.484555"><ele>173.0</ele><time>2026-05-02T09:47:41.861Z</time></trkpt><trkpt lat="44.32024" lon="11.484435"><ele>173.0</ele><time>2026-05-02T09:47:42.861Z</time></trkpt><trkpt lat="44.3202383" lon="11.4842867"><ele>173.0</ele><time>2026-05-02T09:47:43.861Z</time></trkpt><trkpt lat="44.3202433" lon="11.4841267"><ele>172.75</ele><time>2026-05-02T09:47:44.861Z</time></trkpt><trkpt lat="44.320235" lon="11.4839633"><ele>172.5</ele><time>2026-05-02T09:47:45.86Z</time></trkpt><trkpt lat="44.32022" lon="11.4838117"><ele>172.25</ele><time>2026-05-02T09:47:46.86Z</time></trkpt><trkpt lat="44.320195" lon="11.4836583"><ele>172.0</ele><time>2026-05-02T09:47:47.86Z</time></trkpt><trkpt lat="44.3201633" lon="11.4835017"><ele>173.0</ele><time>2026-05-02T09:47:48.86Z</time></trkpt><trkpt lat="44.320125" lon="11.4833367"><ele>174.0</ele><time>2026-05-02T09:47:49.86Z</time></trkpt><trkpt lat="44.320075" lon="11.48317"><ele>175.0</ele><time>2026-05-02T09:47:50.86Z</time></trkpt><trkpt lat="44.3200167" lon="11.483"><ele>176.0</ele><time>2026-05-02T09:47:51.86Z</time></trkpt><trkpt lat="44.3199483" lon="11.48283"><ele>176.75</ele><time>2026-05-02T09:47:52.86Z</time></trkpt><trkpt lat="44.3198767" lon="11.4826567"><ele>177.5</ele><time>2026-05-02T09:47:53.86Z</time></trkpt><trkpt lat="44.3197983" lon="11.48248"><ele>178.25</ele><time>2026-05-02T09:47:54.861Z</time></trkpt><trkpt lat="44.3197167" lon="11.482305"><ele>179.0</ele><time>2026-05-02T09:47:55.861Z</time></trkpt><trkpt lat="44.3196283" lon="11.4821317"><ele>178.0</ele><time>2026-05-02T09:47:56.86Z</time></trkpt><trkpt lat="44.3195483" lon="11.481955"><ele>177.0</ele><time>2026-05-02T09:47:57.86Z</time></trkpt><trkpt lat="44.31947" lon="11.481775"><ele>176.0</ele><time>2026-05-02T09:47:58.861Z</time></trkpt><trkpt lat="44.319395" lon="11.4816067"><ele>175.0</ele><time>2026-05-02T09:47:59.86Z</time></trkpt><trkpt lat="44.3193233" lon="11.481445"><ele>175.0</ele><time>2026-05-02T09:48:00.86Z</time></trkpt><trkpt lat="44.319245" lon="11.48129"><ele>175.0</ele><time>2026-05-02T09:48:01.861Z</time></trkpt><trkpt lat="44.3191633" lon="11.48114"><ele>175.0</ele><time>2026-05-02T09:48:02.86Z</time></trkpt><trkpt lat="44.3190817" lon="11.4809917"><ele>175.0</ele><time>2026-05-02T09:48:03.861Z</time></trkpt><trkpt lat="44.318995" lon="11.4808417"><ele>175.25</ele><time>2026-05-02T09:48:04.861Z</time></trkpt><trkpt lat="44.3189067" lon="11.4807017"><ele>175.5</ele><time>2026-05-02T09:48:05.86Z</time></trkpt><trkpt lat="44.3188167" lon="11.4805717"><ele>175.75</ele><time>2026-05-02T09:48:06.86Z</time></trkpt><trkpt lat="44.318725" lon="11.48046"><ele>176.0</ele><time>2026-05-02T09:48:07.86Z</time></trkpt><trkpt lat="44.318635" lon="11.4803417"><ele>177.0</ele><time>2026-05-02T09:48:08.86Z</time></trkpt><trkpt lat="44.3185283" lon="11.4802333"><ele>178.0</ele><time>2026-05-02T09:48:09.861Z</time></trkpt><trkpt lat="44.3184183" lon="11.480135"><ele>179.0</ele><time>2026-05-02T09:48:10.86Z</time></trkpt><trkpt lat="44.3183083" lon="11.4800383"><ele>180.0</ele><time>2026-05-02T09:48:11.86Z</time></trkpt><trkpt lat="44.3181933" lon="11.479945"><ele>180.0</ele><time>2026-05-02T09:48:12.86Z</time></trkpt><trkpt lat="44.3180867" lon="11.4798333"><ele>180.0</ele><time>2026-05-02T09:48:13.86Z</time></trkpt><trkpt lat="44.3179967" lon="11.47971"><ele>180.0</ele><time>2026-05-02T09:48:14.861Z</time></trkpt><trkpt lat="44.317915" lon="11.4795717"><ele>180.0</ele><time>2026-05-02T09:48:15.86Z</time></trkpt><trkpt lat="44.31785" lon="11.4794133"><ele>178.75</ele><time>2026-05-02T09:48:16.861Z</time></trkpt><trkpt lat="44.3177783" lon="11.47927"><ele>177.5</ele><time>2026-05-02T09:48:17.86Z</time></trkpt><trkpt lat="44.3176917" lon="11.4791283"><ele>176.25</ele><time>2026-05-02T09:48:18.86Z</time></trkpt><trkpt lat="44.3175917" lon="11.479005"><ele>175.0</ele><time>2026-05-02T09:48:19.86Z</time></trkpt><trkpt lat="44.3174917" lon="11.4789033"><ele>175.0</ele><time>2026-05-02T09:48:20.86Z</time></trkpt><trkpt lat="44.3173867" lon="11.4788067"><ele>175.0</ele><time>2026-05-02T09:48:21.86Z</time></trkpt><trkpt lat="44.317285" lon="11.47871"><ele>175.0</ele><time>2026-05-02T09:48:22.861Z</time></trkpt><trkpt lat="44.3171833" lon="11.4786"><ele>175.0</ele><time>2026-05-02T09:48:23.861Z</time></trkpt><trkpt lat="44.3170783" lon="11.4784883"><ele>175.25</ele><time>2026-05-02T09:48:24.861Z</time></trkpt><trkpt lat="44.3169867" lon="11.4783533"><ele>175.5</ele><time>2026-05-02T09:48:25.86Z</time></trkpt><trkpt lat="44.3169033" lon="11.4782017"><ele>175.75</ele><time>2026-05-02T09:48:26.86Z</time></trkpt><trkpt lat="44.3168333" lon="11.47803"><ele>176.0</ele><time>2026-05-02T09:48:27.86Z</time></trkpt><trkpt lat="44.3167817" lon="11.477855"><ele>175.75</ele><time>2026-05-02T09:48:28.86Z</time></trkpt><trkpt lat="44.3167133" lon="11.4776867"><ele>175.5</ele><time>2026-05-02T09:48:29.861Z</time></trkpt><trkpt lat="44.3166267" lon="11.47754"><ele>175.25</ele><time>2026-05-02T09:48:30.86Z</time></trkpt><trkpt lat="44.3165183" lon="11.4774133"><ele>175.0</ele><time>2026-05-02T09:48:31.86Z</time></trkpt><trkpt lat="44.3164017" lon="11.4773083"><ele>175.0</ele><time>2026-05-02T09:48:32.86Z</time></trkpt><trkpt lat="44.3162783" lon="11.47721"><ele>175.0</ele><time>2026-05-02T09:48:33.859Z</time></trkpt><trkpt lat="44.3161633" lon="11.4771167"><ele>175.0</ele><time>2026-05-02T09:48:34.859Z</time></trkpt><trkpt lat="44.3160683" lon="11.4770133"><ele>175.0</ele><time>2026-05-02T09:48:35.859Z</time></trkpt><trkpt lat="44.3159817" lon="11.476895"><ele>176.25</ele><time>2026-05-02T09:48:36.859Z</time></trkpt><trkpt lat="44.3159117" lon="11.4767667"><ele>177.5</ele><time>2026-05-02T09:48:37.859Z</time></trkpt><trkpt lat="44.3158583" lon="11.47662"><ele>178.75</ele><time>2026-05-02T09:48:38.859Z</time></trkpt><trkpt lat="44.3158017" lon="11.4764617"><ele>180.0</ele><time>2026-05-02T09:48:39.86Z</time></trkpt><trkpt lat="44.3157367" lon="11.4763067"><ele>178.25</ele><time>2026-05-02T09:48:40.86Z</time></trkpt><trkpt lat="44.3156733" lon="11.4761483"><ele>176.5</ele><time>2026-05-02T09:48:41.859Z</time></trkpt><trkpt lat="44.31561" lon="11.4759833"><ele>174.75</ele><time>2026-05-02T09:48:42.859Z</time></trkpt><trkpt lat="44.3155467" lon="11.47582"><ele>173.0</ele><time>2026-05-02T09:48:43.859Z</time></trkpt><trkpt lat="44.31548" lon="11.4756583"><ele>173.0</ele><time>2026-05-02T09:48:44.86Z</time></trkpt><trkpt lat="44.3154183" lon="11.4754983"><ele>173.0</ele><time>2026-05-02T09:48:45.86Z</time></trkpt><trkpt lat="44.31536" lon="11.47533"><ele>173.0</ele><time>2026-05-02T09:48:46.86Z</time></trkpt><trkpt lat="44.3153117" lon="11.4751583"><ele>173.0</ele><time>2026-05-02T09:48:47.859Z</time></trkpt><trkpt lat="44.3152667" lon="11.4749867"><ele>174.0</ele><time>2026-05-02T09:48:48.86Z</time></trkpt><trkpt lat="44.3152217" lon="11.4748133"><ele>175.0</ele><time>2026-05-02T09:48:49.859Z</time></trkpt><trkpt lat="44.3151783" lon="11.474645"><ele>176.0</ele><time>2026-05-02T09:48:50.86Z</time></trkpt><trkpt lat="44.315135" lon="11.4744717"><ele>177.0</ele><time>2026-05-02T09:48:51.859Z</time></trkpt><trkpt lat="44.315095" lon="11.4742983"><ele>178.5</ele><time>2026-05-02T09:48:52.859Z</time></trkpt><trkpt lat="44.3150617" lon="11.4741167"><ele>180.0</ele><time>2026-05-02T09:48:53.86Z</time></trkpt><trkpt lat="44.3150333" lon="11.4739283"><ele>181.5</ele><time>2026-05-02T09:48:54.859Z</time></trkpt><trkpt lat="44.315015" lon="11.4737433"><ele>183.0</ele><time>2026-05-02T09:48:55.86Z</time></trkpt><trkpt lat="44.314995" lon="11.4735533"><ele>184.0</ele><time>2026-05-02T09:48:56.859Z</time></trkpt><trkpt lat="44.314975" lon="11.4733633"><ele>185.0</ele><time>2026-05-02T09:48:57.86Z</time></trkpt><trkpt lat="44.31496" lon="11.4731733"><ele>186.0</ele><time>2026-05-02T09:48:58.859Z</time></trkpt><trkpt lat="44.31493" lon="11.4729933"><ele>187.0</ele><time>2026-05-02T09:48:59.859Z</time></trkpt><trkpt lat="44.3148883" lon="11.4728333"><ele>187.16666666666669</ele><time>2026-05-02T09:49:00.86Z</time></trkpt><trkpt lat="44.314845" lon="11.472705"><ele>187.33333333333334</ele><time>2026-05-02T09:49:01.859Z</time></trkpt><trkpt lat="44.3148033" lon="11.4725983"><ele>187.5</ele><time>2026-05-02T09:49:02.859Z</time></trkpt><trkpt lat="44.3147667" lon="11.4725033"><ele>187.66666666666666</ele><time>2026-05-02T09:49:03.859Z</time></trkpt><trkpt lat="44.314735" lon="11.4724133"><ele>187.83333333333331</ele><time>2026-05-02T09:49:04.859Z</time></trkpt><trkpt lat="44.3147133" lon="11.4723233"><ele>188.0</ele><time>2026-05-02T09:49:05.859Z</time></trkpt><trkpt lat="44.3147" lon="11.4722317"><ele>188.2</ele><time>2026-05-02T09:49:06.859Z</time></trkpt><trkpt lat="44.3146883" lon="11.4720733"><ele>188.4</ele><time>2026-05-02T09:49:08.859Z</time></trkpt><trkpt lat="44.3147033" lon="11.4719033"><ele>188.6</ele><time>2026-05-02T09:49:10.86Z</time></trkpt><trkpt lat="44.31472" lon="11.471775"><ele>188.79999999999998</ele><time>2026-05-02T09:49:11.859Z</time></trkpt><trkpt lat="44.31475" lon="11.4716133"><ele>189.0</ele><time>2026-05-02T09:49:12.859Z</time></trkpt><trkpt lat="44.3147867" lon="11.47145"><ele>189.0</ele><time>2026-05-02T09:49:13.859Z</time></trkpt><trkpt lat="44.314825" lon="11.4713017"><ele>189.0</ele><time>2026-05-02T09:49:14.859Z</time></trkpt><trkpt lat="44.314855" lon="11.4711717"><ele>189.0</ele><time>2026-05-02T09:49:15.86Z</time></trkpt><trkpt lat="44.3148783" lon="11.471055"><ele>189.0</ele><time>2026-05-02T09:49:16.859Z</time></trkpt><trkpt lat="44.3149033" lon="11.4709483"><ele>189.0</ele><time>2026-05-02T09:49:17.86Z</time></trkpt><trkpt lat="44.3149267" lon="11.4708583"><ele>189.0</ele><time>2026-05-02T09:49:18.859Z</time></trkpt><trkpt lat="44.3149583" lon="11.470725"><ele>189.0</ele><time>2026-05-02T09:49:20.86Z</time></trkpt><trkpt lat="44.3149833" lon="11.47063"><ele>189.0</ele><time>2026-05-02T09:49:23.859Z</time></trkpt><trkpt lat="44.3149217" lon="11.4706867"><ele>189.0</ele><time>2026-05-02T09:49:27.86Z</time></trkpt><trkpt lat="44.3149" lon="11.4708133"><ele>189.0</ele><time>2026-05-02T09:49:29.859Z</time></trkpt><trkpt lat="44.314865" lon="11.4709683"><ele>189.0</ele><time>2026-05-02T09:49:31.859Z</time></trkpt><trkpt lat="44.3148417" lon="11.4710717"><ele>189.0</ele><time>2026-05-02T09:49:32.859Z</time></trkpt><trkpt lat="44.3148067" lon="11.4712033"><ele>189.0</ele><time>2026-05-02T09:49:33.859Z</time></trkpt><trkpt lat="44.31477" lon="11.4713633"><ele>189.0</ele><time>2026-05-02T09:49:34.859Z</time></trkpt><trkpt lat="44.3147333" lon="11.4715317"><ele>189.0</ele><time>2026-05-02T09:49:35.859Z</time></trkpt><trkpt lat="44.3146933" lon="11.471695"><ele>189.0</ele><time>2026-05-02T09:49:36.86Z</time></trkpt><trkpt lat="44.3146683" lon="11.4718533"><ele>188.79999999999998</ele><time>2026-05-02T09:49:37.86Z</time></trkpt><trkpt lat="44.3146517" lon="11.4720083"><ele>188.6</ele><time>2026-05-02T09:49:38.86Z</time></trkpt><trkpt lat="44.3146517" lon="11.4721617"><ele>188.4</ele><time>2026-05-02T09:49:39.86Z</time></trkpt><trkpt lat="44.3146717" lon="11.4723033"><ele>188.2</ele><time>2026-05-02T09:49:40.859Z</time></trkpt><trkpt lat="44.31471" lon="11.4724333"><ele>188.0</ele><time>2026-05-02T09:49:41.86Z</time></trkpt><trkpt lat="44.3147533" lon="11.4725317"><ele>188.0</ele><time>2026-05-02T09:49:42.859Z</time></trkpt><trkpt lat="44.3147933" lon="11.4726167"><ele>188.0</ele><time>2026-05-02T09:49:43.86Z</time></trkpt><trkpt lat="44.31482" lon="11.4727167"><ele>188.0</ele><time>2026-05-02T09:49:45.859Z</time></trkpt><trkpt lat="44.3147533" lon="11.4726267"><ele>188.0</ele><time>2026-05-02T09:49:55.859Z</time></trkpt><trkpt lat="44.3147117" lon="11.4725283"><ele>188.0</ele><time>2026-05-02T09:49:57.859Z</time></trkpt><trkpt lat="44.3146667" lon="11.4724167"><ele>188.0</ele><time>2026-05-02T09:49:59.859Z</time></trkpt><trkpt lat="44.314605" lon="11.4723167"><ele>185.60000000000002</ele><time>2026-05-02T09:50:02.859Z</time></trkpt><trkpt lat="44.314555" lon="11.4722167"><ele>183.20000000000002</ele><time>2026-05-02T09:50:04.859Z</time></trkpt><trkpt lat="44.3145033" lon="11.472085"><ele>180.8</ele><time>2026-05-02T09:50:06.86Z</time></trkpt><trkpt lat="44.314455" lon="11.471945"><ele>178.4</ele><time>2026-05-02T09:50:08.859Z</time></trkpt><trkpt lat="44.314405" lon="11.471815"><ele>176.0</ele><time>2026-05-02T09:50:10.86Z</time></trkpt><trkpt lat="44.31435" lon="11.47171"><ele>176.0</ele><time>2026-05-02T09:50:12.859Z</time></trkpt><trkpt lat="44.3143" lon="11.47162"><ele>176.0</ele><time>2026-05-02T09:50:14.859Z</time></trkpt><trkpt lat="44.3142383" lon="11.4715233"><ele>176.0</ele><time>2026-05-02T09:50:16.859Z</time></trkpt><trkpt lat="44.314175" lon="11.4714683"><ele>176.0</ele><time>2026-05-02T10:05:19.856Z</time></trkpt><trkpt lat="44.3142367" lon="11.4715517"><ele>176.0</ele><time>2026-05-02T10:05:21.856Z</time></trkpt><trkpt lat="44.314315" lon="11.4716683"><ele>176.0</ele><time>2026-05-02T10:05:23.856Z</time></trkpt><trkpt lat="44.3143883" lon="11.471815"><ele>176.0</ele><time>2026-05-02T10:05:25.856Z</time></trkpt><trkpt lat="44.3144283" lon="11.4719133"><ele>176.0</ele><time>2026-05-02T10:05:26.856Z</time></trkpt><trkpt lat="44.3144667" lon="11.4720217"><ele>176.0</ele><time>2026-05-02T10:05:27.856Z</time></trkpt><trkpt lat="44.3145067" lon="11.4721333"><ele>176.0</ele><time>2026-05-02T10:05:28.856Z</time></trkpt><trkpt lat="44.3145417" lon="11.4722217"><ele>176.0</ele><time>2026-05-02T10:05:29.857Z</time></trkpt><trkpt lat="44.31461" lon="11.47234"><ele>176.0</ele><time>2026-05-02T10:05:31.857Z</time></trkpt><trkpt lat="44.3146833" lon="11.4724733"><ele>176.0</ele><time>2026-05-02T10:05:33.857Z</time></trkpt><trkpt lat="44.3147233" lon="11.4725483"><ele>176.0</ele><time>2026-05-02T10:05:34.856Z</time></trkpt><trkpt lat="44.31477" lon="11.4726867"><ele>176.0</ele><time>2026-05-02T10:05:36.856Z</time></trkpt><trkpt lat="44.31484" lon="11.472725"><ele>176.0</ele><time>2026-05-02T10:05:45.857Z</time></trkpt><trkpt lat="44.314815" lon="11.4726067"><ele>176.0</ele><time>2026-05-02T10:05:47.856Z</time></trkpt><trkpt lat="44.314765" lon="11.472495"><ele>176.0</ele><time>2026-05-02T10:05:49.857Z</time></trkpt><trkpt lat="44.3147217" lon="11.472365"><ele>176.0</ele><time>2026-05-02T10:05:51.855Z</time></trkpt><trkpt lat="44.3146983" lon="11.4722733"><ele>176.0</ele><time>2026-05-02T10:05:52.855Z</time></trkpt><trkpt lat="44.314685" lon="11.472165"><ele>176.0</ele><time>2026-05-02T10:05:53.855Z</time></trkpt><trkpt lat="44.31468" lon="11.4720317"><ele>176.0</ele><time>2026-05-02T10:05:54.855Z</time></trkpt><trkpt lat="44.3146883" lon="11.4718783"><ele>176.0</ele><time>2026-05-02T10:05:55.855Z</time></trkpt><trkpt lat="44.3147167" lon="11.4717167"><ele>179.25</ele><time>2026-05-02T10:05:56.855Z</time></trkpt><trkpt lat="44.3147467" lon="11.4715583"><ele>182.5</ele><time>2026-05-02T10:05:57.856Z</time></trkpt><trkpt lat="44.3147817" lon="11.4714167"><ele>185.75</ele><time>2026-05-02T10:05:58.855Z</time></trkpt><trkpt lat="44.31482" lon="11.4712717"><ele>189.0</ele><time>2026-05-02T10:05:59.855Z</time></trkpt><trkpt lat="44.3148617" lon="11.4711167"><ele>189.0</ele><time>2026-05-02T10:06:00.855Z</time></trkpt><trkpt lat="44.3149" lon="11.4709583"><ele>189.0</ele><time>2026-05-02T10:06:01.855Z</time></trkpt><trkpt lat="44.3149383" lon="11.47081"><ele>189.0</ele><time>2026-05-02T10:06:02.855Z</time></trkpt><trkpt lat="44.3149733" lon="11.470655"><ele>189.0</ele><time>2026-05-02T10:06:03.855Z</time></trkpt><trkpt lat="44.3150067" lon="11.4705"><ele>188.25</ele><time>2026-05-02T10:06:04.856Z</time></trkpt><trkpt lat="44.3150417" lon="11.4703417"><ele>187.5</ele><time>2026-05-02T10:06:05.855Z</time></trkpt><trkpt lat="44.3150817" lon="11.47018"><ele>186.75</ele><time>2026-05-02T10:06:06.856Z</time></trkpt><trkpt lat="44.3151217" lon="11.4700133"><ele>186.0</ele><time>2026-05-02T10:06:07.855Z</time></trkpt><trkpt lat="44.3151667" lon="11.46984"><ele>186.0</ele><time>2026-05-02T10:06:08.856Z</time></trkpt><trkpt lat="44.3152133" lon="11.4696633"><ele>186.0</ele><time>2026-05-02T10:06:09.856Z</time></trkpt><trkpt lat="44.3152583" lon="11.4694933"><ele>186.0</ele><time>2026-05-02T10:06:10.855Z</time></trkpt><trkpt lat="44.3153067" lon="11.469325"><ele>186.0</ele><time>2026-05-02T10:06:11.856Z</time></trkpt><trkpt lat="44.3153583" lon="11.469155"><ele>185.25</ele><time>2026-05-02T10:06:12.856Z</time></trkpt><trkpt lat="44.3154117" lon="11.4689833"><ele>184.5</ele><time>2026-05-02T10:06:13.855Z</time></trkpt><trkpt lat="44.315465" lon="11.46882"><ele>183.75</ele><time>2026-05-02T10:06:14.855Z</time></trkpt><trkpt lat="44.3155117" lon="11.4686567"><ele>183.0</ele><time>2026-05-02T10:06:15.855Z</time></trkpt><trkpt lat="44.3155567" lon="11.4684967"><ele>183.60000000000002</ele><time>2026-05-02T10:06:16.855Z</time></trkpt><trkpt lat="44.3156" lon="11.4683533"><ele>184.20000000000002</ele><time>2026-05-02T10:06:17.855Z</time></trkpt><trkpt lat="44.3156417" lon="11.468205"><ele>184.8</ele><time>2026-05-02T10:06:18.855Z</time></trkpt><trkpt lat="44.3156683" lon="11.4680583"><ele>185.4</ele><time>2026-05-02T10:06:19.855Z</time></trkpt><trkpt lat="44.3156733" lon="11.4679133"><ele>186.0</ele><time>2026-05-02T10:06:20.855Z</time></trkpt><trkpt lat="44.3156567" lon="11.46777"><ele>186.0</ele><time>2026-05-02T10:06:21.855Z</time></trkpt><trkpt lat="44.3156233" lon="11.4676333"><ele>186.0</ele><time>2026-05-02T10:06:22.856Z</time></trkpt><trkpt lat="44.315585" lon="11.4674983"><ele>186.0</ele><time>2026-05-02T10:06:23.855Z</time></trkpt><trkpt lat="44.3155467" lon="11.4673667"><ele>186.0</ele><time>2026-05-02T10:06:24.856Z</time></trkpt><trkpt lat="44.3155117" lon="11.4672317"><ele>186.0</ele><time>2026-05-02T10:06:25.855Z</time></trkpt><trkpt lat="44.3154833" lon="11.4670717"><ele>185.75</ele><time>2026-05-02T10:06:26.856Z</time></trkpt><trkpt lat="44.3154783" lon="11.46687"><ele>185.5</ele><time>2026-05-02T10:06:27.855Z</time></trkpt><trkpt lat="44.3154883" lon="11.466655"><ele>185.25</ele><time>2026-05-02T10:06:28.855Z</time></trkpt><trkpt lat="44.3154917" lon="11.46645"><ele>185.0</ele><time>2026-05-02T10:06:29.855Z</time></trkpt><trkpt lat="44.3154867" lon="11.46625"><ele>185.0</ele><time>2026-05-02T10:06:30.855Z</time></trkpt><trkpt lat="44.3154517" lon="11.4660567"><ele>185.0</ele><time>2026-05-02T10:06:31.855Z</time></trkpt><trkpt lat="44.31539" lon="11.4658717"><ele>185.0</ele><time>2026-05-02T10:06:32.855Z</time></trkpt><trkpt lat="44.3153017" lon="11.4657033"><ele>185.0</ele><time>2026-05-02T10:06:33.856Z</time></trkpt><trkpt lat="44.315205" lon="11.4655567"><ele>186.5</ele><time>2026-05-02T10:06:34.856Z</time></trkpt><trkpt lat="44.3150983" lon="11.465415"><ele>188.0</ele><time>2026-05-02T10:06:35.855Z</time></trkpt><trkpt lat="44.3149867" lon="11.4652767"><ele>189.5</ele><time>2026-05-02T10:06:36.855Z</time></trkpt><trkpt lat="44.3148733" lon="11.46514"><ele>191.0</ele><time>2026-05-02T10:06:37.856Z</time></trkpt><trkpt lat="44.31476" lon="11.4650183"><ele>189.5</ele><time>2026-05-02T10:06:38.856Z</time></trkpt><trkpt lat="44.3146433" lon="11.464905"><ele>188.0</ele><time>2026-05-02T10:06:39.855Z</time></trkpt><trkpt lat="44.3145167" lon="11.4648083"><ele>186.5</ele><time>2026-05-02T10:06:40.855Z</time></trkpt><trkpt lat="44.3143933" lon="11.464715"><ele>185.0</ele><time>2026-05-02T10:06:41.855Z</time></trkpt><trkpt lat="44.314275" lon="11.4646133"><ele>186.0</ele><time>2026-05-02T10:06:42.855Z</time></trkpt><trkpt lat="44.3141483" lon="11.4645167"><ele>187.0</ele><time>2026-05-02T10:06:43.855Z</time></trkpt><trkpt lat="44.3140217" lon="11.4644183"><ele>188.0</ele><time>2026-05-02T10:06:44.855Z</time></trkpt><trkpt lat="44.313895" lon="11.4643183"><ele>189.0</ele><time>2026-05-02T10:06:45.855Z</time></trkpt><trkpt lat="44.3137733" lon="11.4642233"><ele>189.0</ele><time>2026-05-02T10:06:46.855Z</time></trkpt><trkpt lat="44.3136467" lon="11.4641183"><ele>189.0</ele><time>2026-05-02T10:06:47.855Z</time></trkpt><trkpt lat="44.3135217" lon="11.4640133"><ele>189.0</ele><time>2026-05-02T10:06:48.856Z</time></trkpt><trkpt lat="44.313385" lon="11.4639067"><ele>189.0</ele><time>2026-05-02T10:06:49.855Z</time></trkpt><trkpt lat="44.3132483" lon="11.4638083"><ele>189.0</ele><time>2026-05-02T10:06:50.856Z</time></trkpt><trkpt lat="44.3131033" lon="11.4637033"><ele>189.0</ele><time>2026-05-02T10:06:51.855Z</time></trkpt><trkpt lat="44.3129633" lon="11.4636"><ele>188.0</ele><time>2026-05-02T10:06:52.855Z</time></trkpt><trkpt lat="44.3128233" lon="11.4635"><ele>187.0</ele><time>2026-05-02T10:06:53.855Z</time></trkpt><trkpt lat="44.3126833" lon="11.4633983"><ele>186.0</ele><time>2026-05-02T10:06:54.855Z</time></trkpt><trkpt lat="44.31255" lon="11.4632933"><ele>186.0</ele><time>2026-05-02T10:06:55.855Z</time></trkpt><trkpt lat="44.3124167" lon="11.463195"><ele>186.0</ele><time>2026-05-02T10:06:56.856Z</time></trkpt><trkpt lat="44.312285" lon="11.4630917"><ele>186.0</ele><time>2026-05-02T10:06:57.855Z</time></trkpt><trkpt lat="44.3121567" lon="11.462985"><ele>185.66666666666666</ele><time>2026-05-02T10:06:58.855Z</time></trkpt><trkpt lat="44.31203" lon="11.4628717"><ele>185.33333333333331</ele><time>2026-05-02T10:06:59.855Z</time></trkpt><trkpt lat="44.3119067" lon="11.4627517"><ele>185.0</ele><time>2026-05-02T10:07:00.855Z</time></trkpt><trkpt lat="44.3117817" lon="11.46263"><ele>185.0</ele><time>2026-05-02T10:07:01.855Z</time></trkpt><trkpt lat="44.3116567" lon="11.46251"><ele>185.0</ele><time>2026-05-02T10:07:02.855Z</time></trkpt><trkpt lat="44.311535" lon="11.4623917"><ele>185.0</ele><time>2026-05-02T10:07:03.856Z</time></trkpt><trkpt lat="44.3114167" lon="11.4622683"><ele>185.0</ele><time>2026-05-02T10:07:04.856Z</time></trkpt><trkpt lat="44.3113" lon="11.4621433"><ele>185.0</ele><time>2026-05-02T10:07:05.855Z</time></trkpt><trkpt lat="44.3111867" lon="11.4620267"><ele>185.0</ele><time>2026-05-02T10:07:06.856Z</time></trkpt><trkpt lat="44.3110817" lon="11.4619117"><ele>185.0</ele><time>2026-05-02T10:07:07.856Z</time></trkpt><trkpt lat="44.310985" lon="11.46179"><ele>185.0</ele><time>2026-05-02T10:07:08.855Z</time></trkpt><trkpt lat="44.31091" lon="11.4616533"><ele>185.0</ele><time>2026-05-02T10:07:09.856Z</time></trkpt><trkpt lat="44.310855" lon="11.4614983"><ele>185.0</ele><time>2026-05-02T10:07:10.856Z</time></trkpt><trkpt lat="44.3108233" lon="11.4613333"><ele>185.0</ele><time>2026-05-02T10:07:11.855Z</time></trkpt><trkpt lat="44.3108117" lon="11.4611567"><ele>185.0</ele><time>2026-05-02T10:07:12.856Z</time></trkpt><trkpt lat="44.3108017" lon="11.4609683"><ele>186.0</ele><time>2026-05-02T10:07:13.855Z</time></trkpt><trkpt lat="44.3108033" lon="11.4607867"><ele>187.0</ele><time>2026-05-02T10:07:14.856Z</time></trkpt><trkpt lat="44.3108" lon="11.4606033"><ele>188.0</ele><time>2026-05-02T10:07:15.855Z</time></trkpt><trkpt lat="44.3107883" lon="11.460435"><ele>189.0</ele><time>2026-05-02T10:07:16.855Z</time></trkpt><trkpt lat="44.3107767" lon="11.4602767"><ele>189.79999999999998</ele><time>2026-05-02T10:07:17.855Z</time></trkpt><trkpt lat="44.31077" lon="11.4601233"><ele>190.6</ele><time>2026-05-02T10:07:18.855Z</time></trkpt><trkpt lat="44.3107633" lon="11.4599683"><ele>191.4</ele><time>2026-05-02T10:07:19.855Z</time></trkpt><trkpt lat="44.310745" lon="11.4598233"><ele>192.2</ele><time>2026-05-02T10:07:20.855Z</time></trkpt><trkpt lat="44.3107183" lon="11.4596933"><ele>193.0</ele><time>2026-05-02T10:07:21.855Z</time></trkpt><trkpt lat="44.310675" lon="11.4595767"><ele>193.0</ele><time>2026-05-02T10:07:22.855Z</time></trkpt><trkpt lat="44.310625" lon="11.4594583"><ele>193.0</ele><time>2026-05-02T10:07:23.856Z</time></trkpt><trkpt lat="44.3105717" lon="11.4593317"><ele>193.0</ele><time>2026-05-02T10:07:24.855Z</time></trkpt><trkpt lat="44.310505" lon="11.4592067"><ele>193.0</ele><time>2026-05-02T10:07:25.856Z</time></trkpt><trkpt lat="44.3104267" lon="11.4590817"><ele>193.0</ele><time>2026-05-02T10:07:26.856Z</time></trkpt><trkpt lat="44.3103383" lon="11.458935"><ele>192.75</ele><time>2026-05-02T10:07:27.855Z</time></trkpt><trkpt lat="44.31025" lon="11.4587867"><ele>192.5</ele><time>2026-05-02T10:07:28.856Z</time></trkpt><trkpt lat="44.3101567" lon="11.4586333"><ele>192.25</ele><time>2026-05-02T10:07:29.856Z</time></trkpt><trkpt lat="44.3100583" lon="11.4584917"><ele>192.0</ele><time>2026-05-02T10:07:30.855Z</time></trkpt><trkpt lat="44.3099617" lon="11.4583567"><ele>192.0</ele><time>2026-05-02T10:07:31.855Z</time></trkpt><trkpt lat="44.3098583" lon="11.458235"><ele>192.0</ele><time>2026-05-02T10:07:32.855Z</time></trkpt><trkpt lat="44.30974" lon="11.4581283"><ele>192.0</ele><time>2026-05-02T10:07:33.856Z</time></trkpt><trkpt lat="44.309625" lon="11.4580333"><ele>192.0</ele><time>2026-05-02T10:07:34.855Z</time></trkpt><trkpt lat="44.3095067" lon="11.4579583"><ele>192.25</ele><time>2026-05-02T10:07:35.855Z</time></trkpt><trkpt lat="44.3093867" lon="11.4578833"><ele>192.5</ele><time>2026-05-02T10:07:36.855Z</time></trkpt><trkpt lat="44.3092633" lon="11.457815"><ele>192.75</ele><time>2026-05-02T10:07:37.855Z</time></trkpt><trkpt lat="44.3091483" lon="11.4577467"><ele>193.0</ele><time>2026-05-02T10:07:38.856Z</time></trkpt><trkpt lat="44.309045" lon="11.4576817"><ele>193.0</ele><time>2026-05-02T10:07:39.856Z</time></trkpt><trkpt lat="44.30895" lon="11.45762"><ele>193.0</ele><time>2026-05-02T10:07:40.856Z</time></trkpt><trkpt lat="44.3088567" lon="11.4575617"><ele>193.0</ele><time>2026-05-02T10:07:41.855Z</time></trkpt><trkpt lat="44.3087683" lon="11.4575067"><ele>193.0</ele><time>2026-05-02T10:07:42.856Z</time></trkpt><trkpt lat="44.3086817" lon="11.457455"><ele>193.0</ele><time>2026-05-02T10:07:43.855Z</time></trkpt><trkpt lat="44.3086117" lon="11.45741"><ele>192.60000000000002</ele><time>2026-05-02T10:07:44.855Z</time></trkpt><trkpt lat="44.3085467" lon="11.4573683"><ele>192.20000000000002</ele><time>2026-05-02T10:07:46.855Z</time></trkpt><trkpt lat="44.308455" lon="11.4574383"><ele>191.8</ele><time>2026-05-02T10:08:12.855Z</time></trkpt><trkpt lat="44.3084033" lon="11.4575733"><ele>191.4</ele><time>2026-05-02T10:08:14.855Z</time></trkpt><trkpt lat="44.3083433" lon="11.45772"><ele>191.0</ele><time>2026-05-02T10:08:16.855Z</time></trkpt><trkpt lat="44.3082833" lon="11.457855"><ele>191.0</ele><time>2026-05-02T10:08:18.856Z</time></trkpt><trkpt lat="44.3082267" lon="11.457965"><ele>191.0</ele><time>2026-05-02T10:08:20.855Z</time></trkpt><trkpt lat="44.3081833" lon="11.4580567"><ele>191.0</ele><time>2026-05-02T10:08:22.855Z</time></trkpt><trkpt lat="44.30815" lon="11.4581417"><ele>191.0</ele><time>2026-05-02T10:08:25.855Z</time></trkpt><trkpt lat="44.3081983" lon="11.45806"><ele>191.0</ele><time>2026-05-02T10:10:20.855Z</time></trkpt><trkpt lat="44.3082367" lon="11.457985"><ele>191.0</ele><time>2026-05-02T10:10:22.855Z</time></trkpt><trkpt lat="44.308315" lon="11.4578317"><ele>191.0</ele><time>2026-05-02T10:10:24.855Z</time></trkpt><trkpt lat="44.3083617" lon="11.45772"><ele>191.0</ele><time>2026-05-02T10:10:25.854Z</time></trkpt><trkpt lat="44.3084" lon="11.4576233"><ele>191.0</ele><time>2026-05-02T10:10:26.855Z</time></trkpt><trkpt lat="44.3084567" lon="11.4575"><ele>191.0</ele><time>2026-05-02T10:10:28.854Z</time></trkpt><trkpt lat="44.308475" lon="11.4573883"><ele>191.0</ele><time>2026-05-02T10:10:32.854Z</time></trkpt><trkpt lat="44.3084283" lon="11.4572567"><ele>191.75</ele><time>2026-05-02T10:10:34.854Z</time></trkpt><trkpt lat="44.3083683" lon="11.4571167"><ele>192.5</ele><time>2026-05-02T10:10:35.854Z</time></trkpt><trkpt lat="44.3083067" lon="11.45694"><ele>193.25</ele><time>2026-05-02T10:10:36.855Z</time></trkpt><trkpt lat="44.3082533" lon="11.4567533"><ele>194.0</ele><time>2026-05-02T10:10:37.855Z</time></trkpt><trkpt lat="44.3082117" lon="11.4565767"><ele>194.0</ele><time>2026-05-02T10:10:38.854Z</time></trkpt><trkpt lat="44.308165" lon="11.456405"><ele>194.0</ele><time>2026-05-02T10:10:39.854Z</time></trkpt><trkpt lat="44.30811" lon="11.456235"><ele>194.0</ele><time>2026-05-02T10:10:40.854Z</time></trkpt><trkpt lat="44.3080517" lon="11.4560517"><ele>194.0</ele><time>2026-05-02T10:10:41.854Z</time></trkpt><trkpt lat="44.3079917" lon="11.4558633"><ele>193.75</ele><time>2026-05-02T10:10:42.854Z</time></trkpt><trkpt lat="44.3079333" lon="11.4556967"><ele>193.5</ele><time>2026-05-02T10:10:43.855Z</time></trkpt><trkpt lat="44.3078733" lon="11.4555417"><ele>193.25</ele><time>2026-05-02T10:10:44.854Z</time></trkpt><trkpt lat="44.3078167" lon="11.455395"><ele>193.0</ele><time>2026-05-02T10:10:45.854Z</time></trkpt><trkpt lat="44.307755" lon="11.4552417"><ele>194.0</ele><time>2026-05-02T10:10:46.854Z</time></trkpt><trkpt lat="44.3077017" lon="11.4550767"><ele>195.0</ele><time>2026-05-02T10:10:47.854Z</time></trkpt><trkpt lat="44.307655" lon="11.4548967"><ele>196.0</ele><time>2026-05-02T10:10:48.854Z</time></trkpt><trkpt lat="44.3076067" lon="11.4547083"><ele>197.0</ele><time>2026-05-02T10:10:49.854Z</time></trkpt><trkpt lat="44.3075517" lon="11.454525"><ele>198.75</ele><time>2026-05-02T10:10:50.855Z</time></trkpt><trkpt lat="44.3074867" lon="11.4543483"><ele>200.5</ele><time>2026-05-02T10:10:51.854Z</time></trkpt><trkpt lat="44.3074167" lon="11.4541767"><ele>202.25</ele><time>2026-05-02T10:10:52.854Z</time></trkpt><trkpt lat="44.3073417" lon="11.4540017"><ele>204.0</ele><time>2026-05-02T10:10:53.854Z</time></trkpt><trkpt lat="44.3072683" lon="11.453825"><ele>202.5</ele><time>2026-05-02T10:10:54.854Z</time></trkpt><trkpt lat="44.3071883" lon="11.4536417"><ele>201.0</ele><time>2026-05-02T10:10:55.855Z</time></trkpt><trkpt lat="44.307115" lon="11.4534617"><ele>199.5</ele><time>2026-05-02T10:10:56.854Z</time></trkpt><trkpt lat="44.3070383" lon="11.4532983"><ele>198.0</ele><time>2026-05-02T10:10:57.854Z</time></trkpt><trkpt lat="44.3069633" lon="11.453145"><ele>198.0</ele><time>2026-05-02T10:10:58.854Z</time></trkpt><trkpt lat="44.3068567" lon="11.4530167"><ele>198.0</ele><time>2026-05-02T10:10:59.854Z</time></trkpt><trkpt lat="44.30674" lon="11.4529167"><ele>198.0</ele><time>2026-05-02T10:11:00.855Z</time></trkpt><trkpt lat="44.3066133" lon="11.4528217"><ele>198.0</ele><time>2026-05-02T10:11:01.854Z</time></trkpt><trkpt lat="44.306495" lon="11.452725"><ele>198.0</ele><time>2026-05-02T10:11:02.854Z</time></trkpt><trkpt lat="44.306385" lon="11.4526067"><ele>198.0</ele><time>2026-05-02T10:11:03.854Z</time></trkpt><trkpt lat="44.3062867" lon="11.452475"><ele>198.0</ele><time>2026-05-02T10:11:04.854Z</time></trkpt><trkpt lat="44.3062067" lon="11.4523183"><ele>198.0</ele><time>2026-05-02T10:11:05.854Z</time></trkpt><trkpt lat="44.3061333" lon="11.4521517"><ele>199.25</ele><time>2026-05-02T10:11:06.854Z</time></trkpt><trkpt lat="44.3060733" lon="11.45197"><ele>200.5</ele><time>2026-05-02T10:11:07.854Z</time></trkpt><trkpt lat="44.306035" lon="11.4517833"><ele>201.75</ele><time>2026-05-02T10:11:08.854Z</time></trkpt><trkpt lat="44.3059817" lon="11.451605"><ele>203.0</ele><time>2026-05-02T10:11:09.855Z</time></trkpt><trkpt lat="44.3059083" lon="11.45145"><ele>203.0</ele><time>2026-05-02T10:11:10.854Z</time></trkpt><trkpt lat="44.30583" lon="11.4513083"><ele>203.0</ele><time>2026-05-02T10:11:11.854Z</time></trkpt><trkpt lat="44.3057567" lon="11.4511917"><ele>203.0</ele><time>2026-05-02T10:11:12.854Z</time></trkpt><trkpt lat="44.3056717" lon="11.4510867"><ele>203.0</ele><time>2026-05-02T10:11:13.854Z</time></trkpt><trkpt lat="44.30558" lon="11.45099"><ele>203.0</ele><time>2026-05-02T10:11:14.855Z</time></trkpt><trkpt lat="44.3054883" lon="11.4508983"><ele>203.0</ele><time>2026-05-02T10:11:15.854Z</time></trkpt><trkpt lat="44.3053917" lon="11.4508133"><ele>203.0</ele><time>2026-05-02T10:11:16.854Z</time></trkpt><trkpt lat="44.30528" lon="11.4507467"><ele>203.0</ele><time>2026-05-02T10:11:17.854Z</time></trkpt><trkpt lat="44.3051617" lon="11.4506883"><ele>203.0</ele><time>2026-05-02T10:11:18.854Z</time></trkpt><trkpt lat="44.3050417" lon="11.4506283"><ele>203.0</ele><time>2026-05-02T10:11:19.854Z</time></trkpt><trkpt lat="44.3049183" lon="11.4505583"><ele>203.0</ele><time>2026-05-02T10:11:20.854Z</time></trkpt><trkpt lat="44.3047983" lon="11.450475"><ele>203.0</ele><time>2026-05-02T10:11:21.854Z</time></trkpt><trkpt lat="44.3046867" lon="11.4503767"><ele>204.5</ele><time>2026-05-02T10:11:22.854Z</time></trkpt><trkpt lat="44.3045767" lon="11.4502683"><ele>206.0</ele><time>2026-05-02T10:11:23.855Z</time></trkpt><trkpt lat="44.30447" lon="11.45016"><ele>207.5</ele><time>2026-05-02T10:11:24.854Z</time></trkpt><trkpt lat="44.3043583" lon="11.4500533"><ele>209.0</ele><time>2026-05-02T10:11:25.855Z</time></trkpt><trkpt lat="44.3042433" lon="11.449945"><ele>209.0</ele><time>2026-05-02T10:11:26.855Z</time></trkpt><trkpt lat="44.3041383" lon="11.4498417"><ele>209.0</ele><time>2026-05-02T10:11:27.855Z</time></trkpt><trkpt lat="44.3040383" lon="11.4497483"><ele>209.0</ele><time>2026-05-02T10:11:28.854Z</time></trkpt><trkpt lat="44.30394" lon="11.449665"><ele>209.0</ele><time>2026-05-02T10:11:29.854Z</time></trkpt><trkpt lat="44.3038483" lon="11.4495767"><ele>209.2</ele><time>2026-05-02T10:11:30.854Z</time></trkpt><trkpt lat="44.303765" lon="11.449495"><ele>209.39999999999998</ele><time>2026-05-02T10:11:31.854Z</time></trkpt><trkpt lat="44.3036883" lon="11.4494167"><ele>209.6</ele><time>2026-05-02T10:11:32.854Z</time></trkpt><trkpt lat="44.303615" lon="11.4493533"><ele>209.8</ele><time>2026-05-02T10:11:33.855Z</time></trkpt><trkpt lat="44.3035367" lon="11.4492833"><ele>210.0</ele><time>2026-05-02T10:11:34.854Z</time></trkpt><trkpt lat="44.3034683" lon="11.4492"><ele>210.0</ele><time>2026-05-02T10:11:35.854Z</time></trkpt><trkpt lat="44.303405" lon="11.4491017"><ele>210.0</ele><time>2026-05-02T10:11:36.855Z</time></trkpt><trkpt lat="44.3033433" lon="11.4490017"><ele>210.0</ele><time>2026-05-02T10:11:37.854Z</time></trkpt><trkpt lat="44.3032767" lon="11.44889"><ele>210.0</ele><time>2026-05-02T10:11:38.854Z</time></trkpt><trkpt lat="44.3032033" lon="11.44879"><ele>210.0</ele><time>2026-05-02T10:11:39.854Z</time></trkpt><trkpt lat="44.303135" lon="11.4487083"><ele>209.8</ele><time>2026-05-02T10:11:40.854Z</time></trkpt><trkpt lat="44.3030633" lon="11.4486483"><ele>209.6</ele><time>2026-05-02T10:11:41.855Z</time></trkpt><trkpt lat="44.302995" lon="11.448585"><ele>209.39999999999998</ele><time>2026-05-02T10:11:42.854Z</time></trkpt><trkpt lat="44.3029067" lon="11.4485383"><ele>209.2</ele><time>2026-05-02T10:11:43.855Z</time></trkpt><trkpt lat="44.30281" lon="11.448505"><ele>209.0</ele><time>2026-05-02T10:11:44.854Z</time></trkpt><trkpt lat="44.3027017" lon="11.448505"><ele>209.0</ele><time>2026-05-02T10:11:45.854Z</time></trkpt><trkpt lat="44.3026" lon="11.4485183"><ele>209.0</ele><time>2026-05-02T10:11:46.854Z</time></trkpt><trkpt lat="44.3025" lon="11.4485533"><ele>209.0</ele><time>2026-05-02T10:11:47.854Z</time></trkpt><trkpt lat="44.3024117" lon="11.4485933"><ele>209.0</ele><time>2026-05-02T10:11:48.854Z</time></trkpt><trkpt lat="44.3023317" lon="11.44863"><ele>209.0</ele><time>2026-05-02T10:11:49.855Z</time></trkpt><trkpt lat="44.302255" lon="11.4486667"><ele>209.33333333333334</ele><time>2026-05-02T10:11:50.854Z</time></trkpt><trkpt lat="44.3021817" lon="11.448705"><ele>209.66666666666669</ele><time>2026-05-02T10:11:51.854Z</time></trkpt><trkpt lat="44.3021067" lon="11.4487433"><ele>210.0</ele><time>2026-05-02T10:11:52.854Z</time></trkpt><trkpt lat="44.302025" lon="11.4487883"><ele>210.33333333333331</ele><time>2026-05-02T10:11:53.854Z</time></trkpt><trkpt lat="44.30194" lon="11.4487983"><ele>210.66666666666666</ele><time>2026-05-02T10:11:54.854Z</time></trkpt><trkpt lat="44.3018583" lon="11.4487683"><ele>211.0</ele><time>2026-05-02T10:11:55.855Z</time></trkpt><trkpt lat="44.30179" lon="11.4486833"><ele>211.0</ele><time>2026-05-02T10:11:56.854Z</time></trkpt><trkpt lat="44.3017267" lon="11.4485733"><ele>211.0</ele><time>2026-05-02T10:11:57.854Z</time></trkpt><trkpt lat="44.3016583" lon="11.4484517"><ele>211.0</ele><time>2026-05-02T10:11:58.854Z</time></trkpt><trkpt lat="44.3015767" lon="11.4483317"><ele>211.0</ele><time>2026-05-02T10:11:59.855Z</time></trkpt><trkpt lat="44.3014783" lon="11.4481967"><ele>211.0</ele><time>2026-05-02T10:12:00.855Z</time></trkpt><trkpt lat="44.3013617" lon="11.44804"><ele>211.0</ele><time>2026-05-02T10:12:01.854Z</time></trkpt><trkpt lat="44.30123" lon="11.4478933"><ele>211.0</ele><time>2026-05-02T10:12:02.854Z</time></trkpt><trkpt lat="44.3010833" lon="11.4477567"><ele>211.0</ele><time>2026-05-02T10:12:03.855Z</time></trkpt><trkpt lat="44.3009283" lon="11.4476133"><ele>211.0</ele><time>2026-05-02T10:12:04.854Z</time></trkpt><trkpt lat="44.3007783" lon="11.4474833"><ele>211.0</ele><time>2026-05-02T10:12:05.854Z</time></trkpt><trkpt lat="44.3006133" lon="11.4473717"><ele>213.0</ele><time>2026-05-02T10:12:06.854Z</time></trkpt><trkpt lat="44.3004333" lon="11.4472717"><ele>215.0</ele><time>2026-05-02T10:12:07.855Z</time></trkpt><trkpt lat="44.30027" lon="11.4471967"><ele>217.0</ele><time>2026-05-02T10:12:08.855Z</time></trkpt><trkpt lat="44.3001133" lon="11.447135"><ele>215.33333333333331</ele><time>2026-05-02T10:12:09.855Z</time></trkpt><trkpt lat="44.2999567" lon="11.4470567"><ele>213.66666666666669</ele><time>2026-05-02T10:12:10.854Z</time></trkpt><trkpt lat="44.2998067" lon="11.44697"><ele>212.0</ele><time>2026-05-02T10:12:11.855Z</time></trkpt><trkpt lat="44.2996533" lon="11.4469183"><ele>212.0</ele><time>2026-05-02T10:12:12.855Z</time></trkpt><trkpt lat="44.2995033" lon="11.4469033"><ele>212.0</ele><time>2026-05-02T10:12:13.854Z</time></trkpt><trkpt lat="44.2993583" lon="11.4469"><ele>212.0</ele><time>2026-05-02T10:12:14.854Z</time></trkpt><trkpt lat="44.2992133" lon="11.4468617"><ele>212.0</ele><time>2026-05-02T10:12:15.854Z</time></trkpt><trkpt lat="44.2990617" lon="11.446795"><ele>212.0</ele><time>2026-05-02T10:12:16.854Z</time></trkpt><trkpt lat="44.29892" lon="11.4466933"><ele>212.0</ele><time>2026-05-02T10:12:17.855Z</time></trkpt><trkpt lat="44.29879" lon="11.4466033"><ele>212.0</ele><time>2026-05-02T10:12:18.854Z</time></trkpt><trkpt lat="44.2986633" lon="11.4465383"><ele>212.0</ele><time>2026-05-02T10:12:19.854Z</time></trkpt><trkpt lat="44.2985267" lon="11.4465383"><ele>212.0</ele><time>2026-05-02T10:12:20.854Z</time></trkpt><trkpt lat="44.29838" lon="11.4465717"><ele>212.0</ele><time>2026-05-02T10:12:21.854Z</time></trkpt><trkpt lat="44.298225" lon="11.4466383"><ele>212.0</ele><time>2026-05-02T10:12:22.854Z</time></trkpt><trkpt lat="44.2980683" lon="11.4467067"><ele>212.0</ele><time>2026-05-02T10:12:23.854Z</time></trkpt><trkpt lat="44.2979117" lon="11.4467817"><ele>212.0</ele><time>2026-05-02T10:12:24.854Z</time></trkpt><trkpt lat="44.2977567" lon="11.4468333"><ele>212.0</ele><time>2026-05-02T10:12:25.855Z</time></trkpt><trkpt lat="44.2976" lon="11.4468533"><ele>212.0</ele><time>2026-05-02T10:12:26.855Z</time></trkpt><trkpt lat="44.2974483" lon="11.446835"><ele>212.0</ele><time>2026-05-02T10:12:27.854Z</time></trkpt><trkpt lat="44.29731" lon="11.4468133"><ele>212.0</ele><time>2026-05-02T10:12:28.854Z</time></trkpt><trkpt lat="44.2971933" lon="11.446835"><ele>212.0</ele><time>2026-05-02T10:12:29.854Z</time></trkpt><trkpt lat="44.2970967" lon="11.4468967"><ele>212.5</ele><time>2026-05-02T10:12:30.854Z</time></trkpt><trkpt lat="44.2970167" lon="11.446985"><ele>213.0</ele><time>2026-05-02T10:12:31.854Z</time></trkpt><trkpt lat="44.296935" lon="11.44709"><ele>213.5</ele><time>2026-05-02T10:12:32.854Z</time></trkpt><trkpt lat="44.29684" lon="11.44719"><ele>214.0</ele><time>2026-05-02T10:12:33.854Z</time></trkpt><trkpt lat="44.2967267" lon="11.4472617"><ele>217.0</ele><time>2026-05-02T10:12:34.854Z</time></trkpt><trkpt lat="44.296585" lon="11.447285"><ele>220.0</ele><time>2026-05-02T10:12:35.854Z</time></trkpt><trkpt lat="44.2964483" lon="11.447285"><ele>223.0</ele><time>2026-05-02T10:12:36.854Z</time></trkpt><trkpt lat="44.2963067" lon="11.4472567"><ele>226.0</ele><time>2026-05-02T10:12:37.854Z</time></trkpt><trkpt lat="44.2961617" lon="11.4471983"><ele>223.0</ele><time>2026-05-02T10:12:38.854Z</time></trkpt><trkpt lat="44.2960217" lon="11.4471117"><ele>220.0</ele><time>2026-05-02T10:12:39.854Z</time></trkpt><trkpt lat="44.2958767" lon="11.4470133"><ele>217.0</ele><time>2026-05-02T10:12:40.854Z</time></trkpt><trkpt lat="44.2957317" lon="11.446945"><ele>217.0</ele><time>2026-05-02T10:12:41.854Z</time></trkpt><trkpt lat="44.2955883" lon="11.4469083"><ele>217.0</ele><time>2026-05-02T10:12:42.855Z</time></trkpt><trkpt lat="44.2954533" lon="11.4469067"><ele>217.0</ele><time>2026-05-02T10:12:43.854Z</time></trkpt><trkpt lat="44.2953183" lon="11.4469583"><ele>217.0</ele><time>2026-05-02T10:12:44.854Z</time></trkpt><trkpt lat="44.2951967" lon="11.4470433"><ele>220.33333333333331</ele><time>2026-05-02T10:12:45.854Z</time></trkpt><trkpt lat="44.2950783" lon="11.4471617"><ele>223.66666666666669</ele><time>2026-05-02T10:12:46.855Z</time></trkpt><trkpt lat="44.2949567" lon="11.4472983"><ele>227.0</ele><time>2026-05-02T10:12:47.855Z</time></trkpt><trkpt lat="44.2948433" lon="11.447435"><ele>225.5</ele><time>2026-05-02T10:12:48.854Z</time></trkpt><trkpt lat="44.29473" lon="11.4475683"><ele>224.0</ele><time>2026-05-02T10:12:49.854Z</time></trkpt><trkpt lat="44.294625" lon="11.4476967"><ele>222.5</ele><time>2026-05-02T10:12:50.855Z</time></trkpt><trkpt lat="44.2945233" lon="11.4478133"><ele>221.0</ele><time>2026-05-02T10:12:51.854Z</time></trkpt><trkpt lat="44.2944317" lon="11.44792"><ele>222.8</ele><time>2026-05-02T10:12:52.854Z</time></trkpt><trkpt lat="44.2943467" lon="11.4480133"><ele>224.60000000000002</ele><time>2026-05-02T10:12:53.854Z</time></trkpt><trkpt lat="44.2942483" lon="11.4480817"><ele>226.4</ele><time>2026-05-02T10:12:54.855Z</time></trkpt><trkpt lat="44.29415" lon="11.4481283"><ele>228.2</ele><time>2026-05-02T10:12:55.855Z</time></trkpt><trkpt lat="44.2940383" lon="11.44817"><ele>230.0</ele><time>2026-05-02T10:12:56.855Z</time></trkpt><trkpt lat="44.2939317" lon="11.4482017"><ele>230.0</ele><time>2026-05-02T10:12:57.854Z</time></trkpt><trkpt lat="44.293825" lon="11.44821"><ele>230.0</ele><time>2026-05-02T10:12:58.855Z</time></trkpt><trkpt lat="44.2937133" lon="11.4481683"><ele>230.0</ele><time>2026-05-02T10:12:59.854Z</time></trkpt><trkpt lat="44.2936117" lon="11.4480867"><ele>230.0</ele><time>2026-05-02T10:13:00.855Z</time></trkpt><trkpt lat="44.2935283" lon="11.4479867"><ele>229.6</ele><time>2026-05-02T10:13:01.854Z</time></trkpt><trkpt lat="44.293435" lon="11.4478883"><ele>229.2</ele><time>2026-05-02T10:13:02.854Z</time></trkpt><trkpt lat="44.293345" lon="11.4478233"><ele>228.8</ele><time>2026-05-02T10:13:03.854Z</time></trkpt><trkpt lat="44.29324" lon="11.4478183"><ele>228.4</ele><time>2026-05-02T10:13:04.854Z</time></trkpt><trkpt lat="44.293135" lon="11.4478633"><ele>228.0</ele><time>2026-05-02T10:13:05.854Z</time></trkpt><trkpt lat="44.2930333" lon="11.4479467"><ele>228.0</ele><time>2026-05-02T10:13:06.854Z</time></trkpt><trkpt lat="44.2929417" lon="11.4480583"><ele>228.0</ele><time>2026-05-02T10:13:07.854Z</time></trkpt><trkpt lat="44.2928533" lon="11.448185"><ele>228.0</ele><time>2026-05-02T10:13:08.854Z</time></trkpt><trkpt lat="44.292775" lon="11.44831"><ele>228.0</ele><time>2026-05-02T10:13:09.854Z</time></trkpt><trkpt lat="44.2926983" lon="11.44843"><ele>228.0</ele><time>2026-05-02T10:13:10.854Z</time></trkpt><trkpt lat="44.29262" lon="11.4485367"><ele>228.0</ele><time>2026-05-02T10:13:11.854Z</time></trkpt><trkpt lat="44.292545" lon="11.44861"><ele>228.0</ele><time>2026-05-02T10:13:12.854Z</time></trkpt><trkpt lat="44.2924483" lon="11.44864"><ele>228.0</ele><time>2026-05-02T10:13:13.854Z</time></trkpt><trkpt lat="44.2923333" lon="11.4485967"><ele>228.0</ele><time>2026-05-02T10:13:14.854Z</time></trkpt><trkpt lat="44.2922" lon="11.4485267"><ele>229.25</ele><time>2026-05-02T10:13:15.854Z</time></trkpt><trkpt lat="44.2920567" lon="11.4484533"><ele>230.5</ele><time>2026-05-02T10:13:16.855Z</time></trkpt><trkpt lat="44.2919217" lon="11.4484017"><ele>231.75</ele><time>2026-05-02T10:13:17.854Z</time></trkpt><trkpt lat="44.2918017" lon="11.4483633"><ele>233.0</ele><time>2026-05-02T10:13:18.855Z</time></trkpt><trkpt lat="44.2916833" lon="11.44834"><ele>233.0</ele><time>2026-05-02T10:13:19.854Z</time></trkpt><trkpt lat="44.2915667" lon="11.448335"><ele>233.0</ele><time>2026-05-02T10:13:20.854Z</time></trkpt><trkpt lat="44.29144" lon="11.448345"><ele>233.0</ele><time>2026-05-02T10:13:21.855Z</time></trkpt><trkpt lat="44.2913067" lon="11.44835"><ele>233.0</ele><time>2026-05-02T10:13:22.854Z</time></trkpt><trkpt lat="44.29117" lon="11.4483583"><ele>232.75</ele><time>2026-05-02T10:13:23.855Z</time></trkpt><trkpt lat="44.2910317" lon="11.4483733"><ele>232.5</ele><time>2026-05-02T10:13:24.854Z</time></trkpt><trkpt lat="44.2909" lon="11.4483933"><ele>232.25</ele><time>2026-05-02T10:13:25.855Z</time></trkpt><trkpt lat="44.2907717" lon="11.448435"><ele>232.0</ele><time>2026-05-02T10:13:26.854Z</time></trkpt><trkpt lat="44.2906467" lon="11.4484933"><ele>232.0</ele><time>2026-05-02T10:13:27.855Z</time></trkpt><trkpt lat="44.290535" lon="11.4485767"><ele>232.0</ele><time>2026-05-02T10:13:28.855Z</time></trkpt><trkpt lat="44.2904283" lon="11.4486717"><ele>232.0</ele><time>2026-05-02T10:13:29.855Z</time></trkpt><trkpt lat="44.290325" lon="11.4487767"><ele>232.0</ele><time>2026-05-02T10:13:30.854Z</time></trkpt><trkpt lat="44.2902267" lon="11.44888"><ele>233.25</ele><time>2026-05-02T10:13:31.854Z</time></trkpt><trkpt lat="44.2901317" lon="11.4489733"><ele>234.5</ele><time>2026-05-02T10:13:32.854Z</time></trkpt><trkpt lat="44.2900333" lon="11.4490617"><ele>235.75</ele><time>2026-05-02T10:13:33.854Z</time></trkpt><trkpt lat="44.28993" lon="11.4491367"><ele>237.0</ele><time>2026-05-02T10:13:34.854Z</time></trkpt><trkpt lat="44.2898133" lon="11.44919"><ele>236.5</ele><time>2026-05-02T10:13:35.854Z</time></trkpt><trkpt lat="44.289685" lon="11.44923"><ele>236.0</ele><time>2026-05-02T10:13:36.855Z</time></trkpt><trkpt lat="44.2895317" lon="11.44926"><ele>235.5</ele><time>2026-05-02T10:13:37.854Z</time></trkpt><trkpt lat="44.2893717" lon="11.4492833"><ele>235.0</ele><time>2026-05-02T10:13:38.854Z</time></trkpt><trkpt lat="44.2892133" lon="11.4493033"><ele>235.0</ele><time>2026-05-02T10:13:39.855Z</time></trkpt><trkpt lat="44.2890517" lon="11.4493067"><ele>235.0</ele><time>2026-05-02T10:13:40.855Z</time></trkpt><trkpt lat="44.2888983" lon="11.44931"><ele>235.0</ele><time>2026-05-02T10:13:41.854Z</time></trkpt><trkpt lat="44.28875" lon="11.4493283"><ele>235.0</ele><time>2026-05-02T10:13:42.854Z</time></trkpt><trkpt lat="44.28861" lon="11.449365"><ele>235.0</ele><time>2026-05-02T10:13:43.854Z</time></trkpt><trkpt lat="44.28847" lon="11.449425"><ele>235.0</ele><time>2026-05-02T10:13:44.854Z</time></trkpt><trkpt lat="44.288335" lon="11.4495017"><ele>235.0</ele><time>2026-05-02T10:13:45.854Z</time></trkpt><trkpt lat="44.2882" lon="11.4495833"><ele>235.5</ele><time>2026-05-02T10:13:46.854Z</time></trkpt><trkpt lat="44.2880683" lon="11.4496517"><ele>236.0</ele><time>2026-05-02T10:13:47.855Z</time></trkpt><trkpt lat="44.28794" lon="11.4497133"><ele>236.5</ele><time>2026-05-02T10:13:48.855Z</time></trkpt><trkpt lat="44.28782" lon="11.449775"><ele>237.0</ele><time>2026-05-02T10:13:49.854Z</time></trkpt><trkpt lat="44.287705" lon="11.4498483"><ele>237.0</ele><time>2026-05-02T10:13:50.855Z</time></trkpt><trkpt lat="44.287605" lon="11.4499517"><ele>237.0</ele><time>2026-05-02T10:13:51.854Z</time></trkpt><trkpt lat="44.2875333" lon="11.45009"><ele>237.0</ele><time>2026-05-02T10:13:52.854Z</time></trkpt><trkpt lat="44.287475" lon="11.4502383"><ele>237.0</ele><time>2026-05-02T10:13:53.854Z</time></trkpt><trkpt lat="44.2874167" lon="11.450385"><ele>237.25</ele><time>2026-05-02T10:13:54.854Z</time></trkpt><trkpt lat="44.2873583" lon="11.4505283"><ele>237.5</ele><time>2026-05-02T10:13:55.855Z</time></trkpt><trkpt lat="44.287305" lon="11.4506817"><ele>237.75</ele><time>2026-05-02T10:13:56.854Z</time></trkpt><trkpt lat="44.2872367" lon="11.4508283"><ele>238.0</ele><time>2026-05-02T10:13:57.854Z</time></trkpt><trkpt lat="44.2871683" lon="11.450985"><ele>238.0</ele><time>2026-05-02T10:13:58.854Z</time></trkpt><trkpt lat="44.2870917" lon="11.45113"><ele>238.0</ele><time>2026-05-02T10:13:59.855Z</time></trkpt><trkpt lat="44.286995" lon="11.4512533"><ele>238.0</ele><time>2026-05-02T10:14:00.854Z</time></trkpt><trkpt lat="44.286875" lon="11.4513467"><ele>238.0</ele><time>2026-05-02T10:14:01.854Z</time></trkpt><trkpt lat="44.28675" lon="11.4513917"><ele>239.8</ele><time>2026-05-02T10:14:02.854Z</time></trkpt><trkpt lat="44.2866467" lon="11.45144"><ele>241.60000000000002</ele><time>2026-05-02T10:14:03.854Z</time></trkpt><trkpt lat="44.2865717" lon="11.4515183"><ele>243.39999999999998</ele><time>2026-05-02T10:14:04.854Z</time></trkpt><trkpt lat="44.28652" lon="11.4516283"><ele>245.2</ele><time>2026-05-02T10:14:05.854Z</time></trkpt><trkpt lat="44.2864833" lon="11.451765"><ele>247.0</ele><time>2026-05-02T10:14:06.854Z</time></trkpt><trkpt lat="44.2864467" lon="11.451905"><ele>247.2</ele><time>2026-05-02T10:14:07.855Z</time></trkpt><trkpt lat="44.2863783" lon="11.4520333"><ele>247.39999999999998</ele><time>2026-05-02T10:14:08.854Z</time></trkpt><trkpt lat="44.2862967" lon="11.45213"><ele>247.60000000000002</ele><time>2026-05-02T10:14:09.854Z</time></trkpt><trkpt lat="44.28619" lon="11.4521783"><ele>247.8</ele><time>2026-05-02T10:14:10.854Z</time></trkpt><trkpt lat="44.286075" lon="11.452185"><ele>248.0</ele><time>2026-05-02T10:14:11.855Z</time></trkpt><trkpt lat="44.2859717" lon="11.45213"><ele>248.0</ele><time>2026-05-02T10:14:12.855Z</time></trkpt><trkpt lat="44.28589" lon="11.45204"><ele>248.0</ele><time>2026-05-02T10:14:13.855Z</time></trkpt><trkpt lat="44.285835" lon="11.45192"><ele>248.0</ele><time>2026-05-02T10:14:14.854Z</time></trkpt><trkpt lat="44.2857783" lon="11.4517917"><ele>248.0</ele><time>2026-05-02T10:14:15.854Z</time></trkpt><trkpt lat="44.2857233" lon="11.451675"><ele>248.0</ele><time>2026-05-02T10:14:16.854Z</time></trkpt><trkpt lat="44.2856567" lon="11.4515783"><ele>249.4</ele><time>2026-05-02T10:14:17.854Z</time></trkpt><trkpt lat="44.2855717" lon="11.4515133"><ele>250.8</ele><time>2026-05-02T10:14:18.854Z</time></trkpt><trkpt lat="44.2854717" lon="11.4514733"><ele>252.2</ele><time>2026-05-02T10:14:19.854Z</time></trkpt><trkpt lat="44.285365" lon="11.4514433"><ele>253.6</ele><time>2026-05-02T10:14:20.854Z</time></trkpt><trkpt lat="44.28524" lon="11.4514133"><ele>255.0</ele><time>2026-05-02T10:14:21.854Z</time></trkpt><trkpt lat="44.28509" lon="11.4513983"><ele>255.0</ele><time>2026-05-02T10:14:22.854Z</time></trkpt><trkpt lat="44.284945" lon="11.4513867"><ele>255.0</ele><time>2026-05-02T10:14:23.854Z</time></trkpt><trkpt lat="44.284805" lon="11.451375"><ele>255.0</ele><time>2026-05-02T10:14:24.854Z</time></trkpt><trkpt lat="44.2846633" lon="11.451395"><ele>255.0</ele><time>2026-05-02T10:14:25.854Z</time></trkpt><trkpt lat="44.284525" lon="11.451435"><ele>254.0</ele><time>2026-05-02T10:14:26.854Z</time></trkpt><trkpt lat="44.2844117" lon="11.4514667"><ele>253.0</ele><time>2026-05-02T10:14:27.854Z</time></trkpt><trkpt lat="44.2842983" lon="11.451535"><ele>252.0</ele><time>2026-05-02T10:14:28.854Z</time></trkpt><trkpt lat="44.2842" lon="11.451635"><ele>251.0</ele><time>2026-05-02T10:14:29.854Z</time></trkpt><trkpt lat="44.2841283" lon="11.451755"><ele>251.0</ele><time>2026-05-02T10:14:30.854Z</time></trkpt><trkpt lat="44.284075" lon="11.4519083"><ele>251.0</ele><time>2026-05-02T10:14:31.854Z</time></trkpt><trkpt lat="44.2840483" lon="11.4520917"><ele>251.0</ele><time>2026-05-02T10:14:32.854Z</time></trkpt><trkpt lat="44.284055" lon="11.4522767"><ele>251.0</ele><time>2026-05-02T10:14:33.854Z</time></trkpt><trkpt lat="44.28408" lon="11.4524467"><ele>251.8</ele><time>2026-05-02T10:14:34.854Z</time></trkpt><trkpt lat="44.2840817" lon="11.4525967"><ele>252.60000000000002</ele><time>2026-05-02T10:14:35.854Z</time></trkpt><trkpt lat="44.2840633" lon="11.4527233"><ele>253.4</ele><time>2026-05-02T10:14:36.854Z</time></trkpt><trkpt lat="44.2840267" lon="11.45283"><ele>254.2</ele><time>2026-05-02T10:14:37.855Z</time></trkpt><trkpt lat="44.283965" lon="11.4529067"><ele>255.0</ele><time>2026-05-02T10:14:38.854Z</time></trkpt><trkpt lat="44.283885" lon="11.4529633"><ele>254.4</ele><time>2026-05-02T10:14:39.855Z</time></trkpt><trkpt lat="44.283785" lon="11.4529967"><ele>253.8</ele><time>2026-05-02T10:14:40.854Z</time></trkpt><trkpt lat="44.283675" lon="11.453015"><ele>253.2</ele><time>2026-05-02T10:14:41.854Z</time></trkpt><trkpt lat="44.2835683" lon="11.4529933"><ele>252.6</ele><time>2026-05-02T10:14:42.855Z</time></trkpt><trkpt lat="44.2834617" lon="11.4529283"><ele>252.0</ele><time>2026-05-02T10:14:43.855Z</time></trkpt><trkpt lat="44.2833483" lon="11.4528483"><ele>252.0</ele><time>2026-05-02T10:14:44.854Z</time></trkpt><trkpt lat="44.28324" lon="11.4527917"><ele>252.0</ele><time>2026-05-02T10:14:45.855Z</time></trkpt><trkpt lat="44.2831133" lon="11.4527683"><ele>252.0</ele><time>2026-05-02T10:14:46.854Z</time></trkpt><trkpt lat="44.2829783" lon="11.4527633"><ele>252.0</ele><time>2026-05-02T10:14:47.854Z</time></trkpt><trkpt lat="44.28285" lon="11.4527633"><ele>251.5</ele><time>2026-05-02T10:14:48.854Z</time></trkpt><trkpt lat="44.282735" lon="11.452795"><ele>251.0</ele><time>2026-05-02T10:14:49.855Z</time></trkpt><trkpt lat="44.28263" lon="11.452865"><ele>250.5</ele><time>2026-05-02T10:14:50.854Z</time></trkpt><trkpt lat="44.2825483" lon="11.4529733"><ele>250.0</ele><time>2026-05-02T10:14:51.854Z</time></trkpt><trkpt lat="44.282495" lon="11.45314"><ele>250.25</ele><time>2026-05-02T10:14:52.855Z</time></trkpt><trkpt lat="44.2824517" lon="11.453295"><ele>250.5</ele><time>2026-05-02T10:14:53.854Z</time></trkpt><trkpt lat="44.2823983" lon="11.4534283"><ele>250.75</ele><time>2026-05-02T10:14:54.854Z</time></trkpt><trkpt lat="44.282305" lon="11.4535233"><ele>251.0</ele><time>2026-05-02T10:14:55.854Z</time></trkpt><trkpt lat="44.2821967" lon="11.4535883"><ele>251.0</ele><time>2026-05-02T10:14:56.854Z</time></trkpt><trkpt lat="44.2820717" lon="11.45362"><ele>251.0</ele><time>2026-05-02T10:14:57.854Z</time></trkpt><trkpt lat="44.28195" lon="11.45365"><ele>251.0</ele><time>2026-05-02T10:14:58.854Z</time></trkpt><trkpt lat="44.2818383" lon="11.453695"><ele>251.0</ele><time>2026-05-02T10:14:59.854Z</time></trkpt><trkpt lat="44.2817317" lon="11.453765"><ele>251.75</ele><time>2026-05-02T10:15:00.855Z</time></trkpt><trkpt lat="44.2816533" lon="11.4538833"><ele>252.5</ele><time>2026-05-02T10:15:01.855Z</time></trkpt><trkpt lat="44.2815683" lon="11.4540417"><ele>253.25</ele><time>2026-05-02T10:15:02.854Z</time></trkpt><trkpt lat="44.281495" lon="11.4541933"><ele>254.0</ele><time>2026-05-02T10:15:03.854Z</time></trkpt><trkpt lat="44.281405" lon="11.4543267"><ele>254.0</ele><time>2026-05-02T10:15:04.854Z</time></trkpt><trkpt lat="44.2812833" lon="11.4544483"><ele>254.0</ele><time>2026-05-02T10:15:05.854Z</time></trkpt><trkpt lat="44.2811533" lon="11.454565"><ele>254.0</ele><time>2026-05-02T10:15:06.854Z</time></trkpt><trkpt lat="44.2810283" lon="11.454655"><ele>254.0</ele><time>2026-05-02T10:15:07.854Z</time></trkpt><trkpt lat="44.2809083" lon="11.454755"><ele>255.25</ele><time>2026-05-02T10:15:08.855Z</time></trkpt><trkpt lat="44.2808" lon="11.4548617"><ele>256.5</ele><time>2026-05-02T10:15:09.855Z</time></trkpt><trkpt lat="44.2807017" lon="11.4549733"><ele>257.75</ele><time>2026-05-02T10:15:10.855Z</time></trkpt><trkpt lat="44.2806017" lon="11.4550833"><ele>259.0</ele><time>2026-05-02T10:15:11.854Z</time></trkpt><trkpt lat="44.280515" lon="11.4551867"><ele>259.0</ele><time>2026-05-02T10:15:12.854Z</time></trkpt><trkpt lat="44.2804317" lon="11.4552883"><ele>259.0</ele><time>2026-05-02T10:15:13.855Z</time></trkpt><trkpt lat="44.2803567" lon="11.4554017"><ele>259.0</ele><time>2026-05-02T10:15:14.855Z</time></trkpt><trkpt lat="44.28028" lon="11.4555317"><ele>259.0</ele><time>2026-05-02T10:15:15.854Z</time></trkpt><trkpt lat="44.280215" lon="11.4556717"><ele>260.5</ele><time>2026-05-02T10:15:16.854Z</time></trkpt><trkpt lat="44.2801567" lon="11.4558183"><ele>262.0</ele><time>2026-05-02T10:15:17.854Z</time></trkpt><trkpt lat="44.2800933" lon="11.455985"><ele>263.5</ele><time>2026-05-02T10:15:18.854Z</time></trkpt><trkpt lat="44.2800183" lon="11.4561667"><ele>265.0</ele><time>2026-05-02T10:15:19.854Z</time></trkpt><trkpt lat="44.2799433" lon="11.4563583"><ele>264.75</ele><time>2026-05-02T10:15:20.855Z</time></trkpt><trkpt lat="44.2798733" lon="11.456555"><ele>264.5</ele><time>2026-05-02T10:15:21.854Z</time></trkpt><trkpt lat="44.2798067" lon="11.4567333"><ele>264.25</ele><time>2026-05-02T10:15:22.855Z</time></trkpt><trkpt lat="44.2797583" lon="11.4569017"><ele>264.0</ele><time>2026-05-02T10:15:23.854Z</time></trkpt><trkpt lat="44.27973" lon="11.4570617"><ele>265.4</ele><time>2026-05-02T10:15:24.854Z</time></trkpt><trkpt lat="44.2797067" lon="11.4572317"><ele>266.79999999999995</ele><time>2026-05-02T10:15:25.854Z</time></trkpt><trkpt lat="44.2796917" lon="11.457385"><ele>268.20000000000005</ele><time>2026-05-02T10:15:26.855Z</time></trkpt><trkpt lat="44.279685" lon="11.4575217"><ele>269.6</ele><time>2026-05-02T10:15:27.854Z</time></trkpt><trkpt lat="44.2796867" lon="11.4576417"><ele>271.0</ele><time>2026-05-02T10:15:28.854Z</time></trkpt><trkpt lat="44.2796783" lon="11.45775"><ele>271.0</ele><time>2026-05-02T10:15:29.854Z</time></trkpt><trkpt lat="44.2796483" lon="11.4578417"><ele>271.0</ele><time>2026-05-02T10:15:30.854Z</time></trkpt><trkpt lat="44.279605" lon="11.4579067"><ele>271.0</ele><time>2026-05-02T10:15:31.854Z</time></trkpt><trkpt lat="44.2795467" lon="11.4579567"><ele>271.0</ele><time>2026-05-02T10:15:32.855Z</time></trkpt><trkpt lat="44.2794467" lon="11.457965"><ele>271.0</ele><time>2026-05-02T10:15:34.854Z</time></trkpt><trkpt lat="44.2793517" lon="11.4579417"><ele>271.0</ele><time>2026-05-02T10:15:36.854Z</time></trkpt><trkpt lat="44.2792717" lon="11.4579867"><ele>272.5</ele><time>2026-05-02T10:15:38.854Z</time></trkpt><trkpt lat="44.2792333" lon="11.4580933"><ele>274.0</ele><time>2026-05-02T10:18:27.853Z</time></trkpt><trkpt lat="44.2791533" lon="11.4582333"><ele>275.5</ele><time>2026-05-02T10:18:29.853Z</time></trkpt><trkpt lat="44.279105" lon="11.45831"><ele>277.0</ele><time>2026-05-02T10:18:30.854Z</time></trkpt><trkpt lat="44.27906" lon="11.4583883"><ele>278.5</ele><time>2026-05-02T10:18:31.854Z</time></trkpt><trkpt lat="44.2790233" lon="11.4584617"><ele>280.0</ele><time>2026-05-02T10:18:32.854Z</time></trkpt><trkpt lat="44.2789483" lon="11.4585917"><ele>279.4</ele><time>2026-05-02T10:18:34.853Z</time></trkpt><trkpt lat="44.278885" lon="11.45873"><ele>278.8</ele><time>2026-05-02T10:18:36.854Z</time></trkpt><trkpt lat="44.278855" lon="11.4588933"><ele>278.2</ele><time>2026-05-02T10:18:38.853Z</time></trkpt><trkpt lat="44.2788433" lon="11.45898"><ele>277.6</ele><time>2026-05-02T10:18:39.853Z</time></trkpt><trkpt lat="44.2788217" lon="11.459145"><ele>277.0</ele><time>2026-05-02T10:18:41.853Z</time></trkpt><trkpt lat="44.2788183" lon="11.4592333"><ele>277.0</ele><time>2026-05-02T10:18:42.853Z</time></trkpt><trkpt lat="44.2788067" lon="11.4593983"><ele>277.0</ele><time>2026-05-02T10:18:44.854Z</time></trkpt><trkpt lat="44.27881" lon="11.459555"><ele>277.0</ele><time>2026-05-02T10:18:46.853Z</time></trkpt><trkpt lat="44.2788267" lon="11.4596917"><ele>277.0</ele><time>2026-05-02T10:18:48.854Z</time></trkpt><trkpt lat="44.27889" lon="11.459775"><ele>277.0</ele><time>2026-05-02T10:18:50.853Z</time></trkpt><trkpt lat="44.2789733" lon="11.4597883"><ele>279.6</ele><time>2026-05-02T10:18:52.853Z</time></trkpt><trkpt lat="44.2790667" lon="11.4597467"><ele>282.2</ele><time>2026-05-02T10:18:54.853Z</time></trkpt><trkpt lat="44.2791617" lon="11.459675"><ele>284.8</ele><time>2026-05-02T10:18:56.853Z</time></trkpt><trkpt lat="44.2792533" lon="11.4595967"><ele>287.4</ele><time>2026-05-02T10:18:58.853Z</time></trkpt><trkpt lat="44.27935" lon="11.4595283"><ele>290.0</ele><time>2026-05-02T10:19:00.853Z</time></trkpt><trkpt lat="44.27945" lon="11.4595067"><ele>290.0</ele><time>2026-05-02T10:19:02.853Z</time></trkpt><trkpt lat="44.27954" lon="11.4595567"><ele>290.0</ele><time>2026-05-02T10:19:04.854Z</time></trkpt><trkpt lat="44.2796183" lon="11.4596183"><ele>290.0</ele><time>2026-05-02T10:19:06.853Z</time></trkpt><trkpt lat="44.2796783" lon="11.4596833"><ele>290.0</ele><time>2026-05-02T10:19:08.853Z</time></trkpt><trkpt lat="44.2797017" lon="11.4597933"><ele>290.0</ele><time>2026-05-02T10:19:11.853Z</time></trkpt><trkpt lat="44.2797033" lon="11.4598883"><ele>290.0</ele><time>2026-05-02T10:19:13.853Z</time></trkpt><trkpt lat="44.279705" lon="11.4599817"><ele>291.1666666666667</ele><time>2026-05-02T10:19:15.853Z</time></trkpt><trkpt lat="44.2796867" lon="11.4600833"><ele>292.33333333333337</ele><time>2026-05-02T10:19:17.853Z</time></trkpt><trkpt lat="44.27967" lon="11.460175"><ele>293.5</ele><time>2026-05-02T10:19:19.854Z</time></trkpt><trkpt lat="44.2796383" lon="11.4602967"><ele>294.6666666666667</ele><time>2026-05-02T10:19:21.853Z</time></trkpt><trkpt lat="44.2795817" lon="11.460415"><ele>295.8333333333333</ele><time>2026-05-02T10:19:23.853Z</time></trkpt><trkpt lat="44.2795333" lon="11.4605233"><ele>297.0</ele><time>2026-05-02T10:19:25.854Z</time></trkpt><trkpt lat="44.2794817" lon="11.46062"><ele>299.0</ele><time>2026-05-02T10:19:27.853Z</time></trkpt><trkpt lat="44.27943" lon="11.4606933"><ele>301.0</ele><time>2026-05-02T10:19:29.853Z</time></trkpt><trkpt lat="44.2793517" lon="11.460755"><ele>303.0</ele><time>2026-05-02T10:19:31.854Z</time></trkpt><trkpt lat="44.2792667" lon="11.4608283"><ele>305.0</ele><time>2026-05-02T10:19:33.853Z</time></trkpt><trkpt lat="44.2791867" lon="11.46091"><ele>307.0</ele><time>2026-05-02T10:19:35.853Z</time></trkpt><trkpt lat="44.2791183" lon="11.4610117"><ele>307.0</ele><time>2026-05-02T10:19:37.853Z</time></trkpt><trkpt lat="44.2790483" lon="11.4611167"><ele>307.0</ele><time>2026-05-02T10:19:39.854Z</time></trkpt><trkpt lat="44.2789833" lon="11.4612167"><ele>307.0</ele><time>2026-05-02T10:19:41.853Z</time></trkpt><trkpt lat="44.2789417" lon="11.4612883"><ele>307.0</ele><time>2026-05-02T10:19:43.853Z</time></trkpt><trkpt lat="44.2789883" lon="11.4612167"><ele>307.0</ele><time>2026-05-02T10:20:28.853Z</time></trkpt><trkpt lat="44.2790533" lon="11.46111"><ele>307.0</ele><time>2026-05-02T10:20:30.853Z</time></trkpt><trkpt lat="44.2791333" lon="11.4609983"><ele>307.0</ele><time>2026-05-02T10:20:32.853Z</time></trkpt><trkpt lat="44.279215" lon="11.46089"><ele>307.0</ele><time>2026-05-02T10:20:34.853Z</time></trkpt><trkpt lat="44.27931" lon="11.4608067"><ele>307.0</ele><time>2026-05-02T10:20:36.853Z</time></trkpt><trkpt lat="44.279405" lon="11.46075"><ele>307.0</ele><time>2026-05-02T10:20:38.853Z</time></trkpt><trkpt lat="44.2794733" lon="11.46067"><ele>307.0</ele><time>2026-05-02T10:20:40.853Z</time></trkpt><trkpt lat="44.2795333" lon="11.4605617"><ele>305.0</ele><time>2026-05-02T10:20:42.854Z</time></trkpt><trkpt lat="44.2795833" lon="11.46043"><ele>303.0</ele><time>2026-05-02T10:20:44.853Z</time></trkpt><trkpt lat="44.2796217" lon="11.4602967"><ele>301.0</ele><time>2026-05-02T10:20:46.853Z</time></trkpt><trkpt lat="44.2796533" lon="11.4601683"><ele>299.0</ele><time>2026-05-02T10:20:48.854Z</time></trkpt><trkpt lat="44.2796817" lon="11.4600333"><ele>297.0</ele><time>2026-05-02T10:20:50.854Z</time></trkpt><trkpt lat="44.279695" lon="11.459915"><ele>297.0</ele><time>2026-05-02T10:20:52.854Z</time></trkpt><trkpt lat="44.279685" lon="11.45979"><ele>297.0</ele><time>2026-05-02T10:20:54.853Z</time></trkpt><trkpt lat="44.2796367" lon="11.459685"><ele>297.0</ele><time>2026-05-02T10:20:56.853Z</time></trkpt><trkpt lat="44.279555" lon="11.459595"><ele>297.0</ele><time>2026-05-02T10:20:58.853Z</time></trkpt><trkpt lat="44.2794667" lon="11.4595183"><ele>297.0</ele><time>2026-05-02T10:21:00.853Z</time></trkpt><trkpt lat="44.2793717" lon="11.4595083"><ele>297.0</ele><time>2026-05-02T10:21:02.853Z</time></trkpt><trkpt lat="44.2792767" lon="11.4595583"><ele>297.0</ele><time>2026-05-02T10:21:04.853Z</time></trkpt><trkpt lat="44.2791833" lon="11.4596317"><ele>297.0</ele><time>2026-05-02T10:21:06.853Z</time></trkpt><trkpt lat="44.2790817" lon="11.4596967"><ele>297.0</ele><time>2026-05-02T10:21:08.854Z</time></trkpt><trkpt lat="44.2789883" lon="11.459755"><ele>297.0</ele><time>2026-05-02T10:21:10.853Z</time></trkpt><trkpt lat="44.278915" lon="11.4597483"><ele>294.8333333333333</ele><time>2026-05-02T10:21:12.854Z</time></trkpt><trkpt lat="44.2788633" lon="11.4596933"><ele>292.6666666666667</ele><time>2026-05-02T10:21:14.853Z</time></trkpt><trkpt lat="44.2788317" lon="11.4596"><ele>290.5</ele><time>2026-05-02T10:21:16.854Z</time></trkpt><trkpt lat="44.2788217" lon="11.459465"><ele>288.33333333333337</ele><time>2026-05-02T10:21:18.853Z</time></trkpt><trkpt lat="44.27883" lon="11.4593333"><ele>286.1666666666667</ele><time>2026-05-02T10:21:20.853Z</time></trkpt><trkpt lat="44.27884" lon="11.4591817"><ele>284.0</ele><time>2026-05-02T10:21:22.853Z</time></trkpt><trkpt lat="44.2788583" lon="11.4590017"><ele>283.42857142857144</ele><time>2026-05-02T10:21:24.853Z</time></trkpt><trkpt lat="44.2788717" lon="11.45891"><ele>282.85714285714283</ele><time>2026-05-02T10:21:25.854Z</time></trkpt><trkpt lat="44.2788883" lon="11.4588233"><ele>282.2857142857143</ele><time>2026-05-02T10:21:26.853Z</time></trkpt><trkpt lat="44.27891" lon="11.458735"><ele>281.7142857142857</ele><time>2026-05-02T10:21:27.853Z</time></trkpt><trkpt lat="44.278945" lon="11.4586467"><ele>281.1428571428571</ele><time>2026-05-02T10:21:28.853Z</time></trkpt><trkpt lat="44.2789867" lon="11.458565"><ele>280.57142857142856</ele><time>2026-05-02T10:21:29.853Z</time></trkpt><trkpt lat="44.27903" lon="11.4584817"><ele>280.0</ele><time>2026-05-02T10:21:30.853Z</time></trkpt><trkpt lat="44.279075" lon="11.4584033"><ele>280.0</ele><time>2026-05-02T10:21:31.853Z</time></trkpt><trkpt lat="44.279115" lon="11.4583283"><ele>280.0</ele><time>2026-05-02T10:21:32.853Z</time></trkpt><trkpt lat="44.279155" lon="11.4582567"><ele>280.0</ele><time>2026-05-02T10:21:33.854Z</time></trkpt><trkpt lat="44.2792133" lon="11.4581467"><ele>280.0</ele><time>2026-05-02T10:21:35.853Z</time></trkpt><trkpt lat="44.2792517" lon="11.4580533"><ele>280.0</ele><time>2026-05-02T10:21:38.853Z</time></trkpt><trkpt lat="44.2792067" lon="11.45794"><ele>280.0</ele><time>2026-05-02T10:21:46.853Z</time></trkpt><trkpt lat="44.2790733" lon="11.4579317"><ele>278.5</ele><time>2026-05-02T10:21:48.853Z</time></trkpt><trkpt lat="44.279" lon="11.45795"><ele>277.0</ele><time>2026-05-02T10:21:49.854Z</time></trkpt><trkpt lat="44.2789167" lon="11.45799"><ele>275.5</ele><time>2026-05-02T10:21:50.853Z</time></trkpt><trkpt lat="44.2788283" lon="11.458045"><ele>274.0</ele><time>2026-05-02T10:21:51.853Z</time></trkpt><trkpt lat="44.27874" lon="11.4581083"><ele>272.5</ele><time>2026-05-02T10:21:52.853Z</time></trkpt><trkpt lat="44.2786633" lon="11.458175"><ele>271.0</ele><time>2026-05-02T10:21:53.854Z</time></trkpt><trkpt lat="44.2785933" lon="11.45825"><ele>271.0</ele><time>2026-05-02T10:21:54.853Z</time></trkpt><trkpt lat="44.2785267" lon="11.4583367"><ele>271.0</ele><time>2026-05-02T10:21:55.854Z</time></trkpt><trkpt lat="44.2784583" lon="11.4584317"><ele>271.0</ele><time>2026-05-02T10:21:56.853Z</time></trkpt><trkpt lat="44.27839" lon="11.4585383"><ele>271.0</ele><time>2026-05-02T10:21:57.853Z</time></trkpt><trkpt lat="44.2783233" lon="11.45865"><ele>271.0</ele><time>2026-05-02T10:21:58.853Z</time></trkpt><trkpt lat="44.2782583" lon="11.4587533"><ele>270.66666666666663</ele><time>2026-05-02T10:21:59.853Z</time></trkpt><trkpt lat="44.2781917" lon="11.4588533"><ele>270.3333333333333</ele><time>2026-05-02T10:22:00.854Z</time></trkpt><trkpt lat="44.2781117" lon="11.458925"><ele>270.0</ele><time>2026-05-02T10:22:01.853Z</time></trkpt><trkpt lat="44.278035" lon="11.458955"><ele>269.6666666666667</ele><time>2026-05-02T10:22:02.854Z</time></trkpt><trkpt lat="44.2779567" lon="11.4589533"><ele>269.33333333333337</ele><time>2026-05-02T10:22:03.853Z</time></trkpt><trkpt lat="44.2778817" lon="11.4589233"><ele>269.0</ele><time>2026-05-02T10:22:04.854Z</time></trkpt><trkpt lat="44.277815" lon="11.45886"><ele>269.0</ele><time>2026-05-02T10:22:05.854Z</time></trkpt><trkpt lat="44.27775" lon="11.4587967"><ele>269.0</ele><time>2026-05-02T10:22:06.853Z</time></trkpt><trkpt lat="44.2776783" lon="11.458735"><ele>269.0</ele><time>2026-05-02T10:22:07.853Z</time></trkpt><trkpt lat="44.2776033" lon="11.4586783"><ele>269.0</ele><time>2026-05-02T10:22:08.854Z</time></trkpt><trkpt lat="44.2775267" lon="11.4586217"><ele>269.0</ele><time>2026-05-02T10:22:09.853Z</time></trkpt><trkpt lat="44.2774483" lon="11.4585683"><ele>269.0</ele><time>2026-05-02T10:22:10.853Z</time></trkpt><trkpt lat="44.277365" lon="11.45852"><ele>269.59999999999997</ele><time>2026-05-02T10:22:11.853Z</time></trkpt><trkpt lat="44.27728" lon="11.4584917"><ele>270.2</ele><time>2026-05-02T10:22:12.854Z</time></trkpt><trkpt lat="44.277185" lon="11.4584967"><ele>270.79999999999995</ele><time>2026-05-02T10:22:13.853Z</time></trkpt><trkpt lat="44.277095" lon="11.4585333"><ele>271.4</ele><time>2026-05-02T10:22:14.854Z</time></trkpt><trkpt lat="44.2770133" lon="11.4585983"><ele>272.0</ele><time>2026-05-02T10:22:15.853Z</time></trkpt><trkpt lat="44.276935" lon="11.4586717"><ele>271.6</ele><time>2026-05-02T10:22:16.854Z</time></trkpt><trkpt lat="44.27685" lon="11.458735"><ele>271.2</ele><time>2026-05-02T10:22:17.853Z</time></trkpt><trkpt lat="44.27677" lon="11.45879"><ele>270.8</ele><time>2026-05-02T10:22:18.853Z</time></trkpt><trkpt lat="44.27668" lon="11.4588317"><ele>270.4</ele><time>2026-05-02T10:22:19.853Z</time></trkpt><trkpt lat="44.2765883" lon="11.4588533"><ele>270.0</ele><time>2026-05-02T10:22:20.854Z</time></trkpt><trkpt lat="44.2764883" lon="11.458865"><ele>270.8</ele><time>2026-05-02T10:22:21.853Z</time></trkpt><trkpt lat="44.2763933" lon="11.4588667"><ele>271.6</ele><time>2026-05-02T10:22:22.853Z</time></trkpt><trkpt lat="44.2762917" lon="11.4588633"><ele>272.4</ele><time>2026-05-02T10:22:23.853Z</time></trkpt><trkpt lat="44.27619" lon="11.4588517"><ele>273.2</ele><time>2026-05-02T10:22:24.853Z</time></trkpt><trkpt lat="44.27609" lon="11.4588283"><ele>274.0</ele><time>2026-05-02T10:22:25.853Z</time></trkpt><trkpt lat="44.2759817" lon="11.4588067"><ele>274.0</ele><time>2026-05-02T10:22:26.853Z</time></trkpt><trkpt lat="44.2758767" lon="11.4587867"><ele>274.0</ele><time>2026-05-02T10:22:27.853Z</time></trkpt><trkpt lat="44.2757817" lon="11.4587683"><ele>274.0</ele><time>2026-05-02T10:22:28.853Z</time></trkpt><trkpt lat="44.2756917" lon="11.4587483"><ele>274.0</ele><time>2026-05-02T10:22:29.853Z</time></trkpt><trkpt lat="44.275595" lon="11.4587233"><ele>274.0</ele><time>2026-05-02T10:22:30.853Z</time></trkpt><trkpt lat="44.2755" lon="11.4586933"><ele>275.0</ele><time>2026-05-02T10:22:31.853Z</time></trkpt><trkpt lat="44.275395" lon="11.4586533"><ele>276.0</ele><time>2026-05-02T10:22:32.854Z</time></trkpt><trkpt lat="44.2752783" lon="11.45859"><ele>277.0</ele><time>2026-05-02T10:22:33.853Z</time></trkpt><trkpt lat="44.2751567" lon="11.45851"><ele>278.0</ele><time>2026-05-02T10:22:34.853Z</time></trkpt><trkpt lat="44.275035" lon="11.458405"><ele>278.0</ele><time>2026-05-02T10:22:35.853Z</time></trkpt><trkpt lat="44.2749167" lon="11.4582767"><ele>278.0</ele><time>2026-05-02T10:22:36.854Z</time></trkpt><trkpt lat="44.2748033" lon="11.45815"><ele>278.0</ele><time>2026-05-02T10:22:37.853Z</time></trkpt><trkpt lat="44.2747017" lon="11.4580317"><ele>278.0</ele><time>2026-05-02T10:22:38.853Z</time></trkpt><trkpt lat="44.274595" lon="11.457935"><ele>279.8</ele><time>2026-05-02T10:22:39.853Z</time></trkpt><trkpt lat="44.2744867" lon="11.4578517"><ele>281.6</ele><time>2026-05-02T10:22:40.853Z</time></trkpt><trkpt lat="44.2743867" lon="11.4577933"><ele>283.4</ele><time>2026-05-02T10:22:41.853Z</time></trkpt><trkpt lat="44.2742917" lon="11.4577583"><ele>285.2</ele><time>2026-05-02T10:22:42.853Z</time></trkpt><trkpt lat="44.2742033" lon="11.4577267"><ele>287.0</ele><time>2026-05-02T10:22:43.854Z</time></trkpt><trkpt lat="44.2741233" lon="11.4577033"><ele>287.0</ele><time>2026-05-02T10:22:44.853Z</time></trkpt><trkpt lat="44.27405" lon="11.457685"><ele>287.0</ele><time>2026-05-02T10:22:45.854Z</time></trkpt><trkpt lat="44.273985" lon="11.4576683"><ele>287.0</ele><time>2026-05-02T10:22:46.853Z</time></trkpt><trkpt lat="44.2739217" lon="11.4576467"><ele>287.0</ele><time>2026-05-02T10:22:47.853Z</time></trkpt><trkpt lat="44.2738583" lon="11.4576267"><ele>287.0</ele><time>2026-05-02T10:22:48.854Z</time></trkpt><trkpt lat="44.273765" lon="11.4575917"><ele>287.0</ele><time>2026-05-02T10:22:50.854Z</time></trkpt><trkpt lat="44.2737033" lon="11.4575617"><ele>287.0</ele><time>2026-05-02T10:22:52.854Z</time></trkpt><trkpt lat="44.27363" lon="11.457535"><ele>287.0</ele><time>2026-05-02T10:22:55.854Z</time></trkpt><trkpt lat="44.2735467" lon="11.4575117"><ele>287.0</ele><time>2026-05-02T10:23:01.853Z</time></trkpt><trkpt lat="44.2734867" lon="11.4574667"><ele>287.0</ele><time>2026-05-02T10:23:05.853Z</time></trkpt><trkpt lat="44.2734283" lon="11.45743"><ele>287.0</ele><time>2026-05-02T10:23:30.852Z</time></trkpt><trkpt lat="44.2733017" lon="11.4573817"><ele>287.0</ele><time>2026-05-02T10:23:32.852Z</time></trkpt><trkpt lat="44.273225" lon="11.4573567"><ele>287.0</ele><time>2026-05-02T10:23:33.852Z</time></trkpt><trkpt lat="44.2731467" lon="11.457335"><ele>287.83333333333337</ele><time>2026-05-02T10:23:34.852Z</time></trkpt><trkpt lat="44.2730767" lon="11.4573217"><ele>288.6666666666667</ele><time>2026-05-02T10:23:35.853Z</time></trkpt><trkpt lat="44.2730083" lon="11.457335"><ele>289.5</ele><time>2026-05-02T10:23:36.852Z</time></trkpt><trkpt lat="44.2729367" lon="11.4573783"><ele>290.3333333333333</ele><time>2026-05-02T10:23:37.853Z</time></trkpt><trkpt lat="44.27287" lon="11.4574417"><ele>291.16666666666663</ele><time>2026-05-02T10:23:38.852Z</time></trkpt><trkpt lat="44.2728067" lon="11.4575167"><ele>292.0</ele><time>2026-05-02T10:23:39.853Z</time></trkpt><trkpt lat="44.2727483" lon="11.4575967"><ele>292.0</ele><time>2026-05-02T10:23:40.852Z</time></trkpt><trkpt lat="44.272685" lon="11.4576917"><ele>292.0</ele><time>2026-05-02T10:23:41.852Z</time></trkpt><trkpt lat="44.27263" lon="11.4577933"><ele>292.0</ele><time>2026-05-02T10:23:42.852Z</time></trkpt><trkpt lat="44.2725733" lon="11.45788"><ele>292.0</ele><time>2026-05-02T10:23:43.852Z</time></trkpt><trkpt lat="44.2725017" lon="11.45796"><ele>292.0</ele><time>2026-05-02T10:23:44.852Z</time></trkpt><trkpt lat="44.2724167" lon="11.4580383"><ele>291.6</ele><time>2026-05-02T10:23:45.852Z</time></trkpt><trkpt lat="44.2723267" lon="11.4580933"><ele>291.2</ele><time>2026-05-02T10:23:46.853Z</time></trkpt><trkpt lat="44.2722233" lon="11.4581383"><ele>290.8</ele><time>2026-05-02T10:23:47.852Z</time></trkpt><trkpt lat="44.272115" lon="11.4582"><ele>290.4</ele><time>2026-05-02T10:23:48.852Z</time></trkpt><trkpt lat="44.2720083" lon="11.4582817"><ele>290.0</ele><time>2026-05-02T10:23:49.852Z</time></trkpt><trkpt lat="44.2719083" lon="11.45839"><ele>290.0</ele><time>2026-05-02T10:23:50.852Z</time></trkpt><trkpt lat="44.2718283" lon="11.45851"><ele>290.0</ele><time>2026-05-02T10:23:51.852Z</time></trkpt><trkpt lat="44.27175" lon="11.4586567"><ele>290.0</ele><time>2026-05-02T10:23:52.852Z</time></trkpt><trkpt lat="44.271685" lon="11.4588133"><ele>290.0</ele><time>2026-05-02T10:23:53.853Z</time></trkpt><trkpt lat="44.2716317" lon="11.4589683"><ele>289.0</ele><time>2026-05-02T10:23:54.852Z</time></trkpt><trkpt lat="44.2715917" lon="11.4591233"><ele>288.0</ele><time>2026-05-02T10:23:55.853Z</time></trkpt><trkpt lat="44.27156" lon="11.45927"><ele>287.0</ele><time>2026-05-02T10:23:56.852Z</time></trkpt><trkpt lat="44.27153" lon="11.4594133"><ele>286.0</ele><time>2026-05-02T10:23:57.852Z</time></trkpt><trkpt lat="44.27149" lon="11.4595517"><ele>285.0</ele><time>2026-05-02T10:23:58.852Z</time></trkpt><trkpt lat="44.27144" lon="11.4596883"><ele>287.6</ele><time>2026-05-02T10:23:59.853Z</time></trkpt><trkpt lat="44.2713933" lon="11.45982"><ele>290.2</ele><time>2026-05-02T10:24:00.852Z</time></trkpt><trkpt lat="44.2713417" lon="11.45994"><ele>292.8</ele><time>2026-05-02T10:24:01.852Z</time></trkpt><trkpt lat="44.2712733" lon="11.46006"><ele>295.4</ele><time>2026-05-02T10:24:02.852Z</time></trkpt><trkpt lat="44.2712033" lon="11.4601783"><ele>298.0</ele><time>2026-05-02T10:24:03.852Z</time></trkpt><trkpt lat="44.27114" lon="11.4602867"><ele>298.0</ele><time>2026-05-02T10:24:04.853Z</time></trkpt><trkpt lat="44.2710583" lon="11.4604033"><ele>298.0</ele><time>2026-05-02T10:24:05.852Z</time></trkpt><trkpt lat="44.2709733" lon="11.460525"><ele>298.0</ele><time>2026-05-02T10:24:06.852Z</time></trkpt><trkpt lat="44.2709" lon="11.460655"><ele>298.0</ele><time>2026-05-02T10:24:07.853Z</time></trkpt><trkpt lat="44.27083" lon="11.4607933"><ele>298.25</ele><time>2026-05-02T10:24:08.852Z</time></trkpt><trkpt lat="44.2707533" lon="11.460935"><ele>298.5</ele><time>2026-05-02T10:24:09.852Z</time></trkpt><trkpt lat="44.270675" lon="11.461075"><ele>298.75</ele><time>2026-05-02T10:24:10.852Z</time></trkpt><trkpt lat="44.2705967" lon="11.4612133"><ele>299.0</ele><time>2026-05-02T10:24:11.853Z</time></trkpt><trkpt lat="44.2705233" lon="11.461335"><ele>299.0</ele><time>2026-05-02T10:24:12.853Z</time></trkpt><trkpt lat="44.270455" lon="11.461445"><ele>299.0</ele><time>2026-05-02T10:24:13.853Z</time></trkpt><trkpt lat="44.2703867" lon="11.4615467"><ele>299.0</ele><time>2026-05-02T10:24:14.852Z</time></trkpt><trkpt lat="44.2703217" lon="11.4616533"><ele>299.0</ele><time>2026-05-02T10:24:15.852Z</time></trkpt><trkpt lat="44.2702567" lon="11.4617583"><ele>299.0</ele><time>2026-05-02T10:24:16.853Z</time></trkpt><trkpt lat="44.2701917" lon="11.4618633"><ele>299.0</ele><time>2026-05-02T10:24:17.853Z</time></trkpt><trkpt lat="44.2701367" lon="11.461975"><ele>299.0</ele><time>2026-05-02T10:24:18.853Z</time></trkpt><trkpt lat="44.27009" lon="11.4620983"><ele>299.0</ele><time>2026-05-02T10:24:19.852Z</time></trkpt><trkpt lat="44.2700533" lon="11.4622167"><ele>299.0</ele><time>2026-05-02T10:24:20.853Z</time></trkpt><trkpt lat="44.2700333" lon="11.4623483"><ele>299.0</ele><time>2026-05-02T10:24:21.853Z</time></trkpt><trkpt lat="44.2700433" lon="11.4624867"><ele>298.0</ele><time>2026-05-02T10:24:22.852Z</time></trkpt><trkpt lat="44.270065" lon="11.4626117"><ele>297.0</ele><time>2026-05-02T10:24:23.852Z</time></trkpt><trkpt lat="44.2701017" lon="11.4627167"><ele>296.0</ele><time>2026-05-02T10:24:24.853Z</time></trkpt><trkpt lat="44.270135" lon="11.46282"><ele>295.0</ele><time>2026-05-02T10:24:25.853Z</time></trkpt><trkpt lat="44.2701517" lon="11.4629317"><ele>294.0</ele><time>2026-05-02T10:24:26.852Z</time></trkpt><trkpt lat="44.2701483" lon="11.463045"><ele>293.0</ele><time>2026-05-02T10:24:27.852Z</time></trkpt><trkpt lat="44.270135" lon="11.4631483"><ele>292.33333333333337</ele><time>2026-05-02T10:24:28.852Z</time></trkpt><trkpt lat="44.2701167" lon="11.46324"><ele>291.6666666666667</ele><time>2026-05-02T10:24:29.853Z</time></trkpt><trkpt lat="44.2700933" lon="11.463325"><ele>291.0</ele><time>2026-05-02T10:24:30.852Z</time></trkpt><trkpt lat="44.27007" lon="11.4634067"><ele>290.3333333333333</ele><time>2026-05-02T10:24:31.852Z</time></trkpt><trkpt lat="44.2700317" lon="11.463555"><ele>289.66666666666663</ele><time>2026-05-02T10:24:33.852Z</time></trkpt><trkpt lat="44.27" lon="11.4636667"><ele>289.0</ele><time>2026-05-02T10:24:35.853Z</time></trkpt><trkpt lat="44.2699517" lon="11.4637633"><ele>288.5</ele><time>2026-05-02T10:24:37.852Z</time></trkpt><trkpt lat="44.2698817" lon="11.46388"><ele>288.0</ele><time>2026-05-02T10:24:39.852Z</time></trkpt><trkpt lat="44.2698417" lon="11.463955"><ele>287.5</ele><time>2026-05-02T10:24:40.852Z</time></trkpt><trkpt lat="44.2698133" lon="11.46404"><ele>287.0</ele><time>2026-05-02T10:24:41.852Z</time></trkpt><trkpt lat="44.2697783" lon="11.4641417"><ele>286.5</ele><time>2026-05-02T10:24:42.853Z</time></trkpt><trkpt lat="44.269745" lon="11.464255"><ele>286.0</ele><time>2026-05-02T10:24:43.853Z</time></trkpt><trkpt lat="44.2697383" lon="11.46439"><ele>286.0</ele><time>2026-05-02T10:24:44.853Z</time></trkpt><trkpt lat="44.2697467" lon="11.46452"><ele>286.0</ele><time>2026-05-02T10:24:45.852Z</time></trkpt><trkpt lat="44.269755" lon="11.46465"><ele>286.0</ele><time>2026-05-02T10:24:46.853Z</time></trkpt><trkpt lat="44.26977" lon="11.4647833"><ele>286.0</ele><time>2026-05-02T10:24:47.852Z</time></trkpt><trkpt lat="44.26977" lon="11.4649133"><ele>286.0</ele><time>2026-05-02T10:24:48.852Z</time></trkpt><trkpt lat="44.2697483" lon="11.4650467"><ele>286.0</ele><time>2026-05-02T10:24:49.852Z</time></trkpt><trkpt lat="44.2697067" lon="11.46518"><ele>286.0</ele><time>2026-05-02T10:24:50.852Z</time></trkpt><trkpt lat="44.269655" lon="11.46531"><ele>286.0</ele><time>2026-05-02T10:24:51.852Z</time></trkpt><trkpt lat="44.269595" lon="11.46544"><ele>286.0</ele><time>2026-05-02T10:24:52.853Z</time></trkpt><trkpt lat="44.2695317" lon="11.4655683"><ele>286.0</ele><time>2026-05-02T10:24:53.852Z</time></trkpt><trkpt lat="44.2694717" lon="11.4656983"><ele>286.0</ele><time>2026-05-02T10:24:54.853Z</time></trkpt><trkpt lat="44.2694117" lon="11.4658183"><ele>286.0</ele><time>2026-05-02T10:24:55.853Z</time></trkpt><trkpt lat="44.2693583" lon="11.4659433"><ele>286.0</ele><time>2026-05-02T10:24:56.853Z</time></trkpt><trkpt lat="44.2693067" lon="11.4660667"><ele>286.0</ele><time>2026-05-02T10:24:57.852Z</time></trkpt><trkpt lat="44.2692483" lon="11.4661817"><ele>286.0</ele><time>2026-05-02T10:24:58.853Z</time></trkpt><trkpt lat="44.2691883" lon="11.4663033"><ele>285.5</ele><time>2026-05-02T10:24:59.852Z</time></trkpt><trkpt lat="44.2691183" lon="11.4664383"><ele>285.0</ele><time>2026-05-02T10:25:00.852Z</time></trkpt><trkpt lat="44.2690467" lon="11.466575"><ele>284.5</ele><time>2026-05-02T10:25:01.853Z</time></trkpt><trkpt lat="44.2689567" lon="11.4667067"><ele>284.0</ele><time>2026-05-02T10:25:02.852Z</time></trkpt><trkpt lat="44.2688533" lon="11.46681"><ele>284.0</ele><time>2026-05-02T10:25:03.852Z</time></trkpt><trkpt lat="44.2687783" lon="11.4669167"><ele>284.0</ele><time>2026-05-02T10:25:04.852Z</time></trkpt><trkpt lat="44.268715" lon="11.4670467"><ele>284.0</ele><time>2026-05-02T10:25:05.853Z</time></trkpt><trkpt lat="44.2686917" lon="11.467215"><ele>284.0</ele><time>2026-05-02T10:25:06.852Z</time></trkpt><trkpt lat="44.2686817" lon="11.467415"><ele>285.0</ele><time>2026-05-02T10:25:07.852Z</time></trkpt><trkpt lat="44.2686633" lon="11.46763"><ele>286.0</ele><time>2026-05-02T10:25:08.852Z</time></trkpt><trkpt lat="44.2686333" lon="11.4678433"><ele>287.0</ele><time>2026-05-02T10:25:09.852Z</time></trkpt><trkpt lat="44.26859" lon="11.46804"><ele>288.33333333333337</ele><time>2026-05-02T10:25:10.852Z</time></trkpt><trkpt lat="44.2685367" lon="11.4682517"><ele>289.6666666666667</ele><time>2026-05-02T10:25:11.853Z</time></trkpt><trkpt lat="44.2684733" lon="11.4684467"><ele>291.0</ele><time>2026-05-02T10:25:12.852Z</time></trkpt><trkpt lat="44.2683967" lon="11.4686383"><ele>292.75</ele><time>2026-05-02T10:25:13.852Z</time></trkpt><trkpt lat="44.2683217" lon="11.4688283"><ele>294.5</ele><time>2026-05-02T10:25:14.852Z</time></trkpt><trkpt lat="44.2682517" lon="11.469"><ele>296.25</ele><time>2026-05-02T10:25:15.852Z</time></trkpt><trkpt lat="44.2681817" lon="11.4691567"><ele>298.0</ele><time>2026-05-02T10:25:16.852Z</time></trkpt><trkpt lat="44.2681217" lon="11.469305"><ele>296.0</ele><time>2026-05-02T10:25:17.852Z</time></trkpt><trkpt lat="44.268065" lon="11.469455"><ele>294.0</ele><time>2026-05-02T10:25:18.852Z</time></trkpt><trkpt lat="44.2680183" lon="11.4695917"><ele>292.0</ele><time>2026-05-02T10:25:19.852Z</time></trkpt><trkpt lat="44.2679717" lon="11.46973"><ele>290.0</ele><time>2026-05-02T10:25:20.852Z</time></trkpt><trkpt lat="44.2679217" lon="11.4698667"><ele>288.0</ele><time>2026-05-02T10:25:21.852Z</time></trkpt><trkpt lat="44.26787" lon="11.4700017"><ele>288.0</ele><time>2026-05-02T10:25:22.852Z</time></trkpt><trkpt lat="44.2678117" lon="11.4701417"><ele>288.0</ele><time>2026-05-02T10:25:23.853Z</time></trkpt><trkpt lat="44.2677467" lon="11.470275"><ele>288.0</ele><time>2026-05-02T10:25:24.852Z</time></trkpt><trkpt lat="44.2676817" lon="11.4703967"><ele>288.0</ele><time>2026-05-02T10:25:25.853Z</time></trkpt><trkpt lat="44.2676067" lon="11.4705217"><ele>288.0</ele><time>2026-05-02T10:25:26.852Z</time></trkpt><trkpt lat="44.267525" lon="11.47065"><ele>288.0</ele><time>2026-05-02T10:25:27.852Z</time></trkpt><trkpt lat="44.2674383" lon="11.4707783"><ele>288.0</ele><time>2026-05-02T10:25:28.853Z</time></trkpt><trkpt lat="44.2673383" lon="11.4709083"><ele>288.0</ele><time>2026-05-02T10:25:29.852Z</time></trkpt><trkpt lat="44.267245" lon="11.47104"><ele>288.0</ele><time>2026-05-02T10:25:30.852Z</time></trkpt><trkpt lat="44.2671533" lon="11.4711767"><ele>288.0</ele><time>2026-05-02T10:25:31.852Z</time></trkpt><trkpt lat="44.267065" lon="11.4713133"><ele>288.0</ele><time>2026-05-02T10:25:32.852Z</time></trkpt><trkpt lat="44.26698" lon="11.471455"><ele>288.0</ele><time>2026-05-02T10:25:33.853Z</time></trkpt><trkpt lat="44.2668917" lon="11.471585"><ele>290.75</ele><time>2026-05-02T10:25:34.852Z</time></trkpt><trkpt lat="44.2667983" lon="11.4717117"><ele>293.5</ele><time>2026-05-02T10:25:35.853Z</time></trkpt><trkpt lat="44.266705" lon="11.471815"><ele>296.25</ele><time>2026-05-02T10:25:36.853Z</time></trkpt><trkpt lat="44.2666083" lon="11.471905"><ele>299.0</ele><time>2026-05-02T10:25:37.853Z</time></trkpt><trkpt lat="44.2665" lon="11.471985"><ele>298.25</ele><time>2026-05-02T10:25:38.852Z</time></trkpt><trkpt lat="44.26639" lon="11.4720533"><ele>297.5</ele><time>2026-05-02T10:25:39.852Z</time></trkpt><trkpt lat="44.26627" lon="11.4721033"><ele>296.75</ele><time>2026-05-02T10:25:40.852Z</time></trkpt><trkpt lat="44.26615" lon="11.4721583"><ele>296.0</ele><time>2026-05-02T10:25:41.852Z</time></trkpt><trkpt lat="44.26603" lon="11.4722067"><ele>297.75</ele><time>2026-05-02T10:25:42.853Z</time></trkpt><trkpt lat="44.265915" lon="11.47226"><ele>299.5</ele><time>2026-05-02T10:25:43.853Z</time></trkpt><trkpt lat="44.2658033" lon="11.4723183"><ele>301.25</ele><time>2026-05-02T10:25:44.852Z</time></trkpt><trkpt lat="44.2656967" lon="11.4723683"><ele>303.0</ele><time>2026-05-02T10:25:45.852Z</time></trkpt><trkpt lat="44.2655983" lon="11.4724167"><ele>303.0</ele><time>2026-05-02T10:25:46.852Z</time></trkpt><trkpt lat="44.2655217" lon="11.47246"><ele>303.0</ele><time>2026-05-02T10:25:47.852Z</time></trkpt><trkpt lat="44.2654283" lon="11.472515"><ele>303.0</ele><time>2026-05-02T10:25:49.852Z</time></trkpt><trkpt lat="44.26534" lon="11.4725983"><ele>303.0</ele><time>2026-05-02T10:28:14.852Z</time></trkpt><trkpt lat="44.265255" lon="11.4726783"><ele>303.0</ele><time>2026-05-02T10:28:16.852Z</time></trkpt><trkpt lat="44.265185" lon="11.47268"><ele>303.0</ele><time>2026-05-02T10:30:15.852Z</time></trkpt><trkpt lat="44.2651233" lon="11.47259"><ele>303.0</ele><time>2026-05-02T10:30:18.852Z</time></trkpt><trkpt lat="44.2650533" lon="11.4725167"><ele>303.0</ele><time>2026-05-02T10:30:20.851Z</time></trkpt><trkpt lat="44.264955" lon="11.4724233"><ele>303.0</ele><time>2026-05-02T10:30:22.852Z</time></trkpt><trkpt lat="44.26484" lon="11.4723433"><ele>303.0</ele><time>2026-05-02T10:30:24.851Z</time></trkpt><trkpt lat="44.264785" lon="11.4723"><ele>302.1666666666667</ele><time>2026-05-02T10:30:25.851Z</time></trkpt><trkpt lat="44.2647267" lon="11.4722433"><ele>301.3333333333333</ele><time>2026-05-02T10:30:26.852Z</time></trkpt><trkpt lat="44.2646317" lon="11.4721267"><ele>300.5</ele><time>2026-05-02T10:30:28.852Z</time></trkpt><trkpt lat="44.2645717" lon="11.4720667"><ele>299.66666666666663</ele><time>2026-05-02T10:30:29.851Z</time></trkpt><trkpt lat="44.2645133" lon="11.4720083"><ele>298.8333333333333</ele><time>2026-05-02T10:30:30.851Z</time></trkpt><trkpt lat="44.2644433" lon="11.47195"><ele>298.0</ele><time>2026-05-02T10:30:31.851Z</time></trkpt><trkpt lat="44.2643817" lon="11.4718933"><ele>297.0</ele><time>2026-05-02T10:30:32.851Z</time></trkpt><trkpt lat="44.26429" lon="11.4717733"><ele>296.0</ele><time>2026-05-02T10:30:34.851Z</time></trkpt><trkpt lat="44.2642533" lon="11.4717"><ele>295.0</ele><time>2026-05-02T10:30:35.851Z</time></trkpt><trkpt lat="44.264215" lon="11.471605"><ele>294.0</ele><time>2026-05-02T10:30:36.851Z</time></trkpt><trkpt lat="44.2641733" lon="11.4714967"><ele>293.0</ele><time>2026-05-02T10:30:37.852Z</time></trkpt><trkpt lat="44.2641317" lon="11.4714"><ele>292.0</ele><time>2026-05-02T10:30:38.851Z</time></trkpt><trkpt lat="44.2641033" lon="11.4713133"><ele>291.66666666666663</ele><time>2026-05-02T10:30:39.852Z</time></trkpt><trkpt lat="44.2640917" lon="11.4711367"><ele>291.3333333333333</ele><time>2026-05-02T10:30:41.851Z</time></trkpt><trkpt lat="44.264085" lon="11.4710433"><ele>291.0</ele><time>2026-05-02T10:30:42.852Z</time></trkpt><trkpt lat="44.2640483" lon="11.4709267"><ele>290.6666666666667</ele><time>2026-05-02T10:30:44.852Z</time></trkpt><trkpt lat="44.263985" lon="11.4708767"><ele>290.33333333333337</ele><time>2026-05-02T10:30:46.851Z</time></trkpt><trkpt lat="44.263905" lon="11.4708667"><ele>290.0</ele><time>2026-05-02T10:30:48.852Z</time></trkpt><trkpt lat="44.2638417" lon="11.47086"><ele>290.0</ele><time>2026-05-02T10:30:50.851Z</time></trkpt><trkpt lat="44.2637767" lon="11.4708633"><ele>290.0</ele><time>2026-05-02T10:31:06.851Z</time></trkpt><trkpt lat="44.2636517" lon="11.47084"><ele>290.0</ele><time>2026-05-02T10:31:08.852Z</time></trkpt><trkpt lat="44.2635767" lon="11.4708217"><ele>290.0</ele><time>2026-05-02T10:31:09.851Z</time></trkpt><trkpt lat="44.2635067" lon="11.47079"><ele>290.0</ele><time>2026-05-02T10:31:10.851Z</time></trkpt><trkpt lat="44.2634333" lon="11.4707517"><ele>290.0</ele><time>2026-05-02T10:31:11.852Z</time></trkpt><trkpt lat="44.2633583" lon="11.47071"><ele>290.0</ele><time>2026-05-02T10:31:12.852Z</time></trkpt><trkpt lat="44.2632783" lon="11.47068"><ele>290.0</ele><time>2026-05-02T10:31:13.851Z</time></trkpt><trkpt lat="44.26319" lon="11.47066"><ele>290.0</ele><time>2026-05-02T10:31:14.852Z</time></trkpt><trkpt lat="44.2631017" lon="11.4706417"><ele>290.0</ele><time>2026-05-02T10:31:15.851Z</time></trkpt><trkpt lat="44.263025" lon="11.4706217"><ele>290.0</ele><time>2026-05-02T10:31:16.851Z</time></trkpt><trkpt lat="44.2629583" lon="11.470595"><ele>290.0</ele><time>2026-05-02T10:31:17.851Z</time></trkpt><trkpt lat="44.2628867" lon="11.470565"><ele>290.1666666666667</ele><time>2026-05-02T10:31:18.851Z</time></trkpt><trkpt lat="44.262815" lon="11.4705333"><ele>290.33333333333337</ele><time>2026-05-02T10:31:19.851Z</time></trkpt><trkpt lat="44.26274" lon="11.4705117"><ele>290.5</ele><time>2026-05-02T10:31:20.852Z</time></trkpt><trkpt lat="44.262665" lon="11.47051"><ele>290.6666666666667</ele><time>2026-05-02T10:31:21.851Z</time></trkpt><trkpt lat="44.262595" lon="11.470505"><ele>290.8333333333333</ele><time>2026-05-02T10:31:22.851Z</time></trkpt><trkpt lat="44.26249" lon="11.4705117"><ele>291.0</ele><time>2026-05-02T10:31:24.851Z</time></trkpt><trkpt lat="44.26242" lon="11.4704983"><ele>291.0</ele><time>2026-05-02T10:31:26.851Z</time></trkpt><trkpt lat="44.26233" lon="11.4704483"><ele>291.0</ele><time>2026-05-02T10:31:29.851Z</time></trkpt><trkpt lat="44.262265" lon="11.4704167"><ele>291.0</ele><time>2026-05-02T10:31:31.851Z</time></trkpt><trkpt lat="44.2621917" lon="11.4703783"><ele>291.0</ele><time>2026-05-02T10:31:33.852Z</time></trkpt><trkpt lat="44.2620817" lon="11.4703133"><ele>291.0</ele><time>2026-05-02T10:31:35.851Z</time></trkpt><trkpt lat="44.2619633" lon="11.4702633"><ele>291.0</ele><time>2026-05-02T10:31:37.851Z</time></trkpt><trkpt lat="44.2619" lon="11.4702367"><ele>291.0</ele><time>2026-05-02T10:31:38.851Z</time></trkpt><trkpt lat="44.2618333" lon="11.4702217"><ele>291.0</ele><time>2026-05-02T10:31:39.851Z</time></trkpt><trkpt lat="44.2617583" lon="11.4702083"><ele>291.0</ele><time>2026-05-02T10:31:40.851Z</time></trkpt><trkpt lat="44.261685" lon="11.4702"><ele>291.0</ele><time>2026-05-02T10:31:41.851Z</time></trkpt><trkpt lat="44.2616133" lon="11.4701983"><ele>291.0</ele><time>2026-05-02T10:31:42.852Z</time></trkpt><trkpt lat="44.261535" lon="11.4701983"><ele>291.0</ele><time>2026-05-02T10:31:43.851Z</time></trkpt><trkpt lat="44.2614583" lon="11.4701967"><ele>291.1666666666667</ele><time>2026-05-02T10:31:44.851Z</time></trkpt><trkpt lat="44.2613817" lon="11.4701833"><ele>291.3333333333333</ele><time>2026-05-02T10:31:45.852Z</time></trkpt><trkpt lat="44.2613117" lon="11.470175"><ele>291.5</ele><time>2026-05-02T10:31:46.852Z</time></trkpt><trkpt lat="44.2612483" lon="11.4701733"><ele>291.66666666666663</ele><time>2026-05-02T10:31:47.851Z</time></trkpt><trkpt lat="44.2611383" lon="11.4701583"><ele>291.8333333333333</ele><time>2026-05-02T10:31:49.851Z</time></trkpt><trkpt lat="44.2610367" lon="11.4700833"><ele>292.0</ele><time>2026-05-02T10:31:51.851Z</time></trkpt><trkpt lat="44.2609467" lon="11.46999"><ele>292.0</ele><time>2026-05-02T10:31:53.852Z</time></trkpt><trkpt lat="44.2608317" lon="11.4699267"><ele>292.0</ele><time>2026-05-02T10:31:55.852Z</time></trkpt><trkpt lat="44.2607683" lon="11.4699033"><ele>292.0</ele><time>2026-05-02T10:31:56.852Z</time></trkpt><trkpt lat="44.26064" lon="11.4698983"><ele>292.0</ele><time>2026-05-02T10:31:58.852Z</time></trkpt><trkpt lat="44.2605733" lon="11.469915"><ele>292.0</ele><time>2026-05-02T10:31:59.851Z</time></trkpt><trkpt lat="44.2604967" lon="11.4699333"><ele>292.66666666666663</ele><time>2026-05-02T10:32:00.851Z</time></trkpt><trkpt lat="44.2604217" lon="11.4699583"><ele>293.3333333333333</ele><time>2026-05-02T10:32:01.851Z</time></trkpt><trkpt lat="44.260345" lon="11.4699767"><ele>294.0</ele><time>2026-05-02T10:32:02.851Z</time></trkpt><trkpt lat="44.2602717" lon="11.4699933"><ele>294.6666666666667</ele><time>2026-05-02T10:32:03.851Z</time></trkpt><trkpt lat="44.260155" lon="11.4699983"><ele>295.33333333333337</ele><time>2026-05-02T10:32:05.852Z</time></trkpt><trkpt lat="44.26009" lon="11.4699883"><ele>296.0</ele><time>2026-05-02T10:32:06.851Z</time></trkpt><trkpt lat="44.2600133" lon="11.4699867"><ele>296.0</ele><time>2026-05-02T10:32:07.851Z</time></trkpt><trkpt lat="44.25994" lon="11.4699767"><ele>296.0</ele><time>2026-05-02T10:32:08.851Z</time></trkpt><trkpt lat="44.2598767" lon="11.4699717"><ele>296.0</ele><time>2026-05-02T10:32:09.852Z</time></trkpt><trkpt lat="44.2597583" lon="11.4699633"><ele>296.0</ele><time>2026-05-02T10:32:11.851Z</time></trkpt><trkpt lat="44.2596933" lon="11.4699533"><ele>296.0</ele><time>2026-05-02T10:32:12.851Z</time></trkpt><trkpt lat="44.2596233" lon="11.4699417"><ele>296.0</ele><time>2026-05-02T10:32:13.851Z</time></trkpt><trkpt lat="44.2595533" lon="11.4699333"><ele>296.1666666666667</ele><time>2026-05-02T10:32:14.851Z</time></trkpt><trkpt lat="44.2594817" lon="11.4699217"><ele>296.33333333333337</ele><time>2026-05-02T10:32:15.851Z</time></trkpt><trkpt lat="44.25941" lon="11.469915"><ele>296.5</ele><time>2026-05-02T10:32:16.851Z</time></trkpt><trkpt lat="44.2593333" lon="11.4699083"><ele>296.6666666666667</ele><time>2026-05-02T10:32:17.851Z</time></trkpt><trkpt lat="44.2592533" lon="11.4699117"><ele>296.8333333333333</ele><time>2026-05-02T10:32:18.851Z</time></trkpt><trkpt lat="44.25917" lon="11.469915"><ele>297.0</ele><time>2026-05-02T10:32:19.851Z</time></trkpt><trkpt lat="44.2590933" lon="11.4699317"><ele>297.0</ele><time>2026-05-02T10:32:20.851Z</time></trkpt><trkpt lat="44.2590267" lon="11.46994"><ele>297.0</ele><time>2026-05-02T10:32:21.851Z</time></trkpt><trkpt lat="44.25894" lon="11.4699517"><ele>297.0</ele><time>2026-05-02T10:32:23.852Z</time></trkpt><trkpt lat="44.2588133" lon="11.4699633"><ele>297.0</ele><time>2026-05-02T10:34:53.85Z</time></trkpt><trkpt lat="44.2587483" lon="11.469895"><ele>297.0</ele><time>2026-05-02T10:34:57.85Z</time></trkpt><trkpt lat="44.258675" lon="11.4698583"><ele>297.0</ele><time>2026-05-02T10:35:00.85Z</time></trkpt><trkpt lat="44.2585817" lon="11.469885"><ele>297.0</ele><time>2026-05-02T10:36:08.85Z</time></trkpt><trkpt lat="44.2584667" lon="11.4698433"><ele>297.0</ele><time>2026-05-02T10:36:44.85Z</time></trkpt><trkpt lat="44.2583933" lon="11.4697767"><ele>297.0</ele><time>2026-05-02T10:36:49.85Z</time></trkpt><trkpt lat="44.2583167" lon="11.46977"><ele>297.0</ele><time>2026-05-02T10:36:52.85Z</time></trkpt><trkpt lat="44.2582483" lon="11.469815"><ele>297.0</ele><time>2026-05-02T10:36:55.85Z</time></trkpt><trkpt lat="44.2581933" lon="11.4698867"><ele>297.0</ele><time>2026-05-02T10:36:58.85Z</time></trkpt><trkpt lat="44.25809" lon="11.46991"><ele>297.3333333333333</ele><time>2026-05-02T10:37:23.851Z</time></trkpt><trkpt lat="44.2580067" lon="11.4699367"><ele>297.6666666666667</ele><time>2026-05-02T10:37:26.85Z</time></trkpt><trkpt lat="44.25795" lon="11.47"><ele>298.0</ele><time>2026-05-02T10:37:30.85Z</time></trkpt><trkpt lat="44.2578867" lon="11.470075"><ele>298.33333333333337</ele><time>2026-05-02T10:37:33.851Z</time></trkpt><trkpt lat="44.25783" lon="11.4701417"><ele>298.6666666666667</ele><time>2026-05-02T10:37:43.85Z</time></trkpt><trkpt lat="44.257785" lon="11.4702167"><ele>299.0</ele><time>2026-05-02T10:37:48.85Z</time></trkpt><trkpt lat="44.25774" lon="11.4702883"><ele>299.0</ele><time>2026-05-02T10:37:52.85Z</time></trkpt><trkpt lat="44.2576517" lon="11.47029"><ele>299.0</ele><time>2026-05-02T10:37:55.85Z</time></trkpt><trkpt lat="44.2575567" lon="11.4702633"><ele>299.0</ele><time>2026-05-02T10:37:57.85Z</time></trkpt><trkpt lat="44.2574783" lon="11.4702017"><ele>299.0</ele><time>2026-05-02T10:37:59.85Z</time></trkpt><trkpt lat="44.257385" lon="11.4701233"><ele>299.0</ele><time>2026-05-02T10:38:01.85Z</time></trkpt><trkpt lat="44.257275" lon="11.4700483"><ele>299.2</ele><time>2026-05-02T10:38:03.85Z</time></trkpt><trkpt lat="44.2571517" lon="11.4700167"><ele>299.4</ele><time>2026-05-02T10:38:05.85Z</time></trkpt><trkpt lat="44.25707" lon="11.4700117"><ele>299.6</ele><time>2026-05-02T10:38:06.851Z</time></trkpt><trkpt lat="44.2569767" lon="11.4699983"><ele>299.8</ele><time>2026-05-02T10:38:07.85Z</time></trkpt><trkpt lat="44.2568767" lon="11.46998"><ele>300.0</ele><time>2026-05-02T10:38:08.85Z</time></trkpt><trkpt lat="44.2567833" lon="11.469955"><ele>300.0</ele><time>2026-05-02T10:38:09.85Z</time></trkpt><trkpt lat="44.2566983" lon="11.4699383"><ele>300.0</ele><time>2026-05-02T10:38:10.85Z</time></trkpt><trkpt lat="44.25663" lon="11.4699183"><ele>300.0</ele><time>2026-05-02T10:38:11.85Z</time></trkpt><trkpt lat="44.25657" lon="11.4698817"><ele>300.0</ele><time>2026-05-02T10:38:12.85Z</time></trkpt><trkpt lat="44.256485" lon="11.469805"><ele>300.0</ele><time>2026-05-02T10:38:14.85Z</time></trkpt><trkpt lat="44.256415" lon="11.4697367"><ele>300.0</ele><time>2026-05-02T10:38:16.851Z</time></trkpt><trkpt lat="44.256355" lon="11.469675"><ele>300.0</ele><time>2026-05-02T10:38:18.85Z</time></trkpt><trkpt lat="44.25629" lon="11.4696133"><ele>300.0</ele><time>2026-05-02T10:38:20.85Z</time></trkpt><trkpt lat="44.2562233" lon="11.4696367"><ele>300.0</ele><time>2026-05-02T10:38:33.85Z</time></trkpt><trkpt lat="44.256135" lon="11.4696917"><ele>300.0</ele><time>2026-05-02T10:38:36.85Z</time></trkpt><trkpt lat="44.2560517" lon="11.4697267"><ele>300.0</ele><time>2026-05-02T10:38:38.851Z</time></trkpt><trkpt lat="44.255955" lon="11.4697533"><ele>300.0</ele><time>2026-05-02T10:38:40.851Z</time></trkpt><trkpt lat="44.2558383" lon="11.4697717"><ele>300.0</ele><time>2026-05-02T10:38:42.851Z</time></trkpt><trkpt lat="44.255775" lon="11.46979"><ele>300.0</ele><time>2026-05-02T10:38:43.85Z</time></trkpt><trkpt lat="44.25571" lon="11.4698067"><ele>300.0</ele><time>2026-05-02T10:38:44.85Z</time></trkpt><trkpt lat="44.255645" lon="11.4698217"><ele>300.0</ele><time>2026-05-02T10:38:45.85Z</time></trkpt><trkpt lat="44.255535" lon="11.469835"><ele>300.0</ele><time>2026-05-02T10:38:47.85Z</time></trkpt><trkpt lat="44.255435" lon="11.469815"><ele>300.0</ele><time>2026-05-02T10:38:49.85Z</time></trkpt><trkpt lat="44.25532" lon="11.4697867"><ele>300.1666666666667</ele><time>2026-05-02T10:38:51.85Z</time></trkpt><trkpt lat="44.255205" lon="11.46977"><ele>300.3333333333333</ele><time>2026-05-02T10:38:53.85Z</time></trkpt><trkpt lat="44.2550833" lon="11.4697783"><ele>300.5</ele><time>2026-05-02T10:38:55.85Z</time></trkpt><trkpt lat="44.25502" lon="11.4698083"><ele>300.66666666666663</ele><time>2026-05-02T10:38:56.851Z</time></trkpt><trkpt lat="44.2549617" lon="11.4698483"><ele>300.8333333333333</ele><time>2026-05-02T10:38:57.851Z</time></trkpt><trkpt lat="44.2549017" lon="11.4698833"><ele>301.0</ele><time>2026-05-02T10:38:58.85Z</time></trkpt><trkpt lat="44.2548067" lon="11.4699167"><ele>301.16666666666663</ele><time>2026-05-02T10:39:00.851Z</time></trkpt><trkpt lat="44.2546967" lon="11.4699133"><ele>301.3333333333333</ele><time>2026-05-02T10:39:02.85Z</time></trkpt><trkpt lat="44.2546233" lon="11.4699017"><ele>301.5</ele><time>2026-05-02T10:39:03.851Z</time></trkpt><trkpt lat="44.254545" lon="11.4698883"><ele>301.6666666666667</ele><time>2026-05-02T10:39:04.85Z</time></trkpt><trkpt lat="44.2544667" lon="11.4698583"><ele>301.83333333333337</ele><time>2026-05-02T10:39:05.85Z</time></trkpt><trkpt lat="44.2543817" lon="11.4698317"><ele>302.0</ele><time>2026-05-02T10:39:06.85Z</time></trkpt><trkpt lat="44.25431" lon="11.4697933"><ele>302.0</ele><time>2026-05-02T10:39:07.85Z</time></trkpt><trkpt lat="44.25424" lon="11.46975"><ele>302.0</ele><time>2026-05-02T10:39:08.85Z</time></trkpt><trkpt lat="44.254175" lon="11.4697233"><ele>302.0</ele><time>2026-05-02T10:39:09.851Z</time></trkpt><trkpt lat="44.2540633" lon="11.4697367"><ele>302.0</ele><time>2026-05-02T10:39:11.851Z</time></trkpt><trkpt lat="44.2539667" lon="11.4697817"><ele>302.0</ele><time>2026-05-02T10:39:13.85Z</time></trkpt><trkpt lat="44.253885" lon="11.4698083"><ele>302.0</ele><time>2026-05-02T10:39:15.85Z</time></trkpt><trkpt lat="44.25381" lon="11.4698633"><ele>302.14285714285717</ele><time>2026-05-02T10:39:17.85Z</time></trkpt><trkpt lat="44.2537367" lon="11.469905"><ele>302.2857142857143</ele><time>2026-05-02T10:39:34.85Z</time></trkpt><trkpt lat="44.2536767" lon="11.4698767"><ele>302.42857142857144</ele><time>2026-05-02T10:43:43.85Z</time></trkpt><trkpt lat="44.253655" lon="11.46978"><ele>302.57142857142856</ele><time>2026-05-02T10:43:48.849Z</time></trkpt><trkpt lat="44.25366" lon="11.4696883"><ele>302.7142857142857</ele><time>2026-05-02T10:43:52.849Z</time></trkpt><trkpt lat="44.25366" lon="11.469595"><ele>302.8571428571429</ele><time>2026-05-02T10:43:56.849Z</time></trkpt><trkpt lat="44.2536233" lon="11.4695083"><ele>303.0</ele><time>2026-05-02T10:44:02.849Z</time></trkpt><trkpt lat="44.253565" lon="11.4694733"><ele>303.0</ele><time>2026-05-02T10:44:06.85Z</time></trkpt><trkpt lat="44.2534967" lon="11.4694867"><ele>303.0</ele><time>2026-05-02T10:44:18.85Z</time></trkpt><trkpt lat="44.2534317" lon="11.4694417"><ele>303.0</ele><time>2026-05-02T10:44:21.849Z</time></trkpt><trkpt lat="44.2533667" lon="11.4694267"><ele>303.0</ele><time>2026-05-02T10:44:24.849Z</time></trkpt><trkpt lat="44.2533283" lon="11.4695317"><ele>303.0</ele><time>2026-05-02T10:44:37.848Z</time></trkpt><trkpt lat="44.253315" lon="11.46963"><ele>303.0</ele><time>2026-05-02T10:44:39.848Z</time></trkpt><trkpt lat="44.2533017" lon="11.469735"><ele>303.0</ele><time>2026-05-02T10:44:41.848Z</time></trkpt><trkpt lat="44.253295" lon="11.469835"><ele>303.1666666666667</ele><time>2026-05-02T10:44:43.848Z</time></trkpt><trkpt lat="44.253275" lon="11.469925"><ele>303.3333333333333</ele><time>2026-05-02T10:44:45.848Z</time></trkpt><trkpt lat="44.2533017" lon="11.470015"><ele>303.5</ele><time>2026-05-02T10:45:03.848Z</time></trkpt><trkpt lat="44.2533017" lon="11.4701483"><ele>303.66666666666663</ele><time>2026-05-02T10:45:28.849Z</time></trkpt><trkpt lat="44.25323" lon="11.4701483"><ele>303.8333333333333</ele><time>2026-05-02T10:45:30.848Z</time></trkpt><trkpt lat="44.2531333" lon="11.4701517"><ele>304.0</ele><time>2026-05-02T10:45:32.848Z</time></trkpt><trkpt lat="44.2530183" lon="11.47017"><ele>304.2</ele><time>2026-05-02T10:45:34.848Z</time></trkpt><trkpt lat="44.25289" lon="11.4701667"><ele>304.4</ele><time>2026-05-02T10:45:36.848Z</time></trkpt><trkpt lat="44.2528217" lon="11.4701683"><ele>304.6</ele><time>2026-05-02T10:45:37.848Z</time></trkpt><trkpt lat="44.2527217" lon="11.4701317"><ele>304.8</ele><time>2026-05-02T10:45:39.848Z</time></trkpt><trkpt lat="44.252635" lon="11.4700333"><ele>305.0</ele><time>2026-05-02T10:45:41.848Z</time></trkpt><trkpt lat="44.25253" lon="11.4699583"><ele>305.0</ele><time>2026-05-02T10:45:43.849Z</time></trkpt><trkpt lat="44.252465" lon="11.4699583"><ele>305.0</ele><time>2026-05-02T10:45:44.849Z</time></trkpt><trkpt lat="44.252395" lon="11.46996"><ele>305.0</ele><time>2026-05-02T10:45:45.848Z</time></trkpt><trkpt lat="44.2523283" lon="11.469975"><ele>305.0</ele><time>2026-05-02T10:45:46.848Z</time></trkpt><trkpt lat="44.252265" lon="11.4699917"><ele>305.0</ele><time>2026-05-02T10:45:47.848Z</time></trkpt><trkpt lat="44.2522017" lon="11.47001"><ele>305.0</ele><time>2026-05-02T10:45:48.848Z</time></trkpt><trkpt lat="44.252085" lon="11.4700433"><ele>305.6</ele><time>2026-05-02T10:45:50.849Z</time></trkpt><trkpt lat="44.251965" lon="11.47008"><ele>306.2</ele><time>2026-05-02T10:45:52.848Z</time></trkpt><trkpt lat="44.2519" lon="11.4700883"><ele>306.8</ele><time>2026-05-02T10:45:53.848Z</time></trkpt><trkpt lat="44.2518017" lon="11.4700583"><ele>307.4</ele><time>2026-05-02T10:45:55.848Z</time></trkpt><trkpt lat="44.2517317" lon="11.4699783"><ele>308.0</ele><time>2026-05-02T10:45:57.849Z</time></trkpt><trkpt lat="44.2516217" lon="11.4699"><ele>308.0</ele><time>2026-05-02T10:45:59.849Z</time></trkpt><trkpt lat="44.2515617" lon="11.4698567"><ele>308.0</ele><time>2026-05-02T10:46:00.849Z</time></trkpt><trkpt lat="44.2515033" lon="11.469795"><ele>308.0</ele><time>2026-05-02T10:46:01.848Z</time></trkpt><trkpt lat="44.25144" lon="11.4697417"><ele>308.0</ele><time>2026-05-02T10:46:02.848Z</time></trkpt><trkpt lat="44.251375" lon="11.4696883"><ele>308.0</ele><time>2026-05-02T10:46:03.848Z</time></trkpt><trkpt lat="44.2513033" lon="11.4696567"><ele>308.0</ele><time>2026-05-02T10:46:04.849Z</time></trkpt><trkpt lat="44.251215" lon="11.4696417"><ele>308.0</ele><time>2026-05-02T10:46:05.848Z</time></trkpt><trkpt lat="44.2511183" lon="11.469615"><ele>308.0</ele><time>2026-05-02T10:46:06.848Z</time></trkpt><trkpt lat="44.2510217" lon="11.4695783"><ele>308.0</ele><time>2026-05-02T10:46:07.849Z</time></trkpt><trkpt lat="44.2509433" lon="11.46954"><ele>308.0</ele><time>2026-05-02T10:46:08.848Z</time></trkpt><trkpt lat="44.250875" lon="11.46951"><ele>308.0</ele><time>2026-05-02T10:46:09.849Z</time></trkpt><trkpt lat="44.2507733" lon="11.46949"><ele>307.8</ele><time>2026-05-02T10:46:11.848Z</time></trkpt><trkpt lat="44.2506767" lon="11.4695367"><ele>307.6</ele><time>2026-05-02T10:46:13.848Z</time></trkpt><trkpt lat="44.2505583" lon="11.4696"><ele>307.4</ele><time>2026-05-02T10:46:15.849Z</time></trkpt><trkpt lat="44.250495" lon="11.469625"><ele>307.2</ele><time>2026-05-02T10:46:16.849Z</time></trkpt><trkpt lat="44.2504317" lon="11.4696517"><ele>307.0</ele><time>2026-05-02T10:46:17.849Z</time></trkpt><trkpt lat="44.2503083" lon="11.4696583"><ele>307.4285714285714</ele><time>2026-05-02T10:46:19.848Z</time></trkpt><trkpt lat="44.25022" lon="11.4696033"><ele>307.85714285714283</ele><time>2026-05-02T10:46:21.849Z</time></trkpt><trkpt lat="44.2501917" lon="11.4695017"><ele>308.2857142857143</ele><time>2026-05-02T10:46:23.848Z</time></trkpt><trkpt lat="44.2502083" lon="11.4694017"><ele>308.71428571428567</ele><time>2026-05-02T10:46:25.849Z</time></trkpt><trkpt lat="44.2502233" lon="11.46931"><ele>309.1428571428571</ele><time>2026-05-02T10:46:27.848Z</time></trkpt><trkpt lat="44.2501917" lon="11.469225"><ele>309.57142857142856</ele><time>2026-05-02T10:46:30.848Z</time></trkpt><trkpt lat="44.2501433" lon="11.469165"><ele>310.0</ele><time>2026-05-02T10:46:32.848Z</time></trkpt><trkpt lat="44.2500633" lon="11.469115"><ele>310.0</ele><time>2026-05-02T10:46:34.848Z</time></trkpt><trkpt lat="44.25" lon="11.4690933"><ele>310.0</ele><time>2026-05-02T10:46:36.848Z</time></trkpt><trkpt lat="44.2499333" lon="11.4690717"><ele>310.0</ele><time>2026-05-02T10:46:39.849Z</time></trkpt><trkpt lat="44.249855" lon="11.46906"><ele>310.0</ele><time>2026-05-02T10:46:42.848Z</time></trkpt><trkpt lat="44.2497817" lon="11.4690783"><ele>310.0</ele><time>2026-05-02T10:46:44.849Z</time></trkpt><trkpt lat="44.249685" lon="11.4691117"><ele>310.0</ele><time>2026-05-02T10:46:46.849Z</time></trkpt><trkpt lat="44.249585" lon="11.4691233"><ele>310.5</ele><time>2026-05-02T10:46:48.848Z</time></trkpt><trkpt lat="44.24952" lon="11.4691133"><ele>311.0</ele><time>2026-05-02T10:46:49.848Z</time></trkpt><trkpt lat="44.2494517" lon="11.4691017"><ele>311.5</ele><time>2026-05-02T10:46:50.849Z</time></trkpt><trkpt lat="44.2493317" lon="11.4690583"><ele>312.0</ele><time>2026-05-02T10:46:52.848Z</time></trkpt><trkpt lat="44.2492767" lon="11.4690133"><ele>312.5</ele><time>2026-05-02T10:46:53.849Z</time></trkpt><trkpt lat="44.2492267" lon="11.4689517"><ele>313.0</ele><time>2026-05-02T10:46:54.848Z</time></trkpt><trkpt lat="44.2491517" lon="11.4688233"><ele>312.8333333333333</ele><time>2026-05-02T10:46:56.848Z</time></trkpt><trkpt lat="44.2490767" lon="11.468755"><ele>312.66666666666663</ele><time>2026-05-02T10:46:58.848Z</time></trkpt><trkpt lat="44.2490117" lon="11.46874"><ele>312.5</ele><time>2026-05-02T10:47:00.848Z</time></trkpt><trkpt lat="44.2489467" lon="11.4687483"><ele>312.3333333333333</ele><time>2026-05-02T10:47:02.849Z</time></trkpt><trkpt lat="44.2488833" lon="11.4687617"><ele>312.1666666666667</ele><time>2026-05-02T10:47:04.848Z</time></trkpt><trkpt lat="44.2487883" lon="11.468785"><ele>312.0</ele><time>2026-05-02T10:47:07.848Z</time></trkpt><trkpt lat="44.24871" lon="11.468785"><ele>312.6666666666667</ele><time>2026-05-02T10:47:09.848Z</time></trkpt><trkpt lat="44.2486417" lon="11.4687783"><ele>313.3333333333333</ele><time>2026-05-02T10:47:11.848Z</time></trkpt><trkpt lat="44.2485517" lon="11.4687883"><ele>314.0</ele><time>2026-05-02T10:47:15.848Z</time></trkpt><trkpt lat="44.2484617" lon="11.4687933"><ele>314.66666666666663</ele><time>2026-05-02T10:47:18.848Z</time></trkpt><trkpt lat="44.24839" lon="11.46881"><ele>315.3333333333333</ele><time>2026-05-02T10:47:20.849Z</time></trkpt><trkpt lat="44.2482917" lon="11.4688683"><ele>316.0</ele><time>2026-05-02T10:47:35.848Z</time></trkpt><trkpt lat="44.2482383" lon="11.4689433"><ele>316.0</ele><time>2026-05-02T10:47:52.848Z</time></trkpt><trkpt lat="44.2482417" lon="11.469045"><ele>316.0</ele><time>2026-05-02T10:47:54.848Z</time></trkpt><trkpt lat="44.2482683" lon="11.469145"><ele>316.0</ele><time>2026-05-02T10:47:57.848Z</time></trkpt><trkpt lat="44.2482917" lon="11.4692283"><ele>316.0</ele><time>2026-05-02T10:47:59.848Z</time></trkpt><trkpt lat="44.24833" lon="11.4693433"><ele>316.0</ele><time>2026-05-02T10:48:01.849Z</time></trkpt><trkpt lat="44.2483617" lon="11.4694533"><ele>316.0</ele><time>2026-05-02T10:48:04.848Z</time></trkpt><trkpt lat="44.2483333" lon="11.4695467"><ele>316.0</ele><time>2026-05-02T10:48:06.848Z</time></trkpt><trkpt lat="44.2483467" lon="11.46942"><ele>316.0</ele><time>2026-05-02T10:48:48.848Z</time></trkpt><trkpt lat="44.2483083" lon="11.4693383"><ele>316.0</ele><time>2026-05-02T10:48:50.849Z</time></trkpt><trkpt lat="44.2482867" lon="11.4692533"><ele>316.0</ele><time>2026-05-02T10:48:52.848Z</time></trkpt><trkpt lat="44.2482617" lon="11.4691467"><ele>316.0</ele><time>2026-05-02T10:48:55.848Z</time></trkpt><trkpt lat="44.24824" lon="11.4690467"><ele>316.0</ele><time>2026-05-02T10:48:59.849Z</time></trkpt><trkpt lat="44.24823" lon="11.46895"><ele>316.0</ele><time>2026-05-02T10:49:02.848Z</time></trkpt><trkpt lat="44.2482583" lon="11.4688567"><ele>316.0</ele><time>2026-05-02T10:49:05.848Z</time></trkpt><trkpt lat="44.24822" lon="11.46896"><ele>316.0</ele><time>2026-05-02T11:20:49.842Z</time></trkpt><trkpt lat="44.248235" lon="11.46907"><ele>316.0</ele><time>2026-05-02T11:20:51.843Z</time></trkpt><trkpt lat="44.248265" lon="11.4691567"><ele>316.0</ele><time>2026-05-02T11:20:54.842Z</time></trkpt><trkpt lat="44.2482983" lon="11.469305"><ele>316.0</ele><time>2026-05-02T11:20:57.842Z</time></trkpt><trkpt lat="44.2483467" lon="11.4694133"><ele>316.0</ele><time>2026-05-02T11:20:59.842Z</time></trkpt><trkpt lat="44.24833" lon="11.46954"><ele>316.0</ele><time>2026-05-02T11:21:02.842Z</time></trkpt><trkpt lat="44.2482667" lon="11.46963"><ele>316.0</ele><time>2026-05-02T11:21:04.842Z</time></trkpt><trkpt lat="44.248195" lon="11.46972"><ele>316.0</ele><time>2026-05-02T11:21:06.842Z</time></trkpt><trkpt lat="44.2481283" lon="11.4698533"><ele>316.0</ele><time>2026-05-02T11:21:08.843Z</time></trkpt><trkpt lat="44.2480683" lon="11.47001"><ele>317.42857142857144</ele><time>2026-05-02T11:21:10.842Z</time></trkpt><trkpt lat="44.2480433" lon="11.4701"><ele>318.8571428571429</ele><time>2026-05-02T11:21:11.843Z</time></trkpt><trkpt lat="44.24802" lon="11.470195"><ele>320.28571428571433</ele><time>2026-05-02T11:21:12.843Z</time></trkpt><trkpt lat="44.2479967" lon="11.4702867"><ele>321.7142857142857</ele><time>2026-05-02T11:21:13.842Z</time></trkpt><trkpt lat="44.2479667" lon="11.4703767"><ele>323.1428571428571</ele><time>2026-05-02T11:21:14.843Z</time></trkpt><trkpt lat="44.2479317" lon="11.470455"><ele>324.5714285714286</ele><time>2026-05-02T11:21:15.842Z</time></trkpt><trkpt lat="44.2478783" lon="11.4705617"><ele>326.0</ele><time>2026-05-02T11:21:17.843Z</time></trkpt><trkpt lat="44.2478333" lon="11.470655"><ele>326.0</ele><time>2026-05-02T11:21:19.842Z</time></trkpt><trkpt lat="44.24775" lon="11.4705967"><ele>326.0</ele><time>2026-05-02T11:21:50.842Z</time></trkpt><trkpt lat="44.2476767" lon="11.4705383"><ele>326.0</ele><time>2026-05-02T11:21:52.842Z</time></trkpt><trkpt lat="44.2475717" lon="11.4704867"><ele>326.0</ele><time>2026-05-02T11:21:54.842Z</time></trkpt><trkpt lat="44.2474683" lon="11.4704417"><ele>326.0</ele><time>2026-05-02T11:21:56.843Z</time></trkpt><trkpt lat="44.2473617" lon="11.4704"><ele>327.5</ele><time>2026-05-02T11:21:58.842Z</time></trkpt><trkpt lat="44.24724" lon="11.4703517"><ele>329.0</ele><time>2026-05-02T11:22:00.843Z</time></trkpt><trkpt lat="44.2471783" lon="11.4703233"><ele>330.5</ele><time>2026-05-02T11:22:01.842Z</time></trkpt><trkpt lat="44.2470617" lon="11.47027"><ele>332.0</ele><time>2026-05-02T11:22:03.843Z</time></trkpt><trkpt lat="44.2469983" lon="11.4702517"><ele>333.5</ele><time>2026-05-02T11:22:04.842Z</time></trkpt><trkpt lat="44.2469367" lon="11.4702317"><ele>335.0</ele><time>2026-05-02T11:22:05.842Z</time></trkpt><trkpt lat="44.2468717" lon="11.4702167"><ele>335.0</ele><time>2026-05-02T11:22:06.843Z</time></trkpt><trkpt lat="44.24681" lon="11.4701983"><ele>335.0</ele><time>2026-05-02T11:22:07.843Z</time></trkpt><trkpt lat="44.2467017" lon="11.4701717"><ele>335.0</ele><time>2026-05-02T11:22:09.842Z</time></trkpt><trkpt lat="44.2466083" lon="11.470145"><ele>335.0</ele><time>2026-05-02T11:22:11.842Z</time></trkpt><trkpt lat="44.2465167" lon="11.4700883"><ele>335.0</ele><time>2026-05-02T11:22:13.843Z</time></trkpt><trkpt lat="44.2464467" lon="11.4700183"><ele>335.6666666666667</ele><time>2026-05-02T11:22:15.842Z</time></trkpt><trkpt lat="44.2463717" lon="11.47001"><ele>336.33333333333337</ele><time>2026-05-02T11:22:17.842Z</time></trkpt><trkpt lat="44.2462783" lon="11.47005"><ele>337.0</ele><time>2026-05-02T11:22:19.842Z</time></trkpt><trkpt lat="44.2462183" lon="11.4700833"><ele>337.6666666666667</ele><time>2026-05-02T11:22:20.842Z</time></trkpt><trkpt lat="44.2461533" lon="11.4701267"><ele>338.3333333333333</ele><time>2026-05-02T11:22:21.842Z</time></trkpt><trkpt lat="44.2460783" lon="11.4701733"><ele>339.0</ele><time>2026-05-02T11:22:22.843Z</time></trkpt><trkpt lat="44.2459967" lon="11.4702233"><ele>339.0</ele><time>2026-05-02T11:22:23.842Z</time></trkpt><trkpt lat="44.24591" lon="11.47027"><ele>339.0</ele><time>2026-05-02T11:22:24.842Z</time></trkpt><trkpt lat="44.245835" lon="11.4703167"><ele>339.0</ele><time>2026-05-02T11:22:25.842Z</time></trkpt><trkpt lat="44.2457683" lon="11.4703633"><ele>339.0</ele><time>2026-05-02T11:22:26.842Z</time></trkpt><trkpt lat="44.2457067" lon="11.470405"><ele>339.0</ele><time>2026-05-02T11:22:27.843Z</time></trkpt><trkpt lat="44.2456467" lon="11.47045"><ele>339.0</ele><time>2026-05-02T11:22:28.842Z</time></trkpt><trkpt lat="44.2455867" lon="11.4705"><ele>341.6666666666667</ele><time>2026-05-02T11:22:29.842Z</time></trkpt><trkpt lat="44.2454983" lon="11.4705867"><ele>344.3333333333333</ele><time>2026-05-02T11:22:31.842Z</time></trkpt><trkpt lat="44.24547" lon="11.470675"><ele>347.0</ele><time>2026-05-02T11:22:33.842Z</time></trkpt><trkpt lat="44.2454733" lon="11.47077"><ele>349.66666666666663</ele><time>2026-05-02T11:22:35.842Z</time></trkpt><trkpt lat="44.2454883" lon="11.4708967"><ele>352.3333333333333</ele><time>2026-05-02T11:22:37.842Z</time></trkpt><trkpt lat="44.2454933" lon="11.471045"><ele>355.0</ele><time>2026-05-02T11:22:39.842Z</time></trkpt><trkpt lat="44.24546" lon="11.4711833"><ele>357.5</ele><time>2026-05-02T11:22:41.842Z</time></trkpt><trkpt lat="44.2453933" lon="11.471325"><ele>360.0</ele><time>2026-05-02T11:22:43.842Z</time></trkpt><trkpt lat="44.2453067" lon="11.4714517"><ele>362.5</ele><time>2026-05-02T11:22:45.842Z</time></trkpt><trkpt lat="44.2452133" lon="11.4715467"><ele>365.0</ele><time>2026-05-02T11:22:47.842Z</time></trkpt><trkpt lat="44.2451083" lon="11.471625"><ele>365.0</ele><time>2026-05-02T11:22:49.842Z</time></trkpt><trkpt lat="44.24505" lon="11.47166"><ele>365.0</ele><time>2026-05-02T11:22:50.843Z</time></trkpt><trkpt lat="44.2449817" lon="11.4717083"><ele>365.0</ele><time>2026-05-02T11:22:51.842Z</time></trkpt><trkpt lat="44.2449017" lon="11.471765"><ele>365.0</ele><time>2026-05-02T11:22:52.842Z</time></trkpt><trkpt lat="44.244825" lon="11.4718217"><ele>365.0</ele><time>2026-05-02T11:22:53.842Z</time></trkpt><trkpt lat="44.2447617" lon="11.4718717"><ele>365.0</ele><time>2026-05-02T11:22:54.842Z</time></trkpt><trkpt lat="44.2447" lon="11.47193"><ele>367.14285714285717</ele><time>2026-05-02T11:22:55.842Z</time></trkpt><trkpt lat="44.2446483" lon="11.4719883"><ele>369.2857142857143</ele><time>2026-05-02T11:22:56.843Z</time></trkpt><trkpt lat="44.2446017" lon="11.4720533"><ele>371.42857142857144</ele><time>2026-05-02T11:22:57.842Z</time></trkpt><trkpt lat="44.2445567" lon="11.47213"><ele>373.57142857142856</ele><time>2026-05-02T11:22:58.842Z</time></trkpt><trkpt lat="44.2445117" lon="11.4722117"><ele>375.7142857142857</ele><time>2026-05-02T11:22:59.842Z</time></trkpt><trkpt lat="44.244465" lon="11.4723"><ele>377.8571428571429</ele><time>2026-05-02T11:23:00.842Z</time></trkpt><trkpt lat="44.2444133" lon="11.4723817"><ele>380.0</ele><time>2026-05-02T11:23:01.842Z</time></trkpt><trkpt lat="44.2443567" lon="11.472455"><ele>380.0</ele><time>2026-05-02T11:23:02.842Z</time></trkpt><trkpt lat="44.2442967" lon="11.4725217"><ele>380.0</ele><time>2026-05-02T11:23:03.842Z</time></trkpt><trkpt lat="44.2442417" lon="11.472575"><ele>380.0</ele><time>2026-05-02T11:23:04.843Z</time></trkpt><trkpt lat="44.2441817" lon="11.4726117"><ele>380.0</ele><time>2026-05-02T11:23:05.842Z</time></trkpt><trkpt lat="44.24412" lon="11.4726317"><ele>380.0</ele><time>2026-05-02T11:23:06.842Z</time></trkpt><trkpt lat="44.244055" lon="11.4726383"><ele>380.0</ele><time>2026-05-02T11:23:07.843Z</time></trkpt><trkpt lat="44.2439817" lon="11.4726267"><ele>380.0</ele><time>2026-05-02T11:23:08.843Z</time></trkpt><trkpt lat="44.24391" lon="11.4726133"><ele>383.0</ele><time>2026-05-02T11:23:09.842Z</time></trkpt><trkpt lat="44.2438467" lon="11.47261"><ele>386.0</ele><time>2026-05-02T11:23:10.842Z</time></trkpt><trkpt lat="44.2437583" lon="11.472595"><ele>389.0</ele><time>2026-05-02T11:23:12.842Z</time></trkpt><trkpt lat="44.2436933" lon="11.47254"><ele>392.0</ele><time>2026-05-02T11:23:15.843Z</time></trkpt><trkpt lat="44.243635" lon="11.4724433"><ele>394.99999999999994</ele><time>2026-05-02T11:23:19.843Z</time></trkpt><trkpt lat="44.243585" lon="11.4723383"><ele>398.0</ele><time>2026-05-02T11:23:21.842Z</time></trkpt><trkpt lat="44.2435083" lon="11.4722283"><ele>398.0</ele><time>2026-05-02T11:23:23.843Z</time></trkpt><trkpt lat="44.2434117" lon="11.4721467"><ele>398.0</ele><time>2026-05-02T11:23:25.842Z</time></trkpt><trkpt lat="44.2433183" lon="11.472085"><ele>398.0</ele><time>2026-05-02T11:23:27.842Z</time></trkpt><trkpt lat="44.2432283" lon="11.4720567"><ele>398.0</ele><time>2026-05-02T11:23:29.842Z</time></trkpt><trkpt lat="44.243135" lon="11.4721233"><ele>398.0</ele><time>2026-05-02T11:23:31.842Z</time></trkpt><trkpt lat="44.2430817" lon="11.47224"><ele>398.3333333333333</ele><time>2026-05-02T11:23:33.842Z</time></trkpt><trkpt lat="44.2430133" lon="11.4723433"><ele>398.66666666666663</ele><time>2026-05-02T11:23:35.843Z</time></trkpt><trkpt lat="44.2429333" lon="11.4723783"><ele>399.0</ele><time>2026-05-02T11:23:37.842Z</time></trkpt><trkpt lat="44.2428217" lon="11.472385"><ele>399.33333333333337</ele><time>2026-05-02T11:23:39.843Z</time></trkpt><trkpt lat="44.242755" lon="11.4724033"><ele>399.6666666666667</ele><time>2026-05-02T11:23:40.843Z</time></trkpt><trkpt lat="44.2426917" lon="11.472425"><ele>400.0</ele><time>2026-05-02T11:23:41.842Z</time></trkpt><trkpt lat="44.24263" lon="11.4724583"><ele>400.00000000000006</ele><time>2026-05-02T11:23:42.842Z</time></trkpt><trkpt lat="44.2425683" lon="11.4725117"><ele>400.0</ele><time>2026-05-02T11:23:43.842Z</time></trkpt><trkpt lat="44.24251" lon="11.4725633"><ele>400.0</ele><time>2026-05-02T11:23:44.842Z</time></trkpt><trkpt lat="44.2424533" lon="11.4726283"><ele>400.0</ele><time>2026-05-02T11:23:45.843Z</time></trkpt><trkpt lat="44.2424" lon="11.4727067"><ele>400.00000000000006</ele><time>2026-05-02T11:23:46.842Z</time></trkpt><trkpt lat="44.2423483" lon="11.4727967"><ele>400.0</ele><time>2026-05-02T11:23:47.842Z</time></trkpt><trkpt lat="44.242305" lon="11.4728933"><ele>400.6</ele><time>2026-05-02T11:23:48.842Z</time></trkpt><trkpt lat="44.24226" lon="11.472995"><ele>401.2</ele><time>2026-05-02T11:23:49.842Z</time></trkpt><trkpt lat="44.2422217" lon="11.4731067"><ele>401.79999999999995</ele><time>2026-05-02T11:23:50.843Z</time></trkpt><trkpt lat="44.2421817" lon="11.4732267"><ele>402.4</ele><time>2026-05-02T11:23:51.842Z</time></trkpt><trkpt lat="44.2421367" lon="11.4733583"><ele>403.0</ele><time>2026-05-02T11:23:52.842Z</time></trkpt><trkpt lat="44.242095" lon="11.4734683"><ele>403.00000000000006</ele><time>2026-05-02T11:23:53.842Z</time></trkpt><trkpt lat="44.2420633" lon="11.473565"><ele>403.0</ele><time>2026-05-02T11:23:54.842Z</time></trkpt><trkpt lat="44.24203" lon="11.4736583"><ele>403.0</ele><time>2026-05-02T11:23:55.843Z</time></trkpt><trkpt lat="44.2420033" lon="11.4737533"><ele>403.0</ele><time>2026-05-02T11:23:56.842Z</time></trkpt><trkpt lat="44.2419817" lon="11.473855"><ele>403.00000000000006</ele><time>2026-05-02T11:23:57.843Z</time></trkpt><trkpt lat="44.241965" lon="11.4739483"><ele>403.0</ele><time>2026-05-02T11:23:58.843Z</time></trkpt><trkpt lat="44.2419133" lon="11.4740933"><ele>404.2857142857143</ele><time>2026-05-02T11:24:00.842Z</time></trkpt><trkpt lat="44.2418583" lon="11.4741367"><ele>405.57142857142856</ele><time>2026-05-02T11:24:01.843Z</time></trkpt><trkpt lat="44.2417967" lon="11.4741633"><ele>406.85714285714283</ele><time>2026-05-02T11:24:02.842Z</time></trkpt><trkpt lat="44.2417317" lon="11.47417"><ele>408.1428571428571</ele><time>2026-05-02T11:24:03.842Z</time></trkpt><trkpt lat="44.241665" lon="11.4741733"><ele>409.42857142857144</ele><time>2026-05-02T11:24:04.843Z</time></trkpt><trkpt lat="44.2415983" lon="11.474185"><ele>410.71428571428567</ele><time>2026-05-02T11:24:05.842Z</time></trkpt><trkpt lat="44.2415167" lon="11.4742017"><ele>412.0</ele><time>2026-05-02T11:24:06.842Z</time></trkpt><trkpt lat="44.2414283" lon="11.4742267"><ele>413.83333333333337</ele><time>2026-05-02T11:24:07.843Z</time></trkpt><trkpt lat="44.241335" lon="11.4742517"><ele>415.6666666666667</ele><time>2026-05-02T11:24:08.843Z</time></trkpt><trkpt lat="44.2412417" lon="11.4742783"><ele>417.5</ele><time>2026-05-02T11:24:09.843Z</time></trkpt><trkpt lat="44.241155" lon="11.4743083"><ele>419.33333333333337</ele><time>2026-05-02T11:24:10.843Z</time></trkpt><trkpt lat="44.2410867" lon="11.4743367"><ele>421.1666666666667</ele><time>2026-05-02T11:24:11.843Z</time></trkpt><trkpt lat="44.2410183" lon="11.4743733"><ele>423.0</ele><time>2026-05-02T11:24:12.842Z</time></trkpt><trkpt lat="44.2409517" lon="11.4744183"><ele>423.0</ele><time>2026-05-02T11:24:13.843Z</time></trkpt><trkpt lat="44.2408833" lon="11.4745117"><ele>423.0</ele><time>2026-05-02T11:24:15.842Z</time></trkpt><trkpt lat="44.2408733" lon="11.4746367"><ele>423.0</ele><time>2026-05-02T11:24:17.842Z</time></trkpt><trkpt lat="44.2409517" lon="11.4747233"><ele>423.0</ele><time>2026-05-02T11:24:19.842Z</time></trkpt><trkpt lat="44.241045" lon="11.4747933"><ele>423.0</ele><time>2026-05-02T11:24:21.842Z</time></trkpt><trkpt lat="44.2411317" lon="11.4749167"><ele>425.1666666666667</ele><time>2026-05-02T11:24:23.843Z</time></trkpt><trkpt lat="44.2411817" lon="11.4750733"><ele>427.33333333333337</ele><time>2026-05-02T11:24:25.843Z</time></trkpt><trkpt lat="44.241195" lon="11.4751717"><ele>429.5</ele><time>2026-05-02T11:24:26.842Z</time></trkpt><trkpt lat="44.2412033" lon="11.4752617"><ele>431.6666666666667</ele><time>2026-05-02T11:24:27.842Z</time></trkpt><trkpt lat="44.2411983" lon="11.4753567"><ele>433.83333333333337</ele><time>2026-05-02T11:24:28.842Z</time></trkpt><trkpt lat="44.2411933" lon="11.475455"><ele>436.0</ele><time>2026-05-02T11:24:29.843Z</time></trkpt><trkpt lat="44.241185" lon="11.4755633"><ele>439.0</ele><time>2026-05-02T11:24:30.842Z</time></trkpt><trkpt lat="44.2411833" lon="11.47567"><ele>442.0</ele><time>2026-05-02T11:24:31.842Z</time></trkpt><trkpt lat="44.2411767" lon="11.4757967"><ele>445.0</ele><time>2026-05-02T11:24:32.842Z</time></trkpt><trkpt lat="44.241185" lon="11.4759317"><ele>448.0</ele><time>2026-05-02T11:24:33.842Z</time></trkpt><trkpt lat="44.2411917" lon="11.47605"><ele>451.0</ele><time>2026-05-02T11:24:34.842Z</time></trkpt><trkpt lat="44.24118" lon="11.4761967"><ele>451.00000000000006</ele><time>2026-05-02T11:24:36.843Z</time></trkpt><trkpt lat="44.2411433" lon="11.4762817"><ele>451.0</ele><time>2026-05-02T11:24:38.842Z</time></trkpt><trkpt lat="44.241055" lon="11.476285"><ele>451.0</ele><time>2026-05-02T11:24:41.842Z</time></trkpt><trkpt lat="44.2409633" lon="11.4762033"><ele>451.0</ele><time>2026-05-02T11:24:43.842Z</time></trkpt><trkpt lat="44.2408933" lon="11.4761683"><ele>451.00000000000006</ele><time>2026-05-02T11:24:44.842Z</time></trkpt><trkpt lat="44.2408117" lon="11.4761417"><ele>451.0</ele><time>2026-05-02T11:24:45.843Z</time></trkpt><trkpt lat="44.2407183" lon="11.4761133"><ele>451.33333333333337</ele><time>2026-05-02T11:24:46.842Z</time></trkpt><trkpt lat="44.2406133" lon="11.47608"><ele>451.6666666666667</ele><time>2026-05-02T11:24:47.842Z</time></trkpt><trkpt lat="44.2405183" lon="11.4760483"><ele>452.0</ele><time>2026-05-02T11:24:48.842Z</time></trkpt><trkpt lat="44.2404333" lon="11.47602"><ele>452.33333333333337</ele><time>2026-05-02T11:24:49.842Z</time></trkpt><trkpt lat="44.240365" lon="11.4759983"><ele>452.6666666666667</ele><time>2026-05-02T11:24:50.843Z</time></trkpt><trkpt lat="44.2402833" lon="11.4760217"><ele>453.0</ele><time>2026-05-02T11:24:52.842Z</time></trkpt><trkpt lat="44.2402317" lon="11.4761267"><ele>453.0</ele><time>2026-05-02T11:24:54.842Z</time></trkpt><trkpt lat="44.2401833" lon="11.4762683"><ele>452.99999999999994</ele><time>2026-05-02T11:24:56.842Z</time></trkpt><trkpt lat="44.240145" lon="11.4763417"><ele>452.99999999999994</ele><time>2026-05-02T11:24:57.842Z</time></trkpt><trkpt lat="44.2400633" lon="11.4764467"><ele>453.0</ele><time>2026-05-02T11:24:59.842Z</time></trkpt><trkpt lat="44.2399783" lon="11.4765517"><ele>453.0</ele><time>2026-05-02T11:25:01.842Z</time></trkpt><trkpt lat="44.2399167" lon="11.47667"><ele>455.2</ele><time>2026-05-02T11:25:03.842Z</time></trkpt><trkpt lat="44.239855" lon="11.4767733"><ele>457.4</ele><time>2026-05-02T11:25:05.842Z</time></trkpt><trkpt lat="44.239795" lon="11.4768867"><ele>459.59999999999997</ele><time>2026-05-02T11:25:07.842Z</time></trkpt><trkpt lat="44.2397133" lon="11.4770317"><ele>461.79999999999995</ele><time>2026-05-02T11:25:09.842Z</time></trkpt><trkpt lat="44.2396633" lon="11.4771167"><ele>464.0</ele><time>2026-05-02T11:25:10.842Z</time></trkpt><trkpt lat="44.2396067" lon="11.4772033"><ele>466.2</ele><time>2026-05-02T11:25:11.842Z</time></trkpt><trkpt lat="44.2395517" lon="11.47728"><ele>468.4</ele><time>2026-05-02T11:25:12.842Z</time></trkpt><trkpt lat="44.2394833" lon="11.4773633"><ele>470.6</ele><time>2026-05-02T11:25:13.843Z</time></trkpt><trkpt lat="44.2394133" lon="11.477445"><ele>472.8</ele><time>2026-05-02T11:25:14.842Z</time></trkpt><trkpt lat="44.2393333" lon="11.477535"><ele>475.0</ele><time>2026-05-02T11:25:15.842Z</time></trkpt><trkpt lat="44.23925" lon="11.47763"><ele>475.0</ele><time>2026-05-02T11:25:16.842Z</time></trkpt><trkpt lat="44.23916" lon="11.4777317"><ele>475.0</ele><time>2026-05-02T11:25:17.842Z</time></trkpt><trkpt lat="44.23907" lon="11.477825"><ele>475.0</ele><time>2026-05-02T11:25:18.842Z</time></trkpt><trkpt lat="44.238985" lon="11.47791"><ele>475.0</ele><time>2026-05-02T11:25:19.842Z</time></trkpt><trkpt lat="44.2389083" lon="11.477995"><ele>475.0</ele><time>2026-05-02T11:25:20.842Z</time></trkpt><trkpt lat="44.2388233" lon="11.4780883"><ele>475.83333333333337</ele><time>2026-05-02T11:25:21.842Z</time></trkpt><trkpt lat="44.238745" lon="11.4781683"><ele>476.6666666666667</ele><time>2026-05-02T11:25:22.842Z</time></trkpt><trkpt lat="44.2386783" lon="11.47824"><ele>477.5</ele><time>2026-05-02T11:25:23.842Z</time></trkpt><trkpt lat="44.2386283" lon="11.478305"><ele>478.33333333333337</ele><time>2026-05-02T11:25:24.842Z</time></trkpt><trkpt lat="44.2385817" lon="11.478395"><ele>479.1666666666667</ele><time>2026-05-02T11:25:26.843Z</time></trkpt><trkpt lat="44.238595" lon="11.478495"><ele>480.0</ele><time>2026-05-02T11:25:30.843Z</time></trkpt><trkpt lat="44.2386483" lon="11.47856"><ele>480.0</ele><time>2026-05-02T11:25:34.842Z</time></trkpt><trkpt lat="44.238705" lon="11.4786417"><ele>480.0</ele><time>2026-05-02T11:25:38.842Z</time></trkpt><trkpt lat="44.2387517" lon="11.4787317"><ele>480.0</ele><time>2026-05-02T11:26:24.843Z</time></trkpt><trkpt lat="44.23885" lon="11.4788233"><ele>480.0</ele><time>2026-05-02T11:26:26.843Z</time></trkpt><trkpt lat="44.23894" lon="11.4788817"><ele>480.0</ele><time>2026-05-02T11:26:27.842Z</time></trkpt><trkpt lat="44.2390417" lon="11.478955"><ele>480.75</ele><time>2026-05-02T11:26:28.842Z</time></trkpt><trkpt lat="44.2391567" lon="11.4790217"><ele>481.5</ele><time>2026-05-02T11:26:29.842Z</time></trkpt><trkpt lat="44.23929" lon="11.4790833"><ele>482.25</ele><time>2026-05-02T11:26:30.842Z</time></trkpt><trkpt lat="44.2394217" lon="11.4791633"><ele>483.0</ele><time>2026-05-02T11:26:31.842Z</time></trkpt><trkpt lat="44.23954" lon="11.4792617"><ele>483.0</ele><time>2026-05-02T11:26:32.842Z</time></trkpt><trkpt lat="44.239665" lon="11.47939"><ele>483.0</ele><time>2026-05-02T11:26:33.843Z</time></trkpt><trkpt lat="44.2397867" lon="11.4795383"><ele>483.0</ele><time>2026-05-02T11:26:34.841Z</time></trkpt><trkpt lat="44.239895" lon="11.4797017"><ele>482.25</ele><time>2026-05-02T11:26:35.842Z</time></trkpt><trkpt lat="44.2399967" lon="11.4798617"><ele>481.5</ele><time>2026-05-02T11:26:36.841Z</time></trkpt><trkpt lat="44.2400917" lon="11.48001"><ele>480.75</ele><time>2026-05-02T11:26:37.842Z</time></trkpt><trkpt lat="44.2401817" lon="11.480145"><ele>480.0</ele><time>2026-05-02T11:26:38.841Z</time></trkpt><trkpt lat="44.24026" lon="11.48027"><ele>480.0</ele><time>2026-05-02T11:26:39.841Z</time></trkpt><trkpt lat="44.24034" lon="11.4803833"><ele>480.0</ele><time>2026-05-02T11:26:40.841Z</time></trkpt><trkpt lat="44.240415" lon="11.480495"><ele>480.0</ele><time>2026-05-02T11:26:41.841Z</time></trkpt><trkpt lat="44.240485" lon="11.4805983"><ele>480.0</ele><time>2026-05-02T11:26:42.842Z</time></trkpt><trkpt lat="44.24055" lon="11.4806917"><ele>480.0</ele><time>2026-05-02T11:26:43.841Z</time></trkpt><trkpt lat="44.2406083" lon="11.480785"><ele>480.8333333333333</ele><time>2026-05-02T11:26:44.841Z</time></trkpt><trkpt lat="44.2406683" lon="11.480865"><ele>481.66666666666663</ele><time>2026-05-02T11:26:45.841Z</time></trkpt><trkpt lat="44.24072" lon="11.4809433"><ele>482.5</ele><time>2026-05-02T11:26:46.841Z</time></trkpt><trkpt lat="44.24077" lon="11.4810133"><ele>483.3333333333333</ele><time>2026-05-02T11:26:47.842Z</time></trkpt><trkpt lat="44.2408117" lon="11.4810867"><ele>484.16666666666663</ele><time>2026-05-02T11:26:48.842Z</time></trkpt><trkpt lat="44.2408517" lon="11.4811583"><ele>485.0</ele><time>2026-05-02T11:26:49.842Z</time></trkpt><trkpt lat="44.2409067" lon="11.4812933"><ele>485.0</ele><time>2026-05-02T11:26:51.841Z</time></trkpt><trkpt lat="44.2409033" lon="11.4814"><ele>485.0</ele><time>2026-05-02T11:26:53.841Z</time></trkpt><trkpt lat="44.24084" lon="11.481375"><ele>485.0</ele><time>2026-05-02T11:26:57.842Z</time></trkpt></trkseg><trkseg><trkpt lat="44.2408" lon="11.4813917"><ele>484.99999999999994</ele><time>2026-05-02T13:26:26.861Z</time></trkpt><trkpt lat="44.24086" lon="11.4814583"><ele>485.0</ele><time>2026-05-02T13:26:30.861Z</time></trkpt><trkpt lat="44.24094" lon="11.4814367"><ele>485.0</ele><time>2026-05-02T13:26:33.861Z</time></trkpt><trkpt lat="44.2409217" lon="11.48127"><ele>485.0</ele><time>2026-05-02T13:26:44.862Z</time></trkpt><trkpt lat="44.2408783" lon="11.4811733"><ele>484.99999999999994</ele><time>2026-05-02T13:26:45.861Z</time></trkpt><trkpt lat="44.2408383" lon="11.4810817"><ele>485.0</ele><time>2026-05-02T13:26:46.861Z</time></trkpt><trkpt lat="44.2407917" lon="11.4809983"><ele>485.28571428571433</ele><time>2026-05-02T13:26:47.862Z</time></trkpt><trkpt lat="44.24074" lon="11.4809217"><ele>485.57142857142856</ele><time>2026-05-02T13:26:48.861Z</time></trkpt><trkpt lat="44.24069" lon="11.4808467"><ele>485.8571428571429</ele><time>2026-05-02T13:26:49.861Z</time></trkpt><trkpt lat="44.2406417" lon="11.4807767"><ele>486.14285714285717</ele><time>2026-05-02T13:26:50.861Z</time></trkpt><trkpt lat="44.2405917" lon="11.4807033"><ele>486.42857142857144</ele><time>2026-05-02T13:26:51.861Z</time></trkpt><trkpt lat="44.24054" lon="11.4806267"><ele>486.7142857142857</ele><time>2026-05-02T13:26:52.862Z</time></trkpt><trkpt lat="44.2404833" lon="11.4805533"><ele>487.0</ele><time>2026-05-02T13:26:53.862Z</time></trkpt><trkpt lat="44.2404267" lon="11.4804717"><ele>485.83333333333337</ele><time>2026-05-02T13:26:54.861Z</time></trkpt><trkpt lat="44.2403717" lon="11.48039"><ele>484.6666666666667</ele><time>2026-05-02T13:26:55.862Z</time></trkpt><trkpt lat="44.240315" lon="11.4803017"><ele>483.5</ele><time>2026-05-02T13:26:56.861Z</time></trkpt><trkpt lat="44.240255" lon="11.4802117"><ele>482.33333333333337</ele><time>2026-05-02T13:26:57.861Z</time></trkpt><trkpt lat="44.240195" lon="11.4801267"><ele>481.1666666666667</ele><time>2026-05-02T13:26:58.862Z</time></trkpt><trkpt lat="44.240135" lon="11.480035"><ele>480.0</ele><time>2026-05-02T13:26:59.861Z</time></trkpt><trkpt lat="44.2400783" lon="11.47995"><ele>480.0</ele><time>2026-05-02T13:27:00.861Z</time></trkpt><trkpt lat="44.2400283" lon="11.4798667"><ele>480.0</ele><time>2026-05-02T13:27:01.862Z</time></trkpt><trkpt lat="44.2399733" lon="11.4797867"><ele>480.0</ele><time>2026-05-02T13:27:02.861Z</time></trkpt><trkpt lat="44.2399233" lon="11.4797117"><ele>480.0</ele><time>2026-05-02T13:27:03.862Z</time></trkpt><trkpt lat="44.23987" lon="11.4796383"><ele>480.0</ele><time>2026-05-02T13:27:04.861Z</time></trkpt><trkpt lat="44.239815" lon="11.4795583"><ele>480.0</ele><time>2026-05-02T13:27:05.86Z</time></trkpt><trkpt lat="44.2397533" lon="11.47947"><ele>480.6</ele><time>2026-05-02T13:27:06.86Z</time></trkpt><trkpt lat="44.2396817" lon="11.479385"><ele>481.2</ele><time>2026-05-02T13:27:07.86Z</time></trkpt><trkpt lat="44.2395967" lon="11.4793117"><ele>481.79999999999995</ele><time>2026-05-02T13:27:08.86Z</time></trkpt><trkpt lat="44.2395133" lon="11.4792483"><ele>482.4</ele><time>2026-05-02T13:27:09.86Z</time></trkpt><trkpt lat="44.2394267" lon="11.4791833"><ele>483.0</ele><time>2026-05-02T13:27:10.861Z</time></trkpt><trkpt lat="44.2393367" lon="11.47913"><ele>483.0</ele><time>2026-05-02T13:27:11.86Z</time></trkpt><trkpt lat="44.2392383" lon="11.4790667"><ele>482.99999999999994</ele><time>2026-05-02T13:27:12.861Z</time></trkpt><trkpt lat="44.2391367" lon="11.4790117"><ele>482.99999999999994</ele><time>2026-05-02T13:27:13.86Z</time></trkpt><trkpt lat="44.2390367" lon="11.4789517"><ele>483.0</ele><time>2026-05-02T13:27:14.861Z</time></trkpt><trkpt lat="44.238935" lon="11.478885"><ele>483.0</ele><time>2026-05-02T13:27:15.861Z</time></trkpt><trkpt lat="44.2388333" lon="11.4788183"><ele>482.4</ele><time>2026-05-02T13:27:16.86Z</time></trkpt><trkpt lat="44.238735" lon="11.478745"><ele>481.79999999999995</ele><time>2026-05-02T13:27:17.86Z</time></trkpt><trkpt lat="44.238645" lon="11.4786817"><ele>481.2</ele><time>2026-05-02T13:27:18.861Z</time></trkpt><trkpt lat="44.2385683" lon="11.4786183"><ele>480.6</ele><time>2026-05-02T13:27:19.86Z</time></trkpt><trkpt lat="44.2384967" lon="11.4785567"><ele>480.0</ele><time>2026-05-02T13:27:20.861Z</time></trkpt><trkpt lat="44.238435" lon="11.4784983"><ele>480.0</ele><time>2026-05-02T13:27:21.86Z</time></trkpt><trkpt lat="44.2383767" lon="11.478445"><ele>480.0</ele><time>2026-05-02T13:27:22.86Z</time></trkpt><trkpt lat="44.2383233" lon="11.478395"><ele>480.0</ele><time>2026-05-02T13:27:23.86Z</time></trkpt><trkpt lat="44.23827" lon="11.478345"><ele>480.0</ele><time>2026-05-02T13:27:24.86Z</time></trkpt><trkpt lat="44.238175" lon="11.4782683"><ele>480.0</ele><time>2026-05-02T13:27:26.86Z</time></trkpt><trkpt lat="44.2381033" lon="11.478225"><ele>480.0</ele><time>2026-05-02T13:27:28.86Z</time></trkpt><trkpt lat="44.23799" lon="11.478155"><ele>479.8</ele><time>2026-05-02T13:28:46.86Z</time></trkpt><trkpt lat="44.237925" lon="11.4781333"><ele>479.6</ele><time>2026-05-02T13:28:47.86Z</time></trkpt><trkpt lat="44.23784" lon="11.4781083"><ele>479.4</ele><time>2026-05-02T13:28:48.86Z</time></trkpt><trkpt lat="44.2377451" lon="11.4780918"><ele>479.2</ele><time>2026-05-02T13:28:49.86Z</time></trkpt><trkpt lat="44.2376281" lon="11.4781086"><ele>479.0</ele><time>2026-05-02T13:28:50.861Z</time></trkpt><trkpt lat="44.2375016" lon="11.4781651"><ele>479.0</ele><time>2026-05-02T13:28:51.86Z</time></trkpt><trkpt lat="44.2373838" lon="11.4782324"><ele>479.0</ele><time>2026-05-02T13:28:52.86Z</time></trkpt><trkpt lat="44.2372674" lon="11.4782747"><ele>479.0</ele><time>2026-05-02T13:28:53.86Z</time></trkpt><trkpt lat="44.2371544" lon="11.4782755"><ele>479.0</ele><time>2026-05-02T13:28:54.86Z</time></trkpt><trkpt lat="44.2370392" lon="11.4782306"><ele>478.3333333333333</ele><time>2026-05-02T13:28:55.86Z</time></trkpt><trkpt lat="44.2369245" lon="11.4781263"><ele>477.66666666666663</ele><time>2026-05-02T13:28:56.86Z</time></trkpt><trkpt lat="44.2367936" lon="11.4780262"><ele>477.0</ele><time>2026-05-02T13:28:57.86Z</time></trkpt><trkpt lat="44.2366304" lon="11.477963"><ele>477.33333333333337</ele><time>2026-05-02T13:28:58.861Z</time></trkpt><trkpt lat="44.2364655" lon="11.4779294"><ele>477.6666666666667</ele><time>2026-05-02T13:28:59.861Z</time></trkpt><trkpt lat="44.2363178" lon="11.4779077"><ele>478.0</ele><time>2026-05-02T13:29:00.86Z</time></trkpt><trkpt lat="44.2361764" lon="11.4778899"><ele>478.0</ele><time>2026-05-02T13:29:01.86Z</time></trkpt><trkpt lat="44.2360384" lon="11.4778685"><ele>478.0</ele><time>2026-05-02T13:29:02.86Z</time></trkpt><trkpt lat="44.2359044" lon="11.4778401"><ele>478.0</ele><time>2026-05-02T13:29:03.86Z</time></trkpt><trkpt lat="44.2357844" lon="11.4777816"><ele>478.0</ele><time>2026-05-02T13:29:04.86Z</time></trkpt><trkpt lat="44.2356711" lon="11.4776831"><ele>479.25</ele><time>2026-05-02T13:29:05.86Z</time></trkpt><trkpt lat="44.2355757" lon="11.4775434"><ele>480.5</ele><time>2026-05-02T13:29:06.861Z</time></trkpt><trkpt lat="44.2354844" lon="11.4773831"><ele>481.75</ele><time>2026-05-02T13:29:07.86Z</time></trkpt><trkpt lat="44.2354046" lon="11.4772003"><ele>483.0</ele><time>2026-05-02T13:29:08.86Z</time></trkpt><trkpt lat="44.2353294" lon="11.4770123"><ele>483.0</ele><time>2026-05-02T13:29:09.86Z</time></trkpt><trkpt lat="44.2352548" lon="11.4768391"><ele>483.0</ele><time>2026-05-02T13:29:10.86Z</time></trkpt><trkpt lat="44.235176" lon="11.4766891"><ele>483.0</ele><time>2026-05-02T13:29:11.861Z</time></trkpt><trkpt lat="44.2350793" lon="11.4765636"><ele>483.0</ele><time>2026-05-02T13:29:12.86Z</time></trkpt><trkpt lat="44.2349686" lon="11.4764627"><ele>483.0</ele><time>2026-05-02T13:29:13.86Z</time></trkpt><trkpt lat="44.2348431" lon="11.4763783"><ele>483.0</ele><time>2026-05-02T13:29:14.861Z</time></trkpt><trkpt lat="44.2347089" lon="11.4762986"><ele>483.0</ele><time>2026-05-02T13:29:15.861Z</time></trkpt><trkpt lat="44.2345751" lon="11.4762132"><ele>483.0</ele><time>2026-05-02T13:29:16.861Z</time></trkpt><trkpt lat="44.2344363" lon="11.4761112"><ele>483.25</ele><time>2026-05-02T13:29:17.861Z</time></trkpt><trkpt lat="44.234323" lon="11.4759832"><ele>483.5</ele><time>2026-05-02T13:29:18.86Z</time></trkpt><trkpt lat="44.234226" lon="11.4758372"><ele>483.75</ele><time>2026-05-02T13:29:19.86Z</time></trkpt><trkpt lat="44.2341343" lon="11.4756906"><ele>484.0</ele><time>2026-05-02T13:29:20.86Z</time></trkpt><trkpt lat="44.2340233" lon="11.4755742"><ele>484.0</ele><time>2026-05-02T13:29:21.86Z</time></trkpt><trkpt lat="44.2339021" lon="11.4754827"><ele>484.0</ele><time>2026-05-02T13:29:22.86Z</time></trkpt><trkpt lat="44.2337816" lon="11.4754117"><ele>484.0</ele><time>2026-05-02T13:29:23.86Z</time></trkpt><trkpt lat="44.2336678" lon="11.4753541"><ele>484.0</ele><time>2026-05-02T13:29:24.86Z</time></trkpt><trkpt lat="44.2335669" lon="11.4752985"><ele>483.2</ele><time>2026-05-02T13:29:25.86Z</time></trkpt><trkpt lat="44.2334731" lon="11.4752422"><ele>482.4</ele><time>2026-05-02T13:29:26.86Z</time></trkpt><trkpt lat="44.2333941" lon="11.4751855"><ele>481.6</ele><time>2026-05-02T13:29:27.861Z</time></trkpt><trkpt lat="44.2333317" lon="11.4751009"><ele>480.8</ele><time>2026-05-02T13:29:28.861Z</time></trkpt><trkpt lat="44.2332875" lon="11.474973"><ele>480.0</ele><time>2026-05-02T13:29:29.86Z</time></trkpt><trkpt lat="44.2332623" lon="11.4748372"><ele>480.0</ele><time>2026-05-02T13:29:30.86Z</time></trkpt><trkpt lat="44.2332616" lon="11.4746476"><ele>480.0</ele><time>2026-05-02T13:29:31.86Z</time></trkpt><trkpt lat="44.2332634" lon="11.474441"><ele>480.0</ele><time>2026-05-02T13:29:32.86Z</time></trkpt><trkpt lat="44.2332651" lon="11.4742347"><ele>480.0</ele><time>2026-05-02T13:29:33.86Z</time></trkpt><trkpt lat="44.2332633" lon="11.4740356"><ele>479.75</ele><time>2026-05-02T13:29:34.861Z</time></trkpt><trkpt lat="44.2332588" lon="11.4738506"><ele>479.5</ele><time>2026-05-02T13:29:35.86Z</time></trkpt><trkpt lat="44.2332365" lon="11.4736874"><ele>479.25</ele><time>2026-05-02T13:29:36.861Z</time></trkpt><trkpt lat="44.233184" lon="11.4735506"><ele>479.0</ele><time>2026-05-02T13:29:37.86Z</time></trkpt><trkpt lat="44.2331054" lon="11.4734477"><ele>476.79999999999995</ele><time>2026-05-02T13:29:38.861Z</time></trkpt><trkpt lat="44.2330131" lon="11.4733985"><ele>474.59999999999997</ele><time>2026-05-02T13:29:39.861Z</time></trkpt><trkpt lat="44.2329028" lon="11.4734031"><ele>472.4</ele><time>2026-05-02T13:29:40.861Z</time></trkpt><trkpt lat="44.2327972" lon="11.4734257"><ele>470.2</ele><time>2026-05-02T13:29:41.86Z</time></trkpt><trkpt lat="44.2326777" lon="11.4734704"><ele>468.0</ele><time>2026-05-02T13:29:42.86Z</time></trkpt><trkpt lat="44.232571" lon="11.4734661"><ele>468.0</ele><time>2026-05-02T13:29:43.861Z</time></trkpt><trkpt lat="44.2324764" lon="11.4734202"><ele>467.99999999999994</ele><time>2026-05-02T13:29:44.86Z</time></trkpt><trkpt lat="44.2324042" lon="11.4733273"><ele>467.99999999999994</ele><time>2026-05-02T13:29:45.86Z</time></trkpt><trkpt lat="44.2323649" lon="11.473194"><ele>468.0</ele><time>2026-05-02T13:29:46.86Z</time></trkpt><trkpt lat="44.2323706" lon="11.4730267"><ele>468.0</ele><time>2026-05-02T13:29:47.86Z</time></trkpt><trkpt lat="44.2323825" lon="11.472861"><ele>469.0</ele><time>2026-05-02T13:29:48.86Z</time></trkpt><trkpt lat="44.232426" lon="11.4726303"><ele>470.0</ele><time>2026-05-02T13:29:49.86Z</time></trkpt><trkpt lat="44.2324087" lon="11.4724308"><ele>471.0</ele><time>2026-05-02T13:29:50.86Z</time></trkpt><trkpt lat="44.2323493" lon="11.4722339"><ele>464.0</ele><time>2026-05-02T13:29:51.86Z</time></trkpt><trkpt lat="44.2322708" lon="11.4720404"><ele>457.0</ele><time>2026-05-02T13:29:52.86Z</time></trkpt><trkpt lat="44.2321663" lon="11.4718508"><ele>450.0</ele><time>2026-05-02T13:29:53.86Z</time></trkpt><trkpt lat="44.2320642" lon="11.4716684"><ele>450.0</ele><time>2026-05-02T13:29:54.861Z</time></trkpt><trkpt lat="44.2319697" lon="11.4714943"><ele>450.0</ele><time>2026-05-02T13:29:55.861Z</time></trkpt><trkpt lat="44.23188" lon="11.4713333"><ele>450.0</ele><time>2026-05-02T13:29:56.861Z</time></trkpt><trkpt lat="44.231805" lon="11.471175"><ele>450.0</ele><time>2026-05-02T13:29:57.86Z</time></trkpt><trkpt lat="44.2317317" lon="11.4710333"><ele>451.6</ele><time>2026-05-02T13:29:58.86Z</time></trkpt><trkpt lat="44.2316683" lon="11.4709017"><ele>453.2</ele><time>2026-05-02T13:29:59.86Z</time></trkpt><trkpt lat="44.2316133" lon="11.4707917"><ele>454.79999999999995</ele><time>2026-05-02T13:30:00.86Z</time></trkpt><trkpt lat="44.23156" lon="11.4706917"><ele>456.4</ele><time>2026-05-02T13:30:01.86Z</time></trkpt><trkpt lat="44.2315167" lon="11.4706183"><ele>458.0</ele><time>2026-05-02T13:30:02.86Z</time></trkpt><trkpt lat="44.2314533" lon="11.4705317"><ele>458.0</ele><time>2026-05-02T13:30:04.86Z</time></trkpt><trkpt lat="44.2313191" lon="11.4705095"><ele>458.0</ele><time>2026-05-02T13:31:29.86Z</time></trkpt><trkpt lat="44.2311928" lon="11.4705501"><ele>458.0</ele><time>2026-05-02T13:31:30.86Z</time></trkpt><trkpt lat="44.2310646" lon="11.4705957"><ele>458.0</ele><time>2026-05-02T13:31:31.86Z</time></trkpt><trkpt lat="44.2309411" lon="11.4706333"><ele>458.0</ele><time>2026-05-02T13:31:32.86Z</time></trkpt><trkpt lat="44.2308176" lon="11.470654"><ele>458.0</ele><time>2026-05-02T13:31:33.86Z</time></trkpt><trkpt lat="44.2306985" lon="11.4706539"><ele>458.0</ele><time>2026-05-02T13:31:34.86Z</time></trkpt><trkpt lat="44.2305809" lon="11.470638"><ele>458.0</ele><time>2026-05-02T13:31:35.86Z</time></trkpt><trkpt lat="44.2304711" lon="11.4706096"><ele>458.0</ele><time>2026-05-02T13:31:36.861Z</time></trkpt><trkpt lat="44.2303691" lon="11.4705552"><ele>458.0</ele><time>2026-05-02T13:31:37.861Z</time></trkpt><trkpt lat="44.2302855" lon="11.4704729"><ele>458.0</ele><time>2026-05-02T13:31:38.861Z</time></trkpt><trkpt lat="44.2302061" lon="11.4703438"><ele>458.0</ele><time>2026-05-02T13:31:39.86Z</time></trkpt><trkpt lat="44.2301277" lon="11.4701849"><ele>458.0</ele><time>2026-05-02T13:31:40.861Z</time></trkpt><trkpt lat="44.2300535" lon="11.470019"><ele>458.0</ele><time>2026-05-02T13:31:41.861Z</time></trkpt><trkpt lat="44.2299836" lon="11.4698576"><ele>458.0</ele><time>2026-05-02T13:31:42.861Z</time></trkpt><trkpt lat="44.2299169" lon="11.469703"><ele>458.0</ele><time>2026-05-02T13:31:43.86Z</time></trkpt><trkpt lat="44.229825" lon="11.469568"><ele>458.0</ele><time>2026-05-02T13:31:44.86Z</time></trkpt><trkpt lat="44.2297152" lon="11.4694498"><ele>458.0</ele><time>2026-05-02T13:31:45.86Z</time></trkpt><trkpt lat="44.2295844" lon="11.4693605"><ele>458.0</ele><time>2026-05-02T13:31:46.86Z</time></trkpt><trkpt lat="44.2294466" lon="11.4692853"><ele>458.0</ele><time>2026-05-02T13:31:47.86Z</time></trkpt><trkpt lat="44.2292869" lon="11.4692334"><ele>458.0</ele><time>2026-05-02T13:31:48.861Z</time></trkpt><trkpt lat="44.2291209" lon="11.4691953"><ele>458.0</ele><time>2026-05-02T13:31:49.861Z</time></trkpt><trkpt lat="44.2289678" lon="11.4691552"><ele>458.0</ele><time>2026-05-02T13:31:50.861Z</time></trkpt><trkpt lat="44.2288304" lon="11.4691295"><ele>459.75</ele><time>2026-05-02T13:31:51.86Z</time></trkpt><trkpt lat="44.2287008" lon="11.4691399"><ele>461.5</ele><time>2026-05-02T13:31:52.86Z</time></trkpt><trkpt lat="44.2285714" lon="11.4691703"><ele>463.25</ele><time>2026-05-02T13:31:53.86Z</time></trkpt><trkpt lat="44.2284482" lon="11.4692216"><ele>465.0</ele><time>2026-05-02T13:31:54.86Z</time></trkpt><trkpt lat="44.2283362" lon="11.4692873"><ele>465.0</ele><time>2026-05-02T13:31:55.86Z</time></trkpt><trkpt lat="44.2282284" lon="11.4693473"><ele>465.0</ele><time>2026-05-02T13:31:56.86Z</time></trkpt><trkpt lat="44.2281143" lon="11.4693667"><ele>465.0</ele><time>2026-05-02T13:31:57.86Z</time></trkpt><trkpt lat="44.2280061" lon="11.469357"><ele>465.0</ele><time>2026-05-02T13:31:58.86Z</time></trkpt><trkpt lat="44.2279215" lon="11.469328"><ele>465.0</ele><time>2026-05-02T13:31:59.86Z</time></trkpt><trkpt lat="44.2278493" lon="11.4692962"><ele>465.0</ele><time>2026-05-02T13:32:00.861Z</time></trkpt><trkpt lat="44.2277704" lon="11.4692612"><ele>465.0</ele><time>2026-05-02T13:32:01.86Z</time></trkpt><trkpt lat="44.2276677" lon="11.4692156"><ele>465.0</ele><time>2026-05-02T13:32:02.86Z</time></trkpt><trkpt lat="44.2275499" lon="11.4691529"><ele>465.0</ele><time>2026-05-02T13:32:03.86Z</time></trkpt><trkpt lat="44.2274231" lon="11.469072"><ele>464.25</ele><time>2026-05-02T13:32:04.861Z</time></trkpt><trkpt lat="44.2272869" lon="11.4689785"><ele>463.5</ele><time>2026-05-02T13:32:05.86Z</time></trkpt><trkpt lat="44.2271571" lon="11.4688775"><ele>462.75</ele><time>2026-05-02T13:32:06.86Z</time></trkpt><trkpt lat="44.2270357" lon="11.4687625"><ele>462.0</ele><time>2026-05-02T13:32:07.86Z</time></trkpt><trkpt lat="44.2269155" lon="11.4686262"><ele>466.0</ele><time>2026-05-02T13:32:08.86Z</time></trkpt><trkpt lat="44.2267938" lon="11.4684625"><ele>470.0</ele><time>2026-05-02T13:32:09.861Z</time></trkpt><trkpt lat="44.2266686" lon="11.4682758"><ele>474.0</ele><time>2026-05-02T13:32:10.86Z</time></trkpt><trkpt lat="44.226535" lon="11.46805"><ele>474.33333333333337</ele><time>2026-05-02T13:32:11.86Z</time></trkpt><trkpt lat="44.226405" lon="11.4678533"><ele>474.6666666666667</ele><time>2026-05-02T13:32:12.861Z</time></trkpt><trkpt lat="44.22628" lon="11.4676617"><ele>475.0</ele><time>2026-05-02T13:32:13.86Z</time></trkpt><trkpt lat="44.22616" lon="11.4674833"><ele>475.0</ele><time>2026-05-02T13:32:14.861Z</time></trkpt><trkpt lat="44.2260467" lon="11.46732"><ele>475.0</ele><time>2026-05-02T13:32:15.86Z</time></trkpt><trkpt lat="44.225935" lon="11.46717"><ele>475.0</ele><time>2026-05-02T13:32:16.861Z</time></trkpt><trkpt lat="44.2258317" lon="11.46703"><ele>476.33333333333337</ele><time>2026-05-02T13:32:17.86Z</time></trkpt><trkpt lat="44.2257067" lon="11.4668967"><ele>477.66666666666663</ele><time>2026-05-02T13:32:18.86Z</time></trkpt><trkpt lat="44.2255667" lon="11.4667783"><ele>479.0</ele><time>2026-05-02T13:32:19.86Z</time></trkpt><trkpt lat="44.2254117" lon="11.466675"><ele>480.66666666666663</ele><time>2026-05-02T13:32:20.861Z</time></trkpt><trkpt lat="44.22524" lon="11.46659"><ele>482.33333333333337</ele><time>2026-05-02T13:32:21.86Z</time></trkpt><trkpt lat="44.22507" lon="11.46652"><ele>484.0</ele><time>2026-05-02T13:32:22.86Z</time></trkpt><trkpt lat="44.2249083" lon="11.4664733"><ele>484.6666666666667</ele><time>2026-05-02T13:32:23.861Z</time></trkpt><trkpt lat="44.2247567" lon="11.4664417"><ele>485.33333333333337</ele><time>2026-05-02T13:32:24.86Z</time></trkpt><trkpt lat="44.2246067" lon="11.466405"><ele>486.0</ele><time>2026-05-02T13:32:25.86Z</time></trkpt><trkpt lat="44.2244583" lon="11.4663383"><ele>488.0</ele><time>2026-05-02T13:32:26.861Z</time></trkpt><trkpt lat="44.2243333" lon="11.466245"><ele>490.0</ele><time>2026-05-02T13:32:27.861Z</time></trkpt><trkpt lat="44.224225" lon="11.4661433"><ele>492.0</ele><time>2026-05-02T13:32:28.861Z</time></trkpt><trkpt lat="44.2241183" lon="11.46604"><ele>494.0</ele><time>2026-05-02T13:32:29.86Z</time></trkpt><trkpt lat="44.2240267" lon="11.4659417"><ele>496.2</ele><time>2026-05-02T13:32:30.86Z</time></trkpt><trkpt lat="44.2239583" lon="11.4658683"><ele>498.4</ele><time>2026-05-02T13:32:31.861Z</time></trkpt><trkpt lat="44.2238783" lon="11.46579"><ele>500.6</ele><time>2026-05-02T13:32:33.86Z</time></trkpt><trkpt lat="44.2238033" lon="11.46584"><ele>502.8</ele><time>2026-05-02T13:32:35.86Z</time></trkpt><trkpt lat="44.2237417" lon="11.465975"><ele>505.0</ele><time>2026-05-02T13:32:37.861Z</time></trkpt><trkpt lat="44.2236833" lon="11.4660317"><ele>505.0</ele><time>2026-05-02T13:32:38.86Z</time></trkpt><trkpt lat="44.2236017" lon="11.466055"><ele>505.0</ele><time>2026-05-02T13:32:39.86Z</time></trkpt><trkpt lat="44.223515" lon="11.4660533"><ele>505.0</ele><time>2026-05-02T13:32:40.861Z</time></trkpt><trkpt lat="44.223425" lon="11.4660483"><ele>505.0</ele><time>2026-05-02T13:32:41.861Z</time></trkpt><trkpt lat="44.22332" lon="11.466045"><ele>505.0</ele><time>2026-05-02T13:32:42.86Z</time></trkpt><trkpt lat="44.223195" lon="11.46604"><ele>506.5</ele><time>2026-05-02T13:32:43.86Z</time></trkpt><trkpt lat="44.2230783" lon="11.4660317"><ele>508.0</ele><time>2026-05-02T13:32:44.861Z</time></trkpt><trkpt lat="44.2229617" lon="11.4660233"><ele>509.5</ele><time>2026-05-02T13:32:45.86Z</time></trkpt><trkpt lat="44.222845" lon="11.4660167"><ele>511.0</ele><time>2026-05-02T13:32:46.86Z</time></trkpt><trkpt lat="44.2227333" lon="11.4660133"><ele>511.0</ele><time>2026-05-02T13:32:47.861Z</time></trkpt><trkpt lat="44.222615" lon="11.4660233"><ele>511.0</ele><time>2026-05-02T13:32:48.86Z</time></trkpt><trkpt lat="44.2224933" lon="11.46606"><ele>511.0</ele><time>2026-05-02T13:32:49.861Z</time></trkpt><trkpt lat="44.222355" lon="11.466115"><ele>511.0</ele><time>2026-05-02T13:32:50.86Z</time></trkpt><trkpt lat="44.2222233" lon="11.46617"><ele>512.4</ele><time>2026-05-02T13:32:51.86Z</time></trkpt><trkpt lat="44.2221067" lon="11.4662133"><ele>513.8</ele><time>2026-05-02T13:32:52.86Z</time></trkpt><trkpt lat="44.222005" lon="11.4662617"><ele>515.1999999999999</ele><time>2026-05-02T13:32:53.86Z</time></trkpt><trkpt lat="44.2219233" lon="11.466295"><ele>516.6</ele><time>2026-05-02T13:32:54.86Z</time></trkpt><trkpt lat="44.2218583" lon="11.46632"><ele>518.0</ele><time>2026-05-02T13:32:55.86Z</time></trkpt><trkpt lat="44.2217917" lon="11.4663783"><ele>518.0</ele><time>2026-05-02T13:32:57.861Z</time></trkpt><trkpt lat="44.22176" lon="11.4664767"><ele>518.0</ele><time>2026-05-02T13:32:59.861Z</time></trkpt><trkpt lat="44.2217333" lon="11.466615"><ele>518.0</ele><time>2026-05-02T13:33:01.86Z</time></trkpt><trkpt lat="44.221695" lon="11.4667733"><ele>518.0</ele><time>2026-05-02T13:33:03.861Z</time></trkpt><trkpt lat="44.2216817" lon="11.46691"><ele>518.0</ele><time>2026-05-02T13:33:05.86Z</time></trkpt><trkpt lat="44.2216667" lon="11.4670217"><ele>518.0</ele><time>2026-05-02T13:33:07.86Z</time></trkpt><trkpt lat="44.2216333" lon="11.4670983"><ele>518.0</ele><time>2026-05-02T13:33:11.86Z</time></trkpt><trkpt lat="44.2215417" lon="11.4670883"><ele>518.0</ele><time>2026-05-02T13:33:34.859Z</time></trkpt><trkpt lat="44.2214583" lon="11.4670167"><ele>518.0</ele><time>2026-05-02T13:33:36.86Z</time></trkpt><trkpt lat="44.2213617" lon="11.466935"><ele>518.0</ele><time>2026-05-02T13:33:38.859Z</time></trkpt><trkpt lat="44.2212567" lon="11.466875"><ele>516.6</ele><time>2026-05-02T13:33:40.86Z</time></trkpt><trkpt lat="44.2211467" lon="11.466815"><ele>515.1999999999999</ele><time>2026-05-02T13:33:42.86Z</time></trkpt><trkpt lat="44.2210617" lon="11.4667867"><ele>513.8</ele><time>2026-05-02T13:33:44.859Z</time></trkpt><trkpt lat="44.220995" lon="11.4667767"><ele>512.4</ele><time>2026-05-02T13:33:46.859Z</time></trkpt><trkpt lat="44.220905" lon="11.4667733"><ele>511.0</ele><time>2026-05-02T13:33:50.859Z</time></trkpt><trkpt lat="44.2208083" lon="11.466785"><ele>511.0</ele><time>2026-05-02T13:33:53.859Z</time></trkpt><trkpt lat="44.2206983" lon="11.4668017"><ele>511.0</ele><time>2026-05-02T13:33:55.859Z</time></trkpt><trkpt lat="44.2205833" lon="11.4668017"><ele>511.0</ele><time>2026-05-02T13:33:57.859Z</time></trkpt><trkpt lat="44.220465" lon="11.466765"><ele>511.0</ele><time>2026-05-02T13:33:59.859Z</time></trkpt><trkpt lat="44.220405" lon="11.4667383"><ele>511.0</ele><time>2026-05-02T13:34:00.859Z</time></trkpt><trkpt lat="44.2202883" lon="11.4666967"><ele>515.0</ele><time>2026-05-02T13:34:02.859Z</time></trkpt><trkpt lat="44.2201833" lon="11.4667233"><ele>519.0</ele><time>2026-05-02T13:34:04.86Z</time></trkpt><trkpt lat="44.2201067" lon="11.4668333"><ele>523.0</ele><time>2026-05-02T13:34:06.859Z</time></trkpt><trkpt lat="44.2200233" lon="11.46697"><ele>527.0</ele><time>2026-05-02T13:34:08.86Z</time></trkpt><trkpt lat="44.2199783" lon="11.4670317"><ele>531.0</ele><time>2026-05-02T13:34:09.859Z</time></trkpt><trkpt lat="44.2199383" lon="11.467105"><ele>526.5</ele><time>2026-05-02T13:34:10.859Z</time></trkpt><trkpt lat="44.2198783" lon="11.4671767"><ele>522.0</ele><time>2026-05-02T13:34:11.859Z</time></trkpt><trkpt lat="44.219815" lon="11.4672517"><ele>517.5</ele><time>2026-05-02T13:34:12.859Z</time></trkpt><trkpt lat="44.219755" lon="11.4673233"><ele>513.0</ele><time>2026-05-02T13:34:13.859Z</time></trkpt><trkpt lat="44.2196983" lon="11.4673917"><ele>508.5</ele><time>2026-05-02T13:34:14.86Z</time></trkpt><trkpt lat="44.2196" lon="11.467475"><ele>504.0</ele><time>2026-05-02T13:34:16.859Z</time></trkpt><trkpt lat="44.2195017" lon="11.4674667"><ele>502.8333333333333</ele><time>2026-05-02T13:34:18.86Z</time></trkpt><trkpt lat="44.2194117" lon="11.4673433"><ele>501.66666666666663</ele><time>2026-05-02T13:34:20.859Z</time></trkpt><trkpt lat="44.2193733" lon="11.467255"><ele>500.5</ele><time>2026-05-02T13:34:21.86Z</time></trkpt><trkpt lat="44.2193467" lon="11.4671533"><ele>499.3333333333333</ele><time>2026-05-02T13:34:22.86Z</time></trkpt><trkpt lat="44.2193233" lon="11.4670633"><ele>498.16666666666663</ele><time>2026-05-02T13:34:23.859Z</time></trkpt><trkpt lat="44.21929" lon="11.4669783"><ele>497.0</ele><time>2026-05-02T13:34:24.859Z</time></trkpt><trkpt lat="44.21925" lon="11.466905"><ele>497.20000000000005</ele><time>2026-05-02T13:34:25.859Z</time></trkpt><trkpt lat="44.2191967" lon="11.46683"><ele>497.40000000000003</ele><time>2026-05-02T13:34:26.859Z</time></trkpt><trkpt lat="44.21914" lon="11.4667633"><ele>497.59999999999997</ele><time>2026-05-02T13:34:27.859Z</time></trkpt><trkpt lat="44.219085" lon="11.46661"><ele>497.79999999999995</ele><time>2026-05-02T13:34:29.859Z</time></trkpt><trkpt lat="44.2190517" lon="11.4665333"><ele>498.0</ele><time>2026-05-02T13:34:30.859Z</time></trkpt><trkpt lat="44.21896" lon="11.466425"><ele>498.0</ele><time>2026-05-02T13:34:32.859Z</time></trkpt><trkpt lat="44.2188667" lon="11.4663467"><ele>497.99999999999994</ele><time>2026-05-02T13:34:34.859Z</time></trkpt><trkpt lat="44.2188217" lon="11.4662217"><ele>497.99999999999994</ele><time>2026-05-02T13:34:36.86Z</time></trkpt><trkpt lat="44.218785" lon="11.4660783"><ele>498.0</ele><time>2026-05-02T13:34:38.859Z</time></trkpt><trkpt lat="44.2187317" lon="11.4659483"><ele>498.0</ele><time>2026-05-02T13:34:40.859Z</time></trkpt><trkpt lat="44.2186467" lon="11.4658383"><ele>503.3333333333333</ele><time>2026-05-02T13:34:42.859Z</time></trkpt><trkpt lat="44.21859" lon="11.4657883"><ele>508.66666666666663</ele><time>2026-05-02T13:34:43.859Z</time></trkpt><trkpt lat="44.2184633" lon="11.4657517"><ele>514.0</ele><time>2026-05-02T13:34:45.859Z</time></trkpt><trkpt lat="44.218395" lon="11.465765"><ele>519.3333333333333</ele><time>2026-05-02T13:34:46.859Z</time></trkpt><trkpt lat="44.2183317" lon="11.4657733"><ele>524.6666666666666</ele><time>2026-05-02T13:34:47.859Z</time></trkpt><trkpt lat="44.21826" lon="11.4657833"><ele>530.0</ele><time>2026-05-02T13:34:48.859Z</time></trkpt><trkpt lat="44.2181617" lon="11.465795"><ele>536.6</ele><time>2026-05-02T13:34:50.86Z</time></trkpt><trkpt lat="44.2180717" lon="11.4658533"><ele>543.2</ele><time>2026-05-02T13:34:52.859Z</time></trkpt><trkpt lat="44.217995" lon="11.46596"><ele>549.8</ele><time>2026-05-02T13:34:54.859Z</time></trkpt><trkpt lat="44.2179317" lon="11.4660533"><ele>556.4</ele><time>2026-05-02T13:34:56.859Z</time></trkpt><trkpt lat="44.217845" lon="11.4661517"><ele>563.0</ele><time>2026-05-02T13:34:58.859Z</time></trkpt><trkpt lat="44.21778" lon="11.466205"><ele>563.0</ele><time>2026-05-02T13:34:59.859Z</time></trkpt><trkpt lat="44.2177133" lon="11.4662483"><ele>563.0</ele><time>2026-05-02T13:35:00.859Z</time></trkpt><trkpt lat="44.2176483" lon="11.4662783"><ele>563.0</ele><time>2026-05-02T13:35:01.86Z</time></trkpt><trkpt lat="44.2175483" lon="11.466355"><ele>563.0</ele><time>2026-05-02T13:35:03.859Z</time></trkpt><trkpt lat="44.2174917" lon="11.466495"><ele>563.0</ele><time>2026-05-02T13:35:05.86Z</time></trkpt><trkpt lat="44.21748" lon="11.4665833"><ele>563.0</ele><time>2026-05-02T13:35:06.859Z</time></trkpt><trkpt lat="44.217465" lon="11.4667383"><ele>565.0</ele><time>2026-05-02T13:35:08.859Z</time></trkpt><trkpt lat="44.2173983" lon="11.46685"><ele>567.0</ele><time>2026-05-02T13:35:10.86Z</time></trkpt><trkpt lat="44.21731" lon="11.4668583"><ele>569.0</ele><time>2026-05-02T13:35:13.859Z</time></trkpt><trkpt lat="44.217235" lon="11.4668317"><ele>571.0</ele><time>2026-05-02T13:35:15.859Z</time></trkpt><trkpt lat="44.21714" lon="11.4668667"><ele>573.0</ele><time>2026-05-02T13:35:17.86Z</time></trkpt><trkpt lat="44.21705" lon="11.4669767"><ele>566.25</ele><time>2026-05-02T13:35:19.86Z</time></trkpt><trkpt lat="44.2169983" lon="11.4671367"><ele>559.5</ele><time>2026-05-02T13:35:21.859Z</time></trkpt><trkpt lat="44.21696" lon="11.4672833"><ele>552.75</ele><time>2026-05-02T13:35:23.86Z</time></trkpt><trkpt lat="44.2168933" lon="11.46736"><ele>546.0</ele><time>2026-05-02T13:35:25.859Z</time></trkpt><trkpt lat="44.2167833" lon="11.4674667"><ele>546.0</ele><time>2026-05-02T13:35:27.859Z</time></trkpt><trkpt lat="44.2166883" lon="11.4675117"><ele>546.0</ele><time>2026-05-02T13:35:28.86Z</time></trkpt><trkpt lat="44.2165883" lon="11.4675667"><ele>546.0</ele><time>2026-05-02T13:35:29.86Z</time></trkpt><trkpt lat="44.216495" lon="11.4676283"><ele>546.0</ele><time>2026-05-02T13:35:30.859Z</time></trkpt><trkpt lat="44.2164217" lon="11.4676583"><ele>546.0</ele><time>2026-05-02T13:35:31.859Z</time></trkpt><trkpt lat="44.2163583" lon="11.46768"><ele>547.6</ele><time>2026-05-02T13:35:32.859Z</time></trkpt><trkpt lat="44.2162933" lon="11.4676533"><ele>549.2</ele><time>2026-05-02T13:35:34.859Z</time></trkpt><trkpt lat="44.2162633" lon="11.4675583"><ele>550.8</ele><time>2026-05-02T13:35:36.859Z</time></trkpt><trkpt lat="44.2162617" lon="11.4674083"><ele>552.4</ele><time>2026-05-02T13:35:38.859Z</time></trkpt><trkpt lat="44.216265" lon="11.467255"><ele>554.0</ele><time>2026-05-02T13:35:40.859Z</time></trkpt><trkpt lat="44.216255" lon="11.46709"><ele>554.0</ele><time>2026-05-02T13:35:42.86Z</time></trkpt><trkpt lat="44.216245" lon="11.4669233"><ele>554.0</ele><time>2026-05-02T13:35:44.859Z</time></trkpt><trkpt lat="44.216205" lon="11.4667767"><ele>554.0</ele><time>2026-05-02T13:35:46.859Z</time></trkpt><trkpt lat="44.2161333" lon="11.4666583"><ele>554.0</ele><time>2026-05-02T13:35:48.859Z</time></trkpt><trkpt lat="44.2160683" lon="11.4665567"><ele>554.0</ele><time>2026-05-02T13:35:50.859Z</time></trkpt><trkpt lat="44.2160617" lon="11.4664333"><ele>554.0</ele><time>2026-05-02T13:35:52.86Z</time></trkpt><trkpt lat="44.2161083" lon="11.4663017"><ele>554.0</ele><time>2026-05-02T13:35:54.859Z</time></trkpt><trkpt lat="44.2161483" lon="11.4661717"><ele>554.0</ele><time>2026-05-02T13:35:56.859Z</time></trkpt><trkpt lat="44.21616" lon="11.46602"><ele>554.0</ele><time>2026-05-02T13:35:58.86Z</time></trkpt><trkpt lat="44.2161383" lon="11.4658683"><ele>554.0</ele><time>2026-05-02T13:36:00.86Z</time></trkpt><trkpt lat="44.2160883" lon="11.4657417"><ele>558.6</ele><time>2026-05-02T13:36:02.859Z</time></trkpt><trkpt lat="44.2159867" lon="11.4656367"><ele>563.2</ele><time>2026-05-02T13:36:04.859Z</time></trkpt><trkpt lat="44.2159167" lon="11.465595"><ele>567.8000000000001</ele><time>2026-05-02T13:36:05.859Z</time></trkpt><trkpt lat="44.215845" lon="11.4655483"><ele>572.4</ele><time>2026-05-02T13:36:06.859Z</time></trkpt><trkpt lat="44.2157667" lon="11.4654917"><ele>577.0</ele><time>2026-05-02T13:36:07.859Z</time></trkpt><trkpt lat="44.215685" lon="11.4654317"><ele>573.4</ele><time>2026-05-02T13:36:08.859Z</time></trkpt><trkpt lat="44.2156067" lon="11.4653783"><ele>569.8000000000001</ele><time>2026-05-02T13:36:09.859Z</time></trkpt><trkpt lat="44.2155433" lon="11.465335"><ele>566.2</ele><time>2026-05-02T13:36:10.859Z</time></trkpt><trkpt lat="44.2154433" lon="11.4652633"><ele>562.6</ele><time>2026-05-02T13:36:12.86Z</time></trkpt><trkpt lat="44.2153917" lon="11.46515"><ele>559.0</ele><time>2026-05-02T13:36:14.859Z</time></trkpt><trkpt lat="44.2153883" lon="11.465015"><ele>559.0</ele><time>2026-05-02T13:36:16.859Z</time></trkpt><trkpt lat="44.2154183" lon="11.4649183"><ele>559.0</ele><time>2026-05-02T13:36:18.859Z</time></trkpt><trkpt lat="44.2154467" lon="11.4648283"><ele>559.0</ele><time>2026-05-02T13:36:20.859Z</time></trkpt><trkpt lat="44.2154733" lon="11.4647067"><ele>559.0</ele><time>2026-05-02T13:36:22.86Z</time></trkpt><trkpt lat="44.21546" lon="11.4645867"><ele>559.0</ele><time>2026-05-02T13:36:24.86Z</time></trkpt><trkpt lat="44.2153967" lon="11.4644467"><ele>559.0</ele><time>2026-05-02T13:36:26.859Z</time></trkpt><trkpt lat="44.2153433" lon="11.4643883"><ele>567.4</ele><time>2026-05-02T13:36:27.859Z</time></trkpt><trkpt lat="44.2152617" lon="11.464275"><ele>575.8</ele><time>2026-05-02T13:36:29.859Z</time></trkpt><trkpt lat="44.2151467" lon="11.4641767"><ele>584.2</ele><time>2026-05-02T13:36:31.86Z</time></trkpt><trkpt lat="44.2150833" lon="11.4641317"><ele>592.6</ele><time>2026-05-02T13:36:32.859Z</time></trkpt><trkpt lat="44.2150133" lon="11.4640917"><ele>601.0</ele><time>2026-05-02T13:36:33.859Z</time></trkpt><trkpt lat="44.2149417" lon="11.4640517"><ele>601.0</ele><time>2026-05-02T13:36:34.86Z</time></trkpt><trkpt lat="44.2148683" lon="11.4640233"><ele>601.0</ele><time>2026-05-02T13:36:35.859Z</time></trkpt><trkpt lat="44.2147933" lon="11.4640067"><ele>601.0</ele><time>2026-05-02T13:36:36.859Z</time></trkpt><trkpt lat="44.2147267" lon="11.463985"><ele>601.0</ele><time>2026-05-02T13:36:37.859Z</time></trkpt><trkpt lat="44.2146133" lon="11.463955"><ele>601.0</ele><time>2026-05-02T13:36:39.86Z</time></trkpt><trkpt lat="44.2145217" lon="11.46398"><ele>601.0</ele><time>2026-05-02T13:36:41.86Z</time></trkpt><trkpt lat="44.2144317" lon="11.46406"><ele>602.2</ele><time>2026-05-02T13:36:43.859Z</time></trkpt><trkpt lat="44.21432" lon="11.46408"><ele>603.4000000000001</ele><time>2026-05-02T13:36:45.86Z</time></trkpt><trkpt lat="44.2142383" lon="11.4639617"><ele>604.6</ele><time>2026-05-02T13:36:47.86Z</time></trkpt><trkpt lat="44.2142067" lon="11.4638733"><ele>605.8000000000001</ele><time>2026-05-02T13:36:48.859Z</time></trkpt><trkpt lat="44.214185" lon="11.46378"><ele>607.0</ele><time>2026-05-02T13:36:49.859Z</time></trkpt><trkpt lat="44.2141733" lon="11.4636717"><ele>607.0</ele><time>2026-05-02T13:36:50.859Z</time></trkpt><trkpt lat="44.214155" lon="11.4635767"><ele>607.0</ele><time>2026-05-02T13:36:51.859Z</time></trkpt><trkpt lat="44.21412" lon="11.46349"><ele>607.0</ele><time>2026-05-02T13:36:52.859Z</time></trkpt><trkpt lat="44.2140233" lon="11.4633633"><ele>607.0</ele><time>2026-05-02T13:36:54.859Z</time></trkpt><trkpt lat="44.2139683" lon="11.4633117"><ele>607.0</ele><time>2026-05-02T13:36:55.859Z</time></trkpt><trkpt lat="44.2139167" lon="11.46325"><ele>607.0</ele><time>2026-05-02T13:36:56.86Z</time></trkpt><trkpt lat="44.21388" lon="11.4631783"><ele>608.2</ele><time>2026-05-02T13:36:57.859Z</time></trkpt><trkpt lat="44.2138467" lon="11.463095"><ele>609.4000000000001</ele><time>2026-05-02T13:36:58.859Z</time></trkpt><trkpt lat="44.2137883" lon="11.4629567"><ele>610.5999999999999</ele><time>2026-05-02T13:37:00.859Z</time></trkpt><trkpt lat="44.2137067" lon="11.46284"><ele>611.8</ele><time>2026-05-02T13:37:02.86Z</time></trkpt><trkpt lat="44.2136483" lon="11.4627983"><ele>613.0</ele><time>2026-05-02T13:37:03.86Z</time></trkpt><trkpt lat="44.213525" lon="11.4627183"><ele>613.0</ele><time>2026-05-02T13:37:05.859Z</time></trkpt><trkpt lat="44.2134517" lon="11.4626683"><ele>613.0</ele><time>2026-05-02T13:37:06.86Z</time></trkpt><trkpt lat="44.213375" lon="11.4626167"><ele>613.0</ele><time>2026-05-02T13:37:07.86Z</time></trkpt><trkpt lat="44.2133" lon="11.462565"><ele>613.0</ele><time>2026-05-02T13:37:08.859Z</time></trkpt><trkpt lat="44.2132283" lon="11.462515"><ele>613.0</ele><time>2026-05-02T13:37:09.859Z</time></trkpt><trkpt lat="44.2131683" lon="11.462475"><ele>613.0</ele><time>2026-05-02T13:37:10.86Z</time></trkpt><trkpt lat="44.2130767" lon="11.4624217"><ele>609.6666666666667</ele><time>2026-05-02T13:37:12.859Z</time></trkpt><trkpt lat="44.2130083" lon="11.4624467"><ele>606.3333333333334</ele><time>2026-05-02T13:37:14.859Z</time></trkpt><trkpt lat="44.21293" lon="11.462475"><ele>603.0</ele><time>2026-05-02T13:37:16.859Z</time></trkpt><trkpt lat="44.212835" lon="11.4624633"><ele>599.6666666666666</ele><time>2026-05-02T13:37:18.86Z</time></trkpt><trkpt lat="44.2127333" lon="11.4624183"><ele>596.3333333333333</ele><time>2026-05-02T13:37:20.859Z</time></trkpt><trkpt lat="44.2126717" lon="11.4623867"><ele>593.0</ele><time>2026-05-02T13:37:21.859Z</time></trkpt><trkpt lat="44.2126133" lon="11.4623483"><ele>593.0</ele><time>2026-05-02T13:37:22.859Z</time></trkpt><trkpt lat="44.2125033" lon="11.46227"><ele>593.0</ele><time>2026-05-02T13:37:24.859Z</time></trkpt><trkpt lat="44.2123967" lon="11.4622183"><ele>593.0</ele><time>2026-05-02T13:37:26.859Z</time></trkpt><trkpt lat="44.2122883" lon="11.4622467"><ele>593.0</ele><time>2026-05-02T13:37:28.859Z</time></trkpt><trkpt lat="44.212185" lon="11.4622683"><ele>592.4</ele><time>2026-05-02T13:37:30.86Z</time></trkpt><trkpt lat="44.2121217" lon="11.4622583"><ele>591.8</ele><time>2026-05-02T13:37:31.86Z</time></trkpt><trkpt lat="44.2120067" lon="11.4621917"><ele>591.2</ele><time>2026-05-02T13:37:33.86Z</time></trkpt><trkpt lat="44.2119433" lon="11.4621567"><ele>590.6</ele><time>2026-05-02T13:37:34.859Z</time></trkpt><trkpt lat="44.2118367" lon="11.462085"><ele>590.0</ele><time>2026-05-02T13:37:36.86Z</time></trkpt><trkpt lat="44.2117667" lon="11.4620317"><ele>595.5</ele><time>2026-05-02T13:37:38.86Z</time></trkpt><trkpt lat="44.21169" lon="11.462015"><ele>601.0</ele><time>2026-05-02T13:37:40.86Z</time></trkpt><trkpt lat="44.2116267" lon="11.4620267"><ele>606.5</ele><time>2026-05-02T13:37:42.859Z</time></trkpt><trkpt lat="44.211565" lon="11.462075"><ele>612.0</ele><time>2026-05-02T13:37:45.859Z</time></trkpt><trkpt lat="44.21149" lon="11.462155"><ele>617.5</ele><time>2026-05-02T13:37:52.86Z</time></trkpt><trkpt lat="44.21143" lon="11.46227"><ele>623.0</ele><time>2026-05-02T13:37:55.86Z</time></trkpt><trkpt lat="44.2113683" lon="11.4623867"><ele>627.2</ele><time>2026-05-02T13:37:57.859Z</time></trkpt><trkpt lat="44.2112967" lon="11.4625167"><ele>631.4</ele><time>2026-05-02T13:37:59.86Z</time></trkpt><trkpt lat="44.2112067" lon="11.462625"><ele>635.6</ele><time>2026-05-02T13:38:01.86Z</time></trkpt><trkpt lat="44.2111483" lon="11.4627033"><ele>639.8000000000001</ele><time>2026-05-02T13:38:02.86Z</time></trkpt><trkpt lat="44.211085" lon="11.462785"><ele>644.0</ele><time>2026-05-02T13:38:03.859Z</time></trkpt><trkpt lat="44.2110183" lon="11.4628667"><ele>638.6666666666666</ele><time>2026-05-02T13:38:04.86Z</time></trkpt><trkpt lat="44.2109667" lon="11.4629517"><ele>633.3333333333333</ele><time>2026-05-02T13:38:05.859Z</time></trkpt><trkpt lat="44.2109283" lon="11.463025"><ele>628.0</ele><time>2026-05-02T13:38:06.86Z</time></trkpt><trkpt lat="44.2108867" lon="11.463185"><ele>622.6666666666666</ele><time>2026-05-02T13:38:08.859Z</time></trkpt><trkpt lat="44.2108667" lon="11.4633267"><ele>617.3333333333334</ele><time>2026-05-02T13:38:10.86Z</time></trkpt><trkpt lat="44.2108117" lon="11.4633733"><ele>612.0</ele><time>2026-05-02T13:38:12.859Z</time></trkpt><trkpt lat="44.2107367" lon="11.4633317"><ele>610.6</ele><time>2026-05-02T13:38:14.86Z</time></trkpt><trkpt lat="44.2106417" lon="11.4632633"><ele>609.2</ele><time>2026-05-02T13:38:16.859Z</time></trkpt><trkpt lat="44.2105517" lon="11.46321"><ele>607.8</ele><time>2026-05-02T13:38:18.859Z</time></trkpt><trkpt lat="44.210465" lon="11.4632117"><ele>606.4</ele><time>2026-05-02T13:38:20.86Z</time></trkpt><trkpt lat="44.21039" lon="11.463265"><ele>605.0</ele><time>2026-05-02T13:38:22.86Z</time></trkpt><trkpt lat="44.2102983" lon="11.4633067"><ele>605.0</ele><time>2026-05-02T13:38:24.859Z</time></trkpt><trkpt lat="44.2102283" lon="11.4632883"><ele>605.0</ele><time>2026-05-02T13:38:26.859Z</time></trkpt><trkpt lat="44.210155" lon="11.4632083"><ele>605.0</ele><time>2026-05-02T13:38:28.859Z</time></trkpt><trkpt lat="44.2101117" lon="11.4630767"><ele>605.0</ele><time>2026-05-02T13:38:30.859Z</time></trkpt><trkpt lat="44.2100883" lon="11.4629383"><ele>605.0</ele><time>2026-05-02T13:38:32.86Z</time></trkpt><trkpt lat="44.210065" lon="11.4628"><ele>612.8</ele><time>2026-05-02T13:38:34.859Z</time></trkpt><trkpt lat="44.2099967" lon="11.4627117"><ele>620.6</ele><time>2026-05-02T13:38:36.859Z</time></trkpt><trkpt lat="44.2098767" lon="11.4626717"><ele>628.4000000000001</ele><time>2026-05-02T13:38:38.86Z</time></trkpt><trkpt lat="44.2098" lon="11.462685"><ele>636.2</ele><time>2026-05-02T13:38:39.859Z</time></trkpt><trkpt lat="44.2097217" lon="11.4627017"><ele>644.0</ele><time>2026-05-02T13:38:40.859Z</time></trkpt><trkpt lat="44.2096383" lon="11.4627083"><ele>644.0</ele><time>2026-05-02T13:38:41.859Z</time></trkpt><trkpt lat="44.2095633" lon="11.46272"><ele>644.0</ele><time>2026-05-02T13:38:42.859Z</time></trkpt><trkpt lat="44.2094983" lon="11.4627267"><ele>644.0</ele><time>2026-05-02T13:38:43.859Z</time></trkpt><trkpt lat="44.20943" lon="11.46274"><ele>644.0</ele><time>2026-05-02T13:38:44.859Z</time></trkpt><trkpt lat="44.2093133" lon="11.4627167"><ele>644.0</ele><time>2026-05-02T13:38:46.859Z</time></trkpt><trkpt lat="44.2091983" lon="11.46264"><ele>644.0</ele><time>2026-05-02T13:38:48.859Z</time></trkpt><trkpt lat="44.2091367" lon="11.4625833"><ele>644.0</ele><time>2026-05-02T13:38:49.859Z</time></trkpt><trkpt lat="44.2090833" lon="11.4625283"><ele>644.0</ele><time>2026-05-02T13:38:50.86Z</time></trkpt><trkpt lat="44.2090167" lon="11.4623933"><ele>644.0</ele><time>2026-05-02T13:38:52.86Z</time></trkpt><trkpt lat="44.2090067" lon="11.46222"><ele>644.0</ele><time>2026-05-02T13:38:54.86Z</time></trkpt><trkpt lat="44.2090183" lon="11.4621267"><ele>648.8000000000001</ele><time>2026-05-02T13:38:55.859Z</time></trkpt><trkpt lat="44.20903" lon="11.4620367"><ele>653.6</ele><time>2026-05-02T13:38:56.86Z</time></trkpt><trkpt lat="44.2090333" lon="11.4619083"><ele>658.4</ele><time>2026-05-02T13:38:58.859Z</time></trkpt><trkpt lat="44.2089667" lon="11.4618"><ele>663.2</ele><time>2026-05-02T13:39:01.86Z</time></trkpt><trkpt lat="44.2088433" lon="11.46176"><ele>668.0</ele><time>2026-05-02T13:39:03.859Z</time></trkpt><trkpt lat="44.2087767" lon="11.461755"><ele>670.3333333333333</ele><time>2026-05-02T13:39:04.859Z</time></trkpt><trkpt lat="44.2087117" lon="11.4617567"><ele>672.6666666666666</ele><time>2026-05-02T13:39:05.859Z</time></trkpt><trkpt lat="44.2085983" lon="11.4618017"><ele>675.0</ele><time>2026-05-02T13:39:07.859Z</time></trkpt><trkpt lat="44.2085317" lon="11.4618217"><ele>677.3333333333334</ele><time>2026-05-02T13:39:08.859Z</time></trkpt><trkpt lat="44.20846" lon="11.4618483"><ele>679.6666666666667</ele><time>2026-05-02T13:39:09.859Z</time></trkpt><trkpt lat="44.208395" lon="11.46188"><ele>682.0</ele><time>2026-05-02T13:39:10.86Z</time></trkpt><trkpt lat="44.2083217" lon="11.4619083"><ele>682.0</ele><time>2026-05-02T13:39:11.859Z</time></trkpt><trkpt lat="44.2082467" lon="11.4619383"><ele>682.0</ele><time>2026-05-02T13:39:12.859Z</time></trkpt><trkpt lat="44.20818" lon="11.4619717"><ele>682.0</ele><time>2026-05-02T13:39:13.859Z</time></trkpt><trkpt lat="44.2081333" lon="11.4620333"><ele>682.0</ele><time>2026-05-02T13:39:14.86Z</time></trkpt><trkpt lat="44.2080367" lon="11.4621633"><ele>682.0</ele><time>2026-05-02T13:39:16.859Z</time></trkpt><trkpt lat="44.2080067" lon="11.46225"><ele>682.0</ele><time>2026-05-02T13:39:17.86Z</time></trkpt><trkpt lat="44.207965" lon="11.4623367"><ele>680.3333333333334</ele><time>2026-05-02T13:39:18.859Z</time></trkpt><trkpt lat="44.2079167" lon="11.4624267"><ele>678.6666666666667</ele><time>2026-05-02T13:39:19.859Z</time></trkpt><trkpt lat="44.2078667" lon="11.4625133"><ele>677.0</ele><time>2026-05-02T13:39:20.859Z</time></trkpt><trkpt lat="44.2078167" lon="11.4626117"><ele>675.3333333333334</ele><time>2026-05-02T13:39:21.86Z</time></trkpt><trkpt lat="44.20778" lon="11.46272"><ele>673.6666666666666</ele><time>2026-05-02T13:39:22.859Z</time></trkpt><trkpt lat="44.2077417" lon="11.4628283"><ele>672.0</ele><time>2026-05-02T13:39:23.859Z</time></trkpt><trkpt lat="44.2077317" lon="11.4629483"><ele>671.5</ele><time>2026-05-02T13:39:24.86Z</time></trkpt><trkpt lat="44.2077067" lon="11.463065"><ele>671.0</ele><time>2026-05-02T13:39:25.859Z</time></trkpt><trkpt lat="44.20767" lon="11.463195"><ele>670.5</ele><time>2026-05-02T13:39:27.86Z</time></trkpt><trkpt lat="44.20761" lon="11.46325"><ele>670.0</ele><time>2026-05-02T13:39:29.859Z</time></trkpt><trkpt lat="44.2075233" lon="11.4632667"><ele>669.5</ele><time>2026-05-02T13:39:31.86Z</time></trkpt><trkpt lat="44.2074733" lon="11.46319"><ele>669.0</ele><time>2026-05-02T13:39:33.859Z</time></trkpt><trkpt lat="44.2074417" lon="11.463075"><ele>669.0</ele><time>2026-05-02T13:39:35.86Z</time></trkpt><trkpt lat="44.2073983" lon="11.462955"><ele>669.0</ele><time>2026-05-02T13:39:37.86Z</time></trkpt><trkpt lat="44.207355" lon="11.4628317"><ele>669.0</ele><time>2026-05-02T13:39:39.859Z</time></trkpt><trkpt lat="44.20732" lon="11.4626833"><ele>669.0</ele><time>2026-05-02T13:39:41.86Z</time></trkpt><trkpt lat="44.2072867" lon="11.4625667"><ele>669.0</ele><time>2026-05-02T13:39:43.859Z</time></trkpt><trkpt lat="44.2072483" lon="11.4624583"><ele>664.0</ele><time>2026-05-02T13:39:45.859Z</time></trkpt><trkpt lat="44.2071983" lon="11.4623617"><ele>659.0</ele><time>2026-05-02T13:39:47.859Z</time></trkpt><trkpt lat="44.207135" lon="11.4622833"><ele>654.0</ele><time>2026-05-02T13:39:49.859Z</time></trkpt><trkpt lat="44.2070767" lon="11.4622017"><ele>649.0</ele><time>2026-05-02T13:39:51.859Z</time></trkpt><trkpt lat="44.2070383" lon="11.4621083"><ele>644.0</ele><time>2026-05-02T13:39:53.86Z</time></trkpt><trkpt lat="44.2070333" lon="11.4619983"><ele>639.0</ele><time>2026-05-02T13:39:55.86Z</time></trkpt><trkpt lat="44.2070467" lon="11.4618667"><ele>639.0</ele><time>2026-05-02T13:39:57.859Z</time></trkpt><trkpt lat="44.207065" lon="11.4617417"><ele>639.0</ele><time>2026-05-02T13:39:59.859Z</time></trkpt><trkpt lat="44.20706" lon="11.461625"><ele>639.0</ele><time>2026-05-02T13:40:01.859Z</time></trkpt><trkpt lat="44.2070417" lon="11.4615133"><ele>639.0</ele><time>2026-05-02T13:40:03.86Z</time></trkpt><trkpt lat="44.2070183" lon="11.4614067"><ele>639.0</ele><time>2026-05-02T13:40:05.86Z</time></trkpt><trkpt lat="44.2069833" lon="11.4613"><ele>639.0</ele><time>2026-05-02T13:40:07.859Z</time></trkpt><trkpt lat="44.2069767" lon="11.4611833"><ele>642.5</ele><time>2026-05-02T13:40:09.86Z</time></trkpt><trkpt lat="44.2069817" lon="11.4610717"><ele>646.0</ele><time>2026-05-02T13:40:11.859Z</time></trkpt><trkpt lat="44.2070117" lon="11.4609683"><ele>649.5</ele><time>2026-05-02T13:40:13.859Z</time></trkpt><trkpt lat="44.2070233" lon="11.460865"><ele>653.0</ele><time>2026-05-02T13:40:15.859Z</time></trkpt><trkpt lat="44.206995" lon="11.4607367"><ele>656.5</ele><time>2026-05-02T13:40:17.859Z</time></trkpt><trkpt lat="44.20693" lon="11.460605"><ele>660.0</ele><time>2026-05-02T13:40:19.859Z</time></trkpt><trkpt lat="44.206855" lon="11.4604717"><ele>665.5</ele><time>2026-05-02T13:40:21.859Z</time></trkpt><trkpt lat="44.206765" lon="11.460345"><ele>671.0</ele><time>2026-05-02T13:40:23.859Z</time></trkpt><trkpt lat="44.2066567" lon="11.4602867"><ele>676.5</ele><time>2026-05-02T13:40:25.859Z</time></trkpt><trkpt lat="44.206555" lon="11.4603117"><ele>682.0</ele><time>2026-05-02T13:40:27.859Z</time></trkpt><trkpt lat="44.2064733" lon="11.4604417"><ele>678.1666666666667</ele><time>2026-05-02T13:40:29.859Z</time></trkpt><trkpt lat="44.2064367" lon="11.4605267"><ele>674.3333333333334</ele><time>2026-05-02T13:40:30.859Z</time></trkpt><trkpt lat="44.2063883" lon="11.4606083"><ele>670.5</ele><time>2026-05-02T13:40:31.86Z</time></trkpt><trkpt lat="44.2063067" lon="11.4606767"><ele>666.6666666666666</ele><time>2026-05-02T13:40:32.859Z</time></trkpt><trkpt lat="44.206245" lon="11.4607383"><ele>662.8333333333333</ele><time>2026-05-02T13:40:33.86Z</time></trkpt><trkpt lat="44.206175" lon="11.460785"><ele>659.0</ele><time>2026-05-02T13:40:34.86Z</time></trkpt><trkpt lat="44.2060933" lon="11.4608083"><ele>659.0</ele><time>2026-05-02T13:40:35.859Z</time></trkpt><trkpt lat="44.20602" lon="11.4608083"><ele>659.0</ele><time>2026-05-02T13:40:36.859Z</time></trkpt><trkpt lat="44.2059583" lon="11.4607883"><ele>659.0</ele><time>2026-05-02T13:40:37.86Z</time></trkpt><trkpt lat="44.2058617" lon="11.46069"><ele>659.0</ele><time>2026-05-02T13:40:39.86Z</time></trkpt><trkpt lat="44.2058233" lon="11.46062"><ele>659.0</ele><time>2026-05-02T13:40:40.859Z</time></trkpt><trkpt lat="44.205785" lon="11.4605417"><ele>659.0</ele><time>2026-05-02T13:40:41.859Z</time></trkpt><trkpt lat="44.2057533" lon="11.46046"><ele>657.4000000000001</ele><time>2026-05-02T13:40:42.859Z</time></trkpt><trkpt lat="44.2056933" lon="11.4603167"><ele>655.8</ele><time>2026-05-02T13:40:44.86Z</time></trkpt><trkpt lat="44.2056067" lon="11.4601967"><ele>654.2</ele><time>2026-05-02T13:40:46.859Z</time></trkpt><trkpt lat="44.20555" lon="11.4601433"><ele>652.5999999999999</ele><time>2026-05-02T13:40:47.859Z</time></trkpt><trkpt lat="44.2054767" lon="11.4601017"><ele>651.0</ele><time>2026-05-02T13:40:48.859Z</time></trkpt><trkpt lat="44.2053983" lon="11.4600583"><ele>651.0</ele><time>2026-05-02T13:40:49.859Z</time></trkpt><trkpt lat="44.205325" lon="11.4600233"><ele>651.0</ele><time>2026-05-02T13:40:50.859Z</time></trkpt><trkpt lat="44.2052617" lon="11.4599833"><ele>651.0</ele><time>2026-05-02T13:40:51.86Z</time></trkpt><trkpt lat="44.2051717" lon="11.4599067"><ele>651.0</ele><time>2026-05-02T13:40:53.859Z</time></trkpt><trkpt lat="44.20512" lon="11.4598117"><ele>651.0</ele><time>2026-05-02T13:40:55.859Z</time></trkpt><trkpt lat="44.2051183" lon="11.459715"><ele>651.0</ele><time>2026-05-02T13:40:57.859Z</time></trkpt><trkpt lat="44.205145" lon="11.45961"><ele>652.5714285714286</ele><time>2026-05-02T13:40:59.859Z</time></trkpt><trkpt lat="44.2051717" lon="11.4595183"><ele>654.1428571428571</ele><time>2026-05-02T13:41:01.86Z</time></trkpt><trkpt lat="44.205215" lon="11.4594317"><ele>655.7142857142858</ele><time>2026-05-02T13:41:03.859Z</time></trkpt><trkpt lat="44.2052533" lon="11.459345"><ele>657.2857142857142</ele><time>2026-05-02T13:41:05.859Z</time></trkpt><trkpt lat="44.205255" lon="11.459255"><ele>658.8571428571429</ele><time>2026-05-02T13:41:07.859Z</time></trkpt><trkpt lat="44.2052233" lon="11.4591667"><ele>660.4285714285714</ele><time>2026-05-02T13:41:09.859Z</time></trkpt><trkpt lat="44.2051567" lon="11.459095"><ele>662.0</ele><time>2026-05-02T13:41:11.859Z</time></trkpt><trkpt lat="44.2050867" lon="11.4590933"><ele>662.0</ele><time>2026-05-02T13:41:13.86Z</time></trkpt><trkpt lat="44.2050033" lon="11.45916"><ele>662.0</ele><time>2026-05-02T13:41:15.859Z</time></trkpt><trkpt lat="44.2048867" lon="11.4592383"><ele>662.0</ele><time>2026-05-02T13:41:17.859Z</time></trkpt><trkpt lat="44.204815" lon="11.4592967"><ele>662.0</ele><time>2026-05-02T13:41:18.859Z</time></trkpt><trkpt lat="44.2047517" lon="11.459365"><ele>662.0</ele><time>2026-05-02T13:41:19.859Z</time></trkpt><trkpt lat="44.2046883" lon="11.459425"><ele>661.6</ele><time>2026-05-02T13:41:20.859Z</time></trkpt><trkpt lat="44.204635" lon="11.459485"><ele>661.2</ele><time>2026-05-02T13:41:21.859Z</time></trkpt><trkpt lat="44.2045367" lon="11.45956"><ele>660.8</ele><time>2026-05-02T13:41:23.859Z</time></trkpt><trkpt lat="44.2044717" lon="11.4596583"><ele>660.4</ele><time>2026-05-02T13:41:25.86Z</time></trkpt><trkpt lat="44.2044317" lon="11.4597933"><ele>660.0</ele><time>2026-05-02T13:41:27.859Z</time></trkpt><trkpt lat="44.2044283" lon="11.459935"><ele>657.4</ele><time>2026-05-02T13:41:29.859Z</time></trkpt><trkpt lat="44.2044633" lon="11.4600833"><ele>654.8</ele><time>2026-05-02T13:41:31.86Z</time></trkpt><trkpt lat="44.2044917" lon="11.460235"><ele>652.2</ele><time>2026-05-02T13:41:33.859Z</time></trkpt><trkpt lat="44.2045217" lon="11.4603733"><ele>649.6</ele><time>2026-05-02T13:41:35.86Z</time></trkpt><trkpt lat="44.2045317" lon="11.4605083"><ele>647.0</ele><time>2026-05-02T13:41:37.859Z</time></trkpt><trkpt lat="44.20454" lon="11.46064"><ele>645.4</ele><time>2026-05-02T13:41:39.859Z</time></trkpt><trkpt lat="44.204545" lon="11.4607933"><ele>643.8000000000001</ele><time>2026-05-02T13:41:41.859Z</time></trkpt><trkpt lat="44.2045467" lon="11.46094"><ele>642.2</ele><time>2026-05-02T13:41:43.859Z</time></trkpt><trkpt lat="44.2045317" lon="11.4610817"><ele>640.6</ele><time>2026-05-02T13:41:45.859Z</time></trkpt><trkpt lat="44.2044967" lon="11.461185"><ele>639.0</ele><time>2026-05-02T13:41:47.859Z</time></trkpt><trkpt lat="44.204455" lon="11.461285"><ele>637.0</ele><time>2026-05-02T13:41:49.86Z</time></trkpt><trkpt lat="44.2044367" lon="11.4614067"><ele>635.0</ele><time>2026-05-02T13:41:51.859Z</time></trkpt><trkpt lat="44.2044717" lon="11.4615267"><ele>633.0</ele><time>2026-05-02T13:41:53.859Z</time></trkpt><trkpt lat="44.204515" lon="11.4616383"><ele>631.0</ele><time>2026-05-02T13:41:55.859Z</time></trkpt><trkpt lat="44.20453" lon="11.461735"><ele>629.0</ele><time>2026-05-02T13:41:57.859Z</time></trkpt><trkpt lat="44.2044733" lon="11.4618583"><ele>627.0</ele><time>2026-05-02T13:42:00.859Z</time></trkpt><trkpt lat="44.20442" lon="11.461975"><ele>627.0</ele><time>2026-05-02T13:42:02.859Z</time></trkpt><trkpt lat="44.2043833" lon="11.462105"><ele>627.0</ele><time>2026-05-02T13:42:04.859Z</time></trkpt><trkpt lat="44.2043483" lon="11.462245"><ele>627.0</ele><time>2026-05-02T13:42:06.859Z</time></trkpt><trkpt lat="44.204315" lon="11.4623767"><ele>627.0</ele><time>2026-05-02T13:42:08.86Z</time></trkpt><trkpt lat="44.2042967" lon="11.4624983"><ele>627.0</ele><time>2026-05-02T13:42:10.859Z</time></trkpt><trkpt lat="44.2042883" lon="11.4625983"><ele>623.8000000000001</ele><time>2026-05-02T13:42:12.859Z</time></trkpt><trkpt lat="44.2042533" lon="11.46271"><ele>620.6</ele><time>2026-05-02T13:42:14.86Z</time></trkpt><trkpt lat="44.2042467" lon="11.462845"><ele>617.4000000000001</ele><time>2026-05-02T13:42:16.86Z</time></trkpt><trkpt lat="44.2042667" lon="11.4629817"><ele>614.2</ele><time>2026-05-02T13:42:18.859Z</time></trkpt><trkpt lat="44.2042667" lon="11.4631267"><ele>611.0</ele><time>2026-05-02T13:42:20.86Z</time></trkpt><trkpt lat="44.204275" lon="11.4632633"><ele>607.8</ele><time>2026-05-02T13:42:22.859Z</time></trkpt><trkpt lat="44.20431" lon="11.463375"><ele>604.6</ele><time>2026-05-02T13:42:24.859Z</time></trkpt><trkpt lat="44.2043833" lon="11.46343"><ele>601.4</ele><time>2026-05-02T13:42:26.86Z</time></trkpt><trkpt lat="44.2044433" lon="11.4632933"><ele>598.2</ele><time>2026-05-02T13:42:29.859Z</time></trkpt><trkpt lat="44.2044617" lon="11.46315"><ele>595.0</ele><time>2026-05-02T13:42:31.86Z</time></trkpt><trkpt lat="44.2045" lon="11.463035"><ele>595.0</ele><time>2026-05-02T13:42:33.86Z</time></trkpt><trkpt lat="44.20456" lon="11.4629917"><ele>595.0</ele><time>2026-05-02T13:42:35.859Z</time></trkpt><trkpt lat="44.20466" lon="11.4630483"><ele>595.0</ele><time>2026-05-02T13:42:38.86Z</time></trkpt><trkpt lat="44.2047217" lon="11.4631583"><ele>595.0</ele><time>2026-05-02T13:42:40.86Z</time></trkpt><trkpt lat="44.2047417" lon="11.4632833"><ele>595.0</ele><time>2026-05-02T13:42:42.86Z</time></trkpt><trkpt lat="44.2047483" lon="11.463415"><ele>595.0</ele><time>2026-05-02T13:42:44.859Z</time></trkpt><trkpt lat="44.2047667" lon="11.4635517"><ele>595.0</ele><time>2026-05-02T13:42:46.859Z</time></trkpt><trkpt lat="44.2047733" lon="11.463685"><ele>595.0</ele><time>2026-05-02T13:42:48.859Z</time></trkpt><trkpt lat="44.204775" lon="11.46381"><ele>595.0</ele><time>2026-05-02T13:42:50.859Z</time></trkpt><trkpt lat="44.2047483" lon="11.463955"><ele>595.0</ele><time>2026-05-02T13:42:52.859Z</time></trkpt><trkpt lat="44.2047367" lon="11.4640433"><ele>595.25</ele><time>2026-05-02T13:42:53.859Z</time></trkpt><trkpt lat="44.20474" lon="11.4642167"><ele>595.5</ele><time>2026-05-02T13:42:55.859Z</time></trkpt><trkpt lat="44.2047517" lon="11.464385"><ele>595.75</ele><time>2026-05-02T13:42:57.859Z</time></trkpt><trkpt lat="44.2047517" lon="11.464535"><ele>596.0</ele><time>2026-05-02T13:42:59.859Z</time></trkpt><trkpt lat="44.204745" lon="11.4646717"><ele>596.0</ele><time>2026-05-02T13:43:01.859Z</time></trkpt><trkpt lat="44.2047267" lon="11.4648417"><ele>596.0</ele><time>2026-05-02T13:43:03.859Z</time></trkpt><trkpt lat="44.2047067" lon="11.4650033"><ele>596.0</ele><time>2026-05-02T13:43:05.859Z</time></trkpt><trkpt lat="44.2046983" lon="11.4651767"><ele>596.0</ele><time>2026-05-02T13:43:07.859Z</time></trkpt><trkpt lat="44.2046717" lon="11.4653483"><ele>596.0</ele><time>2026-05-02T13:43:09.859Z</time></trkpt><trkpt lat="44.204665" lon="11.465445"><ele>596.0</ele><time>2026-05-02T13:43:10.86Z</time></trkpt><trkpt lat="44.2046633" lon="11.4655533"><ele>596.0</ele><time>2026-05-02T13:43:11.859Z</time></trkpt><trkpt lat="44.20468" lon="11.4656633"><ele>596.0</ele><time>2026-05-02T13:43:12.859Z</time></trkpt><trkpt lat="44.2047033" lon="11.4657817"><ele>596.0</ele><time>2026-05-02T13:43:13.859Z</time></trkpt><trkpt lat="44.2047317" lon="11.4658917"><ele>596.0</ele><time>2026-05-02T13:43:14.86Z</time></trkpt><trkpt lat="44.2047533" lon="11.4660133"><ele>594.6666666666666</ele><time>2026-05-02T13:43:15.86Z</time></trkpt><trkpt lat="44.2047783" lon="11.4661267"><ele>593.3333333333333</ele><time>2026-05-02T13:43:16.859Z</time></trkpt><trkpt lat="44.2047967" lon="11.4662367"><ele>592.0</ele><time>2026-05-02T13:43:17.86Z</time></trkpt><trkpt lat="44.2048167" lon="11.4663617"><ele>590.6666666666666</ele><time>2026-05-02T13:43:18.859Z</time></trkpt><trkpt lat="44.2048383" lon="11.466475"><ele>589.3333333333334</ele><time>2026-05-02T13:43:19.859Z</time></trkpt><trkpt lat="44.2048667" lon="11.46658"><ele>588.0</ele><time>2026-05-02T13:43:20.859Z</time></trkpt><trkpt lat="44.2048967" lon="11.4666783"><ele>584.8333333333334</ele><time>2026-05-02T13:43:21.86Z</time></trkpt><trkpt lat="44.20491" lon="11.4667667"><ele>581.6666666666666</ele><time>2026-05-02T13:43:22.859Z</time></trkpt><trkpt lat="44.2048967" lon="11.46688"><ele>578.5</ele><time>2026-05-02T13:43:24.86Z</time></trkpt><trkpt lat="44.2048083" lon="11.46694"><ele>575.3333333333333</ele><time>2026-05-02T13:43:26.86Z</time></trkpt><trkpt lat="44.204745" lon="11.4669633"><ele>572.1666666666666</ele><time>2026-05-02T13:43:27.859Z</time></trkpt><trkpt lat="44.2046467" lon="11.4670017"><ele>569.0</ele><time>2026-05-02T13:43:29.859Z</time></trkpt><trkpt lat="44.2045183" lon="11.4670333"><ele>569.0</ele><time>2026-05-02T13:43:31.859Z</time></trkpt><trkpt lat="44.2044517" lon="11.4670633"><ele>569.0</ele><time>2026-05-02T13:43:32.859Z</time></trkpt><trkpt lat="44.204355" lon="11.4671383"><ele>569.0</ele><time>2026-05-02T13:43:34.86Z</time></trkpt><trkpt lat="44.2042867" lon="11.4672467"><ele>569.0</ele><time>2026-05-02T13:43:36.859Z</time></trkpt><trkpt lat="44.2042917" lon="11.4673483"><ele>569.0</ele><time>2026-05-02T13:43:38.859Z</time></trkpt><trkpt lat="44.2043733" lon="11.4674117"><ele>564.0</ele><time>2026-05-02T13:43:40.859Z</time></trkpt><trkpt lat="44.20449" lon="11.4674933"><ele>559.0</ele><time>2026-05-02T13:43:42.86Z</time></trkpt><trkpt lat="44.2045567" lon="11.4675367"><ele>554.0</ele><time>2026-05-02T13:43:43.859Z</time></trkpt><trkpt lat="44.2046317" lon="11.4675817"><ele>549.0</ele><time>2026-05-02T13:43:44.86Z</time></trkpt><trkpt lat="44.2047083" lon="11.4676267"><ele>544.0</ele><time>2026-05-02T13:43:45.859Z</time></trkpt><trkpt lat="44.2047733" lon="11.46766"><ele>539.0</ele><time>2026-05-02T13:43:46.859Z</time></trkpt><trkpt lat="44.204845" lon="11.4677183"><ele>538.4</ele><time>2026-05-02T13:43:47.859Z</time></trkpt><trkpt lat="44.2049183" lon="11.4677967"><ele>537.8</ele><time>2026-05-02T13:43:48.859Z</time></trkpt><trkpt lat="44.205" lon="11.4678967"><ele>537.2</ele><time>2026-05-02T13:43:49.86Z</time></trkpt><trkpt lat="44.2050883" lon="11.4679733"><ele>536.6</ele><time>2026-05-02T13:43:50.858Z</time></trkpt><trkpt lat="44.20518" lon="11.468045"><ele>536.0</ele><time>2026-05-02T13:43:51.858Z</time></trkpt><trkpt lat="44.2052733" lon="11.4681183"><ele>536.0</ele><time>2026-05-02T13:43:52.858Z</time></trkpt><trkpt lat="44.2053617" lon="11.4681633"><ele>536.0</ele><time>2026-05-02T13:43:53.858Z</time></trkpt><trkpt lat="44.2054483" lon="11.4682083"><ele>536.0</ele><time>2026-05-02T13:43:54.859Z</time></trkpt><trkpt lat="44.205515" lon="11.4682483"><ele>536.0</ele><time>2026-05-02T13:43:55.859Z</time></trkpt><trkpt lat="44.20558" lon="11.4682833"><ele>536.0</ele><time>2026-05-02T13:43:56.858Z</time></trkpt><trkpt lat="44.2056517" lon="11.4683283"><ele>536.0</ele><time>2026-05-02T13:43:57.859Z</time></trkpt><trkpt lat="44.2057167" lon="11.4683983"><ele>535.5</ele><time>2026-05-02T13:43:58.858Z</time></trkpt><trkpt lat="44.2057667" lon="11.46849"><ele>535.0</ele><time>2026-05-02T13:43:59.859Z</time></trkpt><trkpt lat="44.2058033" lon="11.4685983"><ele>534.5</ele><time>2026-05-02T13:44:00.858Z</time></trkpt><trkpt lat="44.20583" lon="11.46869"><ele>534.0</ele><time>2026-05-02T13:44:01.858Z</time></trkpt><trkpt lat="44.205865" lon="11.4687783"><ele>533.5</ele><time>2026-05-02T13:44:02.858Z</time></trkpt><trkpt lat="44.2059883" lon="11.4688633"><ele>533.0</ele><time>2026-05-02T13:44:04.859Z</time></trkpt><trkpt lat="44.2060883" lon="11.4688983"><ele>533.0</ele><time>2026-05-02T13:44:05.858Z</time></trkpt><trkpt lat="44.20619" lon="11.46895"><ele>533.0</ele><time>2026-05-02T13:44:06.859Z</time></trkpt><trkpt lat="44.20629" lon="11.4689933"><ele>533.0</ele><time>2026-05-02T13:44:07.859Z</time></trkpt><trkpt lat="44.2063833" lon="11.4690317"><ele>533.0</ele><time>2026-05-02T13:44:08.858Z</time></trkpt><trkpt lat="44.2064617" lon="11.4690717"><ele>533.0</ele><time>2026-05-02T13:44:09.859Z</time></trkpt><trkpt lat="44.206525" lon="11.4691267"><ele>532.8333333333333</ele><time>2026-05-02T13:44:10.858Z</time></trkpt><trkpt lat="44.2065683" lon="11.4692067"><ele>532.6666666666666</ele><time>2026-05-02T13:44:11.858Z</time></trkpt><trkpt lat="44.2066033" lon="11.4693083"><ele>532.5</ele><time>2026-05-02T13:44:12.859Z</time></trkpt><trkpt lat="44.20662" lon="11.4694167"><ele>532.3333333333334</ele><time>2026-05-02T13:44:13.858Z</time></trkpt><trkpt lat="44.206635" lon="11.4695117"><ele>532.1666666666667</ele><time>2026-05-02T13:44:14.858Z</time></trkpt><trkpt lat="44.2066683" lon="11.4695883"><ele>532.0</ele><time>2026-05-02T13:44:15.858Z</time></trkpt><trkpt lat="44.2067733" lon="11.4696733"><ele>532.0</ele><time>2026-05-02T13:44:17.858Z</time></trkpt><trkpt lat="44.206885" lon="11.469655"><ele>532.0</ele><time>2026-05-02T13:44:19.859Z</time></trkpt><trkpt lat="44.20695" lon="11.4695917"><ele>532.0</ele><time>2026-05-02T13:44:20.858Z</time></trkpt><trkpt lat="44.2070383" lon="11.4695117"><ele>532.0</ele><time>2026-05-02T13:44:22.859Z</time></trkpt><trkpt lat="44.20713" lon="11.4695267"><ele>532.0</ele><time>2026-05-02T13:44:24.858Z</time></trkpt><trkpt lat="44.2072333" lon="11.4696783"><ele>532.0</ele><time>2026-05-02T13:44:26.858Z</time></trkpt><trkpt lat="44.2073017" lon="11.4697917"><ele>532.0</ele><time>2026-05-02T13:44:27.858Z</time></trkpt><trkpt lat="44.2073733" lon="11.4698867"><ele>532.0</ele><time>2026-05-02T13:44:28.859Z</time></trkpt><trkpt lat="44.2074433" lon="11.4699567"><ele>532.0</ele><time>2026-05-02T13:44:29.858Z</time></trkpt><trkpt lat="44.2075183" lon="11.4700217"><ele>532.0</ele><time>2026-05-02T13:44:30.859Z</time></trkpt><trkpt lat="44.2075883" lon="11.4700633"><ele>530.5</ele><time>2026-05-02T13:44:31.859Z</time></trkpt><trkpt lat="44.2076567" lon="11.47009"><ele>529.0</ele><time>2026-05-02T13:44:32.858Z</time></trkpt><trkpt lat="44.207725" lon="11.4701017"><ele>527.5</ele><time>2026-05-02T13:44:33.858Z</time></trkpt><trkpt lat="44.2077917" lon="11.4701067"><ele>526.0</ele><time>2026-05-02T13:44:34.858Z</time></trkpt><trkpt lat="44.2079083" lon="11.4700433"><ele>524.5</ele><time>2026-05-02T13:44:36.858Z</time></trkpt><trkpt lat="44.2079667" lon="11.469975"><ele>523.0</ele><time>2026-05-02T13:44:37.859Z</time></trkpt><trkpt lat="44.20802" lon="11.4699117"><ele>523.0</ele><time>2026-05-02T13:44:38.859Z</time></trkpt><trkpt lat="44.2080767" lon="11.4698567"><ele>523.0</ele><time>2026-05-02T13:44:39.858Z</time></trkpt><trkpt lat="44.2081717" lon="11.4698267"><ele>523.0</ele><time>2026-05-02T13:44:41.858Z</time></trkpt><trkpt lat="44.2082483" lon="11.4698383"><ele>523.0</ele><time>2026-05-02T13:44:43.858Z</time></trkpt><trkpt lat="44.2083417" lon="11.4699417"><ele>523.0</ele><time>2026-05-02T13:44:45.858Z</time></trkpt><trkpt lat="44.2084367" lon="11.470025"><ele>522.0</ele><time>2026-05-02T13:44:47.858Z</time></trkpt><trkpt lat="44.2085367" lon="11.4700383"><ele>521.0</ele><time>2026-05-02T13:44:49.859Z</time></trkpt><trkpt lat="44.2086617" lon="11.47002"><ele>520.0</ele><time>2026-05-02T13:44:51.858Z</time></trkpt><trkpt lat="44.2087267" lon="11.4700117"><ele>519.0</ele><time>2026-05-02T13:44:52.858Z</time></trkpt><trkpt lat="44.2087933" lon="11.4700167"><ele>518.0</ele><time>2026-05-02T13:44:53.858Z</time></trkpt><trkpt lat="44.2088667" lon="11.47004"><ele>517.0</ele><time>2026-05-02T13:44:54.858Z</time></trkpt><trkpt lat="44.20893" lon="11.470075"><ele>518.0</ele><time>2026-05-02T13:44:55.858Z</time></trkpt><trkpt lat="44.2090017" lon="11.4701067"><ele>519.0</ele><time>2026-05-02T13:44:56.858Z</time></trkpt><trkpt lat="44.2090717" lon="11.4701617"><ele>520.0</ele><time>2026-05-02T13:44:57.859Z</time></trkpt><trkpt lat="44.209155" lon="11.4702483"><ele>521.0</ele><time>2026-05-02T13:44:58.859Z</time></trkpt><trkpt lat="44.209215" lon="11.4703283"><ele>522.0</ele><time>2026-05-02T13:44:59.858Z</time></trkpt><trkpt lat="44.209265" lon="11.470425"><ele>523.0</ele><time>2026-05-02T13:45:00.858Z</time></trkpt><trkpt lat="44.209305" lon="11.4705067"><ele>523.0</ele><time>2026-05-02T13:45:01.858Z</time></trkpt><trkpt lat="44.2093433" lon="11.470585"><ele>523.0</ele><time>2026-05-02T13:45:02.859Z</time></trkpt><trkpt lat="44.2093733" lon="11.4706633"><ele>523.0</ele><time>2026-05-02T13:45:03.858Z</time></trkpt><trkpt lat="44.2094583" lon="11.47077"><ele>523.0</ele><time>2026-05-02T13:45:05.858Z</time></trkpt><trkpt lat="44.2095217" lon="11.4707683"><ele>523.0</ele><time>2026-05-02T13:45:06.858Z</time></trkpt><trkpt lat="44.2095917" lon="11.4707433"><ele>523.0</ele><time>2026-05-02T13:45:07.859Z</time></trkpt><trkpt lat="44.2096667" lon="11.4707233"><ele>523.0</ele><time>2026-05-02T13:45:08.858Z</time></trkpt><trkpt lat="44.2097417" lon="11.4707233"><ele>523.0</ele><time>2026-05-02T13:45:09.858Z</time></trkpt><trkpt lat="44.2098267" lon="11.470735"><ele>523.0</ele><time>2026-05-02T13:45:10.858Z</time></trkpt><trkpt lat="44.209925" lon="11.4707667"><ele>523.0</ele><time>2026-05-02T13:45:11.858Z</time></trkpt><trkpt lat="44.2100283" lon="11.4708133"><ele>523.0</ele><time>2026-05-02T13:45:12.858Z</time></trkpt><trkpt lat="44.210135" lon="11.4708583"><ele>518.4</ele><time>2026-05-02T13:45:13.858Z</time></trkpt><trkpt lat="44.2102417" lon="11.470905"><ele>513.8</ele><time>2026-05-02T13:45:14.859Z</time></trkpt><trkpt lat="44.2103367" lon="11.4709583"><ele>509.2</ele><time>2026-05-02T13:45:15.858Z</time></trkpt><trkpt lat="44.2104283" lon="11.4710217"><ele>504.6</ele><time>2026-05-02T13:45:16.859Z</time></trkpt><trkpt lat="44.21051" lon="11.4711067"><ele>500.0</ele><time>2026-05-02T13:45:17.858Z</time></trkpt><trkpt lat="44.2105917" lon="11.4712133"><ele>499.5</ele><time>2026-05-02T13:45:18.858Z</time></trkpt><trkpt lat="44.2106733" lon="11.471335"><ele>499.0</ele><time>2026-05-02T13:45:19.858Z</time></trkpt><trkpt lat="44.2107633" lon="11.4714667"><ele>498.5</ele><time>2026-05-02T13:45:20.858Z</time></trkpt><trkpt lat="44.2108683" lon="11.4716033"><ele>498.0</ele><time>2026-05-02T13:45:21.858Z</time></trkpt><trkpt lat="44.2109583" lon="11.471735"><ele>498.0</ele><time>2026-05-02T13:45:22.858Z</time></trkpt><trkpt lat="44.21104" lon="11.4718617"><ele>497.99999999999994</ele><time>2026-05-02T13:45:23.859Z</time></trkpt><trkpt lat="44.211115" lon="11.471975"><ele>497.99999999999994</ele><time>2026-05-02T13:45:24.859Z</time></trkpt><trkpt lat="44.211185" lon="11.4720767"><ele>498.0</ele><time>2026-05-02T13:45:25.858Z</time></trkpt><trkpt lat="44.2112583" lon="11.4721617"><ele>498.0</ele><time>2026-05-02T13:45:26.859Z</time></trkpt><trkpt lat="44.2113367" lon="11.4722283"><ele>497.4</ele><time>2026-05-02T13:45:27.858Z</time></trkpt><trkpt lat="44.21142" lon="11.4722783"><ele>496.79999999999995</ele><time>2026-05-02T13:45:28.859Z</time></trkpt><trkpt lat="44.2115033" lon="11.472335"><ele>496.2</ele><time>2026-05-02T13:45:29.859Z</time></trkpt><trkpt lat="44.211585" lon="11.4723933"><ele>495.6</ele><time>2026-05-02T13:45:30.859Z</time></trkpt><trkpt lat="44.211665" lon="11.47247"><ele>495.0</ele><time>2026-05-02T13:45:31.858Z</time></trkpt><trkpt lat="44.211735" lon="11.4725617"><ele>495.0</ele><time>2026-05-02T13:45:32.859Z</time></trkpt><trkpt lat="44.211795" lon="11.4726617"><ele>495.0</ele><time>2026-05-02T13:45:33.858Z</time></trkpt><trkpt lat="44.2118417" lon="11.4727433"><ele>495.0</ele><time>2026-05-02T13:45:34.858Z</time></trkpt><trkpt lat="44.211885" lon="11.4728167"><ele>495.0</ele><time>2026-05-02T13:45:35.859Z</time></trkpt><trkpt lat="44.2119467" lon="11.4729183"><ele>495.0</ele><time>2026-05-02T13:45:37.858Z</time></trkpt><trkpt lat="44.211985" lon="11.4729917"><ele>495.0</ele><time>2026-05-02T13:45:39.859Z</time></trkpt><trkpt lat="44.2120183" lon="11.4730867"><ele>497.1666666666667</ele><time>2026-05-02T13:45:41.859Z</time></trkpt><trkpt lat="44.2120467" lon="11.4731833"><ele>499.33333333333337</ele><time>2026-05-02T13:45:43.859Z</time></trkpt><trkpt lat="44.21207" lon="11.47329"><ele>501.5</ele><time>2026-05-02T13:45:45.859Z</time></trkpt><trkpt lat="44.212075" lon="11.4734067"><ele>503.6666666666667</ele><time>2026-05-02T13:45:48.858Z</time></trkpt><trkpt lat="44.2121033" lon="11.473285"><ele>505.83333333333337</ele><time>2026-05-02T13:45:54.858Z</time></trkpt><trkpt lat="44.2120667" lon="11.4731333"><ele>508.0</ele><time>2026-05-02T13:45:56.858Z</time></trkpt><trkpt lat="44.2120483" lon="11.4730483"><ele>505.83333333333337</ele><time>2026-05-02T13:45:57.858Z</time></trkpt><trkpt lat="44.21201" lon="11.4729183"><ele>503.6666666666667</ele><time>2026-05-02T13:45:59.858Z</time></trkpt><trkpt lat="44.2119717" lon="11.4728367"><ele>501.5</ele><time>2026-05-02T13:46:02.859Z</time></trkpt><trkpt lat="44.2119433" lon="11.4727417"><ele>499.33333333333337</ele><time>2026-05-02T13:46:06.858Z</time></trkpt><trkpt lat="44.2119183" lon="11.47265"><ele>497.1666666666667</ele><time>2026-05-02T13:46:09.858Z</time></trkpt><trkpt lat="44.211885" lon="11.4725433"><ele>495.0</ele><time>2026-05-02T13:46:12.859Z</time></trkpt><trkpt lat="44.2118717" lon="11.472455"><ele>495.0</ele><time>2026-05-02T13:46:14.858Z</time></trkpt><trkpt lat="44.2118633" lon="11.4723533"><ele>495.0</ele><time>2026-05-02T13:46:16.858Z</time></trkpt><trkpt lat="44.2118383" lon="11.472265"><ele>495.0</ele><time>2026-05-02T13:46:18.858Z</time></trkpt><trkpt lat="44.2117833" lon="11.4721633"><ele>495.0</ele><time>2026-05-02T13:46:21.858Z</time></trkpt><trkpt lat="44.21174" lon="11.4720733"><ele>495.0</ele><time>2026-05-02T13:46:23.859Z</time></trkpt><trkpt lat="44.2117183" lon="11.471965"><ele>495.0</ele><time>2026-05-02T13:46:25.858Z</time></trkpt><trkpt lat="44.211735" lon="11.4718783"><ele>492.6666666666667</ele><time>2026-05-02T13:46:28.858Z</time></trkpt><trkpt lat="44.2118067" lon="11.4718567"><ele>490.33333333333337</ele><time>2026-05-02T13:46:32.859Z</time></trkpt><trkpt lat="44.2118883" lon="11.4718167"><ele>488.0</ele><time>2026-05-02T13:46:35.858Z</time></trkpt><trkpt lat="44.2119517" lon="11.4717667"><ele>485.6666666666667</ele><time>2026-05-02T13:46:37.858Z</time></trkpt><trkpt lat="44.2120083" lon="11.4716867"><ele>483.33333333333337</ele><time>2026-05-02T13:46:39.859Z</time></trkpt><trkpt lat="44.2120717" lon="11.4716017"><ele>481.0</ele><time>2026-05-02T13:46:41.858Z</time></trkpt><trkpt lat="44.2121133" lon="11.4715167"><ele>481.00000000000006</ele><time>2026-05-02T13:46:43.858Z</time></trkpt><trkpt lat="44.212145" lon="11.4713967"><ele>481.0</ele><time>2026-05-02T13:46:46.858Z</time></trkpt><trkpt lat="44.2121283" lon="11.4712917"><ele>481.0</ele><time>2026-05-02T13:46:49.858Z</time></trkpt><trkpt lat="44.21209" lon="11.47119"><ele>481.0</ele><time>2026-05-02T13:46:52.858Z</time></trkpt><trkpt lat="44.2120533" lon="11.4711083"><ele>481.00000000000006</ele><time>2026-05-02T13:46:54.858Z</time></trkpt><trkpt lat="44.2120233" lon="11.4710167"><ele>481.0</ele><time>2026-05-02T13:46:56.858Z</time></trkpt><trkpt lat="44.212" lon="11.47093"><ele>479.6666666666667</ele><time>2026-05-02T13:46:58.858Z</time></trkpt><trkpt lat="44.2119867" lon="11.4708383"><ele>478.33333333333337</ele><time>2026-05-02T13:47:01.859Z</time></trkpt><trkpt lat="44.2119883" lon="11.4707267"><ele>477.0</ele><time>2026-05-02T13:47:04.858Z</time></trkpt><trkpt lat="44.2120133" lon="11.4706317"><ele>475.66666666666663</ele><time>2026-05-02T13:47:07.858Z</time></trkpt><trkpt lat="44.2120383" lon="11.4705233"><ele>474.3333333333333</ele><time>2026-05-02T13:47:11.858Z</time></trkpt><trkpt lat="44.2120633" lon="11.4704383"><ele>473.0</ele><time>2026-05-02T13:47:13.859Z</time></trkpt><trkpt lat="44.2120967" lon="11.4703167"><ele>472.99999999999994</ele><time>2026-05-02T13:47:16.859Z</time></trkpt><trkpt lat="44.2121117" lon="11.4702267"><ele>473.0</ele><time>2026-05-02T13:47:18.858Z</time></trkpt><trkpt lat="44.2120917" lon="11.4701433"><ele>473.0</ele><time>2026-05-02T13:47:21.859Z</time></trkpt><trkpt lat="44.21211" lon="11.4700483"><ele>473.0</ele><time>2026-05-02T13:48:07.858Z</time></trkpt><trkpt lat="44.2121017" lon="11.470195"><ele>472.99999999999994</ele><time>2026-05-02T13:48:10.859Z</time></trkpt><trkpt lat="44.2120583" lon="11.4703317"><ele>473.0</ele><time>2026-05-02T13:48:12.859Z</time></trkpt><trkpt lat="44.2120167" lon="11.4704667"><ele>472.99999999999994</ele><time>2026-05-02T13:48:14.858Z</time></trkpt><trkpt lat="44.2119867" lon="11.4705617"><ele>473.0</ele><time>2026-05-02T13:48:16.859Z</time></trkpt><trkpt lat="44.211935" lon="11.4706233"><ele>473.0</ele><time>2026-05-02T13:48:21.859Z</time></trkpt><trkpt lat="44.2120167" lon="11.4707117"><ele>473.0</ele><time>2026-05-02T13:49:23.858Z</time></trkpt><trkpt lat="44.212075" lon="11.4707717"><ele>472.99999999999994</ele><time>2026-05-02T13:51:26.859Z</time></trkpt><trkpt lat="44.2121467" lon="11.4707817"><ele>473.0</ele><time>2026-05-02T13:51:31.858Z</time></trkpt><trkpt lat="44.2122017" lon="11.47069"><ele>473.0</ele><time>2026-05-02T13:51:34.858Z</time></trkpt><trkpt lat="44.21226" lon="11.4706"><ele>472.99999999999994</ele><time>2026-05-02T13:51:37.859Z</time></trkpt><trkpt lat="44.21232" lon="11.4705183"><ele>472.99999999999994</ele><time>2026-05-02T13:51:41.858Z</time></trkpt><trkpt lat="44.21239" lon="11.470485"><ele>473.0</ele><time>2026-05-02T13:51:47.858Z</time></trkpt><trkpt lat="44.2124617" lon="11.4704717"><ele>473.0</ele><time>2026-05-02T13:51:51.858Z</time></trkpt><trkpt lat="44.2125867" lon="11.47054"><ele>471.0</ele><time>2026-05-02T13:52:47.857Z</time></trkpt><trkpt lat="44.2126533" lon="11.470535"><ele>469.0</ele><time>2026-05-02T13:52:51.857Z</time></trkpt><trkpt lat="44.212715" lon="11.4705667"><ele>467.0</ele><time>2026-05-02T13:52:53.857Z</time></trkpt><trkpt lat="44.21279" lon="11.47061"><ele>465.0</ele><time>2026-05-02T13:52:55.857Z</time></trkpt><trkpt lat="44.212865" lon="11.470685"><ele>463.0</ele><time>2026-05-02T13:52:57.858Z</time></trkpt><trkpt lat="44.212895" lon="11.4707667"><ele>461.0</ele><time>2026-05-02T13:52:59.857Z</time></trkpt><trkpt lat="44.212905" lon="11.47087"><ele>459.0</ele><time>2026-05-02T13:53:02.857Z</time></trkpt><trkpt lat="44.212955" lon="11.4709533"><ele>459.0</ele><time>2026-05-02T13:53:05.857Z</time></trkpt><trkpt lat="44.2130167" lon="11.4709867"><ele>459.0</ele><time>2026-05-02T13:53:07.857Z</time></trkpt><trkpt lat="44.21308" lon="11.471045"><ele>459.0</ele><time>2026-05-02T13:53:09.857Z</time></trkpt><trkpt lat="44.2131433" lon="11.4711067"><ele>459.0</ele><time>2026-05-02T13:53:11.857Z</time></trkpt><trkpt lat="44.21321" lon="11.4711867"><ele>459.0</ele><time>2026-05-02T13:53:13.857Z</time></trkpt><trkpt lat="44.21325" lon="11.4712783"><ele>459.0</ele><time>2026-05-02T13:53:15.857Z</time></trkpt><trkpt lat="44.2132883" lon="11.471365"><ele>456.3333333333333</ele><time>2026-05-02T13:53:17.858Z</time></trkpt><trkpt lat="44.2133467" lon="11.4714483"><ele>453.66666666666663</ele><time>2026-05-02T13:53:19.857Z</time></trkpt><trkpt lat="44.2134183" lon="11.471485"><ele>451.0</ele><time>2026-05-02T13:53:21.857Z</time></trkpt><trkpt lat="44.2135117" lon="11.47154"><ele>448.3333333333333</ele><time>2026-05-02T13:53:23.858Z</time></trkpt><trkpt lat="44.21358" lon="11.471585"><ele>445.66666666666663</ele><time>2026-05-02T13:53:25.857Z</time></trkpt><trkpt lat="44.213645" lon="11.47166"><ele>443.0</ele><time>2026-05-02T13:53:27.858Z</time></trkpt><trkpt lat="44.2136917" lon="11.4717567"><ele>442.99999999999994</ele><time>2026-05-02T13:53:29.858Z</time></trkpt><trkpt lat="44.2137483" lon="11.4718433"><ele>443.0</ele><time>2026-05-02T13:53:31.858Z</time></trkpt><trkpt lat="44.2138117" lon="11.4719117"><ele>443.0</ele><time>2026-05-02T13:53:33.858Z</time></trkpt><trkpt lat="44.21389" lon="11.4719533"><ele>443.0</ele><time>2026-05-02T13:53:35.858Z</time></trkpt><trkpt lat="44.2139517" lon="11.4719833"><ele>442.99999999999994</ele><time>2026-05-02T13:53:37.857Z</time></trkpt><trkpt lat="44.21402" lon="11.4720133"><ele>443.0</ele><time>2026-05-02T13:53:39.857Z</time></trkpt><trkpt lat="44.214095" lon="11.4720617"><ele>442.16666666666663</ele><time>2026-05-02T13:53:42.857Z</time></trkpt><trkpt lat="44.2141717" lon="11.4720983"><ele>441.3333333333333</ele><time>2026-05-02T13:53:45.857Z</time></trkpt><trkpt lat="44.2142517" lon="11.4721267"><ele>440.5</ele><time>2026-05-02T13:53:48.857Z</time></trkpt><trkpt lat="44.21432" lon="11.4721583"><ele>439.66666666666663</ele><time>2026-05-02T13:53:50.857Z</time></trkpt><trkpt lat="44.2143983" lon="11.472205"><ele>438.8333333333333</ele><time>2026-05-02T13:53:52.858Z</time></trkpt><trkpt lat="44.214485" lon="11.4722467"><ele>438.0</ele><time>2026-05-02T13:53:54.857Z</time></trkpt><trkpt lat="44.2145617" lon="11.472285"><ele>438.0</ele><time>2026-05-02T13:53:56.858Z</time></trkpt><trkpt lat="44.214635" lon="11.4723267"><ele>438.0</ele><time>2026-05-02T13:53:58.857Z</time></trkpt><trkpt lat="44.2146967" lon="11.4723483"><ele>438.0</ele><time>2026-05-02T13:54:00.857Z</time></trkpt><trkpt lat="44.2147817" lon="11.47239"><ele>438.0</ele><time>2026-05-02T13:54:03.857Z</time></trkpt><trkpt lat="44.2148667" lon="11.4724167"><ele>438.0</ele><time>2026-05-02T13:54:06.857Z</time></trkpt><trkpt lat="44.214945" lon="11.472425"><ele>438.0</ele><time>2026-05-02T13:54:08.857Z</time></trkpt><trkpt lat="44.2150133" lon="11.47244"><ele>434.8333333333333</ele><time>2026-05-02T13:54:10.858Z</time></trkpt><trkpt lat="44.2150717" lon="11.4724817"><ele>431.66666666666663</ele><time>2026-05-02T13:54:12.857Z</time></trkpt><trkpt lat="44.21513" lon="11.472545"><ele>428.5</ele><time>2026-05-02T13:54:15.857Z</time></trkpt><trkpt lat="44.2151917" lon="11.4726"><ele>425.3333333333333</ele><time>2026-05-02T13:54:19.857Z</time></trkpt><trkpt lat="44.2152783" lon="11.4726567"><ele>422.16666666666663</ele><time>2026-05-02T13:56:45.857Z</time></trkpt><trkpt lat="44.2153133" lon="11.4727417"><ele>419.0</ele><time>2026-05-02T14:02:19.856Z</time></trkpt><trkpt lat="44.2153817" lon="11.4728783"><ele>421.5</ele><time>2026-05-02T14:02:21.856Z</time></trkpt><trkpt lat="44.2154433" lon="11.4730283"><ele>424.0</ele><time>2026-05-02T14:02:23.856Z</time></trkpt><trkpt lat="44.2154983" lon="11.4731667"><ele>426.5</ele><time>2026-05-02T14:02:25.857Z</time></trkpt><trkpt lat="44.21556" lon="11.473295"><ele>429.0</ele><time>2026-05-02T14:02:27.856Z</time></trkpt><trkpt lat="44.2156217" lon="11.4734233"><ele>426.5</ele><time>2026-05-02T14:02:29.856Z</time></trkpt><trkpt lat="44.2156783" lon="11.473535"><ele>424.0</ele><time>2026-05-02T14:02:31.856Z</time></trkpt><trkpt lat="44.2157233" lon="11.4737"><ele>421.5</ele><time>2026-05-02T14:02:33.856Z</time></trkpt><trkpt lat="44.2157433" lon="11.4738017"><ele>419.0</ele><time>2026-05-02T14:02:34.856Z</time></trkpt><trkpt lat="44.215765" lon="11.4739"><ele>416.5</ele><time>2026-05-02T14:02:35.856Z</time></trkpt><trkpt lat="44.215785" lon="11.4739967"><ele>414.0</ele><time>2026-05-02T14:02:36.857Z</time></trkpt><trkpt lat="44.2158" lon="11.4740867"><ele>414.0</ele><time>2026-05-02T14:02:37.857Z</time></trkpt><trkpt lat="44.2158117" lon="11.4741767"><ele>414.0</ele><time>2026-05-02T14:02:38.857Z</time></trkpt><trkpt lat="44.2158267" lon="11.474265"><ele>414.0</ele><time>2026-05-02T14:02:39.856Z</time></trkpt><trkpt lat="44.21584" lon="11.4744267"><ele>414.0</ele><time>2026-05-02T14:02:41.856Z</time></trkpt><trkpt lat="44.2158467" lon="11.474595"><ele>414.0</ele><time>2026-05-02T14:02:43.857Z</time></trkpt><trkpt lat="44.215845" lon="11.4746983"><ele>414.0</ele><time>2026-05-02T14:02:44.857Z</time></trkpt><trkpt lat="44.215845" lon="11.4748083"><ele>414.5</ele><time>2026-05-02T14:02:45.856Z</time></trkpt><trkpt lat="44.215855" lon="11.4749067"><ele>415.0</ele><time>2026-05-02T14:02:46.857Z</time></trkpt><trkpt lat="44.2158767" lon="11.475005"><ele>415.5</ele><time>2026-05-02T14:02:47.857Z</time></trkpt><trkpt lat="44.2158983" lon="11.475105"><ele>416.0</ele><time>2026-05-02T14:02:48.856Z</time></trkpt><trkpt lat="44.21592" lon="11.4752083"><ele>416.5</ele><time>2026-05-02T14:02:49.856Z</time></trkpt><trkpt lat="44.2159433" lon="11.4753383"><ele>417.0</ele><time>2026-05-02T14:02:50.856Z</time></trkpt><trkpt lat="44.21596" lon="11.47548"><ele>418.0</ele><time>2026-05-02T14:02:51.857Z</time></trkpt><trkpt lat="44.2159767" lon="11.4756033"><ele>419.0</ele><time>2026-05-02T14:02:52.856Z</time></trkpt><trkpt lat="44.2159917" lon="11.4757083"><ele>420.0</ele><time>2026-05-02T14:02:53.856Z</time></trkpt><trkpt lat="44.21604" lon="11.4758733"><ele>421.0</ele><time>2026-05-02T14:02:55.856Z</time></trkpt><trkpt lat="44.2160733" lon="11.4759633"><ele>422.0</ele><time>2026-05-02T14:02:56.857Z</time></trkpt><trkpt lat="44.216105" lon="11.4760567"><ele>423.0</ele><time>2026-05-02T14:02:57.856Z</time></trkpt><trkpt lat="44.21613" lon="11.4761517"><ele>423.0</ele><time>2026-05-02T14:02:58.856Z</time></trkpt><trkpt lat="44.2161483" lon="11.47626"><ele>423.0</ele><time>2026-05-02T14:02:59.857Z</time></trkpt><trkpt lat="44.216155" lon="11.4763617"><ele>423.0</ele><time>2026-05-02T14:03:00.857Z</time></trkpt><trkpt lat="44.2161633" lon="11.4764567"><ele>423.0</ele><time>2026-05-02T14:03:01.856Z</time></trkpt><trkpt lat="44.2161817" lon="11.4765417"><ele>423.0</ele><time>2026-05-02T14:03:02.856Z</time></trkpt><trkpt lat="44.2162267" lon="11.4767"><ele>423.0</ele><time>2026-05-02T14:03:04.857Z</time></trkpt><trkpt lat="44.21625" lon="11.4767833"><ele>424.85714285714283</ele><time>2026-05-02T14:03:05.856Z</time></trkpt><trkpt lat="44.2162717" lon="11.4768667"><ele>426.7142857142857</ele><time>2026-05-02T14:03:06.856Z</time></trkpt><trkpt lat="44.2162817" lon="11.476955"><ele>428.57142857142856</ele><time>2026-05-02T14:03:07.856Z</time></trkpt><trkpt lat="44.2162883" lon="11.47705"><ele>430.42857142857144</ele><time>2026-05-02T14:03:08.856Z</time></trkpt><trkpt lat="44.2162867" lon="11.47715"><ele>432.28571428571433</ele><time>2026-05-02T14:03:09.857Z</time></trkpt><trkpt lat="44.2162817" lon="11.4772467"><ele>434.14285714285717</ele><time>2026-05-02T14:03:10.856Z</time></trkpt><trkpt lat="44.2162733" lon="11.47734"><ele>436.0</ele><time>2026-05-02T14:03:11.857Z</time></trkpt><trkpt lat="44.2162533" lon="11.4774333"><ele>437.8571428571429</ele><time>2026-05-02T14:03:12.857Z</time></trkpt><trkpt lat="44.2162283" lon="11.4775183"><ele>439.7142857142857</ele><time>2026-05-02T14:03:13.857Z</time></trkpt><trkpt lat="44.21621" lon="11.4776083"><ele>441.57142857142856</ele><time>2026-05-02T14:03:14.856Z</time></trkpt><trkpt lat="44.2161933" lon="11.4777017"><ele>443.42857142857144</ele><time>2026-05-02T14:03:15.856Z</time></trkpt><trkpt lat="44.2161783" lon="11.4777967"><ele>445.2857142857142</ele><time>2026-05-02T14:03:16.857Z</time></trkpt><trkpt lat="44.21617" lon="11.477905"><ele>447.1428571428571</ele><time>2026-05-02T14:03:17.856Z</time></trkpt><trkpt lat="44.216165" lon="11.4779983"><ele>449.0</ele><time>2026-05-02T14:03:18.856Z</time></trkpt><trkpt lat="44.2161267" lon="11.4781633"><ele>450.3333333333333</ele><time>2026-05-02T14:03:20.856Z</time></trkpt><trkpt lat="44.2160917" lon="11.47825"><ele>451.66666666666663</ele><time>2026-05-02T14:03:21.857Z</time></trkpt><trkpt lat="44.2160433" lon="11.4783367"><ele>453.0</ele><time>2026-05-02T14:03:22.857Z</time></trkpt><trkpt lat="44.2159867" lon="11.4784233"><ele>454.33333333333337</ele><time>2026-05-02T14:03:23.856Z</time></trkpt><trkpt lat="44.2159283" lon="11.4785217"><ele>455.6666666666667</ele><time>2026-05-02T14:03:24.856Z</time></trkpt><trkpt lat="44.2158717" lon="11.4786167"><ele>457.0</ele><time>2026-05-02T14:03:25.857Z</time></trkpt><trkpt lat="44.2158217" lon="11.4787083"><ele>457.0</ele><time>2026-05-02T14:03:26.856Z</time></trkpt><trkpt lat="44.215765" lon="11.4788067"><ele>457.00000000000006</ele><time>2026-05-02T14:03:27.856Z</time></trkpt><trkpt lat="44.2157267" lon="11.47889"><ele>457.00000000000006</ele><time>2026-05-02T14:03:28.856Z</time></trkpt><trkpt lat="44.2156483" lon="11.4790333"><ele>457.0</ele><time>2026-05-02T14:03:30.856Z</time></trkpt><trkpt lat="44.2155967" lon="11.4791333"><ele>457.0</ele><time>2026-05-02T14:03:31.856Z</time></trkpt><trkpt lat="44.2155433" lon="11.479255"><ele>463.20000000000005</ele><time>2026-05-02T14:03:32.857Z</time></trkpt><trkpt lat="44.2155017" lon="11.4793817"><ele>469.40000000000003</ele><time>2026-05-02T14:03:33.856Z</time></trkpt><trkpt lat="44.2154533" lon="11.4795033"><ele>475.59999999999997</ele><time>2026-05-02T14:03:34.856Z</time></trkpt><trkpt lat="44.215415" lon="11.4796167"><ele>481.79999999999995</ele><time>2026-05-02T14:03:35.856Z</time></trkpt><trkpt lat="44.2153783" lon="11.4797233"><ele>488.0</ele><time>2026-05-02T14:03:36.857Z</time></trkpt><trkpt lat="44.2153467" lon="11.4798317"><ele>488.49999999999994</ele><time>2026-05-02T14:03:37.857Z</time></trkpt><trkpt lat="44.2153167" lon="11.4799583"><ele>489.0</ele><time>2026-05-02T14:03:38.856Z</time></trkpt><trkpt lat="44.2152833" lon="11.4800867"><ele>489.5</ele><time>2026-05-02T14:03:39.856Z</time></trkpt><trkpt lat="44.215255" lon="11.480195"><ele>490.0</ele><time>2026-05-02T14:03:40.856Z</time></trkpt><trkpt lat="44.2152283" lon="11.4802917"><ele>490.49999999999994</ele><time>2026-05-02T14:03:41.856Z</time></trkpt><trkpt lat="44.2152033" lon="11.4803883"><ele>491.0</ele><time>2026-05-02T14:03:42.856Z</time></trkpt><trkpt lat="44.215165" lon="11.4804717"><ele>491.3333333333333</ele><time>2026-05-02T14:03:43.856Z</time></trkpt><trkpt lat="44.2151217" lon="11.4805517"><ele>491.66666666666663</ele><time>2026-05-02T14:03:44.857Z</time></trkpt><trkpt lat="44.2150717" lon="11.4806233"><ele>492.0</ele><time>2026-05-02T14:03:45.856Z</time></trkpt><trkpt lat="44.2150267" lon="11.4806917"><ele>492.33333333333337</ele><time>2026-05-02T14:03:46.857Z</time></trkpt><trkpt lat="44.214965" lon="11.48075"><ele>492.6666666666667</ele><time>2026-05-02T14:03:47.856Z</time></trkpt><trkpt lat="44.2149033" lon="11.4808083"><ele>493.0</ele><time>2026-05-02T14:03:48.856Z</time></trkpt><trkpt lat="44.2148417" lon="11.4809117"><ele>493.0</ele><time>2026-05-02T14:03:50.856Z</time></trkpt><trkpt lat="44.214845" lon="11.4810033"><ele>492.99999999999994</ele><time>2026-05-02T14:03:52.856Z</time></trkpt><trkpt lat="44.2148667" lon="11.4811467"><ele>492.99999999999994</ele><time>2026-05-02T14:03:54.856Z</time></trkpt><trkpt lat="44.2148633" lon="11.4813283"><ele>493.0</ele><time>2026-05-02T14:03:56.855Z</time></trkpt><trkpt lat="44.2148533" lon="11.4814383"><ele>493.0</ele><time>2026-05-02T14:03:57.855Z</time></trkpt><trkpt lat="44.2148383" lon="11.48157"><ele>492.59999999999997</ele><time>2026-05-02T14:03:58.855Z</time></trkpt><trkpt lat="44.2148217" lon="11.4817167"><ele>492.19999999999993</ele><time>2026-05-02T14:03:59.855Z</time></trkpt><trkpt lat="44.214805" lon="11.4818783"><ele>491.8</ele><time>2026-05-02T14:04:00.855Z</time></trkpt><trkpt lat="44.2147933" lon="11.4820083"><ele>491.4</ele><time>2026-05-02T14:04:01.855Z</time></trkpt><trkpt lat="44.2147838" lon="11.4821548"><ele>491.0</ele><time>2026-05-02T14:04:04.923Z</time></trkpt><trkpt lat="44.214765" lon="11.4822583"><ele>491.99999999999994</ele><time>2026-05-02T14:04:15.855Z</time></trkpt><trkpt lat="44.2147767" lon="11.4823633"><ele>493.0</ele><time>2026-05-02T14:04:18.856Z</time></trkpt><trkpt lat="44.2147883" lon="11.4824883"><ele>494.0</ele><time>2026-05-02T14:04:20.855Z</time></trkpt><trkpt lat="44.2148333" lon="11.4826633"><ele>495.0</ele><time>2026-05-02T14:04:22.856Z</time></trkpt><trkpt lat="44.214865" lon="11.4827583"><ele>495.99999999999994</ele><time>2026-05-02T14:04:23.856Z</time></trkpt><trkpt lat="44.214895" lon="11.4828533"><ele>497.0</ele><time>2026-05-02T14:04:24.855Z</time></trkpt><trkpt lat="44.2149167" lon="11.4829433"><ele>496.99999999999994</ele><time>2026-05-02T14:04:25.855Z</time></trkpt><trkpt lat="44.2149417" lon="11.48309"><ele>497.0</ele><time>2026-05-02T14:04:27.855Z</time></trkpt><trkpt lat="44.2149617" lon="11.483195"><ele>497.0</ele><time>2026-05-02T14:04:29.855Z</time></trkpt><trkpt lat="44.2149783" lon="11.4833133"><ele>497.0</ele><time>2026-05-02T14:04:32.855Z</time></trkpt><trkpt lat="44.214975" lon="11.4834183"><ele>496.99999999999994</ele><time>2026-05-02T14:04:35.855Z</time></trkpt><trkpt lat="44.2149633" lon="11.4835167"><ele>497.0</ele><time>2026-05-02T14:04:38.856Z</time></trkpt><trkpt lat="44.2149333" lon="11.4836033"><ele>496.99999999999994</ele><time>2026-05-02T14:04:43.855Z</time></trkpt><trkpt lat="44.2148517" lon="11.4835833"><ele>497.0</ele><time>2026-05-02T14:05:23.855Z</time></trkpt><trkpt lat="44.2147933" lon="11.4835233"><ele>497.0</ele><time>2026-05-02T14:05:30.855Z</time></trkpt><trkpt lat="44.2147417" lon="11.48343"><ele>497.0</ele><time>2026-05-02T14:05:35.855Z</time></trkpt><trkpt lat="44.2146917" lon="11.48335"><ele>496.99999999999994</ele><time>2026-05-02T14:05:38.855Z</time></trkpt><trkpt lat="44.2146483" lon="11.4832817"><ele>497.0</ele><time>2026-05-02T14:05:41.855Z</time></trkpt><trkpt lat="44.2145983" lon="11.4832067"><ele>498.1428571428571</ele><time>2026-05-02T14:05:45.855Z</time></trkpt><trkpt lat="44.2145633" lon="11.4831133"><ele>499.2857142857143</ele><time>2026-05-02T14:05:49.855Z</time></trkpt><trkpt lat="44.2145217" lon="11.4830433"><ele>500.42857142857144</ele><time>2026-05-02T14:05:55.855Z</time></trkpt><trkpt lat="44.2144717" lon="11.48298"><ele>501.57142857142856</ele><time>2026-05-02T14:05:59.856Z</time></trkpt><trkpt lat="44.2144167" lon="11.482925"><ele>502.71428571428567</ele><time>2026-05-02T14:06:03.856Z</time></trkpt><trkpt lat="44.214355" lon="11.48289"><ele>503.85714285714283</ele><time>2026-05-02T14:06:06.855Z</time></trkpt><trkpt lat="44.2142817" lon="11.482875"><ele>505.0</ele><time>2026-05-02T14:06:09.855Z</time></trkpt><trkpt lat="44.21421" lon="11.482865"><ele>505.0</ele><time>2026-05-02T14:06:12.855Z</time></trkpt><trkpt lat="44.214135" lon="11.4828717"><ele>504.99999999999994</ele><time>2026-05-02T14:06:15.855Z</time></trkpt><trkpt lat="44.2140717" lon="11.482915"><ele>505.0</ele><time>2026-05-02T14:06:18.855Z</time></trkpt><trkpt lat="44.2140183" lon="11.4829733"><ele>505.0</ele><time>2026-05-02T14:06:20.855Z</time></trkpt><trkpt lat="44.21396" lon="11.483035"><ele>504.99999999999994</ele><time>2026-05-02T14:06:22.855Z</time></trkpt><trkpt lat="44.2139" lon="11.4831067"><ele>505.0</ele><time>2026-05-02T14:06:24.856Z</time></trkpt><trkpt lat="44.2138417" lon="11.4831617"><ele>505.0</ele><time>2026-05-02T14:06:26.855Z</time></trkpt><trkpt lat="44.2137733" lon="11.48326"><ele>500.50000000000006</ele><time>2026-05-02T14:06:29.856Z</time></trkpt><trkpt lat="44.2137217" lon="11.4833467"><ele>496.0</ele><time>2026-05-02T14:06:31.855Z</time></trkpt><trkpt lat="44.2136467" lon="11.48344"><ele>491.5</ele><time>2026-05-02T14:06:33.855Z</time></trkpt><trkpt lat="44.213595" lon="11.4835033"><ele>487.0</ele><time>2026-05-02T14:06:35.855Z</time></trkpt><trkpt lat="44.2135033" lon="11.4835617"><ele>482.50000000000006</ele><time>2026-05-02T14:06:38.856Z</time></trkpt><trkpt lat="44.2134283" lon="11.4836"><ele>478.0</ele><time>2026-05-02T14:06:40.856Z</time></trkpt><trkpt lat="44.213355" lon="11.483645"><ele>478.00000000000006</ele><time>2026-05-02T14:06:42.855Z</time></trkpt><trkpt lat="44.2132767" lon="11.4836983"><ele>478.0</ele><time>2026-05-02T14:06:44.855Z</time></trkpt><trkpt lat="44.213215" lon="11.4837633"><ele>478.00000000000006</ele><time>2026-05-02T14:06:46.856Z</time></trkpt><trkpt lat="44.2131567" lon="11.4838283"><ele>478.00000000000006</ele><time>2026-05-02T14:06:48.856Z</time></trkpt><trkpt lat="44.2131017" lon="11.483885"><ele>478.0</ele><time>2026-05-02T14:06:50.855Z</time></trkpt><trkpt lat="44.2130583" lon="11.4839617"><ele>478.00000000000006</ele><time>2026-05-02T14:06:52.855Z</time></trkpt><trkpt lat="44.213005" lon="11.48402"><ele>478.00000000000006</ele><time>2026-05-02T14:06:54.856Z</time></trkpt><trkpt lat="44.2129367" lon="11.4840567"><ele>474.6666666666667</ele><time>2026-05-02T14:06:56.855Z</time></trkpt><trkpt lat="44.2128633" lon="11.4841067"><ele>471.33333333333337</ele><time>2026-05-02T14:06:59.856Z</time></trkpt><trkpt lat="44.2127883" lon="11.484115"><ele>468.0</ele><time>2026-05-02T14:07:02.855Z</time></trkpt><trkpt lat="44.2127017" lon="11.4841133"><ele>464.66666666666663</ele><time>2026-05-02T14:07:05.855Z</time></trkpt><trkpt lat="44.2126333" lon="11.4841183"><ele>461.3333333333333</ele><time>2026-05-02T14:07:07.856Z</time></trkpt><trkpt lat="44.212555" lon="11.484155"><ele>458.0</ele><time>2026-05-02T14:07:10.856Z</time></trkpt><trkpt lat="44.21248" lon="11.484215"><ele>458.0</ele><time>2026-05-02T14:07:13.855Z</time></trkpt><trkpt lat="44.21242" lon="11.4842733"><ele>457.99999999999994</ele><time>2026-05-02T14:07:15.855Z</time></trkpt><trkpt lat="44.2123567" lon="11.4843483"><ele>457.99999999999994</ele><time>2026-05-02T14:07:17.855Z</time></trkpt><trkpt lat="44.212295" lon="11.48442"><ele>458.0</ele><time>2026-05-02T14:07:19.855Z</time></trkpt><trkpt lat="44.2121983" lon="11.4845217"><ele>458.0</ele><time>2026-05-02T14:07:21.855Z</time></trkpt><trkpt lat="44.2120967" lon="11.48459"><ele>452.79999999999995</ele><time>2026-05-02T14:07:23.855Z</time></trkpt><trkpt lat="44.2119817" lon="11.4846317"><ele>447.59999999999997</ele><time>2026-05-02T14:07:25.855Z</time></trkpt><trkpt lat="44.2118767" lon="11.4846367"><ele>442.40000000000003</ele><time>2026-05-02T14:07:27.856Z</time></trkpt><trkpt lat="44.2117867" lon="11.4846267"><ele>437.20000000000005</ele><time>2026-05-02T14:07:29.856Z</time></trkpt><trkpt lat="44.211695" lon="11.4846117"><ele>432.0</ele><time>2026-05-02T14:07:31.856Z</time></trkpt><trkpt lat="44.2116133" lon="11.4846033"><ele>429.6666666666667</ele><time>2026-05-02T14:07:33.856Z</time></trkpt><trkpt lat="44.2115233" lon="11.4845883"><ele>427.33333333333337</ele><time>2026-05-02T14:07:35.855Z</time></trkpt><trkpt lat="44.211445" lon="11.48454"><ele>425.0</ele><time>2026-05-02T14:07:37.856Z</time></trkpt><trkpt lat="44.2113783" lon="11.4844667"><ele>422.6666666666667</ele><time>2026-05-02T14:07:39.855Z</time></trkpt><trkpt lat="44.21133" lon="11.4844017"><ele>420.33333333333337</ele><time>2026-05-02T14:07:41.855Z</time></trkpt><trkpt lat="44.211295" lon="11.484285"><ele>418.0</ele><time>2026-05-02T14:07:44.855Z</time></trkpt><trkpt lat="44.2113183" lon="11.484185"><ele>418.00000000000006</ele><time>2026-05-02T14:07:46.855Z</time></trkpt><trkpt lat="44.211345" lon="11.4840667"><ele>418.0</ele><time>2026-05-02T14:07:49.855Z</time></trkpt><trkpt lat="44.2113617" lon="11.4839533"><ele>418.0</ele><time>2026-05-02T14:07:52.855Z</time></trkpt><trkpt lat="44.21139" lon="11.483865"><ele>418.0</ele><time>2026-05-02T14:07:54.856Z</time></trkpt><trkpt lat="44.211395" lon="11.4837533"><ele>418.00000000000006</ele><time>2026-05-02T14:07:56.856Z</time></trkpt><trkpt lat="44.2113517" lon="11.4836483"><ele>418.0</ele><time>2026-05-02T14:07:58.856Z</time></trkpt><trkpt lat="44.21127" lon="11.48353"><ele>420.79999999999995</ele><time>2026-05-02T14:08:00.855Z</time></trkpt><trkpt lat="44.2111967" lon="11.48342"><ele>423.6</ele><time>2026-05-02T14:08:02.855Z</time></trkpt><trkpt lat="44.2111617" lon="11.4832567"><ele>426.40000000000003</ele><time>2026-05-02T14:08:04.856Z</time></trkpt><trkpt lat="44.211155" lon="11.4831633"><ele>429.20000000000005</ele><time>2026-05-02T14:08:05.856Z</time></trkpt><trkpt lat="44.21115" lon="11.4830117"><ele>432.0</ele><time>2026-05-02T14:08:07.856Z</time></trkpt><trkpt lat="44.21114" lon="11.48288"><ele>436.6666666666667</ele><time>2026-05-02T14:08:09.855Z</time></trkpt><trkpt lat="44.2111267" lon="11.4827833"><ele>441.33333333333337</ele><time>2026-05-02T14:08:11.856Z</time></trkpt><trkpt lat="44.2110767" lon="11.48269"><ele>446.0</ele><time>2026-05-02T14:08:14.856Z</time></trkpt><trkpt lat="44.2110133" lon="11.48272"><ele>450.6666666666667</ele><time>2026-05-02T14:08:16.855Z</time></trkpt><trkpt lat="44.2109217" lon="11.482755"><ele>455.33333333333337</ele><time>2026-05-02T14:08:19.856Z</time></trkpt><trkpt lat="44.21084" lon="11.4827383"><ele>460.0</ele><time>2026-05-02T14:08:21.855Z</time></trkpt><trkpt lat="44.2107433" lon="11.482715"><ele>459.6</ele><time>2026-05-02T14:08:23.855Z</time></trkpt><trkpt lat="44.2106317" lon="11.4826933"><ele>459.2</ele><time>2026-05-02T14:08:25.855Z</time></trkpt><trkpt lat="44.21052" lon="11.482675"><ele>458.79999999999995</ele><time>2026-05-02T14:08:27.855Z</time></trkpt><trkpt lat="44.210445" lon="11.4826633"><ele>458.4</ele><time>2026-05-02T14:08:29.855Z</time></trkpt><trkpt lat="44.2103833" lon="11.4826867"><ele>458.0</ele><time>2026-05-02T14:08:31.855Z</time></trkpt><trkpt lat="44.2103117" lon="11.4827617"><ele>457.99999999999994</ele><time>2026-05-02T14:08:33.856Z</time></trkpt><trkpt lat="44.21025" lon="11.4828633"><ele>458.0</ele><time>2026-05-02T14:08:35.855Z</time></trkpt><trkpt lat="44.2101783" lon="11.4829817"><ele>458.0</ele><time>2026-05-02T14:08:37.855Z</time></trkpt><trkpt lat="44.210125" lon="11.4830917"><ele>458.0</ele><time>2026-05-02T14:08:39.855Z</time></trkpt><trkpt lat="44.21006" lon="11.4831367"><ele>457.99999999999994</ele><time>2026-05-02T14:08:41.855Z</time></trkpt><trkpt lat="44.2099933" lon="11.4831333"><ele>458.0</ele><time>2026-05-02T14:08:43.856Z</time></trkpt><trkpt lat="44.209925" lon="11.4831017"><ele>457.3333333333333</ele><time>2026-05-02T14:08:45.856Z</time></trkpt><trkpt lat="44.20985" lon="11.4830367"><ele>456.66666666666663</ele><time>2026-05-02T14:08:47.855Z</time></trkpt><trkpt lat="44.2097967" lon="11.48294"><ele>456.0</ele><time>2026-05-02T14:08:49.855Z</time></trkpt><trkpt lat="44.2097833" lon="11.48282"><ele>455.33333333333337</ele><time>2026-05-02T14:08:51.856Z</time></trkpt><trkpt lat="44.2097717" lon="11.4827283"><ele>454.6666666666667</ele><time>2026-05-02T14:08:53.855Z</time></trkpt><trkpt lat="44.2097017" lon="11.4826833"><ele>454.0</ele><time>2026-05-02T14:08:56.856Z</time></trkpt><trkpt lat="44.209615" lon="11.4826467"><ele>454.00000000000006</ele><time>2026-05-02T14:08:58.856Z</time></trkpt><trkpt lat="44.20954" lon="11.4826017"><ele>454.0</ele><time>2026-05-02T14:09:00.855Z</time></trkpt><trkpt lat="44.2094567" lon="11.4826"><ele>454.0</ele><time>2026-05-02T14:09:03.856Z</time></trkpt><trkpt lat="44.20937" lon="11.4826483"><ele>454.0</ele><time>2026-05-02T14:09:06.855Z</time></trkpt><trkpt lat="44.2092783" lon="11.48267"><ele>454.00000000000006</ele><time>2026-05-02T14:09:08.855Z</time></trkpt><trkpt lat="44.2092133" lon="11.48268"><ele>454.0</ele><time>2026-05-02T14:09:10.855Z</time></trkpt><trkpt lat="44.2091683" lon="11.48275"><ele>454.00000000000006</ele><time>2026-05-02T14:09:13.856Z</time></trkpt><trkpt lat="44.20915" lon="11.4828467"><ele>454.0</ele><time>2026-05-02T14:09:15.856Z</time></trkpt><trkpt lat="44.2091767" lon="11.482955"><ele>454.0</ele><time>2026-05-02T14:09:17.855Z</time></trkpt><trkpt lat="44.2092083" lon="11.4830867"><ele>454.0</ele><time>2026-05-02T14:09:19.855Z</time></trkpt><trkpt lat="44.2092567" lon="11.4832233"><ele>454.00000000000006</ele><time>2026-05-02T14:09:21.855Z</time></trkpt><trkpt lat="44.209295" lon="11.483315"><ele>454.0</ele><time>2026-05-02T14:09:23.855Z</time></trkpt><trkpt lat="44.209325" lon="11.4834133"><ele>451.2</ele><time>2026-05-02T14:09:26.856Z</time></trkpt><trkpt lat="44.2093383" lon="11.4835417"><ele>448.4</ele><time>2026-05-02T14:09:29.855Z</time></trkpt><trkpt lat="44.2093383" lon="11.483685"><ele>445.6</ele><time>2026-05-02T14:09:31.855Z</time></trkpt><trkpt lat="44.2093333" lon="11.4838417"><ele>442.8</ele><time>2026-05-02T14:09:33.855Z</time></trkpt><trkpt lat="44.2093333" lon="11.4839867"><ele>440.0</ele><time>2026-05-02T14:09:35.855Z</time></trkpt><trkpt lat="44.2093533" lon="11.484145"><ele>439.8</ele><time>2026-05-02T14:09:37.855Z</time></trkpt><trkpt lat="44.2093633" lon="11.4843083"><ele>439.6</ele><time>2026-05-02T14:09:39.856Z</time></trkpt><trkpt lat="44.209355" lon="11.4844783"><ele>439.4</ele><time>2026-05-02T14:09:41.855Z</time></trkpt><trkpt lat="44.20935" lon="11.484635"><ele>439.2</ele><time>2026-05-02T14:09:43.855Z</time></trkpt><trkpt lat="44.209345" lon="11.4847667"><ele>439.0</ele><time>2026-05-02T14:09:45.855Z</time></trkpt><trkpt lat="44.2093367" lon="11.4848833"><ele>439.6</ele><time>2026-05-02T14:09:47.855Z</time></trkpt><trkpt lat="44.20936" lon="11.485005"><ele>440.2</ele><time>2026-05-02T14:09:49.855Z</time></trkpt><trkpt lat="44.2093767" lon="11.485145"><ele>440.80000000000007</ele><time>2026-05-02T14:09:51.855Z</time></trkpt><trkpt lat="44.20937" lon="11.4853"><ele>441.40000000000003</ele><time>2026-05-02T14:09:53.855Z</time></trkpt><trkpt lat="44.2093667" lon="11.4853967"><ele>442.0</ele><time>2026-05-02T14:09:54.855Z</time></trkpt><trkpt lat="44.2093683" lon="11.4855767"><ele>442.50000000000006</ele><time>2026-05-02T14:09:56.856Z</time></trkpt><trkpt lat="44.2093583" lon="11.4856817"><ele>443.0</ele><time>2026-05-02T14:09:57.856Z</time></trkpt><trkpt lat="44.2093483" lon="11.4857817"><ele>443.5</ele><time>2026-05-02T14:09:58.855Z</time></trkpt><trkpt lat="44.209345" lon="11.485875"><ele>444.0</ele><time>2026-05-02T14:09:59.856Z</time></trkpt><trkpt lat="44.209345" lon="11.485985"><ele>444.50000000000006</ele><time>2026-05-02T14:10:00.855Z</time></trkpt><trkpt lat="44.2093533" lon="11.4860967"><ele>445.0</ele><time>2026-05-02T14:10:01.855Z</time></trkpt><trkpt lat="44.20936" lon="11.48621"><ele>445.1666666666667</ele><time>2026-05-02T14:10:02.855Z</time></trkpt><trkpt lat="44.2093633" lon="11.48632"><ele>445.33333333333337</ele><time>2026-05-02T14:10:03.855Z</time></trkpt><trkpt lat="44.2093867" lon="11.4864267"><ele>445.5</ele><time>2026-05-02T14:10:04.856Z</time></trkpt><trkpt lat="44.2094117" lon="11.4865283"><ele>445.66666666666663</ele><time>2026-05-02T14:10:05.856Z</time></trkpt><trkpt lat="44.209435" lon="11.4866283"><ele>445.8333333333333</ele><time>2026-05-02T14:10:06.855Z</time></trkpt><trkpt lat="44.2094517" lon="11.4867317"><ele>446.0</ele><time>2026-05-02T14:10:07.855Z</time></trkpt><trkpt lat="44.2094667" lon="11.4868267"><ele>445.99999999999994</ele><time>2026-05-02T14:10:08.856Z</time></trkpt><trkpt lat="44.20946" lon="11.4869183"><ele>446.0</ele><time>2026-05-02T14:10:09.855Z</time></trkpt><trkpt lat="44.20944" lon="11.4870267"><ele>446.0</ele><time>2026-05-02T14:10:10.855Z</time></trkpt><trkpt lat="44.2094133" lon="11.4871533"><ele>446.0</ele><time>2026-05-02T14:10:11.856Z</time></trkpt><trkpt lat="44.2093833" lon="11.4872917"><ele>445.99999999999994</ele><time>2026-05-02T14:10:12.856Z</time></trkpt><trkpt lat="44.2093717" lon="11.487425"><ele>446.0</ele><time>2026-05-02T14:10:13.855Z</time></trkpt><trkpt lat="44.2093533" lon="11.487545"><ele>445.7142857142857</ele><time>2026-05-02T14:10:14.855Z</time></trkpt><trkpt lat="44.20933" lon="11.4876483"><ele>445.42857142857144</ele><time>2026-05-02T14:10:15.856Z</time></trkpt><trkpt lat="44.2093333" lon="11.4877467"><ele>445.1428571428571</ele><time>2026-05-02T14:10:16.855Z</time></trkpt><trkpt lat="44.2093433" lon="11.4878383"><ele>444.8571428571429</ele><time>2026-05-02T14:10:17.856Z</time></trkpt><trkpt lat="44.2093667" lon="11.4879267"><ele>444.5714285714286</ele><time>2026-05-02T14:10:18.856Z</time></trkpt><trkpt lat="44.209415" lon="11.4880083"><ele>444.2857142857143</ele><time>2026-05-02T14:10:19.856Z</time></trkpt><trkpt lat="44.20947" lon="11.4881033"><ele>444.0</ele><time>2026-05-02T14:10:20.855Z</time></trkpt><trkpt lat="44.2095183" lon="11.488205"><ele>444.0</ele><time>2026-05-02T14:10:21.855Z</time></trkpt><trkpt lat="44.20955" lon="11.4883183"><ele>444.0</ele><time>2026-05-02T14:10:22.856Z</time></trkpt><trkpt lat="44.2095817" lon="11.48843"><ele>444.0</ele><time>2026-05-02T14:10:23.855Z</time></trkpt><trkpt lat="44.2095917" lon="11.48855"><ele>444.0</ele><time>2026-05-02T14:10:24.855Z</time></trkpt><trkpt lat="44.2095917" lon="11.4886583"><ele>444.0</ele><time>2026-05-02T14:10:25.855Z</time></trkpt><trkpt lat="44.2095933" lon="11.48876"><ele>444.0</ele><time>2026-05-02T14:10:26.855Z</time></trkpt><trkpt lat="44.2095667" lon="11.4889317"><ele>445.0</ele><time>2026-05-02T14:10:28.855Z</time></trkpt><trkpt lat="44.2095567" lon="11.4890417"><ele>446.0</ele><time>2026-05-02T14:10:29.856Z</time></trkpt><trkpt lat="44.2095483" lon="11.4891717"><ele>447.0</ele><time>2026-05-02T14:10:30.856Z</time></trkpt><trkpt lat="44.2095483" lon="11.4893067"><ele>448.0</ele><time>2026-05-02T14:10:31.855Z</time></trkpt><trkpt lat="44.2095567" lon="11.4894567"><ele>449.0</ele><time>2026-05-02T14:10:32.855Z</time></trkpt><trkpt lat="44.2095617" lon="11.4895817"><ele>449.1428571428571</ele><time>2026-05-02T14:10:33.855Z</time></trkpt><trkpt lat="44.209565" lon="11.489695"><ele>449.2857142857142</ele><time>2026-05-02T14:10:34.856Z</time></trkpt><trkpt lat="44.2095717" lon="11.4897967"><ele>449.42857142857144</ele><time>2026-05-02T14:10:35.855Z</time></trkpt><trkpt lat="44.2095833" lon="11.48989"><ele>449.57142857142856</ele><time>2026-05-02T14:10:36.855Z</time></trkpt><trkpt lat="44.20959" lon="11.4899933"><ele>449.7142857142857</ele><time>2026-05-02T14:10:37.855Z</time></trkpt><trkpt lat="44.2095883" lon="11.4900883"><ele>449.8571428571429</ele><time>2026-05-02T14:10:38.855Z</time></trkpt><trkpt lat="44.2095733" lon="11.4901817"><ele>450.00000000000006</ele><time>2026-05-02T14:10:39.855Z</time></trkpt><trkpt lat="44.209545" lon="11.4902667"><ele>450.0</ele><time>2026-05-02T14:10:40.855Z</time></trkpt><trkpt lat="44.2095" lon="11.4903433"><ele>450.0</ele><time>2026-05-02T14:10:41.855Z</time></trkpt><trkpt lat="44.20943" lon="11.49043"><ele>450.0</ele><time>2026-05-02T14:10:42.856Z</time></trkpt><trkpt lat="44.2093433" lon="11.490515"><ele>450.0</ele><time>2026-05-02T14:10:43.855Z</time></trkpt><trkpt lat="44.2092417" lon="11.4906033"><ele>450.0</ele><time>2026-05-02T14:10:44.855Z</time></trkpt><trkpt lat="44.2091383" lon="11.4906933"><ele>451.0</ele><time>2026-05-02T14:10:45.856Z</time></trkpt><trkpt lat="44.20904" lon="11.490775"><ele>452.0</ele><time>2026-05-02T14:10:46.855Z</time></trkpt><trkpt lat="44.208955" lon="11.4908467"><ele>453.0</ele><time>2026-05-02T14:10:47.856Z</time></trkpt><trkpt lat="44.20888" lon="11.49091"><ele>454.0</ele><time>2026-05-02T14:10:48.855Z</time></trkpt><trkpt lat="44.2088017" lon="11.49097"><ele>455.0</ele><time>2026-05-02T14:10:49.855Z</time></trkpt><trkpt lat="44.2087267" lon="11.491025"><ele>454.99999999999994</ele><time>2026-05-02T14:10:50.855Z</time></trkpt><trkpt lat="44.2086567" lon="11.49108"><ele>455.0</ele><time>2026-05-02T14:10:51.856Z</time></trkpt><trkpt lat="44.208595" lon="11.49113"><ele>455.0</ele><time>2026-05-02T14:10:52.855Z</time></trkpt><trkpt lat="44.2085367" lon="11.4911983"><ele>455.0</ele><time>2026-05-02T14:10:53.855Z</time></trkpt><trkpt lat="44.2084817" lon="11.49127"><ele>454.99999999999994</ele><time>2026-05-02T14:10:54.855Z</time></trkpt><trkpt lat="44.2084267" lon="11.4913617"><ele>455.0</ele><time>2026-05-02T14:10:55.856Z</time></trkpt><trkpt lat="44.2083617" lon="11.4914867"><ele>452.5</ele><time>2026-05-02T14:10:56.856Z</time></trkpt><trkpt lat="44.208295" lon="11.4916433"><ele>450.0</ele><time>2026-05-02T14:10:57.856Z</time></trkpt><trkpt lat="44.2082367" lon="11.4917983"><ele>447.5</ele><time>2026-05-02T14:10:58.855Z</time></trkpt><trkpt lat="44.2081817" lon="11.4919367"><ele>445.0</ele><time>2026-05-02T14:10:59.855Z</time></trkpt><trkpt lat="44.2081333" lon="11.4920533"><ele>451.50000000000006</ele><time>2026-05-02T14:11:00.856Z</time></trkpt><trkpt lat="44.2081017" lon="11.4921467"><ele>458.0</ele><time>2026-05-02T14:11:01.856Z</time></trkpt><trkpt lat="44.2080717" lon="11.49224"><ele>464.5</ele><time>2026-05-02T14:11:02.854Z</time></trkpt><trkpt lat="44.2080567" lon="11.492355"><ele>471.0</ele><time>2026-05-02T14:11:03.854Z</time></trkpt><trkpt lat="44.2080567" lon="11.4924767"><ele>477.50000000000006</ele><time>2026-05-02T14:11:04.854Z</time></trkpt><trkpt lat="44.2080583" lon="11.4926033"><ele>484.0</ele><time>2026-05-02T14:11:05.855Z</time></trkpt><trkpt lat="44.2080833" lon="11.4927517"><ele>484.0</ele><time>2026-05-02T14:11:06.854Z</time></trkpt><trkpt lat="44.2081183" lon="11.4929017"><ele>484.0</ele><time>2026-05-02T14:11:07.854Z</time></trkpt><trkpt lat="44.2081517" lon="11.4930333"><ele>484.0</ele><time>2026-05-02T14:11:08.855Z</time></trkpt><trkpt lat="44.2081817" lon="11.4931683"><ele>484.0</ele><time>2026-05-02T14:11:09.855Z</time></trkpt><trkpt lat="44.208215" lon="11.4932867"><ele>484.0</ele><time>2026-05-02T14:11:10.854Z</time></trkpt><trkpt lat="44.208235" lon="11.493405"><ele>477.6666666666667</ele><time>2026-05-02T14:11:11.855Z</time></trkpt><trkpt lat="44.20825" lon="11.4935233"><ele>471.33333333333337</ele><time>2026-05-02T14:11:12.854Z</time></trkpt><trkpt lat="44.2082633" lon="11.4936283"><ele>465.0</ele><time>2026-05-02T14:11:13.855Z</time></trkpt><trkpt lat="44.2082717" lon="11.4937217"><ele>458.66666666666663</ele><time>2026-05-02T14:11:14.854Z</time></trkpt><trkpt lat="44.20828" lon="11.49387"><ele>452.3333333333333</ele><time>2026-05-02T14:11:16.854Z</time></trkpt><trkpt lat="44.208265" lon="11.4939817"><ele>446.0</ele><time>2026-05-02T14:11:18.854Z</time></trkpt><trkpt lat="44.2082533" lon="11.4940833"><ele>445.8333333333333</ele><time>2026-05-02T14:11:20.854Z</time></trkpt><trkpt lat="44.2082317" lon="11.494175"><ele>445.66666666666663</ele><time>2026-05-02T14:11:23.855Z</time></trkpt><trkpt lat="44.2082083" lon="11.4942833"><ele>445.5</ele><time>2026-05-02T14:11:27.854Z</time></trkpt><trkpt lat="44.208155" lon="11.4944017"><ele>445.33333333333337</ele><time>2026-05-02T14:11:30.854Z</time></trkpt><trkpt lat="44.2081017" lon="11.49453"><ele>445.1666666666667</ele><time>2026-05-02T14:11:32.854Z</time></trkpt><trkpt lat="44.20807" lon="11.4946267"><ele>445.0</ele><time>2026-05-02T14:11:33.854Z</time></trkpt><trkpt lat="44.208045" lon="11.4947433"><ele>448.6666666666667</ele><time>2026-05-02T14:11:34.855Z</time></trkpt><trkpt lat="44.208025" lon="11.4948617"><ele>452.33333333333337</ele><time>2026-05-02T14:11:35.854Z</time></trkpt><trkpt lat="44.2080233" lon="11.494985"><ele>456.0</ele><time>2026-05-02T14:11:36.855Z</time></trkpt><trkpt lat="44.2080267" lon="11.495095"><ele>459.66666666666663</ele><time>2026-05-02T14:11:37.855Z</time></trkpt><trkpt lat="44.20803" lon="11.495205"><ele>463.3333333333333</ele><time>2026-05-02T14:11:38.854Z</time></trkpt><trkpt lat="44.2080333" lon="11.4953033"><ele>467.0</ele><time>2026-05-02T14:11:39.854Z</time></trkpt><trkpt lat="44.20804" lon="11.4953983"><ele>461.8</ele><time>2026-05-02T14:11:40.855Z</time></trkpt><trkpt lat="44.2080233" lon="11.4955367"><ele>456.6</ele><time>2026-05-02T14:11:42.854Z</time></trkpt><trkpt lat="44.2079433" lon="11.49561"><ele>451.40000000000003</ele><time>2026-05-02T14:11:44.854Z</time></trkpt><trkpt lat="44.2078067" lon="11.495625"><ele>446.20000000000005</ele><time>2026-05-02T14:11:46.854Z</time></trkpt><trkpt lat="44.207725" lon="11.4956233"><ele>441.0</ele><time>2026-05-02T14:11:47.854Z</time></trkpt><trkpt lat="44.2076383" lon="11.49564"><ele>441.0</ele><time>2026-05-02T14:11:48.855Z</time></trkpt><trkpt lat="44.2075583" lon="11.49568"><ele>441.0</ele><time>2026-05-02T14:11:49.854Z</time></trkpt><trkpt lat="44.2074883" lon="11.4957367"><ele>441.0</ele><time>2026-05-02T14:11:50.854Z</time></trkpt><trkpt lat="44.2074133" lon="11.49581"><ele>441.0</ele><time>2026-05-02T14:11:51.854Z</time></trkpt><trkpt lat="44.207345" lon="11.495875"><ele>441.0</ele><time>2026-05-02T14:11:52.855Z</time></trkpt><trkpt lat="44.20729" lon="11.495945"><ele>441.0</ele><time>2026-05-02T14:11:53.855Z</time></trkpt><trkpt lat="44.207245" lon="11.4960167"><ele>442.1666666666667</ele><time>2026-05-02T14:11:54.854Z</time></trkpt><trkpt lat="44.207175" lon="11.496185"><ele>443.33333333333337</ele><time>2026-05-02T14:11:56.854Z</time></trkpt><trkpt lat="44.2071417" lon="11.4962717"><ele>444.5</ele><time>2026-05-02T14:11:57.854Z</time></trkpt><trkpt lat="44.2071133" lon="11.49636"><ele>445.6666666666667</ele><time>2026-05-02T14:11:58.854Z</time></trkpt><trkpt lat="44.2070817" lon="11.4964567"><ele>446.83333333333337</ele><time>2026-05-02T14:11:59.854Z</time></trkpt><trkpt lat="44.2070483" lon="11.4965383"><ele>448.0</ele><time>2026-05-02T14:12:00.855Z</time></trkpt><trkpt lat="44.206985" lon="11.4966917"><ele>448.0</ele><time>2026-05-02T14:12:02.854Z</time></trkpt><trkpt lat="44.2069483" lon="11.4967683"><ele>447.99999999999994</ele><time>2026-05-02T14:12:03.854Z</time></trkpt><trkpt lat="44.2068783" lon="11.496895"><ele>447.99999999999994</ele><time>2026-05-02T14:12:05.855Z</time></trkpt><trkpt lat="44.206815" lon="11.4970517"><ele>448.0</ele><time>2026-05-02T14:12:07.854Z</time></trkpt><trkpt lat="44.20679" lon="11.49715"><ele>448.0</ele><time>2026-05-02T14:12:08.855Z</time></trkpt><trkpt lat="44.2067667" lon="11.497255"><ele>443.59999999999997</ele><time>2026-05-02T14:12:09.854Z</time></trkpt><trkpt lat="44.2067483" lon="11.4973567"><ele>439.19999999999993</ele><time>2026-05-02T14:12:10.855Z</time></trkpt><trkpt lat="44.2067367" lon="11.4975217"><ele>434.8</ele><time>2026-05-02T14:12:12.854Z</time></trkpt><trkpt lat="44.2067017" lon="11.4977083"><ele>430.4</ele><time>2026-05-02T14:12:14.855Z</time></trkpt><trkpt lat="44.2066833" lon="11.4977983"><ele>426.0</ele><time>2026-05-02T14:12:15.855Z</time></trkpt><trkpt lat="44.2066633" lon="11.4979367"><ele>423.0</ele><time>2026-05-02T14:12:17.854Z</time></trkpt><trkpt lat="44.20662" lon="11.498095"><ele>420.0</ele><time>2026-05-02T14:12:19.855Z</time></trkpt><trkpt lat="44.206575" lon="11.4982483"><ele>417.0</ele><time>2026-05-02T14:12:21.854Z</time></trkpt><trkpt lat="44.2065033" lon="11.4983667"><ele>414.0</ele><time>2026-05-02T14:12:23.855Z</time></trkpt><trkpt lat="44.2064433" lon="11.4984183"><ele>411.0</ele><time>2026-05-02T14:12:24.855Z</time></trkpt><trkpt lat="44.2062967" lon="11.49851"><ele>411.0</ele><time>2026-05-02T14:12:26.855Z</time></trkpt><trkpt lat="44.206205" lon="11.49857"><ele>411.0</ele><time>2026-05-02T14:12:27.855Z</time></trkpt><trkpt lat="44.20612" lon="11.4986217"><ele>411.0</ele><time>2026-05-02T14:12:28.854Z</time></trkpt><trkpt lat="44.2060333" lon="11.4986733"><ele>411.0</ele><time>2026-05-02T14:12:29.854Z</time></trkpt><trkpt lat="44.205945" lon="11.49872"><ele>411.0</ele><time>2026-05-02T14:12:30.854Z</time></trkpt><trkpt lat="44.205855" lon="11.498755"><ele>409.0</ele><time>2026-05-02T14:12:31.854Z</time></trkpt><trkpt lat="44.2057767" lon="11.4987733"><ele>407.0</ele><time>2026-05-02T14:12:32.854Z</time></trkpt><trkpt lat="44.2057133" lon="11.4987617"><ele>405.0</ele><time>2026-05-02T14:12:33.854Z</time></trkpt><trkpt lat="44.2056033" lon="11.4986883"><ele>403.0</ele><time>2026-05-02T14:12:35.854Z</time></trkpt><trkpt lat="44.205545" lon="11.4986317"><ele>401.0</ele><time>2026-05-02T14:12:36.854Z</time></trkpt><trkpt lat="44.20544" lon="11.4985783"><ele>399.0</ele><time>2026-05-02T14:12:38.854Z</time></trkpt><trkpt lat="44.205365" lon="11.4986183"><ele>399.0</ele><time>2026-05-02T14:12:40.854Z</time></trkpt><trkpt lat="44.205365" lon="11.4987117"><ele>399.0</ele><time>2026-05-02T14:12:42.854Z</time></trkpt><trkpt lat="44.20543" lon="11.4988167"><ele>399.0</ele><time>2026-05-02T14:12:44.854Z</time></trkpt><trkpt lat="44.2055117" lon="11.4989367"><ele>399.0</ele><time>2026-05-02T14:12:46.854Z</time></trkpt><trkpt lat="44.20556" lon="11.4991033"><ele>399.0</ele><time>2026-05-02T14:12:48.855Z</time></trkpt><trkpt lat="44.2055783" lon="11.4991967"><ele>396.6666666666667</ele><time>2026-05-02T14:12:49.854Z</time></trkpt><trkpt lat="44.2055917" lon="11.4993033"><ele>394.33333333333337</ele><time>2026-05-02T14:12:50.855Z</time></trkpt><trkpt lat="44.2056117" lon="11.4994183"><ele>392.0</ele><time>2026-05-02T14:12:51.854Z</time></trkpt><trkpt lat="44.2056283" lon="11.4995283"><ele>389.6666666666667</ele><time>2026-05-02T14:12:52.854Z</time></trkpt><trkpt lat="44.20564" lon="11.4996317"><ele>387.33333333333337</ele><time>2026-05-02T14:12:53.854Z</time></trkpt><trkpt lat="44.20564" lon="11.49973"><ele>385.0</ele><time>2026-05-02T14:12:54.854Z</time></trkpt><trkpt lat="44.2056383" lon="11.4998267"><ele>381.4</ele><time>2026-05-02T14:12:55.855Z</time></trkpt><trkpt lat="44.2056633" lon="11.4999617"><ele>377.8</ele><time>2026-05-02T14:12:57.855Z</time></trkpt><trkpt lat="44.20573" lon="11.5000483"><ele>374.20000000000005</ele><time>2026-05-02T14:12:59.854Z</time></trkpt><trkpt lat="44.2058267" lon="11.50008"><ele>370.6</ele><time>2026-05-02T14:13:01.855Z</time></trkpt><trkpt lat="44.2059333" lon="11.5000233"><ele>367.0</ele><time>2026-05-02T14:13:03.854Z</time></trkpt><trkpt lat="44.20599" lon="11.4999717"><ele>367.0</ele><time>2026-05-02T14:13:04.855Z</time></trkpt><trkpt lat="44.2060483" lon="11.4999117"><ele>367.0</ele><time>2026-05-02T14:13:05.855Z</time></trkpt><trkpt lat="44.206105" lon="11.49986"><ele>367.0</ele><time>2026-05-02T14:13:06.854Z</time></trkpt><trkpt lat="44.2061683" lon="11.4998033"><ele>367.0</ele><time>2026-05-02T14:13:07.854Z</time></trkpt><trkpt lat="44.206225" lon="11.49975"><ele>367.0</ele><time>2026-05-02T14:13:08.854Z</time></trkpt><trkpt lat="44.2062767" lon="11.4996983"><ele>367.0</ele><time>2026-05-02T14:13:09.854Z</time></trkpt><trkpt lat="44.2063717" lon="11.4996717"><ele>367.0</ele><time>2026-05-02T14:13:11.854Z</time></trkpt><trkpt lat="44.2064733" lon="11.4997033"><ele>365.6</ele><time>2026-05-02T14:13:13.855Z</time></trkpt><trkpt lat="44.2065333" lon="11.499835"><ele>364.20000000000005</ele><time>2026-05-02T14:13:15.854Z</time></trkpt><trkpt lat="44.2065283" lon="11.4999267"><ele>362.8</ele><time>2026-05-02T14:13:16.854Z</time></trkpt><trkpt lat="44.20652" lon="11.5000217"><ele>361.4</ele><time>2026-05-02T14:13:17.854Z</time></trkpt><trkpt lat="44.2065383" lon="11.5001733"><ele>360.0</ele><time>2026-05-02T14:13:19.854Z</time></trkpt><trkpt lat="44.2066283" lon="11.5002733"><ele>360.0</ele><time>2026-05-02T14:13:21.854Z</time></trkpt><trkpt lat="44.2066883" lon="11.5003167"><ele>360.0</ele><time>2026-05-02T14:13:22.854Z</time></trkpt><trkpt lat="44.206755" lon="11.5003533"><ele>360.0</ele><time>2026-05-02T14:13:23.855Z</time></trkpt><trkpt lat="44.2068267" lon="11.5003883"><ele>360.0</ele><time>2026-05-02T14:13:24.855Z</time></trkpt><trkpt lat="44.20689" lon="11.5004283"><ele>360.0</ele><time>2026-05-02T14:13:25.855Z</time></trkpt><trkpt lat="44.2069483" lon="11.5004617"><ele>360.0</ele><time>2026-05-02T14:13:26.854Z</time></trkpt><trkpt lat="44.207055" lon="11.50048"><ele>360.0</ele><time>2026-05-02T14:13:28.854Z</time></trkpt><trkpt lat="44.20717" lon="11.50043"><ele>360.0</ele><time>2026-05-02T14:13:30.854Z</time></trkpt><trkpt lat="44.207285" lon="11.5003433"><ele>360.0</ele><time>2026-05-02T14:13:32.854Z</time></trkpt><trkpt lat="44.20735" lon="11.5002867"><ele>360.0</ele><time>2026-05-02T14:13:33.854Z</time></trkpt><trkpt lat="44.2074167" lon="11.50021"><ele>360.0</ele><time>2026-05-02T14:13:34.855Z</time></trkpt><trkpt lat="44.2074667" lon="11.500135"><ele>360.8333333333333</ele><time>2026-05-02T14:13:35.855Z</time></trkpt><trkpt lat="44.20751" lon="11.5000317"><ele>361.6666666666667</ele><time>2026-05-02T14:13:36.854Z</time></trkpt><trkpt lat="44.20756" lon="11.4999383"><ele>362.5</ele><time>2026-05-02T14:13:37.854Z</time></trkpt><trkpt lat="44.207625" lon="11.499835"><ele>363.33333333333337</ele><time>2026-05-02T14:13:38.854Z</time></trkpt><trkpt lat="44.207685" lon="11.4997433"><ele>364.1666666666667</ele><time>2026-05-02T14:13:39.854Z</time></trkpt><trkpt lat="44.207745" lon="11.4996467"><ele>365.0</ele><time>2026-05-02T14:13:40.854Z</time></trkpt><trkpt lat="44.2077867" lon="11.4995583"><ele>365.0</ele><time>2026-05-02T14:13:41.855Z</time></trkpt><trkpt lat="44.2078" lon="11.49945"><ele>365.0</ele><time>2026-05-02T14:13:42.854Z</time></trkpt><trkpt lat="44.20781" lon="11.4993533"><ele>365.0</ele><time>2026-05-02T14:13:43.855Z</time></trkpt><trkpt lat="44.2078283" lon="11.4992633"><ele>365.0</ele><time>2026-05-02T14:13:44.854Z</time></trkpt><trkpt lat="44.2078617" lon="11.4991883"><ele>365.0</ele><time>2026-05-02T14:13:45.854Z</time></trkpt><trkpt lat="44.20792" lon="11.4990633"><ele>365.0</ele><time>2026-05-02T14:13:47.854Z</time></trkpt><trkpt lat="44.2080283" lon="11.4989783"><ele>365.0</ele><time>2026-05-02T14:13:49.854Z</time></trkpt><trkpt lat="44.2080883" lon="11.49894"><ele>365.0</ele><time>2026-05-02T14:13:50.855Z</time></trkpt><trkpt lat="44.2081867" lon="11.4988433"><ele>365.0</ele><time>2026-05-02T14:13:52.855Z</time></trkpt><trkpt lat="44.2082267" lon="11.4987717"><ele>365.0</ele><time>2026-05-02T14:13:53.855Z</time></trkpt><trkpt lat="44.208265" lon="11.498695"><ele>365.0</ele><time>2026-05-02T14:13:54.854Z</time></trkpt><trkpt lat="44.2083433" lon="11.498605"><ele>365.0</ele><time>2026-05-02T14:13:56.855Z</time></trkpt><trkpt lat="44.208445" lon="11.4986067"><ele>362.6</ele><time>2026-05-02T14:13:58.854Z</time></trkpt><trkpt lat="44.2085367" lon="11.4985933"><ele>360.2</ele><time>2026-05-02T14:14:00.855Z</time></trkpt><trkpt lat="44.2086333" lon="11.4984517"><ele>357.79999999999995</ele><time>2026-05-02T14:14:02.854Z</time></trkpt><trkpt lat="44.2086683" lon="11.4983433"><ele>355.4</ele><time>2026-05-02T14:14:03.854Z</time></trkpt><trkpt lat="44.2087083" lon="11.49826"><ele>353.0</ele><time>2026-05-02T14:14:04.855Z</time></trkpt><trkpt lat="44.20876" lon="11.4982033"><ele>353.0</ele><time>2026-05-02T14:14:05.855Z</time></trkpt><trkpt lat="44.2088833" lon="11.4981633"><ele>353.0</ele><time>2026-05-02T14:14:07.854Z</time></trkpt><trkpt lat="44.208955" lon="11.4981567"><ele>353.0</ele><time>2026-05-02T14:14:08.855Z</time></trkpt><trkpt lat="44.2090267" lon="11.4981333"><ele>353.0</ele><time>2026-05-02T14:14:09.854Z</time></trkpt><trkpt lat="44.2091083" lon="11.4980733"><ele>353.0</ele><time>2026-05-02T14:14:10.854Z</time></trkpt><trkpt lat="44.209175" lon="11.497995"><ele>351.0</ele><time>2026-05-02T14:14:11.854Z</time></trkpt><trkpt lat="44.2092333" lon="11.4979083"><ele>349.0</ele><time>2026-05-02T14:14:12.855Z</time></trkpt><trkpt lat="44.209265" lon="11.4978267"><ele>347.0</ele><time>2026-05-02T14:14:13.855Z</time></trkpt><trkpt lat="44.2092883" lon="11.497675"><ele>345.0</ele><time>2026-05-02T14:14:15.854Z</time></trkpt><trkpt lat="44.209335" lon="11.4976067"><ele>343.0</ele><time>2026-05-02T14:14:17.854Z</time></trkpt><trkpt lat="44.209405" lon="11.49769"><ele>341.0</ele><time>2026-05-02T14:14:20.854Z</time></trkpt><trkpt lat="44.2094067" lon="11.49778"><ele>341.0</ele><time>2026-05-02T14:14:21.855Z</time></trkpt><trkpt lat="44.2093883" lon="11.4979083"><ele>341.0</ele><time>2026-05-02T14:14:22.854Z</time></trkpt><trkpt lat="44.2093717" lon="11.4980267"><ele>341.0</ele><time>2026-05-02T14:14:23.855Z</time></trkpt><trkpt lat="44.2093467" lon="11.4981167"><ele>341.0</ele><time>2026-05-02T14:14:24.854Z</time></trkpt><trkpt lat="44.2093083" lon="11.4982017"><ele>341.0</ele><time>2026-05-02T14:14:25.854Z</time></trkpt><trkpt lat="44.20926" lon="11.4982817"><ele>341.0</ele><time>2026-05-02T14:14:26.854Z</time></trkpt><trkpt lat="44.2091967" lon="11.4983633"><ele>343.0</ele><time>2026-05-02T14:14:27.855Z</time></trkpt><trkpt lat="44.20913" lon="11.4984417"><ele>345.0</ele><time>2026-05-02T14:14:28.854Z</time></trkpt><trkpt lat="44.2090717" lon="11.49852"><ele>347.0</ele><time>2026-05-02T14:14:29.854Z</time></trkpt><trkpt lat="44.2090233" lon="11.4986083"><ele>349.0</ele><time>2026-05-02T14:14:30.854Z</time></trkpt><trkpt lat="44.2089783" lon="11.498685"><ele>351.0</ele><time>2026-05-02T14:14:31.854Z</time></trkpt><trkpt lat="44.2089367" lon="11.49877"><ele>353.0</ele><time>2026-05-02T14:14:32.854Z</time></trkpt><trkpt lat="44.2088883" lon="11.4988417"><ele>348.0</ele><time>2026-05-02T14:14:33.854Z</time></trkpt><trkpt lat="44.2088367" lon="11.498895"><ele>343.0</ele><time>2026-05-02T14:14:34.854Z</time></trkpt><trkpt lat="44.20878" lon="11.49894"><ele>338.0</ele><time>2026-05-02T14:14:35.854Z</time></trkpt><trkpt lat="44.20872" lon="11.4989683"><ele>333.0</ele><time>2026-05-02T14:14:36.854Z</time></trkpt><trkpt lat="44.2086617" lon="11.4990133"><ele>328.0</ele><time>2026-05-02T14:14:37.854Z</time></trkpt><trkpt lat="44.2085817" lon="11.4991017"><ele>323.0</ele><time>2026-05-02T14:14:39.854Z</time></trkpt><trkpt lat="44.20856" lon="11.4992517"><ele>323.0</ele><time>2026-05-02T14:14:41.854Z</time></trkpt><trkpt lat="44.2084883" lon="11.4993817"><ele>323.0</ele><time>2026-05-02T14:14:43.854Z</time></trkpt><trkpt lat="44.20843" lon="11.4994367"><ele>323.0</ele><time>2026-05-02T14:14:44.855Z</time></trkpt><trkpt lat="44.2083817" lon="11.4994967"><ele>323.0</ele><time>2026-05-02T14:14:45.854Z</time></trkpt><trkpt lat="44.2083133" lon="11.4996183"><ele>323.0</ele><time>2026-05-02T14:14:47.854Z</time></trkpt><trkpt lat="44.2083033" lon="11.499765"><ele>322.33333333333337</ele><time>2026-05-02T14:14:49.855Z</time></trkpt><trkpt lat="44.2083017" lon="11.49992"><ele>321.6666666666667</ele><time>2026-05-02T14:14:51.855Z</time></trkpt><trkpt lat="44.20827" lon="11.500015"><ele>321.0</ele><time>2026-05-02T14:14:52.854Z</time></trkpt><trkpt lat="44.2082333" lon="11.5001167"><ele>320.3333333333333</ele><time>2026-05-02T14:14:53.854Z</time></trkpt><trkpt lat="44.2082017" lon="11.5002183"><ele>319.66666666666663</ele><time>2026-05-02T14:14:54.854Z</time></trkpt><trkpt lat="44.2081733" lon="11.5003233"><ele>319.0</ele><time>2026-05-02T14:14:55.854Z</time></trkpt><trkpt lat="44.20815" lon="11.5004233"><ele>319.0</ele><time>2026-05-02T14:14:56.854Z</time></trkpt><trkpt lat="44.20812" lon="11.500525"><ele>319.0</ele><time>2026-05-02T14:14:57.855Z</time></trkpt><trkpt lat="44.2080883" lon="11.5006217"><ele>319.0</ele><time>2026-05-02T14:14:58.854Z</time></trkpt><trkpt lat="44.2080517" lon="11.5006983"><ele>319.0</ele><time>2026-05-02T14:14:59.854Z</time></trkpt><trkpt lat="44.2080017" lon="11.5007667"><ele>319.0</ele><time>2026-05-02T14:15:00.854Z</time></trkpt><trkpt lat="44.2079433" lon="11.5008167"><ele>319.0</ele><time>2026-05-02T14:15:01.854Z</time></trkpt><trkpt lat="44.2078683" lon="11.500875"><ele>319.0</ele><time>2026-05-02T14:15:02.854Z</time></trkpt><trkpt lat="44.2077983" lon="11.50092"><ele>319.0</ele><time>2026-05-02T14:15:03.854Z</time></trkpt><trkpt lat="44.207745" lon="11.500975"><ele>319.0</ele><time>2026-05-02T14:15:04.855Z</time></trkpt><trkpt lat="44.2077" lon="11.50104"><ele>319.0</ele><time>2026-05-02T14:15:05.854Z</time></trkpt><trkpt lat="44.2076583" lon="11.5011883"><ele>319.0</ele><time>2026-05-02T14:15:07.854Z</time></trkpt><trkpt lat="44.2076517" lon="11.5012833"><ele>319.0</ele><time>2026-05-02T14:15:08.855Z</time></trkpt><trkpt lat="44.2076483" lon="11.5013717"><ele>319.0</ele><time>2026-05-02T14:15:09.854Z</time></trkpt><trkpt lat="44.2076" lon="11.5015533"><ele>314.3333333333333</ele><time>2026-05-02T14:15:11.855Z</time></trkpt><trkpt lat="44.2075467" lon="11.5016467"><ele>309.66666666666663</ele><time>2026-05-02T14:15:12.854Z</time></trkpt><trkpt lat="44.2074917" lon="11.50173"><ele>305.0</ele><time>2026-05-02T14:15:13.854Z</time></trkpt><trkpt lat="44.2074317" lon="11.5018167"><ele>300.3333333333333</ele><time>2026-05-02T14:15:14.855Z</time></trkpt><trkpt lat="44.20738" lon="11.5018817"><ele>295.6666666666667</ele><time>2026-05-02T14:15:15.854Z</time></trkpt><trkpt lat="44.2073367" lon="11.5019567"><ele>291.0</ele><time>2026-05-02T14:15:16.854Z</time></trkpt><trkpt lat="44.20734" lon="11.50208"><ele>291.0</ele><time>2026-05-02T14:15:18.854Z</time></trkpt><trkpt lat="44.2074233" lon="11.50208"><ele>291.0</ele><time>2026-05-02T14:15:20.854Z</time></trkpt><trkpt lat="44.207475" lon="11.5020233"><ele>291.0</ele><time>2026-05-02T14:15:21.855Z</time></trkpt><trkpt lat="44.2075533" lon="11.5019067"><ele>291.0</ele><time>2026-05-02T14:15:22.854Z</time></trkpt><trkpt lat="44.2076233" lon="11.5017967"><ele>291.0</ele><time>2026-05-02T14:15:23.854Z</time></trkpt><trkpt lat="44.2076883" lon="11.5017033"><ele>291.0</ele><time>2026-05-02T14:15:24.854Z</time></trkpt><trkpt lat="44.2077383" lon="11.50163"><ele>291.0</ele><time>2026-05-02T14:15:25.854Z</time></trkpt><trkpt lat="44.2078283" lon="11.5015683"><ele>291.0</ele><time>2026-05-02T14:15:27.854Z</time></trkpt><trkpt lat="44.2077933" lon="11.5017033"><ele>291.0</ele><time>2026-05-02T14:15:31.855Z</time></trkpt><trkpt lat="44.207755" lon="11.5017733"><ele>291.0</ele><time>2026-05-02T14:15:32.854Z</time></trkpt><trkpt lat="44.2077167" lon="11.5018683"><ele>291.0</ele><time>2026-05-02T14:15:33.854Z</time></trkpt><trkpt lat="44.2076867" lon="11.5019583"><ele>291.0</ele><time>2026-05-02T14:15:34.854Z</time></trkpt><trkpt lat="44.2076817" lon="11.5020517"><ele>291.0</ele><time>2026-05-02T14:15:35.854Z</time></trkpt><trkpt lat="44.2076883" lon="11.5021467"><ele>291.0</ele><time>2026-05-02T14:15:36.854Z</time></trkpt><trkpt lat="44.20769" lon="11.502245"><ele>291.0</ele><time>2026-05-02T14:15:37.855Z</time></trkpt><trkpt lat="44.2076817" lon="11.5023367"><ele>291.0</ele><time>2026-05-02T14:15:38.855Z</time></trkpt><trkpt lat="44.207615" lon="11.5024617"><ele>291.0</ele><time>2026-05-02T14:15:40.854Z</time></trkpt><trkpt lat="44.2075533" lon="11.502485"><ele>291.0</ele><time>2026-05-02T14:15:41.855Z</time></trkpt><trkpt lat="44.2074817" lon="11.5025"><ele>287.1666666666667</ele><time>2026-05-02T14:15:42.854Z</time></trkpt><trkpt lat="44.2074083" lon="11.502515"><ele>283.3333333333333</ele><time>2026-05-02T14:15:43.854Z</time></trkpt><trkpt lat="44.2073233" lon="11.5025333"><ele>279.5</ele><time>2026-05-02T14:15:44.854Z</time></trkpt><trkpt lat="44.2072317" lon="11.5025533"><ele>275.66666666666663</ele><time>2026-05-02T14:15:45.854Z</time></trkpt><trkpt lat="44.2071383" lon="11.5025967"><ele>271.8333333333333</ele><time>2026-05-02T14:15:46.855Z</time></trkpt><trkpt lat="44.2070467" lon="11.502625"><ele>268.0</ele><time>2026-05-02T14:15:47.855Z</time></trkpt><trkpt lat="44.206965" lon="11.5026533"><ele>268.0</ele><time>2026-05-02T14:15:48.855Z</time></trkpt><trkpt lat="44.2068867" lon="11.50266"><ele>268.0</ele><time>2026-05-02T14:15:49.854Z</time></trkpt><trkpt lat="44.2068083" lon="11.502655"><ele>268.0</ele><time>2026-05-02T14:15:50.855Z</time></trkpt><trkpt lat="44.2067333" lon="11.50263"><ele>268.0</ele><time>2026-05-02T14:15:51.854Z</time></trkpt><trkpt lat="44.206665" lon="11.5025867"><ele>268.0</ele><time>2026-05-02T14:15:52.854Z</time></trkpt><trkpt lat="44.2065967" lon="11.502545"><ele>268.0</ele><time>2026-05-02T14:15:53.854Z</time></trkpt><trkpt lat="44.206525" lon="11.502525"><ele>267.2857142857143</ele><time>2026-05-02T14:15:54.854Z</time></trkpt><trkpt lat="44.2064517" lon="11.5025283"><ele>266.57142857142856</ele><time>2026-05-02T14:15:55.854Z</time></trkpt><trkpt lat="44.206375" lon="11.5025567"><ele>265.85714285714283</ele><time>2026-05-02T14:15:56.854Z</time></trkpt><trkpt lat="44.2063117" lon="11.5026083"><ele>265.1428571428571</ele><time>2026-05-02T14:15:57.854Z</time></trkpt><trkpt lat="44.2062533" lon="11.5026667"><ele>264.4285714285714</ele><time>2026-05-02T14:15:58.854Z</time></trkpt><trkpt lat="44.2061983" lon="11.50273"><ele>263.7142857142857</ele><time>2026-05-02T14:15:59.854Z</time></trkpt><trkpt lat="44.2061433" lon="11.50278"><ele>263.0</ele><time>2026-05-02T14:16:00.855Z</time></trkpt><trkpt lat="44.2060817" lon="11.5028033"><ele>263.0</ele><time>2026-05-02T14:16:01.854Z</time></trkpt><trkpt lat="44.2060083" lon="11.502805"><ele>263.0</ele><time>2026-05-02T14:16:02.854Z</time></trkpt><trkpt lat="44.2059383" lon="11.5027867"><ele>263.0</ele><time>2026-05-02T14:16:03.854Z</time></trkpt><trkpt lat="44.205875" lon="11.5027367"><ele>263.0</ele><time>2026-05-02T14:16:04.854Z</time></trkpt><trkpt lat="44.205805" lon="11.50266"><ele>263.0</ele><time>2026-05-02T14:16:05.854Z</time></trkpt><trkpt lat="44.205745" lon="11.5025867"><ele>263.0</ele><time>2026-05-02T14:16:06.854Z</time></trkpt><trkpt lat="44.2056883" lon="11.5025333"><ele>264.0</ele><time>2026-05-02T14:16:07.854Z</time></trkpt><trkpt lat="44.2055817" lon="11.502505"><ele>265.0</ele><time>2026-05-02T14:16:09.855Z</time></trkpt><trkpt lat="44.2055083" lon="11.5026083"><ele>266.0</ele><time>2026-05-02T14:16:11.855Z</time></trkpt><trkpt lat="44.2054683" lon="11.50278"><ele>267.0</ele><time>2026-05-02T14:16:13.854Z</time></trkpt><trkpt lat="44.2054533" lon="11.50288"><ele>268.0</ele><time>2026-05-02T14:16:14.854Z</time></trkpt><trkpt lat="44.2054417" lon="11.50297"><ele>263.0</ele><time>2026-05-02T14:16:15.854Z</time></trkpt><trkpt lat="44.2054033" lon="11.5031017"><ele>258.0</ele><time>2026-05-02T14:16:17.854Z</time></trkpt><trkpt lat="44.2053733" lon="11.50321"><ele>253.0</ele><time>2026-05-02T14:16:20.855Z</time></trkpt><trkpt lat="44.205295" lon="11.5032517"><ele>248.0</ele><time>2026-05-02T14:16:23.854Z</time></trkpt><trkpt lat="44.2052133" lon="11.5032433"><ele>243.0</ele><time>2026-05-02T14:16:24.854Z</time></trkpt><trkpt lat="44.2051" lon="11.503225"><ele>243.0</ele><time>2026-05-02T14:16:25.854Z</time></trkpt><trkpt lat="44.2049683" lon="11.5032083"><ele>243.0</ele><time>2026-05-02T14:16:26.855Z</time></trkpt><trkpt lat="44.20482" lon="11.5031767"><ele>243.0</ele><time>2026-05-02T14:16:27.854Z</time></trkpt><trkpt lat="44.20467" lon="11.50315"><ele>243.0</ele><time>2026-05-02T14:16:28.854Z</time></trkpt><trkpt lat="44.2045267" lon="11.503125"><ele>243.66666666666669</ele><time>2026-05-02T14:16:29.855Z</time></trkpt><trkpt lat="44.2043817" lon="11.5031133"><ele>244.33333333333334</ele><time>2026-05-02T14:16:30.854Z</time></trkpt><trkpt lat="44.2042233" lon="11.503105"><ele>245.0</ele><time>2026-05-02T14:16:31.854Z</time></trkpt><trkpt lat="44.2040633" lon="11.5031067"><ele>244.33333333333334</ele><time>2026-05-02T14:16:32.854Z</time></trkpt><trkpt lat="44.2038967" lon="11.5031017"><ele>243.66666666666669</ele><time>2026-05-02T14:16:33.854Z</time></trkpt><trkpt lat="44.2037317" lon="11.5031133"><ele>243.0</ele><time>2026-05-02T14:16:34.855Z</time></trkpt><trkpt lat="44.2035683" lon="11.5031217"><ele>243.0</ele><time>2026-05-02T14:16:35.854Z</time></trkpt><trkpt lat="44.2034033" lon="11.5031217"><ele>243.0</ele><time>2026-05-02T14:16:36.854Z</time></trkpt><trkpt lat="44.20325" lon="11.5031"><ele>243.0</ele><time>2026-05-02T14:16:37.854Z</time></trkpt><trkpt lat="44.2031167" lon="11.5030567"><ele>245.0</ele><time>2026-05-02T14:16:38.854Z</time></trkpt><trkpt lat="44.2030033" lon="11.503"><ele>247.0</ele><time>2026-05-02T14:16:39.854Z</time></trkpt><trkpt lat="44.2028967" lon="11.5029783"><ele>249.0</ele><time>2026-05-02T14:16:40.854Z</time></trkpt><trkpt lat="44.2027917" lon="11.5030017"><ele>251.0</ele><time>2026-05-02T14:16:41.854Z</time></trkpt><trkpt lat="44.2026817" lon="11.5030667"><ele>251.0</ele><time>2026-05-02T14:16:42.854Z</time></trkpt><trkpt lat="44.20258" lon="11.5031517"><ele>251.0</ele><time>2026-05-02T14:16:43.854Z</time></trkpt><trkpt lat="44.2024483" lon="11.5032233"><ele>251.0</ele><time>2026-05-02T14:16:44.854Z</time></trkpt><trkpt lat="44.2022983" lon="11.5032533"><ele>251.0</ele><time>2026-05-02T14:16:45.854Z</time></trkpt><trkpt lat="44.202145" lon="11.5032467"><ele>251.66666666666669</ele><time>2026-05-02T14:16:46.854Z</time></trkpt><trkpt lat="44.201985" lon="11.5032217"><ele>252.33333333333331</ele><time>2026-05-02T14:16:47.855Z</time></trkpt><trkpt lat="44.2018167" lon="11.503185"><ele>253.0</ele><time>2026-05-02T14:16:48.854Z</time></trkpt><trkpt lat="44.2016317" lon="11.50315"><ele>253.33333333333331</ele><time>2026-05-02T14:16:49.854Z</time></trkpt><trkpt lat="44.2014367" lon="11.50313"><ele>253.66666666666669</ele><time>2026-05-02T14:16:50.855Z</time></trkpt><trkpt lat="44.2012433" lon="11.5031183"><ele>254.0</ele><time>2026-05-02T14:16:51.854Z</time></trkpt><trkpt lat="44.20105" lon="11.5030967"><ele>254.0</ele><time>2026-05-02T14:16:52.855Z</time></trkpt><trkpt lat="44.200855" lon="11.5030767"><ele>254.0</ele><time>2026-05-02T14:16:53.854Z</time></trkpt><trkpt lat="44.2006767" lon="11.5030533"><ele>254.0</ele><time>2026-05-02T14:16:54.854Z</time></trkpt><trkpt lat="44.20052" lon="11.5030333"><ele>252.75</ele><time>2026-05-02T14:16:55.854Z</time></trkpt><trkpt lat="44.20037" lon="11.50302"><ele>251.5</ele><time>2026-05-02T14:16:56.854Z</time></trkpt><trkpt lat="44.2002333" lon="11.5030033"><ele>250.25</ele><time>2026-05-02T14:16:57.854Z</time></trkpt><trkpt lat="44.200115" lon="11.5029467"><ele>249.0</ele><time>2026-05-02T14:16:58.855Z</time></trkpt><trkpt lat="44.2000033" lon="11.5028383"><ele>253.25</ele><time>2026-05-02T14:16:59.854Z</time></trkpt><trkpt lat="44.199915" lon="11.5027017"><ele>257.5</ele><time>2026-05-02T14:17:00.854Z</time></trkpt><trkpt lat="44.19983" lon="11.5025867"><ele>261.75</ele><time>2026-05-02T14:17:01.854Z</time></trkpt><trkpt lat="44.1997433" lon="11.5024967"><ele>266.0</ele><time>2026-05-02T14:17:02.854Z</time></trkpt><trkpt lat="44.1996283" lon="11.50244"><ele>266.0</ele><time>2026-05-02T14:17:03.854Z</time></trkpt><trkpt lat="44.1995083" lon="11.502425"><ele>266.0</ele><time>2026-05-02T14:17:04.854Z</time></trkpt><trkpt lat="44.199385" lon="11.5024517"><ele>266.0</ele><time>2026-05-02T14:17:05.854Z</time></trkpt><trkpt lat="44.1992717" lon="11.5025267"><ele>266.0</ele><time>2026-05-02T14:17:06.854Z</time></trkpt><trkpt lat="44.1991567" lon="11.5026017"><ele>266.0</ele><time>2026-05-02T14:17:07.855Z</time></trkpt><trkpt lat="44.1990267" lon="11.50264"><ele>266.0</ele><time>2026-05-02T14:17:08.854Z</time></trkpt><trkpt lat="44.1988817" lon="11.502625"><ele>266.0</ele><time>2026-05-02T14:17:09.854Z</time></trkpt><trkpt lat="44.1987233" lon="11.502585"><ele>266.0</ele><time>2026-05-02T14:17:10.855Z</time></trkpt><trkpt lat="44.1985733" lon="11.502535"><ele>261.0</ele><time>2026-05-02T14:17:11.854Z</time></trkpt><trkpt lat="44.1984383" lon="11.5024883"><ele>256.0</ele><time>2026-05-02T14:17:12.854Z</time></trkpt><trkpt lat="44.198305" lon="11.5023983"><ele>251.0</ele><time>2026-05-02T14:17:13.854Z</time></trkpt><trkpt lat="44.1981583" lon="11.5022717"><ele>245.66666666666669</ele><time>2026-05-02T14:17:14.854Z</time></trkpt><trkpt lat="44.198015" lon="11.5021467"><ele>240.33333333333331</ele><time>2026-05-02T14:17:15.854Z</time></trkpt><trkpt lat="44.1978817" lon="11.502045"><ele>235.0</ele><time>2026-05-02T14:17:16.854Z</time></trkpt><trkpt lat="44.1977583" lon="11.50196"><ele>244.25</ele><time>2026-05-02T14:17:17.854Z</time></trkpt><trkpt lat="44.197655" lon="11.5018967"><ele>253.5</ele><time>2026-05-02T14:17:18.854Z</time></trkpt><trkpt lat="44.19756" lon="11.5018733"><ele>262.75</ele><time>2026-05-02T14:17:19.855Z</time></trkpt><trkpt lat="44.1974483" lon="11.5019167"><ele>272.0</ele><time>2026-05-02T14:17:20.855Z</time></trkpt><trkpt lat="44.19733" lon="11.50202"><ele>262.6666666666667</ele><time>2026-05-02T14:17:21.855Z</time></trkpt><trkpt lat="44.1972067" lon="11.5021417"><ele>253.33333333333331</ele><time>2026-05-02T14:17:22.854Z</time></trkpt><trkpt lat="44.197075" lon="11.5022533"><ele>244.0</ele><time>2026-05-02T14:17:23.854Z</time></trkpt><trkpt lat="44.1969417" lon="11.5023467"><ele>244.0</ele><time>2026-05-02T14:17:24.854Z</time></trkpt><trkpt lat="44.1968067" lon="11.5023933"><ele>244.0</ele><time>2026-05-02T14:17:25.855Z</time></trkpt><trkpt lat="44.196665" lon="11.5023833"><ele>244.0</ele><time>2026-05-02T14:17:26.854Z</time></trkpt><trkpt lat="44.1965217" lon="11.5023433"><ele>244.0</ele><time>2026-05-02T14:17:27.854Z</time></trkpt><trkpt lat="44.1963717" lon="11.5022767"><ele>243.33333333333331</ele><time>2026-05-02T14:17:28.855Z</time></trkpt><trkpt lat="44.1962183" lon="11.5021717"><ele>242.66666666666669</ele><time>2026-05-02T14:17:29.855Z</time></trkpt><trkpt lat="44.1960817" lon="11.5020667"><ele>242.0</ele><time>2026-05-02T14:17:30.854Z</time></trkpt><trkpt lat="44.195955" lon="11.5019617"><ele>242.0</ele><time>2026-05-02T14:17:31.855Z</time></trkpt><trkpt lat="44.195855" lon="11.5018633"><ele>242.0</ele><time>2026-05-02T14:17:32.854Z</time></trkpt><trkpt lat="44.195775" lon="11.5017233"><ele>242.0</ele><time>2026-05-02T14:17:33.854Z</time></trkpt><trkpt lat="44.19574" lon="11.501535"><ele>242.0</ele><time>2026-05-02T14:17:34.855Z</time></trkpt><trkpt lat="44.1957317" lon="11.5012933"><ele>246.5</ele><time>2026-05-02T14:17:35.854Z</time></trkpt><trkpt lat="44.1957267" lon="11.5010617"><ele>251.0</ele><time>2026-05-02T14:17:36.855Z</time></trkpt><trkpt lat="44.1957233" lon="11.5008617"><ele>255.5</ele><time>2026-05-02T14:17:37.854Z</time></trkpt><trkpt lat="44.1957133" lon="11.5006833"><ele>260.0</ele><time>2026-05-02T14:17:38.854Z</time></trkpt><trkpt lat="44.195685" lon="11.5005433"><ele>257.8</ele><time>2026-05-02T14:17:39.854Z</time></trkpt><trkpt lat="44.1956417" lon="11.500425"><ele>255.6</ele><time>2026-05-02T14:17:40.854Z</time></trkpt><trkpt lat="44.19558" lon="11.5003517"><ele>253.39999999999998</ele><time>2026-05-02T14:17:41.854Z</time></trkpt><trkpt lat="44.1955133" lon="11.500315"><ele>251.2</ele><time>2026-05-02T14:17:42.855Z</time></trkpt><trkpt lat="44.1954283" lon="11.50032"><ele>249.0</ele><time>2026-05-02T14:17:43.854Z</time></trkpt><trkpt lat="44.19531" lon="11.50039"><ele>249.0</ele><time>2026-05-02T14:17:44.854Z</time></trkpt><trkpt lat="44.1952067" lon="11.5004583"><ele>248.99999999999997</ele><time>2026-05-02T14:17:45.854Z</time></trkpt><trkpt lat="44.1951117" lon="11.50049"><ele>248.99999999999997</ele><time>2026-05-02T14:17:46.854Z</time></trkpt><trkpt lat="44.195015" lon="11.5004517"><ele>249.0</ele><time>2026-05-02T14:17:47.854Z</time></trkpt><trkpt lat="44.19491" lon="11.5003533"><ele>249.0</ele><time>2026-05-02T14:17:48.854Z</time></trkpt><trkpt lat="44.1947883" lon="11.500235"><ele>251.66666666666669</ele><time>2026-05-02T14:17:49.855Z</time></trkpt><trkpt lat="44.1946683" lon="11.5001567"><ele>254.33333333333334</ele><time>2026-05-02T14:17:50.854Z</time></trkpt><trkpt lat="44.1945083" lon="11.5001333"><ele>257.0</ele><time>2026-05-02T14:17:51.854Z</time></trkpt><trkpt lat="44.1943417" lon="11.5001517"><ele>257.0</ele><time>2026-05-02T14:17:52.855Z</time></trkpt><trkpt lat="44.1941833" lon="11.5002"><ele>257.0</ele><time>2026-05-02T14:17:53.854Z</time></trkpt><trkpt lat="44.1940383" lon="11.5002533"><ele>257.0</ele><time>2026-05-02T14:17:54.854Z</time></trkpt><trkpt lat="44.193905" lon="11.500305"><ele>258.0</ele><time>2026-05-02T14:17:55.854Z</time></trkpt><trkpt lat="44.1937667" lon="11.5003483"><ele>259.0</ele><time>2026-05-02T14:17:56.854Z</time></trkpt><trkpt lat="44.1936167" lon="11.50037"><ele>260.0</ele><time>2026-05-02T14:17:57.855Z</time></trkpt><trkpt lat="44.1934517" lon="11.50034"><ele>260.0</ele><time>2026-05-02T14:17:58.855Z</time></trkpt><trkpt lat="44.19327" lon="11.5003267"><ele>260.0</ele><time>2026-05-02T14:17:59.855Z</time></trkpt><trkpt lat="44.193085" lon="11.50033"><ele>260.0</ele><time>2026-05-02T14:18:00.854Z</time></trkpt><trkpt lat="44.1929" lon="11.50033"><ele>256.0</ele><time>2026-05-02T14:18:01.854Z</time></trkpt><trkpt lat="44.19273" lon="11.5002983"><ele>252.0</ele><time>2026-05-02T14:18:02.855Z</time></trkpt><trkpt lat="44.1925667" lon="11.500245"><ele>248.0</ele><time>2026-05-02T14:18:03.854Z</time></trkpt><trkpt lat="44.1924233" lon="11.50016"><ele>249.0</ele><time>2026-05-02T14:18:04.854Z</time></trkpt><trkpt lat="44.1923017" lon="11.5000933"><ele>250.0</ele><time>2026-05-02T14:18:05.855Z</time></trkpt><trkpt lat="44.1921883" lon="11.5001117"><ele>251.0</ele><time>2026-05-02T14:18:06.854Z</time></trkpt><trkpt lat="44.1920767" lon="11.5001867"><ele>252.0</ele><time>2026-05-02T14:18:07.854Z</time></trkpt><trkpt lat="44.19196" lon="11.5003083"><ele>244.25</ele><time>2026-05-02T14:18:08.854Z</time></trkpt><trkpt lat="44.1918317" lon="11.500425"><ele>236.5</ele><time>2026-05-02T14:18:09.854Z</time></trkpt><trkpt lat="44.1917017" lon="11.5004867"><ele>228.75</ele><time>2026-05-02T14:18:10.855Z</time></trkpt><trkpt lat="44.191545" lon="11.5004867"><ele>221.0</ele><time>2026-05-02T14:18:11.855Z</time></trkpt><trkpt lat="44.191365" lon="11.5004433"><ele>222.0</ele><time>2026-05-02T14:18:12.854Z</time></trkpt><trkpt lat="44.1911767" lon="11.5003517"><ele>223.0</ele><time>2026-05-02T14:18:13.854Z</time></trkpt><trkpt lat="44.1909983" lon="11.50019"><ele>224.0</ele><time>2026-05-02T14:18:14.854Z</time></trkpt><trkpt lat="44.1908217" lon="11.500025"><ele>220.33333333333334</ele><time>2026-05-02T14:18:15.854Z</time></trkpt><trkpt lat="44.19065" lon="11.4998833"><ele>216.66666666666669</ele><time>2026-05-02T14:18:16.854Z</time></trkpt><trkpt lat="44.1904817" lon="11.4997567"><ele>213.0</ele><time>2026-05-02T14:18:17.854Z</time></trkpt><trkpt lat="44.1903183" lon="11.4996517"><ele>220.5</ele><time>2026-05-02T14:18:18.854Z</time></trkpt><trkpt lat="44.1901717" lon="11.4995617"><ele>228.0</ele><time>2026-05-02T14:18:19.855Z</time></trkpt><trkpt lat="44.1900367" lon="11.4994917"><ele>235.5</ele><time>2026-05-02T14:18:20.855Z</time></trkpt><trkpt lat="44.1898967" lon="11.49945"><ele>243.0</ele><time>2026-05-02T14:18:21.855Z</time></trkpt><trkpt lat="44.189755" lon="11.4994567"><ele>239.25</ele><time>2026-05-02T14:18:22.854Z</time></trkpt><trkpt lat="44.189615" lon="11.4994917"><ele>235.5</ele><time>2026-05-02T14:18:23.854Z</time></trkpt><trkpt lat="44.1894883" lon="11.4995733"><ele>231.75</ele><time>2026-05-02T14:18:24.855Z</time></trkpt><trkpt lat="44.189365" lon="11.499665"><ele>228.0</ele><time>2026-05-02T14:18:25.854Z</time></trkpt><trkpt lat="44.1892417" lon="11.49976"><ele>228.0</ele><time>2026-05-02T14:18:26.854Z</time></trkpt><trkpt lat="44.18912" lon="11.4998717"><ele>228.0</ele><time>2026-05-02T14:18:27.855Z</time></trkpt><trkpt lat="44.1890133" lon="11.50001"><ele>228.0</ele><time>2026-05-02T14:18:28.854Z</time></trkpt><trkpt lat="44.1889167" lon="11.5001767"><ele>228.0</ele><time>2026-05-02T14:18:29.854Z</time></trkpt><trkpt lat="44.1888083" lon="11.5003983"><ele>225.0</ele><time>2026-05-02T14:18:30.854Z</time></trkpt><trkpt lat="44.1886967" lon="11.5006467"><ele>222.0</ele><time>2026-05-02T14:18:31.854Z</time></trkpt><trkpt lat="44.1885917" lon="11.5008867"><ele>219.0</ele><time>2026-05-02T14:18:32.855Z</time></trkpt><trkpt lat="44.18851" lon="11.5010933"><ele>216.0</ele><time>2026-05-02T14:18:33.855Z</time></trkpt><trkpt lat="44.1884383" lon="11.5012683"><ele>213.0</ele><time>2026-05-02T14:18:34.854Z</time></trkpt><trkpt lat="44.1883683" lon="11.5013983"><ele>210.0</ele><time>2026-05-02T14:18:35.855Z</time></trkpt><trkpt lat="44.188295" lon="11.5014883"><ele>207.0</ele><time>2026-05-02T14:18:36.854Z</time></trkpt><trkpt lat="44.1882" lon="11.501545"><ele>205.66666666666669</ele><time>2026-05-02T14:18:37.855Z</time></trkpt><trkpt lat="44.188065" lon="11.5015417"><ele>204.33333333333334</ele><time>2026-05-02T14:18:38.854Z</time></trkpt><trkpt lat="44.1879033" lon="11.5015367"><ele>203.0</ele><time>2026-05-02T14:18:39.855Z</time></trkpt><trkpt lat="44.1877283" lon="11.5015383"><ele>203.0</ele><time>2026-05-02T14:18:40.854Z</time></trkpt><trkpt lat="44.1875467" lon="11.50154"><ele>203.0</ele><time>2026-05-02T14:18:41.854Z</time></trkpt><trkpt lat="44.1873733" lon="11.5015467"><ele>203.0</ele><time>2026-05-02T14:18:42.854Z</time></trkpt><trkpt lat="44.187215" lon="11.50154"><ele>209.2</ele><time>2026-05-02T14:18:43.854Z</time></trkpt><trkpt lat="44.1870733" lon="11.50154"><ele>215.4</ele><time>2026-05-02T14:18:44.855Z</time></trkpt><trkpt lat="44.1869567" lon="11.5015333"><ele>221.59999999999997</ele><time>2026-05-02T14:18:45.855Z</time></trkpt><trkpt lat="44.1868667" lon="11.501515"><ele>227.79999999999998</ele><time>2026-05-02T14:18:46.855Z</time></trkpt><trkpt lat="44.1868067" lon="11.5014717"><ele>234.0</ele><time>2026-05-02T14:18:47.854Z</time></trkpt><trkpt lat="44.1867667" lon="11.50138"><ele>233.5</ele><time>2026-05-02T14:18:48.854Z</time></trkpt><trkpt lat="44.1867617" lon="11.50122"><ele>233.0</ele><time>2026-05-02T14:18:49.854Z</time></trkpt><trkpt lat="44.1867833" lon="11.5010267"><ele>232.5</ele><time>2026-05-02T14:18:50.854Z</time></trkpt><trkpt lat="44.186835" lon="11.5008283"><ele>232.0</ele><time>2026-05-02T14:18:51.854Z</time></trkpt><trkpt lat="44.18689" lon="11.5006733"><ele>232.0</ele><time>2026-05-02T14:18:52.855Z</time></trkpt><trkpt lat="44.1869417" lon="11.500555"><ele>232.0</ele><time>2026-05-02T14:18:53.855Z</time></trkpt><trkpt lat="44.18698" lon="11.500445"><ele>232.0</ele><time>2026-05-02T14:18:54.854Z</time></trkpt><trkpt lat="44.1869867" lon="11.500325"><ele>232.0</ele><time>2026-05-02T14:18:55.854Z</time></trkpt><trkpt lat="44.1869583" lon="11.5002083"><ele>232.0</ele><time>2026-05-02T14:18:56.854Z</time></trkpt><trkpt lat="44.1868883" lon="11.5001167"><ele>230.25</ele><time>2026-05-02T14:18:57.854Z</time></trkpt><trkpt lat="44.18679" lon="11.5000533"><ele>228.5</ele><time>2026-05-02T14:18:58.854Z</time></trkpt><trkpt lat="44.1866667" lon="11.5000233"><ele>226.75</ele><time>2026-05-02T14:18:59.854Z</time></trkpt><trkpt lat="44.1865367" lon="11.5000183"><ele>225.0</ele><time>2026-05-02T14:19:00.855Z</time></trkpt><trkpt lat="44.1864267" lon="11.500035"><ele>225.0</ele><time>2026-05-02T14:19:01.854Z</time></trkpt><trkpt lat="44.186325" lon="11.5000767"><ele>225.0</ele><time>2026-05-02T14:19:02.854Z</time></trkpt><trkpt lat="44.1862267" lon="11.50015"><ele>225.0</ele><time>2026-05-02T14:19:03.854Z</time></trkpt><trkpt lat="44.18613" lon="11.5002367"><ele>225.0</ele><time>2026-05-02T14:19:04.855Z</time></trkpt><trkpt lat="44.1860417" lon="11.5003267"><ele>225.0</ele><time>2026-05-02T14:19:05.854Z</time></trkpt><trkpt lat="44.1859667" lon="11.5004283"><ele>227.8</ele><time>2026-05-02T14:19:06.854Z</time></trkpt><trkpt lat="44.185905" lon="11.500535"><ele>230.6</ele><time>2026-05-02T14:19:07.855Z</time></trkpt><trkpt lat="44.18587" lon="11.5006367"><ele>233.39999999999998</ele><time>2026-05-02T14:19:08.854Z</time></trkpt><trkpt lat="44.1858417" lon="11.5007517"><ele>236.2</ele><time>2026-05-02T14:19:09.854Z</time></trkpt><trkpt lat="44.1858117" lon="11.5008733"><ele>239.0</ele><time>2026-05-02T14:19:10.854Z</time></trkpt><trkpt lat="44.1857867" lon="11.5010033"><ele>239.00000000000003</ele><time>2026-05-02T14:19:11.854Z</time></trkpt><trkpt lat="44.1857667" lon="11.501125"><ele>239.0</ele><time>2026-05-02T14:19:12.854Z</time></trkpt><trkpt lat="44.185745" lon="11.501235"><ele>239.0</ele><time>2026-05-02T14:19:13.854Z</time></trkpt><trkpt lat="44.185715" lon="11.50134"><ele>239.0</ele><time>2026-05-02T14:19:14.854Z</time></trkpt><trkpt lat="44.1856683" lon="11.50145"><ele>239.00000000000003</ele><time>2026-05-02T14:19:15.854Z</time></trkpt><trkpt lat="44.185615" lon="11.5015533"><ele>239.0</ele><time>2026-05-02T14:19:16.854Z</time></trkpt><trkpt lat="44.1855467" lon="11.50166"><ele>240.16666666666669</ele><time>2026-05-02T14:19:17.854Z</time></trkpt><trkpt lat="44.18549" lon="11.501775"><ele>241.33333333333334</ele><time>2026-05-02T14:19:18.854Z</time></trkpt><trkpt lat="44.1854433" lon="11.5018933"><ele>242.5</ele><time>2026-05-02T14:19:19.855Z</time></trkpt><trkpt lat="44.1854233" lon="11.501995"><ele>243.66666666666669</ele><time>2026-05-02T14:19:20.854Z</time></trkpt><trkpt lat="44.18541" lon="11.5020917"><ele>244.83333333333334</ele><time>2026-05-02T14:19:21.854Z</time></trkpt><trkpt lat="44.1853883" lon="11.5022367"><ele>246.0</ele><time>2026-05-02T14:19:23.854Z</time></trkpt><trkpt lat="44.185375" lon="11.502345"><ele>247.25</ele><time>2026-05-02T14:19:25.855Z</time></trkpt><trkpt lat="44.18538" lon="11.502455"><ele>248.5</ele><time>2026-05-02T14:19:27.854Z</time></trkpt><trkpt lat="44.18538" lon="11.5026283"><ele>249.75</ele><time>2026-05-02T14:19:29.854Z</time></trkpt><trkpt lat="44.1854183" lon="11.50279"><ele>251.0</ele><time>2026-05-02T14:19:30.855Z</time></trkpt><trkpt lat="44.1855" lon="11.5029667"><ele>255.25</ele><time>2026-05-02T14:19:31.855Z</time></trkpt><trkpt lat="44.185565" lon="11.5031383"><ele>259.5</ele><time>2026-05-02T14:19:32.854Z</time></trkpt><trkpt lat="44.1855983" lon="11.5033383"><ele>263.75</ele><time>2026-05-02T14:19:33.855Z</time></trkpt><trkpt lat="44.18561" lon="11.5035133"><ele>268.0</ele><time>2026-05-02T14:19:34.854Z</time></trkpt><trkpt lat="44.1856033" lon="11.5036583"><ele>268.0</ele><time>2026-05-02T14:19:35.854Z</time></trkpt><trkpt lat="44.1855833" lon="11.5037467"><ele>268.0</ele><time>2026-05-02T14:19:36.854Z</time></trkpt><trkpt lat="44.1855817" lon="11.50385"><ele>268.0</ele><time>2026-05-02T14:19:38.854Z</time></trkpt><trkpt lat="44.1856333" lon="11.50378"><ele>268.0</ele><time>2026-05-02T14:19:45.854Z</time></trkpt><trkpt lat="44.1856383" lon="11.5036567"><ele>268.0</ele><time>2026-05-02T14:19:47.855Z</time></trkpt><trkpt lat="44.185635" lon="11.503555"><ele>268.0</ele><time>2026-05-02T14:19:48.854Z</time></trkpt><trkpt lat="44.1856267" lon="11.5034283"><ele>268.0</ele><time>2026-05-02T14:19:49.854Z</time></trkpt><trkpt lat="44.1856117" lon="11.503295"><ele>268.0</ele><time>2026-05-02T14:19:50.854Z</time></trkpt><trkpt lat="44.18558" lon="11.5031617"><ele>268.0</ele><time>2026-05-02T14:19:51.854Z</time></trkpt><trkpt lat="44.18554" lon="11.5030433"><ele>268.0</ele><time>2026-05-02T14:19:52.854Z</time></trkpt><trkpt lat="44.1854983" lon="11.5029383"><ele>268.0</ele><time>2026-05-02T14:19:53.854Z</time></trkpt><trkpt lat="44.1854583" lon="11.5028117"><ele>263.75</ele><time>2026-05-02T14:19:54.854Z</time></trkpt><trkpt lat="44.1854283" lon="11.5026483"><ele>259.5</ele><time>2026-05-02T14:19:55.854Z</time></trkpt><trkpt lat="44.185415" lon="11.50248"><ele>255.25</ele><time>2026-05-02T14:19:56.854Z</time></trkpt><trkpt lat="44.185415" lon="11.502325"><ele>251.0</ele><time>2026-05-02T14:19:57.854Z</time></trkpt><trkpt lat="44.1854233" lon="11.502185"><ele>250.16666666666669</ele><time>2026-05-02T14:19:58.854Z</time></trkpt><trkpt lat="44.1854367" lon="11.5020617"><ele>249.33333333333334</ele><time>2026-05-02T14:19:59.855Z</time></trkpt><trkpt lat="44.18546" lon="11.5019467"><ele>248.5</ele><time>2026-05-02T14:20:00.854Z</time></trkpt><trkpt lat="44.1854917" lon="11.5018367"><ele>247.66666666666669</ele><time>2026-05-02T14:20:01.854Z</time></trkpt><trkpt lat="44.1855367" lon="11.50174"><ele>246.83333333333334</ele><time>2026-05-02T14:20:02.855Z</time></trkpt><trkpt lat="44.1855767" lon="11.5016483"><ele>246.0</ele><time>2026-05-02T14:20:03.854Z</time></trkpt><trkpt lat="44.185615" lon="11.5015767"><ele>247.0</ele><time>2026-05-02T14:20:04.854Z</time></trkpt><trkpt lat="44.18568" lon="11.5014467"><ele>248.0</ele><time>2026-05-02T14:20:06.855Z</time></trkpt><trkpt lat="44.1857317" lon="11.5013117"><ele>249.0</ele><time>2026-05-02T14:20:08.855Z</time></trkpt><trkpt lat="44.18577" lon="11.50116"><ele>250.0</ele><time>2026-05-02T14:20:10.854Z</time></trkpt><trkpt lat="44.1858033" lon="11.501005"><ele>247.25</ele><time>2026-05-02T14:20:12.854Z</time></trkpt><trkpt lat="44.185835" lon="11.5008533"><ele>244.5</ele><time>2026-05-02T14:20:14.854Z</time></trkpt><trkpt lat="44.185875" lon="11.5006983"><ele>241.75</ele><time>2026-05-02T14:20:16.854Z</time></trkpt><trkpt lat="44.185925" lon="11.50055"><ele>239.0</ele><time>2026-05-02T14:20:18.855Z</time></trkpt><trkpt lat="44.1860033" lon="11.5004167"><ele>236.66666666666669</ele><time>2026-05-02T14:20:20.854Z</time></trkpt><trkpt lat="44.18605" lon="11.5003517"><ele>234.33333333333334</ele><time>2026-05-02T14:20:21.854Z</time></trkpt><trkpt lat="44.1861467" lon="11.5002533"><ele>232.0</ele><time>2026-05-02T14:20:23.854Z</time></trkpt><trkpt lat="44.18623" lon="11.5001883"><ele>229.66666666666669</ele><time>2026-05-02T14:20:25.855Z</time></trkpt><trkpt lat="44.1863067" lon="11.5001283"><ele>227.33333333333334</ele><time>2026-05-02T14:20:28.854Z</time></trkpt><trkpt lat="44.1863617" lon="11.500085"><ele>225.0</ele><time>2026-05-02T14:21:01.855Z</time></trkpt><trkpt lat="44.1864433" lon="11.50004"><ele>225.0</ele><time>2026-05-02T14:21:04.855Z</time></trkpt><trkpt lat="44.1864967" lon="11.49998"><ele>225.0</ele><time>2026-05-02T14:21:06.854Z</time></trkpt><trkpt lat="44.1864233" lon="11.4999383"><ele>225.0</ele><time>2026-05-02T14:21:17.855Z</time></trkpt><trkpt lat="44.1863217" lon="11.4999567"><ele>225.0</ele><time>2026-05-02T14:21:19.854Z</time></trkpt><trkpt lat="44.1862067" lon="11.4999683"><ele>225.0</ele><time>2026-05-02T14:21:21.854Z</time></trkpt><trkpt lat="44.1860917" lon="11.4999917"><ele>225.0</ele><time>2026-05-02T14:21:23.855Z</time></trkpt><trkpt lat="44.1859717" lon="11.4999983"><ele>225.0</ele><time>2026-05-02T14:21:25.854Z</time></trkpt><trkpt lat="44.185855" lon="11.5000317"><ele>225.0</ele><time>2026-05-02T14:21:27.855Z</time></trkpt><trkpt lat="44.1857917" lon="11.5000633"><ele>225.0</ele><time>2026-05-02T14:21:28.855Z</time></trkpt><trkpt lat="44.1856883" lon="11.5001183"><ele>225.0</ele><time>2026-05-02T14:21:30.854Z</time></trkpt><trkpt lat="44.1856067" lon="11.5001567"><ele>225.8</ele><time>2026-05-02T14:21:32.855Z</time></trkpt><trkpt lat="44.18554" lon="11.5001083"><ele>226.6</ele><time>2026-05-02T14:21:34.854Z</time></trkpt><trkpt lat="44.18547" lon="11.4999983"><ele>227.39999999999998</ele><time>2026-05-02T14:21:36.854Z</time></trkpt><trkpt lat="44.1853883" lon="11.4998867"><ele>228.2</ele><time>2026-05-02T14:21:38.854Z</time></trkpt><trkpt lat="44.1853167" lon="11.4997817"><ele>229.0</ele><time>2026-05-02T14:21:40.855Z</time></trkpt><trkpt lat="44.185285" lon="11.4996483"><ele>229.0</ele><time>2026-05-02T14:21:42.855Z</time></trkpt><trkpt lat="44.185275" lon="11.4995"><ele>222.0</ele><time>2026-05-02T14:21:44.855Z</time></trkpt><trkpt lat="44.18526" lon="11.4994133"><ele>222.0</ele><time>2026-05-02T14:21:46.854Z</time></trkpt></trkseg><trkseg><trkpt lat="44.1480079" lon="11.4874975"><ele>766.0</ele><time>2026-05-02T15:03:50.669Z</time></trkpt><trkpt lat="44.1479494" lon="11.4875675"><ele>766.0</ele><time>2026-05-02T15:03:55.111Z</time></trkpt><trkpt lat="44.1477456" lon="11.4876172"><ele>766.0</ele><time>2026-05-02T15:04:04.041Z</time></trkpt><trkpt lat="44.1474369" lon="11.4880447"><ele>770.75</ele><time>2026-05-02T15:04:04.553Z</time></trkpt><trkpt lat="44.1474145" lon="11.4881489"><ele>775.5</ele><time>2026-05-02T15:04:05.553Z</time></trkpt><trkpt lat="44.1474964" lon="11.4881637"><ele>780.25</ele><time>2026-05-02T15:04:06.553Z</time></trkpt><trkpt lat="44.1476109" lon="11.4881842"><ele>785.0</ele><time>2026-05-02T15:04:07.553Z</time></trkpt><trkpt lat="44.1478804" lon="11.4883154"><ele>785.0</ele><time>2026-05-02T15:04:09.553Z</time></trkpt><trkpt lat="44.1480009" lon="11.4883897"><ele>785.0</ele><time>2026-05-02T15:04:10.553Z</time></trkpt><trkpt lat="44.1481019" lon="11.4884481"><ele>785.0</ele><time>2026-05-02T15:04:11.553Z</time></trkpt><trkpt lat="44.1481875" lon="11.4885139"><ele>785.0</ele><time>2026-05-02T15:04:12.553Z</time></trkpt><trkpt lat="44.1482542" lon="11.4885967"><ele>785.0</ele><time>2026-05-02T15:04:13.553Z</time></trkpt><trkpt lat="44.148296" lon="11.4886973"><ele>787.6</ele><time>2026-05-02T15:04:14.553Z</time></trkpt><trkpt lat="44.1483037" lon="11.4888043"><ele>790.2</ele><time>2026-05-02T15:04:15.553Z</time></trkpt><trkpt lat="44.1482691" lon="11.488902"><ele>792.8</ele><time>2026-05-02T15:04:16.553Z</time></trkpt><trkpt lat="44.1481999" lon="11.4889626"><ele>795.4</ele><time>2026-05-02T15:04:17.553Z</time></trkpt><trkpt lat="44.148107" lon="11.4889724"><ele>798.0</ele><time>2026-05-02T15:04:18.553Z</time></trkpt><trkpt lat="44.1479903" lon="11.488921"><ele>798.3333333333333</ele><time>2026-05-02T15:04:19.553Z</time></trkpt><trkpt lat="44.1478615" lon="11.4888505"><ele>798.6666666666666</ele><time>2026-05-02T15:04:20.553Z</time></trkpt><trkpt lat="44.1476266" lon="11.4887564"><ele>799.0</ele><time>2026-05-02T15:04:22.553Z</time></trkpt><trkpt lat="44.1475258" lon="11.4887676"><ele>799.0</ele><time>2026-05-02T15:04:23.552Z</time></trkpt><trkpt lat="44.1474422" lon="11.4888334"><ele>799.0</ele><time>2026-05-02T15:04:24.553Z</time></trkpt><trkpt lat="44.1473923" lon="11.4889395"><ele>799.0</ele><time>2026-05-02T15:04:25.553Z</time></trkpt><trkpt lat="44.1473705" lon="11.4890554"><ele>799.0</ele><time>2026-05-02T15:04:26.553Z</time></trkpt><trkpt lat="44.1474114" lon="11.4891675"><ele>799.0</ele><time>2026-05-02T15:04:27.552Z</time></trkpt><trkpt lat="44.1475027" lon="11.4892571"><ele>799.0</ele><time>2026-05-02T15:04:28.553Z</time></trkpt><trkpt lat="44.147624" lon="11.4893214"><ele>799.0</ele><time>2026-05-02T15:04:29.553Z</time></trkpt><trkpt lat="44.1477617" lon="11.4893791"><ele>799.0</ele><time>2026-05-02T15:04:30.553Z</time></trkpt><trkpt lat="44.1479022" lon="11.4894379"><ele>799.0</ele><time>2026-05-02T15:04:31.553Z</time></trkpt><trkpt lat="44.1480372" lon="11.4895126"><ele>801.5</ele><time>2026-05-02T15:04:32.553Z</time></trkpt><trkpt lat="44.1481737" lon="11.4896141"><ele>804.0</ele><time>2026-05-02T15:04:33.553Z</time></trkpt><trkpt lat="44.1482948" lon="11.4897351"><ele>806.5</ele><time>2026-05-02T15:04:34.553Z</time></trkpt><trkpt lat="44.1483886" lon="11.4898632"><ele>809.0</ele><time>2026-05-02T15:04:35.553Z</time></trkpt><trkpt lat="44.1484496" lon="11.4900159"><ele>809.0</ele><time>2026-05-02T15:04:36.553Z</time></trkpt><trkpt lat="44.1484733" lon="11.4901788"><ele>809.0</ele><time>2026-05-02T15:04:37.552Z</time></trkpt><trkpt lat="44.148449" lon="11.4903677"><ele>809.0</ele><time>2026-05-02T15:04:38.552Z</time></trkpt><trkpt lat="44.1484052" lon="11.4905778"><ele>809.0</ele><time>2026-05-02T15:04:39.553Z</time></trkpt><trkpt lat="44.1483514" lon="11.4907954"><ele>810.6666666666667</ele><time>2026-05-02T15:04:40.553Z</time></trkpt><trkpt lat="44.1482956" lon="11.4910153"><ele>812.3333333333333</ele><time>2026-05-02T15:04:41.553Z</time></trkpt><trkpt lat="44.1482421" lon="11.4912271"><ele>814.0</ele><time>2026-05-02T15:04:42.553Z</time></trkpt><trkpt lat="44.1481835" lon="11.4914431"><ele>820.5</ele><time>2026-05-02T15:04:43.553Z</time></trkpt><trkpt lat="44.1481131" lon="11.4916314"><ele>827.0</ele><time>2026-05-02T15:04:44.553Z</time></trkpt><trkpt lat="44.1480315" lon="11.4917939"><ele>833.5</ele><time>2026-05-02T15:04:45.553Z</time></trkpt><trkpt lat="44.1479628" lon="11.4919576"><ele>840.0</ele><time>2026-05-02T15:04:46.553Z</time></trkpt><trkpt lat="44.1479213" lon="11.4921694"><ele>844.0</ele><time>2026-05-02T15:04:47.553Z</time></trkpt><trkpt lat="44.1479074" lon="11.4924173"><ele>848.0</ele><time>2026-05-02T15:04:48.553Z</time></trkpt><trkpt lat="44.1478942" lon="11.4926815"><ele>852.0</ele><time>2026-05-02T15:04:49.553Z</time></trkpt><trkpt lat="44.1478763" lon="11.4929348"><ele>855.0</ele><time>2026-05-02T15:04:50.553Z</time></trkpt><trkpt lat="44.1478652" lon="11.4931652"><ele>858.0</ele><time>2026-05-02T15:04:51.553Z</time></trkpt><trkpt lat="44.1478504" lon="11.4933944"><ele>861.0</ele><time>2026-05-02T15:04:52.553Z</time></trkpt><trkpt lat="44.1478626" lon="11.4936363"><ele>862.3333333333333</ele><time>2026-05-02T15:04:53.553Z</time></trkpt><trkpt lat="44.147905" lon="11.4938967"><ele>863.6666666666666</ele><time>2026-05-02T15:04:54.553Z</time></trkpt><trkpt lat="44.14794" lon="11.494165"><ele>865.0</ele><time>2026-05-02T15:04:55.553Z</time></trkpt><trkpt lat="44.1479833" lon="11.49445"><ele>866.0</ele><time>2026-05-02T15:04:56.553Z</time></trkpt><trkpt lat="44.1480183" lon="11.4947333"><ele>867.0</ele><time>2026-05-02T15:04:57.553Z</time></trkpt><trkpt lat="44.1480317" lon="11.4949967"><ele>868.0</ele><time>2026-05-02T15:04:58.553Z</time></trkpt><trkpt lat="44.1480467" lon="11.4952583"><ele>871.6666666666666</ele><time>2026-05-02T15:04:59.553Z</time></trkpt><trkpt lat="44.148075" lon="11.4955067"><ele>875.3333333333333</ele><time>2026-05-02T15:05:00.553Z</time></trkpt><trkpt lat="44.1481" lon="11.49572"><ele>879.0</ele><time>2026-05-02T15:05:01.553Z</time></trkpt><trkpt lat="44.148125" lon="11.495925"><ele>879.0</ele><time>2026-05-02T15:05:02.553Z</time></trkpt><trkpt lat="44.148175" lon="11.4961217"><ele>879.0</ele><time>2026-05-02T15:05:03.553Z</time></trkpt><trkpt lat="44.1482483" lon="11.4963217"><ele>879.0</ele><time>2026-05-02T15:05:04.553Z</time></trkpt><trkpt lat="44.1483517" lon="11.4965183"><ele>877.3333333333333</ele><time>2026-05-02T15:05:05.553Z</time></trkpt><trkpt lat="44.1484817" lon="11.4967167"><ele>875.6666666666666</ele><time>2026-05-02T15:05:06.553Z</time></trkpt><trkpt lat="44.1486067" lon="11.49692"><ele>874.0</ele><time>2026-05-02T15:05:07.553Z</time></trkpt><trkpt lat="44.1487333" lon="11.4971233"><ele>874.0</ele><time>2026-05-02T15:05:08.553Z</time></trkpt><trkpt lat="44.1488333" lon="11.497315"><ele>874.0</ele><time>2026-05-02T15:05:09.553Z</time></trkpt><trkpt lat="44.1489117" lon="11.4975067"><ele>874.0</ele><time>2026-05-02T15:05:10.553Z</time></trkpt><trkpt lat="44.1489867" lon="11.4976833"><ele>874.0</ele><time>2026-05-02T15:05:11.553Z</time></trkpt><trkpt lat="44.1490367" lon="11.49785"><ele>874.0000000000001</ele><time>2026-05-02T15:05:12.553Z</time></trkpt><trkpt lat="44.14904" lon="11.4979967"><ele>874.0000000000001</ele><time>2026-05-02T15:05:13.553Z</time></trkpt><trkpt lat="44.1490017" lon="11.4981133"><ele>874.0</ele><time>2026-05-02T15:05:14.553Z</time></trkpt><trkpt lat="44.14892" lon="11.4981867"><ele>874.0</ele><time>2026-05-02T15:05:15.553Z</time></trkpt><trkpt lat="44.1488117" lon="11.49824"><ele>872.0</ele><time>2026-05-02T15:05:16.553Z</time></trkpt><trkpt lat="44.1486883" lon="11.4983217"><ele>870.0</ele><time>2026-05-02T15:05:17.553Z</time></trkpt><trkpt lat="44.1485717" lon="11.498415"><ele>868.0</ele><time>2026-05-02T15:05:18.553Z</time></trkpt><trkpt lat="44.1484667" lon="11.4984867"><ele>866.0</ele><time>2026-05-02T15:05:19.553Z</time></trkpt><trkpt lat="44.1483467" lon="11.4985083"><ele>866.0</ele><time>2026-05-02T15:05:20.553Z</time></trkpt><trkpt lat="44.1482117" lon="11.4984717"><ele>866.0</ele><time>2026-05-02T15:05:21.553Z</time></trkpt><trkpt lat="44.1480833" lon="11.498395"><ele>866.0</ele><time>2026-05-02T15:05:22.553Z</time></trkpt><trkpt lat="44.1479483" lon="11.498365"><ele>866.0</ele><time>2026-05-02T15:05:23.553Z</time></trkpt><trkpt lat="44.1478083" lon="11.4983717"><ele>866.4</ele><time>2026-05-02T15:05:24.553Z</time></trkpt><trkpt lat="44.1476983" lon="11.498335"><ele>866.8</ele><time>2026-05-02T15:05:25.553Z</time></trkpt><trkpt lat="44.1476167" lon="11.498255"><ele>867.1999999999999</ele><time>2026-05-02T15:05:26.553Z</time></trkpt><trkpt lat="44.1475933" lon="11.498125"><ele>867.5999999999999</ele><time>2026-05-02T15:05:27.553Z</time></trkpt><trkpt lat="44.1476067" lon="11.4979467"><ele>868.0</ele><time>2026-05-02T15:05:28.553Z</time></trkpt><trkpt lat="44.1476217" lon="11.497765"><ele>868.0</ele><time>2026-05-02T15:05:29.553Z</time></trkpt><trkpt lat="44.1476483" lon="11.4975883"><ele>868.0</ele><time>2026-05-02T15:05:30.552Z</time></trkpt><trkpt lat="44.14767" lon="11.4974083"><ele>868.0</ele><time>2026-05-02T15:05:31.553Z</time></trkpt><trkpt lat="44.1476667" lon="11.49724"><ele>868.0</ele><time>2026-05-02T15:05:32.552Z</time></trkpt><trkpt lat="44.1476333" lon="11.4971067"><ele>869.4999999999999</ele><time>2026-05-02T15:05:33.553Z</time></trkpt><trkpt lat="44.1475833" lon="11.4970017"><ele>871.0</ele><time>2026-05-02T15:05:34.553Z</time></trkpt><trkpt lat="44.1475283" lon="11.4969317"><ele>872.5</ele><time>2026-05-02T15:05:35.553Z</time></trkpt><trkpt lat="44.1474733" lon="11.4968767"><ele>874.0</ele><time>2026-05-02T15:05:36.553Z</time></trkpt><trkpt lat="44.1474117" lon="11.4968267"><ele>875.4999999999999</ele><time>2026-05-02T15:05:37.553Z</time></trkpt><trkpt lat="44.1473433" lon="11.4967867"><ele>877.0</ele><time>2026-05-02T15:05:38.553Z</time></trkpt><trkpt lat="44.1472567" lon="11.4967533"><ele>877.0</ele><time>2026-05-02T15:05:39.553Z</time></trkpt><trkpt lat="44.14716" lon="11.4967267"><ele>877.0</ele><time>2026-05-02T15:05:40.552Z</time></trkpt><trkpt lat="44.147045" lon="11.4966783"><ele>877.0</ele><time>2026-05-02T15:05:41.552Z</time></trkpt><trkpt lat="44.1469083" lon="11.4965967"><ele>877.0</ele><time>2026-05-02T15:05:42.552Z</time></trkpt><trkpt lat="44.146775" lon="11.4964967"><ele>877.0</ele><time>2026-05-02T15:05:43.553Z</time></trkpt><trkpt lat="44.1466167" lon="11.4964367"><ele>877.0</ele><time>2026-05-02T15:05:44.553Z</time></trkpt><trkpt lat="44.1464633" lon="11.49643"><ele>877.0</ele><time>2026-05-02T15:05:45.553Z</time></trkpt><trkpt lat="44.1463267" lon="11.49646"><ele>880.0</ele><time>2026-05-02T15:05:46.553Z</time></trkpt><trkpt lat="44.1462133" lon="11.4965367"><ele>883.0</ele><time>2026-05-02T15:05:47.553Z</time></trkpt><trkpt lat="44.1460967" lon="11.49663"><ele>886.0</ele><time>2026-05-02T15:05:48.553Z</time></trkpt><trkpt lat="44.1459533" lon="11.4967133"><ele>889.0</ele><time>2026-05-02T15:05:49.553Z</time></trkpt><trkpt lat="44.1457983" lon="11.4967417"><ele>895.3333333333333</ele><time>2026-05-02T15:05:50.553Z</time></trkpt><trkpt lat="44.145645" lon="11.4967733"><ele>901.6666666666667</ele><time>2026-05-02T15:05:51.553Z</time></trkpt><trkpt lat="44.1454933" lon="11.49684"><ele>908.0</ele><time>2026-05-02T15:05:52.553Z</time></trkpt><trkpt lat="44.14535" lon="11.4969467"><ele>908.0</ele><time>2026-05-02T15:05:53.553Z</time></trkpt><trkpt lat="44.145215" lon="11.4970817"><ele>908.0</ele><time>2026-05-02T15:05:54.553Z</time></trkpt><trkpt lat="44.1450933" lon="11.49725"><ele>908.0</ele><time>2026-05-02T15:05:55.553Z</time></trkpt><trkpt lat="44.1449817" lon="11.4974283"><ele>909.6666666666667</ele><time>2026-05-02T15:05:56.553Z</time></trkpt><trkpt lat="44.1448783" lon="11.4975933"><ele>911.3333333333333</ele><time>2026-05-02T15:05:57.553Z</time></trkpt><trkpt lat="44.144775" lon="11.4977617"><ele>913.0</ele><time>2026-05-02T15:05:58.553Z</time></trkpt><trkpt lat="44.1446517" lon="11.4978983"><ele>906.6666666666666</ele><time>2026-05-02T15:05:59.553Z</time></trkpt><trkpt lat="44.1445017" lon="11.4980267"><ele>900.3333333333333</ele><time>2026-05-02T15:06:00.553Z</time></trkpt><trkpt lat="44.1443533" lon="11.4981517"><ele>894.0</ele><time>2026-05-02T15:06:01.553Z</time></trkpt><trkpt lat="44.1442133" lon="11.4982667"><ele>894.0</ele><time>2026-05-02T15:06:02.553Z</time></trkpt><trkpt lat="44.144095" lon="11.4983833"><ele>894.0</ele><time>2026-05-02T15:06:03.553Z</time></trkpt><trkpt lat="44.1440017" lon="11.4985183"><ele>894.0</ele><time>2026-05-02T15:06:04.553Z</time></trkpt><trkpt lat="44.1439117" lon="11.49869"><ele>894.0</ele><time>2026-05-02T15:06:05.553Z</time></trkpt><trkpt lat="44.143855" lon="11.4988917"><ele>892.0</ele><time>2026-05-02T15:06:06.553Z</time></trkpt><trkpt lat="44.1438133" lon="11.49912"><ele>890.0</ele><time>2026-05-02T15:06:07.553Z</time></trkpt><trkpt lat="44.1437867" lon="11.4993667"><ele>888.0</ele><time>2026-05-02T15:06:08.553Z</time></trkpt><trkpt lat="44.1437833" lon="11.49959"><ele>888.0</ele><time>2026-05-02T15:06:09.553Z</time></trkpt><trkpt lat="44.1437633" lon="11.4997783"><ele>888.0</ele><time>2026-05-02T15:06:10.553Z</time></trkpt><trkpt lat="44.1437683" lon="11.4999567"><ele>888.0</ele><time>2026-05-02T15:06:11.552Z</time></trkpt><trkpt lat="44.143755" lon="11.5000967"><ele>888.0</ele><time>2026-05-02T15:06:12.553Z</time></trkpt><trkpt lat="44.143765" lon="11.5002133"><ele>888.0</ele><time>2026-05-02T15:06:13.553Z</time></trkpt><trkpt lat="44.1437783" lon="11.5003567"><ele>888.0</ele><time>2026-05-02T15:06:15.553Z</time></trkpt><trkpt lat="44.1437083" lon="11.50045"><ele>888.0</ele><time>2026-05-02T15:07:44.553Z</time></trkpt><trkpt lat="44.143595" lon="11.5005567"><ele>888.0</ele><time>2026-05-02T15:07:46.553Z</time></trkpt><trkpt lat="44.1435266" lon="11.5006139"><ele>888.0</ele><time>2026-05-02T15:07:47.553Z</time></trkpt><trkpt lat="44.1434442" lon="11.5006616"><ele>887.2</ele><time>2026-05-02T15:07:48.553Z</time></trkpt><trkpt lat="44.1433493" lon="11.500664"><ele>886.4</ele><time>2026-05-02T15:07:49.553Z</time></trkpt><trkpt lat="44.143255" lon="11.5005926"><ele>885.6000000000001</ele><time>2026-05-02T15:07:50.552Z</time></trkpt><trkpt lat="44.1431793" lon="11.5004652"><ele>884.8000000000001</ele><time>2026-05-02T15:07:51.553Z</time></trkpt><trkpt lat="44.143137" lon="11.5003127"><ele>884.0</ele><time>2026-05-02T15:07:52.553Z</time></trkpt><trkpt lat="44.1431226" lon="11.5001639"><ele>881.5</ele><time>2026-05-02T15:07:53.553Z</time></trkpt><trkpt lat="44.1431059" lon="11.4999868"><ele>879.0</ele><time>2026-05-02T15:07:54.553Z</time></trkpt><trkpt lat="44.1430561" lon="11.4998083"><ele>876.5</ele><time>2026-05-02T15:07:55.553Z</time></trkpt><trkpt lat="44.1429965" lon="11.4996389"><ele>874.0</ele><time>2026-05-02T15:07:56.553Z</time></trkpt><trkpt lat="44.1429367" lon="11.4994891"><ele>873.9999999999999</ele><time>2026-05-02T15:07:57.552Z</time></trkpt><trkpt lat="44.1428845" lon="11.4993717"><ele>874.0</ele><time>2026-05-02T15:07:58.553Z</time></trkpt><trkpt lat="44.1428356" lon="11.4992815"><ele>874.0</ele><time>2026-05-02T15:07:59.553Z</time></trkpt><trkpt lat="44.1427831" lon="11.4992213"><ele>874.0</ele><time>2026-05-02T15:08:00.553Z</time></trkpt><trkpt lat="44.142711" lon="11.4992173"><ele>873.9999999999999</ele><time>2026-05-02T15:08:01.553Z</time></trkpt><trkpt lat="44.1426482" lon="11.4992599"><ele>874.0</ele><time>2026-05-02T15:08:02.553Z</time></trkpt><trkpt lat="44.1426055" lon="11.4993497"><ele>874.0</ele><time>2026-05-02T15:08:03.553Z</time></trkpt><trkpt lat="44.1426136" lon="11.4994632"><ele>874.0000000000001</ele><time>2026-05-02T15:08:04.553Z</time></trkpt><trkpt lat="44.1426645" lon="11.4995782"><ele>874.0000000000001</ele><time>2026-05-02T15:08:05.553Z</time></trkpt><trkpt lat="44.1427325" lon="11.4996975"><ele>874.0</ele><time>2026-05-02T15:08:06.552Z</time></trkpt><trkpt lat="44.1427916" lon="11.499836"><ele>874.0</ele><time>2026-05-02T15:08:07.553Z</time></trkpt><trkpt lat="44.1428229" lon="11.4999956"><ele>869.25</ele><time>2026-05-02T15:08:08.553Z</time></trkpt><trkpt lat="44.1428182" lon="11.5001624"><ele>864.5</ele><time>2026-05-02T15:08:09.553Z</time></trkpt><trkpt lat="44.1427706" lon="11.5003368"><ele>859.75</ele><time>2026-05-02T15:08:10.553Z</time></trkpt><trkpt lat="44.1427291" lon="11.5005134"><ele>855.0</ele><time>2026-05-02T15:08:11.553Z</time></trkpt><trkpt lat="44.1427277" lon="11.5006741"><ele>854.4</ele><time>2026-05-02T15:08:12.553Z</time></trkpt><trkpt lat="44.1427417" lon="11.5008092"><ele>853.8</ele><time>2026-05-02T15:08:13.553Z</time></trkpt><trkpt lat="44.1427276" lon="11.5009317"><ele>853.2</ele><time>2026-05-02T15:08:14.553Z</time></trkpt><trkpt lat="44.1426874" lon="11.5010485"><ele>852.6</ele><time>2026-05-02T15:08:15.553Z</time></trkpt><trkpt lat="44.1426085" lon="11.5011396"><ele>852.0</ele><time>2026-05-02T15:08:16.553Z</time></trkpt><trkpt lat="44.1424984" lon="11.5012308"><ele>852.0</ele><time>2026-05-02T15:08:17.553Z</time></trkpt><trkpt lat="44.1424126" lon="11.5013388"><ele>852.0</ele><time>2026-05-02T15:08:18.553Z</time></trkpt><trkpt lat="44.1423685" lon="11.501464"><ele>852.0</ele><time>2026-05-02T15:08:19.553Z</time></trkpt><trkpt lat="44.1423824" lon="11.501599"><ele>852.0</ele><time>2026-05-02T15:08:20.553Z</time></trkpt><trkpt lat="44.1424406" lon="11.5017433"><ele>852.0</ele><time>2026-05-02T15:08:21.553Z</time></trkpt><trkpt lat="44.1425085" lon="11.5018972"><ele>852.0</ele><time>2026-05-02T15:08:22.553Z</time></trkpt><trkpt lat="44.1425608" lon="11.502063"><ele>852.0</ele><time>2026-05-02T15:08:23.553Z</time></trkpt><trkpt lat="44.1425748" lon="11.5022268"><ele>852.0</ele><time>2026-05-02T15:08:24.553Z</time></trkpt><trkpt lat="44.1425501" lon="11.5023747"><ele>852.0</ele><time>2026-05-02T15:08:25.553Z</time></trkpt><trkpt lat="44.1424517" lon="11.502495"><ele>845.8</ele><time>2026-05-02T15:08:26.553Z</time></trkpt><trkpt lat="44.1423517" lon="11.502595"><ele>839.6</ele><time>2026-05-02T15:08:27.553Z</time></trkpt><trkpt lat="44.1422817" lon="11.5026883"><ele>833.4</ele><time>2026-05-02T15:08:28.553Z</time></trkpt><trkpt lat="44.1422467" lon="11.502795"><ele>827.1999999999999</ele><time>2026-05-02T15:08:29.553Z</time></trkpt><trkpt lat="44.14226" lon="11.5029117"><ele>821.0</ele><time>2026-05-02T15:08:30.553Z</time></trkpt><trkpt lat="44.1423417" lon="11.5030367"><ele>826.5</ele><time>2026-05-02T15:08:31.553Z</time></trkpt><trkpt lat="44.142435" lon="11.5031683"><ele>832.0</ele><time>2026-05-02T15:08:32.553Z</time></trkpt><trkpt lat="44.1425017" lon="11.503315"><ele>837.5</ele><time>2026-05-02T15:08:33.553Z</time></trkpt><trkpt lat="44.14254" lon="11.503485"><ele>843.0</ele><time>2026-05-02T15:08:34.553Z</time></trkpt><trkpt lat="44.142555" lon="11.5036883"><ele>841.5</ele><time>2026-05-02T15:08:35.553Z</time></trkpt><trkpt lat="44.1425733" lon="11.50388"><ele>840.0</ele><time>2026-05-02T15:08:36.553Z</time></trkpt><trkpt lat="44.1425883" lon="11.504055"><ele>838.5</ele><time>2026-05-02T15:08:37.553Z</time></trkpt><trkpt lat="44.1425767" lon="11.5041933"><ele>837.0</ele><time>2026-05-02T15:08:38.553Z</time></trkpt><trkpt lat="44.142535" lon="11.5043133"><ele>837.0</ele><time>2026-05-02T15:08:39.553Z</time></trkpt><trkpt lat="44.1424717" lon="11.5043817"><ele>837.0</ele><time>2026-05-02T15:08:40.553Z</time></trkpt><trkpt lat="44.1423683" lon="11.50434"><ele>837.0</ele><time>2026-05-02T15:08:41.553Z</time></trkpt><trkpt lat="44.1422667" lon="11.504285"><ele>837.0</ele><time>2026-05-02T15:08:42.552Z</time></trkpt><trkpt lat="44.1421667" lon="11.5042783"><ele>837.0</ele><time>2026-05-02T15:08:43.553Z</time></trkpt><trkpt lat="44.1420683" lon="11.50433"><ele>831.6</ele><time>2026-05-02T15:08:44.553Z</time></trkpt><trkpt lat="44.1419817" lon="11.5044233"><ele>826.2</ele><time>2026-05-02T15:08:45.553Z</time></trkpt><trkpt lat="44.14193" lon="11.50455"><ele>820.8</ele><time>2026-05-02T15:08:46.553Z</time></trkpt><trkpt lat="44.1419067" lon="11.5046667"><ele>815.4</ele><time>2026-05-02T15:08:47.553Z</time></trkpt><trkpt lat="44.1419317" lon="11.5047783"><ele>810.0</ele><time>2026-05-02T15:08:48.553Z</time></trkpt><trkpt lat="44.1419933" lon="11.50487"><ele>810.0</ele><time>2026-05-02T15:08:49.553Z</time></trkpt><trkpt lat="44.1420683" lon="11.5049583"><ele>810.0</ele><time>2026-05-02T15:08:50.553Z</time></trkpt><trkpt lat="44.14211" lon="11.5050717"><ele>810.0</ele><time>2026-05-02T15:08:51.553Z</time></trkpt><trkpt lat="44.142105" lon="11.5052067"><ele>810.0</ele><time>2026-05-02T15:08:52.553Z</time></trkpt><trkpt lat="44.142055" lon="11.5053417"><ele>810.0</ele><time>2026-05-02T15:08:53.553Z</time></trkpt><trkpt lat="44.1420067" lon="11.50548"><ele>810.0</ele><time>2026-05-02T15:08:54.553Z</time></trkpt><trkpt lat="44.14197" lon="11.5056333"><ele>810.0</ele><time>2026-05-02T15:08:55.552Z</time></trkpt><trkpt lat="44.1419567" lon="11.5058"><ele>810.0</ele><time>2026-05-02T15:08:56.553Z</time></trkpt><trkpt lat="44.1419433" lon="11.50594"><ele>810.0</ele><time>2026-05-02T15:08:57.553Z</time></trkpt><trkpt lat="44.1419033" lon="11.50606"><ele>810.0</ele><time>2026-05-02T15:08:58.553Z</time></trkpt><trkpt lat="44.141835" lon="11.5061483"><ele>810.0</ele><time>2026-05-02T15:08:59.553Z</time></trkpt><trkpt lat="44.1417417" lon="11.5062"><ele>810.0</ele><time>2026-05-02T15:09:00.553Z</time></trkpt><trkpt lat="44.141615" lon="11.506245"><ele>810.0</ele><time>2026-05-02T15:09:01.553Z</time></trkpt><trkpt lat="44.14149" lon="11.5063133"><ele>810.0</ele><time>2026-05-02T15:09:02.553Z</time></trkpt><trkpt lat="44.1413833" lon="11.50641"><ele>804.75</ele><time>2026-05-02T15:09:03.553Z</time></trkpt><trkpt lat="44.141305" lon="11.50653"><ele>799.5</ele><time>2026-05-02T15:09:04.553Z</time></trkpt><trkpt lat="44.1412533" lon="11.506665"><ele>794.25</ele><time>2026-05-02T15:09:05.553Z</time></trkpt><trkpt lat="44.1412217" lon="11.5068067"><ele>789.0</ele><time>2026-05-02T15:09:06.553Z</time></trkpt><trkpt lat="44.1412117" lon="11.50698"><ele>787.25</ele><time>2026-05-02T15:09:07.553Z</time></trkpt><trkpt lat="44.14121" lon="11.5071733"><ele>785.5</ele><time>2026-05-02T15:09:08.553Z</time></trkpt><trkpt lat="44.14122" lon="11.5073667"><ele>783.75</ele><time>2026-05-02T15:09:09.552Z</time></trkpt><trkpt lat="44.14126" lon="11.5075767"><ele>782.0</ele><time>2026-05-02T15:09:10.553Z</time></trkpt><trkpt lat="44.1413333" lon="11.5077933"><ele>780.75</ele><time>2026-05-02T15:09:11.553Z</time></trkpt><trkpt lat="44.1414083" lon="11.5079967"><ele>779.5</ele><time>2026-05-02T15:09:12.553Z</time></trkpt><trkpt lat="44.141465" lon="11.5081783"><ele>778.25</ele><time>2026-05-02T15:09:13.553Z</time></trkpt><trkpt lat="44.1415067" lon="11.5083383"><ele>777.0</ele><time>2026-05-02T15:09:14.553Z</time></trkpt><trkpt lat="44.1415367" lon="11.50849"><ele>777.0</ele><time>2026-05-02T15:09:15.553Z</time></trkpt><trkpt lat="44.141535" lon="11.5086167"><ele>777.0</ele><time>2026-05-02T15:09:16.553Z</time></trkpt><trkpt lat="44.1415017" lon="11.50873"><ele>777.0</ele><time>2026-05-02T15:09:17.553Z</time></trkpt><trkpt lat="44.1414417" lon="11.5088267"><ele>777.0</ele><time>2026-05-02T15:09:18.553Z</time></trkpt><trkpt lat="44.1413533" lon="11.508885"><ele>777.0</ele><time>2026-05-02T15:09:19.553Z</time></trkpt><trkpt lat="44.1411917" lon="11.50893"><ele>782.6666666666667</ele><time>2026-05-02T15:09:20.553Z</time></trkpt><trkpt lat="44.141025" lon="11.5090217"><ele>788.3333333333334</ele><time>2026-05-02T15:09:21.553Z</time></trkpt><trkpt lat="44.1408783" lon="11.5091283"><ele>794.0</ele><time>2026-05-02T15:09:22.553Z</time></trkpt><trkpt lat="44.1407483" lon="11.50924"><ele>790.6</ele><time>2026-05-02T15:09:23.553Z</time></trkpt><trkpt lat="44.1406383" lon="11.5093233"><ele>787.2</ele><time>2026-05-02T15:09:24.553Z</time></trkpt><trkpt lat="44.140535" lon="11.5093933"><ele>783.8000000000001</ele><time>2026-05-02T15:09:25.553Z</time></trkpt><trkpt lat="44.1404333" lon="11.5094483"><ele>780.4000000000001</ele><time>2026-05-02T15:09:26.553Z</time></trkpt><trkpt lat="44.140345" lon="11.50949"><ele>777.0</ele><time>2026-05-02T15:09:27.553Z</time></trkpt><trkpt lat="44.1402617" lon="11.5094933"><ele>777.0</ele><time>2026-05-02T15:09:28.553Z</time></trkpt><trkpt lat="44.1401917" lon="11.5094733"><ele>777.0</ele><time>2026-05-02T15:09:29.553Z</time></trkpt><trkpt lat="44.1401683" lon="11.5093783"><ele>777.0</ele><time>2026-05-02T15:09:30.553Z</time></trkpt><trkpt lat="44.1401767" lon="11.50927"><ele>777.0</ele><time>2026-05-02T15:09:31.553Z</time></trkpt><trkpt lat="44.1402417" lon="11.5092017"><ele>777.0</ele><time>2026-05-02T15:09:32.553Z</time></trkpt><trkpt lat="44.140335" lon="11.5091683"><ele>777.0</ele><time>2026-05-02T15:09:33.553Z</time></trkpt><trkpt lat="44.1404383" lon="11.5091517"><ele>777.0</ele><time>2026-05-02T15:09:34.553Z</time></trkpt><trkpt lat="44.14054" lon="11.509115"><ele>777.0</ele><time>2026-05-02T15:09:35.553Z</time></trkpt><trkpt lat="44.14062" lon="11.50906"><ele>777.0</ele><time>2026-05-02T15:09:36.552Z</time></trkpt><trkpt lat="44.1406817" lon="11.5089833"><ele>777.0</ele><time>2026-05-02T15:09:37.553Z</time></trkpt><trkpt lat="44.1406717" lon="11.5088833"><ele>777.0</ele><time>2026-05-02T15:09:38.553Z</time></trkpt><trkpt lat="44.1406183" lon="11.508795"><ele>777.0</ele><time>2026-05-02T15:09:39.553Z</time></trkpt><trkpt lat="44.1405267" lon="11.508735"><ele>777.0</ele><time>2026-05-02T15:09:40.553Z</time></trkpt><trkpt lat="44.1404033" lon="11.5087283"><ele>777.0</ele><time>2026-05-02T15:09:41.553Z</time></trkpt><trkpt lat="44.140265" lon="11.508785"><ele>777.0</ele><time>2026-05-02T15:09:42.553Z</time></trkpt><trkpt lat="44.14012" lon="11.5089017"><ele>777.0</ele><time>2026-05-02T15:09:43.552Z</time></trkpt><trkpt lat="44.1399933" lon="11.5090367"><ele>771.0</ele><time>2026-05-02T15:09:44.553Z</time></trkpt><trkpt lat="44.13987" lon="11.5091567"><ele>765.0</ele><time>2026-05-02T15:09:45.553Z</time></trkpt><trkpt lat="44.1397433" lon="11.50921"><ele>759.0</ele><time>2026-05-02T15:09:46.553Z</time></trkpt><trkpt lat="44.1396033" lon="11.509225"><ele>753.0</ele><time>2026-05-02T15:09:47.553Z</time></trkpt><trkpt lat="44.1394667" lon="11.509255"><ele>753.0</ele><time>2026-05-02T15:09:48.553Z</time></trkpt><trkpt lat="44.1393467" lon="11.509335"><ele>753.0</ele><time>2026-05-02T15:09:49.553Z</time></trkpt><trkpt lat="44.1392517" lon="11.5094617"><ele>753.0</ele><time>2026-05-02T15:09:50.553Z</time></trkpt><trkpt lat="44.1391767" lon="11.5096367"><ele>753.0</ele><time>2026-05-02T15:09:51.553Z</time></trkpt><trkpt lat="44.139105" lon="11.5098183"><ele>746.25</ele><time>2026-05-02T15:09:52.553Z</time></trkpt><trkpt lat="44.139025" lon="11.509995"><ele>739.5</ele><time>2026-05-02T15:09:53.553Z</time></trkpt><trkpt lat="44.1389533" lon="11.510145"><ele>732.75</ele><time>2026-05-02T15:09:54.553Z</time></trkpt><trkpt lat="44.138875" lon="11.5102817"><ele>726.0</ele><time>2026-05-02T15:09:55.553Z</time></trkpt><trkpt lat="44.138835" lon="11.5104283"><ele>725.25</ele><time>2026-05-02T15:09:56.553Z</time></trkpt><trkpt lat="44.13882" lon="11.5105833"><ele>724.5</ele><time>2026-05-02T15:09:57.553Z</time></trkpt><trkpt lat="44.1388483" lon="11.5107583"><ele>723.75</ele><time>2026-05-02T15:09:58.553Z</time></trkpt><trkpt lat="44.1388967" lon="11.51095"><ele>723.0</ele><time>2026-05-02T15:09:59.553Z</time></trkpt><trkpt lat="44.1389383" lon="11.5111333"><ele>721.5</ele><time>2026-05-02T15:10:00.553Z</time></trkpt><trkpt lat="44.1389917" lon="11.5112917"><ele>720.0</ele><time>2026-05-02T15:10:01.553Z</time></trkpt><trkpt lat="44.1390933" lon="11.5114067"><ele>718.5</ele><time>2026-05-02T15:10:02.553Z</time></trkpt><trkpt lat="44.1392033" lon="11.5114717"><ele>717.0</ele><time>2026-05-02T15:10:03.553Z</time></trkpt><trkpt lat="44.1393417" lon="11.5114983"><ele>723.5</ele><time>2026-05-02T15:10:04.553Z</time></trkpt><trkpt lat="44.1394817" lon="11.5114917"><ele>730.0</ele><time>2026-05-02T15:10:05.552Z</time></trkpt><trkpt lat="44.1395983" lon="11.5114983"><ele>736.5</ele><time>2026-05-02T15:10:06.553Z</time></trkpt><trkpt lat="44.1397083" lon="11.5115283"><ele>743.0</ele><time>2026-05-02T15:10:07.553Z</time></trkpt><trkpt lat="44.1398017" lon="11.511555"><ele>743.0</ele><time>2026-05-02T15:10:08.552Z</time></trkpt><trkpt lat="44.1398833" lon="11.5115867"><ele>743.0</ele><time>2026-05-02T15:10:09.553Z</time></trkpt><trkpt lat="44.13996" lon="11.5116333"><ele>743.0</ele><time>2026-05-02T15:10:10.553Z</time></trkpt><trkpt lat="44.14002" lon="11.5116967"><ele>743.0</ele><time>2026-05-02T15:10:11.553Z</time></trkpt><trkpt lat="44.14004" lon="11.5118"><ele>743.0</ele><time>2026-05-02T15:10:12.552Z</time></trkpt><trkpt lat="44.1400433" lon="11.511895"><ele>743.0</ele><time>2026-05-02T15:10:13.553Z</time></trkpt><trkpt lat="44.1399983" lon="11.5119683"><ele>743.0</ele><time>2026-05-02T15:10:14.553Z</time></trkpt><trkpt lat="44.1399" lon="11.51196"><ele>743.0</ele><time>2026-05-02T15:10:15.553Z</time></trkpt><trkpt lat="44.1397917" lon="11.5119783"><ele>743.0</ele><time>2026-05-02T15:10:16.553Z</time></trkpt><trkpt lat="44.1396767" lon="11.5120233"><ele>743.0</ele><time>2026-05-02T15:10:17.553Z</time></trkpt><trkpt lat="44.1395567" lon="11.5121133"><ele>740.0</ele><time>2026-05-02T15:10:18.553Z</time></trkpt><trkpt lat="44.1394483" lon="11.51223"><ele>737.0</ele><time>2026-05-02T15:10:19.553Z</time></trkpt><trkpt lat="44.13933" lon="11.5123467"><ele>734.0</ele><time>2026-05-02T15:10:20.553Z</time></trkpt><trkpt lat="44.1392133" lon="11.5124583"><ele>731.0</ele><time>2026-05-02T15:10:21.553Z</time></trkpt><trkpt lat="44.1391133" lon="11.5125817"><ele>731.0</ele><time>2026-05-02T15:10:22.553Z</time></trkpt><trkpt lat="44.1390533" lon="11.51272"><ele>731.0</ele><time>2026-05-02T15:10:23.553Z</time></trkpt><trkpt lat="44.1390283" lon="11.512895"><ele>731.0</ele><time>2026-05-02T15:10:24.553Z</time></trkpt><trkpt lat="44.13903" lon="11.51311"><ele>731.0</ele><time>2026-05-02T15:10:25.553Z</time></trkpt><trkpt lat="44.139065" lon="11.5133433"><ele>731.0</ele><time>2026-05-02T15:10:26.553Z</time></trkpt><trkpt lat="44.1391" lon="11.5135733"><ele>731.0</ele><time>2026-05-02T15:10:27.553Z</time></trkpt><trkpt lat="44.1391267" lon="11.5138033"><ele>731.0</ele><time>2026-05-02T15:10:28.553Z</time></trkpt><trkpt lat="44.139135" lon="11.51402"><ele>731.0</ele><time>2026-05-02T15:10:29.553Z</time></trkpt><trkpt lat="44.1391133" lon="11.5142233"><ele>731.0</ele><time>2026-05-02T15:10:30.553Z</time></trkpt><trkpt lat="44.139065" lon="11.5144033"><ele>731.0</ele><time>2026-05-02T15:10:31.553Z</time></trkpt><trkpt lat="44.138985" lon="11.5145333"><ele>731.0</ele><time>2026-05-02T15:10:32.553Z</time></trkpt><trkpt lat="44.13889" lon="11.514575"><ele>732.5</ele><time>2026-05-02T15:10:33.553Z</time></trkpt><trkpt lat="44.1387767" lon="11.5145583"><ele>734.0</ele><time>2026-05-02T15:10:34.553Z</time></trkpt><trkpt lat="44.13866" lon="11.5144783"><ele>735.5</ele><time>2026-05-02T15:10:35.553Z</time></trkpt><trkpt lat="44.1385467" lon="11.514355"><ele>737.0</ele><time>2026-05-02T15:10:36.553Z</time></trkpt><trkpt lat="44.138445" lon="11.5141983"><ele>737.0</ele><time>2026-05-02T15:10:37.553Z</time></trkpt><trkpt lat="44.1383733" lon="11.5140083"><ele>737.0</ele><time>2026-05-02T15:10:38.553Z</time></trkpt><trkpt lat="44.1383483" lon="11.513795"><ele>737.0</ele><time>2026-05-02T15:10:39.553Z</time></trkpt><trkpt lat="44.13832" lon="11.5135917"><ele>737.5</ele><time>2026-05-02T15:10:40.553Z</time></trkpt><trkpt lat="44.1382833" lon="11.513405"><ele>738.0</ele><time>2026-05-02T15:10:41.553Z</time></trkpt><trkpt lat="44.1382217" lon="11.5132833"><ele>738.5</ele><time>2026-05-02T15:10:42.553Z</time></trkpt><trkpt lat="44.1381267" lon="11.513205"><ele>739.0</ele><time>2026-05-02T15:10:43.553Z</time></trkpt><trkpt lat="44.1380183" lon="11.5131817"><ele>739.0</ele><time>2026-05-02T15:10:44.553Z</time></trkpt><trkpt lat="44.137905" lon="11.513185"><ele>739.0</ele><time>2026-05-02T15:10:45.552Z</time></trkpt><trkpt lat="44.1377883" lon="11.5131617"><ele>739.0</ele><time>2026-05-02T15:10:46.552Z</time></trkpt><trkpt lat="44.1376767" lon="11.5130917"><ele>739.0</ele><time>2026-05-02T15:10:47.553Z</time></trkpt><trkpt lat="44.1375717" lon="11.5129867"><ele>741.0</ele><time>2026-05-02T15:10:48.553Z</time></trkpt><trkpt lat="44.1374917" lon="11.5128067"><ele>743.0</ele><time>2026-05-02T15:10:49.553Z</time></trkpt><trkpt lat="44.1374233" lon="11.5125767"><ele>745.0</ele><time>2026-05-02T15:10:50.552Z</time></trkpt><trkpt lat="44.1373417" lon="11.512355"><ele>745.0</ele><time>2026-05-02T15:10:51.553Z</time></trkpt><trkpt lat="44.1372633" lon="11.5121317"><ele>745.0</ele><time>2026-05-02T15:10:52.553Z</time></trkpt><trkpt lat="44.1371883" lon="11.5119183"><ele>745.0</ele><time>2026-05-02T15:10:53.553Z</time></trkpt><trkpt lat="44.1371117" lon="11.5117267"><ele>738.3333333333334</ele><time>2026-05-02T15:10:54.553Z</time></trkpt><trkpt lat="44.137025" lon="11.51153"><ele>731.6666666666666</ele><time>2026-05-02T15:10:55.553Z</time></trkpt><trkpt lat="44.1369283" lon="11.5113483"><ele>725.0</ele><time>2026-05-02T15:10:56.553Z</time></trkpt><trkpt lat="44.1367967" lon="11.5111633"><ele>723.3333333333333</ele><time>2026-05-02T15:10:57.553Z</time></trkpt><trkpt lat="44.136655" lon="11.5109733"><ele>721.6666666666666</ele><time>2026-05-02T15:10:58.553Z</time></trkpt><trkpt lat="44.1365083" lon="11.5108"><ele>720.0</ele><time>2026-05-02T15:10:59.553Z</time></trkpt><trkpt lat="44.13637" lon="11.5106133"><ele>720.0</ele><time>2026-05-02T15:11:00.553Z</time></trkpt><trkpt lat="44.1362483" lon="11.510455"><ele>720.0</ele><time>2026-05-02T15:11:01.553Z</time></trkpt><trkpt lat="44.1361517" lon="11.5102883"><ele>720.0</ele><time>2026-05-02T15:11:02.553Z</time></trkpt><trkpt lat="44.1360867" lon="11.510135"><ele>720.0</ele><time>2026-05-02T15:11:03.553Z</time></trkpt><trkpt lat="44.1360183" lon="11.509995"><ele>714.5</ele><time>2026-05-02T15:11:04.553Z</time></trkpt><trkpt lat="44.135945" lon="11.509895"><ele>709.0</ele><time>2026-05-02T15:11:05.553Z</time></trkpt><trkpt lat="44.1358517" lon="11.5098133"><ele>703.5</ele><time>2026-05-02T15:11:06.553Z</time></trkpt><trkpt lat="44.135745" lon="11.5097417"><ele>698.0</ele><time>2026-05-02T15:11:07.553Z</time></trkpt><trkpt lat="44.1356383" lon="11.50967"><ele>695.25</ele><time>2026-05-02T15:11:08.553Z</time></trkpt><trkpt lat="44.13553" lon="11.5096167"><ele>692.5</ele><time>2026-05-02T15:11:09.553Z</time></trkpt><trkpt lat="44.1354217" lon="11.5096083"><ele>689.75</ele><time>2026-05-02T15:11:10.552Z</time></trkpt><trkpt lat="44.1353083" lon="11.5096567"><ele>687.0</ele><time>2026-05-02T15:11:11.553Z</time></trkpt><trkpt lat="44.1351983" lon="11.5097383"><ele>687.0</ele><time>2026-05-02T15:11:12.553Z</time></trkpt><trkpt lat="44.13508" lon="11.5098217"><ele>687.0</ele><time>2026-05-02T15:11:13.553Z</time></trkpt><trkpt lat="44.1349567" lon="11.509915"><ele>687.0</ele><time>2026-05-02T15:11:14.553Z</time></trkpt><trkpt lat="44.1348317" lon="11.5099967"><ele>687.0</ele><time>2026-05-02T15:11:15.553Z</time></trkpt><trkpt lat="44.1347167" lon="11.510105"><ele>687.0</ele><time>2026-05-02T15:11:16.553Z</time></trkpt><trkpt lat="44.13461" lon="11.5102633"><ele>687.0</ele><time>2026-05-02T15:11:17.553Z</time></trkpt><trkpt lat="44.134505" lon="11.5104367"><ele>687.0</ele><time>2026-05-02T15:11:18.553Z</time></trkpt><trkpt lat="44.134395" lon="11.5105967"><ele>687.0</ele><time>2026-05-02T15:11:19.553Z</time></trkpt><trkpt lat="44.134295" lon="11.5107417"><ele>687.0</ele><time>2026-05-02T15:11:20.553Z</time></trkpt><trkpt lat="44.134195" lon="11.5108633"><ele>687.0</ele><time>2026-05-02T15:11:21.553Z</time></trkpt><trkpt lat="44.134095" lon="11.5109633"><ele>687.0</ele><time>2026-05-02T15:11:22.553Z</time></trkpt><trkpt lat="44.1340033" lon="11.5110367"><ele>688.0</ele><time>2026-05-02T15:11:23.553Z</time></trkpt><trkpt lat="44.1338983" lon="11.5110533"><ele>689.0</ele><time>2026-05-02T15:11:24.553Z</time></trkpt><trkpt lat="44.1337933" lon="11.5110067"><ele>690.0</ele><time>2026-05-02T15:11:25.553Z</time></trkpt><trkpt lat="44.1336833" lon="11.5109067"><ele>691.0</ele><time>2026-05-02T15:11:26.553Z</time></trkpt><trkpt lat="44.1335617" lon="11.5107867"><ele>691.0</ele><time>2026-05-02T15:11:27.553Z</time></trkpt><trkpt lat="44.13343" lon="11.5106833"><ele>691.0</ele><time>2026-05-02T15:11:28.553Z</time></trkpt><trkpt lat="44.1332933" lon="11.5106067"><ele>691.0</ele><time>2026-05-02T15:11:29.553Z</time></trkpt><trkpt lat="44.1331667" lon="11.510515"><ele>691.0</ele><time>2026-05-02T15:11:30.553Z</time></trkpt><trkpt lat="44.13306" lon="11.510415"><ele>686.75</ele><time>2026-05-02T15:11:31.553Z</time></trkpt><trkpt lat="44.1329817" lon="11.5102817"><ele>682.5</ele><time>2026-05-02T15:11:32.553Z</time></trkpt><trkpt lat="44.1328967" lon="11.5101417"><ele>678.25</ele><time>2026-05-02T15:11:33.553Z</time></trkpt><trkpt lat="44.1328017" lon="11.5100233"><ele>674.0</ele><time>2026-05-02T15:11:34.553Z</time></trkpt><trkpt lat="44.132685" lon="11.5099167"><ele>674.0</ele><time>2026-05-02T15:11:35.553Z</time></trkpt><trkpt lat="44.1325717" lon="11.5098033"><ele>674.0</ele><time>2026-05-02T15:11:36.553Z</time></trkpt><trkpt lat="44.1324817" lon="11.5096917"><ele>674.0</ele><time>2026-05-02T15:11:37.553Z</time></trkpt><trkpt lat="44.1323733" lon="11.5096183"><ele>674.0</ele><time>2026-05-02T15:11:38.553Z</time></trkpt><trkpt lat="44.1322383" lon="11.509585"><ele>670.25</ele><time>2026-05-02T15:11:39.553Z</time></trkpt><trkpt lat="44.1321167" lon="11.509575"><ele>666.5</ele><time>2026-05-02T15:11:40.553Z</time></trkpt><trkpt lat="44.13201" lon="11.5095917"><ele>662.75</ele><time>2026-05-02T15:11:41.552Z</time></trkpt><trkpt lat="44.1319117" lon="11.5096717"><ele>659.0</ele><time>2026-05-02T15:11:42.553Z</time></trkpt><trkpt lat="44.1318333" lon="11.5097833"><ele>659.0</ele><time>2026-05-02T15:11:43.553Z</time></trkpt><trkpt lat="44.1317533" lon="11.5099283"><ele>659.0</ele><time>2026-05-02T15:11:44.553Z</time></trkpt><trkpt lat="44.13166" lon="11.5100667"><ele>659.0</ele><time>2026-05-02T15:11:45.553Z</time></trkpt><trkpt lat="44.13154" lon="11.510145"><ele>659.0</ele><time>2026-05-02T15:11:46.553Z</time></trkpt><trkpt lat="44.1314083" lon="11.510175"><ele>653.0</ele><time>2026-05-02T15:11:47.553Z</time></trkpt><trkpt lat="44.1312883" lon="11.5101683"><ele>647.0</ele><time>2026-05-02T15:11:48.553Z</time></trkpt><trkpt lat="44.1311783" lon="11.51017"><ele>641.0</ele><time>2026-05-02T15:11:49.553Z</time></trkpt><trkpt lat="44.1310833" lon="11.510235"><ele>635.0</ele><time>2026-05-02T15:11:50.553Z</time></trkpt><trkpt lat="44.1309967" lon="11.51035"><ele>629.6666666666666</ele><time>2026-05-02T15:11:51.553Z</time></trkpt><trkpt lat="44.1309033" lon="11.510505"><ele>624.3333333333334</ele><time>2026-05-02T15:11:52.553Z</time></trkpt><trkpt lat="44.1307983" lon="11.5106767"><ele>619.0</ele><time>2026-05-02T15:11:53.553Z</time></trkpt><trkpt lat="44.1307033" lon="11.51086"><ele>619.0</ele><time>2026-05-02T15:11:54.552Z</time></trkpt><trkpt lat="44.13061" lon="11.5110467"><ele>619.0</ele><time>2026-05-02T15:11:55.553Z</time></trkpt><trkpt lat="44.1305317" lon="11.5112283"><ele>619.0</ele><time>2026-05-02T15:11:56.553Z</time></trkpt><trkpt lat="44.1304467" lon="11.5114117"><ele>623.6666666666667</ele><time>2026-05-02T15:11:57.553Z</time></trkpt><trkpt lat="44.13034" lon="11.5115967"><ele>628.3333333333334</ele><time>2026-05-02T15:11:58.553Z</time></trkpt><trkpt lat="44.130195" lon="11.5117767"><ele>633.0</ele><time>2026-05-02T15:11:59.553Z</time></trkpt><trkpt lat="44.13004" lon="11.5119433"><ele>630.0</ele><time>2026-05-02T15:12:00.553Z</time></trkpt><trkpt lat="44.1298883" lon="11.5121067"><ele>627.0</ele><time>2026-05-02T15:12:01.553Z</time></trkpt><trkpt lat="44.1297517" lon="11.5122417"><ele>624.0</ele><time>2026-05-02T15:12:02.553Z</time></trkpt><trkpt lat="44.1296167" lon="11.5123417"><ele>624.0</ele><time>2026-05-02T15:12:03.553Z</time></trkpt><trkpt lat="44.1294667" lon="11.5124"><ele>624.0</ele><time>2026-05-02T15:12:04.553Z</time></trkpt><trkpt lat="44.1293267" lon="11.5124517"><ele>624.0</ele><time>2026-05-02T15:12:05.553Z</time></trkpt><trkpt lat="44.1291833" lon="11.512515"><ele>616.6666666666666</ele><time>2026-05-02T15:12:06.553Z</time></trkpt><trkpt lat="44.1290483" lon="11.512615"><ele>609.3333333333333</ele><time>2026-05-02T15:12:07.553Z</time></trkpt><trkpt lat="44.1289283" lon="11.512765"><ele>602.0</ele><time>2026-05-02T15:12:08.553Z</time></trkpt><trkpt lat="44.1288267" lon="11.51292"><ele>602.0</ele><time>2026-05-02T15:12:09.552Z</time></trkpt><trkpt lat="44.12875" lon="11.5130733"><ele>602.0</ele><time>2026-05-02T15:12:10.553Z</time></trkpt><trkpt lat="44.1287017" lon="11.51322"><ele>602.0</ele><time>2026-05-02T15:12:11.553Z</time></trkpt><trkpt lat="44.1286983" lon="11.5133517"><ele>602.0</ele><time>2026-05-02T15:12:12.553Z</time></trkpt><trkpt lat="44.128745" lon="11.51348"><ele>602.0</ele><time>2026-05-02T15:12:13.553Z</time></trkpt><trkpt lat="44.1288033" lon="11.5136067"><ele>602.0</ele><time>2026-05-02T15:12:14.553Z</time></trkpt><trkpt lat="44.1288217" lon="11.5137317"><ele>602.0</ele><time>2026-05-02T15:12:15.553Z</time></trkpt><trkpt lat="44.128785" lon="11.51385"><ele>602.0</ele><time>2026-05-02T15:12:16.553Z</time></trkpt><trkpt lat="44.128735" lon="11.5139567"><ele>602.0</ele><time>2026-05-02T15:12:17.553Z</time></trkpt><trkpt lat="44.12871" lon="11.51407"><ele>602.0</ele><time>2026-05-02T15:12:18.553Z</time></trkpt><trkpt lat="44.128755" lon="11.5141717"><ele>602.0</ele><time>2026-05-02T15:12:19.552Z</time></trkpt><trkpt lat="44.12884" lon="11.51425"><ele>601.25</ele><time>2026-05-02T15:12:20.553Z</time></trkpt><trkpt lat="44.1289633" lon="11.514305"><ele>600.5</ele><time>2026-05-02T15:12:21.553Z</time></trkpt><trkpt lat="44.129095" lon="11.5143433"><ele>599.75</ele><time>2026-05-02T15:12:22.553Z</time></trkpt><trkpt lat="44.12922" lon="11.5143683"><ele>599.0</ele><time>2026-05-02T15:12:23.553Z</time></trkpt><trkpt lat="44.1293267" lon="11.5144083"><ele>601.0</ele><time>2026-05-02T15:12:24.553Z</time></trkpt><trkpt lat="44.12942" lon="11.5144933"><ele>603.0</ele><time>2026-05-02T15:12:25.553Z</time></trkpt><trkpt lat="44.1294833" lon="11.5146167"><ele>605.0</ele><time>2026-05-02T15:12:26.553Z</time></trkpt><trkpt lat="44.1294983" lon="11.51476"><ele>607.0</ele><time>2026-05-02T15:12:27.553Z</time></trkpt><trkpt lat="44.1294683" lon="11.5149067"><ele>609.0</ele><time>2026-05-02T15:12:28.553Z</time></trkpt><trkpt lat="44.12943" lon="11.5150517"><ele>609.0</ele><time>2026-05-02T15:12:29.553Z</time></trkpt><trkpt lat="44.1293433" lon="11.51519"><ele>609.0</ele><time>2026-05-02T15:12:30.553Z</time></trkpt><trkpt lat="44.129255" lon="11.5153367"><ele>609.0</ele><time>2026-05-02T15:12:31.553Z</time></trkpt><trkpt lat="44.1291883" lon="11.5154867"><ele>609.0</ele><time>2026-05-02T15:12:32.553Z</time></trkpt><trkpt lat="44.1291467" lon="11.5156517"><ele>608.5</ele><time>2026-05-02T15:12:33.553Z</time></trkpt><trkpt lat="44.12913" lon="11.515825"><ele>608.0</ele><time>2026-05-02T15:12:34.553Z</time></trkpt><trkpt lat="44.12914" lon="11.51602"><ele>607.5</ele><time>2026-05-02T15:12:35.553Z</time></trkpt><trkpt lat="44.1291467" lon="11.51621"><ele>607.0</ele><time>2026-05-02T15:12:36.553Z</time></trkpt><trkpt lat="44.1291317" lon="11.5163983"><ele>608.3333333333334</ele><time>2026-05-02T15:12:37.553Z</time></trkpt><trkpt lat="44.1290867" lon="11.5165967"><ele>609.6666666666666</ele><time>2026-05-02T15:12:38.553Z</time></trkpt><trkpt lat="44.1290067" lon="11.51678"><ele>611.0</ele><time>2026-05-02T15:12:39.553Z</time></trkpt><trkpt lat="44.128905" lon="11.5169417"><ele>603.6</ele><time>2026-05-02T15:12:40.553Z</time></trkpt><trkpt lat="44.128815" lon="11.5170817"><ele>596.2</ele><time>2026-05-02T15:12:41.553Z</time></trkpt><trkpt lat="44.1287317" lon="11.5171867"><ele>588.8</ele><time>2026-05-02T15:12:42.553Z</time></trkpt><trkpt lat="44.1286717" lon="11.5172967"><ele>581.4</ele><time>2026-05-02T15:12:43.553Z</time></trkpt><trkpt lat="44.1286383" lon="11.5174183"><ele>574.0</ele><time>2026-05-02T15:12:44.553Z</time></trkpt><trkpt lat="44.128665" lon="11.517525"><ele>574.0</ele><time>2026-05-02T15:12:45.553Z</time></trkpt><trkpt lat="44.1287367" lon="11.5176267"><ele>574.0</ele><time>2026-05-02T15:12:46.553Z</time></trkpt><trkpt lat="44.12885" lon="11.5177167"><ele>574.0</ele><time>2026-05-02T15:12:47.553Z</time></trkpt><trkpt lat="44.128995" lon="11.517795"><ele>574.0</ele><time>2026-05-02T15:12:48.553Z</time></trkpt><trkpt lat="44.1291483" lon="11.517865"><ele>576.75</ele><time>2026-05-02T15:12:49.553Z</time></trkpt><trkpt lat="44.129305" lon="11.5179133"><ele>579.5</ele><time>2026-05-02T15:12:50.553Z</time></trkpt><trkpt lat="44.1294517" lon="11.517945"><ele>582.25</ele><time>2026-05-02T15:12:51.553Z</time></trkpt><trkpt lat="44.1295733" lon="11.5179833"><ele>585.0</ele><time>2026-05-02T15:12:52.553Z</time></trkpt><trkpt lat="44.1296617" lon="11.5180283"><ele>585.0</ele><time>2026-05-02T15:12:53.552Z</time></trkpt><trkpt lat="44.1297133" lon="11.518105"><ele>585.0</ele><time>2026-05-02T15:12:54.553Z</time></trkpt><trkpt lat="44.1297233" lon="11.5182033"><ele>585.0</ele><time>2026-05-02T15:12:55.553Z</time></trkpt><trkpt lat="44.1297017" lon="11.5183217"><ele>585.0</ele><time>2026-05-02T15:12:56.552Z</time></trkpt><trkpt lat="44.12967" lon="11.5184617"><ele>585.0</ele><time>2026-05-02T15:12:57.553Z</time></trkpt><trkpt lat="44.1296383" lon="11.518615"><ele>586.6</ele><time>2026-05-02T15:12:58.553Z</time></trkpt><trkpt lat="44.1295983" lon="11.5187533"><ele>588.2</ele><time>2026-05-02T15:12:59.553Z</time></trkpt><trkpt lat="44.129555" lon="11.5188583"><ele>589.8</ele><time>2026-05-02T15:13:00.553Z</time></trkpt><trkpt lat="44.1295017" lon="11.5189333"><ele>591.4</ele><time>2026-05-02T15:13:01.553Z</time></trkpt><trkpt lat="44.1294267" lon="11.51896"><ele>593.0</ele><time>2026-05-02T15:13:02.553Z</time></trkpt><trkpt lat="44.1293217" lon="11.518925"><ele>593.0</ele><time>2026-05-02T15:13:03.553Z</time></trkpt><trkpt lat="44.1292067" lon="11.5188583"><ele>593.0</ele><time>2026-05-02T15:13:04.552Z</time></trkpt><trkpt lat="44.1290933" lon="11.5188667"><ele>593.0</ele><time>2026-05-02T15:13:05.553Z</time></trkpt><trkpt lat="44.1289683" lon="11.518935"><ele>593.0</ele><time>2026-05-02T15:13:06.553Z</time></trkpt><trkpt lat="44.128835" lon="11.519055"><ele>590.3333333333333</ele><time>2026-05-02T15:13:07.553Z</time></trkpt><trkpt lat="44.128695" lon="11.5191633"><ele>587.6666666666666</ele><time>2026-05-02T15:13:08.553Z</time></trkpt><trkpt lat="44.12855" lon="11.5192483"><ele>585.0</ele><time>2026-05-02T15:13:09.553Z</time></trkpt><trkpt lat="44.1283967" lon="11.5192533"><ele>585.0</ele><time>2026-05-02T15:13:10.553Z</time></trkpt><trkpt lat="44.1282533" lon="11.5192383"><ele>585.0</ele><time>2026-05-02T15:13:11.553Z</time></trkpt><trkpt lat="44.1281267" lon="11.519215"><ele>585.0</ele><time>2026-05-02T15:13:12.552Z</time></trkpt><trkpt lat="44.1280183" lon="11.5191483"><ele>585.0</ele><time>2026-05-02T15:13:13.553Z</time></trkpt><trkpt lat="44.1279233" lon="11.519055"><ele>584.75</ele><time>2026-05-02T15:13:14.553Z</time></trkpt><trkpt lat="44.1278133" lon="11.519005"><ele>584.5</ele><time>2026-05-02T15:13:15.553Z</time></trkpt><trkpt lat="44.1276783" lon="11.518985"><ele>584.25</ele><time>2026-05-02T15:13:16.553Z</time></trkpt><trkpt lat="44.127515" lon="11.5190167"><ele>584.0</ele><time>2026-05-02T15:13:17.553Z</time></trkpt><trkpt lat="44.127355" lon="11.519085"><ele>581.0</ele><time>2026-05-02T15:13:18.553Z</time></trkpt><trkpt lat="44.1272" lon="11.5191533"><ele>578.0</ele><time>2026-05-02T15:13:19.553Z</time></trkpt><trkpt lat="44.12705" lon="11.519185"><ele>575.0</ele><time>2026-05-02T15:13:20.553Z</time></trkpt><trkpt lat="44.12692" lon="11.5191817"><ele>572.0</ele><time>2026-05-02T15:13:21.553Z</time></trkpt><trkpt lat="44.1268083" lon="11.5191733"><ele>572.0</ele><time>2026-05-02T15:13:22.553Z</time></trkpt><trkpt lat="44.1267033" lon="11.519185"><ele>572.0</ele><time>2026-05-02T15:13:23.553Z</time></trkpt><trkpt lat="44.126595" lon="11.51925"><ele>572.0</ele><time>2026-05-02T15:13:24.553Z</time></trkpt><trkpt lat="44.1264983" lon="11.5193567"><ele>572.0</ele><time>2026-05-02T15:13:25.552Z</time></trkpt><trkpt lat="44.126405" lon="11.51948"><ele>569.3333333333333</ele><time>2026-05-02T15:13:26.553Z</time></trkpt><trkpt lat="44.1263033" lon="11.51963"><ele>566.6666666666666</ele><time>2026-05-02T15:13:27.553Z</time></trkpt><trkpt lat="44.1262117" lon="11.51982"><ele>564.0</ele><time>2026-05-02T15:13:28.553Z</time></trkpt><trkpt lat="44.1261283" lon="11.5200033"><ele>564.0</ele><time>2026-05-02T15:13:29.553Z</time></trkpt><trkpt lat="44.126055" lon="11.5201983"><ele>564.0</ele><time>2026-05-02T15:13:30.553Z</time></trkpt><trkpt lat="44.126" lon="11.5204117"><ele>564.0</ele><time>2026-05-02T15:13:31.553Z</time></trkpt><trkpt lat="44.1259733" lon="11.5206383"><ele>566.6666666666666</ele><time>2026-05-02T15:13:32.553Z</time></trkpt><trkpt lat="44.12596" lon="11.5208683"><ele>569.3333333333333</ele><time>2026-05-02T15:13:33.553Z</time></trkpt><trkpt lat="44.1259217" lon="11.5210917"><ele>572.0</ele><time>2026-05-02T15:13:34.553Z</time></trkpt><trkpt lat="44.1258617" lon="11.5212883"><ele>576.3333333333333</ele><time>2026-05-02T15:13:35.553Z</time></trkpt><trkpt lat="44.125775" lon="11.521455"><ele>580.6666666666666</ele><time>2026-05-02T15:13:36.553Z</time></trkpt><trkpt lat="44.12567" lon="11.5216017"><ele>585.0</ele><time>2026-05-02T15:13:37.553Z</time></trkpt><trkpt lat="44.1255333" lon="11.5217367"><ele>579.6666666666666</ele><time>2026-05-02T15:13:38.553Z</time></trkpt><trkpt lat="44.1253933" lon="11.5218733"><ele>574.3333333333333</ele><time>2026-05-02T15:13:39.553Z</time></trkpt><trkpt lat="44.1252733" lon="11.5220283"><ele>569.0</ele><time>2026-05-02T15:13:40.553Z</time></trkpt><trkpt lat="44.125165" lon="11.5222117"><ele>569.0</ele><time>2026-05-02T15:13:41.553Z</time></trkpt><trkpt lat="44.125055" lon="11.5224"><ele>569.0</ele><time>2026-05-02T15:13:42.553Z</time></trkpt><trkpt lat="44.12494" lon="11.5225833"><ele>569.0</ele><time>2026-05-02T15:13:43.553Z</time></trkpt><trkpt lat="44.1248217" lon="11.5227517"><ele>563.0</ele><time>2026-05-02T15:13:44.553Z</time></trkpt><trkpt lat="44.124705" lon="11.5228933"><ele>557.0</ele><time>2026-05-02T15:13:45.553Z</time></trkpt><trkpt lat="44.1246" lon="11.523035"><ele>551.0</ele><time>2026-05-02T15:13:46.553Z</time></trkpt><trkpt lat="44.1245217" lon="11.5231867"><ele>545.0</ele><time>2026-05-02T15:13:47.553Z</time></trkpt><trkpt lat="44.124475" lon="11.5233733"><ele>545.0</ele><time>2026-05-02T15:13:48.552Z</time></trkpt><trkpt lat="44.1244433" lon="11.5235933"><ele>545.0</ele><time>2026-05-02T15:13:49.553Z</time></trkpt><trkpt lat="44.124415" lon="11.5238283"><ele>545.0</ele><time>2026-05-02T15:13:50.553Z</time></trkpt><trkpt lat="44.1243617" lon="11.524035"><ele>548.6666666666666</ele><time>2026-05-02T15:13:51.553Z</time></trkpt><trkpt lat="44.1242833" lon="11.5242367"><ele>552.3333333333334</ele><time>2026-05-02T15:13:52.553Z</time></trkpt><trkpt lat="44.1241967" lon="11.5244183"><ele>556.0</ele><time>2026-05-02T15:13:53.553Z</time></trkpt><trkpt lat="44.124115" lon="11.5245883"><ele>557.25</ele><time>2026-05-02T15:13:54.553Z</time></trkpt><trkpt lat="44.1240617" lon="11.5247567"><ele>558.5</ele><time>2026-05-02T15:13:55.553Z</time></trkpt><trkpt lat="44.1240533" lon="11.5249183"><ele>559.75</ele><time>2026-05-02T15:13:56.553Z</time></trkpt><trkpt lat="44.124095" lon="11.525065"><ele>561.0</ele><time>2026-05-02T15:13:57.553Z</time></trkpt><trkpt lat="44.1241583" lon="11.525205"><ele>561.0</ele><time>2026-05-02T15:13:58.553Z</time></trkpt><trkpt lat="44.1241867" lon="11.5253583"><ele>561.0</ele><time>2026-05-02T15:13:59.553Z</time></trkpt><trkpt lat="44.1241667" lon="11.52552"><ele>561.0</ele><time>2026-05-02T15:14:00.552Z</time></trkpt><trkpt lat="44.1240983" lon="11.52567"><ele>561.0</ele><time>2026-05-02T15:14:01.553Z</time></trkpt><trkpt lat="44.1239933" lon="11.525775"><ele>557.25</ele><time>2026-05-02T15:14:02.553Z</time></trkpt><trkpt lat="44.1238767" lon="11.5258533"><ele>553.5</ele><time>2026-05-02T15:14:03.553Z</time></trkpt><trkpt lat="44.12375" lon="11.5259033"><ele>549.75</ele><time>2026-05-02T15:14:04.553Z</time></trkpt><trkpt lat="44.12362" lon="11.525935"><ele>546.0</ele><time>2026-05-02T15:14:05.553Z</time></trkpt><trkpt lat="44.1234867" lon="11.5259683"><ele>546.0</ele><time>2026-05-02T15:14:06.553Z</time></trkpt><trkpt lat="44.1233833" lon="11.526045"><ele>546.0</ele><time>2026-05-02T15:14:07.553Z</time></trkpt><trkpt lat="44.1233133" lon="11.5261817"><ele>546.0</ele><time>2026-05-02T15:14:08.553Z</time></trkpt><trkpt lat="44.1232717" lon="11.526365"><ele>546.0</ele><time>2026-05-02T15:14:09.553Z</time></trkpt><trkpt lat="44.1232333" lon="11.5265617"><ele>544.0</ele><time>2026-05-02T15:14:10.552Z</time></trkpt><trkpt lat="44.1231767" lon="11.5267683"><ele>542.0</ele><time>2026-05-02T15:14:11.553Z</time></trkpt><trkpt lat="44.1230883" lon="11.52695"><ele>540.0</ele><time>2026-05-02T15:14:12.553Z</time></trkpt><trkpt lat="44.1229817" lon="11.527125"><ele>540.0</ele><time>2026-05-02T15:14:13.553Z</time></trkpt><trkpt lat="44.1228567" lon="11.52727"><ele>540.0</ele><time>2026-05-02T15:14:14.553Z</time></trkpt><trkpt lat="44.1227383" lon="11.5273967"><ele>540.0</ele><time>2026-05-02T15:14:15.552Z</time></trkpt><trkpt lat="44.1226383" lon="11.52755"><ele>540.0</ele><time>2026-05-02T15:14:16.553Z</time></trkpt><trkpt lat="44.12255" lon="11.5276917"><ele>540.0</ele><time>2026-05-02T15:14:17.553Z</time></trkpt><trkpt lat="44.122485" lon="11.5278567"><ele>540.0</ele><time>2026-05-02T15:14:18.553Z</time></trkpt><trkpt lat="44.1224483" lon="11.52803"><ele>540.0</ele><time>2026-05-02T15:14:19.553Z</time></trkpt><trkpt lat="44.1224583" lon="11.5281983"><ele>540.5</ele><time>2026-05-02T15:14:20.553Z</time></trkpt><trkpt lat="44.122515" lon="11.528335"><ele>541.0</ele><time>2026-05-02T15:14:21.553Z</time></trkpt><trkpt lat="44.12261" lon="11.5284333"><ele>541.5</ele><time>2026-05-02T15:14:22.553Z</time></trkpt><trkpt lat="44.12273" lon="11.5285017"><ele>542.0</ele><time>2026-05-02T15:14:23.553Z</time></trkpt><trkpt lat="44.1228533" lon="11.52856"><ele>542.0</ele><time>2026-05-02T15:14:24.553Z</time></trkpt><trkpt lat="44.1229583" lon="11.5286433"><ele>542.0</ele><time>2026-05-02T15:14:25.552Z</time></trkpt><trkpt lat="44.1230283" lon="11.5287517"><ele>542.0</ele><time>2026-05-02T15:14:26.553Z</time></trkpt><trkpt lat="44.1230767" lon="11.5288733"><ele>542.0</ele><time>2026-05-02T15:14:27.553Z</time></trkpt><trkpt lat="44.1230833" lon="11.5290267"><ele>542.0</ele><time>2026-05-02T15:14:28.553Z</time></trkpt><trkpt lat="44.1230683" lon="11.529195"><ele>539.75</ele><time>2026-05-02T15:14:29.553Z</time></trkpt><trkpt lat="44.1230417" lon="11.5293617"><ele>537.5</ele><time>2026-05-02T15:14:30.553Z</time></trkpt><trkpt lat="44.122995" lon="11.5295183"><ele>535.25</ele><time>2026-05-02T15:14:31.553Z</time></trkpt><trkpt lat="44.12293" lon="11.529645"><ele>533.0</ele><time>2026-05-02T15:14:32.553Z</time></trkpt><trkpt lat="44.1228483" lon="11.529735"><ele>536.0</ele><time>2026-05-02T15:14:33.553Z</time></trkpt><trkpt lat="44.122745" lon="11.529745"><ele>539.0</ele><time>2026-05-02T15:14:34.553Z</time></trkpt><trkpt lat="44.1226133" lon="11.5296983"><ele>542.0</ele><time>2026-05-02T15:14:35.553Z</time></trkpt><trkpt lat="44.1224733" lon="11.5296133"><ele>545.0</ele><time>2026-05-02T15:14:36.553Z</time></trkpt><trkpt lat="44.1223217" lon="11.5295167"><ele>545.0</ele><time>2026-05-02T15:14:37.553Z</time></trkpt><trkpt lat="44.1221733" lon="11.52941"><ele>545.0</ele><time>2026-05-02T15:14:38.553Z</time></trkpt><trkpt lat="44.12203" lon="11.5292933"><ele>545.0</ele><time>2026-05-02T15:14:39.553Z</time></trkpt><trkpt lat="44.121885" lon="11.5291917"><ele>545.0</ele><time>2026-05-02T15:14:40.553Z</time></trkpt><trkpt lat="44.121745" lon="11.52909"><ele>545.0</ele><time>2026-05-02T15:14:41.553Z</time></trkpt><trkpt lat="44.1216283" lon="11.5289633"><ele>545.0</ele><time>2026-05-02T15:14:42.553Z</time></trkpt><trkpt lat="44.1215183" lon="11.5288067"><ele>539.5</ele><time>2026-05-02T15:14:43.553Z</time></trkpt><trkpt lat="44.1214533" lon="11.5286367"><ele>534.0</ele><time>2026-05-02T15:14:44.553Z</time></trkpt><trkpt lat="44.121375" lon="11.5284617"><ele>528.5</ele><time>2026-05-02T15:14:45.553Z</time></trkpt><trkpt lat="44.1213017" lon="11.5283267"><ele>523.0</ele><time>2026-05-02T15:14:46.553Z</time></trkpt><trkpt lat="44.1212217" lon="11.52822"><ele>523.0</ele><time>2026-05-02T15:14:47.553Z</time></trkpt><trkpt lat="44.1211133" lon="11.5281767"><ele>523.0</ele><time>2026-05-02T15:14:48.553Z</time></trkpt><trkpt lat="44.1209883" lon="11.5281933"><ele>523.0</ele><time>2026-05-02T15:14:49.553Z</time></trkpt><trkpt lat="44.1208617" lon="11.5282567"><ele>523.0</ele><time>2026-05-02T15:14:50.553Z</time></trkpt><trkpt lat="44.120735" lon="11.52836"><ele>519.25</ele><time>2026-05-02T15:14:51.553Z</time></trkpt><trkpt lat="44.120615" lon="11.52847"><ele>515.5</ele><time>2026-05-02T15:14:52.553Z</time></trkpt><trkpt lat="44.1205033" lon="11.5285983"><ele>511.75</ele><time>2026-05-02T15:14:53.553Z</time></trkpt><trkpt lat="44.1204117" lon="11.5287533"><ele>508.0</ele><time>2026-05-02T15:14:54.553Z</time></trkpt><trkpt lat="44.12033" lon="11.528965"><ele>508.0</ele><time>2026-05-02T15:14:55.553Z</time></trkpt><trkpt lat="44.12026" lon="11.529215"><ele>508.0</ele><time>2026-05-02T15:14:56.553Z</time></trkpt><trkpt lat="44.1201917" lon="11.5294567"><ele>508.0</ele><time>2026-05-02T15:14:57.553Z</time></trkpt><trkpt lat="44.1201283" lon="11.5296833"><ele>509.33333333333337</ele><time>2026-05-02T15:14:58.553Z</time></trkpt><trkpt lat="44.12005" lon="11.5299133"><ele>510.66666666666663</ele><time>2026-05-02T15:14:59.553Z</time></trkpt><trkpt lat="44.1199617" lon="11.5301433"><ele>512.0</ele><time>2026-05-02T15:15:00.553Z</time></trkpt><trkpt lat="44.1198617" lon="11.5303583"><ele>505.3333333333333</ele><time>2026-05-02T15:15:01.552Z</time></trkpt><trkpt lat="44.1197417" lon="11.5305617"><ele>498.66666666666663</ele><time>2026-05-02T15:15:02.553Z</time></trkpt><trkpt lat="44.1196117" lon="11.5307767"><ele>492.0</ele><time>2026-05-02T15:15:03.553Z</time></trkpt><trkpt lat="44.11949" lon="11.53099"><ele>492.0</ele><time>2026-05-02T15:15:04.553Z</time></trkpt><trkpt lat="44.1193733" lon="11.5312117"><ele>492.0</ele><time>2026-05-02T15:15:05.552Z</time></trkpt><trkpt lat="44.1192633" lon="11.53143"><ele>492.0</ele><time>2026-05-02T15:15:06.553Z</time></trkpt><trkpt lat="44.1191617" lon="11.5316283"><ele>489.66666666666663</ele><time>2026-05-02T15:15:07.553Z</time></trkpt><trkpt lat="44.1190567" lon="11.5317983"><ele>487.3333333333333</ele><time>2026-05-02T15:15:08.553Z</time></trkpt><trkpt lat="44.1189317" lon="11.53193"><ele>485.0</ele><time>2026-05-02T15:15:09.553Z</time></trkpt><trkpt lat="44.118795" lon="11.5320417"><ele>489.66666666666663</ele><time>2026-05-02T15:15:10.552Z</time></trkpt><trkpt lat="44.1186383" lon="11.5321583"><ele>494.33333333333337</ele><time>2026-05-02T15:15:11.553Z</time></trkpt><trkpt lat="44.1184717" lon="11.532305"><ele>499.0</ele><time>2026-05-02T15:15:12.553Z</time></trkpt><trkpt lat="44.1183067" lon="11.5324783"><ele>495.0</ele><time>2026-05-02T15:15:13.553Z</time></trkpt><trkpt lat="44.1181483" lon="11.53266"><ele>491.0</ele><time>2026-05-02T15:15:14.553Z</time></trkpt><trkpt lat="44.117985" lon="11.5328217"><ele>487.0</ele><time>2026-05-02T15:15:15.553Z</time></trkpt><trkpt lat="44.11783" lon="11.532975"><ele>487.0</ele><time>2026-05-02T15:15:16.553Z</time></trkpt><trkpt lat="44.11768" lon="11.533125"><ele>487.0</ele><time>2026-05-02T15:15:17.553Z</time></trkpt><trkpt lat="44.117545" lon="11.5332667"><ele>487.0</ele><time>2026-05-02T15:15:18.553Z</time></trkpt><trkpt lat="44.11742" lon="11.533415"><ele>484.5</ele><time>2026-05-02T15:15:19.553Z</time></trkpt><trkpt lat="44.1172933" lon="11.5335517"><ele>482.0</ele><time>2026-05-02T15:15:20.552Z</time></trkpt><trkpt lat="44.11718" lon="11.5336817"><ele>479.5</ele><time>2026-05-02T15:15:21.553Z</time></trkpt><trkpt lat="44.1170867" lon="11.533825"><ele>477.0</ele><time>2026-05-02T15:15:22.553Z</time></trkpt><trkpt lat="44.1170267" lon="11.5339917"><ele>476.66666666666663</ele><time>2026-05-02T15:15:23.553Z</time></trkpt><trkpt lat="44.1169983" lon="11.5341767"><ele>476.3333333333333</ele><time>2026-05-02T15:15:24.553Z</time></trkpt><trkpt lat="44.11701" lon="11.5343867"><ele>476.0</ele><time>2026-05-02T15:15:25.553Z</time></trkpt><trkpt lat="44.11705" lon="11.53464"><ele>475.0</ele><time>2026-05-02T15:15:26.553Z</time></trkpt><trkpt lat="44.1170867" lon="11.5349267"><ele>474.0</ele><time>2026-05-02T15:15:27.553Z</time></trkpt><trkpt lat="44.1171167" lon="11.53524"><ele>473.0</ele><time>2026-05-02T15:15:28.553Z</time></trkpt><trkpt lat="44.1171517" lon="11.5355217"><ele>471.0</ele><time>2026-05-02T15:15:29.553Z</time></trkpt><trkpt lat="44.117185" lon="11.5358067"><ele>469.0</ele><time>2026-05-02T15:15:30.553Z</time></trkpt><trkpt lat="44.11721" lon="11.5360817"><ele>467.0</ele><time>2026-05-02T15:15:31.553Z</time></trkpt><trkpt lat="44.1172233" lon="11.5363417"><ele>466.66666666666663</ele><time>2026-05-02T15:15:32.553Z</time></trkpt><trkpt lat="44.1172133" lon="11.5366"><ele>466.33333333333337</ele><time>2026-05-02T15:15:33.552Z</time></trkpt><trkpt lat="44.1171883" lon="11.536845"><ele>466.0</ele><time>2026-05-02T15:15:34.553Z</time></trkpt><trkpt lat="44.117155" lon="11.53708"><ele>466.0</ele><time>2026-05-02T15:15:35.553Z</time></trkpt><trkpt lat="44.1171183" lon="11.5373083"><ele>466.0</ele><time>2026-05-02T15:15:36.553Z</time></trkpt><trkpt lat="44.1170817" lon="11.5375167"><ele>466.0</ele><time>2026-05-02T15:15:37.553Z</time></trkpt><trkpt lat="44.1170467" lon="11.5377217"><ele>464.5</ele><time>2026-05-02T15:15:38.552Z</time></trkpt><trkpt lat="44.1170133" lon="11.5379217"><ele>463.0</ele><time>2026-05-02T15:15:39.553Z</time></trkpt><trkpt lat="44.1169717" lon="11.5381067"><ele>461.5</ele><time>2026-05-02T15:15:40.553Z</time></trkpt><trkpt lat="44.116935" lon="11.538285"><ele>460.0</ele><time>2026-05-02T15:15:41.552Z</time></trkpt><trkpt lat="44.116885" lon="11.5384683"><ele>460.0</ele><time>2026-05-02T15:15:42.553Z</time></trkpt><trkpt lat="44.1168217" lon="11.53863"><ele>460.0</ele><time>2026-05-02T15:15:43.553Z</time></trkpt><trkpt lat="44.11674" lon="11.5388083"><ele>460.0</ele><time>2026-05-02T15:15:44.552Z</time></trkpt><trkpt lat="44.1166483" lon="11.5389967"><ele>460.0</ele><time>2026-05-02T15:15:45.553Z</time></trkpt><trkpt lat="44.11655" lon="11.5391917"><ele>461.0</ele><time>2026-05-02T15:15:46.553Z</time></trkpt><trkpt lat="44.11644" lon="11.5393883"><ele>462.0</ele><time>2026-05-02T15:15:47.553Z</time></trkpt><trkpt lat="44.116325" lon="11.5395817"><ele>463.0</ele><time>2026-05-02T15:15:48.553Z</time></trkpt><trkpt lat="44.11622" lon="11.5397733"><ele>460.6666666666667</ele><time>2026-05-02T15:15:49.553Z</time></trkpt><trkpt lat="44.1161283" lon="11.5399583"><ele>458.33333333333337</ele><time>2026-05-02T15:15:50.553Z</time></trkpt><trkpt lat="44.11604" lon="11.54015"><ele>456.0</ele><time>2026-05-02T15:15:51.553Z</time></trkpt><trkpt lat="44.1159583" lon="11.54036"><ele>457.66666666666663</ele><time>2026-05-02T15:15:52.552Z</time></trkpt><trkpt lat="44.1159" lon="11.5405867"><ele>459.3333333333333</ele><time>2026-05-02T15:15:53.553Z</time></trkpt><trkpt lat="44.1158633" lon="11.5408017"><ele>461.0</ele><time>2026-05-02T15:15:54.553Z</time></trkpt><trkpt lat="44.1158117" lon="11.5409983"><ele>462.66666666666663</ele><time>2026-05-02T15:15:55.553Z</time></trkpt><trkpt lat="44.11572" lon="11.5411817"><ele>464.33333333333337</ele><time>2026-05-02T15:15:56.553Z</time></trkpt><trkpt lat="44.1156017" lon="11.5413367"><ele>466.0</ele><time>2026-05-02T15:15:57.553Z</time></trkpt><trkpt lat="44.1154683" lon="11.5414683"><ele>461.6666666666667</ele><time>2026-05-02T15:15:58.553Z</time></trkpt><trkpt lat="44.11534" lon="11.5415983"><ele>457.33333333333337</ele><time>2026-05-02T15:15:59.552Z</time></trkpt><trkpt lat="44.115225" lon="11.54173"><ele>453.0</ele><time>2026-05-02T15:16:00.553Z</time></trkpt><trkpt lat="44.11515" lon="11.5419117"><ele>452.0</ele><time>2026-05-02T15:16:01.553Z</time></trkpt><trkpt lat="44.115095" lon="11.5421333"><ele>451.0</ele><time>2026-05-02T15:16:02.553Z</time></trkpt><trkpt lat="44.1150433" lon="11.5423833"><ele>450.0</ele><time>2026-05-02T15:16:03.553Z</time></trkpt><trkpt lat="44.1149933" lon="11.54262"><ele>450.0</ele><time>2026-05-02T15:16:04.553Z</time></trkpt><trkpt lat="44.1149433" lon="11.542855"><ele>450.0</ele><time>2026-05-02T15:16:05.553Z</time></trkpt><trkpt lat="44.114885" lon="11.5430767"><ele>450.0</ele><time>2026-05-02T15:16:06.553Z</time></trkpt><trkpt lat="44.11481" lon="11.5432967"><ele>447.66666666666663</ele><time>2026-05-02T15:16:07.553Z</time></trkpt><trkpt lat="44.1147233" lon="11.5435083"><ele>445.3333333333333</ele><time>2026-05-02T15:16:08.553Z</time></trkpt><trkpt lat="44.1146417" lon="11.5437033"><ele>443.0</ele><time>2026-05-02T15:16:09.553Z</time></trkpt><trkpt lat="44.11456" lon="11.543885"><ele>443.0</ele><time>2026-05-02T15:16:10.552Z</time></trkpt><trkpt lat="44.11449" lon="11.5440567"><ele>443.0</ele><time>2026-05-02T15:16:11.553Z</time></trkpt><trkpt lat="44.11444" lon="11.54424"><ele>443.0</ele><time>2026-05-02T15:16:12.553Z</time></trkpt><trkpt lat="44.1143733" lon="11.544625"><ele>442.25</ele><time>2026-05-02T15:16:14.553Z</time></trkpt><trkpt lat="44.11435" lon="11.5448233"><ele>441.5</ele><time>2026-05-02T15:16:15.553Z</time></trkpt><trkpt lat="44.1143233" lon="11.5450217"><ele>440.75</ele><time>2026-05-02T15:16:16.552Z</time></trkpt><trkpt lat="44.114295" lon="11.5452217"><ele>440.0</ele><time>2026-05-02T15:16:17.553Z</time></trkpt><trkpt lat="44.1142733" lon="11.5454167"><ele>440.0</ele><time>2026-05-02T15:16:18.553Z</time></trkpt><trkpt lat="44.1142417" lon="11.5455983"><ele>440.0</ele><time>2026-05-02T15:16:19.553Z</time></trkpt><trkpt lat="44.114215" lon="11.54578"><ele>440.0</ele><time>2026-05-02T15:16:20.552Z</time></trkpt><trkpt lat="44.1141733" lon="11.5459333"><ele>440.0</ele><time>2026-05-02T15:16:21.553Z</time></trkpt><trkpt lat="44.1141433" lon="11.5460433"><ele>439.99999999999994</ele><time>2026-05-02T15:16:22.553Z</time></trkpt><trkpt lat="44.1140833" lon="11.5461967"><ele>440.0</ele><time>2026-05-02T15:16:24.553Z</time></trkpt><trkpt lat="44.114035" lon="11.54626"><ele>440.0</ele><time>2026-05-02T15:16:25.553Z</time></trkpt><trkpt lat="44.1139733" lon="11.5463267"><ele>440.0</ele><time>2026-05-02T15:16:26.553Z</time></trkpt><trkpt lat="44.1139067" lon="11.5464033"><ele>439.99999999999994</ele><time>2026-05-02T15:16:27.552Z</time></trkpt><trkpt lat="44.1138367" lon="11.546485"><ele>440.0</ele><time>2026-05-02T15:16:28.553Z</time></trkpt><trkpt lat="44.1137633" lon="11.5465717"><ele>438.2</ele><time>2026-05-02T15:16:29.553Z</time></trkpt><trkpt lat="44.1136833" lon="11.5466733"><ele>436.4</ele><time>2026-05-02T15:16:30.553Z</time></trkpt><trkpt lat="44.11361" lon="11.546775"><ele>434.6</ele><time>2026-05-02T15:16:31.553Z</time></trkpt><trkpt lat="44.1135383" lon="11.5469017"><ele>432.8</ele><time>2026-05-02T15:16:32.553Z</time></trkpt><trkpt lat="44.113475" lon="11.54703"><ele>431.0</ele><time>2026-05-02T15:16:33.553Z</time></trkpt><trkpt lat="44.1134333" lon="11.5471667"><ele>430.4</ele><time>2026-05-02T15:16:34.553Z</time></trkpt><trkpt lat="44.1134183" lon="11.5473067"><ele>429.8</ele><time>2026-05-02T15:16:35.553Z</time></trkpt><trkpt lat="44.1134117" lon="11.5474333"><ele>429.19999999999993</ele><time>2026-05-02T15:16:36.553Z</time></trkpt><trkpt lat="44.1134067" lon="11.5475483"><ele>428.59999999999997</ele><time>2026-05-02T15:16:37.553Z</time></trkpt><trkpt lat="44.1134" lon="11.5476483"><ele>428.0</ele><time>2026-05-02T15:16:38.553Z</time></trkpt><trkpt lat="44.1133767" lon="11.5477867"><ele>428.3333333333333</ele><time>2026-05-02T15:16:40.553Z</time></trkpt><trkpt lat="44.1134497" lon="11.5482097"><ele>428.66666666666663</ele><time>2026-05-02T15:17:51.553Z</time></trkpt><trkpt lat="44.1134984" lon="11.548341"><ele>429.0</ele><time>2026-05-02T15:17:52.552Z</time></trkpt><trkpt lat="44.1135398" lon="11.5484651"><ele>429.0</ele><time>2026-05-02T15:17:53.553Z</time></trkpt><trkpt lat="44.11358" lon="11.5486117"><ele>429.0</ele><time>2026-05-02T15:17:54.553Z</time></trkpt><trkpt lat="44.1136217" lon="11.5487417"><ele>429.0</ele><time>2026-05-02T15:17:55.553Z</time></trkpt><trkpt lat="44.1137233" lon="11.5489617"><ele>429.0</ele><time>2026-05-02T15:17:57.553Z</time></trkpt><trkpt lat="44.1138033" lon="11.5490583"><ele>429.0</ele><time>2026-05-02T15:17:58.553Z</time></trkpt><trkpt lat="44.1138817" lon="11.5491717"><ele>429.0</ele><time>2026-05-02T15:17:59.553Z</time></trkpt><trkpt lat="44.1139617" lon="11.5492817"><ele>429.0</ele><time>2026-05-02T15:18:00.552Z</time></trkpt><trkpt lat="44.1140333" lon="11.5493833"><ele>429.0</ele><time>2026-05-02T15:18:01.553Z</time></trkpt><trkpt lat="44.1140983" lon="11.54948"><ele>429.0</ele><time>2026-05-02T15:18:02.553Z</time></trkpt><trkpt lat="44.1141783" lon="11.549585"><ele>428.0</ele><time>2026-05-02T15:18:03.553Z</time></trkpt><trkpt lat="44.11427" lon="11.5496983"><ele>427.0</ele><time>2026-05-02T15:18:04.553Z</time></trkpt><trkpt lat="44.114365" lon="11.5498083"><ele>426.0</ele><time>2026-05-02T15:18:05.553Z</time></trkpt><trkpt lat="44.1144667" lon="11.54991"><ele>425.0</ele><time>2026-05-02T15:18:06.553Z</time></trkpt><trkpt lat="44.1145717" lon="11.55001"><ele>425.0</ele><time>2026-05-02T15:18:07.553Z</time></trkpt><trkpt lat="44.1146783" lon="11.550105"><ele>425.0</ele><time>2026-05-02T15:18:08.553Z</time></trkpt><trkpt lat="44.1147833" lon="11.5501883"><ele>425.0</ele><time>2026-05-02T15:18:09.553Z</time></trkpt><trkpt lat="44.114885" lon="11.5502717"><ele>425.0</ele><time>2026-05-02T15:18:10.553Z</time></trkpt><trkpt lat="44.1149817" lon="11.55035"><ele>424.8</ele><time>2026-05-02T15:18:11.553Z</time></trkpt><trkpt lat="44.115075" lon="11.5504183"><ele>424.6</ele><time>2026-05-02T15:18:12.553Z</time></trkpt><trkpt lat="44.1151683" lon="11.5504833"><ele>424.4</ele><time>2026-05-02T15:18:13.553Z</time></trkpt><trkpt lat="44.1152667" lon="11.55056"><ele>424.2</ele><time>2026-05-02T15:18:14.553Z</time></trkpt><trkpt lat="44.115365" lon="11.550645"><ele>424.0</ele><time>2026-05-02T15:18:15.553Z</time></trkpt><trkpt lat="44.1154667" lon="11.5507383"><ele>424.0</ele><time>2026-05-02T15:18:16.553Z</time></trkpt><trkpt lat="44.1155683" lon="11.5508217"><ele>424.0</ele><time>2026-05-02T15:18:17.553Z</time></trkpt><trkpt lat="44.1156667" lon="11.5509033"><ele>424.0</ele><time>2026-05-02T15:18:18.553Z</time></trkpt><trkpt lat="44.115765" lon="11.55099"><ele>424.0</ele><time>2026-05-02T15:18:19.553Z</time></trkpt><trkpt lat="44.1158633" lon="11.5510733"><ele>424.25</ele><time>2026-05-02T15:18:20.553Z</time></trkpt><trkpt lat="44.11596" lon="11.551155"><ele>424.5</ele><time>2026-05-02T15:18:21.553Z</time></trkpt><trkpt lat="44.1160633" lon="11.5512467"><ele>424.75</ele><time>2026-05-02T15:18:22.553Z</time></trkpt><trkpt lat="44.1161667" lon="11.5513283"><ele>425.0</ele><time>2026-05-02T15:18:23.553Z</time></trkpt><trkpt lat="44.1162867" lon="11.5514083"><ele>425.0</ele><time>2026-05-02T15:18:24.553Z</time></trkpt><trkpt lat="44.1164233" lon="11.5515133"><ele>425.0</ele><time>2026-05-02T15:18:25.553Z</time></trkpt><trkpt lat="44.1165817" lon="11.551625"><ele>425.0</ele><time>2026-05-02T15:18:26.553Z</time></trkpt><trkpt lat="44.1167467" lon="11.5517683"><ele>425.66666666666663</ele><time>2026-05-02T15:18:27.553Z</time></trkpt><trkpt lat="44.116925" lon="11.5518633"><ele>426.33333333333337</ele><time>2026-05-02T15:18:28.553Z</time></trkpt><trkpt lat="44.1171183" lon="11.5519583"><ele>427.0</ele><time>2026-05-02T15:18:29.553Z</time></trkpt><trkpt lat="44.1173217" lon="11.5520267"><ele>426.33333333333337</ele><time>2026-05-02T15:18:30.553Z</time></trkpt><trkpt lat="44.117515" lon="11.5521017"><ele>425.66666666666663</ele><time>2026-05-02T15:18:31.553Z</time></trkpt><trkpt lat="44.1176967" lon="11.5521683"><ele>425.0</ele><time>2026-05-02T15:18:32.552Z</time></trkpt><trkpt lat="44.1178833" lon="11.5522383"><ele>425.0</ele><time>2026-05-02T15:18:33.553Z</time></trkpt><trkpt lat="44.1180683" lon="11.552335"><ele>425.0</ele><time>2026-05-02T15:18:34.553Z</time></trkpt><trkpt lat="44.11825" lon="11.5524483"><ele>425.0</ele><time>2026-05-02T15:18:35.553Z</time></trkpt><trkpt lat="44.1184167" lon="11.5526017"><ele>423.3333333333333</ele><time>2026-05-02T15:18:36.553Z</time></trkpt><trkpt lat="44.1185917" lon="11.5527467"><ele>421.66666666666663</ele><time>2026-05-02T15:18:37.553Z</time></trkpt><trkpt lat="44.1187467" lon="11.5528917"><ele>420.0</ele><time>2026-05-02T15:18:38.553Z</time></trkpt><trkpt lat="44.1188933" lon="11.5530317"><ele>420.0</ele><time>2026-05-02T15:18:39.553Z</time></trkpt><trkpt lat="44.1190267" lon="11.55318"><ele>420.0</ele><time>2026-05-02T15:18:40.553Z</time></trkpt><trkpt lat="44.119155" lon="11.5533117"><ele>420.0</ele><time>2026-05-02T15:18:41.553Z</time></trkpt><trkpt lat="44.1192767" lon="11.5534267"><ele>420.25</ele><time>2026-05-02T15:18:42.553Z</time></trkpt><trkpt lat="44.1194" lon="11.5535333"><ele>420.5</ele><time>2026-05-02T15:18:43.553Z</time></trkpt><trkpt lat="44.1195283" lon="11.5536217"><ele>420.75</ele><time>2026-05-02T15:18:44.553Z</time></trkpt><trkpt lat="44.1196517" lon="11.5537033"><ele>421.0</ele><time>2026-05-02T15:18:45.553Z</time></trkpt><trkpt lat="44.11977" lon="11.5537833"><ele>421.0</ele><time>2026-05-02T15:18:46.553Z</time></trkpt><trkpt lat="44.1198933" lon="11.5538767"><ele>421.0</ele><time>2026-05-02T15:18:47.553Z</time></trkpt><trkpt lat="44.1200183" lon="11.5539483"><ele>421.0</ele><time>2026-05-02T15:18:48.553Z</time></trkpt><trkpt lat="44.1201383" lon="11.554025"><ele>421.0</ele><time>2026-05-02T15:18:49.552Z</time></trkpt><trkpt lat="44.12027" lon="11.554095"><ele>422.6666666666667</ele><time>2026-05-02T15:18:50.553Z</time></trkpt><trkpt lat="44.1204233" lon="11.5541567"><ele>424.33333333333337</ele><time>2026-05-02T15:18:51.553Z</time></trkpt><trkpt lat="44.120605" lon="11.5541883"><ele>426.0</ele><time>2026-05-02T15:18:52.553Z</time></trkpt><trkpt lat="44.1207983" lon="11.5542083"><ele>429.66666666666663</ele><time>2026-05-02T15:18:53.553Z</time></trkpt><trkpt lat="44.1209917" lon="11.55422"><ele>433.3333333333333</ele><time>2026-05-02T15:18:54.553Z</time></trkpt><trkpt lat="44.1211883" lon="11.554235"><ele>437.0</ele><time>2026-05-02T15:18:55.553Z</time></trkpt><trkpt lat="44.1213783" lon="11.5542667"><ele>437.0</ele><time>2026-05-02T15:18:56.553Z</time></trkpt><trkpt lat="44.12156" lon="11.5543117"><ele>437.0</ele><time>2026-05-02T15:18:57.553Z</time></trkpt><trkpt lat="44.121725" lon="11.55438"><ele>437.0</ele><time>2026-05-02T15:18:58.553Z</time></trkpt><trkpt lat="44.121875" lon="11.5544967"><ele>432.66666666666663</ele><time>2026-05-02T15:18:59.553Z</time></trkpt><trkpt lat="44.1220067" lon="11.554655"><ele>428.33333333333337</ele><time>2026-05-02T15:19:00.553Z</time></trkpt><trkpt lat="44.1221017" lon="11.5548367"><ele>424.0</ele><time>2026-05-02T15:19:01.553Z</time></trkpt><trkpt lat="44.12215" lon="11.5550667"><ele>424.0</ele><time>2026-05-02T15:19:02.553Z</time></trkpt><trkpt lat="44.1221817" lon="11.5552817"><ele>424.0</ele><time>2026-05-02T15:19:03.553Z</time></trkpt><trkpt lat="44.1221833" lon="11.5555417"><ele>424.0</ele><time>2026-05-02T15:19:04.553Z</time></trkpt><trkpt lat="44.1221867" lon="11.5558267"><ele>424.33333333333337</ele><time>2026-05-02T15:19:05.553Z</time></trkpt><trkpt lat="44.1222283" lon="11.5561067"><ele>424.66666666666663</ele><time>2026-05-02T15:19:06.553Z</time></trkpt><trkpt lat="44.1223033" lon="11.5564117"><ele>425.0</ele><time>2026-05-02T15:19:07.553Z</time></trkpt><trkpt lat="44.1223867" lon="11.5567317"><ele>426.0</ele><time>2026-05-02T15:19:08.553Z</time></trkpt><trkpt lat="44.1224617" lon="11.5570367"><ele>427.0</ele><time>2026-05-02T15:19:09.553Z</time></trkpt><trkpt lat="44.122535" lon="11.5573083"><ele>428.0</ele><time>2026-05-02T15:19:10.553Z</time></trkpt><trkpt lat="44.1226183" lon="11.5575483"><ele>428.0</ele><time>2026-05-02T15:19:11.552Z</time></trkpt><trkpt lat="44.12271" lon="11.55774"><ele>428.0</ele><time>2026-05-02T15:19:12.553Z</time></trkpt><trkpt lat="44.1228233" lon="11.5578717"><ele>428.0</ele><time>2026-05-02T15:19:13.553Z</time></trkpt><trkpt lat="44.122955" lon="11.5579367"><ele>427.3333333333333</ele><time>2026-05-02T15:19:14.553Z</time></trkpt><trkpt lat="44.123115" lon="11.55793"><ele>426.66666666666663</ele><time>2026-05-02T15:19:15.552Z</time></trkpt><trkpt lat="44.1232933" lon="11.55787"><ele>426.0</ele><time>2026-05-02T15:19:16.553Z</time></trkpt><trkpt lat="44.1235017" lon="11.5577983"><ele>434.0</ele><time>2026-05-02T15:19:17.553Z</time></trkpt><trkpt lat="44.1237317" lon="11.5577217"><ele>442.0</ele><time>2026-05-02T15:19:18.553Z</time></trkpt><trkpt lat="44.1239767" lon="11.5576367"><ele>439.5</ele><time>2026-05-02T15:19:19.553Z</time></trkpt><trkpt lat="44.1242367" lon="11.5575267"><ele>437.0</ele><time>2026-05-02T15:19:20.553Z</time></trkpt><trkpt lat="44.1245017" lon="11.5573933"><ele>437.0</ele><time>2026-05-02T15:19:21.553Z</time></trkpt><trkpt lat="44.124775" lon="11.55727"><ele>437.0</ele><time>2026-05-02T15:19:22.553Z</time></trkpt><trkpt lat="44.12503" lon="11.5571533"><ele>432.5</ele><time>2026-05-02T15:19:23.553Z</time></trkpt><trkpt lat="44.12529" lon="11.5570367"><ele>428.0</ele><time>2026-05-02T15:19:24.553Z</time></trkpt><trkpt lat="44.1255567" lon="11.5569033"><ele>437.5</ele><time>2026-05-02T15:19:25.553Z</time></trkpt><trkpt lat="44.1258133" lon="11.556795"><ele>447.0</ele><time>2026-05-02T15:19:26.553Z</time></trkpt><trkpt lat="44.1260733" lon="11.556685"><ele>447.0</ele><time>2026-05-02T15:19:27.553Z</time></trkpt><trkpt lat="44.1263367" lon="11.5565667"><ele>447.0</ele><time>2026-05-02T15:19:28.552Z</time></trkpt><trkpt lat="44.1265917" lon="11.5564483"><ele>439.0</ele><time>2026-05-02T15:19:29.553Z</time></trkpt><trkpt lat="44.1268367" lon="11.55634"><ele>431.0</ele><time>2026-05-02T15:19:30.553Z</time></trkpt><trkpt lat="44.1270667" lon="11.55623"><ele>438.0</ele><time>2026-05-02T15:19:31.553Z</time></trkpt><trkpt lat="44.12728" lon="11.556115"><ele>445.0</ele><time>2026-05-02T15:19:32.553Z</time></trkpt><trkpt lat="44.1274933" lon="11.5559767"><ele>445.0</ele><time>2026-05-02T15:19:33.553Z</time></trkpt><trkpt lat="44.1276817" lon="11.555825"><ele>445.0</ele><time>2026-05-02T15:19:34.553Z</time></trkpt><trkpt lat="44.1278483" lon="11.5556633"><ele>445.0</ele><time>2026-05-02T15:19:35.553Z</time></trkpt><trkpt lat="44.1280017" lon="11.555515"><ele>445.0</ele><time>2026-05-02T15:19:36.552Z</time></trkpt><trkpt lat="44.1281517" lon="11.5554217"><ele>445.0</ele><time>2026-05-02T15:19:37.553Z</time></trkpt><trkpt lat="44.12828" lon="11.555385"><ele>445.0</ele><time>2026-05-02T15:19:38.553Z</time></trkpt><trkpt lat="44.1284" lon="11.5554267"><ele>445.0</ele><time>2026-05-02T15:19:39.553Z</time></trkpt><trkpt lat="44.12853" lon="11.5555217"><ele>441.6666666666667</ele><time>2026-05-02T15:19:40.552Z</time></trkpt><trkpt lat="44.1286883" lon="11.5556067"><ele>438.33333333333337</ele><time>2026-05-02T15:19:41.553Z</time></trkpt><trkpt lat="44.1288767" lon="11.5556767"><ele>435.0</ele><time>2026-05-02T15:19:42.553Z</time></trkpt><trkpt lat="44.129095" lon="11.555735"><ele>435.0</ele><time>2026-05-02T15:19:43.553Z</time></trkpt><trkpt lat="44.1295517" lon="11.5558467"><ele>435.0</ele><time>2026-05-02T15:19:45.553Z</time></trkpt><trkpt lat="44.12979" lon="11.5559183"><ele>435.0</ele><time>2026-05-02T15:19:46.553Z</time></trkpt><trkpt lat="44.130025" lon="11.5560083"><ele>438.0</ele><time>2026-05-02T15:19:47.553Z</time></trkpt><trkpt lat="44.1302367" lon="11.5561183"><ele>441.0</ele><time>2026-05-02T15:19:48.553Z</time></trkpt><trkpt lat="44.13043" lon="11.5562333"><ele>444.0</ele><time>2026-05-02T15:19:49.553Z</time></trkpt><trkpt lat="44.1306067" lon="11.5564017"><ele>441.33333333333337</ele><time>2026-05-02T15:19:50.553Z</time></trkpt><trkpt lat="44.130755" lon="11.5565767"><ele>438.6666666666667</ele><time>2026-05-02T15:19:51.553Z</time></trkpt><trkpt lat="44.1308783" lon="11.556725"><ele>436.0</ele><time>2026-05-02T15:19:52.553Z</time></trkpt><trkpt lat="44.1309817" lon="11.55692"><ele>430.6666666666667</ele><time>2026-05-02T15:19:53.553Z</time></trkpt><trkpt lat="44.13105" lon="11.5571483"><ele>425.33333333333337</ele><time>2026-05-02T15:19:54.553Z</time></trkpt><trkpt lat="44.1311333" lon="11.5573383"><ele>420.0</ele><time>2026-05-02T15:19:55.553Z</time></trkpt><trkpt lat="44.131245" lon="11.5575167"><ele>420.0</ele><time>2026-05-02T15:19:56.552Z</time></trkpt><trkpt lat="44.1313983" lon="11.557665"><ele>420.0</ele><time>2026-05-02T15:19:57.553Z</time></trkpt><trkpt lat="44.1315733" lon="11.5577967"><ele>420.0</ele><time>2026-05-02T15:19:58.553Z</time></trkpt><trkpt lat="44.1317367" lon="11.5579133"><ele>420.25</ele><time>2026-05-02T15:19:59.553Z</time></trkpt><trkpt lat="44.1318783" lon="11.5580183"><ele>420.5</ele><time>2026-05-02T15:20:00.553Z</time></trkpt><trkpt lat="44.1320033" lon="11.55809"><ele>420.75</ele><time>2026-05-02T15:20:01.553Z</time></trkpt><trkpt lat="44.1321267" lon="11.5581317"><ele>421.0</ele><time>2026-05-02T15:20:02.553Z</time></trkpt><trkpt lat="44.1322317" lon="11.5580967"><ele>421.0</ele><time>2026-05-02T15:20:03.553Z</time></trkpt><trkpt lat="44.1323367" lon="11.558005"><ele>421.0</ele><time>2026-05-02T15:20:04.553Z</time></trkpt><trkpt lat="44.1324217" lon="11.5578583"><ele>421.0</ele><time>2026-05-02T15:20:05.553Z</time></trkpt><trkpt lat="44.132505" lon="11.5576683"><ele>421.0</ele><time>2026-05-02T15:20:06.553Z</time></trkpt><trkpt lat="44.132595" lon="11.557475"><ele>425.0</ele><time>2026-05-02T15:20:07.553Z</time></trkpt><trkpt lat="44.1327183" lon="11.5572817"><ele>429.0</ele><time>2026-05-02T15:20:08.553Z</time></trkpt><trkpt lat="44.13287" lon="11.5570933"><ele>433.0</ele><time>2026-05-02T15:20:09.553Z</time></trkpt><trkpt lat="44.13305" lon="11.5569067"><ele>434.6666666666667</ele><time>2026-05-02T15:20:10.553Z</time></trkpt><trkpt lat="44.133235" lon="11.5567533"><ele>436.33333333333337</ele><time>2026-05-02T15:20:11.553Z</time></trkpt><trkpt lat="44.1334133" lon="11.556635"><ele>438.0</ele><time>2026-05-02T15:20:12.553Z</time></trkpt><trkpt lat="44.1335983" lon="11.55655"><ele>438.0</ele><time>2026-05-02T15:20:13.553Z</time></trkpt><trkpt lat="44.1337583" lon="11.556475"><ele>438.0</ele><time>2026-05-02T15:20:14.553Z</time></trkpt><trkpt lat="44.1338867" lon="11.556415"><ele>438.0</ele><time>2026-05-02T15:20:15.553Z</time></trkpt><trkpt lat="44.1339867" lon="11.5563383"><ele>438.0</ele><time>2026-05-02T15:20:16.553Z</time></trkpt><trkpt lat="44.1340583" lon="11.5562233"><ele>436.0</ele><time>2026-05-02T15:20:17.553Z</time></trkpt><trkpt lat="44.1341" lon="11.55604"><ele>434.0</ele><time>2026-05-02T15:20:18.553Z</time></trkpt><trkpt lat="44.1341233" lon="11.5558417"><ele>432.0</ele><time>2026-05-02T15:20:19.553Z</time></trkpt><trkpt lat="44.1341633" lon="11.555685"><ele>430.0</ele><time>2026-05-02T15:20:20.553Z</time></trkpt><trkpt lat="44.1342333" lon="11.5555867"><ele>430.0</ele><time>2026-05-02T15:20:21.553Z</time></trkpt><trkpt lat="44.1343083" lon="11.5555483"><ele>430.0</ele><time>2026-05-02T15:20:22.553Z</time></trkpt><trkpt lat="44.1343833" lon="11.55556"><ele>430.0</ele><time>2026-05-02T15:20:23.553Z</time></trkpt><trkpt lat="44.134425" lon="11.5556667"><ele>430.0</ele><time>2026-05-02T15:20:24.553Z</time></trkpt><trkpt lat="44.13443" lon="11.55583"><ele>430.0</ele><time>2026-05-02T15:20:25.553Z</time></trkpt><trkpt lat="44.1344283" lon="11.55605"><ele>423.33333333333337</ele><time>2026-05-02T15:20:26.553Z</time></trkpt><trkpt lat="44.1344533" lon="11.5562933"><ele>416.66666666666663</ele><time>2026-05-02T15:20:27.553Z</time></trkpt><trkpt lat="44.13449" lon="11.55654"><ele>410.0</ele><time>2026-05-02T15:20:28.553Z</time></trkpt><trkpt lat="44.134515" lon="11.5567617"><ele>410.0</ele><time>2026-05-02T15:20:29.553Z</time></trkpt><trkpt lat="44.1345517" lon="11.5569283"><ele>410.0</ele><time>2026-05-02T15:20:30.553Z</time></trkpt><trkpt lat="44.13462" lon="11.5570483"><ele>410.0</ele><time>2026-05-02T15:20:31.553Z</time></trkpt><trkpt lat="44.134735" lon="11.5571383"><ele>410.0</ele><time>2026-05-02T15:20:32.553Z</time></trkpt><trkpt lat="44.1348733" lon="11.5572367"><ele>409.2</ele><time>2026-05-02T15:20:33.553Z</time></trkpt><trkpt lat="44.1349983" lon="11.557315"><ele>408.4</ele><time>2026-05-02T15:20:34.553Z</time></trkpt><trkpt lat="44.135095" lon="11.5573917"><ele>407.6</ele><time>2026-05-02T15:20:35.552Z</time></trkpt><trkpt lat="44.1351683" lon="11.557455"><ele>406.8</ele><time>2026-05-02T15:20:36.552Z</time></trkpt><trkpt lat="44.1352283" lon="11.5575067"><ele>406.0</ele><time>2026-05-02T15:20:37.553Z</time></trkpt><trkpt lat="44.1352817" lon="11.5575683"><ele>406.0</ele><time>2026-05-02T15:20:39.553Z</time></trkpt><trkpt lat="44.1354094" lon="11.5577422"><ele>406.0</ele><time>2026-05-02T15:21:10.553Z</time></trkpt><trkpt lat="44.1354687" lon="11.5578802"><ele>406.0</ele><time>2026-05-02T15:21:11.553Z</time></trkpt><trkpt lat="44.1354956" lon="11.5580171"><ele>406.0</ele><time>2026-05-02T15:21:12.553Z</time></trkpt><trkpt lat="44.1354906" lon="11.5581391"><ele>405.00000000000006</ele><time>2026-05-02T15:21:13.553Z</time></trkpt><trkpt lat="44.1354408" lon="11.5582081"><ele>404.0</ele><time>2026-05-02T15:21:14.553Z</time></trkpt><trkpt lat="44.1353566" lon="11.5582399"><ele>403.0</ele><time>2026-05-02T15:21:15.553Z</time></trkpt><trkpt lat="44.1352576" lon="11.5582578"><ele>402.0</ele><time>2026-05-02T15:21:16.553Z</time></trkpt><trkpt lat="44.1351666" lon="11.5582919"><ele>401.00000000000006</ele><time>2026-05-02T15:21:17.552Z</time></trkpt><trkpt lat="44.1350964" lon="11.5583708"><ele>400.0</ele><time>2026-05-02T15:21:18.553Z</time></trkpt><trkpt lat="44.1350461" lon="11.5584841"><ele>400.0</ele><time>2026-05-02T15:21:19.553Z</time></trkpt><trkpt lat="44.1350178" lon="11.5586117"><ele>400.0</ele><time>2026-05-02T15:21:20.553Z</time></trkpt><trkpt lat="44.1350043" lon="11.5587361"><ele>400.0</ele><time>2026-05-02T15:21:21.553Z</time></trkpt><trkpt lat="44.134993" lon="11.5588661"><ele>400.0</ele><time>2026-05-02T15:21:22.553Z</time></trkpt><trkpt lat="44.1349848" lon="11.558999"><ele>400.0</ele><time>2026-05-02T15:21:23.553Z</time></trkpt><trkpt lat="44.1349794" lon="11.5591367"><ele>400.4</ele><time>2026-05-02T15:21:24.553Z</time></trkpt><trkpt lat="44.1349838" lon="11.559266"><ele>400.8</ele><time>2026-05-02T15:21:25.553Z</time></trkpt><trkpt lat="44.1350014" lon="11.5593824"><ele>401.20000000000005</ele><time>2026-05-02T15:21:26.553Z</time></trkpt><trkpt lat="44.1350385" lon="11.5594776"><ele>401.6</ele><time>2026-05-02T15:21:27.553Z</time></trkpt><trkpt lat="44.1350916" lon="11.5595439"><ele>402.0</ele><time>2026-05-02T15:21:28.553Z</time></trkpt><trkpt lat="44.1353065" lon="11.5594641"><ele>402.0</ele><time>2026-05-02T15:21:31.552Z</time></trkpt><trkpt lat="44.1353816" lon="11.5593851"><ele>402.0</ele><time>2026-05-02T15:21:32.553Z</time></trkpt><trkpt lat="44.1354756" lon="11.559287"><ele>402.0</ele><time>2026-05-02T15:21:33.553Z</time></trkpt><trkpt lat="44.1355922" lon="11.5591788"><ele>402.0</ele><time>2026-05-02T15:21:34.553Z</time></trkpt><trkpt lat="44.1357288" lon="11.5590664"><ele>403.0</ele><time>2026-05-02T15:21:35.553Z</time></trkpt><trkpt lat="44.1358726" lon="11.5589586"><ele>404.0</ele><time>2026-05-02T15:21:36.552Z</time></trkpt><trkpt lat="44.1360293" lon="11.5588777"><ele>405.0</ele><time>2026-05-02T15:21:37.553Z</time></trkpt><trkpt lat="44.1363706" lon="11.5587163"><ele>408.66666666666663</ele><time>2026-05-02T15:21:39.553Z</time></trkpt><trkpt lat="44.1365462" lon="11.5586584"><ele>412.3333333333333</ele><time>2026-05-02T15:21:40.553Z</time></trkpt><trkpt lat="44.136721" lon="11.5586124"><ele>416.0</ele><time>2026-05-02T15:21:41.553Z</time></trkpt><trkpt lat="44.1368874" lon="11.5585692"><ele>414.75</ele><time>2026-05-02T15:21:42.553Z</time></trkpt><trkpt lat="44.1370444" lon="11.5585225"><ele>413.5</ele><time>2026-05-02T15:21:43.553Z</time></trkpt><trkpt lat="44.1371888" lon="11.5584745"><ele>412.25</ele><time>2026-05-02T15:21:44.553Z</time></trkpt><trkpt lat="44.1373239" lon="11.5584321"><ele>411.0</ele><time>2026-05-02T15:21:45.553Z</time></trkpt><trkpt lat="44.137461" lon="11.5584202"><ele>411.0</ele><time>2026-05-02T15:21:46.553Z</time></trkpt><trkpt lat="44.1375984" lon="11.5584295"><ele>411.0</ele><time>2026-05-02T15:21:47.553Z</time></trkpt><trkpt lat="44.1377262" lon="11.5584585"><ele>411.0</ele><time>2026-05-02T15:21:48.553Z</time></trkpt><trkpt lat="44.1378407" lon="11.5584889"><ele>411.0</ele><time>2026-05-02T15:21:49.553Z</time></trkpt><trkpt lat="44.13794" lon="11.5585755"><ele>402.66666666666663</ele><time>2026-05-02T15:21:50.553Z</time></trkpt><trkpt lat="44.1380232" lon="11.5587212"><ele>394.3333333333333</ele><time>2026-05-02T15:21:51.553Z</time></trkpt><trkpt lat="44.1380999" lon="11.5589245"><ele>386.0</ele><time>2026-05-02T15:21:52.553Z</time></trkpt><trkpt lat="44.1381743" lon="11.5591589"><ele>391.3333333333333</ele><time>2026-05-02T15:21:53.553Z</time></trkpt><trkpt lat="44.1382388" lon="11.5594071"><ele>396.66666666666663</ele><time>2026-05-02T15:21:54.553Z</time></trkpt><trkpt lat="44.1382765" lon="11.5596631"><ele>402.0</ele><time>2026-05-02T15:21:55.553Z</time></trkpt><trkpt lat="44.1382915" lon="11.5599205"><ele>402.0</ele><time>2026-05-02T15:21:56.553Z</time></trkpt><trkpt lat="44.1382939" lon="11.5601671"><ele>402.0</ele><time>2026-05-02T15:21:57.553Z</time></trkpt><trkpt lat="44.138275" lon="11.5604133"><ele>402.0</ele><time>2026-05-02T15:21:58.553Z</time></trkpt><trkpt lat="44.1382333" lon="11.560655"><ele>397.33333333333337</ele><time>2026-05-02T15:21:59.553Z</time></trkpt><trkpt lat="44.1381733" lon="11.5608867"><ele>392.6666666666667</ele><time>2026-05-02T15:22:00.553Z</time></trkpt><trkpt lat="44.13809" lon="11.561095"><ele>388.0</ele><time>2026-05-02T15:22:01.553Z</time></trkpt><trkpt lat="44.1379867" lon="11.5612817"><ele>387.0</ele><time>2026-05-02T15:22:02.553Z</time></trkpt><trkpt lat="44.1378717" lon="11.561445"><ele>386.0</ele><time>2026-05-02T15:22:03.553Z</time></trkpt><trkpt lat="44.1378" lon="11.5616533"><ele>385.0</ele><time>2026-05-02T15:22:04.553Z</time></trkpt><trkpt lat="44.1377617" lon="11.5618867"><ele>384.0</ele><time>2026-05-02T15:22:05.553Z</time></trkpt><trkpt lat="44.1377433" lon="11.5621067"><ele>383.0</ele><time>2026-05-02T15:22:06.553Z</time></trkpt><trkpt lat="44.1377517" lon="11.5623367"><ele>382.0</ele><time>2026-05-02T15:22:07.553Z</time></trkpt><trkpt lat="44.1377833" lon="11.5625817"><ele>382.0</ele><time>2026-05-02T15:22:08.553Z</time></trkpt><trkpt lat="44.1378183" lon="11.56285"><ele>382.0</ele><time>2026-05-02T15:22:09.553Z</time></trkpt><trkpt lat="44.137825" lon="11.563115"><ele>382.0</ele><time>2026-05-02T15:22:10.553Z</time></trkpt><trkpt lat="44.1378133" lon="11.5633633"><ele>382.66666666666663</ele><time>2026-05-02T15:22:11.553Z</time></trkpt><trkpt lat="44.13776" lon="11.5636133"><ele>383.3333333333333</ele><time>2026-05-02T15:22:12.553Z</time></trkpt><trkpt lat="44.137705" lon="11.5638733"><ele>384.0</ele><time>2026-05-02T15:22:13.553Z</time></trkpt><trkpt lat="44.1376717" lon="11.5641433"><ele>384.66666666666663</ele><time>2026-05-02T15:22:14.553Z</time></trkpt><trkpt lat="44.137665" lon="11.5644083"><ele>385.3333333333333</ele><time>2026-05-02T15:22:15.553Z</time></trkpt><trkpt lat="44.1376933" lon="11.5646617"><ele>386.0</ele><time>2026-05-02T15:22:16.553Z</time></trkpt><trkpt lat="44.137735" lon="11.56491"><ele>384.66666666666663</ele><time>2026-05-02T15:22:17.553Z</time></trkpt><trkpt lat="44.1378067" lon="11.56516"><ele>383.3333333333333</ele><time>2026-05-02T15:22:18.553Z</time></trkpt><trkpt lat="44.137905" lon="11.5653783"><ele>382.0</ele><time>2026-05-02T15:22:19.553Z</time></trkpt><trkpt lat="44.1380167" lon="11.565575"><ele>380.66666666666663</ele><time>2026-05-02T15:22:20.553Z</time></trkpt><trkpt lat="44.1381317" lon="11.5657417"><ele>379.3333333333333</ele><time>2026-05-02T15:22:21.553Z</time></trkpt><trkpt lat="44.1382783" lon="11.5659067"><ele>378.0</ele><time>2026-05-02T15:22:22.553Z</time></trkpt><trkpt lat="44.1384467" lon="11.5660683"><ele>377.3333333333333</ele><time>2026-05-02T15:22:23.553Z</time></trkpt><trkpt lat="44.138625" lon="11.5662233"><ele>376.66666666666663</ele><time>2026-05-02T15:22:24.552Z</time></trkpt><trkpt lat="44.1387983" lon="11.566395"><ele>376.0</ele><time>2026-05-02T15:22:25.553Z</time></trkpt><trkpt lat="44.1389583" lon="11.56657"><ele>374.3333333333333</ele><time>2026-05-02T15:22:26.553Z</time></trkpt><trkpt lat="44.139105" lon="11.5667533"><ele>372.6666666666667</ele><time>2026-05-02T15:22:27.553Z</time></trkpt><trkpt lat="44.1392383" lon="11.5669483"><ele>371.0</ele><time>2026-05-02T15:22:28.553Z</time></trkpt><trkpt lat="44.139395" lon="11.5671317"><ele>371.0</ele><time>2026-05-02T15:22:29.553Z</time></trkpt><trkpt lat="44.1395733" lon="11.5672817"><ele>371.0</ele><time>2026-05-02T15:22:30.553Z</time></trkpt><trkpt lat="44.1397617" lon="11.5674"><ele>371.0</ele><time>2026-05-02T15:22:31.553Z</time></trkpt><trkpt lat="44.1399383" lon="11.5675133"><ele>370.33333333333337</ele><time>2026-05-02T15:22:32.553Z</time></trkpt><trkpt lat="44.140095" lon="11.567655"><ele>369.6666666666667</ele><time>2026-05-02T15:22:33.553Z</time></trkpt><trkpt lat="44.1402267" lon="11.5678033"><ele>369.0</ele><time>2026-05-02T15:22:34.553Z</time></trkpt><trkpt lat="44.14033" lon="11.5679733"><ele>369.0</ele><time>2026-05-02T15:22:35.552Z</time></trkpt><trkpt lat="44.1404067" lon="11.5681883"><ele>369.0</ele><time>2026-05-02T15:22:36.552Z</time></trkpt><trkpt lat="44.1404583" lon="11.5684333"><ele>369.0</ele><time>2026-05-02T15:22:37.553Z</time></trkpt><trkpt lat="44.140495" lon="11.5687083"><ele>366.3333333333333</ele><time>2026-05-02T15:22:38.553Z</time></trkpt><trkpt lat="44.1405517" lon="11.56897"><ele>363.66666666666663</ele><time>2026-05-02T15:22:39.553Z</time></trkpt><trkpt lat="44.1406183" lon="11.56921"><ele>361.0</ele><time>2026-05-02T15:22:40.553Z</time></trkpt><trkpt lat="44.140675" lon="11.5694283"><ele>365.25</ele><time>2026-05-02T15:22:41.553Z</time></trkpt><trkpt lat="44.1407233" lon="11.56963"><ele>369.5</ele><time>2026-05-02T15:22:42.553Z</time></trkpt><trkpt lat="44.1407567" lon="11.5697917"><ele>373.75</ele><time>2026-05-02T15:22:43.553Z</time></trkpt><trkpt lat="44.1407667" lon="11.5699267"><ele>378.0</ele><time>2026-05-02T15:22:44.553Z</time></trkpt><trkpt lat="44.14073" lon="11.5700367"><ele>376.75</ele><time>2026-05-02T15:22:45.553Z</time></trkpt><trkpt lat="44.140645" lon="11.5701367"><ele>375.5</ele><time>2026-05-02T15:22:46.553Z</time></trkpt><trkpt lat="44.1405333" lon="11.570235"><ele>374.25</ele><time>2026-05-02T15:22:47.553Z</time></trkpt><trkpt lat="44.1403717" lon="11.5703483"><ele>373.0</ele><time>2026-05-02T15:22:48.553Z</time></trkpt><trkpt lat="44.14021" lon="11.5704733"><ele>373.0</ele><time>2026-05-02T15:22:49.553Z</time></trkpt><trkpt lat="44.1400533" lon="11.5706"><ele>373.0</ele><time>2026-05-02T15:22:50.553Z</time></trkpt><trkpt lat="44.1398867" lon="11.5707233"><ele>373.0</ele><time>2026-05-02T15:22:51.553Z</time></trkpt><trkpt lat="44.1397317" lon="11.570835"><ele>371.0</ele><time>2026-05-02T15:22:52.552Z</time></trkpt><trkpt lat="44.1395883" lon="11.5709483"><ele>369.0</ele><time>2026-05-02T15:22:53.553Z</time></trkpt><trkpt lat="44.139465" lon="11.5710617"><ele>367.0</ele><time>2026-05-02T15:22:54.553Z</time></trkpt><trkpt lat="44.1393783" lon="11.5711967"><ele>365.0</ele><time>2026-05-02T15:22:55.553Z</time></trkpt><trkpt lat="44.1393167" lon="11.5713633"><ele>365.0</ele><time>2026-05-02T15:22:56.552Z</time></trkpt><trkpt lat="44.1392917" lon="11.5715583"><ele>365.0</ele><time>2026-05-02T15:22:57.552Z</time></trkpt><trkpt lat="44.1393" lon="11.5717983"><ele>365.0</ele><time>2026-05-02T15:22:58.553Z</time></trkpt><trkpt lat="44.1393133" lon="11.5720617"><ele>365.0</ele><time>2026-05-02T15:22:59.553Z</time></trkpt><trkpt lat="44.1393617" lon="11.5723433"><ele>365.0</ele><time>2026-05-02T15:23:00.552Z</time></trkpt><trkpt lat="44.1394233" lon="11.5726133"><ele>365.0</ele><time>2026-05-02T15:23:01.553Z</time></trkpt><trkpt lat="44.1394867" lon="11.5728733"><ele>365.6666666666667</ele><time>2026-05-02T15:23:02.552Z</time></trkpt><trkpt lat="44.1395533" lon="11.57311"><ele>366.3333333333333</ele><time>2026-05-02T15:23:03.553Z</time></trkpt><trkpt lat="44.139645" lon="11.5733383"><ele>367.0</ele><time>2026-05-02T15:23:04.553Z</time></trkpt><trkpt lat="44.1397667" lon="11.5735367"><ele>363.66666666666663</ele><time>2026-05-02T15:23:05.553Z</time></trkpt><trkpt lat="44.1399167" lon="11.573715"><ele>360.3333333333333</ele><time>2026-05-02T15:23:06.553Z</time></trkpt><trkpt lat="44.14009" lon="11.5738783"><ele>357.0</ele><time>2026-05-02T15:23:07.553Z</time></trkpt><trkpt lat="44.1402833" lon="11.5740317"><ele>357.0</ele><time>2026-05-02T15:23:08.553Z</time></trkpt><trkpt lat="44.1404867" lon="11.5741533"><ele>357.0</ele><time>2026-05-02T15:23:09.553Z</time></trkpt><trkpt lat="44.1406867" lon="11.5742767"><ele>357.0</ele><time>2026-05-02T15:23:10.553Z</time></trkpt><trkpt lat="44.1408767" lon="11.57439"><ele>356.6666666666667</ele><time>2026-05-02T15:23:11.553Z</time></trkpt><trkpt lat="44.1410583" lon="11.5745167"><ele>356.33333333333337</ele><time>2026-05-02T15:23:12.552Z</time></trkpt><trkpt lat="44.141225" lon="11.57467"><ele>356.0</ele><time>2026-05-02T15:23:13.553Z</time></trkpt><trkpt lat="44.1413967" lon="11.5748167"><ele>356.6666666666667</ele><time>2026-05-02T15:23:14.553Z</time></trkpt><trkpt lat="44.141575" lon="11.574945"><ele>357.3333333333333</ele><time>2026-05-02T15:23:15.553Z</time></trkpt><trkpt lat="44.1417533" lon="11.5750567"><ele>358.0</ele><time>2026-05-02T15:23:16.553Z</time></trkpt><trkpt lat="44.1419233" lon="11.5751317"><ele>358.0</ele><time>2026-05-02T15:23:17.552Z</time></trkpt><trkpt lat="44.142085" lon="11.5752017"><ele>358.0</ele><time>2026-05-02T15:23:18.552Z</time></trkpt><trkpt lat="44.1422367" lon="11.5752633"><ele>358.0</ele><time>2026-05-02T15:23:19.553Z</time></trkpt><trkpt lat="44.1423767" lon="11.575305"><ele>356.2</ele><time>2026-05-02T15:23:20.553Z</time></trkpt><trkpt lat="44.1424967" lon="11.575355"><ele>354.4</ele><time>2026-05-02T15:23:21.553Z</time></trkpt><trkpt lat="44.1425817" lon="11.5753917"><ele>352.59999999999997</ele><time>2026-05-02T15:23:22.553Z</time></trkpt><trkpt lat="44.1426517" lon="11.575465"><ele>350.79999999999995</ele><time>2026-05-02T15:23:24.553Z</time></trkpt><trkpt lat="44.14259" lon="11.5755167"><ele>349.0</ele><time>2026-05-02T15:23:26.553Z</time></trkpt><trkpt lat="44.1424817" lon="11.5755067"><ele>349.0</ele><time>2026-05-02T15:23:28.553Z</time></trkpt><trkpt lat="44.1423967" lon="11.5754683"><ele>349.0</ele><time>2026-05-02T15:23:29.553Z</time></trkpt><trkpt lat="44.1423017" lon="11.575425"><ele>349.0</ele><time>2026-05-02T15:23:30.553Z</time></trkpt><trkpt lat="44.1422117" lon="11.5754033"><ele>349.0</ele><time>2026-05-02T15:23:31.552Z</time></trkpt><trkpt lat="44.1421283" lon="11.5754233"><ele>349.0</ele><time>2026-05-02T15:23:32.553Z</time></trkpt><trkpt lat="44.1420583" lon="11.5754883"><ele>349.0</ele><time>2026-05-02T15:23:33.552Z</time></trkpt><trkpt lat="44.1420083" lon="11.5755883"><ele>349.5</ele><time>2026-05-02T15:23:34.553Z</time></trkpt><trkpt lat="44.1419517" lon="11.5757133"><ele>350.0</ele><time>2026-05-02T15:23:35.553Z</time></trkpt><trkpt lat="44.141905" lon="11.5758183"><ele>350.5</ele><time>2026-05-02T15:23:36.553Z</time></trkpt><trkpt lat="44.141855" lon="11.5758917"><ele>351.0</ele><time>2026-05-02T15:23:37.553Z</time></trkpt><trkpt lat="44.1417983" lon="11.57594"><ele>351.5</ele><time>2026-05-02T15:23:38.553Z</time></trkpt><trkpt lat="44.1417183" lon="11.5759383"><ele>352.0</ele><time>2026-05-02T15:23:39.553Z</time></trkpt><trkpt lat="44.1416267" lon="11.575915"><ele>352.0</ele><time>2026-05-02T15:23:40.552Z</time></trkpt><trkpt lat="44.1415483" lon="11.575905"><ele>352.0</ele><time>2026-05-02T15:23:41.553Z</time></trkpt><trkpt lat="44.1414617" lon="11.57596"><ele>352.0</ele><time>2026-05-02T15:23:43.553Z</time></trkpt><trkpt lat="44.141515" lon="11.576045"><ele>352.0</ele><time>2026-05-02T15:23:45.553Z</time></trkpt><trkpt lat="44.1415933" lon="11.5760683"><ele>352.0</ele><time>2026-05-02T15:23:46.553Z</time></trkpt><trkpt lat="44.1416867" lon="11.5760883"><ele>352.0</ele><time>2026-05-02T15:23:47.553Z</time></trkpt><trkpt lat="44.14181" lon="11.5761233"><ele>355.3333333333333</ele><time>2026-05-02T15:23:48.553Z</time></trkpt><trkpt lat="44.1419583" lon="11.57621"><ele>358.6666666666667</ele><time>2026-05-02T15:23:49.553Z</time></trkpt><trkpt lat="44.1421033" lon="11.5762817"><ele>362.0</ele><time>2026-05-02T15:23:50.553Z</time></trkpt><trkpt lat="44.14224" lon="11.5763267"><ele>362.0</ele><time>2026-05-02T15:23:51.553Z</time></trkpt><trkpt lat="44.1423633" lon="11.5763733"><ele>362.0</ele><time>2026-05-02T15:23:52.552Z</time></trkpt><trkpt lat="44.1424567" lon="11.576435"><ele>362.0</ele><time>2026-05-02T15:23:53.553Z</time></trkpt><trkpt lat="44.14251" lon="11.5765017"><ele>362.0</ele><time>2026-05-02T15:23:54.553Z</time></trkpt><trkpt lat="44.1424967" lon="11.5766617"><ele>362.0</ele><time>2026-05-02T15:23:56.553Z</time></trkpt><trkpt lat="44.1424367" lon="11.5767383"><ele>362.0</ele><time>2026-05-02T15:23:57.553Z</time></trkpt><trkpt lat="44.142345" lon="11.5768267"><ele>362.0</ele><time>2026-05-02T15:23:58.553Z</time></trkpt><trkpt lat="44.1422417" lon="11.5769117"><ele>362.0</ele><time>2026-05-02T15:23:59.553Z</time></trkpt><trkpt lat="44.14215" lon="11.5770017"><ele>362.0</ele><time>2026-05-02T15:24:00.552Z</time></trkpt><trkpt lat="44.1420717" lon="11.5770867"><ele>362.0</ele><time>2026-05-02T15:24:01.553Z</time></trkpt><trkpt lat="44.142" lon="11.57717"><ele>363.33333333333337</ele><time>2026-05-02T15:24:02.553Z</time></trkpt><trkpt lat="44.1419367" lon="11.5772483"><ele>364.6666666666667</ele><time>2026-05-02T15:24:03.553Z</time></trkpt><trkpt lat="44.1418683" lon="11.577325"><ele>366.0</ele><time>2026-05-02T15:24:04.553Z</time></trkpt><trkpt lat="44.1417967" lon="11.5773967"><ele>367.3333333333333</ele><time>2026-05-02T15:24:05.553Z</time></trkpt><trkpt lat="44.14172" lon="11.5774767"><ele>368.66666666666663</ele><time>2026-05-02T15:24:06.553Z</time></trkpt><trkpt lat="44.1416517" lon="11.5775533"><ele>370.0</ele><time>2026-05-02T15:24:07.553Z</time></trkpt><trkpt lat="44.141585" lon="11.5776217"><ele>370.0</ele><time>2026-05-02T15:24:08.553Z</time></trkpt><trkpt lat="44.141535" lon="11.5777033"><ele>370.0</ele><time>2026-05-02T15:24:09.553Z</time></trkpt><trkpt lat="44.1415" lon="11.5777983"><ele>370.0</ele><time>2026-05-02T15:24:10.553Z</time></trkpt><trkpt lat="44.1415017" lon="11.57791"><ele>370.0</ele><time>2026-05-02T15:24:11.553Z</time></trkpt><trkpt lat="44.1415667" lon="11.57802"><ele>370.0</ele><time>2026-05-02T15:24:12.553Z</time></trkpt><trkpt lat="44.1416517" lon="11.578145"><ele>371.75</ele><time>2026-05-02T15:24:13.553Z</time></trkpt><trkpt lat="44.1417383" lon="11.5782933"><ele>373.5</ele><time>2026-05-02T15:24:14.553Z</time></trkpt><trkpt lat="44.141825" lon="11.5784483"><ele>375.25</ele><time>2026-05-02T15:24:15.553Z</time></trkpt><trkpt lat="44.14191" lon="11.5786133"><ele>377.0</ele><time>2026-05-02T15:24:16.553Z</time></trkpt><trkpt lat="44.1419933" lon="11.578795"><ele>382.75</ele><time>2026-05-02T15:24:17.553Z</time></trkpt><trkpt lat="44.1420817" lon="11.5789567"><ele>388.5</ele><time>2026-05-02T15:24:18.553Z</time></trkpt><trkpt lat="44.1421633" lon="11.579105"><ele>394.25</ele><time>2026-05-02T15:24:19.553Z</time></trkpt><trkpt lat="44.14223" lon="11.5792267"><ele>400.0</ele><time>2026-05-02T15:24:20.553Z</time></trkpt><trkpt lat="44.1422783" lon="11.57934"><ele>400.00000000000006</ele><time>2026-05-02T15:24:21.553Z</time></trkpt><trkpt lat="44.14231" lon="11.5794333"><ele>400.0</ele><time>2026-05-02T15:24:22.553Z</time></trkpt><trkpt lat="44.1422933" lon="11.5795567"><ele>400.0</ele><time>2026-05-02T15:24:24.553Z</time></trkpt><trkpt lat="44.1421917" lon="11.5795667"><ele>400.0</ele><time>2026-05-02T15:24:26.553Z</time></trkpt><trkpt lat="44.1421267" lon="11.5795117"><ele>400.00000000000006</ele><time>2026-05-02T15:24:27.553Z</time></trkpt><trkpt lat="44.14207" lon="11.5794333"><ele>400.0</ele><time>2026-05-02T15:24:28.553Z</time></trkpt><trkpt lat="44.1420033" lon="11.5793417"><ele>400.0</ele><time>2026-05-02T15:24:29.552Z</time></trkpt><trkpt lat="44.1419333" lon="11.5792533"><ele>400.0</ele><time>2026-05-02T15:24:30.553Z</time></trkpt><trkpt lat="44.141845" lon="11.5791767"><ele>400.0</ele><time>2026-05-02T15:24:31.553Z</time></trkpt><trkpt lat="44.141745" lon="11.579115"><ele>400.0</ele><time>2026-05-02T15:24:32.553Z</time></trkpt><trkpt lat="44.1416383" lon="11.5790433"><ele>400.0</ele><time>2026-05-02T15:24:33.553Z</time></trkpt><trkpt lat="44.1415433" lon="11.5789533"><ele>404.00000000000006</ele><time>2026-05-02T15:24:34.553Z</time></trkpt><trkpt lat="44.1414617" lon="11.57886"><ele>408.0</ele><time>2026-05-02T15:24:35.553Z</time></trkpt><trkpt lat="44.1413983" lon="11.578795"><ele>412.0</ele><time>2026-05-02T15:24:36.553Z</time></trkpt><trkpt lat="44.1413067" lon="11.5787683"><ele>416.0</ele><time>2026-05-02T15:24:38.553Z</time></trkpt><trkpt lat="44.1413117" lon="11.57888"><ele>420.00000000000006</ele><time>2026-05-02T15:24:40.553Z</time></trkpt><trkpt lat="44.141365" lon="11.578945"><ele>424.0</ele><time>2026-05-02T15:24:41.552Z</time></trkpt><trkpt lat="44.141455" lon="11.5790117"><ele>418.0</ele><time>2026-05-02T15:24:42.553Z</time></trkpt><trkpt lat="44.14155" lon="11.579105"><ele>412.0</ele><time>2026-05-02T15:24:43.553Z</time></trkpt><trkpt lat="44.14164" lon="11.57921"><ele>406.0</ele><time>2026-05-02T15:24:44.553Z</time></trkpt><trkpt lat="44.141725" lon="11.579325"><ele>400.0</ele><time>2026-05-02T15:24:45.553Z</time></trkpt><trkpt lat="44.1417967" lon="11.57944"><ele>405.6</ele><time>2026-05-02T15:24:46.552Z</time></trkpt><trkpt lat="44.14186" lon="11.579545"><ele>411.2</ele><time>2026-05-02T15:24:47.553Z</time></trkpt><trkpt lat="44.1419217" lon="11.5796567"><ele>416.79999999999995</ele><time>2026-05-02T15:24:48.552Z</time></trkpt><trkpt lat="44.14198" lon="11.5797917"><ele>422.4</ele><time>2026-05-02T15:24:49.553Z</time></trkpt><trkpt lat="44.1420567" lon="11.5799433"><ele>428.0</ele><time>2026-05-02T15:24:50.553Z</time></trkpt><trkpt lat="44.1421633" lon="11.5800967"><ele>428.0</ele><time>2026-05-02T15:24:51.553Z</time></trkpt><trkpt lat="44.1422833" lon="11.58025"><ele>428.0</ele><time>2026-05-02T15:24:52.553Z</time></trkpt><trkpt lat="44.14242" lon="11.580395"><ele>428.0</ele><time>2026-05-02T15:24:53.553Z</time></trkpt><trkpt lat="44.1425417" lon="11.5805383"><ele>427.0</ele><time>2026-05-02T15:24:54.553Z</time></trkpt><trkpt lat="44.1426433" lon="11.580665"><ele>426.0</ele><time>2026-05-02T15:24:55.553Z</time></trkpt><trkpt lat="44.1427333" lon="11.5807967"><ele>425.0</ele><time>2026-05-02T15:24:56.553Z</time></trkpt><trkpt lat="44.1428083" lon="11.5809367"><ele>424.0</ele><time>2026-05-02T15:24:57.553Z</time></trkpt><trkpt lat="44.1428667" lon="11.5810867"><ele>425.25</ele><time>2026-05-02T15:24:58.553Z</time></trkpt><trkpt lat="44.14291" lon="11.58123"><ele>426.5</ele><time>2026-05-02T15:24:59.553Z</time></trkpt><trkpt lat="44.1429317" lon="11.5813633"><ele>427.75</ele><time>2026-05-02T15:25:00.553Z</time></trkpt><trkpt lat="44.1429233" lon="11.5815233"><ele>429.0</ele><time>2026-05-02T15:25:01.553Z</time></trkpt><trkpt lat="44.1428883" lon="11.5816967"><ele>429.0</ele><time>2026-05-02T15:25:02.553Z</time></trkpt><trkpt lat="44.142855" lon="11.58186"><ele>429.0</ele><time>2026-05-02T15:25:03.553Z</time></trkpt><trkpt lat="44.14281" lon="11.5819867"><ele>429.0</ele><time>2026-05-02T15:25:04.553Z</time></trkpt><trkpt lat="44.142745" lon="11.58206"><ele>429.0</ele><time>2026-05-02T15:25:05.552Z</time></trkpt><trkpt lat="44.14264" lon="11.5821167"><ele>429.0</ele><time>2026-05-02T15:25:06.553Z</time></trkpt><trkpt lat="44.1425" lon="11.5821533"><ele>430.2</ele><time>2026-05-02T15:25:07.553Z</time></trkpt><trkpt lat="44.1423617" lon="11.5822033"><ele>431.4</ele><time>2026-05-02T15:25:08.553Z</time></trkpt><trkpt lat="44.142255" lon="11.582265"><ele>432.6</ele><time>2026-05-02T15:25:09.553Z</time></trkpt><trkpt lat="44.14218" lon="11.5823417"><ele>433.8</ele><time>2026-05-02T15:25:10.553Z</time></trkpt><trkpt lat="44.1421283" lon="11.5824067"><ele>435.0</ele><time>2026-05-02T15:25:11.553Z</time></trkpt><trkpt lat="44.1421133" lon="11.582495"><ele>435.0</ele><time>2026-05-02T15:25:12.553Z</time></trkpt><trkpt lat="44.1421433" lon="11.582585"><ele>435.0</ele><time>2026-05-02T15:25:13.553Z</time></trkpt><trkpt lat="44.1422083" lon="11.582665"><ele>435.0</ele><time>2026-05-02T15:25:14.553Z</time></trkpt><trkpt lat="44.14231" lon="11.5827483"><ele>435.0</ele><time>2026-05-02T15:25:15.553Z</time></trkpt><trkpt lat="44.1424017" lon="11.582815"><ele>435.0</ele><time>2026-05-02T15:25:16.553Z</time></trkpt><trkpt lat="44.1424667" lon="11.5828683"><ele>436.0</ele><time>2026-05-02T15:25:17.552Z</time></trkpt><trkpt lat="44.142535" lon="11.5829717"><ele>437.0</ele><time>2026-05-02T15:25:19.553Z</time></trkpt><trkpt lat="44.1424483" lon="11.5829917"><ele>438.0</ele><time>2026-05-02T15:25:21.553Z</time></trkpt><trkpt lat="44.1423233" lon="11.582935"><ele>439.0</ele><time>2026-05-02T15:25:23.553Z</time></trkpt><trkpt lat="44.1422383" lon="11.5828967"><ele>440.0</ele><time>2026-05-02T15:25:24.553Z</time></trkpt><trkpt lat="44.14215" lon="11.5828567"><ele>439.0</ele><time>2026-05-02T15:25:25.553Z</time></trkpt><trkpt lat="44.1420533" lon="11.5828317"><ele>438.0</ele><time>2026-05-02T15:25:26.553Z</time></trkpt><trkpt lat="44.1419517" lon="11.5828167"><ele>437.0</ele><time>2026-05-02T15:25:27.553Z</time></trkpt><trkpt lat="44.14185" lon="11.5827983"><ele>436.0</ele><time>2026-05-02T15:25:28.553Z</time></trkpt><trkpt lat="44.1417667" lon="11.58276"><ele>435.0</ele><time>2026-05-02T15:25:29.553Z</time></trkpt><trkpt lat="44.1416933" lon="11.5827033"><ele>435.0</ele><time>2026-05-02T15:25:30.553Z</time></trkpt><trkpt lat="44.1416283" lon="11.5826167"><ele>435.0</ele><time>2026-05-02T15:25:31.553Z</time></trkpt><trkpt lat="44.1416267" lon="11.5824567"><ele>435.0</ele><time>2026-05-02T15:25:32.553Z</time></trkpt><trkpt lat="44.1416683" lon="11.5823017"><ele>435.0</ele><time>2026-05-02T15:25:33.553Z</time></trkpt><trkpt lat="44.141735" lon="11.5821417"><ele>441.33333333333337</ele><time>2026-05-02T15:25:34.553Z</time></trkpt><trkpt lat="44.141855" lon="11.5819833"><ele>447.6666666666667</ele><time>2026-05-02T15:25:35.553Z</time></trkpt><trkpt lat="44.1419783" lon="11.5818617"><ele>454.0</ele><time>2026-05-02T15:25:36.553Z</time></trkpt><trkpt lat="44.1421233" lon="11.581775"><ele>454.0</ele><time>2026-05-02T15:25:37.553Z</time></trkpt><trkpt lat="44.142255" lon="11.5817433"><ele>454.0</ele><time>2026-05-02T15:25:38.552Z</time></trkpt><trkpt lat="44.14236" lon="11.58172"><ele>454.0</ele><time>2026-05-02T15:25:39.553Z</time></trkpt><trkpt lat="44.1424417" lon="11.58169"><ele>454.0</ele><time>2026-05-02T15:25:40.553Z</time></trkpt><trkpt lat="44.142505" lon="11.58162"><ele>454.0</ele><time>2026-05-02T15:25:41.553Z</time></trkpt><trkpt lat="44.14255" lon="11.58154"><ele>454.2</ele><time>2026-05-02T15:25:42.553Z</time></trkpt><trkpt lat="44.142545" lon="11.58142"><ele>454.4</ele><time>2026-05-02T15:25:43.553Z</time></trkpt><trkpt lat="44.142515" lon="11.581295"><ele>454.6</ele><time>2026-05-02T15:25:44.553Z</time></trkpt><trkpt lat="44.1424583" lon="11.5811867"><ele>454.8</ele><time>2026-05-02T15:25:45.553Z</time></trkpt><trkpt lat="44.142365" lon="11.5810817"><ele>455.0</ele><time>2026-05-02T15:25:46.553Z</time></trkpt><trkpt lat="44.1422367" lon="11.5809817"><ele>455.0</ele><time>2026-05-02T15:25:47.553Z</time></trkpt><trkpt lat="44.142095" lon="11.58089"><ele>455.0</ele><time>2026-05-02T15:25:48.553Z</time></trkpt><trkpt lat="44.14195" lon="11.580815"><ele>455.0</ele><time>2026-05-02T15:25:49.553Z</time></trkpt><trkpt lat="44.1418167" lon="11.580735"><ele>455.0</ele><time>2026-05-02T15:25:50.553Z</time></trkpt><trkpt lat="44.1416767" lon="11.58062"><ele>455.0</ele><time>2026-05-02T15:25:51.553Z</time></trkpt><trkpt lat="44.141545" lon="11.5804733"><ele>455.0</ele><time>2026-05-02T15:25:52.553Z</time></trkpt><trkpt lat="44.1413967" lon="11.5803367"><ele>453.5</ele><time>2026-05-02T15:25:53.553Z</time></trkpt><trkpt lat="44.141255" lon="11.5802183"><ele>452.0</ele><time>2026-05-02T15:25:54.553Z</time></trkpt><trkpt lat="44.1411383" lon="11.5801233"><ele>450.5</ele><time>2026-05-02T15:25:55.553Z</time></trkpt><trkpt lat="44.141045" lon="11.5800567"><ele>449.0</ele><time>2026-05-02T15:25:56.553Z</time></trkpt><trkpt lat="44.1409633" lon="11.5800283"><ele>449.0</ele><time>2026-05-02T15:25:57.552Z</time></trkpt><trkpt lat="44.1408817" lon="11.5800517"><ele>449.0</ele><time>2026-05-02T15:25:58.553Z</time></trkpt><trkpt lat="44.1408117" lon="11.580145"><ele>449.0</ele><time>2026-05-02T15:25:59.553Z</time></trkpt><trkpt lat="44.1407283" lon="11.5802517"><ele>449.0</ele><time>2026-05-02T15:26:00.553Z</time></trkpt><trkpt lat="44.14063" lon="11.5803417"><ele>449.0</ele><time>2026-05-02T15:26:01.553Z</time></trkpt><trkpt lat="44.1405233" lon="11.58042"><ele>452.99999999999994</ele><time>2026-05-02T15:26:02.553Z</time></trkpt><trkpt lat="44.14044" lon="11.5804967"><ele>457.0</ele><time>2026-05-02T15:26:03.553Z</time></trkpt><trkpt lat="44.1403867" lon="11.5805967"><ele>461.0</ele><time>2026-05-02T15:26:04.553Z</time></trkpt><trkpt lat="44.140345" lon="11.5807017"><ele>465.0</ele><time>2026-05-02T15:26:05.553Z</time></trkpt><trkpt lat="44.1402967" lon="11.5807933"><ele>468.99999999999994</ele><time>2026-05-02T15:26:06.553Z</time></trkpt><trkpt lat="44.140225" lon="11.580845"><ele>473.0</ele><time>2026-05-02T15:26:07.553Z</time></trkpt><trkpt lat="44.14015" lon="11.58087"><ele>473.0</ele><time>2026-05-02T15:26:08.552Z</time></trkpt><trkpt lat="44.1400483" lon="11.580845"><ele>473.0</ele><time>2026-05-02T15:26:09.553Z</time></trkpt><trkpt lat="44.1399417" lon="11.5808133"><ele>473.0</ele><time>2026-05-02T15:26:10.553Z</time></trkpt><trkpt lat="44.1398133" lon="11.58076"><ele>473.0</ele><time>2026-05-02T15:26:11.553Z</time></trkpt><trkpt lat="44.1396833" lon="11.5807017"><ele>474.79999999999995</ele><time>2026-05-02T15:26:12.553Z</time></trkpt><trkpt lat="44.1395633" lon="11.58065"><ele>476.59999999999997</ele><time>2026-05-02T15:26:13.553Z</time></trkpt><trkpt lat="44.1394683" lon="11.5806"><ele>478.40000000000003</ele><time>2026-05-02T15:26:14.553Z</time></trkpt><trkpt lat="44.139375" lon="11.5805833"><ele>480.20000000000005</ele><time>2026-05-02T15:26:15.552Z</time></trkpt><trkpt lat="44.139275" lon="11.5806167"><ele>482.0</ele><time>2026-05-02T15:26:16.553Z</time></trkpt><trkpt lat="44.13917" lon="11.5806833"><ele>482.0</ele><time>2026-05-02T15:26:17.553Z</time></trkpt><trkpt lat="44.1390617" lon="11.5807583"><ele>482.0</ele><time>2026-05-02T15:26:18.553Z</time></trkpt><trkpt lat="44.1389433" lon="11.580835"><ele>482.0</ele><time>2026-05-02T15:26:19.553Z</time></trkpt><trkpt lat="44.1388233" lon="11.5809033"><ele>482.0</ele><time>2026-05-02T15:26:20.553Z</time></trkpt><trkpt lat="44.1386867" lon="11.5809233"><ele>483.75</ele><time>2026-05-02T15:26:21.553Z</time></trkpt><trkpt lat="44.1385483" lon="11.5809283"><ele>485.5</ele><time>2026-05-02T15:26:22.552Z</time></trkpt><trkpt lat="44.1384117" lon="11.5809233"><ele>487.25</ele><time>2026-05-02T15:26:23.553Z</time></trkpt><trkpt lat="44.13828" lon="11.580895"><ele>489.0</ele><time>2026-05-02T15:26:24.553Z</time></trkpt><trkpt lat="44.138165" lon="11.5808717"><ele>492.0</ele><time>2026-05-02T15:26:25.553Z</time></trkpt><trkpt lat="44.13808" lon="11.5808233"><ele>495.0</ele><time>2026-05-02T15:26:26.553Z</time></trkpt><trkpt lat="44.1380117" lon="11.5807633"><ele>498.0</ele><time>2026-05-02T15:26:27.553Z</time></trkpt><trkpt lat="44.1379483" lon="11.5806583"><ele>501.0</ele><time>2026-05-02T15:26:28.553Z</time></trkpt><trkpt lat="44.137865" lon="11.58056"><ele>504.0</ele><time>2026-05-02T15:26:29.553Z</time></trkpt><trkpt lat="44.1377583" lon="11.5805033"><ele>504.0</ele><time>2026-05-02T15:26:30.553Z</time></trkpt><trkpt lat="44.1376517" lon="11.5804817"><ele>504.0</ele><time>2026-05-02T15:26:31.553Z</time></trkpt><trkpt lat="44.137555" lon="11.5805067"><ele>504.0</ele><time>2026-05-02T15:26:32.553Z</time></trkpt><trkpt lat="44.1374817" lon="11.5805967"><ele>504.0</ele><time>2026-05-02T15:26:33.553Z</time></trkpt><trkpt lat="44.1374017" lon="11.5807117"><ele>504.0</ele><time>2026-05-02T15:26:34.553Z</time></trkpt><trkpt lat="44.1373283" lon="11.580825"><ele>507.79999999999995</ele><time>2026-05-02T15:26:35.553Z</time></trkpt><trkpt lat="44.1372533" lon="11.580885"><ele>511.59999999999997</ele><time>2026-05-02T15:26:36.552Z</time></trkpt><trkpt lat="44.1371767" lon="11.5809117"><ele>515.4</ele><time>2026-05-02T15:26:37.553Z</time></trkpt><trkpt lat="44.1371033" lon="11.5809067"><ele>519.1999999999999</ele><time>2026-05-02T15:26:38.553Z</time></trkpt><trkpt lat="44.1370367" lon="11.580875"><ele>523.0</ele><time>2026-05-02T15:26:39.553Z</time></trkpt><trkpt lat="44.1370083" lon="11.5806583"><ele>523.0</ele><time>2026-05-02T15:26:40.553Z</time></trkpt><trkpt lat="44.136965" lon="11.580475"><ele>523.0</ele><time>2026-05-02T15:26:41.553Z</time></trkpt><trkpt lat="44.1369083" lon="11.58032"><ele>523.0</ele><time>2026-05-02T15:26:42.553Z</time></trkpt><trkpt lat="44.1368367" lon="11.5802117"><ele>523.0</ele><time>2026-05-02T15:26:43.552Z</time></trkpt><trkpt lat="44.1367383" lon="11.5801483"><ele>519.0</ele><time>2026-05-02T15:26:44.553Z</time></trkpt><trkpt lat="44.1366283" lon="11.5800883"><ele>515.0</ele><time>2026-05-02T15:26:45.553Z</time></trkpt><trkpt lat="44.1365233" lon="11.5800217"><ele>510.99999999999994</ele><time>2026-05-02T15:26:46.553Z</time></trkpt><trkpt lat="44.136425" lon="11.5799617"><ele>507.0</ele><time>2026-05-02T15:26:47.553Z</time></trkpt><trkpt lat="44.1363267" lon="11.579935"><ele>503.0</ele><time>2026-05-02T15:26:48.553Z</time></trkpt><trkpt lat="44.13622" lon="11.579965"><ele>502.5</ele><time>2026-05-02T15:26:49.553Z</time></trkpt><trkpt lat="44.1361133" lon="11.5800333"><ele>502.0</ele><time>2026-05-02T15:26:50.553Z</time></trkpt><trkpt lat="44.13602" lon="11.58012"><ele>501.5</ele><time>2026-05-02T15:26:51.553Z</time></trkpt><trkpt lat="44.1359333" lon="11.5802433"><ele>501.0</ele><time>2026-05-02T15:26:52.553Z</time></trkpt><trkpt lat="44.135845" lon="11.5803833"><ele>504.75</ele><time>2026-05-02T15:26:53.553Z</time></trkpt><trkpt lat="44.1357617" lon="11.580495"><ele>508.5</ele><time>2026-05-02T15:26:54.553Z</time></trkpt><trkpt lat="44.1356867" lon="11.5806067"><ele>512.25</ele><time>2026-05-02T15:26:55.553Z</time></trkpt><trkpt lat="44.1356033" lon="11.5807183"><ele>516.0</ele><time>2026-05-02T15:26:56.553Z</time></trkpt><trkpt lat="44.1355117" lon="11.58085"><ele>516.0</ele><time>2026-05-02T15:26:57.553Z</time></trkpt><trkpt lat="44.1354133" lon="11.5809767"><ele>516.0</ele><time>2026-05-02T15:26:58.553Z</time></trkpt><trkpt lat="44.1353117" lon="11.5810867"><ele>516.0</ele><time>2026-05-02T15:26:59.553Z</time></trkpt><trkpt lat="44.1351983" lon="11.5811633"><ele>516.0</ele><time>2026-05-02T15:27:00.553Z</time></trkpt><trkpt lat="44.13507" lon="11.5811883"><ele>516.0</ele><time>2026-05-02T15:27:01.553Z</time></trkpt><trkpt lat="44.13493" lon="11.58118"><ele>516.0</ele><time>2026-05-02T15:27:02.553Z</time></trkpt><trkpt lat="44.1348" lon="11.5811633"><ele>516.0</ele><time>2026-05-02T15:27:03.553Z</time></trkpt><trkpt lat="44.1346917" lon="11.5811683"><ele>516.0</ele><time>2026-05-02T15:27:04.553Z</time></trkpt><trkpt lat="44.13461" lon="11.5811833"><ele>518.4</ele><time>2026-05-02T15:27:05.553Z</time></trkpt><trkpt lat="44.1345433" lon="11.5812333"><ele>520.8</ele><time>2026-05-02T15:27:06.553Z</time></trkpt><trkpt lat="44.1344983" lon="11.58131"><ele>523.1999999999999</ele><time>2026-05-02T15:27:07.553Z</time></trkpt><trkpt lat="44.134485" lon="11.5814083"><ele>525.6</ele><time>2026-05-02T15:27:08.552Z</time></trkpt><trkpt lat="44.13452" lon="11.58156"><ele>528.0</ele><time>2026-05-02T15:27:09.553Z</time></trkpt><trkpt lat="44.134565" lon="11.58174"><ele>528.0</ele><time>2026-05-02T15:27:10.553Z</time></trkpt><trkpt lat="44.1346017" lon="11.58193"><ele>528.0</ele><time>2026-05-02T15:27:11.553Z</time></trkpt><trkpt lat="44.134635" lon="11.5821033"><ele>528.0</ele><time>2026-05-02T15:27:12.553Z</time></trkpt><trkpt lat="44.1346667" lon="11.5822483"><ele>528.0</ele><time>2026-05-02T15:27:13.553Z</time></trkpt><trkpt lat="44.134685" lon="11.58237"><ele>529.1666666666666</ele><time>2026-05-02T15:27:14.553Z</time></trkpt><trkpt lat="44.1347133" lon="11.5824833"><ele>530.3333333333334</ele><time>2026-05-02T15:27:15.553Z</time></trkpt><trkpt lat="44.134725" lon="11.5825967"><ele>531.5</ele><time>2026-05-02T15:27:16.553Z</time></trkpt><trkpt lat="44.1347217" lon="11.5827133"><ele>532.6666666666667</ele><time>2026-05-02T15:27:17.553Z</time></trkpt><trkpt lat="44.1346817" lon="11.5828233"><ele>533.8333333333334</ele><time>2026-05-02T15:27:18.553Z</time></trkpt><trkpt lat="44.1346167" lon="11.5829133"><ele>535.0</ele><time>2026-05-02T15:27:19.553Z</time></trkpt><trkpt lat="44.13453" lon="11.5829633"><ele>537.0</ele><time>2026-05-02T15:27:20.553Z</time></trkpt><trkpt lat="44.1344417" lon="11.5830067"><ele>539.0</ele><time>2026-05-02T15:27:21.553Z</time></trkpt><trkpt lat="44.13435" lon="11.58304"><ele>541.0</ele><time>2026-05-02T15:27:22.553Z</time></trkpt><trkpt lat="44.134245" lon="11.58305"><ele>543.0</ele><time>2026-05-02T15:27:23.553Z</time></trkpt><trkpt lat="44.1341383" lon="11.583065"><ele>545.0</ele><time>2026-05-02T15:27:24.553Z</time></trkpt><trkpt lat="44.1340417" lon="11.5830867"><ele>545.0</ele><time>2026-05-02T15:27:25.553Z</time></trkpt><trkpt lat="44.133965" lon="11.583115"><ele>545.0</ele><time>2026-05-02T15:27:26.553Z</time></trkpt><trkpt lat="44.13389" lon="11.5831533"><ele>545.0</ele><time>2026-05-02T15:27:27.553Z</time></trkpt><trkpt lat="44.13383" lon="11.583205"><ele>545.0</ele><time>2026-05-02T15:27:28.552Z</time></trkpt><trkpt lat="44.13377" lon="11.58328"><ele>545.0</ele><time>2026-05-02T15:27:29.553Z</time></trkpt><trkpt lat="44.1337067" lon="11.5833767"><ele>545.0</ele><time>2026-05-02T15:27:30.553Z</time></trkpt><trkpt lat="44.13362" lon="11.5834817"><ele>545.0</ele><time>2026-05-02T15:27:31.553Z</time></trkpt><trkpt lat="44.1335167" lon="11.5835633"><ele>545.0</ele><time>2026-05-02T15:27:32.553Z</time></trkpt><trkpt lat="44.13342" lon="11.583625"><ele>545.0</ele><time>2026-05-02T15:27:33.553Z</time></trkpt><trkpt lat="44.1333233" lon="11.58367"><ele>545.0</ele><time>2026-05-02T15:27:34.553Z</time></trkpt><trkpt lat="44.1332533" lon="11.583715"><ele>545.0</ele><time>2026-05-02T15:27:35.553Z</time></trkpt><trkpt lat="44.1331983" lon="11.5837683"><ele>550.0</ele><time>2026-05-02T15:27:36.553Z</time></trkpt><trkpt lat="44.1332233" lon="11.583915"><ele>555.0</ele><time>2026-05-02T15:27:38.553Z</time></trkpt><trkpt lat="44.1332933" lon="11.583955"><ele>560.0</ele><time>2026-05-02T15:27:39.552Z</time></trkpt><trkpt lat="44.1333717" lon="11.583965"><ele>565.0</ele><time>2026-05-02T15:27:40.553Z</time></trkpt><trkpt lat="44.1334633" lon="11.5839817"><ele>570.0</ele><time>2026-05-02T15:27:41.553Z</time></trkpt><trkpt lat="44.133565" lon="11.584005"><ele>570.0</ele><time>2026-05-02T15:27:42.553Z</time></trkpt><trkpt lat="44.1336817" lon="11.5840833"><ele>570.0</ele><time>2026-05-02T15:27:43.553Z</time></trkpt><trkpt lat="44.13381" lon="11.584175"><ele>570.0</ele><time>2026-05-02T15:27:44.553Z</time></trkpt><trkpt lat="44.1339433" lon="11.5842817"><ele>570.0</ele><time>2026-05-02T15:27:45.553Z</time></trkpt><trkpt lat="44.1341033" lon="11.5843717"><ele>567.3333333333334</ele><time>2026-05-02T15:27:46.553Z</time></trkpt><trkpt lat="44.13427" lon="11.584425"><ele>564.6666666666667</ele><time>2026-05-02T15:27:47.553Z</time></trkpt><trkpt lat="44.1344433" lon="11.5844917"><ele>562.0</ele><time>2026-05-02T15:27:48.553Z</time></trkpt><trkpt lat="44.1346367" lon="11.584585"><ele>568.3333333333334</ele><time>2026-05-02T15:27:49.553Z</time></trkpt><trkpt lat="44.13483" lon="11.58466"><ele>574.6666666666666</ele><time>2026-05-02T15:27:50.553Z</time></trkpt><trkpt lat="44.135025" lon="11.5847017"><ele>581.0</ele><time>2026-05-02T15:27:51.553Z</time></trkpt><trkpt lat="44.13521" lon="11.5847117"><ele>581.0</ele><time>2026-05-02T15:27:52.553Z</time></trkpt><trkpt lat="44.1353833" lon="11.5847267"><ele>581.0</ele><time>2026-05-02T15:27:53.553Z</time></trkpt><trkpt lat="44.1355367" lon="11.5847533"><ele>581.0</ele><time>2026-05-02T15:27:54.553Z</time></trkpt><trkpt lat="44.13568" lon="11.5847983"><ele>581.3333333333333</ele><time>2026-05-02T15:27:55.553Z</time></trkpt><trkpt lat="44.1358233" lon="11.5848683"><ele>581.6666666666666</ele><time>2026-05-02T15:27:56.553Z</time></trkpt><trkpt lat="44.135965" lon="11.58498"><ele>582.0</ele><time>2026-05-02T15:27:57.553Z</time></trkpt><trkpt lat="44.1361017" lon="11.5850967"><ele>582.0</ele><time>2026-05-02T15:27:58.553Z</time></trkpt><trkpt lat="44.13623" lon="11.5852083"><ele>582.0</ele><time>2026-05-02T15:27:59.552Z</time></trkpt><trkpt lat="44.1363483" lon="11.5853467"><ele>582.0</ele><time>2026-05-02T15:28:00.553Z</time></trkpt><trkpt lat="44.13646" lon="11.5854967"><ele>585.2</ele><time>2026-05-02T15:28:01.553Z</time></trkpt><trkpt lat="44.13655" lon="11.5856267"><ele>588.4000000000001</ele><time>2026-05-02T15:28:02.553Z</time></trkpt><trkpt lat="44.1366383" lon="11.5857217"><ele>591.5999999999999</ele><time>2026-05-02T15:28:03.553Z</time></trkpt><trkpt lat="44.1367167" lon="11.58577"><ele>594.8</ele><time>2026-05-02T15:28:04.553Z</time></trkpt><trkpt lat="44.1368033" lon="11.585765"><ele>598.0</ele><time>2026-05-02T15:28:05.553Z</time></trkpt><trkpt lat="44.1368833" lon="11.585695"><ele>598.0</ele><time>2026-05-02T15:28:06.553Z</time></trkpt><trkpt lat="44.13696" lon="11.5856133"><ele>598.0</ele><time>2026-05-02T15:28:07.553Z</time></trkpt><trkpt lat="44.13704" lon="11.5855333"><ele>598.0</ele><time>2026-05-02T15:28:08.553Z</time></trkpt><trkpt lat="44.1371117" lon="11.585455"><ele>598.0</ele><time>2026-05-02T15:28:09.553Z</time></trkpt><trkpt lat="44.13718" lon="11.5853817"><ele>598.0</ele><time>2026-05-02T15:28:10.553Z</time></trkpt><trkpt lat="44.1372433" lon="11.58534"><ele>598.0</ele><time>2026-05-02T15:28:11.553Z</time></trkpt><trkpt lat="44.137325" lon="11.5854033"><ele>598.0</ele><time>2026-05-02T15:28:13.553Z</time></trkpt><trkpt lat="44.137295" lon="11.5855417"><ele>598.0</ele><time>2026-05-02T15:28:15.553Z</time></trkpt><trkpt lat="44.13724" lon="11.585605"><ele>598.0</ele><time>2026-05-02T15:28:16.553Z</time></trkpt><trkpt lat="44.1371767" lon="11.585685"><ele>598.0</ele><time>2026-05-02T15:28:17.553Z</time></trkpt><trkpt lat="44.137125" lon="11.5857967"><ele>598.0</ele><time>2026-05-02T15:28:18.553Z</time></trkpt><trkpt lat="44.137075" lon="11.585955"><ele>598.0</ele><time>2026-05-02T15:28:19.553Z</time></trkpt><trkpt lat="44.1370317" lon="11.5861167"><ele>598.0</ele><time>2026-05-02T15:28:20.553Z</time></trkpt><trkpt lat="44.13699" lon="11.5862517"><ele>598.0</ele><time>2026-05-02T15:28:21.553Z</time></trkpt><trkpt lat="44.1369367" lon="11.5863517"><ele>598.0</ele><time>2026-05-02T15:28:22.553Z</time></trkpt><trkpt lat="44.1368717" lon="11.5864083"><ele>598.0</ele><time>2026-05-02T15:28:23.553Z</time></trkpt><trkpt lat="44.1367833" lon="11.5864117"><ele>602.25</ele><time>2026-05-02T15:28:24.552Z</time></trkpt><trkpt lat="44.1366817" lon="11.58639"><ele>606.5</ele><time>2026-05-02T15:28:25.553Z</time></trkpt><trkpt lat="44.1365617" lon="11.5863783"><ele>610.75</ele><time>2026-05-02T15:28:26.553Z</time></trkpt><trkpt lat="44.1364317" lon="11.5863833"><ele>615.0</ele><time>2026-05-02T15:28:27.553Z</time></trkpt><trkpt lat="44.1363017" lon="11.5864233"><ele>615.8</ele><time>2026-05-02T15:28:28.553Z</time></trkpt><trkpt lat="44.1361817" lon="11.5864683"><ele>616.6</ele><time>2026-05-02T15:28:29.553Z</time></trkpt><trkpt lat="44.1360867" lon="11.5864933"><ele>617.4</ele><time>2026-05-02T15:28:30.553Z</time></trkpt><trkpt lat="44.1360133" lon="11.5865067"><ele>618.2</ele><time>2026-05-02T15:28:31.553Z</time></trkpt><trkpt lat="44.1359417" lon="11.586575"><ele>619.0</ele><time>2026-05-02T15:28:33.553Z</time></trkpt><trkpt lat="44.135985" lon="11.5866567"><ele>619.0</ele><time>2026-05-02T15:28:35.553Z</time></trkpt><trkpt lat="44.1361467" lon="11.5866583"><ele>619.0</ele><time>2026-05-02T15:28:37.553Z</time></trkpt><trkpt lat="44.13628" lon="11.5866483"><ele>619.0</ele><time>2026-05-02T15:28:38.553Z</time></trkpt><trkpt lat="44.13642" lon="11.5866533"><ele>619.0</ele><time>2026-05-02T15:28:39.553Z</time></trkpt><trkpt lat="44.136565" lon="11.5867133"><ele>617.6666666666667</ele><time>2026-05-02T15:28:40.553Z</time></trkpt><trkpt lat="44.136715" lon="11.5868083"><ele>616.3333333333334</ele><time>2026-05-02T15:28:41.553Z</time></trkpt><trkpt lat="44.1368767" lon="11.586905"><ele>615.0</ele><time>2026-05-02T15:28:42.553Z</time></trkpt><trkpt lat="44.1370417" lon="11.58701"><ele>619.75</ele><time>2026-05-02T15:28:43.553Z</time></trkpt><trkpt lat="44.137305" lon="11.58711"><ele>624.5</ele><time>2026-05-02T15:28:45.553Z</time></trkpt><trkpt lat="44.137395" lon="11.5871233"><ele>629.25</ele><time>2026-05-02T15:28:46.553Z</time></trkpt><trkpt lat="44.13746" lon="11.5871667"><ele>634.0</ele><time>2026-05-02T15:28:47.553Z</time></trkpt><trkpt lat="44.1374483" lon="11.5873133"><ele>634.4</ele><time>2026-05-02T15:28:49.553Z</time></trkpt><trkpt lat="44.1373183" lon="11.587385"><ele>634.8</ele><time>2026-05-02T15:28:51.552Z</time></trkpt><trkpt lat="44.1372283" lon="11.5873883"><ele>635.2</ele><time>2026-05-02T15:28:52.553Z</time></trkpt><trkpt lat="44.13713" lon="11.58738"><ele>635.6</ele><time>2026-05-02T15:28:53.553Z</time></trkpt><trkpt lat="44.1370233" lon="11.5873683"><ele>636.0</ele><time>2026-05-02T15:28:54.553Z</time></trkpt><trkpt lat="44.136815" lon="11.5873083"><ele>636.0</ele><time>2026-05-02T15:28:56.553Z</time></trkpt><trkpt lat="44.1367267" lon="11.5872783"><ele>636.0</ele><time>2026-05-02T15:28:57.553Z</time></trkpt><trkpt lat="44.1366483" lon="11.58725"><ele>636.0</ele><time>2026-05-02T15:28:58.553Z</time></trkpt><trkpt lat="44.1365467" lon="11.58719"><ele>636.0</ele><time>2026-05-02T15:29:00.553Z</time></trkpt><trkpt lat="44.13649" lon="11.5871517"><ele>636.0</ele><time>2026-05-02T15:29:02.552Z</time></trkpt><trkpt lat="44.1364317" lon="11.5871033"><ele>636.0</ele><time>2026-05-02T15:29:06.553Z</time></trkpt><trkpt lat="44.1363417" lon="11.587115"><ele>630.3333333333334</ele><time>2026-05-02T15:29:42.553Z</time></trkpt><trkpt lat="44.1365" lon="11.5867967"><ele>624.6666666666667</ele><time>2026-05-02T16:21:47.557Z</time></trkpt><trkpt lat="44.1365067" lon="11.58664"><ele>619.0</ele><time>2026-05-02T16:21:49.489Z</time></trkpt><trkpt lat="44.1364533" lon="11.586805"><ele>619.0</ele><time>2026-05-02T16:23:16.557Z</time></trkpt><trkpt lat="44.13642" lon="11.5869233"><ele>619.0</ele><time>2026-05-02T16:24:59.557Z</time></trkpt><trkpt lat="44.1363833" lon="11.5870417"><ele>619.0</ele><time>2026-05-02T16:27:07.557Z</time></trkpt><trkpt lat="44.1363417" lon="11.58716"><ele>619.0</ele><time>2026-05-02T16:35:57.556Z</time></trkpt><trkpt lat="44.1364383" lon="11.5872667"><ele>619.0</ele><time>2026-05-02T16:36:47.555Z</time></trkpt><trkpt lat="44.136535" lon="11.5872933"><ele>622.4</ele><time>2026-05-02T16:36:48.556Z</time></trkpt><trkpt lat="44.136635" lon="11.5873033"><ele>625.8</ele><time>2026-05-02T16:36:49.556Z</time></trkpt><trkpt lat="44.1367383" lon="11.5873217"><ele>629.2</ele><time>2026-05-02T16:36:50.555Z</time></trkpt><trkpt lat="44.1368483" lon="11.58735"><ele>632.6</ele><time>2026-05-02T16:36:51.556Z</time></trkpt><trkpt lat="44.1369467" lon="11.58736"><ele>636.0</ele><time>2026-05-02T16:36:52.556Z</time></trkpt><trkpt lat="44.13704" lon="11.5873817"><ele>636.0</ele><time>2026-05-02T16:36:53.556Z</time></trkpt><trkpt lat="44.137135" lon="11.5873883"><ele>636.0</ele><time>2026-05-02T16:36:54.556Z</time></trkpt><trkpt lat="44.1372233" lon="11.5873867"><ele>636.0</ele><time>2026-05-02T16:36:55.556Z</time></trkpt><trkpt lat="44.1373017" lon="11.5873983"><ele>636.0</ele><time>2026-05-02T16:36:56.556Z</time></trkpt><trkpt lat="44.137375" lon="11.5873983"><ele>636.0</ele><time>2026-05-02T16:36:57.556Z</time></trkpt><trkpt lat="44.1374483" lon="11.5873733"><ele>636.0</ele><time>2026-05-02T16:36:58.556Z</time></trkpt><trkpt lat="44.137495" lon="11.5873117"><ele>636.0</ele><time>2026-05-02T16:36:59.555Z</time></trkpt><trkpt lat="44.137505" lon="11.5872217"><ele>636.0</ele><time>2026-05-02T16:37:00.556Z</time></trkpt><trkpt lat="44.1374583" lon="11.587145"><ele>636.0</ele><time>2026-05-02T16:37:01.555Z</time></trkpt><trkpt lat="44.1374" lon="11.5870917"><ele>636.0</ele><time>2026-05-02T16:37:02.556Z</time></trkpt><trkpt lat="44.1373333" lon="11.5870633"><ele>636.0</ele><time>2026-05-02T16:37:03.556Z</time></trkpt><trkpt lat="44.13725" lon="11.5870517"><ele>636.0</ele><time>2026-05-02T16:37:04.556Z</time></trkpt><trkpt lat="44.1371417" lon="11.5870183"><ele>630.75</ele><time>2026-05-02T16:37:05.556Z</time></trkpt><trkpt lat="44.1370367" lon="11.58698"><ele>625.5</ele><time>2026-05-02T16:37:06.556Z</time></trkpt><trkpt lat="44.1369367" lon="11.5869267"><ele>620.25</ele><time>2026-05-02T16:37:07.556Z</time></trkpt><trkpt lat="44.13682" lon="11.58685"><ele>615.0</ele><time>2026-05-02T16:37:08.556Z</time></trkpt><trkpt lat="44.1366817" lon="11.5867833"><ele>616.0</ele><time>2026-05-02T16:37:09.556Z</time></trkpt><trkpt lat="44.1365517" lon="11.58673"><ele>617.0</ele><time>2026-05-02T16:37:10.556Z</time></trkpt><trkpt lat="44.1364183" lon="11.5866783"><ele>618.0</ele><time>2026-05-02T16:37:11.556Z</time></trkpt><trkpt lat="44.1362983" lon="11.58666"><ele>619.0</ele><time>2026-05-02T16:37:12.556Z</time></trkpt><trkpt lat="44.1361767" lon="11.586675"><ele>619.0</ele><time>2026-05-02T16:37:13.556Z</time></trkpt><trkpt lat="44.1360933" lon="11.5866883"><ele>619.0</ele><time>2026-05-02T16:37:14.556Z</time></trkpt><trkpt lat="44.13602" lon="11.5866983"><ele>619.0</ele><time>2026-05-02T16:37:15.555Z</time></trkpt><trkpt lat="44.1359383" lon="11.586635"><ele>619.0</ele><time>2026-05-02T16:37:17.556Z</time></trkpt><trkpt lat="44.13599" lon="11.5865433"><ele>619.0</ele><time>2026-05-02T16:37:19.556Z</time></trkpt><trkpt lat="44.1360767" lon="11.5865"><ele>619.0</ele><time>2026-05-02T16:37:20.556Z</time></trkpt><trkpt lat="44.1362117" lon="11.5864567"><ele>619.0</ele><time>2026-05-02T16:37:21.556Z</time></trkpt><trkpt lat="44.1363567" lon="11.5864133"><ele>619.0</ele><time>2026-05-02T16:37:22.556Z</time></trkpt><trkpt lat="44.136495" lon="11.586375"><ele>619.0</ele><time>2026-05-02T16:37:23.556Z</time></trkpt><trkpt lat="44.136615" lon="11.5863867"><ele>619.0</ele><time>2026-05-02T16:37:24.556Z</time></trkpt><trkpt lat="44.1367233" lon="11.5864083"><ele>618.2</ele><time>2026-05-02T16:37:25.556Z</time></trkpt><trkpt lat="44.1368233" lon="11.5864183"><ele>617.4</ele><time>2026-05-02T16:37:26.556Z</time></trkpt><trkpt lat="44.13691" lon="11.5863933"><ele>616.6</ele><time>2026-05-02T16:37:27.556Z</time></trkpt><trkpt lat="44.1369717" lon="11.58633"><ele>615.8</ele><time>2026-05-02T16:37:28.556Z</time></trkpt><trkpt lat="44.1370117" lon="11.58622"><ele>615.0</ele><time>2026-05-02T16:37:29.556Z</time></trkpt><trkpt lat="44.1370483" lon="11.5860783"><ele>611.6</ele><time>2026-05-02T16:37:30.556Z</time></trkpt><trkpt lat="44.1370783" lon="11.585935"><ele>608.2</ele><time>2026-05-02T16:37:31.555Z</time></trkpt><trkpt lat="44.1371133" lon="11.5858"><ele>604.8</ele><time>2026-05-02T16:37:32.556Z</time></trkpt><trkpt lat="44.13717" lon="11.5856817"><ele>601.4</ele><time>2026-05-02T16:37:33.556Z</time></trkpt><trkpt lat="44.1372417" lon="11.58559"><ele>598.0</ele><time>2026-05-02T16:37:34.556Z</time></trkpt><trkpt lat="44.137295" lon="11.5855183"><ele>598.0</ele><time>2026-05-02T16:37:35.556Z</time></trkpt><trkpt lat="44.1373017" lon="11.5853633"><ele>598.0</ele><time>2026-05-02T16:37:37.556Z</time></trkpt><trkpt lat="44.1371983" lon="11.5853517"><ele>598.0</ele><time>2026-05-02T16:37:39.556Z</time></trkpt><trkpt lat="44.1371367" lon="11.5854017"><ele>598.0</ele><time>2026-05-02T16:37:40.556Z</time></trkpt><trkpt lat="44.13707" lon="11.5854717"><ele>598.0</ele><time>2026-05-02T16:37:41.556Z</time></trkpt><trkpt lat="44.1369983" lon="11.5855567"><ele>598.0</ele><time>2026-05-02T16:37:42.556Z</time></trkpt><trkpt lat="44.13693" lon="11.5856433"><ele>598.0</ele><time>2026-05-02T16:37:43.556Z</time></trkpt><trkpt lat="44.1368567" lon="11.58573"><ele>598.0</ele><time>2026-05-02T16:37:44.556Z</time></trkpt><trkpt lat="44.1367783" lon="11.58578"><ele>598.0</ele><time>2026-05-02T16:37:45.556Z</time></trkpt><trkpt lat="44.1367017" lon="11.5857833"><ele>598.0</ele><time>2026-05-02T16:37:46.556Z</time></trkpt><trkpt lat="44.1366117" lon="11.5857233"><ele>598.25</ele><time>2026-05-02T16:37:47.556Z</time></trkpt><trkpt lat="44.1365183" lon="11.5856"><ele>598.5</ele><time>2026-05-02T16:37:48.556Z</time></trkpt><trkpt lat="44.1364167" lon="11.5854433"><ele>598.75</ele><time>2026-05-02T16:37:49.556Z</time></trkpt><trkpt lat="44.1363" lon="11.5852867"><ele>599.0</ele><time>2026-05-02T16:37:50.555Z</time></trkpt><trkpt lat="44.136175" lon="11.58516"><ele>594.75</ele><time>2026-05-02T16:37:51.556Z</time></trkpt><trkpt lat="44.136055" lon="11.5850467"><ele>590.5</ele><time>2026-05-02T16:37:52.556Z</time></trkpt><trkpt lat="44.1359333" lon="11.5849483"><ele>586.25</ele><time>2026-05-02T16:37:53.556Z</time></trkpt><trkpt lat="44.1358133" lon="11.584855"><ele>582.0</ele><time>2026-05-02T16:37:54.556Z</time></trkpt><trkpt lat="44.1357017" lon="11.584775"><ele>581.75</ele><time>2026-05-02T16:37:55.556Z</time></trkpt><trkpt lat="44.1355717" lon="11.58474"><ele>581.5</ele><time>2026-05-02T16:37:56.556Z</time></trkpt><trkpt lat="44.1354367" lon="11.5847283"><ele>581.25</ele><time>2026-05-02T16:37:57.556Z</time></trkpt><trkpt lat="44.1352967" lon="11.5847167"><ele>581.0</ele><time>2026-05-02T16:37:58.556Z</time></trkpt><trkpt lat="44.1351617" lon="11.584705"><ele>581.0</ele><time>2026-05-02T16:37:59.556Z</time></trkpt><trkpt lat="44.13501" lon="11.5846967"><ele>581.0</ele><time>2026-05-02T16:38:00.556Z</time></trkpt><trkpt lat="44.1348567" lon="11.58467"><ele>581.0</ele><time>2026-05-02T16:38:01.556Z</time></trkpt><trkpt lat="44.1347133" lon="11.584615"><ele>582.0</ele><time>2026-05-02T16:38:02.556Z</time></trkpt><trkpt lat="44.134575" lon="11.5845433"><ele>583.0</ele><time>2026-05-02T16:38:03.556Z</time></trkpt><trkpt lat="44.1344383" lon="11.58447"><ele>584.0</ele><time>2026-05-02T16:38:04.556Z</time></trkpt><trkpt lat="44.1342967" lon="11.5844267"><ele>585.0</ele><time>2026-05-02T16:38:05.556Z</time></trkpt><trkpt lat="44.1341567" lon="11.5843983"><ele>581.25</ele><time>2026-05-02T16:38:06.556Z</time></trkpt><trkpt lat="44.1340217" lon="11.584345"><ele>577.5</ele><time>2026-05-02T16:38:07.556Z</time></trkpt><trkpt lat="44.13389" lon="11.584265"><ele>573.75</ele><time>2026-05-02T16:38:08.556Z</time></trkpt><trkpt lat="44.1337717" lon="11.58417"><ele>570.0</ele><time>2026-05-02T16:38:09.555Z</time></trkpt><trkpt lat="44.133665" lon="11.5840817"><ele>570.0</ele><time>2026-05-02T16:38:10.556Z</time></trkpt><trkpt lat="44.1335483" lon="11.5840217"><ele>570.0</ele><time>2026-05-02T16:38:11.556Z</time></trkpt><trkpt lat="44.1334367" lon="11.5839933"><ele>570.0</ele><time>2026-05-02T16:38:12.556Z</time></trkpt><trkpt lat="44.1333433" lon="11.5839833"><ele>570.0</ele><time>2026-05-02T16:38:13.556Z</time></trkpt><trkpt lat="44.133275" lon="11.5839567"><ele>570.0</ele><time>2026-05-02T16:38:14.556Z</time></trkpt><trkpt lat="44.13323" lon="11.583825"><ele>570.0</ele><time>2026-05-02T16:38:16.556Z</time></trkpt><trkpt lat="44.133255" lon="11.5837417"><ele>570.0</ele><time>2026-05-02T16:38:17.556Z</time></trkpt><trkpt lat="44.1333367" lon="11.5836633"><ele>570.0</ele><time>2026-05-02T16:38:18.556Z</time></trkpt><trkpt lat="44.1334533" lon="11.5836117"><ele>570.0</ele><time>2026-05-02T16:38:19.556Z</time></trkpt><trkpt lat="44.13358" lon="11.58354"><ele>570.0</ele><time>2026-05-02T16:38:20.556Z</time></trkpt><trkpt lat="44.1336867" lon="11.5834383"><ele>565.0</ele><time>2026-05-02T16:38:21.556Z</time></trkpt><trkpt lat="44.1337783" lon="11.583315"><ele>560.0</ele><time>2026-05-02T16:38:22.556Z</time></trkpt><trkpt lat="44.1338633" lon="11.5832"><ele>555.0</ele><time>2026-05-02T16:38:23.556Z</time></trkpt><trkpt lat="44.1339467" lon="11.58313"><ele>550.0</ele><time>2026-05-02T16:38:24.556Z</time></trkpt><trkpt lat="44.134065" lon="11.5830933"><ele>550.0</ele><time>2026-05-02T16:38:25.556Z</time></trkpt><trkpt lat="44.1341983" lon="11.583075"><ele>550.0</ele><time>2026-05-02T16:38:26.556Z</time></trkpt><trkpt lat="44.1343267" lon="11.583055"><ele>550.0</ele><time>2026-05-02T16:38:27.556Z</time></trkpt><trkpt lat="44.134445" lon="11.5830233"><ele>550.0</ele><time>2026-05-02T16:38:28.556Z</time></trkpt><trkpt lat="44.1346283" lon="11.582915"><ele>547.5</ele><time>2026-05-02T16:38:30.556Z</time></trkpt><trkpt lat="44.134685" lon="11.58284"><ele>545.0</ele><time>2026-05-02T16:38:31.556Z</time></trkpt><trkpt lat="44.1347283" lon="11.582735"><ele>542.5</ele><time>2026-05-02T16:38:32.556Z</time></trkpt><trkpt lat="44.1347433" lon="11.58263"><ele>540.0</ele><time>2026-05-02T16:38:33.556Z</time></trkpt><trkpt lat="44.134735" lon="11.5825033"><ele>537.5</ele><time>2026-05-02T16:38:34.556Z</time></trkpt><trkpt lat="44.1347083" lon="11.58235"><ele>535.0</ele><time>2026-05-02T16:38:35.556Z</time></trkpt><trkpt lat="44.1346683" lon="11.5821917"><ele>533.6</ele><time>2026-05-02T16:38:36.556Z</time></trkpt><trkpt lat="44.134625" lon="11.5820133"><ele>532.2</ele><time>2026-05-02T16:38:37.556Z</time></trkpt><trkpt lat="44.1345983" lon="11.58186"><ele>530.8</ele><time>2026-05-02T16:38:38.556Z</time></trkpt><trkpt lat="44.1345633" lon="11.58172"><ele>529.4</ele><time>2026-05-02T16:38:39.556Z</time></trkpt><trkpt lat="44.1345317" lon="11.5815967"><ele>528.0</ele><time>2026-05-02T16:38:40.556Z</time></trkpt><trkpt lat="44.134515" lon="11.5814867"><ele>528.0</ele><time>2026-05-02T16:38:41.556Z</time></trkpt><trkpt lat="44.1345067" lon="11.581395"><ele>528.0</ele><time>2026-05-02T16:38:42.556Z</time></trkpt><trkpt lat="44.1345467" lon="11.5812383"><ele>528.0</ele><time>2026-05-02T16:38:44.556Z</time></trkpt><trkpt lat="44.1345967" lon="11.5811817"><ele>528.0</ele><time>2026-05-02T16:38:45.556Z</time></trkpt><trkpt lat="44.1346617" lon="11.581145"><ele>528.0</ele><time>2026-05-02T16:38:46.556Z</time></trkpt><trkpt lat="44.13473" lon="11.5811283"><ele>528.0</ele><time>2026-05-02T16:38:47.556Z</time></trkpt><trkpt lat="44.13481" lon="11.5811267"><ele>525.0</ele><time>2026-05-02T16:38:48.556Z</time></trkpt><trkpt lat="44.13492" lon="11.581125"><ele>522.0</ele><time>2026-05-02T16:38:49.556Z</time></trkpt><trkpt lat="44.1350467" lon="11.58113"><ele>519.0</ele><time>2026-05-02T16:38:50.556Z</time></trkpt><trkpt lat="44.135195" lon="11.58111"><ele>516.0</ele><time>2026-05-02T16:38:51.556Z</time></trkpt><trkpt lat="44.135345" lon="11.5810183"><ele>516.0</ele><time>2026-05-02T16:38:52.556Z</time></trkpt><trkpt lat="44.1354917" lon="11.5808883"><ele>516.0</ele><time>2026-05-02T16:38:53.556Z</time></trkpt><trkpt lat="44.1356233" lon="11.58074"><ele>516.0</ele><time>2026-05-02T16:38:54.556Z</time></trkpt><trkpt lat="44.1357417" lon="11.5805833"><ele>517.25</ele><time>2026-05-02T16:38:55.556Z</time></trkpt><trkpt lat="44.135835" lon="11.580445"><ele>518.5</ele><time>2026-05-02T16:38:56.556Z</time></trkpt><trkpt lat="44.1359267" lon="11.58032"><ele>519.75</ele><time>2026-05-02T16:38:57.556Z</time></trkpt><trkpt lat="44.13601" lon="11.5802017"><ele>521.0</ele><time>2026-05-02T16:38:58.556Z</time></trkpt><trkpt lat="44.1360983" lon="11.5801"><ele>517.4</ele><time>2026-05-02T16:38:59.556Z</time></trkpt><trkpt lat="44.1361983" lon="11.5800083"><ele>513.8</ele><time>2026-05-02T16:39:00.555Z</time></trkpt><trkpt lat="44.1362867" lon="11.5799317"><ele>510.19999999999993</ele><time>2026-05-02T16:39:01.556Z</time></trkpt><trkpt lat="44.1363667" lon="11.5798917"><ele>506.59999999999997</ele><time>2026-05-02T16:39:02.556Z</time></trkpt><trkpt lat="44.1364533" lon="11.57988"><ele>503.0</ele><time>2026-05-02T16:39:03.556Z</time></trkpt><trkpt lat="44.136565" lon="11.579945"><ele>503.0</ele><time>2026-05-02T16:39:04.555Z</time></trkpt><trkpt lat="44.136685" lon="11.58003"><ele>503.0</ele><time>2026-05-02T16:39:05.556Z</time></trkpt><trkpt lat="44.1368033" lon="11.580105"><ele>503.0</ele><time>2026-05-02T16:39:06.556Z</time></trkpt><trkpt lat="44.1368967" lon="11.58019"><ele>503.0</ele><time>2026-05-02T16:39:07.556Z</time></trkpt><trkpt lat="44.1369767" lon="11.5802917"><ele>507.0</ele><time>2026-05-02T16:39:08.556Z</time></trkpt><trkpt lat="44.1370217" lon="11.5804167"><ele>510.99999999999994</ele><time>2026-05-02T16:39:09.556Z</time></trkpt><trkpt lat="44.1370333" lon="11.580555"><ele>515.0</ele><time>2026-05-02T16:39:10.556Z</time></trkpt><trkpt lat="44.1370517" lon="11.5806833"><ele>519.0</ele><time>2026-05-02T16:39:11.556Z</time></trkpt><trkpt lat="44.137085" lon="11.5807917"><ele>523.0</ele><time>2026-05-02T16:39:12.555Z</time></trkpt><trkpt lat="44.1371367" lon="11.580865"><ele>523.0</ele><time>2026-05-02T16:39:13.556Z</time></trkpt><trkpt lat="44.137275" lon="11.5808417"><ele>523.0</ele><time>2026-05-02T16:39:15.556Z</time></trkpt><trkpt lat="44.137345" lon="11.5807533"><ele>523.0</ele><time>2026-05-02T16:39:16.556Z</time></trkpt><trkpt lat="44.13742" lon="11.5806567"><ele>523.0</ele><time>2026-05-02T16:39:17.556Z</time></trkpt><trkpt lat="44.1375" lon="11.5805633"><ele>523.0</ele><time>2026-05-02T16:39:18.556Z</time></trkpt><trkpt lat="44.1375933" lon="11.58047"><ele>519.1999999999999</ele><time>2026-05-02T16:39:19.556Z</time></trkpt><trkpt lat="44.137695" lon="11.5804283"><ele>515.4</ele><time>2026-05-02T16:39:20.556Z</time></trkpt><trkpt lat="44.1378017" lon="11.580465"><ele>511.59999999999997</ele><time>2026-05-02T16:39:21.556Z</time></trkpt><trkpt lat="44.137895" lon="11.5805417"><ele>507.79999999999995</ele><time>2026-05-02T16:39:22.556Z</time></trkpt><trkpt lat="44.1379733" lon="11.5806267"><ele>504.0</ele><time>2026-05-02T16:39:23.556Z</time></trkpt><trkpt lat="44.1380417" lon="11.580725"><ele>504.0</ele><time>2026-05-02T16:39:24.556Z</time></trkpt><trkpt lat="44.138115" lon="11.5807983"><ele>504.0</ele><time>2026-05-02T16:39:25.556Z</time></trkpt><trkpt lat="44.138185" lon="11.5808633"><ele>504.0</ele><time>2026-05-02T16:39:26.556Z</time></trkpt><trkpt lat="44.138275" lon="11.5808883"><ele>504.0</ele><time>2026-05-02T16:39:27.556Z</time></trkpt><trkpt lat="44.138395" lon="11.5809117"><ele>504.0</ele><time>2026-05-02T16:39:28.556Z</time></trkpt><trkpt lat="44.1385283" lon="11.580925"><ele>500.25</ele><time>2026-05-02T16:39:29.556Z</time></trkpt><trkpt lat="44.1386567" lon="11.58095"><ele>496.5</ele><time>2026-05-02T16:39:30.556Z</time></trkpt><trkpt lat="44.1388" lon="11.5809133"><ele>492.75</ele><time>2026-05-02T16:39:31.556Z</time></trkpt><trkpt lat="44.138935" lon="11.58084"><ele>489.0</ele><time>2026-05-02T16:39:32.556Z</time></trkpt><trkpt lat="44.13905" lon="11.5807533"><ele>487.8333333333333</ele><time>2026-05-02T16:39:33.556Z</time></trkpt><trkpt lat="44.1391417" lon="11.5806883"><ele>486.66666666666663</ele><time>2026-05-02T16:39:34.556Z</time></trkpt><trkpt lat="44.139225" lon="11.58064"><ele>485.5</ele><time>2026-05-02T16:39:35.556Z</time></trkpt><trkpt lat="44.1393" lon="11.5806"><ele>484.3333333333333</ele><time>2026-05-02T16:39:36.556Z</time></trkpt><trkpt lat="44.13938" lon="11.5805833"><ele>483.16666666666663</ele><time>2026-05-02T16:39:37.556Z</time></trkpt><trkpt lat="44.139465" lon="11.5805833"><ele>482.0</ele><time>2026-05-02T16:39:38.556Z</time></trkpt><trkpt lat="44.1395617" lon="11.580615"><ele>482.0</ele><time>2026-05-02T16:39:39.556Z</time></trkpt><trkpt lat="44.139665" lon="11.5806883"><ele>482.0</ele><time>2026-05-02T16:39:40.556Z</time></trkpt><trkpt lat="44.1397883" lon="11.5807567"><ele>482.0</ele><time>2026-05-02T16:39:41.556Z</time></trkpt><trkpt lat="44.139905" lon="11.5808033"><ele>482.0</ele><time>2026-05-02T16:39:42.556Z</time></trkpt><trkpt lat="44.1400133" lon="11.5808367"><ele>480.49999999999994</ele><time>2026-05-02T16:39:43.556Z</time></trkpt><trkpt lat="44.1401117" lon="11.580855"><ele>479.0</ele><time>2026-05-02T16:39:44.556Z</time></trkpt><trkpt lat="44.1402017" lon="11.5808533"><ele>477.5</ele><time>2026-05-02T16:39:45.556Z</time></trkpt><trkpt lat="44.1402767" lon="11.5808233"><ele>476.0</ele><time>2026-05-02T16:39:46.556Z</time></trkpt><trkpt lat="44.1403417" lon="11.58076"><ele>474.49999999999994</ele><time>2026-05-02T16:39:47.556Z</time></trkpt><trkpt lat="44.1403833" lon="11.5806767"><ele>473.0</ele><time>2026-05-02T16:39:48.556Z</time></trkpt><trkpt lat="44.1404183" lon="11.58058"><ele>473.0</ele><time>2026-05-02T16:39:49.555Z</time></trkpt><trkpt lat="44.14047" lon="11.5804933"><ele>472.99999999999994</ele><time>2026-05-02T16:39:50.556Z</time></trkpt><trkpt lat="44.1405383" lon="11.5804117"><ele>472.99999999999994</ele><time>2026-05-02T16:39:51.556Z</time></trkpt><trkpt lat="44.1406267" lon="11.5803483"><ele>473.0</ele><time>2026-05-02T16:39:52.556Z</time></trkpt><trkpt lat="44.1407183" lon="11.5802817"><ele>473.0</ele><time>2026-05-02T16:39:53.556Z</time></trkpt><trkpt lat="44.1408" lon="11.5802033"><ele>468.2</ele><time>2026-05-02T16:39:54.556Z</time></trkpt><trkpt lat="44.1408767" lon="11.5801183"><ele>463.4</ele><time>2026-05-02T16:39:55.556Z</time></trkpt><trkpt lat="44.1409433" lon="11.5800517"><ele>458.59999999999997</ele><time>2026-05-02T16:39:56.556Z</time></trkpt><trkpt lat="44.1410167" lon="11.5800117"><ele>453.79999999999995</ele><time>2026-05-02T16:39:57.556Z</time></trkpt><trkpt lat="44.1411067" lon="11.5800383"><ele>449.0</ele><time>2026-05-02T16:39:58.556Z</time></trkpt><trkpt lat="44.1412017" lon="11.5801033"><ele>449.0</ele><time>2026-05-02T16:39:59.556Z</time></trkpt><trkpt lat="44.1413117" lon="11.5802083"><ele>449.0</ele><time>2026-05-02T16:40:00.556Z</time></trkpt><trkpt lat="44.1414317" lon="11.5803183"><ele>449.0</ele><time>2026-05-02T16:40:01.556Z</time></trkpt><trkpt lat="44.1415433" lon="11.58043"><ele>449.0</ele><time>2026-05-02T16:40:02.555Z</time></trkpt><trkpt lat="44.1416383" lon="11.58054"><ele>450.5</ele><time>2026-05-02T16:40:03.556Z</time></trkpt><trkpt lat="44.14172" lon="11.58065"><ele>452.0</ele><time>2026-05-02T16:40:04.556Z</time></trkpt><trkpt lat="44.1418083" lon="11.5807467"><ele>453.5</ele><time>2026-05-02T16:40:05.556Z</time></trkpt><trkpt lat="44.14193" lon="11.580825"><ele>455.0</ele><time>2026-05-02T16:40:06.556Z</time></trkpt><trkpt lat="44.1420667" lon="11.5808967"><ele>455.0</ele><time>2026-05-02T16:40:07.555Z</time></trkpt><trkpt lat="44.1421917" lon="11.580975"><ele>455.0</ele><time>2026-05-02T16:40:08.556Z</time></trkpt><trkpt lat="44.1423002" lon="11.5810573"><ele>455.0</ele><time>2026-05-02T16:40:09.556Z</time></trkpt><trkpt lat="44.1423933" lon="11.5811453"><ele>455.0</ele><time>2026-05-02T16:40:10.556Z</time></trkpt><trkpt lat="44.1424607" lon="11.5812474"><ele>454.8333333333333</ele><time>2026-05-02T16:40:11.556Z</time></trkpt><trkpt lat="44.1425012" lon="11.5813604"><ele>454.66666666666663</ele><time>2026-05-02T16:40:12.556Z</time></trkpt><trkpt lat="44.14251" lon="11.58147"><ele>454.5</ele><time>2026-05-02T16:40:13.556Z</time></trkpt><trkpt lat="44.142505" lon="11.5815867"><ele>454.33333333333337</ele><time>2026-05-02T16:40:14.556Z</time></trkpt><trkpt lat="44.1424483" lon="11.58168"><ele>454.1666666666667</ele><time>2026-05-02T16:40:15.556Z</time></trkpt><trkpt lat="44.1423633" lon="11.5817233"><ele>454.0</ele><time>2026-05-02T16:40:16.556Z</time></trkpt><trkpt lat="44.1422533" lon="11.5817533"><ele>454.0</ele><time>2026-05-02T16:40:17.556Z</time></trkpt><trkpt lat="44.1421367" lon="11.5817883"><ele>454.0</ele><time>2026-05-02T16:40:18.555Z</time></trkpt><trkpt lat="44.1420067" lon="11.58185"><ele>454.0</ele><time>2026-05-02T16:40:19.556Z</time></trkpt><trkpt lat="44.141895" lon="11.5819417"><ele>454.0</ele><time>2026-05-02T16:40:20.556Z</time></trkpt><trkpt lat="44.1418" lon="11.582045"><ele>450.2</ele><time>2026-05-02T16:40:21.556Z</time></trkpt><trkpt lat="44.1417367" lon="11.5821567"><ele>446.4</ele><time>2026-05-02T16:40:22.556Z</time></trkpt><trkpt lat="44.1416917" lon="11.582275"><ele>442.6</ele><time>2026-05-02T16:40:23.556Z</time></trkpt><trkpt lat="44.141675" lon="11.5824017"><ele>438.8</ele><time>2026-05-02T16:40:24.556Z</time></trkpt><trkpt lat="44.141685" lon="11.5825333"><ele>435.0</ele><time>2026-05-02T16:40:25.556Z</time></trkpt><trkpt lat="44.1417133" lon="11.5826533"><ele>435.0</ele><time>2026-05-02T16:40:26.556Z</time></trkpt><trkpt lat="44.14176" lon="11.58275"><ele>435.0</ele><time>2026-05-02T16:40:27.556Z</time></trkpt><trkpt lat="44.1418367" lon="11.582805"><ele>435.0</ele><time>2026-05-02T16:40:28.556Z</time></trkpt><trkpt lat="44.1419483" lon="11.5828267"><ele>435.0</ele><time>2026-05-02T16:40:29.556Z</time></trkpt><trkpt lat="44.142085" lon="11.5828583"><ele>435.0</ele><time>2026-05-02T16:40:30.556Z</time></trkpt><trkpt lat="44.1422067" lon="11.58291"><ele>436.0</ele><time>2026-05-02T16:40:31.556Z</time></trkpt><trkpt lat="44.14231" lon="11.5829733"><ele>437.0</ele><time>2026-05-02T16:40:32.556Z</time></trkpt><trkpt lat="44.1423833" lon="11.5830383"><ele>438.0</ele><time>2026-05-02T16:40:33.556Z</time></trkpt><trkpt lat="44.1424933" lon="11.58307"><ele>439.0</ele><time>2026-05-02T16:40:35.556Z</time></trkpt><trkpt lat="44.1425283" lon="11.58296"><ele>440.0</ele><time>2026-05-02T16:40:37.556Z</time></trkpt><trkpt lat="44.1424783" lon="11.5828917"><ele>439.0</ele><time>2026-05-02T16:40:38.556Z</time></trkpt><trkpt lat="44.1424017" lon="11.5828367"><ele>438.0</ele><time>2026-05-02T16:40:39.556Z</time></trkpt><trkpt lat="44.1423083" lon="11.5827617"><ele>437.0</ele><time>2026-05-02T16:40:40.556Z</time></trkpt><trkpt lat="44.14223" lon="11.5826833"><ele>436.0</ele><time>2026-05-02T16:40:41.556Z</time></trkpt><trkpt lat="44.14216" lon="11.5826033"><ele>435.0</ele><time>2026-05-02T16:40:42.556Z</time></trkpt><trkpt lat="44.1421183" lon="11.5825167"><ele>435.0</ele><time>2026-05-02T16:40:43.556Z</time></trkpt><trkpt lat="44.1421383" lon="11.58237"><ele>435.0</ele><time>2026-05-02T16:40:45.556Z</time></trkpt><trkpt lat="44.1422017" lon="11.582305"><ele>435.0</ele><time>2026-05-02T16:40:46.556Z</time></trkpt><trkpt lat="44.1423" lon="11.58225"><ele>435.0</ele><time>2026-05-02T16:40:47.556Z</time></trkpt><trkpt lat="44.1424633" lon="11.5821917"><ele>433.5</ele><time>2026-05-02T16:40:48.556Z</time></trkpt><trkpt lat="44.1426" lon="11.5821417"><ele>432.0</ele><time>2026-05-02T16:40:49.556Z</time></trkpt><trkpt lat="44.1427133" lon="11.5820833"><ele>430.5</ele><time>2026-05-02T16:40:50.556Z</time></trkpt><trkpt lat="44.1427983" lon="11.5820217"><ele>429.0</ele><time>2026-05-02T16:40:51.556Z</time></trkpt><trkpt lat="44.14286" lon="11.581915"><ele>429.0</ele><time>2026-05-02T16:40:52.556Z</time></trkpt><trkpt lat="44.1429017" lon="11.581765"><ele>429.0</ele><time>2026-05-02T16:40:53.556Z</time></trkpt><trkpt lat="44.1429333" lon="11.5815933"><ele>429.0</ele><time>2026-05-02T16:40:54.556Z</time></trkpt><trkpt lat="44.1429567" lon="11.5814417"><ele>429.0</ele><time>2026-05-02T16:40:55.556Z</time></trkpt><trkpt lat="44.1429733" lon="11.5813017"><ele>427.75</ele><time>2026-05-02T16:40:56.556Z</time></trkpt><trkpt lat="44.142965" lon="11.5811617"><ele>426.5</ele><time>2026-05-02T16:40:57.556Z</time></trkpt><trkpt lat="44.142925" lon="11.5810283"><ele>425.25</ele><time>2026-05-02T16:40:58.556Z</time></trkpt><trkpt lat="44.14285" lon="11.58088"><ele>424.0</ele><time>2026-05-02T16:40:59.556Z</time></trkpt><trkpt lat="44.1427417" lon="11.58071"><ele>424.0</ele><time>2026-05-02T16:41:00.556Z</time></trkpt><trkpt lat="44.14262" lon="11.5805417"><ele>424.0</ele><time>2026-05-02T16:41:01.556Z</time></trkpt><trkpt lat="44.1424767" lon="11.580375"><ele>424.0</ele><time>2026-05-02T16:41:02.556Z</time></trkpt><trkpt lat="44.14234" lon="11.5802283"><ele>425.0</ele><time>2026-05-02T16:41:03.556Z</time></trkpt><trkpt lat="44.1422117" lon="11.580095"><ele>426.0</ele><time>2026-05-02T16:41:04.556Z</time></trkpt><trkpt lat="44.14211" lon="11.5799517"><ele>427.0</ele><time>2026-05-02T16:41:05.556Z</time></trkpt><trkpt lat="44.1420233" lon="11.5798033"><ele>428.0</ele><time>2026-05-02T16:41:06.556Z</time></trkpt><trkpt lat="44.141945" lon="11.5796567"><ele>428.0</ele><time>2026-05-02T16:41:07.556Z</time></trkpt><trkpt lat="44.1418767" lon="11.579535"><ele>427.99999999999994</ele><time>2026-05-02T16:41:08.556Z</time></trkpt><trkpt lat="44.1418083" lon="11.5794267"><ele>427.99999999999994</ele><time>2026-05-02T16:41:09.556Z</time></trkpt><trkpt lat="44.1417383" lon="11.57931"><ele>428.0</ele><time>2026-05-02T16:41:10.556Z</time></trkpt><trkpt lat="44.14166" lon="11.5792033"><ele>428.0</ele><time>2026-05-02T16:41:11.556Z</time></trkpt><trkpt lat="44.1415817" lon="11.5791067"><ele>427.3333333333333</ele><time>2026-05-02T16:41:12.556Z</time></trkpt><trkpt lat="44.1414967" lon="11.5790383"><ele>426.66666666666663</ele><time>2026-05-02T16:41:13.556Z</time></trkpt><trkpt lat="44.1414217" lon="11.5789783"><ele>426.0</ele><time>2026-05-02T16:41:14.556Z</time></trkpt><trkpt lat="44.1413583" lon="11.5789233"><ele>425.33333333333337</ele><time>2026-05-02T16:41:15.556Z</time></trkpt><trkpt lat="44.1413233" lon="11.5788167"><ele>424.6666666666667</ele><time>2026-05-02T16:41:17.556Z</time></trkpt><trkpt lat="44.1414217" lon="11.57882"><ele>424.0</ele><time>2026-05-02T16:41:19.556Z</time></trkpt><trkpt lat="44.1414883" lon="11.5788917"><ele>419.2</ele><time>2026-05-02T16:41:20.556Z</time></trkpt><trkpt lat="44.141575" lon="11.57899"><ele>414.4</ele><time>2026-05-02T16:41:21.556Z</time></trkpt><trkpt lat="44.14167" lon="11.579075"><ele>409.6</ele><time>2026-05-02T16:41:22.556Z</time></trkpt><trkpt lat="44.14177" lon="11.5791433"><ele>404.8</ele><time>2026-05-02T16:41:23.556Z</time></trkpt><trkpt lat="44.14186" lon="11.57921"><ele>400.0</ele><time>2026-05-02T16:41:24.556Z</time></trkpt><trkpt lat="44.1419467" lon="11.5792833"><ele>400.00000000000006</ele><time>2026-05-02T16:41:25.556Z</time></trkpt><trkpt lat="44.1420183" lon="11.5793717"><ele>400.0</ele><time>2026-05-02T16:41:26.556Z</time></trkpt><trkpt lat="44.1420767" lon="11.5794533"><ele>400.0</ele><time>2026-05-02T16:41:27.556Z</time></trkpt><trkpt lat="44.142125" lon="11.5795217"><ele>400.0</ele><time>2026-05-02T16:41:28.556Z</time></trkpt><trkpt lat="44.142205" lon="11.5796033"><ele>400.00000000000006</ele><time>2026-05-02T16:41:30.556Z</time></trkpt><trkpt lat="44.1422883" lon="11.57955"><ele>400.0</ele><time>2026-05-02T16:41:32.556Z</time></trkpt><trkpt lat="44.1423117" lon="11.5794633"><ele>400.0</ele><time>2026-05-02T16:41:33.556Z</time></trkpt><trkpt lat="44.1422867" lon="11.5793767"><ele>400.0</ele><time>2026-05-02T16:41:34.556Z</time></trkpt><trkpt lat="44.1422367" lon="11.5792717"><ele>400.0</ele><time>2026-05-02T16:41:35.556Z</time></trkpt><trkpt lat="44.142165" lon="11.5791333"><ele>400.0</ele><time>2026-05-02T16:41:36.556Z</time></trkpt><trkpt lat="44.142095" lon="11.57898"><ele>400.0</ele><time>2026-05-02T16:41:37.556Z</time></trkpt><trkpt lat="44.1420283" lon="11.5788483"><ele>400.0</ele><time>2026-05-02T16:41:38.556Z</time></trkpt><trkpt lat="44.1419683" lon="11.5787183"><ele>400.0</ele><time>2026-05-02T16:41:39.555Z</time></trkpt><trkpt lat="44.1419083" lon="11.5785883"><ele>400.0</ele><time>2026-05-02T16:41:40.556Z</time></trkpt><trkpt lat="44.14185" lon="11.578465"><ele>400.0</ele><time>2026-05-02T16:41:41.556Z</time></trkpt><trkpt lat="44.1417883" lon="11.5783417"><ele>400.0</ele><time>2026-05-02T16:41:42.556Z</time></trkpt><trkpt lat="44.14173" lon="11.5782283"><ele>398.50000000000006</ele><time>2026-05-02T16:41:43.556Z</time></trkpt><trkpt lat="44.1416767" lon="11.5781283"><ele>397.0</ele><time>2026-05-02T16:41:44.556Z</time></trkpt><trkpt lat="44.1416233" lon="11.5780383"><ele>395.5</ele><time>2026-05-02T16:41:45.556Z</time></trkpt><trkpt lat="44.14158" lon="11.5779433"><ele>394.0</ele><time>2026-05-02T16:41:46.556Z</time></trkpt><trkpt lat="44.1415433" lon="11.5778617"><ele>392.50000000000006</ele><time>2026-05-02T16:41:47.556Z</time></trkpt><trkpt lat="44.14153" lon="11.5777733"><ele>391.0</ele><time>2026-05-02T16:41:48.556Z</time></trkpt><trkpt lat="44.1415733" lon="11.577685"><ele>387.50000000000006</ele><time>2026-05-02T16:41:49.556Z</time></trkpt><trkpt lat="44.1416267" lon="11.5776133"><ele>384.0</ele><time>2026-05-02T16:41:50.556Z</time></trkpt><trkpt lat="44.1416867" lon="11.5775417"><ele>380.5</ele><time>2026-05-02T16:41:51.556Z</time></trkpt><trkpt lat="44.1417517" lon="11.5774683"><ele>377.0</ele><time>2026-05-02T16:41:52.556Z</time></trkpt><trkpt lat="44.14182" lon="11.5773983"><ele>373.5</ele><time>2026-05-02T16:41:53.556Z</time></trkpt><trkpt lat="44.14189" lon="11.5773233"><ele>370.0</ele><time>2026-05-02T16:41:54.556Z</time></trkpt><trkpt lat="44.1419667" lon="11.5772533"><ele>370.0</ele><time>2026-05-02T16:41:55.556Z</time></trkpt><trkpt lat="44.142035" lon="11.577175"><ele>370.0</ele><time>2026-05-02T16:41:56.556Z</time></trkpt><trkpt lat="44.14211" lon="11.577095"><ele>370.0</ele><time>2026-05-02T16:41:57.556Z</time></trkpt><trkpt lat="44.1421883" lon="11.5770183"><ele>370.0</ele><time>2026-05-02T16:41:58.556Z</time></trkpt><trkpt lat="44.1422683" lon="11.5769367"><ele>370.0</ele><time>2026-05-02T16:41:59.556Z</time></trkpt><trkpt lat="44.142345" lon="11.5768617"><ele>368.1428571428571</ele><time>2026-05-02T16:42:00.556Z</time></trkpt><trkpt lat="44.1424167" lon="11.576795"><ele>366.2857142857143</ele><time>2026-05-02T16:42:01.556Z</time></trkpt><trkpt lat="44.1424783" lon="11.5767367"><ele>364.42857142857144</ele><time>2026-05-02T16:42:02.556Z</time></trkpt><trkpt lat="44.1425267" lon="11.5766617"><ele>362.57142857142856</ele><time>2026-05-02T16:42:03.556Z</time></trkpt><trkpt lat="44.1425533" lon="11.5765617"><ele>360.7142857142857</ele><time>2026-05-02T16:42:04.556Z</time></trkpt><trkpt lat="44.1425467" lon="11.5764683"><ele>358.85714285714283</ele><time>2026-05-02T16:42:05.556Z</time></trkpt><trkpt lat="44.1424983" lon="11.5764"><ele>357.0</ele><time>2026-05-02T16:42:06.556Z</time></trkpt><trkpt lat="44.1424117" lon="11.57636"><ele>358.25</ele><time>2026-05-02T16:42:07.556Z</time></trkpt><trkpt lat="44.14229" lon="11.5763367"><ele>359.5</ele><time>2026-05-02T16:42:08.556Z</time></trkpt><trkpt lat="44.14217" lon="11.5763117"><ele>360.75</ele><time>2026-05-02T16:42:09.556Z</time></trkpt><trkpt lat="44.1420617" lon="11.5762767"><ele>362.0</ele><time>2026-05-02T16:42:10.556Z</time></trkpt><trkpt lat="44.14196" lon="11.5762117"><ele>363.20000000000005</ele><time>2026-05-02T16:42:11.556Z</time></trkpt><trkpt lat="44.14186" lon="11.5761467"><ele>364.4</ele><time>2026-05-02T16:42:12.556Z</time></trkpt><trkpt lat="44.1417517" lon="11.5761133"><ele>365.6</ele><time>2026-05-02T16:42:13.556Z</time></trkpt><trkpt lat="44.1416583" lon="11.5760967"><ele>366.79999999999995</ele><time>2026-05-02T16:42:14.556Z</time></trkpt><trkpt lat="44.14158" lon="11.57608"><ele>368.0</ele><time>2026-05-02T16:42:15.556Z</time></trkpt><trkpt lat="44.1414817" lon="11.5760217"><ele>368.0</ele><time>2026-05-02T16:42:17.556Z</time></trkpt><trkpt lat="44.1415283" lon="11.5759167"><ele>368.0</ele><time>2026-05-02T16:42:19.556Z</time></trkpt><trkpt lat="44.141675" lon="11.5759417"><ele>368.0</ele><time>2026-05-02T16:42:21.556Z</time></trkpt><trkpt lat="44.1417683" lon="11.5759617"><ele>368.0</ele><time>2026-05-02T16:42:22.556Z</time></trkpt><trkpt lat="44.1418567" lon="11.57595"><ele>368.0</ele><time>2026-05-02T16:42:23.556Z</time></trkpt><trkpt lat="44.1419217" lon="11.575895"><ele>365.33333333333337</ele><time>2026-05-02T16:42:24.555Z</time></trkpt><trkpt lat="44.1419767" lon="11.5758133"><ele>362.6666666666667</ele><time>2026-05-02T16:42:25.556Z</time></trkpt><trkpt lat="44.1420183" lon="11.5757233"><ele>360.0</ele><time>2026-05-02T16:42:26.556Z</time></trkpt><trkpt lat="44.1420567" lon="11.57563"><ele>357.3333333333333</ele><time>2026-05-02T16:42:27.556Z</time></trkpt><trkpt lat="44.1421" lon="11.5755417"><ele>354.66666666666663</ele><time>2026-05-02T16:42:28.556Z</time></trkpt><trkpt lat="44.1421483" lon="11.57547"><ele>352.0</ele><time>2026-05-02T16:42:29.556Z</time></trkpt><trkpt lat="44.1422" lon="11.575405"><ele>352.0</ele><time>2026-05-02T16:42:30.556Z</time></trkpt><trkpt lat="44.1423383" lon="11.5754167"><ele>352.0</ele><time>2026-05-02T16:42:32.555Z</time></trkpt><trkpt lat="44.14243" lon="11.5754533"><ele>352.0</ele><time>2026-05-02T16:42:33.556Z</time></trkpt><trkpt lat="44.1425217" lon="11.5754783"><ele>352.0</ele><time>2026-05-02T16:42:34.556Z</time></trkpt><trkpt lat="44.142605" lon="11.57548"><ele>352.0</ele><time>2026-05-02T16:42:35.556Z</time></trkpt><trkpt lat="44.1427033" lon="11.5754917"><ele>352.25</ele><time>2026-05-02T16:42:36.556Z</time></trkpt><trkpt lat="44.1428317" lon="11.57552"><ele>352.5</ele><time>2026-05-02T16:42:37.556Z</time></trkpt><trkpt lat="44.142975" lon="11.575565"><ele>352.75</ele><time>2026-05-02T16:42:38.556Z</time></trkpt><trkpt lat="44.1431117" lon="11.575605"><ele>353.0</ele><time>2026-05-02T16:42:39.556Z</time></trkpt><trkpt lat="44.1432383" lon="11.57566"><ele>353.0</ele><time>2026-05-02T16:42:40.556Z</time></trkpt><trkpt lat="44.1433467" lon="11.5757283"><ele>353.0</ele><time>2026-05-02T16:42:41.556Z</time></trkpt><trkpt lat="44.1434333" lon="11.5758317"><ele>353.0</ele><time>2026-05-02T16:42:42.556Z</time></trkpt><trkpt lat="44.143515" lon="11.5759583"><ele>353.0</ele><time>2026-05-02T16:42:43.556Z</time></trkpt><trkpt lat="44.143595" lon="11.5760833"><ele>350.6666666666667</ele><time>2026-05-02T16:42:44.556Z</time></trkpt><trkpt lat="44.14367" lon="11.57622"><ele>348.3333333333333</ele><time>2026-05-02T16:42:45.556Z</time></trkpt><trkpt lat="44.143735" lon="11.5763783"><ele>346.0</ele><time>2026-05-02T16:42:46.556Z</time></trkpt><trkpt lat="44.1438533" lon="11.5767733"><ele>346.0</ele><time>2026-05-02T16:42:48.555Z</time></trkpt><trkpt lat="44.1439" lon="11.5770133"><ele>346.0</ele><time>2026-05-02T16:42:49.556Z</time></trkpt><trkpt lat="44.143925" lon="11.5772517"><ele>346.0</ele><time>2026-05-02T16:42:50.556Z</time></trkpt><trkpt lat="44.1439517" lon="11.5774717"><ele>347.0</ele><time>2026-05-02T16:42:51.556Z</time></trkpt><trkpt lat="44.1439967" lon="11.5776783"><ele>348.0</ele><time>2026-05-02T16:42:52.556Z</time></trkpt><trkpt lat="44.14406" lon="11.57787"><ele>349.0</ele><time>2026-05-02T16:42:53.556Z</time></trkpt><trkpt lat="44.14415" lon="11.578045"><ele>346.66666666666663</ele><time>2026-05-02T16:42:54.556Z</time></trkpt><trkpt lat="44.144275" lon="11.5782117"><ele>344.3333333333333</ele><time>2026-05-02T16:42:55.556Z</time></trkpt><trkpt lat="44.1444333" lon="11.5783433"><ele>342.0</ele><time>2026-05-02T16:42:56.556Z</time></trkpt><trkpt lat="44.1445917" lon="11.5784567"><ele>342.0</ele><time>2026-05-02T16:42:57.556Z</time></trkpt><trkpt lat="44.144745" lon="11.5785683"><ele>342.0</ele><time>2026-05-02T16:42:58.556Z</time></trkpt><trkpt lat="44.1448867" lon="11.5786983"><ele>342.0</ele><time>2026-05-02T16:42:59.556Z</time></trkpt><trkpt lat="44.1450383" lon="11.5788133"><ele>341.6666666666667</ele><time>2026-05-02T16:43:00.556Z</time></trkpt><trkpt lat="44.145185" lon="11.5789283"><ele>341.33333333333337</ele><time>2026-05-02T16:43:01.556Z</time></trkpt><trkpt lat="44.1453267" lon="11.5790517"><ele>341.0</ele><time>2026-05-02T16:43:02.556Z</time></trkpt><trkpt lat="44.1454633" lon="11.5791633"><ele>341.0</ele><time>2026-05-02T16:43:03.555Z</time></trkpt><trkpt lat="44.1455933" lon="11.5792983"><ele>341.0</ele><time>2026-05-02T16:43:04.556Z</time></trkpt><trkpt lat="44.14572" lon="11.5794567"><ele>341.0</ele><time>2026-05-02T16:43:05.556Z</time></trkpt><trkpt lat="44.14585" lon="11.57964"><ele>339.6666666666667</ele><time>2026-05-02T16:43:06.556Z</time></trkpt><trkpt lat="44.14598" lon="11.5798117"><ele>338.3333333333333</ele><time>2026-05-02T16:43:07.556Z</time></trkpt><trkpt lat="44.1461217" lon="11.5799617"><ele>337.0</ele><time>2026-05-02T16:43:08.556Z</time></trkpt><trkpt lat="44.146265" lon="11.58009"><ele>337.0</ele><time>2026-05-02T16:43:09.555Z</time></trkpt><trkpt lat="44.146415" lon="11.5801967"><ele>337.0</ele><time>2026-05-02T16:43:10.556Z</time></trkpt><trkpt lat="44.1465767" lon="11.580275"><ele>337.0</ele><time>2026-05-02T16:43:11.556Z</time></trkpt><trkpt lat="44.1467367" lon="11.5803367"><ele>336.75</ele><time>2026-05-02T16:43:12.556Z</time></trkpt><trkpt lat="44.146875" lon="11.5803733"><ele>336.5</ele><time>2026-05-02T16:43:13.556Z</time></trkpt><trkpt lat="44.1470033" lon="11.5803967"><ele>336.25</ele><time>2026-05-02T16:43:14.556Z</time></trkpt><trkpt lat="44.1471067" lon="11.5804133"><ele>336.0</ele><time>2026-05-02T16:43:15.556Z</time></trkpt><trkpt lat="44.147195" lon="11.5804217"><ele>336.0</ele><time>2026-05-02T16:43:16.556Z</time></trkpt><trkpt lat="44.147265" lon="11.5804417"><ele>336.0</ele><time>2026-05-02T16:43:17.556Z</time></trkpt><trkpt lat="44.1473267" lon="11.5804683"><ele>336.0</ele><time>2026-05-02T16:43:20.556Z</time></trkpt></trkseg></trk></gpx>